﻿<?xml version="1.0" encoding="UTF-8"?>
<gpx version="v1.1.5" creator="iTravel Tech Inc. - http://www.itravel-tech.com" xmlns:xsi="http://www.w3.org/2001/XMLSchema-instance" xmlns="http://www.topografix.com/GPX/1/1" xsi:schemaLocation="http://www.topografix.com/GPX/1/1 http://www.topografix.com/GPX/1/1/gpx.xsd http://www.topografix.com/GPX/gpx_overlay/0/3 http://www.topografix.com/GPX/gpx_overlay/0/3/gpx_overlay.xsd http://www.topografix.com/GPX/gpx_modified/0/1 http://www.topografix.com/GPX/gpx_modified/0/1/gpx_modified.xsd">
<trk>
<name>Holux2011/10/11_09:15</name>
<trkseg>
<trkpt lat="44.614887" lon="33.737717">
<ele>118.762756</ele>
<time>2011-10-11T06:15:08Z</time>
<desc>lat.=44.614887, lon.=33.737717, Alt.=118.762756m. Speed=0.288000m/h.</desc>
<speed>0.080000</speed>
</trkpt>
<trkpt lat="44.614887" lon="33.737610">
<ele>118.733459</ele>
<time>2011-10-11T06:15:13Z</time>
<desc>lat.=44.614887, lon.=33.737610, Alt.=118.733459m. Speed=0.108000m/h.</desc>
<speed>0.030000</speed>
</trkpt>
<trkpt lat="44.614864" lon="33.737553">
<ele>118.676819</ele>
<time>2011-10-11T06:15:18Z</time>
<desc>lat.=44.614864, lon.=33.737553, Alt.=118.676819m. Speed=0.324000m/h.</desc>
<speed>0.090000</speed>
</trkpt>
<trkpt lat="44.614861" lon="33.737495">
<ele>118.590881</ele>
<time>2011-10-11T06:15:23Z</time>
<desc>lat.=44.614861, lon.=33.737495, Alt.=118.590881m. Speed=0.252000m/h.</desc>
<speed>0.070000</speed>
</trkpt>
<trkpt lat="44.614872" lon="33.737503">
<ele>118.661194</ele>
<time>2011-10-11T06:15:28Z</time>
<desc>lat.=44.614872, lon.=33.737503, Alt.=118.661194m. Speed=0.144000m/h.</desc>
<speed>0.040000</speed>
</trkpt>
<trkpt lat="44.614887" lon="33.737492">
<ele>118.743225</ele>
<time>2011-10-11T06:15:33Z</time>
<desc>lat.=44.614887, lon.=33.737492, Alt.=118.743225m. Speed=0.288000m/h.</desc>
<speed>0.080000</speed>
</trkpt>
<trkpt lat="44.614872" lon="33.737473">
<ele>118.627991</ele>
<time>2011-10-11T06:15:38Z</time>
<desc>lat.=44.614872, lon.=33.737473, Alt.=118.627991m. Speed=0.144000m/h.</desc>
<speed>0.040000</speed>
</trkpt>
<trkpt lat="44.614872" lon="33.737473">
<ele>118.569397</ele>
<time>2011-10-11T06:15:43Z</time>
<desc>lat.=44.614872, lon.=33.737473, Alt.=118.569397m. Speed=0.144000m/h.</desc>
<speed>0.040000</speed>
</trkpt>
<trkpt lat="44.614872" lon="33.737473">
<ele>118.559631</ele>
<time>2011-10-11T06:15:48Z</time>
<desc>lat.=44.614872, lon.=33.737473, Alt.=118.559631m. Speed=0.072000m/h.</desc>
<speed>0.020000</speed>
</trkpt>
<trkpt lat="44.614868" lon="33.737473">
<ele>118.573303</ele>
<time>2011-10-11T06:15:53Z</time>
<desc>lat.=44.614868, lon.=33.737473, Alt.=118.573303m. Speed=0.108000m/h.</desc>
<speed>0.030000</speed>
</trkpt>
<trkpt lat="44.614868" lon="33.737473">
<ele>118.565491</ele>
<time>2011-10-11T06:15:58Z</time>
<desc>lat.=44.614868, lon.=33.737473, Alt.=118.565491m. Speed=0.324000m/h.</desc>
<speed>0.090000</speed>
</trkpt>
<trkpt lat="44.614868" lon="33.737465">
<ele>118.321350</ele>
<time>2011-10-11T06:16:03Z</time>
<desc>lat.=44.614868, lon.=33.737465, Alt.=118.321350m. Speed=0.252000m/h.</desc>
<speed>0.070000</speed>
</trkpt>
<trkpt lat="44.614868" lon="33.737465">
<ele>118.301819</ele>
<time>2011-10-11T06:16:08Z</time>
<desc>lat.=44.614868, lon.=33.737465, Alt.=118.301819m. Speed=0.180000m/h.</desc>
<speed>0.050000</speed>
</trkpt>
<trkpt lat="44.614872" lon="33.737469">
<ele>118.311584</ele>
<time>2011-10-11T06:16:13Z</time>
<desc>lat.=44.614872, lon.=33.737469, Alt.=118.311584m. Speed=0.684000m/h.</desc>
<speed>0.190000</speed>
</trkpt>
<trkpt lat="44.614872" lon="33.737465">
<ele>118.305725</ele>
<time>2011-10-11T06:16:18Z</time>
<desc>lat.=44.614872, lon.=33.737465, Alt.=118.305725m. Speed=1.260000m/h.</desc>
<speed>0.350000</speed>
</trkpt>
<trkpt lat="44.614727" lon="33.737049">
<ele>190.658325</ele>
<time>2011-10-11T06:16:23Z</time>
<desc>lat.=44.614727, lon.=33.737049, Alt.=190.658325m. Speed=1.332000m/h.</desc>
<speed>0.370000</speed>
</trkpt>
<trkpt lat="44.614746" lon="33.737087">
<ele>193.869263</ele>
<time>2011-10-11T06:16:28Z</time>
<desc>lat.=44.614746, lon.=33.737087, Alt.=193.869263m. Speed=0.684000m/h.</desc>
<speed>0.190000</speed>
</trkpt>
<trkpt lat="44.614750" lon="33.737076">
<ele>195.064575</ele>
<time>2011-10-11T06:16:33Z</time>
<desc>lat.=44.614750, lon.=33.737076, Alt.=195.064575m. Speed=0.504000m/h.</desc>
<speed>0.140000</speed>
</trkpt>
<trkpt lat="44.614746" lon="33.737080">
<ele>195.283325</ele>
<time>2011-10-11T06:16:38Z</time>
<desc>lat.=44.614746, lon.=33.737080, Alt.=195.283325m. Speed=1.080000m/h.</desc>
<speed>0.300000</speed>
</trkpt>
<trkpt lat="44.614616" lon="33.736988">
<ele>202.068481</ele>
<time>2011-10-11T06:16:43Z</time>
<desc>lat.=44.614616, lon.=33.736988, Alt.=202.068481m. Speed=1.044000m/h.</desc>
<speed>0.290000</speed>
</trkpt>
<trkpt lat="44.614594" lon="33.736950">
<ele>202.783325</ele>
<time>2011-10-11T06:16:48Z</time>
<desc>lat.=44.614594, lon.=33.736950, Alt.=202.783325m. Speed=0.684000m/h.</desc>
<speed>0.190000</speed>
</trkpt>
<trkpt lat="44.614590" lon="33.736942">
<ele>202.935669</ele>
<time>2011-10-11T06:16:53Z</time>
<desc>lat.=44.614590, lon.=33.736942, Alt.=202.935669m. Speed=0.972000m/h.</desc>
<speed>0.270000</speed>
</trkpt>
<trkpt lat="44.614544" lon="33.736870">
<ele>204.533325</ele>
<time>2011-10-11T06:16:58Z</time>
<desc>lat.=44.614544, lon.=33.736870, Alt.=204.533325m. Speed=0.792000m/h.</desc>
<speed>0.220000</speed>
</trkpt>
<trkpt lat="44.614536" lon="33.736870">
<ele>204.505981</ele>
<time>2011-10-11T06:17:03Z</time>
<desc>lat.=44.614536, lon.=33.736870, Alt.=204.505981m. Speed=0.468000m/h.</desc>
<speed>0.130000</speed>
</trkpt>
<trkpt lat="44.614532" lon="33.736870">
<ele>204.545044</ele>
<time>2011-10-11T06:17:08Z</time>
<desc>lat.=44.614532, lon.=33.736870, Alt.=204.545044m. Speed=0.756000m/h.</desc>
<speed>0.210000</speed>
</trkpt>
<trkpt lat="44.614510" lon="33.736755">
<ele>205.248169</ele>
<time>2011-10-11T06:17:13Z</time>
<desc>lat.=44.614510, lon.=33.736755, Alt.=205.248169m. Speed=0.792000m/h.</desc>
<speed>0.220000</speed>
</trkpt>
<trkpt lat="44.614498" lon="33.736729">
<ele>205.361450</ele>
<time>2011-10-11T06:17:18Z</time>
<desc>lat.=44.614498, lon.=33.736729, Alt.=205.361450m. Speed=0.288000m/h.</desc>
<speed>0.080000</speed>
</trkpt>
<trkpt lat="44.614494" lon="33.736732">
<ele>205.349731</ele>
<time>2011-10-11T06:17:23Z</time>
<desc>lat.=44.614494, lon.=33.736732, Alt.=205.349731m. Speed=0.756000m/h.</desc>
<speed>0.210000</speed>
</trkpt>
<trkpt lat="44.614464" lon="33.736858">
<ele>206.595825</ele>
<time>2011-10-11T06:17:28Z</time>
<desc>lat.=44.614464, lon.=33.736858, Alt.=206.595825m. Speed=1.224000m/h.</desc>
<speed>0.340000</speed>
</trkpt>
<trkpt lat="44.614422" lon="33.737015">
<ele>211.545044</ele>
<time>2011-10-11T06:17:33Z</time>
<desc>lat.=44.614422, lon.=33.737015, Alt.=211.545044m. Speed=1.476000m/h.</desc>
<speed>0.410000</speed>
</trkpt>
<trkpt lat="44.614429" lon="33.737072">
<ele>210.935669</ele>
<time>2011-10-11T06:17:38Z</time>
<desc>lat.=44.614429, lon.=33.737072, Alt.=210.935669m. Speed=0.972000m/h.</desc>
<speed>0.270000</speed>
</trkpt>
<trkpt lat="44.614437" lon="33.737087">
<ele>210.482544</ele>
<time>2011-10-11T06:17:43Z</time>
<desc>lat.=44.614437, lon.=33.737087, Alt.=210.482544m. Speed=0.684000m/h.</desc>
<speed>0.190000</speed>
</trkpt>
<trkpt lat="44.614441" lon="33.737099">
<ele>210.318481</ele>
<time>2011-10-11T06:17:48Z</time>
<desc>lat.=44.614441, lon.=33.737099, Alt.=210.318481m. Speed=1.044000m/h.</desc>
<speed>0.290000</speed>
</trkpt>
<trkpt lat="44.614449" lon="33.737106">
<ele>210.193481</ele>
<time>2011-10-11T06:17:53Z</time>
<desc>lat.=44.614449, lon.=33.737106, Alt.=210.193481m. Speed=0.396000m/h.</desc>
<speed>0.110000</speed>
</trkpt>
<trkpt lat="44.614452" lon="33.737110">
<ele>210.119263</ele>
<time>2011-10-11T06:17:58Z</time>
<desc>lat.=44.614452, lon.=33.737110, Alt.=210.119263m. Speed=1.008000m/h.</desc>
<speed>0.280000</speed>
</trkpt>
<trkpt lat="44.614460" lon="33.737110">
<ele>209.904419</ele>
<time>2011-10-11T06:18:03Z</time>
<desc>lat.=44.614460, lon.=33.737110, Alt.=209.904419m. Speed=0.144000m/h.</desc>
<speed>0.040000</speed>
</trkpt>
<trkpt lat="44.614464" lon="33.737110">
<ele>209.502075</ele>
<time>2011-10-11T06:18:08Z</time>
<desc>lat.=44.614464, lon.=33.737110, Alt.=209.502075m. Speed=0.072000m/h.</desc>
<speed>0.020000</speed>
</trkpt>
<trkpt lat="44.614468" lon="33.737106">
<ele>209.263794</ele>
<time>2011-10-11T06:18:13Z</time>
<desc>lat.=44.614468, lon.=33.737106, Alt.=209.263794m. Speed=0.468000m/h.</desc>
<speed>0.130000</speed>
</trkpt>
<trkpt lat="44.614468" lon="33.737106">
<ele>209.111450</ele>
<time>2011-10-11T06:18:18Z</time>
<desc>lat.=44.614468, lon.=33.737106, Alt.=209.111450m. Speed=0.108000m/h.</desc>
<speed>0.030000</speed>
</trkpt>
<trkpt lat="44.614468" lon="33.737106">
<ele>209.095825</ele>
<time>2011-10-11T06:18:23Z</time>
<desc>lat.=44.614468, lon.=33.737106, Alt.=209.095825m. Speed=0.036000m/h.</desc>
<speed>0.010000</speed>
</trkpt>
<trkpt lat="44.614468" lon="33.737106">
<ele>208.974731</ele>
<time>2011-10-11T06:18:28Z</time>
<desc>lat.=44.614468, lon.=33.737106, Alt.=208.974731m. Speed=0.072000m/h.</desc>
<speed>0.020000</speed>
</trkpt>
<trkpt lat="44.614479" lon="33.737103">
<ele>209.127075</ele>
<time>2011-10-11T06:18:33Z</time>
<desc>lat.=44.614479, lon.=33.737103, Alt.=209.127075m. Speed=0.504000m/h.</desc>
<speed>0.140000</speed>
</trkpt>
<trkpt lat="44.614487" lon="33.737091">
<ele>209.556763</ele>
<time>2011-10-11T06:18:38Z</time>
<desc>lat.=44.614487, lon.=33.737091, Alt.=209.556763m. Speed=0.036000m/h.</desc>
<speed>0.010000</speed>
</trkpt>
<trkpt lat="44.614491" lon="33.737095">
<ele>209.537231</ele>
<time>2011-10-11T06:18:43Z</time>
<desc>lat.=44.614491, lon.=33.737095, Alt.=209.537231m. Speed=0.720000m/h.</desc>
<speed>0.200000</speed>
</trkpt>
<trkpt lat="44.614491" lon="33.737099">
<ele>209.443481</ele>
<time>2011-10-11T06:18:48Z</time>
<desc>lat.=44.614491, lon.=33.737099, Alt.=209.443481m. Speed=0.072000m/h.</desc>
<speed>0.020000</speed>
</trkpt>
<trkpt lat="44.614491" lon="33.737095">
<ele>209.470825</ele>
<time>2011-10-11T06:18:53Z</time>
<desc>lat.=44.614491, lon.=33.737095, Alt.=209.470825m. Speed=0.000000m/h.</desc>
<speed>0.000000</speed>
</trkpt>
<trkpt lat="44.614491" lon="33.737095">
<ele>209.435669</ele>
<time>2011-10-11T06:18:58Z</time>
<desc>lat.=44.614491, lon.=33.737095, Alt.=209.435669m. Speed=0.036000m/h.</desc>
<speed>0.010000</speed>
</trkpt>
<trkpt lat="44.614491" lon="33.737095">
<ele>209.349731</ele>
<time>2011-10-11T06:19:03Z</time>
<desc>lat.=44.614491, lon.=33.737095, Alt.=209.349731m. Speed=0.036000m/h.</desc>
<speed>0.010000</speed>
</trkpt>
<trkpt lat="44.614491" lon="33.737095">
<ele>209.240356</ele>
<time>2011-10-11T06:19:08Z</time>
<desc>lat.=44.614491, lon.=33.737095, Alt.=209.240356m. Speed=0.036000m/h.</desc>
<speed>0.010000</speed>
</trkpt>
<trkpt lat="44.614491" lon="33.737095">
<ele>209.138794</ele>
<time>2011-10-11T06:19:13Z</time>
<desc>lat.=44.614491, lon.=33.737095, Alt.=209.138794m. Speed=0.000000m/h.</desc>
<speed>0.000000</speed>
</trkpt>
<trkpt lat="44.614491" lon="33.737095">
<ele>209.130981</ele>
<time>2011-10-11T06:19:18Z</time>
<desc>lat.=44.614491, lon.=33.737095, Alt.=209.130981m. Speed=0.000000m/h.</desc>
<speed>0.000000</speed>
</trkpt>
<trkpt lat="44.614494" lon="33.737095">
<ele>209.029419</ele>
<time>2011-10-11T06:19:23Z</time>
<desc>lat.=44.614494, lon.=33.737095, Alt.=209.029419m. Speed=0.000000m/h.</desc>
<speed>0.000000</speed>
</trkpt>
<trkpt lat="44.614494" lon="33.737095">
<ele>208.880981</ele>
<time>2011-10-11T06:19:28Z</time>
<desc>lat.=44.614494, lon.=33.737095, Alt.=208.880981m. Speed=0.000000m/h.</desc>
<speed>0.000000</speed>
</trkpt>
<trkpt lat="44.614494" lon="33.737095">
<ele>208.728638</ele>
<time>2011-10-11T06:19:33Z</time>
<desc>lat.=44.614494, lon.=33.737095, Alt.=208.728638m. Speed=0.036000m/h.</desc>
<speed>0.010000</speed>
</trkpt>
<trkpt lat="44.614498" lon="33.737095">
<ele>208.193481</ele>
<time>2011-10-11T06:19:38Z</time>
<desc>lat.=44.614498, lon.=33.737095, Alt.=208.193481m. Speed=0.144000m/h.</desc>
<speed>0.040000</speed>
</trkpt>
<trkpt lat="44.614513" lon="33.737080">
<ele>207.630981</ele>
<time>2011-10-11T06:19:43Z</time>
<desc>lat.=44.614513, lon.=33.737080, Alt.=207.630981m. Speed=0.036000m/h.</desc>
<speed>0.010000</speed>
</trkpt>
<trkpt lat="44.614521" lon="33.737061">
<ele>207.572388</ele>
<time>2011-10-11T06:19:48Z</time>
<desc>lat.=44.614521, lon.=33.737061, Alt.=207.572388m. Speed=0.216000m/h.</desc>
<speed>0.060000</speed>
</trkpt>
<trkpt lat="44.614532" lon="33.737034">
<ele>206.505981</ele>
<time>2011-10-11T06:19:53Z</time>
<desc>lat.=44.614532, lon.=33.737034, Alt.=206.505981m. Speed=0.036000m/h.</desc>
<speed>0.010000</speed>
</trkpt>
<trkpt lat="44.614552" lon="33.737026">
<ele>205.275513</ele>
<time>2011-10-11T06:19:58Z</time>
<desc>lat.=44.614552, lon.=33.737026, Alt.=205.275513m. Speed=0.036000m/h.</desc>
<speed>0.010000</speed>
</trkpt>
<trkpt lat="44.614578" lon="33.737038">
<ele>204.173950</ele>
<time>2011-10-11T06:20:03Z</time>
<desc>lat.=44.614578, lon.=33.737038, Alt.=204.173950m. Speed=0.036000m/h.</desc>
<speed>0.010000</speed>
</trkpt>
<trkpt lat="44.614594" lon="33.737030">
<ele>202.345825</ele>
<time>2011-10-11T06:20:08Z</time>
<desc>lat.=44.614594, lon.=33.737030, Alt.=202.345825m. Speed=0.000000m/h.</desc>
<speed>0.000000</speed>
</trkpt>
<trkpt lat="44.614605" lon="33.737015">
<ele>201.759888</ele>
<time>2011-10-11T06:20:13Z</time>
<desc>lat.=44.614605, lon.=33.737015, Alt.=201.759888m. Speed=0.000000m/h.</desc>
<speed>0.000000</speed>
</trkpt>
<trkpt lat="44.614613" lon="33.737003">
<ele>201.787231</ele>
<time>2011-10-11T06:20:18Z</time>
<desc>lat.=44.614613, lon.=33.737003, Alt.=201.787231m. Speed=0.000000m/h.</desc>
<speed>0.000000</speed>
</trkpt>
<trkpt lat="44.614613" lon="33.737003">
<ele>201.369263</ele>
<time>2011-10-11T06:20:23Z</time>
<desc>lat.=44.614613, lon.=33.737003, Alt.=201.369263m. Speed=0.036000m/h.</desc>
<speed>0.010000</speed>
</trkpt>
<trkpt lat="44.614613" lon="33.737000">
<ele>201.369263</ele>
<time>2011-10-11T06:20:28Z</time>
<desc>lat.=44.614613, lon.=33.737000, Alt.=201.369263m. Speed=0.000000m/h.</desc>
<speed>0.000000</speed>
</trkpt>
<trkpt lat="44.614613" lon="33.737000">
<ele>201.392700</ele>
<time>2011-10-11T06:20:33Z</time>
<desc>lat.=44.614613, lon.=33.737000, Alt.=201.392700m. Speed=0.036000m/h.</desc>
<speed>0.010000</speed>
</trkpt>
<trkpt lat="44.614613" lon="33.737000">
<ele>201.380981</ele>
<time>2011-10-11T06:20:38Z</time>
<desc>lat.=44.614613, lon.=33.737000, Alt.=201.380981m. Speed=0.000000m/h.</desc>
<speed>0.000000</speed>
</trkpt>
<trkpt lat="44.614613" lon="33.737000">
<ele>201.369263</ele>
<time>2011-10-11T06:20:43Z</time>
<desc>lat.=44.614613, lon.=33.737000, Alt.=201.369263m. Speed=0.000000m/h.</desc>
<speed>0.000000</speed>
</trkpt>
<trkpt lat="44.614613" lon="33.737000">
<ele>201.369263</ele>
<time>2011-10-11T06:20:48Z</time>
<desc>lat.=44.614613, lon.=33.737000, Alt.=201.369263m. Speed=0.000000m/h.</desc>
<speed>0.000000</speed>
</trkpt>
<trkpt lat="44.614613" lon="33.737000">
<ele>201.369263</ele>
<time>2011-10-11T06:20:53Z</time>
<desc>lat.=44.614613, lon.=33.737000, Alt.=201.369263m. Speed=0.000000m/h.</desc>
<speed>0.000000</speed>
</trkpt>
<trkpt lat="44.614616" lon="33.737003">
<ele>201.365356</ele>
<time>2011-10-11T06:20:58Z</time>
<desc>lat.=44.614616, lon.=33.737003, Alt.=201.365356m. Speed=0.036000m/h.</desc>
<speed>0.010000</speed>
</trkpt>
<trkpt lat="44.614613" lon="33.737003">
<ele>201.384888</ele>
<time>2011-10-11T06:21:03Z</time>
<desc>lat.=44.614613, lon.=33.737003, Alt.=201.384888m. Speed=0.144000m/h.</desc>
<speed>0.040000</speed>
</trkpt>
<trkpt lat="44.614616" lon="33.737000">
<ele>201.259888</ele>
<time>2011-10-11T06:21:08Z</time>
<desc>lat.=44.614616, lon.=33.737000, Alt.=201.259888m. Speed=0.324000m/h.</desc>
<speed>0.090000</speed>
</trkpt>
<trkpt lat="44.614620" lon="33.736996">
<ele>201.025513</ele>
<time>2011-10-11T06:21:13Z</time>
<desc>lat.=44.614620, lon.=33.736996, Alt.=201.025513m. Speed=0.324000m/h.</desc>
<speed>0.090000</speed>
</trkpt>
<trkpt lat="44.614624" lon="33.736992">
<ele>200.767700</ele>
<time>2011-10-11T06:21:18Z</time>
<desc>lat.=44.614624, lon.=33.736992, Alt.=200.767700m. Speed=0.252000m/h.</desc>
<speed>0.070000</speed>
</trkpt>
<trkpt lat="44.614628" lon="33.736992">
<ele>200.466919</ele>
<time>2011-10-11T06:21:23Z</time>
<desc>lat.=44.614628, lon.=33.736992, Alt.=200.466919m. Speed=0.216000m/h.</desc>
<speed>0.060000</speed>
</trkpt>
<trkpt lat="44.614628" lon="33.736988">
<ele>200.103638</ele>
<time>2011-10-11T06:21:28Z</time>
<desc>lat.=44.614628, lon.=33.736988, Alt.=200.103638m. Speed=0.144000m/h.</desc>
<speed>0.040000</speed>
</trkpt>
<trkpt lat="44.614632" lon="33.736988">
<ele>199.748169</ele>
<time>2011-10-11T06:21:33Z</time>
<desc>lat.=44.614632, lon.=33.736988, Alt.=199.748169m. Speed=0.396000m/h.</desc>
<speed>0.110000</speed>
</trkpt>
<trkpt lat="44.614639" lon="33.736988">
<ele>199.423950</ele>
<time>2011-10-11T06:21:38Z</time>
<desc>lat.=44.614639, lon.=33.736988, Alt.=199.423950m. Speed=0.648000m/h.</desc>
<speed>0.180000</speed>
</trkpt>
<trkpt lat="44.614647" lon="33.736984">
<ele>199.107544</ele>
<time>2011-10-11T06:21:43Z</time>
<desc>lat.=44.614647, lon.=33.736984, Alt.=199.107544m. Speed=0.396000m/h.</desc>
<speed>0.110000</speed>
</trkpt>
<trkpt lat="44.614651" lon="33.736984">
<ele>198.806763</ele>
<time>2011-10-11T06:21:48Z</time>
<desc>lat.=44.614651, lon.=33.736984, Alt.=198.806763m. Speed=0.432000m/h.</desc>
<speed>0.120000</speed>
</trkpt>
<trkpt lat="44.614655" lon="33.736980">
<ele>198.498169</ele>
<time>2011-10-11T06:21:53Z</time>
<desc>lat.=44.614655, lon.=33.736980, Alt.=198.498169m. Speed=0.144000m/h.</desc>
<speed>0.040000</speed>
</trkpt>
<trkpt lat="44.614651" lon="33.736977">
<ele>198.181763</ele>
<time>2011-10-11T06:21:58Z</time>
<desc>lat.=44.614651, lon.=33.736977, Alt.=198.181763m. Speed=0.612000m/h.</desc>
<speed>0.170000</speed>
</trkpt>
<trkpt lat="44.614647" lon="33.736973">
<ele>197.853638</ele>
<time>2011-10-11T06:22:03Z</time>
<desc>lat.=44.614647, lon.=33.736973, Alt.=197.853638m. Speed=0.288000m/h.</desc>
<speed>0.080000</speed>
</trkpt>
<trkpt lat="44.614700" lon="33.736961">
<ele>197.873169</ele>
<time>2011-10-11T06:22:08Z</time>
<desc>lat.=44.614700, lon.=33.736961, Alt.=197.873169m. Speed=3.672000m/h.</desc>
<speed>1.020000</speed>
</trkpt>
<trkpt lat="44.614777" lon="33.736931">
<ele>199.474731</ele>
<time>2011-10-11T06:22:13Z</time>
<desc>lat.=44.614777, lon.=33.736931, Alt.=199.474731m. Speed=5.148000m/h.</desc>
<speed>1.430000</speed>
</trkpt>
<trkpt lat="44.614933" lon="33.736839">
<ele>201.189575</ele>
<time>2011-10-11T06:22:18Z</time>
<desc>lat.=44.614933, lon.=33.736839, Alt.=201.189575m. Speed=12.564000m/h.</desc>
<speed>3.490000</speed>
</trkpt>
<trkpt lat="44.615105" lon="33.736874">
<ele>201.232544</ele>
<time>2011-10-11T06:22:23Z</time>
<desc>lat.=44.615105, lon.=33.736874, Alt.=201.232544m. Speed=10.944000m/h.</desc>
<speed>3.040000</speed>
</trkpt>
<trkpt lat="44.615246" lon="33.736938">
<ele>201.377075</ele>
<time>2011-10-11T06:22:28Z</time>
<desc>lat.=44.615246, lon.=33.736938, Alt.=201.377075m. Speed=12.924000m/h.</desc>
<speed>3.590000</speed>
</trkpt>
<trkpt lat="44.615414" lon="33.737053">
<ele>202.310669</ele>
<time>2011-10-11T06:22:33Z</time>
<desc>lat.=44.615414, lon.=33.737053, Alt.=202.310669m. Speed=14.580000m/h.</desc>
<speed>4.050000</speed>
</trkpt>
<trkpt lat="44.615589" lon="33.737125">
<ele>203.545044</ele>
<time>2011-10-11T06:22:38Z</time>
<desc>lat.=44.615589, lon.=33.737125, Alt.=203.545044m. Speed=12.420000m/h.</desc>
<speed>3.450000</speed>
</trkpt>
<trkpt lat="44.615749" lon="33.737179">
<ele>204.986450</ele>
<time>2011-10-11T06:22:43Z</time>
<desc>lat.=44.615749, lon.=33.737179, Alt.=204.986450m. Speed=10.980000m/h.</desc>
<speed>3.050000</speed>
</trkpt>
<trkpt lat="44.615837" lon="33.737232">
<ele>206.627075</ele>
<time>2011-10-11T06:22:48Z</time>
<desc>lat.=44.615837, lon.=33.737232, Alt.=206.627075m. Speed=6.696000m/h.</desc>
<speed>1.860000</speed>
</trkpt>
<trkpt lat="44.616001" lon="33.737404">
<ele>207.939575</ele>
<time>2011-10-11T06:22:53Z</time>
<desc>lat.=44.616001, lon.=33.737404, Alt.=207.939575m. Speed=21.312000m/h.</desc>
<speed>5.920000</speed>
</trkpt>
<trkpt lat="44.616188" lon="33.737545">
<ele>209.392700</ele>
<time>2011-10-11T06:22:58Z</time>
<desc>lat.=44.616188, lon.=33.737545, Alt.=209.392700m. Speed=5.292000m/h.</desc>
<speed>1.470000</speed>
</trkpt>
<trkpt lat="44.616211" lon="33.737617">
<ele>210.884888</ele>
<time>2011-10-11T06:23:03Z</time>
<desc>lat.=44.616211, lon.=33.737617, Alt.=210.884888m. Speed=2.988000m/h.</desc>
<speed>0.830000</speed>
</trkpt>
<trkpt lat="44.616215" lon="33.737686">
<ele>212.486450</ele>
<time>2011-10-11T06:23:08Z</time>
<desc>lat.=44.616215, lon.=33.737686, Alt.=212.486450m. Speed=4.320000m/h.</desc>
<speed>1.200000</speed>
</trkpt>
<trkpt lat="44.616295" lon="33.737770">
<ele>213.947388</ele>
<time>2011-10-11T06:23:13Z</time>
<desc>lat.=44.616295, lon.=33.737770, Alt.=213.947388m. Speed=9.180000m/h.</desc>
<speed>2.550000</speed>
</trkpt>
<trkpt lat="44.616348" lon="33.737869">
<ele>214.798950</ele>
<time>2011-10-11T06:23:18Z</time>
<desc>lat.=44.616348, lon.=33.737869, Alt.=214.798950m. Speed=8.136000m/h.</desc>
<speed>2.260000</speed>
</trkpt>
<trkpt lat="44.616356" lon="33.737965">
<ele>215.388794</ele>
<time>2011-10-11T06:23:23Z</time>
<desc>lat.=44.616356, lon.=33.737965, Alt.=215.388794m. Speed=3.708000m/h.</desc>
<speed>1.030000</speed>
</trkpt>
<trkpt lat="44.616325" lon="33.738045">
<ele>216.189575</ele>
<time>2011-10-11T06:23:28Z</time>
<desc>lat.=44.616325, lon.=33.738045, Alt.=216.189575m. Speed=3.456000m/h.</desc>
<speed>0.960000</speed>
</trkpt>
<trkpt lat="44.616325" lon="33.738060">
<ele>214.752075</ele>
<time>2011-10-11T06:23:33Z</time>
<desc>lat.=44.616325, lon.=33.738060, Alt.=214.752075m. Speed=0.792000m/h.</desc>
<speed>0.220000</speed>
</trkpt>
<trkpt lat="44.616325" lon="33.738071">
<ele>214.091919</ele>
<time>2011-10-11T06:23:38Z</time>
<desc>lat.=44.616325, lon.=33.738071, Alt.=214.091919m. Speed=0.936000m/h.</desc>
<speed>0.260000</speed>
</trkpt>
<trkpt lat="44.616322" lon="33.738079">
<ele>214.123169</ele>
<time>2011-10-11T06:23:43Z</time>
<desc>lat.=44.616322, lon.=33.738079, Alt.=214.123169m. Speed=0.936000m/h.</desc>
<speed>0.260000</speed>
</trkpt>
<trkpt lat="44.616314" lon="33.738087">
<ele>214.693481</ele>
<time>2011-10-11T06:23:48Z</time>
<desc>lat.=44.616314, lon.=33.738087, Alt.=214.693481m. Speed=0.936000m/h.</desc>
<speed>0.260000</speed>
</trkpt>
<trkpt lat="44.616306" lon="33.738094">
<ele>215.248169</ele>
<time>2011-10-11T06:23:53Z</time>
<desc>lat.=44.616306, lon.=33.738094, Alt.=215.248169m. Speed=0.576000m/h.</desc>
<speed>0.160000</speed>
</trkpt>
<trkpt lat="44.616302" lon="33.738098">
<ele>215.798950</ele>
<time>2011-10-11T06:23:58Z</time>
<desc>lat.=44.616302, lon.=33.738098, Alt.=215.798950m. Speed=0.216000m/h.</desc>
<speed>0.060000</speed>
</trkpt>
<trkpt lat="44.616302" lon="33.738102">
<ele>216.306763</ele>
<time>2011-10-11T06:24:03Z</time>
<desc>lat.=44.616302, lon.=33.738102, Alt.=216.306763m. Speed=0.288000m/h.</desc>
<speed>0.080000</speed>
</trkpt>
<trkpt lat="44.616299" lon="33.738106">
<ele>216.822388</ele>
<time>2011-10-11T06:24:08Z</time>
<desc>lat.=44.616299, lon.=33.738106, Alt.=216.822388m. Speed=0.108000m/h.</desc>
<speed>0.030000</speed>
</trkpt>
<trkpt lat="44.616299" lon="33.738106">
<ele>217.341919</ele>
<time>2011-10-11T06:24:13Z</time>
<desc>lat.=44.616299, lon.=33.738106, Alt.=217.341919m. Speed=0.360000m/h.</desc>
<speed>0.100000</speed>
</trkpt>
<trkpt lat="44.616306" lon="33.738102">
<ele>217.814575</ele>
<time>2011-10-11T06:24:18Z</time>
<desc>lat.=44.616306, lon.=33.738102, Alt.=217.814575m. Speed=0.864000m/h.</desc>
<speed>0.240000</speed>
</trkpt>
<trkpt lat="44.616322" lon="33.738094">
<ele>218.259888</ele>
<time>2011-10-11T06:24:23Z</time>
<desc>lat.=44.616322, lon.=33.738094, Alt.=218.259888m. Speed=0.684000m/h.</desc>
<speed>0.190000</speed>
</trkpt>
<trkpt lat="44.616329" lon="33.738091">
<ele>218.701294</ele>
<time>2011-10-11T06:24:28Z</time>
<desc>lat.=44.616329, lon.=33.738091, Alt.=218.701294m. Speed=0.324000m/h.</desc>
<speed>0.090000</speed>
</trkpt>
<trkpt lat="44.616329" lon="33.738098">
<ele>219.259888</ele>
<time>2011-10-11T06:24:33Z</time>
<desc>lat.=44.616329, lon.=33.738098, Alt.=219.259888m. Speed=0.288000m/h.</desc>
<speed>0.080000</speed>
</trkpt>
<trkpt lat="44.616333" lon="33.738094">
<ele>219.783325</ele>
<time>2011-10-11T06:24:38Z</time>
<desc>lat.=44.616333, lon.=33.738094, Alt.=219.783325m. Speed=0.252000m/h.</desc>
<speed>0.070000</speed>
</trkpt>
<trkpt lat="44.616329" lon="33.738091">
<ele>220.244263</ele>
<time>2011-10-11T06:24:43Z</time>
<desc>lat.=44.616329, lon.=33.738091, Alt.=220.244263m. Speed=0.252000m/h.</desc>
<speed>0.070000</speed>
</trkpt>
<trkpt lat="44.616337" lon="33.738091">
<ele>220.584106</ele>
<time>2011-10-11T06:24:48Z</time>
<desc>lat.=44.616337, lon.=33.738091, Alt.=220.584106m. Speed=0.432000m/h.</desc>
<speed>0.120000</speed>
</trkpt>
<trkpt lat="44.616341" lon="33.738091">
<ele>220.861450</ele>
<time>2011-10-11T06:24:53Z</time>
<desc>lat.=44.616341, lon.=33.738091, Alt.=220.861450m. Speed=0.540000m/h.</desc>
<speed>0.150000</speed>
</trkpt>
<trkpt lat="44.616352" lon="33.738079">
<ele>221.119263</ele>
<time>2011-10-11T06:24:58Z</time>
<desc>lat.=44.616352, lon.=33.738079, Alt.=221.119263m. Speed=1.152000m/h.</desc>
<speed>0.320000</speed>
</trkpt>
<trkpt lat="44.616379" lon="33.738087">
<ele>221.181763</ele>
<time>2011-10-11T06:25:03Z</time>
<desc>lat.=44.616379, lon.=33.738087, Alt.=221.181763m. Speed=1.476000m/h.</desc>
<speed>0.410000</speed>
</trkpt>
<trkpt lat="44.616402" lon="33.738079">
<ele>221.209106</ele>
<time>2011-10-11T06:25:08Z</time>
<desc>lat.=44.616402, lon.=33.738079, Alt.=221.209106m. Speed=1.656000m/h.</desc>
<speed>0.460000</speed>
</trkpt>
<trkpt lat="44.616341" lon="33.738026">
<ele>220.849731</ele>
<time>2011-10-11T06:25:13Z</time>
<desc>lat.=44.616341, lon.=33.738026, Alt.=220.849731m. Speed=1.872000m/h.</desc>
<speed>0.520000</speed>
</trkpt>
<trkpt lat="44.616310" lon="33.738018">
<ele>220.603638</ele>
<time>2011-10-11T06:25:18Z</time>
<desc>lat.=44.616310, lon.=33.738018, Alt.=220.603638m. Speed=0.036000m/h.</desc>
<speed>0.010000</speed>
</trkpt>
<trkpt lat="44.616310" lon="33.738022">
<ele>219.904419</ele>
<time>2011-10-11T06:25:23Z</time>
<desc>lat.=44.616310, lon.=33.738022, Alt.=219.904419m. Speed=1.116000m/h.</desc>
<speed>0.310000</speed>
</trkpt>
<trkpt lat="44.616344" lon="33.738018">
<ele>217.802856</ele>
<time>2011-10-11T06:25:28Z</time>
<desc>lat.=44.616344, lon.=33.738018, Alt.=217.802856m. Speed=3.384000m/h.</desc>
<speed>0.940000</speed>
</trkpt>
<trkpt lat="44.616379" lon="33.738029">
<ele>214.513794</ele>
<time>2011-10-11T06:25:33Z</time>
<desc>lat.=44.616379, lon.=33.738029, Alt.=214.513794m. Speed=2.664000m/h.</desc>
<speed>0.740000</speed>
</trkpt>
<trkpt lat="44.616402" lon="33.738029">
<ele>210.412231</ele>
<time>2011-10-11T06:25:38Z</time>
<desc>lat.=44.616402, lon.=33.738029, Alt.=210.412231m. Speed=2.592000m/h.</desc>
<speed>0.720000</speed>
</trkpt>
<trkpt lat="44.616436" lon="33.738037">
<ele>206.056763</ele>
<time>2011-10-11T06:25:43Z</time>
<desc>lat.=44.616436, lon.=33.738037, Alt.=206.056763m. Speed=2.664000m/h.</desc>
<speed>0.740000</speed>
</trkpt>
<trkpt lat="44.616467" lon="33.738045">
<ele>201.314575</ele>
<time>2011-10-11T06:25:48Z</time>
<desc>lat.=44.616467, lon.=33.738045, Alt.=201.314575m. Speed=2.988000m/h.</desc>
<speed>0.830000</speed>
</trkpt>
<trkpt lat="44.616505" lon="33.738052">
<ele>196.224731</ele>
<time>2011-10-11T06:25:53Z</time>
<desc>lat.=44.616505, lon.=33.738052, Alt.=196.224731m. Speed=2.556000m/h.</desc>
<speed>0.710000</speed>
</trkpt>
<trkpt lat="44.616539" lon="33.738060">
<ele>190.295044</ele>
<time>2011-10-11T06:25:58Z</time>
<desc>lat.=44.616539, lon.=33.738060, Alt.=190.295044m. Speed=3.276000m/h.</desc>
<speed>0.910000</speed>
</trkpt>
<trkpt lat="44.616573" lon="33.738068">
<ele>184.283325</ele>
<time>2011-10-11T06:26:03Z</time>
<desc>lat.=44.616573, lon.=33.738068, Alt.=184.283325m. Speed=3.132000m/h.</desc>
<speed>0.870000</speed>
</trkpt>
<trkpt lat="44.616573" lon="33.738056">
<ele>177.142700</ele>
<time>2011-10-11T06:26:08Z</time>
<desc>lat.=44.616573, lon.=33.738056, Alt.=177.142700m. Speed=2.016000m/h.</desc>
<speed>0.560000</speed>
</trkpt>
<trkpt lat="44.616554" lon="33.738045">
<ele>173.416138</ele>
<time>2011-10-11T06:26:13Z</time>
<desc>lat.=44.616554, lon.=33.738045, Alt.=173.416138m. Speed=1.764000m/h.</desc>
<speed>0.490000</speed>
</trkpt>
<trkpt lat="44.616425" lon="33.738026">
<ele>196.119263</ele>
<time>2011-10-11T06:26:18Z</time>
<desc>lat.=44.616425, lon.=33.738026, Alt.=196.119263m. Speed=0.936000m/h.</desc>
<speed>0.260000</speed>
</trkpt>
<trkpt lat="44.616367" lon="33.738052">
<ele>187.150513</ele>
<time>2011-10-11T06:26:23Z</time>
<desc>lat.=44.616367, lon.=33.738052, Alt.=187.150513m. Speed=1.368000m/h.</desc>
<speed>0.380000</speed>
</trkpt>
<trkpt lat="44.616367" lon="33.737999">
<ele>186.373169</ele>
<time>2011-10-11T06:26:28Z</time>
<desc>lat.=44.616367, lon.=33.737999, Alt.=186.373169m. Speed=0.252000m/h.</desc>
<speed>0.070000</speed>
</trkpt>
<trkpt lat="44.616371" lon="33.737995">
<ele>185.568481</ele>
<time>2011-10-11T06:26:33Z</time>
<desc>lat.=44.616371, lon.=33.737995, Alt.=185.568481m. Speed=0.252000m/h.</desc>
<speed>0.070000</speed>
</trkpt>
<trkpt lat="44.616371" lon="33.737999">
<ele>184.873169</ele>
<time>2011-10-11T06:26:38Z</time>
<desc>lat.=44.616371, lon.=33.737999, Alt.=184.873169m. Speed=0.468000m/h.</desc>
<speed>0.130000</speed>
</trkpt>
<trkpt lat="44.616375" lon="33.737988">
<ele>183.943481</ele>
<time>2011-10-11T06:26:43Z</time>
<desc>lat.=44.616375, lon.=33.737988, Alt.=183.943481m. Speed=2.664000m/h.</desc>
<speed>0.740000</speed>
</trkpt>
<trkpt lat="44.616325" lon="33.737999">
<ele>182.380981</ele>
<time>2011-10-11T06:26:48Z</time>
<desc>lat.=44.616325, lon.=33.737999, Alt.=182.380981m. Speed=2.664000m/h.</desc>
<speed>0.740000</speed>
</trkpt>
<trkpt lat="44.616314" lon="33.738010">
<ele>182.107544</ele>
<time>2011-10-11T06:26:53Z</time>
<desc>lat.=44.616314, lon.=33.738010, Alt.=182.107544m. Speed=0.900000m/h.</desc>
<speed>0.250000</speed>
</trkpt>
<trkpt lat="44.616318" lon="33.738010">
<ele>181.197388</ele>
<time>2011-10-11T06:26:58Z</time>
<desc>lat.=44.616318, lon.=33.738010, Alt.=181.197388m. Speed=0.972000m/h.</desc>
<speed>0.270000</speed>
</trkpt>
<trkpt lat="44.616318" lon="33.738010">
<ele>180.517700</ele>
<time>2011-10-11T06:27:03Z</time>
<desc>lat.=44.616318, lon.=33.738010, Alt.=180.517700m. Speed=0.396000m/h.</desc>
<speed>0.110000</speed>
</trkpt>
<trkpt lat="44.616314" lon="33.738014">
<ele>179.853638</ele>
<time>2011-10-11T06:27:08Z</time>
<desc>lat.=44.616314, lon.=33.738014, Alt.=179.853638m. Speed=0.180000m/h.</desc>
<speed>0.050000</speed>
</trkpt>
<trkpt lat="44.616314" lon="33.738018">
<ele>179.271606</ele>
<time>2011-10-11T06:27:13Z</time>
<desc>lat.=44.616314, lon.=33.738018, Alt.=179.271606m. Speed=0.216000m/h.</desc>
<speed>0.060000</speed>
</trkpt>
<trkpt lat="44.616314" lon="33.738022">
<ele>178.689575</ele>
<time>2011-10-11T06:27:18Z</time>
<desc>lat.=44.616314, lon.=33.738022, Alt.=178.689575m. Speed=0.180000m/h.</desc>
<speed>0.050000</speed>
</trkpt>
<trkpt lat="44.616314" lon="33.738026">
<ele>178.088013</ele>
<time>2011-10-11T06:27:23Z</time>
<desc>lat.=44.616314, lon.=33.738026, Alt.=178.088013m. Speed=0.324000m/h.</desc>
<speed>0.090000</speed>
</trkpt>
<trkpt lat="44.616314" lon="33.738033">
<ele>177.470825</ele>
<time>2011-10-11T06:27:28Z</time>
<desc>lat.=44.616314, lon.=33.738033, Alt.=177.470825m. Speed=0.684000m/h.</desc>
<speed>0.190000</speed>
</trkpt>
<trkpt lat="44.616325" lon="33.738037">
<ele>176.908325</ele>
<time>2011-10-11T06:27:33Z</time>
<desc>lat.=44.616325, lon.=33.738037, Alt.=176.908325m. Speed=0.936000m/h.</desc>
<speed>0.260000</speed>
</trkpt>
<trkpt lat="44.616337" lon="33.738045">
<ele>176.302856</ele>
<time>2011-10-11T06:27:38Z</time>
<desc>lat.=44.616337, lon.=33.738045, Alt.=176.302856m. Speed=0.936000m/h.</desc>
<speed>0.260000</speed>
</trkpt>
<trkpt lat="44.616348" lon="33.738052">
<ele>175.720825</ele>
<time>2011-10-11T06:27:43Z</time>
<desc>lat.=44.616348, lon.=33.738052, Alt.=175.720825m. Speed=0.900000m/h.</desc>
<speed>0.250000</speed>
</trkpt>
<trkpt lat="44.616356" lon="33.738060">
<ele>175.115356</ele>
<time>2011-10-11T06:27:48Z</time>
<desc>lat.=44.616356, lon.=33.738060, Alt.=175.115356m. Speed=0.720000m/h.</desc>
<speed>0.200000</speed>
</trkpt>
<trkpt lat="44.616364" lon="33.738064">
<ele>174.490356</ele>
<time>2011-10-11T06:27:53Z</time>
<desc>lat.=44.616364, lon.=33.738064, Alt.=174.490356m. Speed=0.684000m/h.</desc>
<speed>0.190000</speed>
</trkpt>
<trkpt lat="44.616371" lon="33.738071">
<ele>173.912231</ele>
<time>2011-10-11T06:27:58Z</time>
<desc>lat.=44.616371, lon.=33.738071, Alt.=173.912231m. Speed=0.540000m/h.</desc>
<speed>0.150000</speed>
</trkpt>
<trkpt lat="44.616375" lon="33.738075">
<ele>173.330200</ele>
<time>2011-10-11T06:28:03Z</time>
<desc>lat.=44.616375, lon.=33.738075, Alt.=173.330200m. Speed=0.288000m/h.</desc>
<speed>0.080000</speed>
</trkpt>
<trkpt lat="44.616375" lon="33.738079">
<ele>172.724731</ele>
<time>2011-10-11T06:28:08Z</time>
<desc>lat.=44.616375, lon.=33.738079, Alt.=172.724731m. Speed=0.252000m/h.</desc>
<speed>0.070000</speed>
</trkpt>
<trkpt lat="44.616379" lon="33.738087">
<ele>172.095825</ele>
<time>2011-10-11T06:28:13Z</time>
<desc>lat.=44.616379, lon.=33.738087, Alt.=172.095825m. Speed=0.540000m/h.</desc>
<speed>0.150000</speed>
</trkpt>
<trkpt lat="44.616383" lon="33.738094">
<ele>171.455200</ele>
<time>2011-10-11T06:28:18Z</time>
<desc>lat.=44.616383, lon.=33.738094, Alt.=171.455200m. Speed=0.324000m/h.</desc>
<speed>0.090000</speed>
</trkpt>
<trkpt lat="44.616386" lon="33.738094">
<ele>170.806763</ele>
<time>2011-10-11T06:28:23Z</time>
<desc>lat.=44.616386, lon.=33.738094, Alt.=170.806763m. Speed=0.180000m/h.</desc>
<speed>0.050000</speed>
</trkpt>
<trkpt lat="44.616386" lon="33.738091">
<ele>170.134888</ele>
<time>2011-10-11T06:28:28Z</time>
<desc>lat.=44.616386, lon.=33.738091, Alt.=170.134888m. Speed=0.288000m/h.</desc>
<speed>0.080000</speed>
</trkpt>
<trkpt lat="44.616386" lon="33.738083">
<ele>169.451294</ele>
<time>2011-10-11T06:28:33Z</time>
<desc>lat.=44.616386, lon.=33.738083, Alt.=169.451294m. Speed=0.252000m/h.</desc>
<speed>0.070000</speed>
</trkpt>
<trkpt lat="44.616386" lon="33.738087">
<ele>168.806763</ele>
<time>2011-10-11T06:28:38Z</time>
<desc>lat.=44.616386, lon.=33.738087, Alt.=168.806763m. Speed=0.216000m/h.</desc>
<speed>0.060000</speed>
</trkpt>
<trkpt lat="44.616390" lon="33.738087">
<ele>168.185669</ele>
<time>2011-10-11T06:28:43Z</time>
<desc>lat.=44.616390, lon.=33.738087, Alt.=168.185669m. Speed=0.180000m/h.</desc>
<speed>0.050000</speed>
</trkpt>
<trkpt lat="44.616386" lon="33.738079">
<ele>167.588013</ele>
<time>2011-10-11T06:28:48Z</time>
<desc>lat.=44.616386, lon.=33.738079, Alt.=167.588013m. Speed=0.648000m/h.</desc>
<speed>0.180000</speed>
</trkpt>
<trkpt lat="44.616379" lon="33.738071">
<ele>166.994263</ele>
<time>2011-10-11T06:28:53Z</time>
<desc>lat.=44.616379, lon.=33.738071, Alt.=166.994263m. Speed=0.900000m/h.</desc>
<speed>0.250000</speed>
</trkpt>
<trkpt lat="44.616371" lon="33.738056">
<ele>166.388794</ele>
<time>2011-10-11T06:28:58Z</time>
<desc>lat.=44.616371, lon.=33.738056, Alt.=166.388794m. Speed=0.900000m/h.</desc>
<speed>0.250000</speed>
</trkpt>
<trkpt lat="44.616364" lon="33.738045">
<ele>165.767700</ele>
<time>2011-10-11T06:29:03Z</time>
<desc>lat.=44.616364, lon.=33.738045, Alt.=165.767700m. Speed=0.756000m/h.</desc>
<speed>0.210000</speed>
</trkpt>
<trkpt lat="44.616364" lon="33.738033">
<ele>165.119263</ele>
<time>2011-10-11T06:29:08Z</time>
<desc>lat.=44.616364, lon.=33.738033, Alt.=165.119263m. Speed=0.612000m/h.</desc>
<speed>0.170000</speed>
</trkpt>
<trkpt lat="44.616360" lon="33.738022">
<ele>164.431763</ele>
<time>2011-10-11T06:29:13Z</time>
<desc>lat.=44.616360, lon.=33.738022, Alt.=164.431763m. Speed=0.540000m/h.</desc>
<speed>0.150000</speed>
</trkpt>
<trkpt lat="44.616360" lon="33.738014">
<ele>163.736450</ele>
<time>2011-10-11T06:29:18Z</time>
<desc>lat.=44.616360, lon.=33.738014, Alt.=163.736450m. Speed=0.432000m/h.</desc>
<speed>0.120000</speed>
</trkpt>
<trkpt lat="44.616364" lon="33.738007">
<ele>163.041138</ele>
<time>2011-10-11T06:29:23Z</time>
<desc>lat.=44.616364, lon.=33.738007, Alt.=163.041138m. Speed=0.396000m/h.</desc>
<speed>0.110000</speed>
</trkpt>
<trkpt lat="44.616364" lon="33.737999">
<ele>162.295044</ele>
<time>2011-10-11T06:29:28Z</time>
<desc>lat.=44.616364, lon.=33.737999, Alt.=162.295044m. Speed=0.288000m/h.</desc>
<speed>0.080000</speed>
</trkpt>
<trkpt lat="44.616367" lon="33.737999">
<ele>161.525513</ele>
<time>2011-10-11T06:29:33Z</time>
<desc>lat.=44.616367, lon.=33.737999, Alt.=161.525513m. Speed=0.144000m/h.</desc>
<speed>0.040000</speed>
</trkpt>
<trkpt lat="44.616371" lon="33.737999">
<ele>160.724731</ele>
<time>2011-10-11T06:29:38Z</time>
<desc>lat.=44.616371, lon.=33.737999, Alt.=160.724731m. Speed=0.360000m/h.</desc>
<speed>0.100000</speed>
</trkpt>
<trkpt lat="44.616375" lon="33.737999">
<ele>159.908325</ele>
<time>2011-10-11T06:29:43Z</time>
<desc>lat.=44.616375, lon.=33.737999, Alt.=159.908325m. Speed=0.468000m/h.</desc>
<speed>0.130000</speed>
</trkpt>
<trkpt lat="44.616379" lon="33.737995">
<ele>159.138794</ele>
<time>2011-10-11T06:29:48Z</time>
<desc>lat.=44.616379, lon.=33.737995, Alt.=159.138794m. Speed=0.288000m/h.</desc>
<speed>0.080000</speed>
</trkpt>
<trkpt lat="44.616379" lon="33.737988">
<ele>158.408325</ele>
<time>2011-10-11T06:29:53Z</time>
<desc>lat.=44.616379, lon.=33.737988, Alt.=158.408325m. Speed=0.288000m/h.</desc>
<speed>0.080000</speed>
</trkpt>
<trkpt lat="44.616379" lon="33.737980">
<ele>157.701294</ele>
<time>2011-10-11T06:29:58Z</time>
<desc>lat.=44.616379, lon.=33.737980, Alt.=157.701294m. Speed=0.504000m/h.</desc>
<speed>0.140000</speed>
</trkpt>
<trkpt lat="44.616375" lon="33.737972">
<ele>157.009888</ele>
<time>2011-10-11T06:30:03Z</time>
<desc>lat.=44.616375, lon.=33.737972, Alt.=157.009888m. Speed=0.504000m/h.</desc>
<speed>0.140000</speed>
</trkpt>
<trkpt lat="44.616371" lon="33.737961">
<ele>156.361450</ele>
<time>2011-10-11T06:30:08Z</time>
<desc>lat.=44.616371, lon.=33.737961, Alt.=156.361450m. Speed=0.684000m/h.</desc>
<speed>0.190000</speed>
</trkpt>
<trkpt lat="44.616371" lon="33.737949">
<ele>155.755981</ele>
<time>2011-10-11T06:30:13Z</time>
<desc>lat.=44.616371, lon.=33.737949, Alt.=155.755981m. Speed=0.576000m/h.</desc>
<speed>0.160000</speed>
</trkpt>
<trkpt lat="44.616367" lon="33.737938">
<ele>155.213013</ele>
<time>2011-10-11T06:30:18Z</time>
<desc>lat.=44.616367, lon.=33.737938, Alt.=155.213013m. Speed=0.432000m/h.</desc>
<speed>0.120000</speed>
</trkpt>
<trkpt lat="44.616367" lon="33.737934">
<ele>154.685669</ele>
<time>2011-10-11T06:30:23Z</time>
<desc>lat.=44.616367, lon.=33.737934, Alt.=154.685669m. Speed=0.144000m/h.</desc>
<speed>0.040000</speed>
</trkpt>
<trkpt lat="44.616367" lon="33.737930">
<ele>154.189575</ele>
<time>2011-10-11T06:30:28Z</time>
<desc>lat.=44.616367, lon.=33.737930, Alt.=154.189575m. Speed=0.216000m/h.</desc>
<speed>0.060000</speed>
</trkpt>
<trkpt lat="44.616371" lon="33.737934">
<ele>153.709106</ele>
<time>2011-10-11T06:30:33Z</time>
<desc>lat.=44.616371, lon.=33.737934, Alt.=153.709106m. Speed=0.540000m/h.</desc>
<speed>0.150000</speed>
</trkpt>
<trkpt lat="44.616375" lon="33.737938">
<ele>153.298950</ele>
<time>2011-10-11T06:30:38Z</time>
<desc>lat.=44.616375, lon.=33.737938, Alt.=153.298950m. Speed=0.252000m/h.</desc>
<speed>0.070000</speed>
</trkpt>
<trkpt lat="44.616375" lon="33.737938">
<ele>152.966919</ele>
<time>2011-10-11T06:30:43Z</time>
<desc>lat.=44.616375, lon.=33.737938, Alt.=152.966919m. Speed=0.252000m/h.</desc>
<speed>0.070000</speed>
</trkpt>
<trkpt lat="44.616371" lon="33.737938">
<ele>152.791138</ele>
<time>2011-10-11T06:30:48Z</time>
<desc>lat.=44.616371, lon.=33.737938, Alt.=152.791138m. Speed=0.324000m/h.</desc>
<speed>0.090000</speed>
</trkpt>
<trkpt lat="44.616371" lon="33.737938">
<ele>152.779419</ele>
<time>2011-10-11T06:30:53Z</time>
<desc>lat.=44.616371, lon.=33.737938, Alt.=152.779419m. Speed=0.000000m/h.</desc>
<speed>0.000000</speed>
</trkpt>
<trkpt lat="44.616371" lon="33.737938">
<ele>152.779419</ele>
<time>2011-10-11T06:30:58Z</time>
<desc>lat.=44.616371, lon.=33.737938, Alt.=152.779419m. Speed=0.000000m/h.</desc>
<speed>0.000000</speed>
</trkpt>
<trkpt lat="44.616371" lon="33.737938">
<ele>152.775513</ele>
<time>2011-10-11T06:31:03Z</time>
<desc>lat.=44.616371, lon.=33.737938, Alt.=152.775513m. Speed=0.036000m/h.</desc>
<speed>0.010000</speed>
</trkpt>
<trkpt lat="44.616375" lon="33.737949">
<ele>152.763794</ele>
<time>2011-10-11T06:31:08Z</time>
<desc>lat.=44.616375, lon.=33.737949, Alt.=152.763794m. Speed=0.936000m/h.</desc>
<speed>0.260000</speed>
</trkpt>
<trkpt lat="44.616379" lon="33.737961">
<ele>152.744263</ele>
<time>2011-10-11T06:31:13Z</time>
<desc>lat.=44.616379, lon.=33.737961, Alt.=152.744263m. Speed=1.368000m/h.</desc>
<speed>0.380000</speed>
</trkpt>
<trkpt lat="44.616348" lon="33.737972">
<ele>152.650513</ele>
<time>2011-10-11T06:31:18Z</time>
<desc>lat.=44.616348, lon.=33.737972, Alt.=152.650513m. Speed=1.512000m/h.</desc>
<speed>0.420000</speed>
</trkpt>
<trkpt lat="44.616356" lon="33.737961">
<ele>153.189575</ele>
<time>2011-10-11T06:31:23Z</time>
<desc>lat.=44.616356, lon.=33.737961, Alt.=153.189575m. Speed=1.440000m/h.</desc>
<speed>0.400000</speed>
</trkpt>
<trkpt lat="44.616337" lon="33.737976">
<ele>153.209106</ele>
<time>2011-10-11T06:31:28Z</time>
<desc>lat.=44.616337, lon.=33.737976, Alt.=153.209106m. Speed=1.404000m/h.</desc>
<speed>0.390000</speed>
</trkpt>
<trkpt lat="44.616287" lon="33.738049">
<ele>153.166138</ele>
<time>2011-10-11T06:31:33Z</time>
<desc>lat.=44.616287, lon.=33.738049, Alt.=153.166138m. Speed=3.996000m/h.</desc>
<speed>1.110000</speed>
</trkpt>
<trkpt lat="44.616211" lon="33.738113">
<ele>153.130981</ele>
<time>2011-10-11T06:31:38Z</time>
<desc>lat.=44.616211, lon.=33.738113, Alt.=153.130981m. Speed=6.624000m/h.</desc>
<speed>1.840000</speed>
</trkpt>
<trkpt lat="44.616127" lon="33.738201">
<ele>153.873169</ele>
<time>2011-10-11T06:31:43Z</time>
<desc>lat.=44.616127, lon.=33.738201, Alt.=153.873169m. Speed=4.464000m/h.</desc>
<speed>1.240000</speed>
</trkpt>
<trkpt lat="44.616074" lon="33.738255">
<ele>155.056763</ele>
<time>2011-10-11T06:31:48Z</time>
<desc>lat.=44.616074, lon.=33.738255, Alt.=155.056763m. Speed=3.384000m/h.</desc>
<speed>0.940000</speed>
</trkpt>
<trkpt lat="44.616024" lon="33.738281">
<ele>155.193481</ele>
<time>2011-10-11T06:31:53Z</time>
<desc>lat.=44.616024, lon.=33.738281, Alt.=155.193481m. Speed=1.116000m/h.</desc>
<speed>0.310000</speed>
</trkpt>
<trkpt lat="44.616001" lon="33.738266">
<ele>155.263794</ele>
<time>2011-10-11T06:31:58Z</time>
<desc>lat.=44.616001, lon.=33.738266, Alt.=155.263794m. Speed=0.144000m/h.</desc>
<speed>0.040000</speed>
</trkpt>
<trkpt lat="44.616001" lon="33.738266">
<ele>155.103638</ele>
<time>2011-10-11T06:32:03Z</time>
<desc>lat.=44.616001, lon.=33.738266, Alt.=155.103638m. Speed=0.288000m/h.</desc>
<speed>0.080000</speed>
</trkpt>
<trkpt lat="44.615997" lon="33.738258">
<ele>154.939575</ele>
<time>2011-10-11T06:32:08Z</time>
<desc>lat.=44.615997, lon.=33.738258, Alt.=154.939575m. Speed=0.396000m/h.</desc>
<speed>0.110000</speed>
</trkpt>
<trkpt lat="44.615997" lon="33.738255">
<ele>154.775513</ele>
<time>2011-10-11T06:32:13Z</time>
<desc>lat.=44.615997, lon.=33.738255, Alt.=154.775513m. Speed=0.144000m/h.</desc>
<speed>0.040000</speed>
</trkpt>
<trkpt lat="44.615997" lon="33.738255">
<ele>154.607544</ele>
<time>2011-10-11T06:32:18Z</time>
<desc>lat.=44.615997, lon.=33.738255, Alt.=154.607544m. Speed=0.108000m/h.</desc>
<speed>0.030000</speed>
</trkpt>
<trkpt lat="44.615993" lon="33.738251">
<ele>154.443481</ele>
<time>2011-10-11T06:32:23Z</time>
<desc>lat.=44.615993, lon.=33.738251, Alt.=154.443481m. Speed=0.180000m/h.</desc>
<speed>0.050000</speed>
</trkpt>
<trkpt lat="44.615993" lon="33.738251">
<ele>154.275513</ele>
<time>2011-10-11T06:32:28Z</time>
<desc>lat.=44.615993, lon.=33.738251, Alt.=154.275513m. Speed=0.072000m/h.</desc>
<speed>0.020000</speed>
</trkpt>
<trkpt lat="44.615993" lon="33.738251">
<ele>154.130981</ele>
<time>2011-10-11T06:32:33Z</time>
<desc>lat.=44.615993, lon.=33.738251, Alt.=154.130981m. Speed=0.144000m/h.</desc>
<speed>0.040000</speed>
</trkpt>
<trkpt lat="44.615990" lon="33.738251">
<ele>153.963013</ele>
<time>2011-10-11T06:32:38Z</time>
<desc>lat.=44.615990, lon.=33.738251, Alt.=153.963013m. Speed=0.072000m/h.</desc>
<speed>0.020000</speed>
</trkpt>
<trkpt lat="44.615990" lon="33.738251">
<ele>153.841919</ele>
<time>2011-10-11T06:32:43Z</time>
<desc>lat.=44.615990, lon.=33.738251, Alt.=153.841919m. Speed=0.036000m/h.</desc>
<speed>0.010000</speed>
</trkpt>
<trkpt lat="44.615990" lon="33.738251">
<ele>153.795044</ele>
<time>2011-10-11T06:32:48Z</time>
<desc>lat.=44.615990, lon.=33.738251, Alt.=153.795044m. Speed=0.072000m/h.</desc>
<speed>0.020000</speed>
</trkpt>
<trkpt lat="44.615990" lon="33.738251">
<ele>153.806763</ele>
<time>2011-10-11T06:32:53Z</time>
<desc>lat.=44.615990, lon.=33.738251, Alt.=153.806763m. Speed=0.000000m/h.</desc>
<speed>0.000000</speed>
</trkpt>
<trkpt lat="44.615990" lon="33.738251">
<ele>153.849731</ele>
<time>2011-10-11T06:32:58Z</time>
<desc>lat.=44.615990, lon.=33.738251, Alt.=153.849731m. Speed=0.000000m/h.</desc>
<speed>0.000000</speed>
</trkpt>
<trkpt lat="44.615990" lon="33.738251">
<ele>153.880981</ele>
<time>2011-10-11T06:33:03Z</time>
<desc>lat.=44.615990, lon.=33.738251, Alt.=153.880981m. Speed=0.000000m/h.</desc>
<speed>0.000000</speed>
</trkpt>
<trkpt lat="44.615990" lon="33.738255">
<ele>153.935669</ele>
<time>2011-10-11T06:33:08Z</time>
<desc>lat.=44.615990, lon.=33.738255, Alt.=153.935669m. Speed=0.036000m/h.</desc>
<speed>0.010000</speed>
</trkpt>
<trkpt lat="44.615990" lon="33.738255">
<ele>153.978638</ele>
<time>2011-10-11T06:33:13Z</time>
<desc>lat.=44.615990, lon.=33.738255, Alt.=153.978638m. Speed=0.000000m/h.</desc>
<speed>0.000000</speed>
</trkpt>
<trkpt lat="44.615990" lon="33.738255">
<ele>154.033325</ele>
<time>2011-10-11T06:33:18Z</time>
<desc>lat.=44.615990, lon.=33.738255, Alt.=154.033325m. Speed=0.000000m/h.</desc>
<speed>0.000000</speed>
</trkpt>
<trkpt lat="44.615990" lon="33.738255">
<ele>154.091919</ele>
<time>2011-10-11T06:33:23Z</time>
<desc>lat.=44.615990, lon.=33.738255, Alt.=154.091919m. Speed=0.036000m/h.</desc>
<speed>0.010000</speed>
</trkpt>
<trkpt lat="44.615990" lon="33.738255">
<ele>154.119263</ele>
<time>2011-10-11T06:33:28Z</time>
<desc>lat.=44.615990, lon.=33.738255, Alt.=154.119263m. Speed=0.000000m/h.</desc>
<speed>0.000000</speed>
</trkpt>
<trkpt lat="44.615986" lon="33.738255">
<ele>154.130981</ele>
<time>2011-10-11T06:33:33Z</time>
<desc>lat.=44.615986, lon.=33.738255, Alt.=154.130981m. Speed=0.000000m/h.</desc>
<speed>0.000000</speed>
</trkpt>
<trkpt lat="44.615986" lon="33.738255">
<ele>154.142700</ele>
<time>2011-10-11T06:33:38Z</time>
<desc>lat.=44.615986, lon.=33.738255, Alt.=154.142700m. Speed=0.000000m/h.</desc>
<speed>0.000000</speed>
</trkpt>
<trkpt lat="44.615986" lon="33.738255">
<ele>154.150513</ele>
<time>2011-10-11T06:33:43Z</time>
<desc>lat.=44.615986, lon.=33.738255, Alt.=154.150513m. Speed=0.036000m/h.</desc>
<speed>0.010000</speed>
</trkpt>
<trkpt lat="44.615986" lon="33.738255">
<ele>154.158325</ele>
<time>2011-10-11T06:33:48Z</time>
<desc>lat.=44.615986, lon.=33.738255, Alt.=154.158325m. Speed=0.180000m/h.</desc>
<speed>0.050000</speed>
</trkpt>
<trkpt lat="44.615986" lon="33.738258">
<ele>154.154419</ele>
<time>2011-10-11T06:33:53Z</time>
<desc>lat.=44.615986, lon.=33.738258, Alt.=154.154419m. Speed=0.180000m/h.</desc>
<speed>0.050000</speed>
</trkpt>
<trkpt lat="44.615990" lon="33.738262">
<ele>154.154419</ele>
<time>2011-10-11T06:33:58Z</time>
<desc>lat.=44.615990, lon.=33.738262, Alt.=154.154419m. Speed=0.180000m/h.</desc>
<speed>0.050000</speed>
</trkpt>
<trkpt lat="44.615990" lon="33.738266">
<ele>154.150513</ele>
<time>2011-10-11T06:34:03Z</time>
<desc>lat.=44.615990, lon.=33.738266, Alt.=154.150513m. Speed=0.180000m/h.</desc>
<speed>0.050000</speed>
</trkpt>
<trkpt lat="44.615990" lon="33.738270">
<ele>154.150513</ele>
<time>2011-10-11T06:34:08Z</time>
<desc>lat.=44.615990, lon.=33.738270, Alt.=154.150513m. Speed=0.180000m/h.</desc>
<speed>0.050000</speed>
</trkpt>
<trkpt lat="44.615990" lon="33.738274">
<ele>154.154419</ele>
<time>2011-10-11T06:34:13Z</time>
<desc>lat.=44.615990, lon.=33.738274, Alt.=154.154419m. Speed=0.216000m/h.</desc>
<speed>0.060000</speed>
</trkpt>
<trkpt lat="44.615986" lon="33.738277">
<ele>154.158325</ele>
<time>2011-10-11T06:34:18Z</time>
<desc>lat.=44.615986, lon.=33.738277, Alt.=154.158325m. Speed=0.216000m/h.</desc>
<speed>0.060000</speed>
</trkpt>
<trkpt lat="44.615986" lon="33.738281">
<ele>154.166138</ele>
<time>2011-10-11T06:34:23Z</time>
<desc>lat.=44.615986, lon.=33.738281, Alt.=154.166138m. Speed=0.252000m/h.</desc>
<speed>0.070000</speed>
</trkpt>
<trkpt lat="44.615982" lon="33.738285">
<ele>154.173950</ele>
<time>2011-10-11T06:34:28Z</time>
<desc>lat.=44.615982, lon.=33.738285, Alt.=154.173950m. Speed=0.360000m/h.</desc>
<speed>0.100000</speed>
</trkpt>
<trkpt lat="44.615978" lon="33.738289">
<ele>154.181763</ele>
<time>2011-10-11T06:34:33Z</time>
<desc>lat.=44.615978, lon.=33.738289, Alt.=154.181763m. Speed=0.540000m/h.</desc>
<speed>0.150000</speed>
</trkpt>
<trkpt lat="44.615974" lon="33.738297">
<ele>154.189575</ele>
<time>2011-10-11T06:34:38Z</time>
<desc>lat.=44.615974, lon.=33.738297, Alt.=154.189575m. Speed=0.468000m/h.</desc>
<speed>0.130000</speed>
</trkpt>
<trkpt lat="44.615971" lon="33.738304">
<ele>154.201294</ele>
<time>2011-10-11T06:34:43Z</time>
<desc>lat.=44.615971, lon.=33.738304, Alt.=154.201294m. Speed=0.252000m/h.</desc>
<speed>0.070000</speed>
</trkpt>
<trkpt lat="44.615971" lon="33.738304">
<ele>154.213013</ele>
<time>2011-10-11T06:34:48Z</time>
<desc>lat.=44.615971, lon.=33.738304, Alt.=154.213013m. Speed=0.108000m/h.</desc>
<speed>0.030000</speed>
</trkpt>
<trkpt lat="44.615967" lon="33.738300">
<ele>154.224731</ele>
<time>2011-10-11T06:34:53Z</time>
<desc>lat.=44.615967, lon.=33.738300, Alt.=154.224731m. Speed=0.288000m/h.</desc>
<speed>0.080000</speed>
</trkpt>
<trkpt lat="44.615967" lon="33.738297">
<ele>154.240356</ele>
<time>2011-10-11T06:34:58Z</time>
<desc>lat.=44.615967, lon.=33.738297, Alt.=154.240356m. Speed=0.180000m/h.</desc>
<speed>0.050000</speed>
</trkpt>
<trkpt lat="44.615967" lon="33.738293">
<ele>154.259888</ele>
<time>2011-10-11T06:35:03Z</time>
<desc>lat.=44.615967, lon.=33.738293, Alt.=154.259888m. Speed=0.252000m/h.</desc>
<speed>0.070000</speed>
</trkpt>
<trkpt lat="44.615971" lon="33.738289">
<ele>154.279419</ele>
<time>2011-10-11T06:35:08Z</time>
<desc>lat.=44.615971, lon.=33.738289, Alt.=154.279419m. Speed=0.360000m/h.</desc>
<speed>0.100000</speed>
</trkpt>
<trkpt lat="44.615971" lon="33.738285">
<ele>154.298950</ele>
<time>2011-10-11T06:35:13Z</time>
<desc>lat.=44.615971, lon.=33.738285, Alt.=154.298950m. Speed=0.216000m/h.</desc>
<speed>0.060000</speed>
</trkpt>
<trkpt lat="44.615974" lon="33.738281">
<ele>154.318481</ele>
<time>2011-10-11T06:35:18Z</time>
<desc>lat.=44.615974, lon.=33.738281, Alt.=154.318481m. Speed=0.252000m/h.</desc>
<speed>0.070000</speed>
</trkpt>
<trkpt lat="44.615974" lon="33.738277">
<ele>154.334106</ele>
<time>2011-10-11T06:35:23Z</time>
<desc>lat.=44.615974, lon.=33.738277, Alt.=154.334106m. Speed=0.216000m/h.</desc>
<speed>0.060000</speed>
</trkpt>
<trkpt lat="44.615974" lon="33.738277">
<ele>154.349731</ele>
<time>2011-10-11T06:35:28Z</time>
<desc>lat.=44.615974, lon.=33.738277, Alt.=154.349731m. Speed=0.036000m/h.</desc>
<speed>0.010000</speed>
</trkpt>
<trkpt lat="44.615974" lon="33.738277">
<ele>154.369263</ele>
<time>2011-10-11T06:35:33Z</time>
<desc>lat.=44.615974, lon.=33.738277, Alt.=154.369263m. Speed=0.180000m/h.</desc>
<speed>0.050000</speed>
</trkpt>
<trkpt lat="44.615971" lon="33.738277">
<ele>154.384888</ele>
<time>2011-10-11T06:35:38Z</time>
<desc>lat.=44.615971, lon.=33.738277, Alt.=154.384888m. Speed=0.252000m/h.</desc>
<speed>0.070000</speed>
</trkpt>
<trkpt lat="44.615967" lon="33.738277">
<ele>154.396606</ele>
<time>2011-10-11T06:35:43Z</time>
<desc>lat.=44.615967, lon.=33.738277, Alt.=154.396606m. Speed=0.288000m/h.</desc>
<speed>0.080000</speed>
</trkpt>
<trkpt lat="44.615963" lon="33.738277">
<ele>154.408325</ele>
<time>2011-10-11T06:35:48Z</time>
<desc>lat.=44.615963, lon.=33.738277, Alt.=154.408325m. Speed=0.576000m/h.</desc>
<speed>0.160000</speed>
</trkpt>
<trkpt lat="44.615955" lon="33.738266">
<ele>154.423950</ele>
<time>2011-10-11T06:35:53Z</time>
<desc>lat.=44.615955, lon.=33.738266, Alt.=154.423950m. Speed=0.684000m/h.</desc>
<speed>0.190000</speed>
</trkpt>
<trkpt lat="44.615952" lon="33.738258">
<ele>154.435669</ele>
<time>2011-10-11T06:35:58Z</time>
<desc>lat.=44.615952, lon.=33.738258, Alt.=154.435669m. Speed=0.720000m/h.</desc>
<speed>0.200000</speed>
</trkpt>
<trkpt lat="44.615982" lon="33.738251">
<ele>154.451294</ele>
<time>2011-10-11T06:36:03Z</time>
<desc>lat.=44.615982, lon.=33.738251, Alt.=154.451294m. Speed=1.692000m/h.</desc>
<speed>0.470000</speed>
</trkpt>
<trkpt lat="44.616177" lon="33.738224">
<ele>154.470825</ele>
<time>2011-10-11T06:36:08Z</time>
<desc>lat.=44.616177, lon.=33.738224, Alt.=154.470825m. Speed=17.243999m/h.</desc>
<speed>4.790000</speed>
</trkpt>
<trkpt lat="44.616299" lon="33.738125">
<ele>154.677856</ele>
<time>2011-10-11T06:36:13Z</time>
<desc>lat.=44.616299, lon.=33.738125, Alt.=154.677856m. Speed=1.980000m/h.</desc>
<speed>0.550000</speed>
</trkpt>
<trkpt lat="44.616291" lon="33.738113">
<ele>154.994263</ele>
<time>2011-10-11T06:36:18Z</time>
<desc>lat.=44.616291, lon.=33.738113, Alt.=154.994263m. Speed=0.864000m/h.</desc>
<speed>0.240000</speed>
</trkpt>
<trkpt lat="44.616333" lon="33.738079">
<ele>155.173950</ele>
<time>2011-10-11T06:36:23Z</time>
<desc>lat.=44.616333, lon.=33.738079, Alt.=155.173950m. Speed=2.196000m/h.</desc>
<speed>0.610000</speed>
</trkpt>
<trkpt lat="44.616283" lon="33.738144">
<ele>155.478638</ele>
<time>2011-10-11T06:36:28Z</time>
<desc>lat.=44.616283, lon.=33.738144, Alt.=155.478638m. Speed=5.436000m/h.</desc>
<speed>1.510000</speed>
</trkpt>
<trkpt lat="44.616165" lon="33.738224">
<ele>155.568481</ele>
<time>2011-10-11T06:36:33Z</time>
<desc>lat.=44.616165, lon.=33.738224, Alt.=155.568481m. Speed=8.784000m/h.</desc>
<speed>2.440000</speed>
</trkpt>
<trkpt lat="44.616039" lon="33.738216">
<ele>155.849731</ele>
<time>2011-10-11T06:36:38Z</time>
<desc>lat.=44.616039, lon.=33.738216, Alt.=155.849731m. Speed=6.048000m/h.</desc>
<speed>1.680000</speed>
</trkpt>
<trkpt lat="44.616005" lon="33.738228">
<ele>156.314575</ele>
<time>2011-10-11T06:36:43Z</time>
<desc>lat.=44.616005, lon.=33.738228, Alt.=156.314575m. Speed=2.556000m/h.</desc>
<speed>0.710000</speed>
</trkpt>
<trkpt lat="44.615990" lon="33.738232">
<ele>156.236450</ele>
<time>2011-10-11T06:36:48Z</time>
<desc>lat.=44.615990, lon.=33.738232, Alt.=156.236450m. Speed=0.972000m/h.</desc>
<speed>0.270000</speed>
</trkpt>
<trkpt lat="44.615948" lon="33.738251">
<ele>157.716919</ele>
<time>2011-10-11T06:36:53Z</time>
<desc>lat.=44.615948, lon.=33.738251, Alt.=157.716919m. Speed=1.476000m/h.</desc>
<speed>0.410000</speed>
</trkpt>
<trkpt lat="44.615921" lon="33.738247">
<ele>158.974731</ele>
<time>2011-10-11T06:36:58Z</time>
<desc>lat.=44.615921, lon.=33.738247, Alt.=158.974731m. Speed=1.800000m/h.</desc>
<speed>0.500000</speed>
</trkpt>
<trkpt lat="44.615894" lon="33.738255">
<ele>159.224731</ele>
<time>2011-10-11T06:37:03Z</time>
<desc>lat.=44.615894, lon.=33.738255, Alt.=159.224731m. Speed=0.180000m/h.</desc>
<speed>0.050000</speed>
</trkpt>
<trkpt lat="44.615902" lon="33.738243">
<ele>159.537231</ele>
<time>2011-10-11T06:37:08Z</time>
<desc>lat.=44.615902, lon.=33.738243, Alt.=159.537231m. Speed=0.288000m/h.</desc>
<speed>0.080000</speed>
</trkpt>
<trkpt lat="44.615898" lon="33.738255">
<ele>159.623169</ele>
<time>2011-10-11T06:37:13Z</time>
<desc>lat.=44.615898, lon.=33.738255, Alt.=159.623169m. Speed=0.432000m/h.</desc>
<speed>0.120000</speed>
</trkpt>
<trkpt lat="44.615902" lon="33.738258">
<ele>159.533325</ele>
<time>2011-10-11T06:37:18Z</time>
<desc>lat.=44.615902, lon.=33.738258, Alt.=159.533325m. Speed=0.396000m/h.</desc>
<speed>0.110000</speed>
</trkpt>
<trkpt lat="44.615902" lon="33.738262">
<ele>159.509888</ele>
<time>2011-10-11T06:37:23Z</time>
<desc>lat.=44.615902, lon.=33.738262, Alt.=159.509888m. Speed=0.576000m/h.</desc>
<speed>0.160000</speed>
</trkpt>
<trkpt lat="44.615902" lon="33.738262">
<ele>159.482544</ele>
<time>2011-10-11T06:37:28Z</time>
<desc>lat.=44.615902, lon.=33.738262, Alt.=159.482544m. Speed=0.720000m/h.</desc>
<speed>0.200000</speed>
</trkpt>
<trkpt lat="44.615898" lon="33.738266">
<ele>159.584106</ele>
<time>2011-10-11T06:37:33Z</time>
<desc>lat.=44.615898, lon.=33.738266, Alt.=159.584106m. Speed=0.576000m/h.</desc>
<speed>0.160000</speed>
</trkpt>
<trkpt lat="44.615887" lon="33.738251">
<ele>159.670044</ele>
<time>2011-10-11T06:37:38Z</time>
<desc>lat.=44.615887, lon.=33.738251, Alt.=159.670044m. Speed=0.864000m/h.</desc>
<speed>0.240000</speed>
</trkpt>
<trkpt lat="44.615891" lon="33.738243">
<ele>159.838013</ele>
<time>2011-10-11T06:37:43Z</time>
<desc>lat.=44.615891, lon.=33.738243, Alt.=159.838013m. Speed=0.792000m/h.</desc>
<speed>0.220000</speed>
</trkpt>
<trkpt lat="44.615913" lon="33.738235">
<ele>159.986450</ele>
<time>2011-10-11T06:37:48Z</time>
<desc>lat.=44.615913, lon.=33.738235, Alt.=159.986450m. Speed=0.252000m/h.</desc>
<speed>0.070000</speed>
</trkpt>
<trkpt lat="44.615929" lon="33.738220">
<ele>160.099731</ele>
<time>2011-10-11T06:37:53Z</time>
<desc>lat.=44.615929, lon.=33.738220, Alt.=160.099731m. Speed=0.936000m/h.</desc>
<speed>0.260000</speed>
</trkpt>
<trkpt lat="44.615952" lon="33.738205">
<ele>160.170044</ele>
<time>2011-10-11T06:37:58Z</time>
<desc>lat.=44.615952, lon.=33.738205, Alt.=160.170044m. Speed=1.116000m/h.</desc>
<speed>0.310000</speed>
</trkpt>
<trkpt lat="44.615959" lon="33.738224">
<ele>160.220825</ele>
<time>2011-10-11T06:38:03Z</time>
<desc>lat.=44.615959, lon.=33.738224, Alt.=160.220825m. Speed=0.864000m/h.</desc>
<speed>0.240000</speed>
</trkpt>
<trkpt lat="44.615978" lon="33.738239">
<ele>160.361450</ele>
<time>2011-10-11T06:38:08Z</time>
<desc>lat.=44.615978, lon.=33.738239, Alt.=160.361450m. Speed=0.972000m/h.</desc>
<speed>0.270000</speed>
</trkpt>
<trkpt lat="44.615929" lon="33.738277">
<ele>160.963013</ele>
<time>2011-10-11T06:38:13Z</time>
<desc>lat.=44.615929, lon.=33.738277, Alt.=160.963013m. Speed=0.252000m/h.</desc>
<speed>0.070000</speed>
</trkpt>
<trkpt lat="44.615921" lon="33.738319">
<ele>161.334106</ele>
<time>2011-10-11T06:38:18Z</time>
<desc>lat.=44.615921, lon.=33.738319, Alt.=161.334106m. Speed=0.144000m/h.</desc>
<speed>0.040000</speed>
</trkpt>
<trkpt lat="44.615929" lon="33.738342">
<ele>161.798950</ele>
<time>2011-10-11T06:38:23Z</time>
<desc>lat.=44.615929, lon.=33.738342, Alt.=161.798950m. Speed=0.036000m/h.</desc>
<speed>0.010000</speed>
</trkpt>
<trkpt lat="44.615929" lon="33.738338">
<ele>161.783325</ele>
<time>2011-10-11T06:38:28Z</time>
<desc>lat.=44.615929, lon.=33.738338, Alt.=161.783325m. Speed=0.000000m/h.</desc>
<speed>0.000000</speed>
</trkpt>
<trkpt lat="44.615929" lon="33.738338">
<ele>161.787231</ele>
<time>2011-10-11T06:38:33Z</time>
<desc>lat.=44.615929, lon.=33.738338, Alt.=161.787231m. Speed=0.072000m/h.</desc>
<speed>0.020000</speed>
</trkpt>
<trkpt lat="44.615917" lon="33.738342">
<ele>161.744263</ele>
<time>2011-10-11T06:38:38Z</time>
<desc>lat.=44.615917, lon.=33.738342, Alt.=161.744263m. Speed=2.016000m/h.</desc>
<speed>0.560000</speed>
</trkpt>
<trkpt lat="44.615906" lon="33.738300">
<ele>161.654419</ele>
<time>2011-10-11T06:38:43Z</time>
<desc>lat.=44.615906, lon.=33.738300, Alt.=161.654419m. Speed=0.684000m/h.</desc>
<speed>0.190000</speed>
</trkpt>
<trkpt lat="44.615906" lon="33.738308">
<ele>162.560669</ele>
<time>2011-10-11T06:38:48Z</time>
<desc>lat.=44.615906, lon.=33.738308, Alt.=162.560669m. Speed=0.000000m/h.</desc>
<speed>0.000000</speed>
</trkpt>
<trkpt lat="44.615906" lon="33.738300">
<ele>163.666138</ele>
<time>2011-10-11T06:38:53Z</time>
<desc>lat.=44.615906, lon.=33.738300, Alt.=163.666138m. Speed=0.396000m/h.</desc>
<speed>0.110000</speed>
</trkpt>
<trkpt lat="44.615906" lon="33.738300">
<ele>164.009888</ele>
<time>2011-10-11T06:38:58Z</time>
<desc>lat.=44.615906, lon.=33.738300, Alt.=164.009888m. Speed=0.396000m/h.</desc>
<speed>0.110000</speed>
</trkpt>
<trkpt lat="44.615910" lon="33.738304">
<ele>164.291138</ele>
<time>2011-10-11T06:39:03Z</time>
<desc>lat.=44.615910, lon.=33.738304, Alt.=164.291138m. Speed=1.116000m/h.</desc>
<speed>0.310000</speed>
</trkpt>
<trkpt lat="44.615929" lon="33.738304">
<ele>165.482544</ele>
<time>2011-10-11T06:39:08Z</time>
<desc>lat.=44.615929, lon.=33.738304, Alt.=165.482544m. Speed=0.540000m/h.</desc>
<speed>0.150000</speed>
</trkpt>
<trkpt lat="44.615898" lon="33.738300">
<ele>167.181763</ele>
<time>2011-10-11T06:39:13Z</time>
<desc>lat.=44.615898, lon.=33.738300, Alt.=167.181763m. Speed=1.332000m/h.</desc>
<speed>0.370000</speed>
</trkpt>
<trkpt lat="44.615891" lon="33.738293">
<ele>168.197388</ele>
<time>2011-10-11T06:39:18Z</time>
<desc>lat.=44.615891, lon.=33.738293, Alt.=168.197388m. Speed=1.404000m/h.</desc>
<speed>0.390000</speed>
</trkpt>
<trkpt lat="44.615887" lon="33.738277">
<ele>169.591919</ele>
<time>2011-10-11T06:39:23Z</time>
<desc>lat.=44.615887, lon.=33.738277, Alt.=169.591919m. Speed=1.188000m/h.</desc>
<speed>0.330000</speed>
</trkpt>
<trkpt lat="44.615860" lon="33.738281">
<ele>170.443481</ele>
<time>2011-10-11T06:39:28Z</time>
<desc>lat.=44.615860, lon.=33.738281, Alt.=170.443481m. Speed=2.124000m/h.</desc>
<speed>0.590000</speed>
</trkpt>
<trkpt lat="44.615829" lon="33.738281">
<ele>171.154419</ele>
<time>2011-10-11T06:39:33Z</time>
<desc>lat.=44.615829, lon.=33.738281, Alt.=171.154419m. Speed=2.700000m/h.</desc>
<speed>0.750000</speed>
</trkpt>
<trkpt lat="44.615814" lon="33.738297">
<ele>172.002075</ele>
<time>2011-10-11T06:39:38Z</time>
<desc>lat.=44.615814, lon.=33.738297, Alt.=172.002075m. Speed=1.944000m/h.</desc>
<speed>0.540000</speed>
</trkpt>
<trkpt lat="44.615788" lon="33.738319">
<ele>172.802856</ele>
<time>2011-10-11T06:39:43Z</time>
<desc>lat.=44.615788, lon.=33.738319, Alt.=172.802856m. Speed=2.772000m/h.</desc>
<speed>0.770000</speed>
</trkpt>
<trkpt lat="44.615757" lon="33.738297">
<ele>173.693481</ele>
<time>2011-10-11T06:39:48Z</time>
<desc>lat.=44.615757, lon.=33.738297, Alt.=173.693481m. Speed=2.304000m/h.</desc>
<speed>0.640000</speed>
</trkpt>
<trkpt lat="44.615681" lon="33.738224">
<ele>174.591919</ele>
<time>2011-10-11T06:39:53Z</time>
<desc>lat.=44.615681, lon.=33.738224, Alt.=174.591919m. Speed=2.736000m/h.</desc>
<speed>0.760000</speed>
</trkpt>
<trkpt lat="44.615669" lon="33.738213">
<ele>175.494263</ele>
<time>2011-10-11T06:39:58Z</time>
<desc>lat.=44.615669, lon.=33.738213, Alt.=175.494263m. Speed=1.476000m/h.</desc>
<speed>0.410000</speed>
</trkpt>
<trkpt lat="44.615673" lon="33.738182">
<ele>176.205200</ele>
<time>2011-10-11T06:40:03Z</time>
<desc>lat.=44.615673, lon.=33.738182, Alt.=176.205200m. Speed=1.764000m/h.</desc>
<speed>0.490000</speed>
</trkpt>
<trkpt lat="44.615623" lon="33.738171">
<ele>176.713013</ele>
<time>2011-10-11T06:40:08Z</time>
<desc>lat.=44.615623, lon.=33.738171, Alt.=176.713013m. Speed=2.448000m/h.</desc>
<speed>0.680000</speed>
</trkpt>
<trkpt lat="44.615578" lon="33.738152">
<ele>177.345825</ele>
<time>2011-10-11T06:40:13Z</time>
<desc>lat.=44.615578, lon.=33.738152, Alt.=177.345825m. Speed=2.952000m/h.</desc>
<speed>0.820000</speed>
</trkpt>
<trkpt lat="44.615520" lon="33.738167">
<ele>177.588013</ele>
<time>2011-10-11T06:40:18Z</time>
<desc>lat.=44.615520, lon.=33.738167, Alt.=177.588013m. Speed=3.168000m/h.</desc>
<speed>0.880000</speed>
</trkpt>
<trkpt lat="44.615486" lon="33.738159">
<ele>178.134888</ele>
<time>2011-10-11T06:40:23Z</time>
<desc>lat.=44.615486, lon.=33.738159, Alt.=178.134888m. Speed=1.908000m/h.</desc>
<speed>0.530000</speed>
</trkpt>
<trkpt lat="44.615444" lon="33.738163">
<ele>178.537231</ele>
<time>2011-10-11T06:40:28Z</time>
<desc>lat.=44.615444, lon.=33.738163, Alt.=178.537231m. Speed=2.592000m/h.</desc>
<speed>0.720000</speed>
</trkpt>
<trkpt lat="44.615410" lon="33.738163">
<ele>179.115356</ele>
<time>2011-10-11T06:40:33Z</time>
<desc>lat.=44.615410, lon.=33.738163, Alt.=179.115356m. Speed=1.944000m/h.</desc>
<speed>0.540000</speed>
</trkpt>
<trkpt lat="44.615383" lon="33.738155">
<ele>179.849731</ele>
<time>2011-10-11T06:40:38Z</time>
<desc>lat.=44.615383, lon.=33.738155, Alt.=179.849731m. Speed=2.808000m/h.</desc>
<speed>0.780000</speed>
</trkpt>
<trkpt lat="44.615330" lon="33.738155">
<ele>180.654419</ele>
<time>2011-10-11T06:40:43Z</time>
<desc>lat.=44.615330, lon.=33.738155, Alt.=180.654419m. Speed=4.356000m/h.</desc>
<speed>1.210000</speed>
</trkpt>
<trkpt lat="44.615280" lon="33.738167">
<ele>181.439575</ele>
<time>2011-10-11T06:40:48Z</time>
<desc>lat.=44.615280, lon.=33.738167, Alt.=181.439575m. Speed=3.420000m/h.</desc>
<speed>0.950000</speed>
</trkpt>
<trkpt lat="44.615231" lon="33.738186">
<ele>182.447388</ele>
<time>2011-10-11T06:40:53Z</time>
<desc>lat.=44.615231, lon.=33.738186, Alt.=182.447388m. Speed=2.952000m/h.</desc>
<speed>0.820000</speed>
</trkpt>
<trkpt lat="44.615204" lon="33.738190">
<ele>183.330200</ele>
<time>2011-10-11T06:40:58Z</time>
<desc>lat.=44.615204, lon.=33.738190, Alt.=183.330200m. Speed=1.764000m/h.</desc>
<speed>0.490000</speed>
</trkpt>
<trkpt lat="44.615162" lon="33.738167">
<ele>184.232544</ele>
<time>2011-10-11T06:41:03Z</time>
<desc>lat.=44.615162, lon.=33.738167, Alt.=184.232544m. Speed=3.312000m/h.</desc>
<speed>0.920000</speed>
</trkpt>
<trkpt lat="44.615128" lon="33.738144">
<ele>185.412231</ele>
<time>2011-10-11T06:41:08Z</time>
<desc>lat.=44.615128, lon.=33.738144, Alt.=185.412231m. Speed=2.772000m/h.</desc>
<speed>0.770000</speed>
</trkpt>
<trkpt lat="44.615105" lon="33.738098">
<ele>186.474731</ele>
<time>2011-10-11T06:41:13Z</time>
<desc>lat.=44.615105, lon.=33.738098, Alt.=186.474731m. Speed=1.836000m/h.</desc>
<speed>0.510000</speed>
</trkpt>
<trkpt lat="44.615025" lon="33.738106">
<ele>187.080200</ele>
<time>2011-10-11T06:41:18Z</time>
<desc>lat.=44.615025, lon.=33.738106, Alt.=187.080200m. Speed=2.772000m/h.</desc>
<speed>0.770000</speed>
</trkpt>
<trkpt lat="44.614937" lon="33.738159">
<ele>187.349731</ele>
<time>2011-10-11T06:41:23Z</time>
<desc>lat.=44.614937, lon.=33.738159, Alt.=187.349731m. Speed=2.808000m/h.</desc>
<speed>0.780000</speed>
</trkpt>
<trkpt lat="44.614902" lon="33.738197">
<ele>187.951294</ele>
<time>2011-10-11T06:41:28Z</time>
<desc>lat.=44.614902, lon.=33.738197, Alt.=187.951294m. Speed=1.224000m/h.</desc>
<speed>0.340000</speed>
</trkpt>
<trkpt lat="44.614853" lon="33.738216">
<ele>189.490356</ele>
<time>2011-10-11T06:41:33Z</time>
<desc>lat.=44.614853, lon.=33.738216, Alt.=189.490356m. Speed=1.548000m/h.</desc>
<speed>0.430000</speed>
</trkpt>
<trkpt lat="44.614864" lon="33.738194">
<ele>190.521606</ele>
<time>2011-10-11T06:41:38Z</time>
<desc>lat.=44.614864, lon.=33.738194, Alt.=190.521606m. Speed=0.756000m/h.</desc>
<speed>0.210000</speed>
</trkpt>
<trkpt lat="44.614864" lon="33.738163">
<ele>190.986450</ele>
<time>2011-10-11T06:41:43Z</time>
<desc>lat.=44.614864, lon.=33.738163, Alt.=190.986450m. Speed=0.252000m/h.</desc>
<speed>0.070000</speed>
</trkpt>
<trkpt lat="44.614845" lon="33.738163">
<ele>191.287231</ele>
<time>2011-10-11T06:41:48Z</time>
<desc>lat.=44.614845, lon.=33.738163, Alt.=191.287231m. Speed=1.944000m/h.</desc>
<speed>0.540000</speed>
</trkpt>
<trkpt lat="44.614830" lon="33.738178">
<ele>192.170044</ele>
<time>2011-10-11T06:41:53Z</time>
<desc>lat.=44.614830, lon.=33.738178, Alt.=192.170044m. Speed=2.304000m/h.</desc>
<speed>0.640000</speed>
</trkpt>
<trkpt lat="44.614815" lon="33.738159">
<ele>192.431763</ele>
<time>2011-10-11T06:41:58Z</time>
<desc>lat.=44.614815, lon.=33.738159, Alt.=192.431763m. Speed=1.332000m/h.</desc>
<speed>0.370000</speed>
</trkpt>
<trkpt lat="44.614773" lon="33.738194">
<ele>193.474731</ele>
<time>2011-10-11T06:42:03Z</time>
<desc>lat.=44.614773, lon.=33.738194, Alt.=193.474731m. Speed=2.808000m/h.</desc>
<speed>0.780000</speed>
</trkpt>
<trkpt lat="44.614754" lon="33.738155">
<ele>194.091919</ele>
<time>2011-10-11T06:42:08Z</time>
<desc>lat.=44.614754, lon.=33.738155, Alt.=194.091919m. Speed=1.728000m/h.</desc>
<speed>0.480000</speed>
</trkpt>
<trkpt lat="44.614735" lon="33.738121">
<ele>195.705200</ele>
<time>2011-10-11T06:42:13Z</time>
<desc>lat.=44.614735, lon.=33.738121, Alt.=195.705200m. Speed=0.756000m/h.</desc>
<speed>0.210000</speed>
</trkpt>
<trkpt lat="44.614723" lon="33.738163">
<ele>196.998169</ele>
<time>2011-10-11T06:42:18Z</time>
<desc>lat.=44.614723, lon.=33.738163, Alt.=196.998169m. Speed=1.116000m/h.</desc>
<speed>0.310000</speed>
</trkpt>
<trkpt lat="44.614704" lon="33.738167">
<ele>197.513794</ele>
<time>2011-10-11T06:42:23Z</time>
<desc>lat.=44.614704, lon.=33.738167, Alt.=197.513794m. Speed=1.476000m/h.</desc>
<speed>0.410000</speed>
</trkpt>
<trkpt lat="44.614689" lon="33.738155">
<ele>198.384888</ele>
<time>2011-10-11T06:42:28Z</time>
<desc>lat.=44.614689, lon.=33.738155, Alt.=198.384888m. Speed=1.224000m/h.</desc>
<speed>0.340000</speed>
</trkpt>
<trkpt lat="44.614685" lon="33.738106">
<ele>199.275513</ele>
<time>2011-10-11T06:42:33Z</time>
<desc>lat.=44.614685, lon.=33.738106, Alt.=199.275513m. Speed=1.512000m/h.</desc>
<speed>0.420000</speed>
</trkpt>
<trkpt lat="44.614658" lon="33.738075">
<ele>200.775513</ele>
<time>2011-10-11T06:42:38Z</time>
<desc>lat.=44.614658, lon.=33.738075, Alt.=200.775513m. Speed=3.744000m/h.</desc>
<speed>1.040000</speed>
</trkpt>
<trkpt lat="44.614635" lon="33.738060">
<ele>201.861450</ele>
<time>2011-10-11T06:42:43Z</time>
<desc>lat.=44.614635, lon.=33.738060, Alt.=201.861450m. Speed=0.864000m/h.</desc>
<speed>0.240000</speed>
</trkpt>
<trkpt lat="44.614632" lon="33.738029">
<ele>202.634888</ele>
<time>2011-10-11T06:42:48Z</time>
<desc>lat.=44.614632, lon.=33.738029, Alt.=202.634888m. Speed=1.512000m/h.</desc>
<speed>0.420000</speed>
</trkpt>
<trkpt lat="44.614605" lon="33.738007">
<ele>203.252075</ele>
<time>2011-10-11T06:42:53Z</time>
<desc>lat.=44.614605, lon.=33.738007, Alt.=203.252075m. Speed=3.384000m/h.</desc>
<speed>0.940000</speed>
</trkpt>
<trkpt lat="44.614601" lon="33.737965">
<ele>203.892700</ele>
<time>2011-10-11T06:42:58Z</time>
<desc>lat.=44.614601, lon.=33.737965, Alt.=203.892700m. Speed=1.980000m/h.</desc>
<speed>0.550000</speed>
</trkpt>
<trkpt lat="44.614597" lon="33.737934">
<ele>204.662231</ele>
<time>2011-10-11T06:43:03Z</time>
<desc>lat.=44.614597, lon.=33.737934, Alt.=204.662231m. Speed=1.980000m/h.</desc>
<speed>0.550000</speed>
</trkpt>
<trkpt lat="44.614609" lon="33.737923">
<ele>205.970825</ele>
<time>2011-10-11T06:43:08Z</time>
<desc>lat.=44.614609, lon.=33.737923, Alt.=205.970825m. Speed=0.864000m/h.</desc>
<speed>0.240000</speed>
</trkpt>
<trkpt lat="44.614605" lon="33.737972">
<ele>206.787231</ele>
<time>2011-10-11T06:43:13Z</time>
<desc>lat.=44.614605, lon.=33.737972, Alt.=206.787231m. Speed=0.324000m/h.</desc>
<speed>0.090000</speed>
</trkpt>
<trkpt lat="44.614578" lon="33.737934">
<ele>208.138794</ele>
<time>2011-10-11T06:43:18Z</time>
<desc>lat.=44.614578, lon.=33.737934, Alt.=208.138794m. Speed=4.392000m/h.</desc>
<speed>1.220000</speed>
</trkpt>
<trkpt lat="44.614536" lon="33.737984">
<ele>209.603638</ele>
<time>2011-10-11T06:43:23Z</time>
<desc>lat.=44.614536, lon.=33.737984, Alt.=209.603638m. Speed=1.152000m/h.</desc>
<speed>0.320000</speed>
</trkpt>
<trkpt lat="44.614517" lon="33.737988">
<ele>210.720825</ele>
<time>2011-10-11T06:43:28Z</time>
<desc>lat.=44.614517, lon.=33.737988, Alt.=210.720825m. Speed=1.044000m/h.</desc>
<speed>0.290000</speed>
</trkpt>
<trkpt lat="44.614536" lon="33.737946">
<ele>212.720825</ele>
<time>2011-10-11T06:43:33Z</time>
<desc>lat.=44.614536, lon.=33.737946, Alt.=212.720825m. Speed=1.368000m/h.</desc>
<speed>0.380000</speed>
</trkpt>
<trkpt lat="44.614498" lon="33.737976">
<ele>215.009888</ele>
<time>2011-10-11T06:43:38Z</time>
<desc>lat.=44.614498, lon.=33.737976, Alt.=215.009888m. Speed=1.728000m/h.</desc>
<speed>0.480000</speed>
</trkpt>
<trkpt lat="44.614449" lon="33.737968">
<ele>216.263794</ele>
<time>2011-10-11T06:43:43Z</time>
<desc>lat.=44.614449, lon.=33.737968, Alt.=216.263794m. Speed=2.988000m/h.</desc>
<speed>0.830000</speed>
</trkpt>
<trkpt lat="44.614399" lon="33.737976">
<ele>217.185669</ele>
<time>2011-10-11T06:43:48Z</time>
<desc>lat.=44.614399, lon.=33.737976, Alt.=217.185669m. Speed=2.952000m/h.</desc>
<speed>0.820000</speed>
</trkpt>
<trkpt lat="44.614353" lon="33.738003">
<ele>217.998169</ele>
<time>2011-10-11T06:43:53Z</time>
<desc>lat.=44.614353, lon.=33.738003, Alt.=217.998169m. Speed=2.880000m/h.</desc>
<speed>0.800000</speed>
</trkpt>
<trkpt lat="44.614338" lon="33.738029">
<ele>218.775513</ele>
<time>2011-10-11T06:43:58Z</time>
<desc>lat.=44.614338, lon.=33.738029, Alt.=218.775513m. Speed=1.584000m/h.</desc>
<speed>0.440000</speed>
</trkpt>
<trkpt lat="44.614346" lon="33.738037">
<ele>219.451294</ele>
<time>2011-10-11T06:44:03Z</time>
<desc>lat.=44.614346, lon.=33.738037, Alt.=219.451294m. Speed=0.756000m/h.</desc>
<speed>0.210000</speed>
</trkpt>
<trkpt lat="44.614342" lon="33.738033">
<ele>219.701294</ele>
<time>2011-10-11T06:44:08Z</time>
<desc>lat.=44.614342, lon.=33.738033, Alt.=219.701294m. Speed=0.900000m/h.</desc>
<speed>0.250000</speed>
</trkpt>
<trkpt lat="44.614323" lon="33.738026">
<ele>220.048950</ele>
<time>2011-10-11T06:44:13Z</time>
<desc>lat.=44.614323, lon.=33.738026, Alt.=220.048950m. Speed=0.576000m/h.</desc>
<speed>0.160000</speed>
</trkpt>
<trkpt lat="44.614326" lon="33.738029">
<ele>220.263794</ele>
<time>2011-10-11T06:44:18Z</time>
<desc>lat.=44.614326, lon.=33.738029, Alt.=220.263794m. Speed=0.864000m/h.</desc>
<speed>0.240000</speed>
</trkpt>
<trkpt lat="44.614311" lon="33.738033">
<ele>220.619263</ele>
<time>2011-10-11T06:44:23Z</time>
<desc>lat.=44.614311, lon.=33.738033, Alt.=220.619263m. Speed=0.576000m/h.</desc>
<speed>0.160000</speed>
</trkpt>
<trkpt lat="44.614307" lon="33.738045">
<ele>220.841919</ele>
<time>2011-10-11T06:44:28Z</time>
<desc>lat.=44.614307, lon.=33.738045, Alt.=220.841919m. Speed=0.216000m/h.</desc>
<speed>0.060000</speed>
</trkpt>
<trkpt lat="44.614304" lon="33.738049">
<ele>220.916138</ele>
<time>2011-10-11T06:44:33Z</time>
<desc>lat.=44.614304, lon.=33.738049, Alt.=220.916138m. Speed=0.324000m/h.</desc>
<speed>0.090000</speed>
</trkpt>
<trkpt lat="44.614296" lon="33.738049">
<ele>220.963013</ele>
<time>2011-10-11T06:44:38Z</time>
<desc>lat.=44.614296, lon.=33.738049, Alt.=220.963013m. Speed=1.440000m/h.</desc>
<speed>0.400000</speed>
</trkpt>
<trkpt lat="44.614273" lon="33.738045">
<ele>221.119263</ele>
<time>2011-10-11T06:44:43Z</time>
<desc>lat.=44.614273, lon.=33.738045, Alt.=221.119263m. Speed=0.576000m/h.</desc>
<speed>0.160000</speed>
</trkpt>
<trkpt lat="44.614239" lon="33.738037">
<ele>221.213013</ele>
<time>2011-10-11T06:44:48Z</time>
<desc>lat.=44.614239, lon.=33.738037, Alt.=221.213013m. Speed=2.448000m/h.</desc>
<speed>0.680000</speed>
</trkpt>
<trkpt lat="44.614159" lon="33.738007">
<ele>221.752075</ele>
<time>2011-10-11T06:44:53Z</time>
<desc>lat.=44.614159, lon.=33.738007, Alt.=221.752075m. Speed=3.384000m/h.</desc>
<speed>0.940000</speed>
</trkpt>
<trkpt lat="44.614117" lon="33.737968">
<ele>222.240356</ele>
<time>2011-10-11T06:44:58Z</time>
<desc>lat.=44.614117, lon.=33.737968, Alt.=222.240356m. Speed=3.780000m/h.</desc>
<speed>1.050000</speed>
</trkpt>
<trkpt lat="44.614071" lon="33.737949">
<ele>223.295044</ele>
<time>2011-10-11T06:45:03Z</time>
<desc>lat.=44.614071, lon.=33.737949, Alt.=223.295044m. Speed=2.520000m/h.</desc>
<speed>0.700000</speed>
</trkpt>
<trkpt lat="44.614029" lon="33.737968">
<ele>224.193481</ele>
<time>2011-10-11T06:45:08Z</time>
<desc>lat.=44.614029, lon.=33.737968, Alt.=224.193481m. Speed=1.872000m/h.</desc>
<speed>0.520000</speed>
</trkpt>
<trkpt lat="44.614006" lon="33.738022">
<ele>225.322388</ele>
<time>2011-10-11T06:45:13Z</time>
<desc>lat.=44.614006, lon.=33.738022, Alt.=225.322388m. Speed=1.260000m/h.</desc>
<speed>0.350000</speed>
</trkpt>
<trkpt lat="44.614021" lon="33.738022">
<ele>226.259888</ele>
<time>2011-10-11T06:45:18Z</time>
<desc>lat.=44.614021, lon.=33.738022, Alt.=226.259888m. Speed=3.600000m/h.</desc>
<speed>1.000000</speed>
</trkpt>
<trkpt lat="44.614010" lon="33.738045">
<ele>228.029419</ele>
<time>2011-10-11T06:45:23Z</time>
<desc>lat.=44.614010, lon.=33.738045, Alt.=228.029419m. Speed=1.116000m/h.</desc>
<speed>0.310000</speed>
</trkpt>
<trkpt lat="44.614010" lon="33.738049">
<ele>229.244263</ele>
<time>2011-10-11T06:45:28Z</time>
<desc>lat.=44.614010, lon.=33.738049, Alt.=229.244263m. Speed=1.512000m/h.</desc>
<speed>0.420000</speed>
</trkpt>
<trkpt lat="44.614006" lon="33.738064">
<ele>230.974731</ele>
<time>2011-10-11T06:45:33Z</time>
<desc>lat.=44.614006, lon.=33.738064, Alt.=230.974731m. Speed=1.116000m/h.</desc>
<speed>0.310000</speed>
</trkpt>
<trkpt lat="44.613995" lon="33.738102">
<ele>232.177856</ele>
<time>2011-10-11T06:45:38Z</time>
<desc>lat.=44.613995, lon.=33.738102, Alt.=232.177856m. Speed=0.756000m/h.</desc>
<speed>0.210000</speed>
</trkpt>
<trkpt lat="44.613972" lon="33.738136">
<ele>233.189575</ele>
<time>2011-10-11T06:45:43Z</time>
<desc>lat.=44.613972, lon.=33.738136, Alt.=233.189575m. Speed=2.952000m/h.</desc>
<speed>0.820000</speed>
</trkpt>
<trkpt lat="44.613964" lon="33.738140">
<ele>235.857544</ele>
<time>2011-10-11T06:45:48Z</time>
<desc>lat.=44.613964, lon.=33.738140, Alt.=235.857544m. Speed=0.000000m/h.</desc>
<speed>0.000000</speed>
</trkpt>
<trkpt lat="44.613964" lon="33.738140">
<ele>235.923950</ele>
<time>2011-10-11T06:45:53Z</time>
<desc>lat.=44.613964, lon.=33.738140, Alt.=235.923950m. Speed=0.036000m/h.</desc>
<speed>0.010000</speed>
</trkpt>
<trkpt lat="44.613964" lon="33.738140">
<ele>235.990356</ele>
<time>2011-10-11T06:45:58Z</time>
<desc>lat.=44.613964, lon.=33.738140, Alt.=235.990356m. Speed=0.072000m/h.</desc>
<speed>0.020000</speed>
</trkpt>
<trkpt lat="44.613964" lon="33.738140">
<ele>236.048950</ele>
<time>2011-10-11T06:46:03Z</time>
<desc>lat.=44.613964, lon.=33.738140, Alt.=236.048950m. Speed=0.036000m/h.</desc>
<speed>0.010000</speed>
</trkpt>
<trkpt lat="44.613964" lon="33.738140">
<ele>236.091919</ele>
<time>2011-10-11T06:46:08Z</time>
<desc>lat.=44.613964, lon.=33.738140, Alt.=236.091919m. Speed=0.468000m/h.</desc>
<speed>0.130000</speed>
</trkpt>
<trkpt lat="44.613972" lon="33.738140">
<ele>237.111450</ele>
<time>2011-10-11T06:46:13Z</time>
<desc>lat.=44.613972, lon.=33.738140, Alt.=237.111450m. Speed=1.368000m/h.</desc>
<speed>0.380000</speed>
</trkpt>
<trkpt lat="44.613976" lon="33.738144">
<ele>239.154419</ele>
<time>2011-10-11T06:46:18Z</time>
<desc>lat.=44.613976, lon.=33.738144, Alt.=239.154419m. Speed=1.188000m/h.</desc>
<speed>0.330000</speed>
</trkpt>
<trkpt lat="44.613926" lon="33.738182">
<ele>240.841919</ele>
<time>2011-10-11T06:46:23Z</time>
<desc>lat.=44.613926, lon.=33.738182, Alt.=240.841919m. Speed=5.688000m/h.</desc>
<speed>1.580000</speed>
</trkpt>
<trkpt lat="44.613895" lon="33.738270">
<ele>243.033325</ele>
<time>2011-10-11T06:46:28Z</time>
<desc>lat.=44.613895, lon.=33.738270, Alt.=243.033325m. Speed=5.364000m/h.</desc>
<speed>1.490000</speed>
</trkpt>
<trkpt lat="44.613880" lon="33.738346">
<ele>244.423950</ele>
<time>2011-10-11T06:46:33Z</time>
<desc>lat.=44.613880, lon.=33.738346, Alt.=244.423950m. Speed=2.340000m/h.</desc>
<speed>0.650000</speed>
</trkpt>
<trkpt lat="44.613880" lon="33.738354">
<ele>243.908325</ele>
<time>2011-10-11T06:46:38Z</time>
<desc>lat.=44.613880, lon.=33.738354, Alt.=243.908325m. Speed=0.216000m/h.</desc>
<speed>0.060000</speed>
</trkpt>
<trkpt lat="44.613861" lon="33.738380">
<ele>243.982544</ele>
<time>2011-10-11T06:46:43Z</time>
<desc>lat.=44.613861, lon.=33.738380, Alt.=243.982544m. Speed=4.068000m/h.</desc>
<speed>1.130000</speed>
</trkpt>
<trkpt lat="44.613811" lon="33.738400">
<ele>245.646606</ele>
<time>2011-10-11T06:46:48Z</time>
<desc>lat.=44.613811, lon.=33.738400, Alt.=245.646606m. Speed=3.816000m/h.</desc>
<speed>1.060000</speed>
</trkpt>
<trkpt lat="44.613762" lon="33.738392">
<ele>248.224731</ele>
<time>2011-10-11T06:46:53Z</time>
<desc>lat.=44.613762, lon.=33.738392, Alt.=248.224731m. Speed=4.500000m/h.</desc>
<speed>1.250000</speed>
</trkpt>
<trkpt lat="44.613724" lon="33.738380">
<ele>249.927856</ele>
<time>2011-10-11T06:46:58Z</time>
<desc>lat.=44.613724, lon.=33.738380, Alt.=249.927856m. Speed=1.656000m/h.</desc>
<speed>0.460000</speed>
</trkpt>
<trkpt lat="44.613682" lon="33.738388">
<ele>251.830200</ele>
<time>2011-10-11T06:47:03Z</time>
<desc>lat.=44.613682, lon.=33.738388, Alt.=251.830200m. Speed=4.320000m/h.</desc>
<speed>1.200000</speed>
</trkpt>
<trkpt lat="44.613632" lon="33.738403">
<ele>253.244263</ele>
<time>2011-10-11T06:47:08Z</time>
<desc>lat.=44.613632, lon.=33.738403, Alt.=253.244263m. Speed=2.700000m/h.</desc>
<speed>0.750000</speed>
</trkpt>
<trkpt lat="44.613594" lon="33.738434">
<ele>254.584106</ele>
<time>2011-10-11T06:47:13Z</time>
<desc>lat.=44.613594, lon.=33.738434, Alt.=254.584106m. Speed=3.816000m/h.</desc>
<speed>1.060000</speed>
</trkpt>
<trkpt lat="44.613602" lon="33.738415">
<ele>255.295044</ele>
<time>2011-10-11T06:47:18Z</time>
<desc>lat.=44.613602, lon.=33.738415, Alt.=255.295044m. Speed=2.232000m/h.</desc>
<speed>0.620000</speed>
</trkpt>
<trkpt lat="44.613625" lon="33.738388">
<ele>256.019775</ele>
<time>2011-10-11T06:47:23Z</time>
<desc>lat.=44.613625, lon.=33.738388, Alt.=256.019775m. Speed=2.268000m/h.</desc>
<speed>0.630000</speed>
</trkpt>
<trkpt lat="44.613670" lon="33.738369">
<ele>256.886963</ele>
<time>2011-10-11T06:47:28Z</time>
<desc>lat.=44.613670, lon.=33.738369, Alt.=256.886963m. Speed=4.392000m/h.</desc>
<speed>1.220000</speed>
</trkpt>
<trkpt lat="44.613716" lon="33.738392">
<ele>257.527588</ele>
<time>2011-10-11T06:47:33Z</time>
<desc>lat.=44.613716, lon.=33.738392, Alt.=257.527588m. Speed=3.708000m/h.</desc>
<speed>1.030000</speed>
</trkpt>
<trkpt lat="44.613743" lon="33.738411">
<ele>257.676025</ele>
<time>2011-10-11T06:47:38Z</time>
<desc>lat.=44.613743, lon.=33.738411, Alt.=257.676025m. Speed=0.324000m/h.</desc>
<speed>0.090000</speed>
</trkpt>
<trkpt lat="44.613743" lon="33.738419">
<ele>257.590088</ele>
<time>2011-10-11T06:47:43Z</time>
<desc>lat.=44.613743, lon.=33.738419, Alt.=257.590088m. Speed=0.072000m/h.</desc>
<speed>0.020000</speed>
</trkpt>
<trkpt lat="44.613754" lon="33.738434">
<ele>257.652588</ele>
<time>2011-10-11T06:47:48Z</time>
<desc>lat.=44.613754, lon.=33.738434, Alt.=257.652588m. Speed=2.772000m/h.</desc>
<speed>0.770000</speed>
</trkpt>
<trkpt lat="44.613770" lon="33.738434">
<ele>257.285400</ele>
<time>2011-10-11T06:47:53Z</time>
<desc>lat.=44.613770, lon.=33.738434, Alt.=257.285400m. Speed=0.576000m/h.</desc>
<speed>0.160000</speed>
</trkpt>
<trkpt lat="44.613770" lon="33.738426">
<ele>257.097900</ele>
<time>2011-10-11T06:47:58Z</time>
<desc>lat.=44.613770, lon.=33.738426, Alt.=257.097900m. Speed=0.432000m/h.</desc>
<speed>0.120000</speed>
</trkpt>
<trkpt lat="44.613773" lon="33.738422">
<ele>256.855713</ele>
<time>2011-10-11T06:48:03Z</time>
<desc>lat.=44.613773, lon.=33.738422, Alt.=256.855713m. Speed=0.144000m/h.</desc>
<speed>0.040000</speed>
</trkpt>
<trkpt lat="44.613773" lon="33.738422">
<ele>256.730713</ele>
<time>2011-10-11T06:48:08Z</time>
<desc>lat.=44.613773, lon.=33.738422, Alt.=256.730713m. Speed=0.144000m/h.</desc>
<speed>0.040000</speed>
</trkpt>
<trkpt lat="44.613770" lon="33.738426">
<ele>256.715088</ele>
<time>2011-10-11T06:48:13Z</time>
<desc>lat.=44.613770, lon.=33.738426, Alt.=256.715088m. Speed=0.072000m/h.</desc>
<speed>0.020000</speed>
</trkpt>
<trkpt lat="44.613770" lon="33.738426">
<ele>256.722900</ele>
<time>2011-10-11T06:48:18Z</time>
<desc>lat.=44.613770, lon.=33.738426, Alt.=256.722900m. Speed=0.036000m/h.</desc>
<speed>0.010000</speed>
</trkpt>
<trkpt lat="44.613770" lon="33.738426">
<ele>256.730713</ele>
<time>2011-10-11T06:48:23Z</time>
<desc>lat.=44.613770, lon.=33.738426, Alt.=256.730713m. Speed=0.000000m/h.</desc>
<speed>0.000000</speed>
</trkpt>
<trkpt lat="44.613770" lon="33.738426">
<ele>256.738525</ele>
<time>2011-10-11T06:48:28Z</time>
<desc>lat.=44.613770, lon.=33.738426, Alt.=256.738525m. Speed=0.036000m/h.</desc>
<speed>0.010000</speed>
</trkpt>
<trkpt lat="44.613770" lon="33.738426">
<ele>256.746338</ele>
<time>2011-10-11T06:48:33Z</time>
<desc>lat.=44.613770, lon.=33.738426, Alt.=256.746338m. Speed=0.216000m/h.</desc>
<speed>0.060000</speed>
</trkpt>
<trkpt lat="44.613773" lon="33.738430">
<ele>256.793213</ele>
<time>2011-10-11T06:48:38Z</time>
<desc>lat.=44.613773, lon.=33.738430, Alt.=256.793213m. Speed=0.468000m/h.</desc>
<speed>0.130000</speed>
</trkpt>
<trkpt lat="44.613777" lon="33.738430">
<ele>256.926025</ele>
<time>2011-10-11T06:48:43Z</time>
<desc>lat.=44.613777, lon.=33.738430, Alt.=256.926025m. Speed=0.216000m/h.</desc>
<speed>0.060000</speed>
</trkpt>
<trkpt lat="44.613777" lon="33.738430">
<ele>257.379150</ele>
<time>2011-10-11T06:48:48Z</time>
<desc>lat.=44.613777, lon.=33.738430, Alt.=257.379150m. Speed=0.144000m/h.</desc>
<speed>0.040000</speed>
</trkpt>
<trkpt lat="44.613773" lon="33.738430">
<ele>257.636963</ele>
<time>2011-10-11T06:48:53Z</time>
<desc>lat.=44.613773, lon.=33.738430, Alt.=257.636963m. Speed=0.144000m/h.</desc>
<speed>0.040000</speed>
</trkpt>
<trkpt lat="44.613773" lon="33.738430">
<ele>257.668213</ele>
<time>2011-10-11T06:48:58Z</time>
<desc>lat.=44.613773, lon.=33.738430, Alt.=257.668213m. Speed=0.000000m/h.</desc>
<speed>0.000000</speed>
</trkpt>
<trkpt lat="44.613773" lon="33.738430">
<ele>257.652588</ele>
<time>2011-10-11T06:49:03Z</time>
<desc>lat.=44.613773, lon.=33.738430, Alt.=257.652588m. Speed=0.036000m/h.</desc>
<speed>0.010000</speed>
</trkpt>
<trkpt lat="44.613773" lon="33.738430">
<ele>257.668213</ele>
<time>2011-10-11T06:49:08Z</time>
<desc>lat.=44.613773, lon.=33.738430, Alt.=257.668213m. Speed=0.036000m/h.</desc>
<speed>0.010000</speed>
</trkpt>
<trkpt lat="44.613773" lon="33.738430">
<ele>257.691650</ele>
<time>2011-10-11T06:49:13Z</time>
<desc>lat.=44.613773, lon.=33.738430, Alt.=257.691650m. Speed=0.000000m/h.</desc>
<speed>0.000000</speed>
</trkpt>
<trkpt lat="44.613773" lon="33.738430">
<ele>257.722900</ele>
<time>2011-10-11T06:49:18Z</time>
<desc>lat.=44.613773, lon.=33.738430, Alt.=257.722900m. Speed=0.036000m/h.</desc>
<speed>0.010000</speed>
</trkpt>
<trkpt lat="44.613773" lon="33.738430">
<ele>257.754150</ele>
<time>2011-10-11T06:49:23Z</time>
<desc>lat.=44.613773, lon.=33.738430, Alt.=257.754150m. Speed=0.180000m/h.</desc>
<speed>0.050000</speed>
</trkpt>
<trkpt lat="44.613773" lon="33.738430">
<ele>257.754150</ele>
<time>2011-10-11T06:49:28Z</time>
<desc>lat.=44.613773, lon.=33.738430, Alt.=257.754150m. Speed=0.036000m/h.</desc>
<speed>0.010000</speed>
</trkpt>
<trkpt lat="44.613773" lon="33.738430">
<ele>257.754150</ele>
<time>2011-10-11T06:49:33Z</time>
<desc>lat.=44.613773, lon.=33.738430, Alt.=257.754150m. Speed=0.072000m/h.</desc>
<speed>0.020000</speed>
</trkpt>
<trkpt lat="44.613773" lon="33.738430">
<ele>257.738525</ele>
<time>2011-10-11T06:49:38Z</time>
<desc>lat.=44.613773, lon.=33.738430, Alt.=257.738525m. Speed=0.000000m/h.</desc>
<speed>0.000000</speed>
</trkpt>
<trkpt lat="44.613773" lon="33.738430">
<ele>257.738525</ele>
<time>2011-10-11T06:49:43Z</time>
<desc>lat.=44.613773, lon.=33.738430, Alt.=257.738525m. Speed=0.000000m/h.</desc>
<speed>0.000000</speed>
</trkpt>
<trkpt lat="44.613773" lon="33.738430">
<ele>257.738525</ele>
<time>2011-10-11T06:49:48Z</time>
<desc>lat.=44.613773, lon.=33.738430, Alt.=257.738525m. Speed=0.000000m/h.</desc>
<speed>0.000000</speed>
</trkpt>
<trkpt lat="44.613773" lon="33.738430">
<ele>257.746338</ele>
<time>2011-10-11T06:49:53Z</time>
<desc>lat.=44.613773, lon.=33.738430, Alt.=257.746338m. Speed=0.000000m/h.</desc>
<speed>0.000000</speed>
</trkpt>
<trkpt lat="44.613773" lon="33.738430">
<ele>257.769775</ele>
<time>2011-10-11T06:49:58Z</time>
<desc>lat.=44.613773, lon.=33.738430, Alt.=257.769775m. Speed=0.108000m/h.</desc>
<speed>0.030000</speed>
</trkpt>
<trkpt lat="44.613773" lon="33.738430">
<ele>257.746338</ele>
<time>2011-10-11T06:50:03Z</time>
<desc>lat.=44.613773, lon.=33.738430, Alt.=257.746338m. Speed=0.432000m/h.</desc>
<speed>0.120000</speed>
</trkpt>
<trkpt lat="44.613773" lon="33.738430">
<ele>257.715088</ele>
<time>2011-10-11T06:50:08Z</time>
<desc>lat.=44.613773, lon.=33.738430, Alt.=257.715088m. Speed=0.072000m/h.</desc>
<speed>0.020000</speed>
</trkpt>
<trkpt lat="44.613777" lon="33.738426">
<ele>257.551025</ele>
<time>2011-10-11T06:50:13Z</time>
<desc>lat.=44.613777, lon.=33.738426, Alt.=257.551025m. Speed=0.792000m/h.</desc>
<speed>0.220000</speed>
</trkpt>
<trkpt lat="44.613781" lon="33.738430">
<ele>257.558838</ele>
<time>2011-10-11T06:50:18Z</time>
<desc>lat.=44.613781, lon.=33.738430, Alt.=257.558838m. Speed=0.108000m/h.</desc>
<speed>0.030000</speed>
</trkpt>
<trkpt lat="44.613777" lon="33.738419">
<ele>258.222900</ele>
<time>2011-10-11T06:50:23Z</time>
<desc>lat.=44.613777, lon.=33.738419, Alt.=258.222900m. Speed=5.616000m/h.</desc>
<speed>1.560000</speed>
</trkpt>
<trkpt lat="44.613743" lon="33.738388">
<ele>259.551025</ele>
<time>2011-10-11T06:50:28Z</time>
<desc>lat.=44.613743, lon.=33.738388, Alt.=259.551025m. Speed=0.972000m/h.</desc>
<speed>0.270000</speed>
</trkpt>
<trkpt lat="44.613716" lon="33.738384">
<ele>260.949463</ele>
<time>2011-10-11T06:50:33Z</time>
<desc>lat.=44.613716, lon.=33.738384, Alt.=260.949463m. Speed=3.600000m/h.</desc>
<speed>1.000000</speed>
</trkpt>
<trkpt lat="44.613678" lon="33.738377">
<ele>262.551025</ele>
<time>2011-10-11T06:50:38Z</time>
<desc>lat.=44.613678, lon.=33.738377, Alt.=262.551025m. Speed=3.060000m/h.</desc>
<speed>0.850000</speed>
</trkpt>
<trkpt lat="44.613655" lon="33.738369">
<ele>265.715088</ele>
<time>2011-10-11T06:50:43Z</time>
<desc>lat.=44.613655, lon.=33.738369, Alt.=265.715088m. Speed=2.556000m/h.</desc>
<speed>0.710000</speed>
</trkpt>
<trkpt lat="44.613621" lon="33.738400">
<ele>268.340088</ele>
<time>2011-10-11T06:50:48Z</time>
<desc>lat.=44.613621, lon.=33.738400, Alt.=268.340088m. Speed=3.744000m/h.</desc>
<speed>1.040000</speed>
</trkpt>
<trkpt lat="44.613586" lon="33.738438">
<ele>268.879150</ele>
<time>2011-10-11T06:50:53Z</time>
<desc>lat.=44.613586, lon.=33.738438, Alt.=268.879150m. Speed=2.052000m/h.</desc>
<speed>0.570000</speed>
</trkpt>
<trkpt lat="44.613548" lon="33.738449">
<ele>270.097900</ele>
<time>2011-10-11T06:50:58Z</time>
<desc>lat.=44.613548, lon.=33.738449, Alt.=270.097900m. Speed=2.772000m/h.</desc>
<speed>0.770000</speed>
</trkpt>
<trkpt lat="44.613514" lon="33.738461">
<ele>271.097900</ele>
<time>2011-10-11T06:51:03Z</time>
<desc>lat.=44.613514, lon.=33.738461, Alt.=271.097900m. Speed=2.880000m/h.</desc>
<speed>0.800000</speed>
</trkpt>
<trkpt lat="44.613476" lon="33.738464">
<ele>271.176025</ele>
<time>2011-10-11T06:51:08Z</time>
<desc>lat.=44.613476, lon.=33.738464, Alt.=271.176025m. Speed=1.764000m/h.</desc>
<speed>0.490000</speed>
</trkpt>
<trkpt lat="44.613445" lon="33.738487">
<ele>271.488525</ele>
<time>2011-10-11T06:51:13Z</time>
<desc>lat.=44.613445, lon.=33.738487, Alt.=271.488525m. Speed=3.132000m/h.</desc>
<speed>0.870000</speed>
</trkpt>
<trkpt lat="44.613411" lon="33.738503">
<ele>272.097900</ele>
<time>2011-10-11T06:51:18Z</time>
<desc>lat.=44.613411, lon.=33.738503, Alt.=272.097900m. Speed=3.204000m/h.</desc>
<speed>0.890000</speed>
</trkpt>
<trkpt lat="44.613369" lon="33.738503">
<ele>272.707275</ele>
<time>2011-10-11T06:51:23Z</time>
<desc>lat.=44.613369, lon.=33.738503, Alt.=272.707275m. Speed=3.456000m/h.</desc>
<speed>0.960000</speed>
</trkpt>
<trkpt lat="44.613327" lon="33.738514">
<ele>273.879150</ele>
<time>2011-10-11T06:51:28Z</time>
<desc>lat.=44.613327, lon.=33.738514, Alt.=273.879150m. Speed=3.924000m/h.</desc>
<speed>1.090000</speed>
</trkpt>
<trkpt lat="44.613281" lon="33.738529">
<ele>275.230713</ele>
<time>2011-10-11T06:51:33Z</time>
<desc>lat.=44.613281, lon.=33.738529, Alt.=275.230713m. Speed=3.420000m/h.</desc>
<speed>0.950000</speed>
</trkpt>
<trkpt lat="44.613247" lon="33.738533">
<ele>276.386963</ele>
<time>2011-10-11T06:51:38Z</time>
<desc>lat.=44.613247, lon.=33.738533, Alt.=276.386963m. Speed=2.628000m/h.</desc>
<speed>0.730000</speed>
</trkpt>
<trkpt lat="44.613216" lon="33.738525">
<ele>276.082275</ele>
<time>2011-10-11T06:51:43Z</time>
<desc>lat.=44.613216, lon.=33.738525, Alt.=276.082275m. Speed=1.440000m/h.</desc>
<speed>0.400000</speed>
</trkpt>
<trkpt lat="44.613186" lon="33.738544">
<ele>277.308838</ele>
<time>2011-10-11T06:51:48Z</time>
<desc>lat.=44.613186, lon.=33.738544, Alt.=277.308838m. Speed=1.296000m/h.</desc>
<speed>0.360000</speed>
</trkpt>
<trkpt lat="44.613167" lon="33.738590">
<ele>278.918213</ele>
<time>2011-10-11T06:51:53Z</time>
<desc>lat.=44.613167, lon.=33.738590, Alt.=278.918213m. Speed=2.664000m/h.</desc>
<speed>0.740000</speed>
</trkpt>
<trkpt lat="44.613144" lon="33.738640">
<ele>280.691650</ele>
<time>2011-10-11T06:51:58Z</time>
<desc>lat.=44.613144, lon.=33.738640, Alt.=280.691650m. Speed=1.980000m/h.</desc>
<speed>0.550000</speed>
</trkpt>
<trkpt lat="44.613102" lon="33.738644">
<ele>281.824463</ele>
<time>2011-10-11T06:52:03Z</time>
<desc>lat.=44.613102, lon.=33.738644, Alt.=281.824463m. Speed=3.600000m/h.</desc>
<speed>1.000000</speed>
</trkpt>
<trkpt lat="44.613064" lon="33.738670">
<ele>283.410400</ele>
<time>2011-10-11T06:52:08Z</time>
<desc>lat.=44.613064, lon.=33.738670, Alt.=283.410400m. Speed=3.564000m/h.</desc>
<speed>0.990000</speed>
</trkpt>
<trkpt lat="44.613022" lon="33.738712">
<ele>285.449463</ele>
<time>2011-10-11T06:52:13Z</time>
<desc>lat.=44.613022, lon.=33.738712, Alt.=285.449463m. Speed=4.176000m/h.</desc>
<speed>1.160000</speed>
</trkpt>
<trkpt lat="44.612976" lon="33.738731">
<ele>287.230713</ele>
<time>2011-10-11T06:52:18Z</time>
<desc>lat.=44.612976, lon.=33.738731, Alt.=287.230713m. Speed=3.096000m/h.</desc>
<speed>0.860000</speed>
</trkpt>
<trkpt lat="44.612949" lon="33.738789">
<ele>288.043213</ele>
<time>2011-10-11T06:52:23Z</time>
<desc>lat.=44.612949, lon.=33.738789, Alt.=288.043213m. Speed=3.240000m/h.</desc>
<speed>0.900000</speed>
</trkpt>
<trkpt lat="44.612900" lon="33.738781">
<ele>288.644775</ele>
<time>2011-10-11T06:52:28Z</time>
<desc>lat.=44.612900, lon.=33.738781, Alt.=288.644775m. Speed=1.980000m/h.</desc>
<speed>0.550000</speed>
</trkpt>
<trkpt lat="44.612869" lon="33.738781">
<ele>290.238525</ele>
<time>2011-10-11T06:52:33Z</time>
<desc>lat.=44.612869, lon.=33.738781, Alt.=290.238525m. Speed=2.016000m/h.</desc>
<speed>0.560000</speed>
</trkpt>
<trkpt lat="44.612812" lon="33.738811">
<ele>291.597900</ele>
<time>2011-10-11T06:52:38Z</time>
<desc>lat.=44.612812, lon.=33.738811, Alt.=291.597900m. Speed=4.860000m/h.</desc>
<speed>1.350000</speed>
</trkpt>
<trkpt lat="44.612755" lon="33.738865">
<ele>292.152588</ele>
<time>2011-10-11T06:52:43Z</time>
<desc>lat.=44.612755, lon.=33.738865, Alt.=292.152588m. Speed=3.888000m/h.</desc>
<speed>1.080000</speed>
</trkpt>
<trkpt lat="44.612705" lon="33.738911">
<ele>292.980713</ele>
<time>2011-10-11T06:52:48Z</time>
<desc>lat.=44.612705, lon.=33.738911, Alt.=292.980713m. Speed=5.112000m/h.</desc>
<speed>1.420000</speed>
</trkpt>
<trkpt lat="44.612663" lon="33.738983">
<ele>292.308838</ele>
<time>2011-10-11T06:52:53Z</time>
<desc>lat.=44.612663, lon.=33.738983, Alt.=292.308838m. Speed=5.652000m/h.</desc>
<speed>1.570000</speed>
</trkpt>
<trkpt lat="44.612614" lon="33.739044">
<ele>293.808838</ele>
<time>2011-10-11T06:52:58Z</time>
<desc>lat.=44.612614, lon.=33.739044, Alt.=293.808838m. Speed=6.552000m/h.</desc>
<speed>1.820000</speed>
</trkpt>
<trkpt lat="44.612568" lon="33.739094">
<ele>295.574463</ele>
<time>2011-10-11T06:53:03Z</time>
<desc>lat.=44.612568, lon.=33.739094, Alt.=295.574463m. Speed=5.832000m/h.</desc>
<speed>1.620000</speed>
</trkpt>
<trkpt lat="44.612518" lon="33.739101">
<ele>297.160400</ele>
<time>2011-10-11T06:53:08Z</time>
<desc>lat.=44.612518, lon.=33.739101, Alt.=297.160400m. Speed=4.212000m/h.</desc>
<speed>1.170000</speed>
</trkpt>
<trkpt lat="44.612446" lon="33.739098">
<ele>297.457275</ele>
<time>2011-10-11T06:53:13Z</time>
<desc>lat.=44.612446, lon.=33.739098, Alt.=297.457275m. Speed=4.896000m/h.</desc>
<speed>1.360000</speed>
</trkpt>
<trkpt lat="44.612392" lon="33.739113">
<ele>298.324463</ele>
<time>2011-10-11T06:53:18Z</time>
<desc>lat.=44.612392, lon.=33.739113, Alt.=298.324463m. Speed=3.564000m/h.</desc>
<speed>0.990000</speed>
</trkpt>
<trkpt lat="44.612343" lon="33.739113">
<ele>299.832275</ele>
<time>2011-10-11T06:53:23Z</time>
<desc>lat.=44.612343, lon.=33.739113, Alt.=299.832275m. Speed=4.068000m/h.</desc>
<speed>1.130000</speed>
</trkpt>
<trkpt lat="44.612286" lon="33.739094">
<ele>299.551025</ele>
<time>2011-10-11T06:53:28Z</time>
<desc>lat.=44.612286, lon.=33.739094, Alt.=299.551025m. Speed=3.672000m/h.</desc>
<speed>1.020000</speed>
</trkpt>
<trkpt lat="44.612282" lon="33.739117">
<ele>298.902588</ele>
<time>2011-10-11T06:53:33Z</time>
<desc>lat.=44.612282, lon.=33.739117, Alt.=298.902588m. Speed=1.872000m/h.</desc>
<speed>0.520000</speed>
</trkpt>
<trkpt lat="44.612259" lon="33.739132">
<ele>299.910400</ele>
<time>2011-10-11T06:53:38Z</time>
<desc>lat.=44.612259, lon.=33.739132, Alt.=299.910400m. Speed=1.260000m/h.</desc>
<speed>0.350000</speed>
</trkpt>
<trkpt lat="44.612221" lon="33.739166">
<ele>299.824463</ele>
<time>2011-10-11T06:53:43Z</time>
<desc>lat.=44.612221, lon.=33.739166, Alt.=299.824463m. Speed=4.392000m/h.</desc>
<speed>1.220000</speed>
</trkpt>
<trkpt lat="44.612179" lon="33.739223">
<ele>301.488525</ele>
<time>2011-10-11T06:53:48Z</time>
<desc>lat.=44.612179, lon.=33.739223, Alt.=301.488525m. Speed=4.464000m/h.</desc>
<speed>1.240000</speed>
</trkpt>
<trkpt lat="44.612129" lon="33.739235">
<ele>303.230713</ele>
<time>2011-10-11T06:53:53Z</time>
<desc>lat.=44.612129, lon.=33.739235, Alt.=303.230713m. Speed=2.520000m/h.</desc>
<speed>0.700000</speed>
</trkpt>
<trkpt lat="44.612122" lon="33.739269">
<ele>303.996338</ele>
<time>2011-10-11T06:53:58Z</time>
<desc>lat.=44.612122, lon.=33.739269, Alt.=303.996338m. Speed=2.304000m/h.</desc>
<speed>0.640000</speed>
</trkpt>
<trkpt lat="44.612068" lon="33.739296">
<ele>302.652588</ele>
<time>2011-10-11T06:54:03Z</time>
<desc>lat.=44.612068, lon.=33.739296, Alt.=302.652588m. Speed=4.464000m/h.</desc>
<speed>1.240000</speed>
</trkpt>
<trkpt lat="44.612011" lon="33.739357">
<ele>302.808838</ele>
<time>2011-10-11T06:54:08Z</time>
<desc>lat.=44.612011, lon.=33.739357, Alt.=302.808838m. Speed=4.464000m/h.</desc>
<speed>1.240000</speed>
</trkpt>
<trkpt lat="44.611965" lon="33.739418">
<ele>302.511963</ele>
<time>2011-10-11T06:54:13Z</time>
<desc>lat.=44.611965, lon.=33.739418, Alt.=302.511963m. Speed=4.104000m/h.</desc>
<speed>1.140000</speed>
</trkpt>
<trkpt lat="44.611916" lon="33.739460">
<ele>301.511963</ele>
<time>2011-10-11T06:54:18Z</time>
<desc>lat.=44.611916, lon.=33.739460, Alt.=301.511963m. Speed=3.744000m/h.</desc>
<speed>1.040000</speed>
</trkpt>
<trkpt lat="44.611870" lon="33.739510">
<ele>302.019775</ele>
<time>2011-10-11T06:54:23Z</time>
<desc>lat.=44.611870, lon.=33.739510, Alt.=302.019775m. Speed=5.292000m/h.</desc>
<speed>1.470000</speed>
</trkpt>
<trkpt lat="44.611870" lon="33.739605">
<ele>303.199463</ele>
<time>2011-10-11T06:54:28Z</time>
<desc>lat.=44.611870, lon.=33.739605, Alt.=303.199463m. Speed=3.456000m/h.</desc>
<speed>0.960000</speed>
</trkpt>
<trkpt lat="44.611858" lon="33.739643">
<ele>303.613525</ele>
<time>2011-10-11T06:54:33Z</time>
<desc>lat.=44.611858, lon.=33.739643, Alt.=303.613525m. Speed=2.340000m/h.</desc>
<speed>0.650000</speed>
</trkpt>
<trkpt lat="44.611813" lon="33.739731">
<ele>303.402588</ele>
<time>2011-10-11T06:54:38Z</time>
<desc>lat.=44.611813, lon.=33.739731, Alt.=303.402588m. Speed=3.636000m/h.</desc>
<speed>1.010000</speed>
</trkpt>
<trkpt lat="44.611774" lon="33.739803">
<ele>302.418213</ele>
<time>2011-10-11T06:54:43Z</time>
<desc>lat.=44.611774, lon.=33.739803, Alt.=302.418213m. Speed=2.736000m/h.</desc>
<speed>0.760000</speed>
</trkpt>
<trkpt lat="44.611748" lon="33.739849">
<ele>301.761963</ele>
<time>2011-10-11T06:54:48Z</time>
<desc>lat.=44.611748, lon.=33.739849, Alt.=301.761963m. Speed=3.744000m/h.</desc>
<speed>1.040000</speed>
</trkpt>
<trkpt lat="44.611717" lon="33.739983">
<ele>299.777588</ele>
<time>2011-10-11T06:54:53Z</time>
<desc>lat.=44.611717, lon.=33.739983, Alt.=299.777588m. Speed=5.220000m/h.</desc>
<speed>1.450000</speed>
</trkpt>
<trkpt lat="44.611694" lon="33.740078">
<ele>299.191650</ele>
<time>2011-10-11T06:54:58Z</time>
<desc>lat.=44.611694, lon.=33.740078, Alt.=299.191650m. Speed=5.112000m/h.</desc>
<speed>1.420000</speed>
</trkpt>
<trkpt lat="44.611633" lon="33.740124">
<ele>299.191650</ele>
<time>2011-10-11T06:55:03Z</time>
<desc>lat.=44.611633, lon.=33.740124, Alt.=299.191650m. Speed=2.052000m/h.</desc>
<speed>0.570000</speed>
</trkpt>
<trkpt lat="44.611607" lon="33.740150">
<ele>298.707275</ele>
<time>2011-10-11T06:55:08Z</time>
<desc>lat.=44.611607, lon.=33.740150, Alt.=298.707275m. Speed=5.328000m/h.</desc>
<speed>1.480000</speed>
</trkpt>
<trkpt lat="44.611572" lon="33.740219">
<ele>298.543213</ele>
<time>2011-10-11T06:55:13Z</time>
<desc>lat.=44.611572, lon.=33.740219, Alt.=298.543213m. Speed=3.672000m/h.</desc>
<speed>1.020000</speed>
</trkpt>
<trkpt lat="44.611504" lon="33.740234">
<ele>298.582275</ele>
<time>2011-10-11T06:55:18Z</time>
<desc>lat.=44.611504, lon.=33.740234, Alt.=298.582275m. Speed=4.716000m/h.</desc>
<speed>1.310000</speed>
</trkpt>
<trkpt lat="44.611488" lon="33.740253">
<ele>298.004150</ele>
<time>2011-10-11T06:55:23Z</time>
<desc>lat.=44.611488, lon.=33.740253, Alt.=298.004150m. Speed=1.188000m/h.</desc>
<speed>0.330000</speed>
</trkpt>
<trkpt lat="44.611492" lon="33.740261">
<ele>297.754150</ele>
<time>2011-10-11T06:55:28Z</time>
<desc>lat.=44.611492, lon.=33.740261, Alt.=297.754150m. Speed=0.756000m/h.</desc>
<speed>0.210000</speed>
</trkpt>
<trkpt lat="44.611492" lon="33.740303">
<ele>297.433838</ele>
<time>2011-10-11T06:55:33Z</time>
<desc>lat.=44.611492, lon.=33.740303, Alt.=297.433838m. Speed=2.592000m/h.</desc>
<speed>0.720000</speed>
</trkpt>
<trkpt lat="44.611477" lon="33.740311">
<ele>296.957275</ele>
<time>2011-10-11T06:55:38Z</time>
<desc>lat.=44.611477, lon.=33.740311, Alt.=296.957275m. Speed=0.360000m/h.</desc>
<speed>0.100000</speed>
</trkpt>
<trkpt lat="44.611469" lon="33.740322">
<ele>296.613525</ele>
<time>2011-10-11T06:55:43Z</time>
<desc>lat.=44.611469, lon.=33.740322, Alt.=296.613525m. Speed=0.360000m/h.</desc>
<speed>0.100000</speed>
</trkpt>
<trkpt lat="44.611462" lon="33.740334">
<ele>296.496338</ele>
<time>2011-10-11T06:55:48Z</time>
<desc>lat.=44.611462, lon.=33.740334, Alt.=296.496338m. Speed=0.936000m/h.</desc>
<speed>0.260000</speed>
</trkpt>
<trkpt lat="44.611462" lon="33.740330">
<ele>296.246338</ele>
<time>2011-10-11T06:55:53Z</time>
<desc>lat.=44.611462, lon.=33.740330, Alt.=296.246338m. Speed=2.232000m/h.</desc>
<speed>0.620000</speed>
</trkpt>
<trkpt lat="44.611446" lon="33.740341">
<ele>295.722900</ele>
<time>2011-10-11T06:55:58Z</time>
<desc>lat.=44.611446, lon.=33.740341, Alt.=295.722900m. Speed=1.548000m/h.</desc>
<speed>0.430000</speed>
</trkpt>
<trkpt lat="44.611454" lon="33.740360">
<ele>294.965088</ele>
<time>2011-10-11T06:56:03Z</time>
<desc>lat.=44.611454, lon.=33.740360, Alt.=294.965088m. Speed=0.144000m/h.</desc>
<speed>0.040000</speed>
</trkpt>
<trkpt lat="44.611458" lon="33.740368">
<ele>294.199463</ele>
<time>2011-10-11T06:56:08Z</time>
<desc>lat.=44.611458, lon.=33.740368, Alt.=294.199463m. Speed=0.360000m/h.</desc>
<speed>0.100000</speed>
</trkpt>
<trkpt lat="44.611454" lon="33.740368">
<ele>293.886963</ele>
<time>2011-10-11T06:56:13Z</time>
<desc>lat.=44.611454, lon.=33.740368, Alt.=293.886963m. Speed=1.152000m/h.</desc>
<speed>0.320000</speed>
</trkpt>
<trkpt lat="44.611446" lon="33.740372">
<ele>293.613525</ele>
<time>2011-10-11T06:56:18Z</time>
<desc>lat.=44.611446, lon.=33.740372, Alt.=293.613525m. Speed=0.576000m/h.</desc>
<speed>0.160000</speed>
</trkpt>
<trkpt lat="44.611443" lon="33.740383">
<ele>293.183838</ele>
<time>2011-10-11T06:56:23Z</time>
<desc>lat.=44.611443, lon.=33.740383, Alt.=293.183838m. Speed=1.008000m/h.</desc>
<speed>0.280000</speed>
</trkpt>
<trkpt lat="44.611443" lon="33.740391">
<ele>293.144775</ele>
<time>2011-10-11T06:56:28Z</time>
<desc>lat.=44.611443, lon.=33.740391, Alt.=293.144775m. Speed=0.216000m/h.</desc>
<speed>0.060000</speed>
</trkpt>
<trkpt lat="44.611446" lon="33.740387">
<ele>293.074463</ele>
<time>2011-10-11T06:56:33Z</time>
<desc>lat.=44.611446, lon.=33.740387, Alt.=293.074463m. Speed=0.432000m/h.</desc>
<speed>0.120000</speed>
</trkpt>
<trkpt lat="44.611454" lon="33.740383">
<ele>293.011963</ele>
<time>2011-10-11T06:56:38Z</time>
<desc>lat.=44.611454, lon.=33.740383, Alt.=293.011963m. Speed=0.360000m/h.</desc>
<speed>0.100000</speed>
</trkpt>
<trkpt lat="44.611458" lon="33.740379">
<ele>292.824463</ele>
<time>2011-10-11T06:56:43Z</time>
<desc>lat.=44.611458, lon.=33.740379, Alt.=292.824463m. Speed=0.072000m/h.</desc>
<speed>0.020000</speed>
</trkpt>
<trkpt lat="44.611462" lon="33.740364">
<ele>293.027588</ele>
<time>2011-10-11T06:56:48Z</time>
<desc>lat.=44.611462, lon.=33.740364, Alt.=293.027588m. Speed=1.224000m/h.</desc>
<speed>0.340000</speed>
</trkpt>
<trkpt lat="44.611454" lon="33.740360">
<ele>293.269775</ele>
<time>2011-10-11T06:56:53Z</time>
<desc>lat.=44.611454, lon.=33.740360, Alt.=293.269775m. Speed=0.720000m/h.</desc>
<speed>0.200000</speed>
</trkpt>
<trkpt lat="44.611454" lon="33.740368">
<ele>293.347900</ele>
<time>2011-10-11T06:56:58Z</time>
<desc>lat.=44.611454, lon.=33.740368, Alt.=293.347900m. Speed=0.648000m/h.</desc>
<speed>0.180000</speed>
</trkpt>
<trkpt lat="44.611458" lon="33.740376">
<ele>293.410400</ele>
<time>2011-10-11T06:57:03Z</time>
<desc>lat.=44.611458, lon.=33.740376, Alt.=293.410400m. Speed=0.216000m/h.</desc>
<speed>0.060000</speed>
</trkpt>
<trkpt lat="44.611458" lon="33.740376">
<ele>293.410400</ele>
<time>2011-10-11T06:57:08Z</time>
<desc>lat.=44.611458, lon.=33.740376, Alt.=293.410400m. Speed=0.000000m/h.</desc>
<speed>0.000000</speed>
</trkpt>
<trkpt lat="44.611462" lon="33.740376">
<ele>293.363525</ele>
<time>2011-10-11T06:57:13Z</time>
<desc>lat.=44.611462, lon.=33.740376, Alt.=293.363525m. Speed=0.216000m/h.</desc>
<speed>0.060000</speed>
</trkpt>
<trkpt lat="44.611462" lon="33.740376">
<ele>293.324463</ele>
<time>2011-10-11T06:57:18Z</time>
<desc>lat.=44.611462, lon.=33.740376, Alt.=293.324463m. Speed=0.252000m/h.</desc>
<speed>0.070000</speed>
</trkpt>
<trkpt lat="44.611462" lon="33.740376">
<ele>293.285400</ele>
<time>2011-10-11T06:57:23Z</time>
<desc>lat.=44.611462, lon.=33.740376, Alt.=293.285400m. Speed=0.216000m/h.</desc>
<speed>0.060000</speed>
</trkpt>
<trkpt lat="44.611462" lon="33.740368">
<ele>293.238525</ele>
<time>2011-10-11T06:57:28Z</time>
<desc>lat.=44.611462, lon.=33.740368, Alt.=293.238525m. Speed=0.252000m/h.</desc>
<speed>0.070000</speed>
</trkpt>
<trkpt lat="44.611462" lon="33.740360">
<ele>292.840088</ele>
<time>2011-10-11T06:57:33Z</time>
<desc>lat.=44.611462, lon.=33.740360, Alt.=292.840088m. Speed=0.000000m/h.</desc>
<speed>0.000000</speed>
</trkpt>
<trkpt lat="44.611458" lon="33.740364">
<ele>292.558838</ele>
<time>2011-10-11T06:57:38Z</time>
<desc>lat.=44.611458, lon.=33.740364, Alt.=292.558838m. Speed=0.072000m/h.</desc>
<speed>0.020000</speed>
</trkpt>
<trkpt lat="44.611458" lon="33.740368">
<ele>292.019775</ele>
<time>2011-10-11T06:57:43Z</time>
<desc>lat.=44.611458, lon.=33.740368, Alt.=292.019775m. Speed=0.000000m/h.</desc>
<speed>0.000000</speed>
</trkpt>
<trkpt lat="44.611458" lon="33.740360">
<ele>291.886963</ele>
<time>2011-10-11T06:57:48Z</time>
<desc>lat.=44.611458, lon.=33.740360, Alt.=291.886963m. Speed=0.000000m/h.</desc>
<speed>0.000000</speed>
</trkpt>
<trkpt lat="44.611458" lon="33.740345">
<ele>291.230713</ele>
<time>2011-10-11T06:57:53Z</time>
<desc>lat.=44.611458, lon.=33.740345, Alt.=291.230713m. Speed=0.036000m/h.</desc>
<speed>0.010000</speed>
</trkpt>
<trkpt lat="44.611458" lon="33.740364">
<ele>290.254150</ele>
<time>2011-10-11T06:57:58Z</time>
<desc>lat.=44.611458, lon.=33.740364, Alt.=290.254150m. Speed=0.036000m/h.</desc>
<speed>0.010000</speed>
</trkpt>
<trkpt lat="44.611458" lon="33.740376">
<ele>289.965088</ele>
<time>2011-10-11T06:58:03Z</time>
<desc>lat.=44.611458, lon.=33.740376, Alt.=289.965088m. Speed=0.108000m/h.</desc>
<speed>0.030000</speed>
</trkpt>
<trkpt lat="44.611458" lon="33.740376">
<ele>289.472900</ele>
<time>2011-10-11T06:58:08Z</time>
<desc>lat.=44.611458, lon.=33.740376, Alt.=289.472900m. Speed=0.144000m/h.</desc>
<speed>0.040000</speed>
</trkpt>
<trkpt lat="44.611458" lon="33.740368">
<ele>288.777588</ele>
<time>2011-10-11T06:58:13Z</time>
<desc>lat.=44.611458, lon.=33.740368, Alt.=288.777588m. Speed=0.288000m/h.</desc>
<speed>0.080000</speed>
</trkpt>
<trkpt lat="44.611454" lon="33.740345">
<ele>287.347900</ele>
<time>2011-10-11T06:58:18Z</time>
<desc>lat.=44.611454, lon.=33.740345, Alt.=287.347900m. Speed=0.540000m/h.</desc>
<speed>0.150000</speed>
</trkpt>
<trkpt lat="44.611469" lon="33.740322">
<ele>287.230713</ele>
<time>2011-10-11T06:58:23Z</time>
<desc>lat.=44.611469, lon.=33.740322, Alt.=287.230713m. Speed=5.364000m/h.</desc>
<speed>1.490000</speed>
</trkpt>
<trkpt lat="44.611496" lon="33.740273">
<ele>288.090088</ele>
<time>2011-10-11T06:58:28Z</time>
<desc>lat.=44.611496, lon.=33.740273, Alt.=288.090088m. Speed=4.968000m/h.</desc>
<speed>1.380000</speed>
</trkpt>
<trkpt lat="44.611485" lon="33.740211">
<ele>288.433838</ele>
<time>2011-10-11T06:58:33Z</time>
<desc>lat.=44.611485, lon.=33.740211, Alt.=288.433838m. Speed=4.500000m/h.</desc>
<speed>1.250000</speed>
</trkpt>
<trkpt lat="44.611450" lon="33.740219">
<ele>289.136963</ele>
<time>2011-10-11T06:58:38Z</time>
<desc>lat.=44.611450, lon.=33.740219, Alt.=289.136963m. Speed=1.260000m/h.</desc>
<speed>0.350000</speed>
</trkpt>
<trkpt lat="44.611401" lon="33.740189">
<ele>292.066650</ele>
<time>2011-10-11T06:58:43Z</time>
<desc>lat.=44.611401, lon.=33.740189, Alt.=292.066650m. Speed=2.808000m/h.</desc>
<speed>0.780000</speed>
</trkpt>
<trkpt lat="44.611382" lon="33.740185">
<ele>294.715088</ele>
<time>2011-10-11T06:58:48Z</time>
<desc>lat.=44.611382, lon.=33.740185, Alt.=294.715088m. Speed=1.224000m/h.</desc>
<speed>0.340000</speed>
</trkpt>
<trkpt lat="44.611382" lon="33.740181">
<ele>296.668213</ele>
<time>2011-10-11T06:58:53Z</time>
<desc>lat.=44.611382, lon.=33.740181, Alt.=296.668213m. Speed=0.828000m/h.</desc>
<speed>0.230000</speed>
</trkpt>
<trkpt lat="44.611382" lon="33.740189">
<ele>297.433838</ele>
<time>2011-10-11T06:58:58Z</time>
<desc>lat.=44.611382, lon.=33.740189, Alt.=297.433838m. Speed=0.756000m/h.</desc>
<speed>0.210000</speed>
</trkpt>
<trkpt lat="44.611370" lon="33.740196">
<ele>298.418213</ele>
<time>2011-10-11T06:59:03Z</time>
<desc>lat.=44.611370, lon.=33.740196, Alt.=298.418213m. Speed=1.332000m/h.</desc>
<speed>0.370000</speed>
</trkpt>
<trkpt lat="44.611336" lon="33.740238">
<ele>299.433838</ele>
<time>2011-10-11T06:59:08Z</time>
<desc>lat.=44.611336, lon.=33.740238, Alt.=299.433838m. Speed=1.188000m/h.</desc>
<speed>0.330000</speed>
</trkpt>
<trkpt lat="44.611343" lon="33.740276">
<ele>300.840088</ele>
<time>2011-10-11T06:59:13Z</time>
<desc>lat.=44.611343, lon.=33.740276, Alt.=300.840088m. Speed=1.044000m/h.</desc>
<speed>0.290000</speed>
</trkpt>
<trkpt lat="44.611343" lon="33.740284">
<ele>301.824463</ele>
<time>2011-10-11T06:59:18Z</time>
<desc>lat.=44.611343, lon.=33.740284, Alt.=301.824463m. Speed=0.468000m/h.</desc>
<speed>0.130000</speed>
</trkpt>
<trkpt lat="44.611347" lon="33.740295">
<ele>301.394775</ele>
<time>2011-10-11T06:59:23Z</time>
<desc>lat.=44.611347, lon.=33.740295, Alt.=301.394775m. Speed=1.152000m/h.</desc>
<speed>0.320000</speed>
</trkpt>
<trkpt lat="44.611340" lon="33.740337">
<ele>302.972900</ele>
<time>2011-10-11T06:59:28Z</time>
<desc>lat.=44.611340, lon.=33.740337, Alt.=302.972900m. Speed=2.088000m/h.</desc>
<speed>0.580000</speed>
</trkpt>
<trkpt lat="44.611282" lon="33.740376">
<ele>300.879150</ele>
<time>2011-10-11T06:59:33Z</time>
<desc>lat.=44.611282, lon.=33.740376, Alt.=300.879150m. Speed=0.828000m/h.</desc>
<speed>0.230000</speed>
</trkpt>
<trkpt lat="44.611282" lon="33.740379">
<ele>300.457275</ele>
<time>2011-10-11T06:59:38Z</time>
<desc>lat.=44.611282, lon.=33.740379, Alt.=300.457275m. Speed=0.180000m/h.</desc>
<speed>0.050000</speed>
</trkpt>
<trkpt lat="44.611282" lon="33.740379">
<ele>300.527588</ele>
<time>2011-10-11T06:59:43Z</time>
<desc>lat.=44.611282, lon.=33.740379, Alt.=300.527588m. Speed=0.216000m/h.</desc>
<speed>0.060000</speed>
</trkpt>
<trkpt lat="44.611279" lon="33.740383">
<ele>300.582275</ele>
<time>2011-10-11T06:59:48Z</time>
<desc>lat.=44.611279, lon.=33.740383, Alt.=300.582275m. Speed=0.396000m/h.</desc>
<speed>0.110000</speed>
</trkpt>
<trkpt lat="44.611275" lon="33.740383">
<ele>300.551025</ele>
<time>2011-10-11T06:59:53Z</time>
<desc>lat.=44.611275, lon.=33.740383, Alt.=300.551025m. Speed=0.144000m/h.</desc>
<speed>0.040000</speed>
</trkpt>
<trkpt lat="44.611271" lon="33.740383">
<ele>300.496338</ele>
<time>2011-10-11T06:59:58Z</time>
<desc>lat.=44.611271, lon.=33.740383, Alt.=300.496338m. Speed=0.036000m/h.</desc>
<speed>0.010000</speed>
</trkpt>
<trkpt lat="44.611271" lon="33.740383">
<ele>300.379150</ele>
<time>2011-10-11T07:00:03Z</time>
<desc>lat.=44.611271, lon.=33.740383, Alt.=300.379150m. Speed=0.180000m/h.</desc>
<speed>0.050000</speed>
</trkpt>
<trkpt lat="44.611271" lon="33.740383">
<ele>300.363525</ele>
<time>2011-10-11T07:00:08Z</time>
<desc>lat.=44.611271, lon.=33.740383, Alt.=300.363525m. Speed=0.504000m/h.</desc>
<speed>0.140000</speed>
</trkpt>
<trkpt lat="44.611271" lon="33.740383">
<ele>300.371338</ele>
<time>2011-10-11T07:00:13Z</time>
<desc>lat.=44.611271, lon.=33.740383, Alt.=300.371338m. Speed=0.000000m/h.</desc>
<speed>0.000000</speed>
</trkpt>
<trkpt lat="44.611271" lon="33.740383">
<ele>300.371338</ele>
<time>2011-10-11T07:00:18Z</time>
<desc>lat.=44.611271, lon.=33.740383, Alt.=300.371338m. Speed=0.036000m/h.</desc>
<speed>0.010000</speed>
</trkpt>
<trkpt lat="44.611275" lon="33.740383">
<ele>300.386963</ele>
<time>2011-10-11T07:00:23Z</time>
<desc>lat.=44.611275, lon.=33.740383, Alt.=300.386963m. Speed=0.000000m/h.</desc>
<speed>0.000000</speed>
</trkpt>
<trkpt lat="44.611275" lon="33.740383">
<ele>300.418213</ele>
<time>2011-10-11T07:00:28Z</time>
<desc>lat.=44.611275, lon.=33.740383, Alt.=300.418213m. Speed=0.072000m/h.</desc>
<speed>0.020000</speed>
</trkpt>
<trkpt lat="44.611275" lon="33.740383">
<ele>300.410400</ele>
<time>2011-10-11T07:00:33Z</time>
<desc>lat.=44.611275, lon.=33.740383, Alt.=300.410400m. Speed=0.036000m/h.</desc>
<speed>0.010000</speed>
</trkpt>
<trkpt lat="44.611275" lon="33.740383">
<ele>300.418213</ele>
<time>2011-10-11T07:00:38Z</time>
<desc>lat.=44.611275, lon.=33.740383, Alt.=300.418213m. Speed=0.036000m/h.</desc>
<speed>0.010000</speed>
</trkpt>
<trkpt lat="44.611271" lon="33.740383">
<ele>300.418213</ele>
<time>2011-10-11T07:00:43Z</time>
<desc>lat.=44.611271, lon.=33.740383, Alt.=300.418213m. Speed=0.468000m/h.</desc>
<speed>0.130000</speed>
</trkpt>
<trkpt lat="44.611271" lon="33.740383">
<ele>300.418213</ele>
<time>2011-10-11T07:00:48Z</time>
<desc>lat.=44.611271, lon.=33.740383, Alt.=300.418213m. Speed=0.036000m/h.</desc>
<speed>0.010000</speed>
</trkpt>
<trkpt lat="44.611271" lon="33.740383">
<ele>300.410400</ele>
<time>2011-10-11T07:00:53Z</time>
<desc>lat.=44.611271, lon.=33.740383, Alt.=300.410400m. Speed=0.216000m/h.</desc>
<speed>0.060000</speed>
</trkpt>
<trkpt lat="44.611271" lon="33.740383">
<ele>300.379150</ele>
<time>2011-10-11T07:00:58Z</time>
<desc>lat.=44.611271, lon.=33.740383, Alt.=300.379150m. Speed=0.036000m/h.</desc>
<speed>0.010000</speed>
</trkpt>
<trkpt lat="44.611271" lon="33.740383">
<ele>300.363525</ele>
<time>2011-10-11T07:01:03Z</time>
<desc>lat.=44.611271, lon.=33.740383, Alt.=300.363525m. Speed=0.180000m/h.</desc>
<speed>0.050000</speed>
</trkpt>
<trkpt lat="44.611271" lon="33.740383">
<ele>300.371338</ele>
<time>2011-10-11T07:01:08Z</time>
<desc>lat.=44.611271, lon.=33.740383, Alt.=300.371338m. Speed=0.288000m/h.</desc>
<speed>0.080000</speed>
</trkpt>
<trkpt lat="44.611271" lon="33.740383">
<ele>300.402588</ele>
<time>2011-10-11T07:01:13Z</time>
<desc>lat.=44.611271, lon.=33.740383, Alt.=300.402588m. Speed=0.072000m/h.</desc>
<speed>0.020000</speed>
</trkpt>
<trkpt lat="44.611271" lon="33.740383">
<ele>300.410400</ele>
<time>2011-10-11T07:01:18Z</time>
<desc>lat.=44.611271, lon.=33.740383, Alt.=300.410400m. Speed=0.036000m/h.</desc>
<speed>0.010000</speed>
</trkpt>
<trkpt lat="44.611271" lon="33.740383">
<ele>300.418213</ele>
<time>2011-10-11T07:01:23Z</time>
<desc>lat.=44.611271, lon.=33.740383, Alt.=300.418213m. Speed=0.072000m/h.</desc>
<speed>0.020000</speed>
</trkpt>
<trkpt lat="44.611271" lon="33.740387">
<ele>300.426025</ele>
<time>2011-10-11T07:01:28Z</time>
<desc>lat.=44.611271, lon.=33.740387, Alt.=300.426025m. Speed=0.108000m/h.</desc>
<speed>0.030000</speed>
</trkpt>
<trkpt lat="44.611271" lon="33.740387">
<ele>300.418213</ele>
<time>2011-10-11T07:01:33Z</time>
<desc>lat.=44.611271, lon.=33.740387, Alt.=300.418213m. Speed=0.324000m/h.</desc>
<speed>0.090000</speed>
</trkpt>
<trkpt lat="44.611267" lon="33.740387">
<ele>300.433838</ele>
<time>2011-10-11T07:01:38Z</time>
<desc>lat.=44.611267, lon.=33.740387, Alt.=300.433838m. Speed=0.612000m/h.</desc>
<speed>0.170000</speed>
</trkpt>
<trkpt lat="44.611248" lon="33.740395">
<ele>300.769775</ele>
<time>2011-10-11T07:01:43Z</time>
<desc>lat.=44.611248, lon.=33.740395, Alt.=300.769775m. Speed=2.772000m/h.</desc>
<speed>0.770000</speed>
</trkpt>
<trkpt lat="44.611202" lon="33.740433">
<ele>302.152588</ele>
<time>2011-10-11T07:01:48Z</time>
<desc>lat.=44.611202, lon.=33.740433, Alt.=302.152588m. Speed=3.816000m/h.</desc>
<speed>1.060000</speed>
</trkpt>
<trkpt lat="44.611130" lon="33.740444">
<ele>302.058838</ele>
<time>2011-10-11T07:01:53Z</time>
<desc>lat.=44.611130, lon.=33.740444, Alt.=302.058838m. Speed=4.140000m/h.</desc>
<speed>1.150000</speed>
</trkpt>
<trkpt lat="44.611038" lon="33.740471">
<ele>300.644775</ele>
<time>2011-10-11T07:01:58Z</time>
<desc>lat.=44.611038, lon.=33.740471, Alt.=300.644775m. Speed=3.888000m/h.</desc>
<speed>1.080000</speed>
</trkpt>
<trkpt lat="44.610981" lon="33.740520">
<ele>298.699463</ele>
<time>2011-10-11T07:02:03Z</time>
<desc>lat.=44.610981, lon.=33.740520, Alt.=298.699463m. Speed=2.808000m/h.</desc>
<speed>0.780000</speed>
</trkpt>
<trkpt lat="44.610962" lon="33.740543">
<ele>299.676025</ele>
<time>2011-10-11T07:02:08Z</time>
<desc>lat.=44.610962, lon.=33.740543, Alt.=299.676025m. Speed=2.376000m/h.</desc>
<speed>0.660000</speed>
</trkpt>
<trkpt lat="44.610939" lon="33.740578">
<ele>298.551025</ele>
<time>2011-10-11T07:02:13Z</time>
<desc>lat.=44.610939, lon.=33.740578, Alt.=298.551025m. Speed=2.664000m/h.</desc>
<speed>0.740000</speed>
</trkpt>
<trkpt lat="44.610920" lon="33.740574">
<ele>297.465088</ele>
<time>2011-10-11T07:02:18Z</time>
<desc>lat.=44.610920, lon.=33.740574, Alt.=297.465088m. Speed=3.600000m/h.</desc>
<speed>1.000000</speed>
</trkpt>
<trkpt lat="44.610912" lon="33.740574">
<ele>296.457275</ele>
<time>2011-10-11T07:02:23Z</time>
<desc>lat.=44.610912, lon.=33.740574, Alt.=296.457275m. Speed=0.180000m/h.</desc>
<speed>0.050000</speed>
</trkpt>
<trkpt lat="44.610912" lon="33.740578">
<ele>295.949463</ele>
<time>2011-10-11T07:02:28Z</time>
<desc>lat.=44.610912, lon.=33.740578, Alt.=295.949463m. Speed=0.288000m/h.</desc>
<speed>0.080000</speed>
</trkpt>
<trkpt lat="44.610920" lon="33.740578">
<ele>295.722900</ele>
<time>2011-10-11T07:02:33Z</time>
<desc>lat.=44.610920, lon.=33.740578, Alt.=295.722900m. Speed=1.476000m/h.</desc>
<speed>0.410000</speed>
</trkpt>
<trkpt lat="44.610924" lon="33.740566">
<ele>295.496338</ele>
<time>2011-10-11T07:02:38Z</time>
<desc>lat.=44.610924, lon.=33.740566, Alt.=295.496338m. Speed=0.900000m/h.</desc>
<speed>0.250000</speed>
</trkpt>
<trkpt lat="44.610928" lon="33.740562">
<ele>295.230713</ele>
<time>2011-10-11T07:02:43Z</time>
<desc>lat.=44.610928, lon.=33.740562, Alt.=295.230713m. Speed=0.468000m/h.</desc>
<speed>0.130000</speed>
</trkpt>
<trkpt lat="44.610931" lon="33.740562">
<ele>294.949463</ele>
<time>2011-10-11T07:02:48Z</time>
<desc>lat.=44.610931, lon.=33.740562, Alt.=294.949463m. Speed=0.072000m/h.</desc>
<speed>0.020000</speed>
</trkpt>
<trkpt lat="44.610931" lon="33.740566">
<ele>294.676025</ele>
<time>2011-10-11T07:02:53Z</time>
<desc>lat.=44.610931, lon.=33.740566, Alt.=294.676025m. Speed=0.792000m/h.</desc>
<speed>0.220000</speed>
</trkpt>
<trkpt lat="44.610931" lon="33.740578">
<ele>294.394775</ele>
<time>2011-10-11T07:02:58Z</time>
<desc>lat.=44.610931, lon.=33.740578, Alt.=294.394775m. Speed=0.540000m/h.</desc>
<speed>0.150000</speed>
</trkpt>
<trkpt lat="44.610928" lon="33.740589">
<ele>294.113525</ele>
<time>2011-10-11T07:03:03Z</time>
<desc>lat.=44.610928, lon.=33.740589, Alt.=294.113525m. Speed=0.540000m/h.</desc>
<speed>0.150000</speed>
</trkpt>
<trkpt lat="44.610920" lon="33.740597">
<ele>293.840088</ele>
<time>2011-10-11T07:03:08Z</time>
<desc>lat.=44.610920, lon.=33.740597, Alt.=293.840088m. Speed=0.540000m/h.</desc>
<speed>0.150000</speed>
</trkpt>
<trkpt lat="44.610916" lon="33.740604">
<ele>293.574463</ele>
<time>2011-10-11T07:03:13Z</time>
<desc>lat.=44.610916, lon.=33.740604, Alt.=293.574463m. Speed=0.108000m/h.</desc>
<speed>0.030000</speed>
</trkpt>
<trkpt lat="44.610916" lon="33.740601">
<ele>293.301025</ele>
<time>2011-10-11T07:03:18Z</time>
<desc>lat.=44.610916, lon.=33.740601, Alt.=293.301025m. Speed=0.360000m/h.</desc>
<speed>0.100000</speed>
</trkpt>
<trkpt lat="44.610920" lon="33.740601">
<ele>293.035400</ele>
<time>2011-10-11T07:03:23Z</time>
<desc>lat.=44.610920, lon.=33.740601, Alt.=293.035400m. Speed=0.288000m/h.</desc>
<speed>0.080000</speed>
</trkpt>
<trkpt lat="44.610920" lon="33.740601">
<ele>292.980713</ele>
<time>2011-10-11T07:03:28Z</time>
<desc>lat.=44.610920, lon.=33.740601, Alt.=292.980713m. Speed=0.144000m/h.</desc>
<speed>0.040000</speed>
</trkpt>
<trkpt lat="44.610920" lon="33.740601">
<ele>292.980713</ele>
<time>2011-10-11T07:03:33Z</time>
<desc>lat.=44.610920, lon.=33.740601, Alt.=292.980713m. Speed=0.036000m/h.</desc>
<speed>0.010000</speed>
</trkpt>
<trkpt lat="44.610920" lon="33.740601">
<ele>292.972900</ele>
<time>2011-10-11T07:03:38Z</time>
<desc>lat.=44.610920, lon.=33.740601, Alt.=292.972900m. Speed=0.108000m/h.</desc>
<speed>0.030000</speed>
</trkpt>
<trkpt lat="44.610920" lon="33.740601">
<ele>292.965088</ele>
<time>2011-10-11T07:03:43Z</time>
<desc>lat.=44.610920, lon.=33.740601, Alt.=292.965088m. Speed=0.000000m/h.</desc>
<speed>0.000000</speed>
</trkpt>
<trkpt lat="44.610920" lon="33.740589">
<ele>292.527588</ele>
<time>2011-10-11T07:03:48Z</time>
<desc>lat.=44.610920, lon.=33.740589, Alt.=292.527588m. Speed=0.000000m/h.</desc>
<speed>0.000000</speed>
</trkpt>
<trkpt lat="44.610931" lon="33.740589">
<ele>292.347900</ele>
<time>2011-10-11T07:03:53Z</time>
<desc>lat.=44.610931, lon.=33.740589, Alt.=292.347900m. Speed=0.144000m/h.</desc>
<speed>0.040000</speed>
</trkpt>
<trkpt lat="44.610939" lon="33.740582">
<ele>291.941650</ele>
<time>2011-10-11T07:03:58Z</time>
<desc>lat.=44.610939, lon.=33.740582, Alt.=291.941650m. Speed=0.720000m/h.</desc>
<speed>0.200000</speed>
</trkpt>
<trkpt lat="44.610939" lon="33.740574">
<ele>291.746338</ele>
<time>2011-10-11T07:04:03Z</time>
<desc>lat.=44.610939, lon.=33.740574, Alt.=291.746338m. Speed=0.252000m/h.</desc>
<speed>0.070000</speed>
</trkpt>
<trkpt lat="44.610950" lon="33.740574">
<ele>291.074463</ele>
<time>2011-10-11T07:04:08Z</time>
<desc>lat.=44.610950, lon.=33.740574, Alt.=291.074463m. Speed=0.288000m/h.</desc>
<speed>0.080000</speed>
</trkpt>
<trkpt lat="44.610954" lon="33.740574">
<ele>290.902588</ele>
<time>2011-10-11T07:04:13Z</time>
<desc>lat.=44.610954, lon.=33.740574, Alt.=290.902588m. Speed=0.216000m/h.</desc>
<speed>0.060000</speed>
</trkpt>
<trkpt lat="44.610958" lon="33.740574">
<ele>290.308838</ele>
<time>2011-10-11T07:04:18Z</time>
<desc>lat.=44.610958, lon.=33.740574, Alt.=290.308838m. Speed=0.000000m/h.</desc>
<speed>0.000000</speed>
</trkpt>
<trkpt lat="44.610966" lon="33.740574">
<ele>289.871338</ele>
<time>2011-10-11T07:04:23Z</time>
<desc>lat.=44.610966, lon.=33.740574, Alt.=289.871338m. Speed=0.036000m/h.</desc>
<speed>0.010000</speed>
</trkpt>
<trkpt lat="44.610966" lon="33.740574">
<ele>289.730713</ele>
<time>2011-10-11T07:04:28Z</time>
<desc>lat.=44.610966, lon.=33.740574, Alt.=289.730713m. Speed=0.000000m/h.</desc>
<speed>0.000000</speed>
</trkpt>
<trkpt lat="44.610966" lon="33.740574">
<ele>289.527588</ele>
<time>2011-10-11T07:04:33Z</time>
<desc>lat.=44.610966, lon.=33.740574, Alt.=289.527588m. Speed=0.000000m/h.</desc>
<speed>0.000000</speed>
</trkpt>
<trkpt lat="44.610966" lon="33.740574">
<ele>289.261963</ele>
<time>2011-10-11T07:04:38Z</time>
<desc>lat.=44.610966, lon.=33.740574, Alt.=289.261963m. Speed=0.000000m/h.</desc>
<speed>0.000000</speed>
</trkpt>
<trkpt lat="44.610970" lon="33.740574">
<ele>289.121338</ele>
<time>2011-10-11T07:04:43Z</time>
<desc>lat.=44.610970, lon.=33.740574, Alt.=289.121338m. Speed=0.072000m/h.</desc>
<speed>0.020000</speed>
</trkpt>
<trkpt lat="44.610970" lon="33.740574">
<ele>289.113525</ele>
<time>2011-10-11T07:04:48Z</time>
<desc>lat.=44.610970, lon.=33.740574, Alt.=289.113525m. Speed=0.036000m/h.</desc>
<speed>0.010000</speed>
</trkpt>
<trkpt lat="44.610962" lon="33.740574">
<ele>289.011963</ele>
<time>2011-10-11T07:04:53Z</time>
<desc>lat.=44.610962, lon.=33.740574, Alt.=289.011963m. Speed=0.108000m/h.</desc>
<speed>0.030000</speed>
</trkpt>
<trkpt lat="44.610966" lon="33.740574">
<ele>289.121338</ele>
<time>2011-10-11T07:04:58Z</time>
<desc>lat.=44.610966, lon.=33.740574, Alt.=289.121338m. Speed=0.036000m/h.</desc>
<speed>0.010000</speed>
</trkpt>
<trkpt lat="44.610958" lon="33.740574">
<ele>289.371338</ele>
<time>2011-10-11T07:05:03Z</time>
<desc>lat.=44.610958, lon.=33.740574, Alt.=289.371338m. Speed=0.000000m/h.</desc>
<speed>0.000000</speed>
</trkpt>
<trkpt lat="44.610954" lon="33.740566">
<ele>289.160400</ele>
<time>2011-10-11T07:05:08Z</time>
<desc>lat.=44.610954, lon.=33.740566, Alt.=289.160400m. Speed=0.036000m/h.</desc>
<speed>0.010000</speed>
</trkpt>
<trkpt lat="44.610954" lon="33.740562">
<ele>288.746338</ele>
<time>2011-10-11T07:05:13Z</time>
<desc>lat.=44.610954, lon.=33.740562, Alt.=288.746338m. Speed=0.036000m/h.</desc>
<speed>0.010000</speed>
</trkpt>
<trkpt lat="44.610950" lon="33.740566">
<ele>288.543213</ele>
<time>2011-10-11T07:05:18Z</time>
<desc>lat.=44.610950, lon.=33.740566, Alt.=288.543213m. Speed=0.072000m/h.</desc>
<speed>0.020000</speed>
</trkpt>
<trkpt lat="44.610950" lon="33.740559">
<ele>288.386963</ele>
<time>2011-10-11T07:05:23Z</time>
<desc>lat.=44.610950, lon.=33.740559, Alt.=288.386963m. Speed=0.000000m/h.</desc>
<speed>0.000000</speed>
</trkpt>
<trkpt lat="44.610947" lon="33.740551">
<ele>288.347900</ele>
<time>2011-10-11T07:05:28Z</time>
<desc>lat.=44.610947, lon.=33.740551, Alt.=288.347900m. Speed=0.144000m/h.</desc>
<speed>0.040000</speed>
</trkpt>
<trkpt lat="44.610939" lon="33.740543">
<ele>287.926025</ele>
<time>2011-10-11T07:05:33Z</time>
<desc>lat.=44.610939, lon.=33.740543, Alt.=287.926025m. Speed=0.072000m/h.</desc>
<speed>0.020000</speed>
</trkpt>
<trkpt lat="44.610947" lon="33.740543">
<ele>287.824463</ele>
<time>2011-10-11T07:05:38Z</time>
<desc>lat.=44.610947, lon.=33.740543, Alt.=287.824463m. Speed=0.036000m/h.</desc>
<speed>0.010000</speed>
</trkpt>
<trkpt lat="44.610954" lon="33.740532">
<ele>287.394775</ele>
<time>2011-10-11T07:05:43Z</time>
<desc>lat.=44.610954, lon.=33.740532, Alt.=287.394775m. Speed=0.036000m/h.</desc>
<speed>0.010000</speed>
</trkpt>
<trkpt lat="44.610958" lon="33.740532">
<ele>287.199463</ele>
<time>2011-10-11T07:05:48Z</time>
<desc>lat.=44.610958, lon.=33.740532, Alt.=287.199463m. Speed=0.036000m/h.</desc>
<speed>0.010000</speed>
</trkpt>
<trkpt lat="44.610958" lon="33.740528">
<ele>287.074463</ele>
<time>2011-10-11T07:05:53Z</time>
<desc>lat.=44.610958, lon.=33.740528, Alt.=287.074463m. Speed=0.036000m/h.</desc>
<speed>0.010000</speed>
</trkpt>
<trkpt lat="44.610950" lon="33.740543">
<ele>287.113525</ele>
<time>2011-10-11T07:05:58Z</time>
<desc>lat.=44.610950, lon.=33.740543, Alt.=287.113525m. Speed=0.000000m/h.</desc>
<speed>0.000000</speed>
</trkpt>
<trkpt lat="44.610954" lon="33.740543">
<ele>286.707275</ele>
<time>2011-10-11T07:06:03Z</time>
<desc>lat.=44.610954, lon.=33.740543, Alt.=286.707275m. Speed=0.000000m/h.</desc>
<speed>0.000000</speed>
</trkpt>
<trkpt lat="44.610954" lon="33.740551">
<ele>286.722900</ele>
<time>2011-10-11T07:06:08Z</time>
<desc>lat.=44.610954, lon.=33.740551, Alt.=286.722900m. Speed=0.000000m/h.</desc>
<speed>0.000000</speed>
</trkpt>
<trkpt lat="44.610954" lon="33.740547">
<ele>286.699463</ele>
<time>2011-10-11T07:06:13Z</time>
<desc>lat.=44.610954, lon.=33.740547, Alt.=286.699463m. Speed=0.036000m/h.</desc>
<speed>0.010000</speed>
</trkpt>
<trkpt lat="44.610950" lon="33.740543">
<ele>286.386963</ele>
<time>2011-10-11T07:06:18Z</time>
<desc>lat.=44.610950, lon.=33.740543, Alt.=286.386963m. Speed=0.036000m/h.</desc>
<speed>0.010000</speed>
</trkpt>
<trkpt lat="44.610947" lon="33.740547">
<ele>285.691650</ele>
<time>2011-10-11T07:06:23Z</time>
<desc>lat.=44.610947, lon.=33.740547, Alt.=285.691650m. Speed=0.036000m/h.</desc>
<speed>0.010000</speed>
</trkpt>
<trkpt lat="44.610943" lon="33.740543">
<ele>285.472900</ele>
<time>2011-10-11T07:06:28Z</time>
<desc>lat.=44.610943, lon.=33.740543, Alt.=285.472900m. Speed=0.108000m/h.</desc>
<speed>0.030000</speed>
</trkpt>
<trkpt lat="44.610939" lon="33.740551">
<ele>285.066650</ele>
<time>2011-10-11T07:06:33Z</time>
<desc>lat.=44.610939, lon.=33.740551, Alt.=285.066650m. Speed=0.036000m/h.</desc>
<speed>0.010000</speed>
</trkpt>
<trkpt lat="44.610939" lon="33.740551">
<ele>284.660400</ele>
<time>2011-10-11T07:06:38Z</time>
<desc>lat.=44.610939, lon.=33.740551, Alt.=284.660400m. Speed=0.000000m/h.</desc>
<speed>0.000000</speed>
</trkpt>
<trkpt lat="44.610935" lon="33.740559">
<ele>284.410400</ele>
<time>2011-10-11T07:06:43Z</time>
<desc>lat.=44.610935, lon.=33.740559, Alt.=284.410400m. Speed=0.072000m/h.</desc>
<speed>0.020000</speed>
</trkpt>
<trkpt lat="44.610935" lon="33.740574">
<ele>284.566650</ele>
<time>2011-10-11T07:06:48Z</time>
<desc>lat.=44.610935, lon.=33.740574, Alt.=284.566650m. Speed=0.000000m/h.</desc>
<speed>0.000000</speed>
</trkpt>
<trkpt lat="44.610931" lon="33.740574">
<ele>284.183838</ele>
<time>2011-10-11T07:06:53Z</time>
<desc>lat.=44.610931, lon.=33.740574, Alt.=284.183838m. Speed=0.000000m/h.</desc>
<speed>0.000000</speed>
</trkpt>
<trkpt lat="44.610931" lon="33.740570">
<ele>284.097900</ele>
<time>2011-10-11T07:06:58Z</time>
<desc>lat.=44.610931, lon.=33.740570, Alt.=284.097900m. Speed=0.036000m/h.</desc>
<speed>0.010000</speed>
</trkpt>
<trkpt lat="44.610931" lon="33.740570">
<ele>284.097900</ele>
<time>2011-10-11T07:07:03Z</time>
<desc>lat.=44.610931, lon.=33.740570, Alt.=284.097900m. Speed=0.036000m/h.</desc>
<speed>0.010000</speed>
</trkpt>
<trkpt lat="44.610931" lon="33.740570">
<ele>284.105713</ele>
<time>2011-10-11T07:07:08Z</time>
<desc>lat.=44.610931, lon.=33.740570, Alt.=284.105713m. Speed=0.036000m/h.</desc>
<speed>0.010000</speed>
</trkpt>
<trkpt lat="44.610931" lon="33.740570">
<ele>284.105713</ele>
<time>2011-10-11T07:07:13Z</time>
<desc>lat.=44.610931, lon.=33.740570, Alt.=284.105713m. Speed=0.036000m/h.</desc>
<speed>0.010000</speed>
</trkpt>
<trkpt lat="44.610931" lon="33.740570">
<ele>284.097900</ele>
<time>2011-10-11T07:07:18Z</time>
<desc>lat.=44.610931, lon.=33.740570, Alt.=284.097900m. Speed=0.000000m/h.</desc>
<speed>0.000000</speed>
</trkpt>
<trkpt lat="44.610931" lon="33.740570">
<ele>284.105713</ele>
<time>2011-10-11T07:07:23Z</time>
<desc>lat.=44.610931, lon.=33.740570, Alt.=284.105713m. Speed=0.036000m/h.</desc>
<speed>0.010000</speed>
</trkpt>
<trkpt lat="44.610931" lon="33.740570">
<ele>284.105713</ele>
<time>2011-10-11T07:07:28Z</time>
<desc>lat.=44.610931, lon.=33.740570, Alt.=284.105713m. Speed=0.000000m/h.</desc>
<speed>0.000000</speed>
</trkpt>
<trkpt lat="44.610931" lon="33.740570">
<ele>284.097900</ele>
<time>2011-10-11T07:07:33Z</time>
<desc>lat.=44.610931, lon.=33.740570, Alt.=284.097900m. Speed=0.036000m/h.</desc>
<speed>0.010000</speed>
</trkpt>
<trkpt lat="44.610931" lon="33.740570">
<ele>284.105713</ele>
<time>2011-10-11T07:07:38Z</time>
<desc>lat.=44.610931, lon.=33.740570, Alt.=284.105713m. Speed=0.000000m/h.</desc>
<speed>0.000000</speed>
</trkpt>
<trkpt lat="44.610931" lon="33.740570">
<ele>284.105713</ele>
<time>2011-10-11T07:07:43Z</time>
<desc>lat.=44.610931, lon.=33.740570, Alt.=284.105713m. Speed=0.000000m/h.</desc>
<speed>0.000000</speed>
</trkpt>
<trkpt lat="44.610931" lon="33.740570">
<ele>284.105713</ele>
<time>2011-10-11T07:07:48Z</time>
<desc>lat.=44.610931, lon.=33.740570, Alt.=284.105713m. Speed=0.000000m/h.</desc>
<speed>0.000000</speed>
</trkpt>
<trkpt lat="44.610931" lon="33.740570">
<ele>284.105713</ele>
<time>2011-10-11T07:07:53Z</time>
<desc>lat.=44.610931, lon.=33.740570, Alt.=284.105713m. Speed=0.036000m/h.</desc>
<speed>0.010000</speed>
</trkpt>
<trkpt lat="44.610931" lon="33.740570">
<ele>284.105713</ele>
<time>2011-10-11T07:07:58Z</time>
<desc>lat.=44.610931, lon.=33.740570, Alt.=284.105713m. Speed=0.036000m/h.</desc>
<speed>0.010000</speed>
</trkpt>
<trkpt lat="44.610931" lon="33.740570">
<ele>284.105713</ele>
<time>2011-10-11T07:08:03Z</time>
<desc>lat.=44.610931, lon.=33.740570, Alt.=284.105713m. Speed=0.036000m/h.</desc>
<speed>0.010000</speed>
</trkpt>
<trkpt lat="44.610931" lon="33.740570">
<ele>284.105713</ele>
<time>2011-10-11T07:08:08Z</time>
<desc>lat.=44.610931, lon.=33.740570, Alt.=284.105713m. Speed=0.036000m/h.</desc>
<speed>0.010000</speed>
</trkpt>
<trkpt lat="44.610931" lon="33.740570">
<ele>284.113525</ele>
<time>2011-10-11T07:08:13Z</time>
<desc>lat.=44.610931, lon.=33.740570, Alt.=284.113525m. Speed=0.036000m/h.</desc>
<speed>0.010000</speed>
</trkpt>
<trkpt lat="44.610931" lon="33.740570">
<ele>284.129150</ele>
<time>2011-10-11T07:08:18Z</time>
<desc>lat.=44.610931, lon.=33.740570, Alt.=284.129150m. Speed=0.000000m/h.</desc>
<speed>0.000000</speed>
</trkpt>
<trkpt lat="44.610931" lon="33.740570">
<ele>284.136963</ele>
<time>2011-10-11T07:08:23Z</time>
<desc>lat.=44.610931, lon.=33.740570, Alt.=284.136963m. Speed=0.036000m/h.</desc>
<speed>0.010000</speed>
</trkpt>
<trkpt lat="44.610931" lon="33.740570">
<ele>284.144775</ele>
<time>2011-10-11T07:08:28Z</time>
<desc>lat.=44.610931, lon.=33.740570, Alt.=284.144775m. Speed=0.036000m/h.</desc>
<speed>0.010000</speed>
</trkpt>
<trkpt lat="44.610931" lon="33.740570">
<ele>284.136963</ele>
<time>2011-10-11T07:08:33Z</time>
<desc>lat.=44.610931, lon.=33.740570, Alt.=284.136963m. Speed=0.000000m/h.</desc>
<speed>0.000000</speed>
</trkpt>
<trkpt lat="44.610931" lon="33.740570">
<ele>284.121338</ele>
<time>2011-10-11T07:08:38Z</time>
<desc>lat.=44.610931, lon.=33.740570, Alt.=284.121338m. Speed=0.000000m/h.</desc>
<speed>0.000000</speed>
</trkpt>
<trkpt lat="44.610931" lon="33.740570">
<ele>284.113525</ele>
<time>2011-10-11T07:08:43Z</time>
<desc>lat.=44.610931, lon.=33.740570, Alt.=284.113525m. Speed=0.000000m/h.</desc>
<speed>0.000000</speed>
</trkpt>
<trkpt lat="44.610935" lon="33.740570">
<ele>284.113525</ele>
<time>2011-10-11T07:08:48Z</time>
<desc>lat.=44.610935, lon.=33.740570, Alt.=284.113525m. Speed=0.000000m/h.</desc>
<speed>0.000000</speed>
</trkpt>
<trkpt lat="44.610935" lon="33.740570">
<ele>284.097900</ele>
<time>2011-10-11T07:08:53Z</time>
<desc>lat.=44.610935, lon.=33.740570, Alt.=284.097900m. Speed=0.036000m/h.</desc>
<speed>0.010000</speed>
</trkpt>
<trkpt lat="44.610931" lon="33.740570">
<ele>284.082275</ele>
<time>2011-10-11T07:08:58Z</time>
<desc>lat.=44.610931, lon.=33.740570, Alt.=284.082275m. Speed=0.072000m/h.</desc>
<speed>0.020000</speed>
</trkpt>
<trkpt lat="44.610931" lon="33.740570">
<ele>284.074463</ele>
<time>2011-10-11T07:09:03Z</time>
<desc>lat.=44.610931, lon.=33.740570, Alt.=284.074463m. Speed=0.000000m/h.</desc>
<speed>0.000000</speed>
</trkpt>
<trkpt lat="44.610931" lon="33.740570">
<ele>284.074463</ele>
<time>2011-10-11T07:09:08Z</time>
<desc>lat.=44.610931, lon.=33.740570, Alt.=284.074463m. Speed=0.072000m/h.</desc>
<speed>0.020000</speed>
</trkpt>
<trkpt lat="44.610931" lon="33.740570">
<ele>284.043213</ele>
<time>2011-10-11T07:09:13Z</time>
<desc>lat.=44.610931, lon.=33.740570, Alt.=284.043213m. Speed=0.000000m/h.</desc>
<speed>0.000000</speed>
</trkpt>
<trkpt lat="44.610931" lon="33.740570">
<ele>284.043213</ele>
<time>2011-10-11T07:09:18Z</time>
<desc>lat.=44.610931, lon.=33.740570, Alt.=284.043213m. Speed=0.000000m/h.</desc>
<speed>0.000000</speed>
</trkpt>
<trkpt lat="44.610931" lon="33.740570">
<ele>284.043213</ele>
<time>2011-10-11T07:09:23Z</time>
<desc>lat.=44.610931, lon.=33.740570, Alt.=284.043213m. Speed=0.036000m/h.</desc>
<speed>0.010000</speed>
</trkpt>
<trkpt lat="44.610931" lon="33.740574">
<ele>284.027588</ele>
<time>2011-10-11T07:09:28Z</time>
<desc>lat.=44.610931, lon.=33.740574, Alt.=284.027588m. Speed=0.036000m/h.</desc>
<speed>0.010000</speed>
</trkpt>
<trkpt lat="44.610931" lon="33.740574">
<ele>284.004150</ele>
<time>2011-10-11T07:09:33Z</time>
<desc>lat.=44.610931, lon.=33.740574, Alt.=284.004150m. Speed=0.072000m/h.</desc>
<speed>0.020000</speed>
</trkpt>
<trkpt lat="44.610931" lon="33.740574">
<ele>283.980713</ele>
<time>2011-10-11T07:09:38Z</time>
<desc>lat.=44.610931, lon.=33.740574, Alt.=283.980713m. Speed=0.000000m/h.</desc>
<speed>0.000000</speed>
</trkpt>
<trkpt lat="44.610931" lon="33.740574">
<ele>283.957275</ele>
<time>2011-10-11T07:09:43Z</time>
<desc>lat.=44.610931, lon.=33.740574, Alt.=283.957275m. Speed=0.036000m/h.</desc>
<speed>0.010000</speed>
</trkpt>
<trkpt lat="44.610931" lon="33.740574">
<ele>283.941650</ele>
<time>2011-10-11T07:09:48Z</time>
<desc>lat.=44.610931, lon.=33.740574, Alt.=283.941650m. Speed=0.000000m/h.</desc>
<speed>0.000000</speed>
</trkpt>
<trkpt lat="44.610931" lon="33.740574">
<ele>283.926025</ele>
<time>2011-10-11T07:09:53Z</time>
<desc>lat.=44.610931, lon.=33.740574, Alt.=283.926025m. Speed=0.036000m/h.</desc>
<speed>0.010000</speed>
</trkpt>
<trkpt lat="44.610931" lon="33.740574">
<ele>283.902588</ele>
<time>2011-10-11T07:09:58Z</time>
<desc>lat.=44.610931, lon.=33.740574, Alt.=283.902588m. Speed=0.036000m/h.</desc>
<speed>0.010000</speed>
</trkpt>
<trkpt lat="44.610931" lon="33.740574">
<ele>283.894775</ele>
<time>2011-10-11T07:10:03Z</time>
<desc>lat.=44.610931, lon.=33.740574, Alt.=283.894775m. Speed=0.000000m/h.</desc>
<speed>0.000000</speed>
</trkpt>
<trkpt lat="44.610931" lon="33.740574">
<ele>283.879150</ele>
<time>2011-10-11T07:10:08Z</time>
<desc>lat.=44.610931, lon.=33.740574, Alt.=283.879150m. Speed=0.000000m/h.</desc>
<speed>0.000000</speed>
</trkpt>
<trkpt lat="44.610931" lon="33.740574">
<ele>283.879150</ele>
<time>2011-10-11T07:10:13Z</time>
<desc>lat.=44.610931, lon.=33.740574, Alt.=283.879150m. Speed=0.072000m/h.</desc>
<speed>0.020000</speed>
</trkpt>
<trkpt lat="44.610931" lon="33.740574">
<ele>283.871338</ele>
<time>2011-10-11T07:10:18Z</time>
<desc>lat.=44.610931, lon.=33.740574, Alt.=283.871338m. Speed=0.036000m/h.</desc>
<speed>0.010000</speed>
</trkpt>
<trkpt lat="44.610931" lon="33.740574">
<ele>283.855713</ele>
<time>2011-10-11T07:10:23Z</time>
<desc>lat.=44.610931, lon.=33.740574, Alt.=283.855713m. Speed=0.036000m/h.</desc>
<speed>0.010000</speed>
</trkpt>
<trkpt lat="44.610931" lon="33.740574">
<ele>283.793213</ele>
<time>2011-10-11T07:10:28Z</time>
<desc>lat.=44.610931, lon.=33.740574, Alt.=283.793213m. Speed=0.000000m/h.</desc>
<speed>0.000000</speed>
</trkpt>
<trkpt lat="44.610928" lon="33.740570">
<ele>283.113525</ele>
<time>2011-10-11T07:10:33Z</time>
<desc>lat.=44.610928, lon.=33.740570, Alt.=283.113525m. Speed=0.036000m/h.</desc>
<speed>0.010000</speed>
</trkpt>
<trkpt lat="44.610924" lon="33.740566">
<ele>282.379150</ele>
<time>2011-10-11T07:10:38Z</time>
<desc>lat.=44.610924, lon.=33.740566, Alt.=282.379150m. Speed=0.000000m/h.</desc>
<speed>0.000000</speed>
</trkpt>
<trkpt lat="44.610916" lon="33.740566">
<ele>281.293213</ele>
<time>2011-10-11T07:10:43Z</time>
<desc>lat.=44.610916, lon.=33.740566, Alt.=281.293213m. Speed=0.036000m/h.</desc>
<speed>0.010000</speed>
</trkpt>
<trkpt lat="44.610912" lon="33.740566">
<ele>280.746338</ele>
<time>2011-10-11T07:10:48Z</time>
<desc>lat.=44.610912, lon.=33.740566, Alt.=280.746338m. Speed=0.000000m/h.</desc>
<speed>0.000000</speed>
</trkpt>
<trkpt lat="44.610909" lon="33.740570">
<ele>280.168213</ele>
<time>2011-10-11T07:10:53Z</time>
<desc>lat.=44.610909, lon.=33.740570, Alt.=280.168213m. Speed=0.072000m/h.</desc>
<speed>0.020000</speed>
</trkpt>
<trkpt lat="44.610909" lon="33.740582">
<ele>280.027588</ele>
<time>2011-10-11T07:10:58Z</time>
<desc>lat.=44.610909, lon.=33.740582, Alt.=280.027588m. Speed=0.144000m/h.</desc>
<speed>0.040000</speed>
</trkpt>
<trkpt lat="44.610909" lon="33.740585">
<ele>280.011963</ele>
<time>2011-10-11T07:11:03Z</time>
<desc>lat.=44.610909, lon.=33.740585, Alt.=280.011963m. Speed=0.036000m/h.</desc>
<speed>0.010000</speed>
</trkpt>
<trkpt lat="44.610912" lon="33.740593">
<ele>280.105713</ele>
<time>2011-10-11T07:11:08Z</time>
<desc>lat.=44.610912, lon.=33.740593, Alt.=280.105713m. Speed=0.072000m/h.</desc>
<speed>0.020000</speed>
</trkpt>
<trkpt lat="44.610909" lon="33.740585">
<ele>279.777588</ele>
<time>2011-10-11T07:11:13Z</time>
<desc>lat.=44.610909, lon.=33.740585, Alt.=279.777588m. Speed=0.000000m/h.</desc>
<speed>0.000000</speed>
</trkpt>
<trkpt lat="44.610905" lon="33.740570">
<ele>279.519775</ele>
<time>2011-10-11T07:11:18Z</time>
<desc>lat.=44.610905, lon.=33.740570, Alt.=279.519775m. Speed=0.108000m/h.</desc>
<speed>0.030000</speed>
</trkpt>
<trkpt lat="44.610901" lon="33.740566">
<ele>279.129150</ele>
<time>2011-10-11T07:11:23Z</time>
<desc>lat.=44.610901, lon.=33.740566, Alt.=279.129150m. Speed=0.036000m/h.</desc>
<speed>0.010000</speed>
</trkpt>
<trkpt lat="44.610897" lon="33.740555">
<ele>278.808838</ele>
<time>2011-10-11T07:11:28Z</time>
<desc>lat.=44.610897, lon.=33.740555, Alt.=278.808838m. Speed=0.072000m/h.</desc>
<speed>0.020000</speed>
</trkpt>
<trkpt lat="44.610897" lon="33.740555">
<ele>278.715088</ele>
<time>2011-10-11T07:11:33Z</time>
<desc>lat.=44.610897, lon.=33.740555, Alt.=278.715088m. Speed=0.000000m/h.</desc>
<speed>0.000000</speed>
</trkpt>
<trkpt lat="44.610901" lon="33.740562">
<ele>278.910400</ele>
<time>2011-10-11T07:11:38Z</time>
<desc>lat.=44.610901, lon.=33.740562, Alt.=278.910400m. Speed=0.072000m/h.</desc>
<speed>0.020000</speed>
</trkpt>
<trkpt lat="44.610901" lon="33.740551">
<ele>278.543213</ele>
<time>2011-10-11T07:11:43Z</time>
<desc>lat.=44.610901, lon.=33.740551, Alt.=278.543213m. Speed=0.036000m/h.</desc>
<speed>0.010000</speed>
</trkpt>
<trkpt lat="44.610905" lon="33.740566">
<ele>278.918213</ele>
<time>2011-10-11T07:11:48Z</time>
<desc>lat.=44.610905, lon.=33.740566, Alt.=278.918213m. Speed=0.108000m/h.</desc>
<speed>0.030000</speed>
</trkpt>
<trkpt lat="44.610909" lon="33.740562">
<ele>278.871338</ele>
<time>2011-10-11T07:11:53Z</time>
<desc>lat.=44.610909, lon.=33.740562, Alt.=278.871338m. Speed=0.108000m/h.</desc>
<speed>0.030000</speed>
</trkpt>
<trkpt lat="44.610909" lon="33.740555">
<ele>278.730713</ele>
<time>2011-10-11T07:11:58Z</time>
<desc>lat.=44.610909, lon.=33.740555, Alt.=278.730713m. Speed=0.036000m/h.</desc>
<speed>0.010000</speed>
</trkpt>
<trkpt lat="44.610909" lon="33.740555">
<ele>278.730713</ele>
<time>2011-10-11T07:12:03Z</time>
<desc>lat.=44.610909, lon.=33.740555, Alt.=278.730713m. Speed=0.072000m/h.</desc>
<speed>0.020000</speed>
</trkpt>
<trkpt lat="44.610909" lon="33.740555">
<ele>278.730713</ele>
<time>2011-10-11T07:12:08Z</time>
<desc>lat.=44.610909, lon.=33.740555, Alt.=278.730713m. Speed=0.108000m/h.</desc>
<speed>0.030000</speed>
</trkpt>
<trkpt lat="44.610909" lon="33.740555">
<ele>278.738525</ele>
<time>2011-10-11T07:12:13Z</time>
<desc>lat.=44.610909, lon.=33.740555, Alt.=278.738525m. Speed=0.036000m/h.</desc>
<speed>0.010000</speed>
</trkpt>
<trkpt lat="44.610909" lon="33.740559">
<ele>278.746338</ele>
<time>2011-10-11T07:12:18Z</time>
<desc>lat.=44.610909, lon.=33.740559, Alt.=278.746338m. Speed=0.036000m/h.</desc>
<speed>0.010000</speed>
</trkpt>
<trkpt lat="44.610909" lon="33.740559">
<ele>278.761963</ele>
<time>2011-10-11T07:12:23Z</time>
<desc>lat.=44.610909, lon.=33.740559, Alt.=278.761963m. Speed=0.036000m/h.</desc>
<speed>0.010000</speed>
</trkpt>
<trkpt lat="44.610909" lon="33.740559">
<ele>278.761963</ele>
<time>2011-10-11T07:12:28Z</time>
<desc>lat.=44.610909, lon.=33.740559, Alt.=278.761963m. Speed=0.000000m/h.</desc>
<speed>0.000000</speed>
</trkpt>
<trkpt lat="44.610909" lon="33.740559">
<ele>278.769775</ele>
<time>2011-10-11T07:12:33Z</time>
<desc>lat.=44.610909, lon.=33.740559, Alt.=278.769775m. Speed=0.000000m/h.</desc>
<speed>0.000000</speed>
</trkpt>
<trkpt lat="44.610909" lon="33.740559">
<ele>278.777588</ele>
<time>2011-10-11T07:12:38Z</time>
<desc>lat.=44.610909, lon.=33.740559, Alt.=278.777588m. Speed=0.000000m/h.</desc>
<speed>0.000000</speed>
</trkpt>
<trkpt lat="44.610909" lon="33.740559">
<ele>278.785400</ele>
<time>2011-10-11T07:12:43Z</time>
<desc>lat.=44.610909, lon.=33.740559, Alt.=278.785400m. Speed=0.072000m/h.</desc>
<speed>0.020000</speed>
</trkpt>
<trkpt lat="44.610909" lon="33.740559">
<ele>278.785400</ele>
<time>2011-10-11T07:12:48Z</time>
<desc>lat.=44.610909, lon.=33.740559, Alt.=278.785400m. Speed=0.000000m/h.</desc>
<speed>0.000000</speed>
</trkpt>
<trkpt lat="44.610909" lon="33.740559">
<ele>278.801025</ele>
<time>2011-10-11T07:12:53Z</time>
<desc>lat.=44.610909, lon.=33.740559, Alt.=278.801025m. Speed=0.108000m/h.</desc>
<speed>0.030000</speed>
</trkpt>
<trkpt lat="44.610909" lon="33.740559">
<ele>278.824463</ele>
<time>2011-10-11T07:12:58Z</time>
<desc>lat.=44.610909, lon.=33.740559, Alt.=278.824463m. Speed=0.036000m/h.</desc>
<speed>0.010000</speed>
</trkpt>
<trkpt lat="44.610909" lon="33.740559">
<ele>278.816650</ele>
<time>2011-10-11T07:13:03Z</time>
<desc>lat.=44.610909, lon.=33.740559, Alt.=278.816650m. Speed=0.000000m/h.</desc>
<speed>0.000000</speed>
</trkpt>
<trkpt lat="44.610909" lon="33.740559">
<ele>278.824463</ele>
<time>2011-10-11T07:13:08Z</time>
<desc>lat.=44.610909, lon.=33.740559, Alt.=278.824463m. Speed=0.036000m/h.</desc>
<speed>0.010000</speed>
</trkpt>
<trkpt lat="44.610909" lon="33.740559">
<ele>278.847900</ele>
<time>2011-10-11T07:13:13Z</time>
<desc>lat.=44.610909, lon.=33.740559, Alt.=278.847900m. Speed=0.036000m/h.</desc>
<speed>0.010000</speed>
</trkpt>
<trkpt lat="44.610909" lon="33.740559">
<ele>278.863525</ele>
<time>2011-10-11T07:13:18Z</time>
<desc>lat.=44.610909, lon.=33.740559, Alt.=278.863525m. Speed=0.000000m/h.</desc>
<speed>0.000000</speed>
</trkpt>
<trkpt lat="44.610905" lon="33.740555">
<ele>278.933838</ele>
<time>2011-10-11T07:13:23Z</time>
<desc>lat.=44.610905, lon.=33.740555, Alt.=278.933838m. Speed=0.216000m/h.</desc>
<speed>0.060000</speed>
</trkpt>
<trkpt lat="44.610909" lon="33.740574">
<ele>279.199463</ele>
<time>2011-10-11T07:13:28Z</time>
<desc>lat.=44.610909, lon.=33.740574, Alt.=279.199463m. Speed=0.144000m/h.</desc>
<speed>0.040000</speed>
</trkpt>
<trkpt lat="44.610912" lon="33.740593">
<ele>279.269775</ele>
<time>2011-10-11T07:13:33Z</time>
<desc>lat.=44.610912, lon.=33.740593, Alt.=279.269775m. Speed=0.000000m/h.</desc>
<speed>0.000000</speed>
</trkpt>
<trkpt lat="44.610909" lon="33.740593">
<ele>279.058838</ele>
<time>2011-10-11T07:13:38Z</time>
<desc>lat.=44.610909, lon.=33.740593, Alt.=279.058838m. Speed=0.000000m/h.</desc>
<speed>0.000000</speed>
</trkpt>
<trkpt lat="44.610912" lon="33.740597">
<ele>279.246338</ele>
<time>2011-10-11T07:13:43Z</time>
<desc>lat.=44.610912, lon.=33.740597, Alt.=279.246338m. Speed=0.036000m/h.</desc>
<speed>0.010000</speed>
</trkpt>
<trkpt lat="44.610916" lon="33.740608">
<ele>279.558838</ele>
<time>2011-10-11T07:13:48Z</time>
<desc>lat.=44.610916, lon.=33.740608, Alt.=279.558838m. Speed=0.000000m/h.</desc>
<speed>0.000000</speed>
</trkpt>
<trkpt lat="44.610916" lon="33.740612">
<ele>279.660400</ele>
<time>2011-10-11T07:13:53Z</time>
<desc>lat.=44.610916, lon.=33.740612, Alt.=279.660400m. Speed=0.036000m/h.</desc>
<speed>0.010000</speed>
</trkpt>
<trkpt lat="44.610912" lon="33.740612">
<ele>279.597900</ele>
<time>2011-10-11T07:13:58Z</time>
<desc>lat.=44.610912, lon.=33.740612, Alt.=279.597900m. Speed=0.072000m/h.</desc>
<speed>0.020000</speed>
</trkpt>
<trkpt lat="44.610916" lon="33.740620">
<ele>279.722900</ele>
<time>2011-10-11T07:14:03Z</time>
<desc>lat.=44.610916, lon.=33.740620, Alt.=279.722900m. Speed=0.072000m/h.</desc>
<speed>0.020000</speed>
</trkpt>
<trkpt lat="44.610916" lon="33.740620">
<ele>279.832275</ele>
<time>2011-10-11T07:14:08Z</time>
<desc>lat.=44.610916, lon.=33.740620, Alt.=279.832275m. Speed=0.000000m/h.</desc>
<speed>0.000000</speed>
</trkpt>
<trkpt lat="44.610916" lon="33.740620">
<ele>279.824463</ele>
<time>2011-10-11T07:14:13Z</time>
<desc>lat.=44.610916, lon.=33.740620, Alt.=279.824463m. Speed=0.000000m/h.</desc>
<speed>0.000000</speed>
</trkpt>
<trkpt lat="44.610916" lon="33.740620">
<ele>279.824463</ele>
<time>2011-10-11T07:14:18Z</time>
<desc>lat.=44.610916, lon.=33.740620, Alt.=279.824463m. Speed=0.000000m/h.</desc>
<speed>0.000000</speed>
</trkpt>
<trkpt lat="44.610916" lon="33.740620">
<ele>279.824463</ele>
<time>2011-10-11T07:14:23Z</time>
<desc>lat.=44.610916, lon.=33.740620, Alt.=279.824463m. Speed=0.036000m/h.</desc>
<speed>0.010000</speed>
</trkpt>
<trkpt lat="44.610916" lon="33.740620">
<ele>279.816650</ele>
<time>2011-10-11T07:14:28Z</time>
<desc>lat.=44.610916, lon.=33.740620, Alt.=279.816650m. Speed=0.036000m/h.</desc>
<speed>0.010000</speed>
</trkpt>
<trkpt lat="44.610916" lon="33.740620">
<ele>279.808838</ele>
<time>2011-10-11T07:14:33Z</time>
<desc>lat.=44.610916, lon.=33.740620, Alt.=279.808838m. Speed=0.000000m/h.</desc>
<speed>0.000000</speed>
</trkpt>
<trkpt lat="44.610916" lon="33.740620">
<ele>279.808838</ele>
<time>2011-10-11T07:14:38Z</time>
<desc>lat.=44.610916, lon.=33.740620, Alt.=279.808838m. Speed=0.000000m/h.</desc>
<speed>0.000000</speed>
</trkpt>
<trkpt lat="44.610916" lon="33.740620">
<ele>279.808838</ele>
<time>2011-10-11T07:14:43Z</time>
<desc>lat.=44.610916, lon.=33.740620, Alt.=279.808838m. Speed=0.000000m/h.</desc>
<speed>0.000000</speed>
</trkpt>
<trkpt lat="44.610916" lon="33.740616">
<ele>279.808838</ele>
<time>2011-10-11T07:14:48Z</time>
<desc>lat.=44.610916, lon.=33.740616, Alt.=279.808838m. Speed=0.036000m/h.</desc>
<speed>0.010000</speed>
</trkpt>
<trkpt lat="44.610916" lon="33.740616">
<ele>279.816650</ele>
<time>2011-10-11T07:14:53Z</time>
<desc>lat.=44.610916, lon.=33.740616, Alt.=279.816650m. Speed=0.000000m/h.</desc>
<speed>0.000000</speed>
</trkpt>
<trkpt lat="44.610916" lon="33.740616">
<ele>279.816650</ele>
<time>2011-10-11T07:14:58Z</time>
<desc>lat.=44.610916, lon.=33.740616, Alt.=279.816650m. Speed=0.072000m/h.</desc>
<speed>0.020000</speed>
</trkpt>
<trkpt lat="44.610916" lon="33.740616">
<ele>279.824463</ele>
<time>2011-10-11T07:15:03Z</time>
<desc>lat.=44.610916, lon.=33.740616, Alt.=279.824463m. Speed=0.000000m/h.</desc>
<speed>0.000000</speed>
</trkpt>
<trkpt lat="44.610916" lon="33.740616">
<ele>279.832275</ele>
<time>2011-10-11T07:15:08Z</time>
<desc>lat.=44.610916, lon.=33.740616, Alt.=279.832275m. Speed=0.000000m/h.</desc>
<speed>0.000000</speed>
</trkpt>
<trkpt lat="44.610916" lon="33.740616">
<ele>279.840088</ele>
<time>2011-10-11T07:15:13Z</time>
<desc>lat.=44.610916, lon.=33.740616, Alt.=279.840088m. Speed=0.036000m/h.</desc>
<speed>0.010000</speed>
</trkpt>
<trkpt lat="44.610916" lon="33.740616">
<ele>279.847900</ele>
<time>2011-10-11T07:15:18Z</time>
<desc>lat.=44.610916, lon.=33.740616, Alt.=279.847900m. Speed=0.180000m/h.</desc>
<speed>0.050000</speed>
</trkpt>
<trkpt lat="44.610916" lon="33.740616">
<ele>279.847900</ele>
<time>2011-10-11T07:15:23Z</time>
<desc>lat.=44.610916, lon.=33.740616, Alt.=279.847900m. Speed=0.000000m/h.</desc>
<speed>0.000000</speed>
</trkpt>
<trkpt lat="44.610916" lon="33.740616">
<ele>279.847900</ele>
<time>2011-10-11T07:15:28Z</time>
<desc>lat.=44.610916, lon.=33.740616, Alt.=279.847900m. Speed=0.036000m/h.</desc>
<speed>0.010000</speed>
</trkpt>
<trkpt lat="44.610916" lon="33.740616">
<ele>279.855713</ele>
<time>2011-10-11T07:15:33Z</time>
<desc>lat.=44.610916, lon.=33.740616, Alt.=279.855713m. Speed=0.072000m/h.</desc>
<speed>0.020000</speed>
</trkpt>
<trkpt lat="44.610916" lon="33.740616">
<ele>279.863525</ele>
<time>2011-10-11T07:15:38Z</time>
<desc>lat.=44.610916, lon.=33.740616, Alt.=279.863525m. Speed=0.072000m/h.</desc>
<speed>0.020000</speed>
</trkpt>
<trkpt lat="44.610916" lon="33.740616">
<ele>279.879150</ele>
<time>2011-10-11T07:15:43Z</time>
<desc>lat.=44.610916, lon.=33.740616, Alt.=279.879150m. Speed=0.036000m/h.</desc>
<speed>0.010000</speed>
</trkpt>
<trkpt lat="44.610916" lon="33.740616">
<ele>279.879150</ele>
<time>2011-10-11T07:15:48Z</time>
<desc>lat.=44.610916, lon.=33.740616, Alt.=279.879150m. Speed=0.036000m/h.</desc>
<speed>0.010000</speed>
</trkpt>
<trkpt lat="44.610916" lon="33.740616">
<ele>279.886963</ele>
<time>2011-10-11T07:15:53Z</time>
<desc>lat.=44.610916, lon.=33.740616, Alt.=279.886963m. Speed=0.072000m/h.</desc>
<speed>0.020000</speed>
</trkpt>
<trkpt lat="44.610916" lon="33.740616">
<ele>279.886963</ele>
<time>2011-10-11T07:15:58Z</time>
<desc>lat.=44.610916, lon.=33.740616, Alt.=279.886963m. Speed=0.036000m/h.</desc>
<speed>0.010000</speed>
</trkpt>
<trkpt lat="44.610916" lon="33.740616">
<ele>279.886963</ele>
<time>2011-10-11T07:16:03Z</time>
<desc>lat.=44.610916, lon.=33.740616, Alt.=279.886963m. Speed=0.000000m/h.</desc>
<speed>0.000000</speed>
</trkpt>
<trkpt lat="44.610916" lon="33.740608">
<ele>279.980713</ele>
<time>2011-10-11T07:16:08Z</time>
<desc>lat.=44.610916, lon.=33.740608, Alt.=279.980713m. Speed=0.072000m/h.</desc>
<speed>0.020000</speed>
</trkpt>
<trkpt lat="44.610912" lon="33.740608">
<ele>279.886963</ele>
<time>2011-10-11T07:16:13Z</time>
<desc>lat.=44.610912, lon.=33.740608, Alt.=279.886963m. Speed=0.072000m/h.</desc>
<speed>0.020000</speed>
</trkpt>
<trkpt lat="44.610905" lon="33.740608">
<ele>280.566650</ele>
<time>2011-10-11T07:16:18Z</time>
<desc>lat.=44.610905, lon.=33.740608, Alt.=280.566650m. Speed=0.000000m/h.</desc>
<speed>0.000000</speed>
</trkpt>
<trkpt lat="44.610901" lon="33.740612">
<ele>281.160400</ele>
<time>2011-10-11T07:16:23Z</time>
<desc>lat.=44.610901, lon.=33.740612, Alt.=281.160400m. Speed=0.036000m/h.</desc>
<speed>0.010000</speed>
</trkpt>
<trkpt lat="44.610905" lon="33.740604">
<ele>281.566650</ele>
<time>2011-10-11T07:16:28Z</time>
<desc>lat.=44.610905, lon.=33.740604, Alt.=281.566650m. Speed=0.108000m/h.</desc>
<speed>0.030000</speed>
</trkpt>
<trkpt lat="44.610912" lon="33.740593">
<ele>281.660400</ele>
<time>2011-10-11T07:16:33Z</time>
<desc>lat.=44.610912, lon.=33.740593, Alt.=281.660400m. Speed=0.144000m/h.</desc>
<speed>0.040000</speed>
</trkpt>
<trkpt lat="44.610912" lon="33.740585">
<ele>281.519775</ele>
<time>2011-10-11T07:16:38Z</time>
<desc>lat.=44.610912, lon.=33.740585, Alt.=281.519775m. Speed=0.036000m/h.</desc>
<speed>0.010000</speed>
</trkpt>
<trkpt lat="44.610912" lon="33.740589">
<ele>281.816650</ele>
<time>2011-10-11T07:16:43Z</time>
<desc>lat.=44.610912, lon.=33.740589, Alt.=281.816650m. Speed=0.000000m/h.</desc>
<speed>0.000000</speed>
</trkpt>
<trkpt lat="44.610916" lon="33.740582">
<ele>281.824463</ele>
<time>2011-10-11T07:16:48Z</time>
<desc>lat.=44.610916, lon.=33.740582, Alt.=281.824463m. Speed=0.000000m/h.</desc>
<speed>0.000000</speed>
</trkpt>
<trkpt lat="44.610916" lon="33.740578">
<ele>281.769775</ele>
<time>2011-10-11T07:16:53Z</time>
<desc>lat.=44.610916, lon.=33.740578, Alt.=281.769775m. Speed=0.000000m/h.</desc>
<speed>0.000000</speed>
</trkpt>
<trkpt lat="44.610920" lon="33.740570">
<ele>281.527588</ele>
<time>2011-10-11T07:16:58Z</time>
<desc>lat.=44.610920, lon.=33.740570, Alt.=281.527588m. Speed=0.000000m/h.</desc>
<speed>0.000000</speed>
</trkpt>
<trkpt lat="44.610920" lon="33.740570">
<ele>281.058838</ele>
<time>2011-10-11T07:17:03Z</time>
<desc>lat.=44.610920, lon.=33.740570, Alt.=281.058838m. Speed=0.072000m/h.</desc>
<speed>0.020000</speed>
</trkpt>
<trkpt lat="44.610924" lon="33.740559">
<ele>280.699463</ele>
<time>2011-10-11T07:17:08Z</time>
<desc>lat.=44.610924, lon.=33.740559, Alt.=280.699463m. Speed=0.144000m/h.</desc>
<speed>0.040000</speed>
</trkpt>
<trkpt lat="44.610920" lon="33.740566">
<ele>281.230713</ele>
<time>2011-10-11T07:17:13Z</time>
<desc>lat.=44.610920, lon.=33.740566, Alt.=281.230713m. Speed=0.072000m/h.</desc>
<speed>0.020000</speed>
</trkpt>
<trkpt lat="44.610920" lon="33.740570">
<ele>281.769775</ele>
<time>2011-10-11T07:17:18Z</time>
<desc>lat.=44.610920, lon.=33.740570, Alt.=281.769775m. Speed=0.216000m/h.</desc>
<speed>0.060000</speed>
</trkpt>
<trkpt lat="44.610924" lon="33.740559">
<ele>281.996338</ele>
<time>2011-10-11T07:17:23Z</time>
<desc>lat.=44.610924, lon.=33.740559, Alt.=281.996338m. Speed=1.800000m/h.</desc>
<speed>0.500000</speed>
</trkpt>
<trkpt lat="44.610889" lon="33.740582">
<ele>281.902588</ele>
<time>2011-10-11T07:17:28Z</time>
<desc>lat.=44.610889, lon.=33.740582, Alt.=281.902588m. Speed=2.844000m/h.</desc>
<speed>0.790000</speed>
</trkpt>
<trkpt lat="44.610859" lon="33.740623">
<ele>281.894775</ele>
<time>2011-10-11T07:17:33Z</time>
<desc>lat.=44.610859, lon.=33.740623, Alt.=281.894775m. Speed=3.708000m/h.</desc>
<speed>1.030000</speed>
</trkpt>
<trkpt lat="44.610809" lon="33.740654">
<ele>282.058838</ele>
<time>2011-10-11T07:17:38Z</time>
<desc>lat.=44.610809, lon.=33.740654, Alt.=282.058838m. Speed=3.744000m/h.</desc>
<speed>1.040000</speed>
</trkpt>
<trkpt lat="44.610760" lon="33.740669">
<ele>282.832275</ele>
<time>2011-10-11T07:17:43Z</time>
<desc>lat.=44.610760, lon.=33.740669, Alt.=282.832275m. Speed=4.932000m/h.</desc>
<speed>1.370000</speed>
</trkpt>
<trkpt lat="44.610718" lon="33.740688">
<ele>283.472900</ele>
<time>2011-10-11T07:17:48Z</time>
<desc>lat.=44.610718, lon.=33.740688, Alt.=283.472900m. Speed=2.700000m/h.</desc>
<speed>0.750000</speed>
</trkpt>
<trkpt lat="44.610680" lon="33.740707">
<ele>283.949463</ele>
<time>2011-10-11T07:17:53Z</time>
<desc>lat.=44.610680, lon.=33.740707, Alt.=283.949463m. Speed=3.312000m/h.</desc>
<speed>0.920000</speed>
</trkpt>
<trkpt lat="44.610733" lon="33.740715">
<ele>284.801025</ele>
<time>2011-10-11T07:17:58Z</time>
<desc>lat.=44.610733, lon.=33.740715, Alt.=284.801025m. Speed=4.968000m/h.</desc>
<speed>1.380000</speed>
</trkpt>
<trkpt lat="44.610779" lon="33.740696">
<ele>286.511963</ele>
<time>2011-10-11T07:18:03Z</time>
<desc>lat.=44.610779, lon.=33.740696, Alt.=286.511963m. Speed=1.512000m/h.</desc>
<speed>0.420000</speed>
</trkpt>
<trkpt lat="44.610775" lon="33.740669">
<ele>288.082275</ele>
<time>2011-10-11T07:18:08Z</time>
<desc>lat.=44.610775, lon.=33.740669, Alt.=288.082275m. Speed=0.828000m/h.</desc>
<speed>0.230000</speed>
</trkpt>
<trkpt lat="44.610733" lon="33.740685">
<ele>289.371338</ele>
<time>2011-10-11T07:18:13Z</time>
<desc>lat.=44.610733, lon.=33.740685, Alt.=289.371338m. Speed=3.240000m/h.</desc>
<speed>0.900000</speed>
</trkpt>
<trkpt lat="44.610680" lon="33.740692">
<ele>290.465088</ele>
<time>2011-10-11T07:18:18Z</time>
<desc>lat.=44.610680, lon.=33.740692, Alt.=290.465088m. Speed=4.068000m/h.</desc>
<speed>1.130000</speed>
</trkpt>
<trkpt lat="44.610649" lon="33.740696">
<ele>291.886963</ele>
<time>2011-10-11T07:18:23Z</time>
<desc>lat.=44.610649, lon.=33.740696, Alt.=291.886963m. Speed=1.332000m/h.</desc>
<speed>0.370000</speed>
</trkpt>
<trkpt lat="44.610603" lon="33.740696">
<ele>293.394775</ele>
<time>2011-10-11T07:18:28Z</time>
<desc>lat.=44.610603, lon.=33.740696, Alt.=293.394775m. Speed=3.096000m/h.</desc>
<speed>0.860000</speed>
</trkpt>
<trkpt lat="44.610542" lon="33.740723">
<ele>294.386963</ele>
<time>2011-10-11T07:18:33Z</time>
<desc>lat.=44.610542, lon.=33.740723, Alt.=294.386963m. Speed=3.564000m/h.</desc>
<speed>0.990000</speed>
</trkpt>
<trkpt lat="44.610462" lon="33.740776">
<ele>297.394775</ele>
<time>2011-10-11T07:18:38Z</time>
<desc>lat.=44.610462, lon.=33.740776, Alt.=297.394775m. Speed=4.284000m/h.</desc>
<speed>1.190000</speed>
</trkpt>
<trkpt lat="44.610416" lon="33.740818">
<ele>299.246338</ele>
<time>2011-10-11T07:18:43Z</time>
<desc>lat.=44.610416, lon.=33.740818, Alt.=299.246338m. Speed=2.448000m/h.</desc>
<speed>0.680000</speed>
</trkpt>
<trkpt lat="44.610405" lon="33.740829">
<ele>299.308838</ele>
<time>2011-10-11T07:18:48Z</time>
<desc>lat.=44.610405, lon.=33.740829, Alt.=299.308838m. Speed=1.152000m/h.</desc>
<speed>0.320000</speed>
</trkpt>
<trkpt lat="44.610378" lon="33.740822">
<ele>299.699463</ele>
<time>2011-10-11T07:18:53Z</time>
<desc>lat.=44.610378, lon.=33.740822, Alt.=299.699463m. Speed=2.016000m/h.</desc>
<speed>0.560000</speed>
</trkpt>
<trkpt lat="44.610344" lon="33.740841">
<ele>300.652588</ele>
<time>2011-10-11T07:18:58Z</time>
<desc>lat.=44.610344, lon.=33.740841, Alt.=300.652588m. Speed=1.800000m/h.</desc>
<speed>0.500000</speed>
</trkpt>
<trkpt lat="44.610310" lon="33.740852">
<ele>301.160400</ele>
<time>2011-10-11T07:19:03Z</time>
<desc>lat.=44.610310, lon.=33.740852, Alt.=301.160400m. Speed=1.728000m/h.</desc>
<speed>0.480000</speed>
</trkpt>
<trkpt lat="44.610264" lon="33.740860">
<ele>301.582275</ele>
<time>2011-10-11T07:19:08Z</time>
<desc>lat.=44.610264, lon.=33.740860, Alt.=301.582275m. Speed=3.204000m/h.</desc>
<speed>0.890000</speed>
</trkpt>
<trkpt lat="44.610203" lon="33.740864">
<ele>302.426025</ele>
<time>2011-10-11T07:19:13Z</time>
<desc>lat.=44.610203, lon.=33.740864, Alt.=302.426025m. Speed=3.168000m/h.</desc>
<speed>0.880000</speed>
</trkpt>
<trkpt lat="44.610130" lon="33.740891">
<ele>303.090088</ele>
<time>2011-10-11T07:19:18Z</time>
<desc>lat.=44.610130, lon.=33.740891, Alt.=303.090088m. Speed=3.276000m/h.</desc>
<speed>0.910000</speed>
</trkpt>
<trkpt lat="44.610073" lon="33.740902">
<ele>303.761963</ele>
<time>2011-10-11T07:19:23Z</time>
<desc>lat.=44.610073, lon.=33.740902, Alt.=303.761963m. Speed=3.060000m/h.</desc>
<speed>0.850000</speed>
</trkpt>
<trkpt lat="44.610046" lon="33.740913">
<ele>304.871338</ele>
<time>2011-10-11T07:19:28Z</time>
<desc>lat.=44.610046, lon.=33.740913, Alt.=304.871338m. Speed=2.484000m/h.</desc>
<speed>0.690000</speed>
</trkpt>
<trkpt lat="44.609993" lon="33.740906">
<ele>305.254150</ele>
<time>2011-10-11T07:19:33Z</time>
<desc>lat.=44.609993, lon.=33.740906, Alt.=305.254150m. Speed=3.852000m/h.</desc>
<speed>1.070000</speed>
</trkpt>
<trkpt lat="44.609959" lon="33.740898">
<ele>305.566650</ele>
<time>2011-10-11T07:19:38Z</time>
<desc>lat.=44.609959, lon.=33.740898, Alt.=305.566650m. Speed=3.168000m/h.</desc>
<speed>0.880000</speed>
</trkpt>
<trkpt lat="44.609928" lon="33.740910">
<ele>305.785400</ele>
<time>2011-10-11T07:19:43Z</time>
<desc>lat.=44.609928, lon.=33.740910, Alt.=305.785400m. Speed=0.756000m/h.</desc>
<speed>0.210000</speed>
</trkpt>
<trkpt lat="44.609909" lon="33.740917">
<ele>306.058838</ele>
<time>2011-10-11T07:19:48Z</time>
<desc>lat.=44.609909, lon.=33.740917, Alt.=306.058838m. Speed=1.152000m/h.</desc>
<speed>0.320000</speed>
</trkpt>
<trkpt lat="44.609924" lon="33.740921">
<ele>306.097900</ele>
<time>2011-10-11T07:19:53Z</time>
<desc>lat.=44.609924, lon.=33.740921, Alt.=306.097900m. Speed=0.828000m/h.</desc>
<speed>0.230000</speed>
</trkpt>
<trkpt lat="44.609924" lon="33.740921">
<ele>306.176025</ele>
<time>2011-10-11T07:19:58Z</time>
<desc>lat.=44.609924, lon.=33.740921, Alt.=306.176025m. Speed=1.512000m/h.</desc>
<speed>0.420000</speed>
</trkpt>
<trkpt lat="44.609875" lon="33.740925">
<ele>306.144775</ele>
<time>2011-10-11T07:20:03Z</time>
<desc>lat.=44.609875, lon.=33.740925, Alt.=306.144775m. Speed=3.204000m/h.</desc>
<speed>0.890000</speed>
</trkpt>
<trkpt lat="44.609818" lon="33.740948">
<ele>306.847900</ele>
<time>2011-10-11T07:20:08Z</time>
<desc>lat.=44.609818, lon.=33.740948, Alt.=306.847900m. Speed=4.788000m/h.</desc>
<speed>1.330000</speed>
</trkpt>
<trkpt lat="44.609779" lon="33.740929">
<ele>309.238525</ele>
<time>2011-10-11T07:20:13Z</time>
<desc>lat.=44.609779, lon.=33.740929, Alt.=309.238525m. Speed=4.968000m/h.</desc>
<speed>1.380000</speed>
</trkpt>
<trkpt lat="44.609760" lon="33.740921">
<ele>309.574463</ele>
<time>2011-10-11T07:20:18Z</time>
<desc>lat.=44.609760, lon.=33.740921, Alt.=309.574463m. Speed=1.980000m/h.</desc>
<speed>0.550000</speed>
</trkpt>
<trkpt lat="44.609715" lon="33.740902">
<ele>309.949463</ele>
<time>2011-10-11T07:20:23Z</time>
<desc>lat.=44.609715, lon.=33.740902, Alt.=309.949463m. Speed=2.988000m/h.</desc>
<speed>0.830000</speed>
</trkpt>
<trkpt lat="44.609676" lon="33.740932">
<ele>310.715088</ele>
<time>2011-10-11T07:20:28Z</time>
<desc>lat.=44.609676, lon.=33.740932, Alt.=310.715088m. Speed=2.088000m/h.</desc>
<speed>0.580000</speed>
</trkpt>
<trkpt lat="44.609604" lon="33.740948">
<ele>311.441650</ele>
<time>2011-10-11T07:20:33Z</time>
<desc>lat.=44.609604, lon.=33.740948, Alt.=311.441650m. Speed=3.060000m/h.</desc>
<speed>0.850000</speed>
</trkpt>
<trkpt lat="44.609539" lon="33.740963">
<ele>312.230713</ele>
<time>2011-10-11T07:20:38Z</time>
<desc>lat.=44.609539, lon.=33.740963, Alt.=312.230713m. Speed=2.988000m/h.</desc>
<speed>0.830000</speed>
</trkpt>
<trkpt lat="44.609516" lon="33.741005">
<ele>314.621338</ele>
<time>2011-10-11T07:20:43Z</time>
<desc>lat.=44.609516, lon.=33.741005, Alt.=314.621338m. Speed=3.024000m/h.</desc>
<speed>0.840000</speed>
</trkpt>
<trkpt lat="44.609512" lon="33.741047">
<ele>316.027588</ele>
<time>2011-10-11T07:20:48Z</time>
<desc>lat.=44.609512, lon.=33.741047, Alt.=316.027588m. Speed=2.448000m/h.</desc>
<speed>0.680000</speed>
</trkpt>
<trkpt lat="44.609489" lon="33.741039">
<ele>317.441650</ele>
<time>2011-10-11T07:20:53Z</time>
<desc>lat.=44.609489, lon.=33.741039, Alt.=317.441650m. Speed=1.476000m/h.</desc>
<speed>0.410000</speed>
</trkpt>
<trkpt lat="44.609482" lon="33.741039">
<ele>319.004150</ele>
<time>2011-10-11T07:20:58Z</time>
<desc>lat.=44.609482, lon.=33.741039, Alt.=319.004150m. Speed=0.540000m/h.</desc>
<speed>0.150000</speed>
</trkpt>
<trkpt lat="44.609478" lon="33.741035">
<ele>319.246338</ele>
<time>2011-10-11T07:21:03Z</time>
<desc>lat.=44.609478, lon.=33.741035, Alt.=319.246338m. Speed=0.576000m/h.</desc>
<speed>0.160000</speed>
</trkpt>
<trkpt lat="44.609463" lon="33.741058">
<ele>319.738525</ele>
<time>2011-10-11T07:21:08Z</time>
<desc>lat.=44.609463, lon.=33.741058, Alt.=319.738525m. Speed=2.088000m/h.</desc>
<speed>0.580000</speed>
</trkpt>
<trkpt lat="44.609444" lon="33.741081">
<ele>319.816650</ele>
<time>2011-10-11T07:21:13Z</time>
<desc>lat.=44.609444, lon.=33.741081, Alt.=319.816650m. Speed=1.368000m/h.</desc>
<speed>0.380000</speed>
</trkpt>
<trkpt lat="44.609447" lon="33.741096">
<ele>319.629150</ele>
<time>2011-10-11T07:21:18Z</time>
<desc>lat.=44.609447, lon.=33.741096, Alt.=319.629150m. Speed=1.008000m/h.</desc>
<speed>0.280000</speed>
</trkpt>
<trkpt lat="44.609459" lon="33.741100">
<ele>319.441650</ele>
<time>2011-10-11T07:21:23Z</time>
<desc>lat.=44.609459, lon.=33.741100, Alt.=319.441650m. Speed=0.936000m/h.</desc>
<speed>0.260000</speed>
</trkpt>
<trkpt lat="44.609467" lon="33.741112">
<ele>319.551025</ele>
<time>2011-10-11T07:21:28Z</time>
<desc>lat.=44.609467, lon.=33.741112, Alt.=319.551025m. Speed=0.684000m/h.</desc>
<speed>0.190000</speed>
</trkpt>
<trkpt lat="44.609470" lon="33.741123">
<ele>319.636963</ele>
<time>2011-10-11T07:21:33Z</time>
<desc>lat.=44.609470, lon.=33.741123, Alt.=319.636963m. Speed=0.504000m/h.</desc>
<speed>0.140000</speed>
</trkpt>
<trkpt lat="44.609470" lon="33.741131">
<ele>319.715088</ele>
<time>2011-10-11T07:21:38Z</time>
<desc>lat.=44.609470, lon.=33.741131, Alt.=319.715088m. Speed=0.432000m/h.</desc>
<speed>0.120000</speed>
</trkpt>
<trkpt lat="44.609467" lon="33.741135">
<ele>319.801025</ele>
<time>2011-10-11T07:21:43Z</time>
<desc>lat.=44.609467, lon.=33.741135, Alt.=319.801025m. Speed=0.216000m/h.</desc>
<speed>0.060000</speed>
</trkpt>
<trkpt lat="44.609463" lon="33.741135">
<ele>319.894775</ele>
<time>2011-10-11T07:21:48Z</time>
<desc>lat.=44.609463, lon.=33.741135, Alt.=319.894775m. Speed=0.324000m/h.</desc>
<speed>0.090000</speed>
</trkpt>
<trkpt lat="44.609459" lon="33.741127">
<ele>319.980713</ele>
<time>2011-10-11T07:21:53Z</time>
<desc>lat.=44.609459, lon.=33.741127, Alt.=319.980713m. Speed=0.504000m/h.</desc>
<speed>0.140000</speed>
</trkpt>
<trkpt lat="44.609455" lon="33.741119">
<ele>320.074463</ele>
<time>2011-10-11T07:21:58Z</time>
<desc>lat.=44.609455, lon.=33.741119, Alt.=320.074463m. Speed=1.008000m/h.</desc>
<speed>0.280000</speed>
</trkpt>
<trkpt lat="44.609444" lon="33.741104">
<ele>320.121338</ele>
<time>2011-10-11T07:22:03Z</time>
<desc>lat.=44.609444, lon.=33.741104, Alt.=320.121338m. Speed=0.972000m/h.</desc>
<speed>0.270000</speed>
</trkpt>
<trkpt lat="44.609467" lon="33.741062">
<ele>319.816650</ele>
<time>2011-10-11T07:22:08Z</time>
<desc>lat.=44.609467, lon.=33.741062, Alt.=319.816650m. Speed=2.340000m/h.</desc>
<speed>0.650000</speed>
</trkpt>
<trkpt lat="44.609440" lon="33.741051">
<ele>320.191650</ele>
<time>2011-10-11T07:22:13Z</time>
<desc>lat.=44.609440, lon.=33.741051, Alt.=320.191650m. Speed=2.484000m/h.</desc>
<speed>0.690000</speed>
</trkpt>
<trkpt lat="44.609386" lon="33.741062">
<ele>320.301025</ele>
<time>2011-10-11T07:22:18Z</time>
<desc>lat.=44.609386, lon.=33.741062, Alt.=320.301025m. Speed=1.296000m/h.</desc>
<speed>0.360000</speed>
</trkpt>
<trkpt lat="44.609360" lon="33.741043">
<ele>320.457275</ele>
<time>2011-10-11T07:22:23Z</time>
<desc>lat.=44.609360, lon.=33.741043, Alt.=320.457275m. Speed=1.584000m/h.</desc>
<speed>0.440000</speed>
</trkpt>
<trkpt lat="44.609333" lon="33.741077">
<ele>320.535400</ele>
<time>2011-10-11T07:22:28Z</time>
<desc>lat.=44.609333, lon.=33.741077, Alt.=320.535400m. Speed=2.232000m/h.</desc>
<speed>0.620000</speed>
</trkpt>
<trkpt lat="44.609291" lon="33.741070">
<ele>320.636963</ele>
<time>2011-10-11T07:22:33Z</time>
<desc>lat.=44.609291, lon.=33.741070, Alt.=320.636963m. Speed=2.448000m/h.</desc>
<speed>0.680000</speed>
</trkpt>
<trkpt lat="44.609291" lon="33.741066">
<ele>320.793213</ele>
<time>2011-10-11T07:22:38Z</time>
<desc>lat.=44.609291, lon.=33.741066, Alt.=320.793213m. Speed=0.432000m/h.</desc>
<speed>0.120000</speed>
</trkpt>
<trkpt lat="44.609283" lon="33.741070">
<ele>320.730713</ele>
<time>2011-10-11T07:22:43Z</time>
<desc>lat.=44.609283, lon.=33.741070, Alt.=320.730713m. Speed=0.216000m/h.</desc>
<speed>0.060000</speed>
</trkpt>
<trkpt lat="44.609245" lon="33.741058">
<ele>321.105713</ele>
<time>2011-10-11T07:22:48Z</time>
<desc>lat.=44.609245, lon.=33.741058, Alt.=321.105713m. Speed=3.852000m/h.</desc>
<speed>1.070000</speed>
</trkpt>
<trkpt lat="44.609207" lon="33.741070">
<ele>321.090088</ele>
<time>2011-10-11T07:22:53Z</time>
<desc>lat.=44.609207, lon.=33.741070, Alt.=321.090088m. Speed=3.276000m/h.</desc>
<speed>0.910000</speed>
</trkpt>
<trkpt lat="44.609184" lon="33.741116">
<ele>321.488525</ele>
<time>2011-10-11T07:22:58Z</time>
<desc>lat.=44.609184, lon.=33.741116, Alt.=321.488525m. Speed=2.592000m/h.</desc>
<speed>0.720000</speed>
</trkpt>
<trkpt lat="44.609177" lon="33.741173">
<ele>321.926025</ele>
<time>2011-10-11T07:23:03Z</time>
<desc>lat.=44.609177, lon.=33.741173, Alt.=321.926025m. Speed=1.764000m/h.</desc>
<speed>0.490000</speed>
</trkpt>
<trkpt lat="44.609142" lon="33.741196">
<ele>322.840088</ele>
<time>2011-10-11T07:23:08Z</time>
<desc>lat.=44.609142, lon.=33.741196, Alt.=322.840088m. Speed=1.908000m/h.</desc>
<speed>0.530000</speed>
</trkpt>
<trkpt lat="44.609158" lon="33.741203">
<ele>322.332275</ele>
<time>2011-10-11T07:23:13Z</time>
<desc>lat.=44.609158, lon.=33.741203, Alt.=322.332275m. Speed=0.324000m/h.</desc>
<speed>0.090000</speed>
</trkpt>
<trkpt lat="44.609173" lon="33.741207">
<ele>321.957275</ele>
<time>2011-10-11T07:23:18Z</time>
<desc>lat.=44.609173, lon.=33.741207, Alt.=321.957275m. Speed=0.504000m/h.</desc>
<speed>0.140000</speed>
</trkpt>
<trkpt lat="44.609173" lon="33.741211">
<ele>321.996338</ele>
<time>2011-10-11T07:23:23Z</time>
<desc>lat.=44.609173, lon.=33.741211, Alt.=321.996338m. Speed=0.252000m/h.</desc>
<speed>0.070000</speed>
</trkpt>
<trkpt lat="44.609215" lon="33.741234">
<ele>322.176025</ele>
<time>2011-10-11T07:23:28Z</time>
<desc>lat.=44.609215, lon.=33.741234, Alt.=322.176025m. Speed=2.520000m/h.</desc>
<speed>0.700000</speed>
</trkpt>
<trkpt lat="44.609230" lon="33.741276">
<ele>321.886963</ele>
<time>2011-10-11T07:23:33Z</time>
<desc>lat.=44.609230, lon.=33.741276, Alt.=321.886963m. Speed=1.332000m/h.</desc>
<speed>0.370000</speed>
</trkpt>
<trkpt lat="44.609226" lon="33.741272">
<ele>320.933838</ele>
<time>2011-10-11T07:23:38Z</time>
<desc>lat.=44.609226, lon.=33.741272, Alt.=320.933838m. Speed=0.108000m/h.</desc>
<speed>0.030000</speed>
</trkpt>
<trkpt lat="44.609226" lon="33.741272">
<ele>320.879150</ele>
<time>2011-10-11T07:23:43Z</time>
<desc>lat.=44.609226, lon.=33.741272, Alt.=320.879150m. Speed=0.180000m/h.</desc>
<speed>0.050000</speed>
</trkpt>
<trkpt lat="44.609226" lon="33.741272">
<ele>320.886963</ele>
<time>2011-10-11T07:23:48Z</time>
<desc>lat.=44.609226, lon.=33.741272, Alt.=320.886963m. Speed=0.108000m/h.</desc>
<speed>0.030000</speed>
</trkpt>
<trkpt lat="44.609230" lon="33.741261">
<ele>320.707275</ele>
<time>2011-10-11T07:23:53Z</time>
<desc>lat.=44.609230, lon.=33.741261, Alt.=320.707275m. Speed=0.684000m/h.</desc>
<speed>0.190000</speed>
</trkpt>
<trkpt lat="44.609226" lon="33.741230">
<ele>320.199463</ele>
<time>2011-10-11T07:23:58Z</time>
<desc>lat.=44.609226, lon.=33.741230, Alt.=320.199463m. Speed=1.584000m/h.</desc>
<speed>0.440000</speed>
</trkpt>
<trkpt lat="44.609180" lon="33.741207">
<ele>320.879150</ele>
<time>2011-10-11T07:24:03Z</time>
<desc>lat.=44.609180, lon.=33.741207, Alt.=320.879150m. Speed=1.764000m/h.</desc>
<speed>0.490000</speed>
</trkpt>
<trkpt lat="44.609158" lon="33.741219">
<ele>321.504150</ele>
<time>2011-10-11T07:24:08Z</time>
<desc>lat.=44.609158, lon.=33.741219, Alt.=321.504150m. Speed=2.232000m/h.</desc>
<speed>0.620000</speed>
</trkpt>
<trkpt lat="44.609135" lon="33.741230">
<ele>321.918213</ele>
<time>2011-10-11T07:24:13Z</time>
<desc>lat.=44.609135, lon.=33.741230, Alt.=321.918213m. Speed=0.576000m/h.</desc>
<speed>0.160000</speed>
</trkpt>
<trkpt lat="44.609131" lon="33.741215">
<ele>322.082275</ele>
<time>2011-10-11T07:24:18Z</time>
<desc>lat.=44.609131, lon.=33.741215, Alt.=322.082275m. Speed=1.260000m/h.</desc>
<speed>0.350000</speed>
</trkpt>
<trkpt lat="44.609127" lon="33.741211">
<ele>322.222900</ele>
<time>2011-10-11T07:24:23Z</time>
<desc>lat.=44.609127, lon.=33.741211, Alt.=322.222900m. Speed=0.864000m/h.</desc>
<speed>0.240000</speed>
</trkpt>
<trkpt lat="44.609135" lon="33.741215">
<ele>322.301025</ele>
<time>2011-10-11T07:24:28Z</time>
<desc>lat.=44.609135, lon.=33.741215, Alt.=322.301025m. Speed=0.468000m/h.</desc>
<speed>0.130000</speed>
</trkpt>
<trkpt lat="44.609142" lon="33.741219">
<ele>322.324463</ele>
<time>2011-10-11T07:24:33Z</time>
<desc>lat.=44.609142, lon.=33.741219, Alt.=322.324463m. Speed=0.000000m/h.</desc>
<speed>0.000000</speed>
</trkpt>
<trkpt lat="44.609138" lon="33.741215">
<ele>322.308838</ele>
<time>2011-10-11T07:24:38Z</time>
<desc>lat.=44.609138, lon.=33.741215, Alt.=322.308838m. Speed=0.108000m/h.</desc>
<speed>0.030000</speed>
</trkpt>
<trkpt lat="44.609138" lon="33.741211">
<ele>322.363525</ele>
<time>2011-10-11T07:24:43Z</time>
<desc>lat.=44.609138, lon.=33.741211, Alt.=322.363525m. Speed=0.936000m/h.</desc>
<speed>0.260000</speed>
</trkpt>
<trkpt lat="44.609131" lon="33.741207">
<ele>321.988525</ele>
<time>2011-10-11T07:24:48Z</time>
<desc>lat.=44.609131, lon.=33.741207, Alt.=321.988525m. Speed=0.288000m/h.</desc>
<speed>0.080000</speed>
</trkpt>
<trkpt lat="44.609127" lon="33.741203">
<ele>321.855713</ele>
<time>2011-10-11T07:24:53Z</time>
<desc>lat.=44.609127, lon.=33.741203, Alt.=321.855713m. Speed=0.288000m/h.</desc>
<speed>0.080000</speed>
</trkpt>
<trkpt lat="44.609127" lon="33.741199">
<ele>321.801025</ele>
<time>2011-10-11T07:24:58Z</time>
<desc>lat.=44.609127, lon.=33.741199, Alt.=321.801025m. Speed=0.396000m/h.</desc>
<speed>0.110000</speed>
</trkpt>
<trkpt lat="44.609089" lon="33.741219">
<ele>320.972900</ele>
<time>2011-10-11T07:25:03Z</time>
<desc>lat.=44.609089, lon.=33.741219, Alt.=320.972900m. Speed=2.628000m/h.</desc>
<speed>0.730000</speed>
</trkpt>
<trkpt lat="44.609081" lon="33.741211">
<ele>320.808838</ele>
<time>2011-10-11T07:25:08Z</time>
<desc>lat.=44.609081, lon.=33.741211, Alt.=320.808838m. Speed=0.540000m/h.</desc>
<speed>0.150000</speed>
</trkpt>
<trkpt lat="44.609081" lon="33.741203">
<ele>320.676025</ele>
<time>2011-10-11T07:25:13Z</time>
<desc>lat.=44.609081, lon.=33.741203, Alt.=320.676025m. Speed=0.612000m/h.</desc>
<speed>0.170000</speed>
</trkpt>
<trkpt lat="44.609089" lon="33.741188">
<ele>321.207275</ele>
<time>2011-10-11T07:25:18Z</time>
<desc>lat.=44.609089, lon.=33.741188, Alt.=321.207275m. Speed=0.468000m/h.</desc>
<speed>0.130000</speed>
</trkpt>
<trkpt lat="44.609070" lon="33.741154">
<ele>321.926025</ele>
<time>2011-10-11T07:25:23Z</time>
<desc>lat.=44.609070, lon.=33.741154, Alt.=321.926025m. Speed=3.528000m/h.</desc>
<speed>0.980000</speed>
</trkpt>
<trkpt lat="44.609028" lon="33.741127">
<ele>322.511963</ele>
<time>2011-10-11T07:25:28Z</time>
<desc>lat.=44.609028, lon.=33.741127, Alt.=322.511963m. Speed=3.852000m/h.</desc>
<speed>1.070000</speed>
</trkpt>
<trkpt lat="44.609005" lon="33.741096">
<ele>322.535400</ele>
<time>2011-10-11T07:25:33Z</time>
<desc>lat.=44.609005, lon.=33.741096, Alt.=322.535400m. Speed=3.060000m/h.</desc>
<speed>0.850000</speed>
</trkpt>
<trkpt lat="44.608974" lon="33.741074">
<ele>322.527588</ele>
<time>2011-10-11T07:25:38Z</time>
<desc>lat.=44.608974, lon.=33.741074, Alt.=322.527588m. Speed=1.404000m/h.</desc>
<speed>0.390000</speed>
</trkpt>
<trkpt lat="44.608948" lon="33.741070">
<ele>323.105713</ele>
<time>2011-10-11T07:25:43Z</time>
<desc>lat.=44.608948, lon.=33.741070, Alt.=323.105713m. Speed=2.484000m/h.</desc>
<speed>0.690000</speed>
</trkpt>
<trkpt lat="44.608936" lon="33.741070">
<ele>323.910400</ele>
<time>2011-10-11T07:25:48Z</time>
<desc>lat.=44.608936, lon.=33.741070, Alt.=323.910400m. Speed=1.116000m/h.</desc>
<speed>0.310000</speed>
</trkpt>
<trkpt lat="44.608898" lon="33.741066">
<ele>324.199463</ele>
<time>2011-10-11T07:25:53Z</time>
<desc>lat.=44.608898, lon.=33.741066, Alt.=324.199463m. Speed=1.152000m/h.</desc>
<speed>0.320000</speed>
</trkpt>
<trkpt lat="44.608898" lon="33.741081">
<ele>323.730713</ele>
<time>2011-10-11T07:25:58Z</time>
<desc>lat.=44.608898, lon.=33.741081, Alt.=323.730713m. Speed=1.764000m/h.</desc>
<speed>0.490000</speed>
</trkpt>
<trkpt lat="44.608883" lon="33.741104">
<ele>323.488525</ele>
<time>2011-10-11T07:26:03Z</time>
<desc>lat.=44.608883, lon.=33.741104, Alt.=323.488525m. Speed=1.836000m/h.</desc>
<speed>0.510000</speed>
</trkpt>
<trkpt lat="44.608822" lon="33.741131">
<ele>323.480713</ele>
<time>2011-10-11T07:26:08Z</time>
<desc>lat.=44.608822, lon.=33.741131, Alt.=323.480713m. Speed=2.988000m/h.</desc>
<speed>0.830000</speed>
</trkpt>
<trkpt lat="44.608814" lon="33.741135">
<ele>323.386963</ele>
<time>2011-10-11T07:26:13Z</time>
<desc>lat.=44.608814, lon.=33.741135, Alt.=323.386963m. Speed=0.684000m/h.</desc>
<speed>0.190000</speed>
</trkpt>
<trkpt lat="44.608818" lon="33.741123">
<ele>323.535400</ele>
<time>2011-10-11T07:26:18Z</time>
<desc>lat.=44.608818, lon.=33.741123, Alt.=323.535400m. Speed=0.072000m/h.</desc>
<speed>0.020000</speed>
</trkpt>
<trkpt lat="44.608818" lon="33.741127">
<ele>323.566650</ele>
<time>2011-10-11T07:26:23Z</time>
<desc>lat.=44.608818, lon.=33.741127, Alt.=323.566650m. Speed=0.216000m/h.</desc>
<speed>0.060000</speed>
</trkpt>
<trkpt lat="44.608822" lon="33.741131">
<ele>323.597900</ele>
<time>2011-10-11T07:26:28Z</time>
<desc>lat.=44.608822, lon.=33.741131, Alt.=323.597900m. Speed=0.216000m/h.</desc>
<speed>0.060000</speed>
</trkpt>
<trkpt lat="44.608826" lon="33.741131">
<ele>323.597900</ele>
<time>2011-10-11T07:26:33Z</time>
<desc>lat.=44.608826, lon.=33.741131, Alt.=323.597900m. Speed=0.072000m/h.</desc>
<speed>0.020000</speed>
</trkpt>
<trkpt lat="44.608826" lon="33.741131">
<ele>323.613525</ele>
<time>2011-10-11T07:26:38Z</time>
<desc>lat.=44.608826, lon.=33.741131, Alt.=323.613525m. Speed=0.072000m/h.</desc>
<speed>0.020000</speed>
</trkpt>
<trkpt lat="44.608826" lon="33.741131">
<ele>323.621338</ele>
<time>2011-10-11T07:26:43Z</time>
<desc>lat.=44.608826, lon.=33.741131, Alt.=323.621338m. Speed=0.036000m/h.</desc>
<speed>0.010000</speed>
</trkpt>
<trkpt lat="44.608826" lon="33.741131">
<ele>323.629150</ele>
<time>2011-10-11T07:26:48Z</time>
<desc>lat.=44.608826, lon.=33.741131, Alt.=323.629150m. Speed=0.036000m/h.</desc>
<speed>0.010000</speed>
</trkpt>
<trkpt lat="44.608826" lon="33.741131">
<ele>323.644775</ele>
<time>2011-10-11T07:26:53Z</time>
<desc>lat.=44.608826, lon.=33.741131, Alt.=323.644775m. Speed=0.000000m/h.</desc>
<speed>0.000000</speed>
</trkpt>
<trkpt lat="44.608826" lon="33.741131">
<ele>323.668213</ele>
<time>2011-10-11T07:26:58Z</time>
<desc>lat.=44.608826, lon.=33.741131, Alt.=323.668213m. Speed=0.036000m/h.</desc>
<speed>0.010000</speed>
</trkpt>
<trkpt lat="44.608826" lon="33.741131">
<ele>323.683838</ele>
<time>2011-10-11T07:27:03Z</time>
<desc>lat.=44.608826, lon.=33.741131, Alt.=323.683838m. Speed=0.036000m/h.</desc>
<speed>0.010000</speed>
</trkpt>
<trkpt lat="44.608826" lon="33.741131">
<ele>323.707275</ele>
<time>2011-10-11T07:27:08Z</time>
<desc>lat.=44.608826, lon.=33.741131, Alt.=323.707275m. Speed=0.000000m/h.</desc>
<speed>0.000000</speed>
</trkpt>
<trkpt lat="44.608826" lon="33.741131">
<ele>323.715088</ele>
<time>2011-10-11T07:27:13Z</time>
<desc>lat.=44.608826, lon.=33.741131, Alt.=323.715088m. Speed=0.036000m/h.</desc>
<speed>0.010000</speed>
</trkpt>
<trkpt lat="44.608826" lon="33.741135">
<ele>323.754150</ele>
<time>2011-10-11T07:27:18Z</time>
<desc>lat.=44.608826, lon.=33.741135, Alt.=323.754150m. Speed=0.036000m/h.</desc>
<speed>0.010000</speed>
</trkpt>
<trkpt lat="44.608826" lon="33.741135">
<ele>323.777588</ele>
<time>2011-10-11T07:27:23Z</time>
<desc>lat.=44.608826, lon.=33.741135, Alt.=323.777588m. Speed=0.036000m/h.</desc>
<speed>0.010000</speed>
</trkpt>
<trkpt lat="44.608826" lon="33.741135">
<ele>323.808838</ele>
<time>2011-10-11T07:27:28Z</time>
<desc>lat.=44.608826, lon.=33.741135, Alt.=323.808838m. Speed=0.036000m/h.</desc>
<speed>0.010000</speed>
</trkpt>
<trkpt lat="44.608826" lon="33.741135">
<ele>323.816650</ele>
<time>2011-10-11T07:27:33Z</time>
<desc>lat.=44.608826, lon.=33.741135, Alt.=323.816650m. Speed=0.000000m/h.</desc>
<speed>0.000000</speed>
</trkpt>
<trkpt lat="44.608826" lon="33.741135">
<ele>323.832275</ele>
<time>2011-10-11T07:27:38Z</time>
<desc>lat.=44.608826, lon.=33.741135, Alt.=323.832275m. Speed=0.000000m/h.</desc>
<speed>0.000000</speed>
</trkpt>
<trkpt lat="44.608826" lon="33.741135">
<ele>323.855713</ele>
<time>2011-10-11T07:27:43Z</time>
<desc>lat.=44.608826, lon.=33.741135, Alt.=323.855713m. Speed=0.000000m/h.</desc>
<speed>0.000000</speed>
</trkpt>
<trkpt lat="44.608826" lon="33.741135">
<ele>323.886963</ele>
<time>2011-10-11T07:27:48Z</time>
<desc>lat.=44.608826, lon.=33.741135, Alt.=323.886963m. Speed=0.000000m/h.</desc>
<speed>0.000000</speed>
</trkpt>
<trkpt lat="44.608826" lon="33.741135">
<ele>323.926025</ele>
<time>2011-10-11T07:27:53Z</time>
<desc>lat.=44.608826, lon.=33.741135, Alt.=323.926025m. Speed=0.072000m/h.</desc>
<speed>0.020000</speed>
</trkpt>
<trkpt lat="44.608826" lon="33.741135">
<ele>323.957275</ele>
<time>2011-10-11T07:27:58Z</time>
<desc>lat.=44.608826, lon.=33.741135, Alt.=323.957275m. Speed=0.036000m/h.</desc>
<speed>0.010000</speed>
</trkpt>
<trkpt lat="44.608826" lon="33.741135">
<ele>323.988525</ele>
<time>2011-10-11T07:28:03Z</time>
<desc>lat.=44.608826, lon.=33.741135, Alt.=323.988525m. Speed=0.072000m/h.</desc>
<speed>0.020000</speed>
</trkpt>
<trkpt lat="44.608826" lon="33.741135">
<ele>323.996338</ele>
<time>2011-10-11T07:28:08Z</time>
<desc>lat.=44.608826, lon.=33.741135, Alt.=323.996338m. Speed=0.036000m/h.</desc>
<speed>0.010000</speed>
</trkpt>
<trkpt lat="44.608826" lon="33.741135">
<ele>324.011963</ele>
<time>2011-10-11T07:28:13Z</time>
<desc>lat.=44.608826, lon.=33.741135, Alt.=324.011963m. Speed=0.036000m/h.</desc>
<speed>0.010000</speed>
</trkpt>
<trkpt lat="44.608826" lon="33.741135">
<ele>324.027588</ele>
<time>2011-10-11T07:28:18Z</time>
<desc>lat.=44.608826, lon.=33.741135, Alt.=324.027588m. Speed=0.036000m/h.</desc>
<speed>0.010000</speed>
</trkpt>
<trkpt lat="44.608826" lon="33.741135">
<ele>324.019775</ele>
<time>2011-10-11T07:28:23Z</time>
<desc>lat.=44.608826, lon.=33.741135, Alt.=324.019775m. Speed=0.000000m/h.</desc>
<speed>0.000000</speed>
</trkpt>
<trkpt lat="44.608826" lon="33.741138">
<ele>324.027588</ele>
<time>2011-10-11T07:28:28Z</time>
<desc>lat.=44.608826, lon.=33.741138, Alt.=324.027588m. Speed=0.072000m/h.</desc>
<speed>0.020000</speed>
</trkpt>
<trkpt lat="44.608826" lon="33.741138">
<ele>324.035400</ele>
<time>2011-10-11T07:28:33Z</time>
<desc>lat.=44.608826, lon.=33.741138, Alt.=324.035400m. Speed=0.036000m/h.</desc>
<speed>0.010000</speed>
</trkpt>
<trkpt lat="44.608826" lon="33.741138">
<ele>324.051025</ele>
<time>2011-10-11T07:28:38Z</time>
<desc>lat.=44.608826, lon.=33.741138, Alt.=324.051025m. Speed=0.036000m/h.</desc>
<speed>0.010000</speed>
</trkpt>
<trkpt lat="44.608829" lon="33.741138">
<ele>324.074463</ele>
<time>2011-10-11T07:28:43Z</time>
<desc>lat.=44.608829, lon.=33.741138, Alt.=324.074463m. Speed=0.036000m/h.</desc>
<speed>0.010000</speed>
</trkpt>
<trkpt lat="44.608829" lon="33.741138">
<ele>324.090088</ele>
<time>2011-10-11T07:28:48Z</time>
<desc>lat.=44.608829, lon.=33.741138, Alt.=324.090088m. Speed=0.000000m/h.</desc>
<speed>0.000000</speed>
</trkpt>
<trkpt lat="44.608829" lon="33.741138">
<ele>324.105713</ele>
<time>2011-10-11T07:28:53Z</time>
<desc>lat.=44.608829, lon.=33.741138, Alt.=324.105713m. Speed=0.072000m/h.</desc>
<speed>0.020000</speed>
</trkpt>
<trkpt lat="44.608829" lon="33.741138">
<ele>324.121338</ele>
<time>2011-10-11T07:28:58Z</time>
<desc>lat.=44.608829, lon.=33.741138, Alt.=324.121338m. Speed=0.036000m/h.</desc>
<speed>0.010000</speed>
</trkpt>
<trkpt lat="44.608829" lon="33.741138">
<ele>324.144775</ele>
<time>2011-10-11T07:29:03Z</time>
<desc>lat.=44.608829, lon.=33.741138, Alt.=324.144775m. Speed=0.000000m/h.</desc>
<speed>0.000000</speed>
</trkpt>
<trkpt lat="44.608829" lon="33.741138">
<ele>324.160400</ele>
<time>2011-10-11T07:29:08Z</time>
<desc>lat.=44.608829, lon.=33.741138, Alt.=324.160400m. Speed=0.000000m/h.</desc>
<speed>0.000000</speed>
</trkpt>
<trkpt lat="44.608829" lon="33.741138">
<ele>324.183838</ele>
<time>2011-10-11T07:29:13Z</time>
<desc>lat.=44.608829, lon.=33.741138, Alt.=324.183838m. Speed=0.036000m/h.</desc>
<speed>0.010000</speed>
</trkpt>
<trkpt lat="44.608829" lon="33.741138">
<ele>324.199463</ele>
<time>2011-10-11T07:29:18Z</time>
<desc>lat.=44.608829, lon.=33.741138, Alt.=324.199463m. Speed=0.144000m/h.</desc>
<speed>0.040000</speed>
</trkpt>
<trkpt lat="44.608829" lon="33.741138">
<ele>324.207275</ele>
<time>2011-10-11T07:29:23Z</time>
<desc>lat.=44.608829, lon.=33.741138, Alt.=324.207275m. Speed=0.036000m/h.</desc>
<speed>0.010000</speed>
</trkpt>
<trkpt lat="44.608829" lon="33.741138">
<ele>324.215088</ele>
<time>2011-10-11T07:29:28Z</time>
<desc>lat.=44.608829, lon.=33.741138, Alt.=324.215088m. Speed=0.036000m/h.</desc>
<speed>0.010000</speed>
</trkpt>
<trkpt lat="44.608829" lon="33.741138">
<ele>324.207275</ele>
<time>2011-10-11T07:29:33Z</time>
<desc>lat.=44.608829, lon.=33.741138, Alt.=324.207275m. Speed=0.036000m/h.</desc>
<speed>0.010000</speed>
</trkpt>
<trkpt lat="44.608833" lon="33.741138">
<ele>324.238525</ele>
<time>2011-10-11T07:29:38Z</time>
<desc>lat.=44.608833, lon.=33.741138, Alt.=324.238525m. Speed=0.036000m/h.</desc>
<speed>0.010000</speed>
</trkpt>
<trkpt lat="44.608826" lon="33.741127">
<ele>324.191650</ele>
<time>2011-10-11T07:29:43Z</time>
<desc>lat.=44.608826, lon.=33.741127, Alt.=324.191650m. Speed=3.312000m/h.</desc>
<speed>0.920000</speed>
</trkpt>
<trkpt lat="44.608772" lon="33.741104">
<ele>324.496338</ele>
<time>2011-10-11T07:29:48Z</time>
<desc>lat.=44.608772, lon.=33.741104, Alt.=324.496338m. Speed=4.464000m/h.</desc>
<speed>1.240000</speed>
</trkpt>
<trkpt lat="44.608749" lon="33.741096">
<ele>324.777588</ele>
<time>2011-10-11T07:29:53Z</time>
<desc>lat.=44.608749, lon.=33.741096, Alt.=324.777588m. Speed=2.844000m/h.</desc>
<speed>0.790000</speed>
</trkpt>
<trkpt lat="44.608707" lon="33.741093">
<ele>324.980713</ele>
<time>2011-10-11T07:29:58Z</time>
<desc>lat.=44.608707, lon.=33.741093, Alt.=324.980713m. Speed=3.024000m/h.</desc>
<speed>0.840000</speed>
</trkpt>
<trkpt lat="44.608688" lon="33.741077">
<ele>325.449463</ele>
<time>2011-10-11T07:30:03Z</time>
<desc>lat.=44.608688, lon.=33.741077, Alt.=325.449463m. Speed=2.988000m/h.</desc>
<speed>0.830000</speed>
</trkpt>
<trkpt lat="44.608643" lon="33.741055">
<ele>325.965088</ele>
<time>2011-10-11T07:30:08Z</time>
<desc>lat.=44.608643, lon.=33.741055, Alt.=325.965088m. Speed=2.880000m/h.</desc>
<speed>0.800000</speed>
</trkpt>
<trkpt lat="44.608624" lon="33.741024">
<ele>326.660400</ele>
<time>2011-10-11T07:30:13Z</time>
<desc>lat.=44.608624, lon.=33.741024, Alt.=326.660400m. Speed=2.520000m/h.</desc>
<speed>0.700000</speed>
</trkpt>
<trkpt lat="44.608631" lon="33.741028">
<ele>327.496338</ele>
<time>2011-10-11T07:30:18Z</time>
<desc>lat.=44.608631, lon.=33.741028, Alt.=327.496338m. Speed=0.144000m/h.</desc>
<speed>0.040000</speed>
</trkpt>
<trkpt lat="44.608627" lon="33.741024">
<ele>328.027588</ele>
<time>2011-10-11T07:30:23Z</time>
<desc>lat.=44.608627, lon.=33.741024, Alt.=328.027588m. Speed=0.972000m/h.</desc>
<speed>0.270000</speed>
</trkpt>
<trkpt lat="44.608620" lon="33.741016">
<ele>328.558838</ele>
<time>2011-10-11T07:30:28Z</time>
<desc>lat.=44.608620, lon.=33.741016, Alt.=328.558838m. Speed=1.116000m/h.</desc>
<speed>0.310000</speed>
</trkpt>
<trkpt lat="44.608589" lon="33.740993">
<ele>328.957275</ele>
<time>2011-10-11T07:30:33Z</time>
<desc>lat.=44.608589, lon.=33.740993, Alt.=328.957275m. Speed=1.008000m/h.</desc>
<speed>0.280000</speed>
</trkpt>
<trkpt lat="44.608585" lon="33.740986">
<ele>329.465088</ele>
<time>2011-10-11T07:30:38Z</time>
<desc>lat.=44.608585, lon.=33.740986, Alt.=329.465088m. Speed=0.540000m/h.</desc>
<speed>0.150000</speed>
</trkpt>
<trkpt lat="44.608578" lon="33.740959">
<ele>329.855713</ele>
<time>2011-10-11T07:30:43Z</time>
<desc>lat.=44.608578, lon.=33.740959, Alt.=329.855713m. Speed=1.764000m/h.</desc>
<speed>0.490000</speed>
</trkpt>
<trkpt lat="44.608570" lon="33.740913">
<ele>329.754150</ele>
<time>2011-10-11T07:30:48Z</time>
<desc>lat.=44.608570, lon.=33.740913, Alt.=329.754150m. Speed=2.016000m/h.</desc>
<speed>0.560000</speed>
</trkpt>
<trkpt lat="44.608570" lon="33.740898">
<ele>330.152588</ele>
<time>2011-10-11T07:30:53Z</time>
<desc>lat.=44.608570, lon.=33.740898, Alt.=330.152588m. Speed=0.180000m/h.</desc>
<speed>0.050000</speed>
</trkpt>
<trkpt lat="44.608578" lon="33.740898">
<ele>330.511963</ele>
<time>2011-10-11T07:30:58Z</time>
<desc>lat.=44.608578, lon.=33.740898, Alt.=330.511963m. Speed=0.144000m/h.</desc>
<speed>0.040000</speed>
</trkpt>
<trkpt lat="44.608578" lon="33.740902">
<ele>330.590088</ele>
<time>2011-10-11T07:31:03Z</time>
<desc>lat.=44.608578, lon.=33.740902, Alt.=330.590088m. Speed=0.540000m/h.</desc>
<speed>0.150000</speed>
</trkpt>
<trkpt lat="44.608559" lon="33.740932">
<ele>330.894775</ele>
<time>2011-10-11T07:31:08Z</time>
<desc>lat.=44.608559, lon.=33.740932, Alt.=330.894775m. Speed=2.016000m/h.</desc>
<speed>0.560000</speed>
</trkpt>
<trkpt lat="44.608540" lon="33.740925">
<ele>330.199463</ele>
<time>2011-10-11T07:31:13Z</time>
<desc>lat.=44.608540, lon.=33.740925, Alt.=330.199463m. Speed=1.980000m/h.</desc>
<speed>0.550000</speed>
</trkpt>
<trkpt lat="44.608547" lon="33.740906">
<ele>329.926025</ele>
<time>2011-10-11T07:31:18Z</time>
<desc>lat.=44.608547, lon.=33.740906, Alt.=329.926025m. Speed=0.864000m/h.</desc>
<speed>0.240000</speed>
</trkpt>
<trkpt lat="44.608543" lon="33.740898">
<ele>330.129150</ele>
<time>2011-10-11T07:31:23Z</time>
<desc>lat.=44.608543, lon.=33.740898, Alt.=330.129150m. Speed=1.008000m/h.</desc>
<speed>0.280000</speed>
</trkpt>
<trkpt lat="44.608540" lon="33.740902">
<ele>330.113525</ele>
<time>2011-10-11T07:31:28Z</time>
<desc>lat.=44.608540, lon.=33.740902, Alt.=330.113525m. Speed=0.324000m/h.</desc>
<speed>0.090000</speed>
</trkpt>
<trkpt lat="44.608543" lon="33.740906">
<ele>330.097900</ele>
<time>2011-10-11T07:31:33Z</time>
<desc>lat.=44.608543, lon.=33.740906, Alt.=330.097900m. Speed=0.252000m/h.</desc>
<speed>0.070000</speed>
</trkpt>
<trkpt lat="44.608551" lon="33.740910">
<ele>330.027588</ele>
<time>2011-10-11T07:31:38Z</time>
<desc>lat.=44.608551, lon.=33.740910, Alt.=330.027588m. Speed=0.468000m/h.</desc>
<speed>0.130000</speed>
</trkpt>
<trkpt lat="44.608555" lon="33.740910">
<ele>330.066650</ele>
<time>2011-10-11T07:31:43Z</time>
<desc>lat.=44.608555, lon.=33.740910, Alt.=330.066650m. Speed=0.612000m/h.</desc>
<speed>0.170000</speed>
</trkpt>
<trkpt lat="44.608559" lon="33.740894">
<ele>329.996338</ele>
<time>2011-10-11T07:31:48Z</time>
<desc>lat.=44.608559, lon.=33.740894, Alt.=329.996338m. Speed=1.512000m/h.</desc>
<speed>0.420000</speed>
</trkpt>
<trkpt lat="44.608559" lon="33.740852">
<ele>329.636963</ele>
<time>2011-10-11T07:31:53Z</time>
<desc>lat.=44.608559, lon.=33.740852, Alt.=329.636963m. Speed=1.656000m/h.</desc>
<speed>0.460000</speed>
</trkpt>
<trkpt lat="44.608566" lon="33.740826">
<ele>329.722900</ele>
<time>2011-10-11T07:31:58Z</time>
<desc>lat.=44.608566, lon.=33.740826, Alt.=329.722900m. Speed=1.044000m/h.</desc>
<speed>0.290000</speed>
</trkpt>
<trkpt lat="44.608574" lon="33.740803">
<ele>329.730713</ele>
<time>2011-10-11T07:32:03Z</time>
<desc>lat.=44.608574, lon.=33.740803, Alt.=329.730713m. Speed=0.684000m/h.</desc>
<speed>0.190000</speed>
</trkpt>
<trkpt lat="44.608578" lon="33.740795">
<ele>329.707275</ele>
<time>2011-10-11T07:32:08Z</time>
<desc>lat.=44.608578, lon.=33.740795, Alt.=329.707275m. Speed=0.648000m/h.</desc>
<speed>0.180000</speed>
</trkpt>
<trkpt lat="44.608578" lon="33.740784">
<ele>329.683838</ele>
<time>2011-10-11T07:32:13Z</time>
<desc>lat.=44.608578, lon.=33.740784, Alt.=329.683838m. Speed=0.432000m/h.</desc>
<speed>0.120000</speed>
</trkpt>
<trkpt lat="44.608585" lon="33.740780">
<ele>329.660400</ele>
<time>2011-10-11T07:32:18Z</time>
<desc>lat.=44.608585, lon.=33.740780, Alt.=329.660400m. Speed=0.468000m/h.</desc>
<speed>0.130000</speed>
</trkpt>
<trkpt lat="44.608585" lon="33.740772">
<ele>329.660400</ele>
<time>2011-10-11T07:32:23Z</time>
<desc>lat.=44.608585, lon.=33.740772, Alt.=329.660400m. Speed=0.576000m/h.</desc>
<speed>0.160000</speed>
</trkpt>
<trkpt lat="44.608578" lon="33.740765">
<ele>329.636963</ele>
<time>2011-10-11T07:32:28Z</time>
<desc>lat.=44.608578, lon.=33.740765, Alt.=329.636963m. Speed=0.720000m/h.</desc>
<speed>0.200000</speed>
</trkpt>
<trkpt lat="44.608574" lon="33.740757">
<ele>329.605713</ele>
<time>2011-10-11T07:32:33Z</time>
<desc>lat.=44.608574, lon.=33.740757, Alt.=329.605713m. Speed=0.648000m/h.</desc>
<speed>0.180000</speed>
</trkpt>
<trkpt lat="44.608566" lon="33.740753">
<ele>329.597900</ele>
<time>2011-10-11T07:32:38Z</time>
<desc>lat.=44.608566, lon.=33.740753, Alt.=329.597900m. Speed=0.792000m/h.</desc>
<speed>0.220000</speed>
</trkpt>
<trkpt lat="44.608559" lon="33.740746">
<ele>329.574463</ele>
<time>2011-10-11T07:32:43Z</time>
<desc>lat.=44.608559, lon.=33.740746, Alt.=329.574463m. Speed=0.432000m/h.</desc>
<speed>0.120000</speed>
</trkpt>
<trkpt lat="44.608555" lon="33.740742">
<ele>329.535400</ele>
<time>2011-10-11T07:32:48Z</time>
<desc>lat.=44.608555, lon.=33.740742, Alt.=329.535400m. Speed=0.648000m/h.</desc>
<speed>0.180000</speed>
</trkpt>
<trkpt lat="44.608505" lon="33.740765">
<ele>329.043213</ele>
<time>2011-10-11T07:32:53Z</time>
<desc>lat.=44.608505, lon.=33.740765, Alt.=329.043213m. Speed=4.248000m/h.</desc>
<speed>1.180000</speed>
</trkpt>
<trkpt lat="44.608490" lon="33.740772">
<ele>328.488525</ele>
<time>2011-10-11T07:32:58Z</time>
<desc>lat.=44.608490, lon.=33.740772, Alt.=328.488525m. Speed=0.684000m/h.</desc>
<speed>0.190000</speed>
</trkpt>
<trkpt lat="44.608482" lon="33.740772">
<ele>328.449463</ele>
<time>2011-10-11T07:33:03Z</time>
<desc>lat.=44.608482, lon.=33.740772, Alt.=328.449463m. Speed=0.144000m/h.</desc>
<speed>0.040000</speed>
</trkpt>
<trkpt lat="44.608486" lon="33.740768">
<ele>328.277588</ele>
<time>2011-10-11T07:33:08Z</time>
<desc>lat.=44.608486, lon.=33.740768, Alt.=328.277588m. Speed=0.792000m/h.</desc>
<speed>0.220000</speed>
</trkpt>
<trkpt lat="44.608486" lon="33.740761">
<ele>328.152588</ele>
<time>2011-10-11T07:33:13Z</time>
<desc>lat.=44.608486, lon.=33.740761, Alt.=328.152588m. Speed=0.036000m/h.</desc>
<speed>0.010000</speed>
</trkpt>
<trkpt lat="44.608482" lon="33.740768">
<ele>328.199463</ele>
<time>2011-10-11T07:33:18Z</time>
<desc>lat.=44.608482, lon.=33.740768, Alt.=328.199463m. Speed=1.368000m/h.</desc>
<speed>0.380000</speed>
</trkpt>
<trkpt lat="44.608494" lon="33.740803">
<ele>328.152588</ele>
<time>2011-10-11T07:33:23Z</time>
<desc>lat.=44.608494, lon.=33.740803, Alt.=328.152588m. Speed=2.088000m/h.</desc>
<speed>0.580000</speed>
</trkpt>
<trkpt lat="44.608521" lon="33.740807">
<ele>328.121338</ele>
<time>2011-10-11T07:33:28Z</time>
<desc>lat.=44.608521, lon.=33.740807, Alt.=328.121338m. Speed=1.800000m/h.</desc>
<speed>0.500000</speed>
</trkpt>
<trkpt lat="44.608524" lon="33.740795">
<ele>328.105713</ele>
<time>2011-10-11T07:33:33Z</time>
<desc>lat.=44.608524, lon.=33.740795, Alt.=328.105713m. Speed=0.792000m/h.</desc>
<speed>0.220000</speed>
</trkpt>
<trkpt lat="44.608528" lon="33.740788">
<ele>328.105713</ele>
<time>2011-10-11T07:33:38Z</time>
<desc>lat.=44.608528, lon.=33.740788, Alt.=328.105713m. Speed=1.476000m/h.</desc>
<speed>0.410000</speed>
</trkpt>
<trkpt lat="44.608532" lon="33.740814">
<ele>327.996338</ele>
<time>2011-10-11T07:33:43Z</time>
<desc>lat.=44.608532, lon.=33.740814, Alt.=327.996338m. Speed=1.224000m/h.</desc>
<speed>0.340000</speed>
</trkpt>
<trkpt lat="44.608467" lon="33.740868">
<ele>327.457275</ele>
<time>2011-10-11T07:33:48Z</time>
<desc>lat.=44.608467, lon.=33.740868, Alt.=327.457275m. Speed=0.648000m/h.</desc>
<speed>0.180000</speed>
</trkpt>
<trkpt lat="44.608498" lon="33.740871">
<ele>327.019775</ele>
<time>2011-10-11T07:33:53Z</time>
<desc>lat.=44.608498, lon.=33.740871, Alt.=327.019775m. Speed=3.960000m/h.</desc>
<speed>1.100000</speed>
</trkpt>
<trkpt lat="44.608528" lon="33.740833">
<ele>326.918213</ele>
<time>2011-10-11T07:33:58Z</time>
<desc>lat.=44.608528, lon.=33.740833, Alt.=326.918213m. Speed=3.600000m/h.</desc>
<speed>1.000000</speed>
</trkpt>
<trkpt lat="44.608521" lon="33.740784">
<ele>326.808838</ele>
<time>2011-10-11T07:34:03Z</time>
<desc>lat.=44.608521, lon.=33.740784, Alt.=326.808838m. Speed=2.268000m/h.</desc>
<speed>0.630000</speed>
</trkpt>
<trkpt lat="44.608513" lon="33.740791">
<ele>326.722900</ele>
<time>2011-10-11T07:34:08Z</time>
<desc>lat.=44.608513, lon.=33.740791, Alt.=326.722900m. Speed=0.684000m/h.</desc>
<speed>0.190000</speed>
</trkpt>
<trkpt lat="44.608459" lon="33.740761">
<ele>326.668213</ele>
<time>2011-10-11T07:34:13Z</time>
<desc>lat.=44.608459, lon.=33.740761, Alt.=326.668213m. Speed=1.872000m/h.</desc>
<speed>0.520000</speed>
</trkpt>
<trkpt lat="44.608463" lon="33.740677">
<ele>326.535400</ele>
<time>2011-10-11T07:34:18Z</time>
<desc>lat.=44.608463, lon.=33.740677, Alt.=326.535400m. Speed=3.384000m/h.</desc>
<speed>0.940000</speed>
</trkpt>
<trkpt lat="44.608452" lon="33.740597">
<ele>326.441650</ele>
<time>2011-10-11T07:34:23Z</time>
<desc>lat.=44.608452, lon.=33.740597, Alt.=326.441650m. Speed=3.672000m/h.</desc>
<speed>1.020000</speed>
</trkpt>
<trkpt lat="44.608395" lon="33.740585">
<ele>326.371338</ele>
<time>2011-10-11T07:34:28Z</time>
<desc>lat.=44.608395, lon.=33.740585, Alt.=326.371338m. Speed=2.736000m/h.</desc>
<speed>0.760000</speed>
</trkpt>
<trkpt lat="44.608322" lon="33.740562">
<ele>326.254150</ele>
<time>2011-10-11T07:34:33Z</time>
<desc>lat.=44.608322, lon.=33.740562, Alt.=326.254150m. Speed=3.276000m/h.</desc>
<speed>0.910000</speed>
</trkpt>
<trkpt lat="44.608242" lon="33.740536">
<ele>326.176025</ele>
<time>2011-10-11T07:34:38Z</time>
<desc>lat.=44.608242, lon.=33.740536, Alt.=326.176025m. Speed=3.564000m/h.</desc>
<speed>0.990000</speed>
</trkpt>
<trkpt lat="44.608135" lon="33.740540">
<ele>325.996338</ele>
<time>2011-10-11T07:34:43Z</time>
<desc>lat.=44.608135, lon.=33.740540, Alt.=325.996338m. Speed=4.392000m/h.</desc>
<speed>1.220000</speed>
</trkpt>
<trkpt lat="44.608128" lon="33.740459">
<ele>325.863525</ele>
<time>2011-10-11T07:34:48Z</time>
<desc>lat.=44.608128, lon.=33.740459, Alt.=325.863525m. Speed=2.628000m/h.</desc>
<speed>0.730000</speed>
</trkpt>
<trkpt lat="44.608372" lon="33.740650">
<ele>325.941650</ele>
<time>2011-10-11T07:34:53Z</time>
<desc>lat.=44.608372, lon.=33.740650, Alt.=325.941650m. Speed=1.368000m/h.</desc>
<speed>0.380000</speed>
</trkpt>
<trkpt lat="44.608421" lon="33.740635">
<ele>325.816650</ele>
<time>2011-10-11T07:34:58Z</time>
<desc>lat.=44.608421, lon.=33.740635, Alt.=325.816650m. Speed=3.168000m/h.</desc>
<speed>0.880000</speed>
</trkpt>
<trkpt lat="44.608448" lon="33.740635">
<ele>325.590088</ele>
<time>2011-10-11T07:35:03Z</time>
<desc>lat.=44.608448, lon.=33.740635, Alt.=325.590088m. Speed=0.720000m/h.</desc>
<speed>0.200000</speed>
</trkpt>
<trkpt lat="44.608448" lon="33.740608">
<ele>325.527588</ele>
<time>2011-10-11T07:35:08Z</time>
<desc>lat.=44.608448, lon.=33.740608, Alt.=325.527588m. Speed=1.584000m/h.</desc>
<speed>0.440000</speed>
</trkpt>
<trkpt lat="44.608421" lon="33.740597">
<ele>325.488525</ele>
<time>2011-10-11T07:35:13Z</time>
<desc>lat.=44.608421, lon.=33.740597, Alt.=325.488525m. Speed=1.728000m/h.</desc>
<speed>0.480000</speed>
</trkpt>
<trkpt lat="44.608398" lon="33.740555">
<ele>326.058838</ele>
<time>2011-10-11T07:35:18Z</time>
<desc>lat.=44.608398, lon.=33.740555, Alt.=326.058838m. Speed=1.872000m/h.</desc>
<speed>0.520000</speed>
</trkpt>
<trkpt lat="44.608387" lon="33.740543">
<ele>326.051025</ele>
<time>2011-10-11T07:35:23Z</time>
<desc>lat.=44.608387, lon.=33.740543, Alt.=326.051025m. Speed=2.772000m/h.</desc>
<speed>0.770000</speed>
</trkpt>
<trkpt lat="44.608418" lon="33.740532">
<ele>325.472900</ele>
<time>2011-10-11T07:35:28Z</time>
<desc>lat.=44.608418, lon.=33.740532, Alt.=325.472900m. Speed=0.792000m/h.</desc>
<speed>0.220000</speed>
</trkpt>
<trkpt lat="44.608414" lon="33.740524">
<ele>326.535400</ele>
<time>2011-10-11T07:35:33Z</time>
<desc>lat.=44.608414, lon.=33.740524, Alt.=326.535400m. Speed=1.332000m/h.</desc>
<speed>0.370000</speed>
</trkpt>
<trkpt lat="44.608398" lon="33.740524">
<ele>327.035400</ele>
<time>2011-10-11T07:35:38Z</time>
<desc>lat.=44.608398, lon.=33.740524, Alt.=327.035400m. Speed=1.512000m/h.</desc>
<speed>0.420000</speed>
</trkpt>
<trkpt lat="44.608372" lon="33.740528">
<ele>326.363525</ele>
<time>2011-10-11T07:35:43Z</time>
<desc>lat.=44.608372, lon.=33.740528, Alt.=326.363525m. Speed=0.180000m/h.</desc>
<speed>0.050000</speed>
</trkpt>
<trkpt lat="44.608372" lon="33.740524">
<ele>326.355713</ele>
<time>2011-10-11T07:35:48Z</time>
<desc>lat.=44.608372, lon.=33.740524, Alt.=326.355713m. Speed=0.288000m/h.</desc>
<speed>0.080000</speed>
</trkpt>
<trkpt lat="44.608368" lon="33.740528">
<ele>326.371338</ele>
<time>2011-10-11T07:35:53Z</time>
<desc>lat.=44.608368, lon.=33.740528, Alt.=326.371338m. Speed=1.080000m/h.</desc>
<speed>0.300000</speed>
</trkpt>
<trkpt lat="44.608353" lon="33.740532">
<ele>326.551025</ele>
<time>2011-10-11T07:35:58Z</time>
<desc>lat.=44.608353, lon.=33.740532, Alt.=326.551025m. Speed=0.972000m/h.</desc>
<speed>0.270000</speed>
</trkpt>
<trkpt lat="44.608356" lon="33.740540">
<ele>325.863525</ele>
<time>2011-10-11T07:36:03Z</time>
<desc>lat.=44.608356, lon.=33.740540, Alt.=325.863525m. Speed=0.756000m/h.</desc>
<speed>0.210000</speed>
</trkpt>
<trkpt lat="44.608360" lon="33.740528">
<ele>325.613525</ele>
<time>2011-10-11T07:36:08Z</time>
<desc>lat.=44.608360, lon.=33.740528, Alt.=325.613525m. Speed=1.044000m/h.</desc>
<speed>0.290000</speed>
</trkpt>
<trkpt lat="44.608360" lon="33.740532">
<ele>325.371338</ele>
<time>2011-10-11T07:36:13Z</time>
<desc>lat.=44.608360, lon.=33.740532, Alt.=325.371338m. Speed=0.468000m/h.</desc>
<speed>0.130000</speed>
</trkpt>
<trkpt lat="44.608360" lon="33.740532">
<ele>325.191650</ele>
<time>2011-10-11T07:36:18Z</time>
<desc>lat.=44.608360, lon.=33.740532, Alt.=325.191650m. Speed=0.360000m/h.</desc>
<speed>0.100000</speed>
</trkpt>
<trkpt lat="44.608360" lon="33.740543">
<ele>325.199463</ele>
<time>2011-10-11T07:36:23Z</time>
<desc>lat.=44.608360, lon.=33.740543, Alt.=325.199463m. Speed=0.216000m/h.</desc>
<speed>0.060000</speed>
</trkpt>
<trkpt lat="44.608356" lon="33.740547">
<ele>325.238525</ele>
<time>2011-10-11T07:36:28Z</time>
<desc>lat.=44.608356, lon.=33.740547, Alt.=325.238525m. Speed=0.540000m/h.</desc>
<speed>0.150000</speed>
</trkpt>
<trkpt lat="44.608353" lon="33.740547">
<ele>325.254150</ele>
<time>2011-10-11T07:36:33Z</time>
<desc>lat.=44.608353, lon.=33.740547, Alt.=325.254150m. Speed=1.224000m/h.</desc>
<speed>0.340000</speed>
</trkpt>
<trkpt lat="44.608356" lon="33.740559">
<ele>324.949463</ele>
<time>2011-10-11T07:36:38Z</time>
<desc>lat.=44.608356, lon.=33.740559, Alt.=324.949463m. Speed=0.144000m/h.</desc>
<speed>0.040000</speed>
</trkpt>
<trkpt lat="44.608353" lon="33.740562">
<ele>324.886963</ele>
<time>2011-10-11T07:36:43Z</time>
<desc>lat.=44.608353, lon.=33.740562, Alt.=324.886963m. Speed=0.504000m/h.</desc>
<speed>0.140000</speed>
</trkpt>
<trkpt lat="44.608356" lon="33.740547">
<ele>324.722900</ele>
<time>2011-10-11T07:36:48Z</time>
<desc>lat.=44.608356, lon.=33.740547, Alt.=324.722900m. Speed=1.296000m/h.</desc>
<speed>0.360000</speed>
</trkpt>
<trkpt lat="44.608345" lon="33.740509">
<ele>324.324463</ele>
<time>2011-10-11T07:36:53Z</time>
<desc>lat.=44.608345, lon.=33.740509, Alt.=324.324463m. Speed=1.476000m/h.</desc>
<speed>0.410000</speed>
</trkpt>
<trkpt lat="44.608307" lon="33.740501">
<ele>324.269775</ele>
<time>2011-10-11T07:36:58Z</time>
<desc>lat.=44.608307, lon.=33.740501, Alt.=324.269775m. Speed=1.224000m/h.</desc>
<speed>0.340000</speed>
</trkpt>
<trkpt lat="44.608292" lon="33.740498">
<ele>324.308838</ele>
<time>2011-10-11T07:37:03Z</time>
<desc>lat.=44.608292, lon.=33.740498, Alt.=324.308838m. Speed=0.792000m/h.</desc>
<speed>0.220000</speed>
</trkpt>
<trkpt lat="44.608284" lon="33.740498">
<ele>323.918213</ele>
<time>2011-10-11T07:37:08Z</time>
<desc>lat.=44.608284, lon.=33.740498, Alt.=323.918213m. Speed=0.252000m/h.</desc>
<speed>0.070000</speed>
</trkpt>
<trkpt lat="44.608307" lon="33.740555">
<ele>323.551025</ele>
<time>2011-10-11T07:37:13Z</time>
<desc>lat.=44.608307, lon.=33.740555, Alt.=323.551025m. Speed=1.692000m/h.</desc>
<speed>0.470000</speed>
</trkpt>
<trkpt lat="44.608315" lon="33.740536">
<ele>322.668213</ele>
<time>2011-10-11T07:37:18Z</time>
<desc>lat.=44.608315, lon.=33.740536, Alt.=322.668213m. Speed=2.052000m/h.</desc>
<speed>0.570000</speed>
</trkpt>
<trkpt lat="44.608318" lon="33.740532">
<ele>322.590088</ele>
<time>2011-10-11T07:37:23Z</time>
<desc>lat.=44.608318, lon.=33.740532, Alt.=322.590088m. Speed=0.828000m/h.</desc>
<speed>0.230000</speed>
</trkpt>
<trkpt lat="44.608330" lon="33.740540">
<ele>322.340088</ele>
<time>2011-10-11T07:37:28Z</time>
<desc>lat.=44.608330, lon.=33.740540, Alt.=322.340088m. Speed=0.360000m/h.</desc>
<speed>0.100000</speed>
</trkpt>
<trkpt lat="44.608315" lon="33.740528">
<ele>321.426025</ele>
<time>2011-10-11T07:37:33Z</time>
<desc>lat.=44.608315, lon.=33.740528, Alt.=321.426025m. Speed=0.216000m/h.</desc>
<speed>0.060000</speed>
</trkpt>
<trkpt lat="44.608303" lon="33.740532">
<ele>320.629150</ele>
<time>2011-10-11T07:37:38Z</time>
<desc>lat.=44.608303, lon.=33.740532, Alt.=320.629150m. Speed=0.360000m/h.</desc>
<speed>0.100000</speed>
</trkpt>
<trkpt lat="44.608311" lon="33.740536">
<ele>319.808838</ele>
<time>2011-10-11T07:37:43Z</time>
<desc>lat.=44.608311, lon.=33.740536, Alt.=319.808838m. Speed=0.108000m/h.</desc>
<speed>0.030000</speed>
</trkpt>
<trkpt lat="44.608322" lon="33.740532">
<ele>320.426025</ele>
<time>2011-10-11T07:37:48Z</time>
<desc>lat.=44.608322, lon.=33.740532, Alt.=320.426025m. Speed=0.324000m/h.</desc>
<speed>0.090000</speed>
</trkpt>
<trkpt lat="44.608341" lon="33.740540">
<ele>321.371338</ele>
<time>2011-10-11T07:37:53Z</time>
<desc>lat.=44.608341, lon.=33.740540, Alt.=321.371338m. Speed=0.180000m/h.</desc>
<speed>0.050000</speed>
</trkpt>
<trkpt lat="44.608341" lon="33.740540">
<ele>321.371338</ele>
<time>2011-10-11T07:37:58Z</time>
<desc>lat.=44.608341, lon.=33.740540, Alt.=321.371338m. Speed=0.000000m/h.</desc>
<speed>0.000000</speed>
</trkpt>
<trkpt lat="44.608341" lon="33.740540">
<ele>321.371338</ele>
<time>2011-10-11T07:38:03Z</time>
<desc>lat.=44.608341, lon.=33.740540, Alt.=321.371338m. Speed=0.072000m/h.</desc>
<speed>0.020000</speed>
</trkpt>
<trkpt lat="44.608337" lon="33.740536">
<ele>321.340088</ele>
<time>2011-10-11T07:38:08Z</time>
<desc>lat.=44.608337, lon.=33.740536, Alt.=321.340088m. Speed=0.216000m/h.</desc>
<speed>0.060000</speed>
</trkpt>
<trkpt lat="44.608337" lon="33.740536">
<ele>321.332275</ele>
<time>2011-10-11T07:38:13Z</time>
<desc>lat.=44.608337, lon.=33.740536, Alt.=321.332275m. Speed=0.072000m/h.</desc>
<speed>0.020000</speed>
</trkpt>
<trkpt lat="44.608337" lon="33.740536">
<ele>321.324463</ele>
<time>2011-10-11T07:38:18Z</time>
<desc>lat.=44.608337, lon.=33.740536, Alt.=321.324463m. Speed=0.072000m/h.</desc>
<speed>0.020000</speed>
</trkpt>
<trkpt lat="44.608337" lon="33.740536">
<ele>321.324463</ele>
<time>2011-10-11T07:38:23Z</time>
<desc>lat.=44.608337, lon.=33.740536, Alt.=321.324463m. Speed=0.036000m/h.</desc>
<speed>0.010000</speed>
</trkpt>
<trkpt lat="44.608337" lon="33.740536">
<ele>321.332275</ele>
<time>2011-10-11T07:38:28Z</time>
<desc>lat.=44.608337, lon.=33.740536, Alt.=321.332275m. Speed=0.036000m/h.</desc>
<speed>0.010000</speed>
</trkpt>
<trkpt lat="44.608337" lon="33.740536">
<ele>321.355713</ele>
<time>2011-10-11T07:38:33Z</time>
<desc>lat.=44.608337, lon.=33.740536, Alt.=321.355713m. Speed=0.108000m/h.</desc>
<speed>0.030000</speed>
</trkpt>
<trkpt lat="44.608337" lon="33.740536">
<ele>321.379150</ele>
<time>2011-10-11T07:38:38Z</time>
<desc>lat.=44.608337, lon.=33.740536, Alt.=321.379150m. Speed=0.180000m/h.</desc>
<speed>0.050000</speed>
</trkpt>
<trkpt lat="44.608337" lon="33.740536">
<ele>321.410400</ele>
<time>2011-10-11T07:38:43Z</time>
<desc>lat.=44.608337, lon.=33.740536, Alt.=321.410400m. Speed=0.252000m/h.</desc>
<speed>0.070000</speed>
</trkpt>
<trkpt lat="44.608337" lon="33.740532">
<ele>321.379150</ele>
<time>2011-10-11T07:38:48Z</time>
<desc>lat.=44.608337, lon.=33.740532, Alt.=321.379150m. Speed=0.216000m/h.</desc>
<speed>0.060000</speed>
</trkpt>
<trkpt lat="44.608334" lon="33.740528">
<ele>321.418213</ele>
<time>2011-10-11T07:38:53Z</time>
<desc>lat.=44.608334, lon.=33.740528, Alt.=321.418213m. Speed=1.152000m/h.</desc>
<speed>0.320000</speed>
</trkpt>
<trkpt lat="44.608280" lon="33.740494">
<ele>323.332275</ele>
<time>2011-10-11T07:38:58Z</time>
<desc>lat.=44.608280, lon.=33.740494, Alt.=323.332275m. Speed=1.728000m/h.</desc>
<speed>0.480000</speed>
</trkpt>
<trkpt lat="44.608231" lon="33.740452">
<ele>322.613525</ele>
<time>2011-10-11T07:39:03Z</time>
<desc>lat.=44.608231, lon.=33.740452, Alt.=322.613525m. Speed=2.232000m/h.</desc>
<speed>0.620000</speed>
</trkpt>
<trkpt lat="44.608166" lon="33.740398">
<ele>322.269775</ele>
<time>2011-10-11T07:39:08Z</time>
<desc>lat.=44.608166, lon.=33.740398, Alt.=322.269775m. Speed=3.708000m/h.</desc>
<speed>1.030000</speed>
</trkpt>
<trkpt lat="44.608105" lon="33.740372">
<ele>322.316650</ele>
<time>2011-10-11T07:39:13Z</time>
<desc>lat.=44.608105, lon.=33.740372, Alt.=322.316650m. Speed=3.564000m/h.</desc>
<speed>0.990000</speed>
</trkpt>
<trkpt lat="44.608017" lon="33.740356">
<ele>323.191650</ele>
<time>2011-10-11T07:39:18Z</time>
<desc>lat.=44.608017, lon.=33.740356, Alt.=323.191650m. Speed=4.212000m/h.</desc>
<speed>1.170000</speed>
</trkpt>
<trkpt lat="44.607929" lon="33.740314">
<ele>323.488525</ele>
<time>2011-10-11T07:39:23Z</time>
<desc>lat.=44.607929, lon.=33.740314, Alt.=323.488525m. Speed=5.508000m/h.</desc>
<speed>1.530000</speed>
</trkpt>
<trkpt lat="44.607845" lon="33.740292">
<ele>324.457275</ele>
<time>2011-10-11T07:39:28Z</time>
<desc>lat.=44.607845, lon.=33.740292, Alt.=324.457275m. Speed=6.948000m/h.</desc>
<speed>1.930000</speed>
</trkpt>
<trkpt lat="44.607769" lon="33.740265">
<ele>325.136963</ele>
<time>2011-10-11T07:39:33Z</time>
<desc>lat.=44.607769, lon.=33.740265, Alt.=325.136963m. Speed=5.328000m/h.</desc>
<speed>1.480000</speed>
</trkpt>
<trkpt lat="44.607704" lon="33.740253">
<ele>326.261963</ele>
<time>2011-10-11T07:39:38Z</time>
<desc>lat.=44.607704, lon.=33.740253, Alt.=326.261963m. Speed=4.752000m/h.</desc>
<speed>1.320000</speed>
</trkpt>
<trkpt lat="44.607658" lon="33.740219">
<ele>325.808838</ele>
<time>2011-10-11T07:39:43Z</time>
<desc>lat.=44.607658, lon.=33.740219, Alt.=325.808838m. Speed=3.024000m/h.</desc>
<speed>0.840000</speed>
</trkpt>
<trkpt lat="44.607635" lon="33.740196">
<ele>324.386963</ele>
<time>2011-10-11T07:39:48Z</time>
<desc>lat.=44.607635, lon.=33.740196, Alt.=324.386963m. Speed=1.944000m/h.</desc>
<speed>0.540000</speed>
</trkpt>
<trkpt lat="44.607590" lon="33.740177">
<ele>323.824463</ele>
<time>2011-10-11T07:39:53Z</time>
<desc>lat.=44.607590, lon.=33.740177, Alt.=323.824463m. Speed=2.772000m/h.</desc>
<speed>0.770000</speed>
</trkpt>
<trkpt lat="44.607574" lon="33.740147">
<ele>323.191650</ele>
<time>2011-10-11T07:39:58Z</time>
<desc>lat.=44.607574, lon.=33.740147, Alt.=323.191650m. Speed=0.900000m/h.</desc>
<speed>0.250000</speed>
</trkpt>
<trkpt lat="44.607559" lon="33.740150">
<ele>322.590088</ele>
<time>2011-10-11T07:40:03Z</time>
<desc>lat.=44.607559, lon.=33.740150, Alt.=322.590088m. Speed=0.648000m/h.</desc>
<speed>0.180000</speed>
</trkpt>
<trkpt lat="44.607552" lon="33.740147">
<ele>321.886963</ele>
<time>2011-10-11T07:40:08Z</time>
<desc>lat.=44.607552, lon.=33.740147, Alt.=321.886963m. Speed=0.324000m/h.</desc>
<speed>0.090000</speed>
</trkpt>
<trkpt lat="44.607552" lon="33.740154">
<ele>321.363525</ele>
<time>2011-10-11T07:40:13Z</time>
<desc>lat.=44.607552, lon.=33.740154, Alt.=321.363525m. Speed=1.152000m/h.</desc>
<speed>0.320000</speed>
</trkpt>
<trkpt lat="44.607536" lon="33.740124">
<ele>320.972900</ele>
<time>2011-10-11T07:40:18Z</time>
<desc>lat.=44.607536, lon.=33.740124, Alt.=320.972900m. Speed=0.864000m/h.</desc>
<speed>0.240000</speed>
</trkpt>
<trkpt lat="44.607540" lon="33.740120">
<ele>321.121338</ele>
<time>2011-10-11T07:40:23Z</time>
<desc>lat.=44.607540, lon.=33.740120, Alt.=321.121338m. Speed=0.504000m/h.</desc>
<speed>0.140000</speed>
</trkpt>
<trkpt lat="44.607540" lon="33.740116">
<ele>321.058838</ele>
<time>2011-10-11T07:40:28Z</time>
<desc>lat.=44.607540, lon.=33.740116, Alt.=321.058838m. Speed=0.900000m/h.</desc>
<speed>0.250000</speed>
</trkpt>
<trkpt lat="44.607529" lon="33.740078">
<ele>320.801025</ele>
<time>2011-10-11T07:40:33Z</time>
<desc>lat.=44.607529, lon.=33.740078, Alt.=320.801025m. Speed=2.124000m/h.</desc>
<speed>0.590000</speed>
</trkpt>
<trkpt lat="44.607521" lon="33.740044">
<ele>320.535400</ele>
<time>2011-10-11T07:40:38Z</time>
<desc>lat.=44.607521, lon.=33.740044, Alt.=320.535400m. Speed=1.224000m/h.</desc>
<speed>0.340000</speed>
</trkpt>
<trkpt lat="44.607536" lon="33.740040">
<ele>319.957275</ele>
<time>2011-10-11T07:40:43Z</time>
<desc>lat.=44.607536, lon.=33.740040, Alt.=319.957275m. Speed=1.080000m/h.</desc>
<speed>0.300000</speed>
</trkpt>
<trkpt lat="44.607540" lon="33.740044">
<ele>319.324463</ele>
<time>2011-10-11T07:40:48Z</time>
<desc>lat.=44.607540, lon.=33.740044, Alt.=319.324463m. Speed=0.540000m/h.</desc>
<speed>0.150000</speed>
</trkpt>
<trkpt lat="44.607540" lon="33.740036">
<ele>319.457275</ele>
<time>2011-10-11T07:40:53Z</time>
<desc>lat.=44.607540, lon.=33.740036, Alt.=319.457275m. Speed=0.612000m/h.</desc>
<speed>0.170000</speed>
</trkpt>
<trkpt lat="44.607525" lon="33.740009">
<ele>318.551025</ele>
<time>2011-10-11T07:40:58Z</time>
<desc>lat.=44.607525, lon.=33.740009, Alt.=318.551025m. Speed=2.052000m/h.</desc>
<speed>0.570000</speed>
</trkpt>
<trkpt lat="44.607521" lon="33.739983">
<ele>318.168213</ele>
<time>2011-10-11T07:41:03Z</time>
<desc>lat.=44.607521, lon.=33.739983, Alt.=318.168213m. Speed=0.972000m/h.</desc>
<speed>0.270000</speed>
</trkpt>
<trkpt lat="44.607510" lon="33.739964">
<ele>317.824463</ele>
<time>2011-10-11T07:41:08Z</time>
<desc>lat.=44.607510, lon.=33.739964, Alt.=317.824463m. Speed=1.152000m/h.</desc>
<speed>0.320000</speed>
</trkpt>
<trkpt lat="44.607513" lon="33.739918">
<ele>318.379150</ele>
<time>2011-10-11T07:41:13Z</time>
<desc>lat.=44.607513, lon.=33.739918, Alt.=318.379150m. Speed=1.296000m/h.</desc>
<speed>0.360000</speed>
</trkpt>
<trkpt lat="44.607506" lon="33.739895">
<ele>318.918213</ele>
<time>2011-10-11T07:41:18Z</time>
<desc>lat.=44.607506, lon.=33.739895, Alt.=318.918213m. Speed=1.764000m/h.</desc>
<speed>0.490000</speed>
</trkpt>
<trkpt lat="44.607502" lon="33.739876">
<ele>319.324463</ele>
<time>2011-10-11T07:41:23Z</time>
<desc>lat.=44.607502, lon.=33.739876, Alt.=319.324463m. Speed=1.548000m/h.</desc>
<speed>0.430000</speed>
</trkpt>
<trkpt lat="44.607525" lon="33.739819">
<ele>319.644775</ele>
<time>2011-10-11T07:41:28Z</time>
<desc>lat.=44.607525, lon.=33.739819, Alt.=319.644775m. Speed=1.620000m/h.</desc>
<speed>0.450000</speed>
</trkpt>
<trkpt lat="44.607548" lon="33.739761">
<ele>322.613525</ele>
<time>2011-10-11T07:41:33Z</time>
<desc>lat.=44.607548, lon.=33.739761, Alt.=322.613525m. Speed=0.828000m/h.</desc>
<speed>0.230000</speed>
</trkpt>
<trkpt lat="44.607548" lon="33.739754">
<ele>322.730713</ele>
<time>2011-10-11T07:41:38Z</time>
<desc>lat.=44.607548, lon.=33.739754, Alt.=322.730713m. Speed=0.432000m/h.</desc>
<speed>0.120000</speed>
</trkpt>
<trkpt lat="44.607552" lon="33.739746">
<ele>322.894775</ele>
<time>2011-10-11T07:41:43Z</time>
<desc>lat.=44.607552, lon.=33.739746, Alt.=322.894775m. Speed=0.324000m/h.</desc>
<speed>0.090000</speed>
</trkpt>
<trkpt lat="44.607552" lon="33.739754">
<ele>323.043213</ele>
<time>2011-10-11T07:41:48Z</time>
<desc>lat.=44.607552, lon.=33.739754, Alt.=323.043213m. Speed=0.396000m/h.</desc>
<speed>0.110000</speed>
</trkpt>
<trkpt lat="44.607548" lon="33.739758">
<ele>323.238525</ele>
<time>2011-10-11T07:41:53Z</time>
<desc>lat.=44.607548, lon.=33.739758, Alt.=323.238525m. Speed=0.612000m/h.</desc>
<speed>0.170000</speed>
</trkpt>
<trkpt lat="44.607540" lon="33.739754">
<ele>323.488525</ele>
<time>2011-10-11T07:41:58Z</time>
<desc>lat.=44.607540, lon.=33.739754, Alt.=323.488525m. Speed=0.828000m/h.</desc>
<speed>0.230000</speed>
</trkpt>
<trkpt lat="44.607521" lon="33.739750">
<ele>323.785400</ele>
<time>2011-10-11T07:42:03Z</time>
<desc>lat.=44.607521, lon.=33.739750, Alt.=323.785400m. Speed=1.584000m/h.</desc>
<speed>0.440000</speed>
</trkpt>
<trkpt lat="44.607475" lon="33.739723">
<ele>323.926025</ele>
<time>2011-10-11T07:42:08Z</time>
<desc>lat.=44.607475, lon.=33.739723, Alt.=323.926025m. Speed=2.556000m/h.</desc>
<speed>0.710000</speed>
</trkpt>
<trkpt lat="44.607433" lon="33.739723">
<ele>324.394775</ele>
<time>2011-10-11T07:42:13Z</time>
<desc>lat.=44.607433, lon.=33.739723, Alt.=324.394775m. Speed=1.980000m/h.</desc>
<speed>0.550000</speed>
</trkpt>
<trkpt lat="44.607342" lon="33.739719">
<ele>325.519775</ele>
<time>2011-10-11T07:42:18Z</time>
<desc>lat.=44.607342, lon.=33.739719, Alt.=325.519775m. Speed=2.664000m/h.</desc>
<speed>0.740000</speed>
</trkpt>
<trkpt lat="44.607265" lon="33.739731">
<ele>325.949463</ele>
<time>2011-10-11T07:42:23Z</time>
<desc>lat.=44.607265, lon.=33.739731, Alt.=325.949463m. Speed=4.140000m/h.</desc>
<speed>1.150000</speed>
</trkpt>
<trkpt lat="44.607231" lon="33.739708">
<ele>325.910400</ele>
<time>2011-10-11T07:42:28Z</time>
<desc>lat.=44.607231, lon.=33.739708, Alt.=325.910400m. Speed=3.168000m/h.</desc>
<speed>0.880000</speed>
</trkpt>
<trkpt lat="44.607185" lon="33.739655">
<ele>324.949463</ele>
<time>2011-10-11T07:42:33Z</time>
<desc>lat.=44.607185, lon.=33.739655, Alt.=324.949463m. Speed=3.528000m/h.</desc>
<speed>0.980000</speed>
</trkpt>
<trkpt lat="44.607132" lon="33.739624">
<ele>324.058838</ele>
<time>2011-10-11T07:42:38Z</time>
<desc>lat.=44.607132, lon.=33.739624, Alt.=324.058838m. Speed=2.448000m/h.</desc>
<speed>0.680000</speed>
</trkpt>
<trkpt lat="44.607090" lon="33.739609">
<ele>322.277588</ele>
<time>2011-10-11T07:42:43Z</time>
<desc>lat.=44.607090, lon.=33.739609, Alt.=322.277588m. Speed=0.396000m/h.</desc>
<speed>0.110000</speed>
</trkpt>
<trkpt lat="44.607082" lon="33.739590">
<ele>322.691650</ele>
<time>2011-10-11T07:42:48Z</time>
<desc>lat.=44.607082, lon.=33.739590, Alt.=322.691650m. Speed=0.792000m/h.</desc>
<speed>0.220000</speed>
</trkpt>
<trkpt lat="44.607079" lon="33.739574">
<ele>323.340088</ele>
<time>2011-10-11T07:42:53Z</time>
<desc>lat.=44.607079, lon.=33.739574, Alt.=323.340088m. Speed=1.188000m/h.</desc>
<speed>0.330000</speed>
</trkpt>
<trkpt lat="44.607079" lon="33.739552">
<ele>324.769775</ele>
<time>2011-10-11T07:42:58Z</time>
<desc>lat.=44.607079, lon.=33.739552, Alt.=324.769775m. Speed=1.908000m/h.</desc>
<speed>0.530000</speed>
</trkpt>
<trkpt lat="44.607086" lon="33.739487">
<ele>325.605713</ele>
<time>2011-10-11T07:43:03Z</time>
<desc>lat.=44.607086, lon.=33.739487, Alt.=325.605713m. Speed=1.908000m/h.</desc>
<speed>0.530000</speed>
</trkpt>
<trkpt lat="44.607059" lon="33.739391">
<ele>325.597900</ele>
<time>2011-10-11T07:43:08Z</time>
<desc>lat.=44.607059, lon.=33.739391, Alt.=325.597900m. Speed=2.304000m/h.</desc>
<speed>0.640000</speed>
</trkpt>
<trkpt lat="44.607033" lon="33.739353">
<ele>324.410400</ele>
<time>2011-10-11T07:43:13Z</time>
<desc>lat.=44.607033, lon.=33.739353, Alt.=324.410400m. Speed=0.900000m/h.</desc>
<speed>0.250000</speed>
</trkpt>
<trkpt lat="44.607052" lon="33.739330">
<ele>325.340088</ele>
<time>2011-10-11T07:43:18Z</time>
<desc>lat.=44.607052, lon.=33.739330, Alt.=325.340088m. Speed=1.584000m/h.</desc>
<speed>0.440000</speed>
</trkpt>
<trkpt lat="44.607052" lon="33.739330">
<ele>324.863525</ele>
<time>2011-10-11T07:43:23Z</time>
<desc>lat.=44.607052, lon.=33.739330, Alt.=324.863525m. Speed=1.008000m/h.</desc>
<speed>0.280000</speed>
</trkpt>
<trkpt lat="44.607044" lon="33.739323">
<ele>324.988525</ele>
<time>2011-10-11T07:43:28Z</time>
<desc>lat.=44.607044, lon.=33.739323, Alt.=324.988525m. Speed=1.044000m/h.</desc>
<speed>0.290000</speed>
</trkpt>
<trkpt lat="44.607037" lon="33.739334">
<ele>325.683838</ele>
<time>2011-10-11T07:43:33Z</time>
<desc>lat.=44.607037, lon.=33.739334, Alt.=325.683838m. Speed=0.540000m/h.</desc>
<speed>0.150000</speed>
</trkpt>
<trkpt lat="44.607018" lon="33.739323">
<ele>325.933838</ele>
<time>2011-10-11T07:43:38Z</time>
<desc>lat.=44.607018, lon.=33.739323, Alt.=325.933838m. Speed=2.520000m/h.</desc>
<speed>0.700000</speed>
</trkpt>
<trkpt lat="44.606995" lon="33.739288">
<ele>326.238525</ele>
<time>2011-10-11T07:43:43Z</time>
<desc>lat.=44.606995, lon.=33.739288, Alt.=326.238525m. Speed=2.700000m/h.</desc>
<speed>0.750000</speed>
</trkpt>
<trkpt lat="44.606976" lon="33.739223">
<ele>326.613525</ele>
<time>2011-10-11T07:43:48Z</time>
<desc>lat.=44.606976, lon.=33.739223, Alt.=326.613525m. Speed=2.628000m/h.</desc>
<speed>0.730000</speed>
</trkpt>
<trkpt lat="44.606941" lon="33.739166">
<ele>326.801025</ele>
<time>2011-10-11T07:43:53Z</time>
<desc>lat.=44.606941, lon.=33.739166, Alt.=326.801025m. Speed=2.700000m/h.</desc>
<speed>0.750000</speed>
</trkpt>
<trkpt lat="44.606903" lon="33.739128">
<ele>326.980713</ele>
<time>2011-10-11T07:43:58Z</time>
<desc>lat.=44.606903, lon.=33.739128, Alt.=326.980713m. Speed=3.492000m/h.</desc>
<speed>0.970000</speed>
</trkpt>
<trkpt lat="44.606846" lon="33.739098">
<ele>326.761963</ele>
<time>2011-10-11T07:44:03Z</time>
<desc>lat.=44.606846, lon.=33.739098, Alt.=326.761963m. Speed=2.376000m/h.</desc>
<speed>0.660000</speed>
</trkpt>
<trkpt lat="44.606842" lon="33.739059">
<ele>327.074463</ele>
<time>2011-10-11T07:44:08Z</time>
<desc>lat.=44.606842, lon.=33.739059, Alt.=327.074463m. Speed=2.016000m/h.</desc>
<speed>0.560000</speed>
</trkpt>
<trkpt lat="44.606842" lon="33.739014">
<ele>327.433838</ele>
<time>2011-10-11T07:44:13Z</time>
<desc>lat.=44.606842, lon.=33.739014, Alt.=327.433838m. Speed=1.728000m/h.</desc>
<speed>0.480000</speed>
</trkpt>
<trkpt lat="44.606831" lon="33.738972">
<ele>328.488525</ele>
<time>2011-10-11T07:44:18Z</time>
<desc>lat.=44.606831, lon.=33.738972, Alt.=328.488525m. Speed=1.260000m/h.</desc>
<speed>0.350000</speed>
</trkpt>
<trkpt lat="44.606815" lon="33.738976">
<ele>330.441650</ele>
<time>2011-10-11T07:44:23Z</time>
<desc>lat.=44.606815, lon.=33.738976, Alt.=330.441650m. Speed=1.620000m/h.</desc>
<speed>0.450000</speed>
</trkpt>
<trkpt lat="44.606785" lon="33.738976">
<ele>330.816650</ele>
<time>2011-10-11T07:44:28Z</time>
<desc>lat.=44.606785, lon.=33.738976, Alt.=330.816650m. Speed=1.908000m/h.</desc>
<speed>0.530000</speed>
</trkpt>
<trkpt lat="44.606724" lon="33.738972">
<ele>330.590088</ele>
<time>2011-10-11T07:44:33Z</time>
<desc>lat.=44.606724, lon.=33.738972, Alt.=330.590088m. Speed=0.504000m/h.</desc>
<speed>0.140000</speed>
</trkpt>
<trkpt lat="44.606724" lon="33.738941">
<ele>330.847900</ele>
<time>2011-10-11T07:44:38Z</time>
<desc>lat.=44.606724, lon.=33.738941, Alt.=330.847900m. Speed=1.872000m/h.</desc>
<speed>0.520000</speed>
</trkpt>
<trkpt lat="44.606724" lon="33.738899">
<ele>330.965088</ele>
<time>2011-10-11T07:44:43Z</time>
<desc>lat.=44.606724, lon.=33.738899, Alt.=330.965088m. Speed=0.468000m/h.</desc>
<speed>0.130000</speed>
</trkpt>
<trkpt lat="44.606716" lon="33.738846">
<ele>331.113525</ele>
<time>2011-10-11T07:44:48Z</time>
<desc>lat.=44.606716, lon.=33.738846, Alt.=331.113525m. Speed=3.276000m/h.</desc>
<speed>0.910000</speed>
</trkpt>
<trkpt lat="44.606731" lon="33.738777">
<ele>331.332275</ele>
<time>2011-10-11T07:44:53Z</time>
<desc>lat.=44.606731, lon.=33.738777, Alt.=331.332275m. Speed=1.908000m/h.</desc>
<speed>0.530000</speed>
</trkpt>
<trkpt lat="44.606731" lon="33.738697">
<ele>331.215088</ele>
<time>2011-10-11T07:44:58Z</time>
<desc>lat.=44.606731, lon.=33.738697, Alt.=331.215088m. Speed=2.700000m/h.</desc>
<speed>0.750000</speed>
</trkpt>
<trkpt lat="44.606731" lon="33.738651">
<ele>330.902588</ele>
<time>2011-10-11T07:45:03Z</time>
<desc>lat.=44.606731, lon.=33.738651, Alt.=330.902588m. Speed=1.224000m/h.</desc>
<speed>0.340000</speed>
</trkpt>
<trkpt lat="44.606724" lon="33.738632">
<ele>330.379150</ele>
<time>2011-10-11T07:45:08Z</time>
<desc>lat.=44.606724, lon.=33.738632, Alt.=330.379150m. Speed=1.188000m/h.</desc>
<speed>0.330000</speed>
</trkpt>
<trkpt lat="44.606712" lon="33.738644">
<ele>331.480713</ele>
<time>2011-10-11T07:45:13Z</time>
<desc>lat.=44.606712, lon.=33.738644, Alt.=331.480713m. Speed=0.936000m/h.</desc>
<speed>0.260000</speed>
</trkpt>
<trkpt lat="44.606678" lon="33.738609">
<ele>331.597900</ele>
<time>2011-10-11T07:45:18Z</time>
<desc>lat.=44.606678, lon.=33.738609, Alt.=331.597900m. Speed=2.376000m/h.</desc>
<speed>0.660000</speed>
</trkpt>
<trkpt lat="44.606651" lon="33.738590">
<ele>331.582275</ele>
<time>2011-10-11T07:45:23Z</time>
<desc>lat.=44.606651, lon.=33.738590, Alt.=331.582275m. Speed=1.764000m/h.</desc>
<speed>0.490000</speed>
</trkpt>
<trkpt lat="44.606617" lon="33.738586">
<ele>331.090088</ele>
<time>2011-10-11T07:45:28Z</time>
<desc>lat.=44.606617, lon.=33.738586, Alt.=331.090088m. Speed=1.656000m/h.</desc>
<speed>0.460000</speed>
</trkpt>
<trkpt lat="44.606602" lon="33.738602">
<ele>330.230713</ele>
<time>2011-10-11T07:45:33Z</time>
<desc>lat.=44.606602, lon.=33.738602, Alt.=330.230713m. Speed=1.404000m/h.</desc>
<speed>0.390000</speed>
</trkpt>
<trkpt lat="44.606571" lon="33.738632">
<ele>331.160400</ele>
<time>2011-10-11T07:45:38Z</time>
<desc>lat.=44.606571, lon.=33.738632, Alt.=331.160400m. Speed=2.952000m/h.</desc>
<speed>0.820000</speed>
</trkpt>
<trkpt lat="44.606560" lon="33.738670">
<ele>330.527588</ele>
<time>2011-10-11T07:45:43Z</time>
<desc>lat.=44.606560, lon.=33.738670, Alt.=330.527588m. Speed=2.304000m/h.</desc>
<speed>0.640000</speed>
</trkpt>
<trkpt lat="44.606529" lon="33.738705">
<ele>330.222900</ele>
<time>2011-10-11T07:45:48Z</time>
<desc>lat.=44.606529, lon.=33.738705, Alt.=330.222900m. Speed=3.240000m/h.</desc>
<speed>0.900000</speed>
</trkpt>
<trkpt lat="44.606503" lon="33.738716">
<ele>330.129150</ele>
<time>2011-10-11T07:45:53Z</time>
<desc>lat.=44.606503, lon.=33.738716, Alt.=330.129150m. Speed=1.404000m/h.</desc>
<speed>0.390000</speed>
</trkpt>
<trkpt lat="44.606461" lon="33.738728">
<ele>330.004150</ele>
<time>2011-10-11T07:45:58Z</time>
<desc>lat.=44.606461, lon.=33.738728, Alt.=330.004150m. Speed=2.016000m/h.</desc>
<speed>0.560000</speed>
</trkpt>
<trkpt lat="44.606411" lon="33.738743">
<ele>330.004150</ele>
<time>2011-10-11T07:46:03Z</time>
<desc>lat.=44.606411, lon.=33.738743, Alt.=330.004150m. Speed=3.168000m/h.</desc>
<speed>0.880000</speed>
</trkpt>
<trkpt lat="44.606369" lon="33.738770">
<ele>330.090088</ele>
<time>2011-10-11T07:46:08Z</time>
<desc>lat.=44.606369, lon.=33.738770, Alt.=330.090088m. Speed=2.700000m/h.</desc>
<speed>0.750000</speed>
</trkpt>
<trkpt lat="44.606323" lon="33.738781">
<ele>330.097900</ele>
<time>2011-10-11T07:46:13Z</time>
<desc>lat.=44.606323, lon.=33.738781, Alt.=330.097900m. Speed=1.908000m/h.</desc>
<speed>0.530000</speed>
</trkpt>
<trkpt lat="44.606285" lon="33.738781">
<ele>330.207275</ele>
<time>2011-10-11T07:46:18Z</time>
<desc>lat.=44.606285, lon.=33.738781, Alt.=330.207275m. Speed=3.348000m/h.</desc>
<speed>0.930000</speed>
</trkpt>
<trkpt lat="44.606243" lon="33.738766">
<ele>330.230713</ele>
<time>2011-10-11T07:46:23Z</time>
<desc>lat.=44.606243, lon.=33.738766, Alt.=330.230713m. Speed=3.096000m/h.</desc>
<speed>0.860000</speed>
</trkpt>
<trkpt lat="44.606266" lon="33.738766">
<ele>329.519775</ele>
<time>2011-10-11T07:46:28Z</time>
<desc>lat.=44.606266, lon.=33.738766, Alt.=329.519775m. Speed=0.000000m/h.</desc>
<speed>0.000000</speed>
</trkpt>
<trkpt lat="44.606266" lon="33.738766">
<ele>329.488525</ele>
<time>2011-10-11T07:46:33Z</time>
<desc>lat.=44.606266, lon.=33.738766, Alt.=329.488525m. Speed=0.324000m/h.</desc>
<speed>0.090000</speed>
</trkpt>
<trkpt lat="44.606266" lon="33.738770">
<ele>329.449463</ele>
<time>2011-10-11T07:46:38Z</time>
<desc>lat.=44.606266, lon.=33.738770, Alt.=329.449463m. Speed=0.072000m/h.</desc>
<speed>0.020000</speed>
</trkpt>
<trkpt lat="44.606289" lon="33.738773">
<ele>329.347900</ele>
<time>2011-10-11T07:46:43Z</time>
<desc>lat.=44.606289, lon.=33.738773, Alt.=329.347900m. Speed=2.160000m/h.</desc>
<speed>0.600000</speed>
</trkpt>
<trkpt lat="44.606289" lon="33.738754">
<ele>329.340088</ele>
<time>2011-10-11T07:46:48Z</time>
<desc>lat.=44.606289, lon.=33.738754, Alt.=329.340088m. Speed=0.936000m/h.</desc>
<speed>0.260000</speed>
</trkpt>
<trkpt lat="44.606281" lon="33.738743">
<ele>329.347900</ele>
<time>2011-10-11T07:46:53Z</time>
<desc>lat.=44.606281, lon.=33.738743, Alt.=329.347900m. Speed=0.684000m/h.</desc>
<speed>0.190000</speed>
</trkpt>
<trkpt lat="44.606281" lon="33.738735">
<ele>329.316650</ele>
<time>2011-10-11T07:46:58Z</time>
<desc>lat.=44.606281, lon.=33.738735, Alt.=329.316650m. Speed=0.936000m/h.</desc>
<speed>0.260000</speed>
</trkpt>
<trkpt lat="44.606293" lon="33.738731">
<ele>329.261963</ele>
<time>2011-10-11T07:47:03Z</time>
<desc>lat.=44.606293, lon.=33.738731, Alt.=329.261963m. Speed=0.648000m/h.</desc>
<speed>0.180000</speed>
</trkpt>
<trkpt lat="44.606293" lon="33.738735">
<ele>329.199463</ele>
<time>2011-10-11T07:47:08Z</time>
<desc>lat.=44.606293, lon.=33.738735, Alt.=329.199463m. Speed=0.468000m/h.</desc>
<speed>0.130000</speed>
</trkpt>
<trkpt lat="44.606297" lon="33.738739">
<ele>329.176025</ele>
<time>2011-10-11T07:47:13Z</time>
<desc>lat.=44.606297, lon.=33.738739, Alt.=329.176025m. Speed=0.720000m/h.</desc>
<speed>0.200000</speed>
</trkpt>
<trkpt lat="44.606297" lon="33.738743">
<ele>329.183838</ele>
<time>2011-10-11T07:47:18Z</time>
<desc>lat.=44.606297, lon.=33.738743, Alt.=329.183838m. Speed=0.432000m/h.</desc>
<speed>0.120000</speed>
</trkpt>
<trkpt lat="44.606297" lon="33.738739">
<ele>329.222900</ele>
<time>2011-10-11T07:47:23Z</time>
<desc>lat.=44.606297, lon.=33.738739, Alt.=329.222900m. Speed=1.476000m/h.</desc>
<speed>0.410000</speed>
</trkpt>
<trkpt lat="44.606285" lon="33.738720">
<ele>328.746338</ele>
<time>2011-10-11T07:47:28Z</time>
<desc>lat.=44.606285, lon.=33.738720, Alt.=328.746338m. Speed=1.980000m/h.</desc>
<speed>0.550000</speed>
</trkpt>
<trkpt lat="44.606247" lon="33.738708">
<ele>328.324463</ele>
<time>2011-10-11T07:47:33Z</time>
<desc>lat.=44.606247, lon.=33.738708, Alt.=328.324463m. Speed=0.792000m/h.</desc>
<speed>0.220000</speed>
</trkpt>
<trkpt lat="44.606243" lon="33.738705">
<ele>328.097900</ele>
<time>2011-10-11T07:47:38Z</time>
<desc>lat.=44.606243, lon.=33.738705, Alt.=328.097900m. Speed=0.504000m/h.</desc>
<speed>0.140000</speed>
</trkpt>
<trkpt lat="44.606243" lon="33.738705">
<ele>328.074463</ele>
<time>2011-10-11T07:47:43Z</time>
<desc>lat.=44.606243, lon.=33.738705, Alt.=328.074463m. Speed=0.324000m/h.</desc>
<speed>0.090000</speed>
</trkpt>
<trkpt lat="44.606243" lon="33.738705">
<ele>328.043213</ele>
<time>2011-10-11T07:47:48Z</time>
<desc>lat.=44.606243, lon.=33.738705, Alt.=328.043213m. Speed=0.252000m/h.</desc>
<speed>0.070000</speed>
</trkpt>
<trkpt lat="44.606243" lon="33.738705">
<ele>328.082275</ele>
<time>2011-10-11T07:47:53Z</time>
<desc>lat.=44.606243, lon.=33.738705, Alt.=328.082275m. Speed=0.360000m/h.</desc>
<speed>0.100000</speed>
</trkpt>
<trkpt lat="44.606243" lon="33.738705">
<ele>328.105713</ele>
<time>2011-10-11T07:47:58Z</time>
<desc>lat.=44.606243, lon.=33.738705, Alt.=328.105713m. Speed=0.144000m/h.</desc>
<speed>0.040000</speed>
</trkpt>
<trkpt lat="44.606243" lon="33.738705">
<ele>328.097900</ele>
<time>2011-10-11T07:48:03Z</time>
<desc>lat.=44.606243, lon.=33.738705, Alt.=328.097900m. Speed=0.144000m/h.</desc>
<speed>0.040000</speed>
</trkpt>
<trkpt lat="44.606239" lon="33.738705">
<ele>328.090088</ele>
<time>2011-10-11T07:48:08Z</time>
<desc>lat.=44.606239, lon.=33.738705, Alt.=328.090088m. Speed=0.072000m/h.</desc>
<speed>0.020000</speed>
</trkpt>
<trkpt lat="44.606239" lon="33.738705">
<ele>328.066650</ele>
<time>2011-10-11T07:48:13Z</time>
<desc>lat.=44.606239, lon.=33.738705, Alt.=328.066650m. Speed=0.108000m/h.</desc>
<speed>0.030000</speed>
</trkpt>
<trkpt lat="44.606216" lon="33.738716">
<ele>327.293213</ele>
<time>2011-10-11T07:48:18Z</time>
<desc>lat.=44.606216, lon.=33.738716, Alt.=327.293213m. Speed=0.864000m/h.</desc>
<speed>0.240000</speed>
</trkpt>
<trkpt lat="44.606228" lon="33.738720">
<ele>327.324463</ele>
<time>2011-10-11T07:48:23Z</time>
<desc>lat.=44.606228, lon.=33.738720, Alt.=327.324463m. Speed=1.728000m/h.</desc>
<speed>0.480000</speed>
</trkpt>
<trkpt lat="44.606251" lon="33.738735">
<ele>327.324463</ele>
<time>2011-10-11T07:48:28Z</time>
<desc>lat.=44.606251, lon.=33.738735, Alt.=327.324463m. Speed=1.368000m/h.</desc>
<speed>0.380000</speed>
</trkpt>
<trkpt lat="44.606277" lon="33.738773">
<ele>327.613525</ele>
<time>2011-10-11T07:48:33Z</time>
<desc>lat.=44.606277, lon.=33.738773, Alt.=327.613525m. Speed=2.520000m/h.</desc>
<speed>0.700000</speed>
</trkpt>
<trkpt lat="44.606270" lon="33.738766">
<ele>327.855713</ele>
<time>2011-10-11T07:48:38Z</time>
<desc>lat.=44.606270, lon.=33.738766, Alt.=327.855713m. Speed=0.612000m/h.</desc>
<speed>0.170000</speed>
</trkpt>
<trkpt lat="44.606266" lon="33.738758">
<ele>328.551025</ele>
<time>2011-10-11T07:48:43Z</time>
<desc>lat.=44.606266, lon.=33.738758, Alt.=328.551025m. Speed=0.432000m/h.</desc>
<speed>0.120000</speed>
</trkpt>
<trkpt lat="44.606266" lon="33.738754">
<ele>329.183838</ele>
<time>2011-10-11T07:48:48Z</time>
<desc>lat.=44.606266, lon.=33.738754, Alt.=329.183838m. Speed=0.432000m/h.</desc>
<speed>0.120000</speed>
</trkpt>
<trkpt lat="44.606270" lon="33.738754">
<ele>329.761963</ele>
<time>2011-10-11T07:48:53Z</time>
<desc>lat.=44.606270, lon.=33.738754, Alt.=329.761963m. Speed=0.144000m/h.</desc>
<speed>0.040000</speed>
</trkpt>
<trkpt lat="44.606270" lon="33.738750">
<ele>330.277588</ele>
<time>2011-10-11T07:48:58Z</time>
<desc>lat.=44.606270, lon.=33.738750, Alt.=330.277588m. Speed=0.144000m/h.</desc>
<speed>0.040000</speed>
</trkpt>
<trkpt lat="44.606270" lon="33.738754">
<ele>330.738525</ele>
<time>2011-10-11T07:49:03Z</time>
<desc>lat.=44.606270, lon.=33.738754, Alt.=330.738525m. Speed=0.684000m/h.</desc>
<speed>0.190000</speed>
</trkpt>
<trkpt lat="44.606274" lon="33.738762">
<ele>331.121338</ele>
<time>2011-10-11T07:49:08Z</time>
<desc>lat.=44.606274, lon.=33.738762, Alt.=331.121338m. Speed=0.828000m/h.</desc>
<speed>0.230000</speed>
</trkpt>
<trkpt lat="44.606274" lon="33.738777">
<ele>331.465088</ele>
<time>2011-10-11T07:49:13Z</time>
<desc>lat.=44.606274, lon.=33.738777, Alt.=331.465088m. Speed=0.720000m/h.</desc>
<speed>0.200000</speed>
</trkpt>
<trkpt lat="44.606274" lon="33.738781">
<ele>331.652588</ele>
<time>2011-10-11T07:49:18Z</time>
<desc>lat.=44.606274, lon.=33.738781, Alt.=331.652588m. Speed=0.144000m/h.</desc>
<speed>0.040000</speed>
</trkpt>
<trkpt lat="44.606274" lon="33.738781">
<ele>331.691650</ele>
<time>2011-10-11T07:49:23Z</time>
<desc>lat.=44.606274, lon.=33.738781, Alt.=331.691650m. Speed=0.000000m/h.</desc>
<speed>0.000000</speed>
</trkpt>
<trkpt lat="44.606274" lon="33.738777">
<ele>331.699463</ele>
<time>2011-10-11T07:49:28Z</time>
<desc>lat.=44.606274, lon.=33.738777, Alt.=331.699463m. Speed=0.180000m/h.</desc>
<speed>0.050000</speed>
</trkpt>
<trkpt lat="44.606270" lon="33.738777">
<ele>331.699463</ele>
<time>2011-10-11T07:49:33Z</time>
<desc>lat.=44.606270, lon.=33.738777, Alt.=331.699463m. Speed=0.144000m/h.</desc>
<speed>0.040000</speed>
</trkpt>
<trkpt lat="44.606270" lon="33.738777">
<ele>331.691650</ele>
<time>2011-10-11T07:49:38Z</time>
<desc>lat.=44.606270, lon.=33.738777, Alt.=331.691650m. Speed=0.000000m/h.</desc>
<speed>0.000000</speed>
</trkpt>
<trkpt lat="44.606270" lon="33.738777">
<ele>331.691650</ele>
<time>2011-10-11T07:49:43Z</time>
<desc>lat.=44.606270, lon.=33.738777, Alt.=331.691650m. Speed=0.000000m/h.</desc>
<speed>0.000000</speed>
</trkpt>
<trkpt lat="44.606270" lon="33.738777">
<ele>331.676025</ele>
<time>2011-10-11T07:49:48Z</time>
<desc>lat.=44.606270, lon.=33.738777, Alt.=331.676025m. Speed=0.000000m/h.</desc>
<speed>0.000000</speed>
</trkpt>
<trkpt lat="44.606270" lon="33.738777">
<ele>331.644775</ele>
<time>2011-10-11T07:49:53Z</time>
<desc>lat.=44.606270, lon.=33.738777, Alt.=331.644775m. Speed=0.072000m/h.</desc>
<speed>0.020000</speed>
</trkpt>
<trkpt lat="44.606270" lon="33.738777">
<ele>331.613525</ele>
<time>2011-10-11T07:49:58Z</time>
<desc>lat.=44.606270, lon.=33.738777, Alt.=331.613525m. Speed=0.036000m/h.</desc>
<speed>0.010000</speed>
</trkpt>
<trkpt lat="44.606270" lon="33.738777">
<ele>331.527588</ele>
<time>2011-10-11T07:50:03Z</time>
<desc>lat.=44.606270, lon.=33.738777, Alt.=331.527588m. Speed=0.000000m/h.</desc>
<speed>0.000000</speed>
</trkpt>
<trkpt lat="44.606270" lon="33.738773">
<ele>331.504150</ele>
<time>2011-10-11T07:50:08Z</time>
<desc>lat.=44.606270, lon.=33.738773, Alt.=331.504150m. Speed=0.000000m/h.</desc>
<speed>0.000000</speed>
</trkpt>
<trkpt lat="44.606270" lon="33.738773">
<ele>331.472900</ele>
<time>2011-10-11T07:50:13Z</time>
<desc>lat.=44.606270, lon.=33.738773, Alt.=331.472900m. Speed=0.000000m/h.</desc>
<speed>0.000000</speed>
</trkpt>
<trkpt lat="44.606270" lon="33.738773">
<ele>331.441650</ele>
<time>2011-10-11T07:50:18Z</time>
<desc>lat.=44.606270, lon.=33.738773, Alt.=331.441650m. Speed=0.000000m/h.</desc>
<speed>0.000000</speed>
</trkpt>
<trkpt lat="44.606270" lon="33.738773">
<ele>331.410400</ele>
<time>2011-10-11T07:50:23Z</time>
<desc>lat.=44.606270, lon.=33.738773, Alt.=331.410400m. Speed=0.072000m/h.</desc>
<speed>0.020000</speed>
</trkpt>
<trkpt lat="44.606270" lon="33.738773">
<ele>331.379150</ele>
<time>2011-10-11T07:50:28Z</time>
<desc>lat.=44.606270, lon.=33.738773, Alt.=331.379150m. Speed=0.144000m/h.</desc>
<speed>0.040000</speed>
</trkpt>
<trkpt lat="44.606224" lon="33.738682">
<ele>318.316650</ele>
<time>2011-10-11T07:50:33Z</time>
<desc>lat.=44.606224, lon.=33.738682, Alt.=318.316650m. Speed=1.116000m/h.</desc>
<speed>0.310000</speed>
</trkpt>
<trkpt lat="44.606201" lon="33.738697">
<ele>318.160400</ele>
<time>2011-10-11T07:50:38Z</time>
<desc>lat.=44.606201, lon.=33.738697, Alt.=318.160400m. Speed=0.504000m/h.</desc>
<speed>0.140000</speed>
</trkpt>
<trkpt lat="44.606205" lon="33.738686">
<ele>317.980713</ele>
<time>2011-10-11T07:50:43Z</time>
<desc>lat.=44.606205, lon.=33.738686, Alt.=317.980713m. Speed=2.052000m/h.</desc>
<speed>0.570000</speed>
</trkpt>
<trkpt lat="44.606236" lon="33.738640">
<ele>317.465088</ele>
<time>2011-10-11T07:50:48Z</time>
<desc>lat.=44.606236, lon.=33.738640, Alt.=317.465088m. Speed=4.248000m/h.</desc>
<speed>1.180000</speed>
</trkpt>
<trkpt lat="44.606255" lon="33.738609">
<ele>317.433838</ele>
<time>2011-10-11T07:50:53Z</time>
<desc>lat.=44.606255, lon.=33.738609, Alt.=317.433838m. Speed=2.124000m/h.</desc>
<speed>0.590000</speed>
</trkpt>
<trkpt lat="44.606270" lon="33.738583">
<ele>316.832275</ele>
<time>2011-10-11T07:50:58Z</time>
<desc>lat.=44.606270, lon.=33.738583, Alt.=316.832275m. Speed=1.440000m/h.</desc>
<speed>0.400000</speed>
</trkpt>
<trkpt lat="44.606319" lon="33.738583">
<ele>317.699463</ele>
<time>2011-10-11T07:51:03Z</time>
<desc>lat.=44.606319, lon.=33.738583, Alt.=317.699463m. Speed=1.584000m/h.</desc>
<speed>0.440000</speed>
</trkpt>
<trkpt lat="44.606308" lon="33.738556">
<ele>317.761963</ele>
<time>2011-10-11T07:51:08Z</time>
<desc>lat.=44.606308, lon.=33.738556, Alt.=317.761963m. Speed=1.008000m/h.</desc>
<speed>0.280000</speed>
</trkpt>
<trkpt lat="44.606304" lon="33.738544">
<ele>317.957275</ele>
<time>2011-10-11T07:51:13Z</time>
<desc>lat.=44.606304, lon.=33.738544, Alt.=317.957275m. Speed=0.468000m/h.</desc>
<speed>0.130000</speed>
</trkpt>
<trkpt lat="44.606300" lon="33.738541">
<ele>318.183838</ele>
<time>2011-10-11T07:51:18Z</time>
<desc>lat.=44.606300, lon.=33.738541, Alt.=318.183838m. Speed=0.468000m/h.</desc>
<speed>0.130000</speed>
</trkpt>
<trkpt lat="44.606297" lon="33.738544">
<ele>318.418213</ele>
<time>2011-10-11T07:51:23Z</time>
<desc>lat.=44.606297, lon.=33.738544, Alt.=318.418213m. Speed=0.504000m/h.</desc>
<speed>0.140000</speed>
</trkpt>
<trkpt lat="44.606297" lon="33.738548">
<ele>318.644775</ele>
<time>2011-10-11T07:51:28Z</time>
<desc>lat.=44.606297, lon.=33.738548, Alt.=318.644775m. Speed=0.144000m/h.</desc>
<speed>0.040000</speed>
</trkpt>
<trkpt lat="44.606297" lon="33.738548">
<ele>318.793213</ele>
<time>2011-10-11T07:51:33Z</time>
<desc>lat.=44.606297, lon.=33.738548, Alt.=318.793213m. Speed=0.072000m/h.</desc>
<speed>0.020000</speed>
</trkpt>
<trkpt lat="44.606297" lon="33.738548">
<ele>318.886963</ele>
<time>2011-10-11T07:51:38Z</time>
<desc>lat.=44.606297, lon.=33.738548, Alt.=318.886963m. Speed=0.108000m/h.</desc>
<speed>0.030000</speed>
</trkpt>
<trkpt lat="44.606297" lon="33.738548">
<ele>318.886963</ele>
<time>2011-10-11T07:51:43Z</time>
<desc>lat.=44.606297, lon.=33.738548, Alt.=318.886963m. Speed=0.000000m/h.</desc>
<speed>0.000000</speed>
</trkpt>
<trkpt lat="44.606297" lon="33.738548">
<ele>318.902588</ele>
<time>2011-10-11T07:51:48Z</time>
<desc>lat.=44.606297, lon.=33.738548, Alt.=318.902588m. Speed=0.180000m/h.</desc>
<speed>0.050000</speed>
</trkpt>
<trkpt lat="44.606312" lon="33.738544">
<ele>318.605713</ele>
<time>2011-10-11T07:51:53Z</time>
<desc>lat.=44.606312, lon.=33.738544, Alt.=318.605713m. Speed=3.888000m/h.</desc>
<speed>1.080000</speed>
</trkpt>
<trkpt lat="44.606358" lon="33.738529">
<ele>317.801025</ele>
<time>2011-10-11T07:51:58Z</time>
<desc>lat.=44.606358, lon.=33.738529, Alt.=317.801025m. Speed=4.068000m/h.</desc>
<speed>1.130000</speed>
</trkpt>
<trkpt lat="44.606400" lon="33.738506">
<ele>316.933838</ele>
<time>2011-10-11T07:52:03Z</time>
<desc>lat.=44.606400, lon.=33.738506, Alt.=316.933838m. Speed=4.104000m/h.</desc>
<speed>1.140000</speed>
</trkpt>
<trkpt lat="44.606419" lon="33.738499">
<ele>316.636963</ele>
<time>2011-10-11T07:52:08Z</time>
<desc>lat.=44.606419, lon.=33.738499, Alt.=316.636963m. Speed=0.504000m/h.</desc>
<speed>0.140000</speed>
</trkpt>
<trkpt lat="44.606441" lon="33.738483">
<ele>316.051025</ele>
<time>2011-10-11T07:52:13Z</time>
<desc>lat.=44.606441, lon.=33.738483, Alt.=316.051025m. Speed=3.204000m/h.</desc>
<speed>0.890000</speed>
</trkpt>
<trkpt lat="44.606449" lon="33.738457">
<ele>316.136963</ele>
<time>2011-10-11T07:52:18Z</time>
<desc>lat.=44.606449, lon.=33.738457, Alt.=316.136963m. Speed=0.648000m/h.</desc>
<speed>0.180000</speed>
</trkpt>
<trkpt lat="44.606453" lon="33.738468">
<ele>316.418213</ele>
<time>2011-10-11T07:52:23Z</time>
<desc>lat.=44.606453, lon.=33.738468, Alt.=316.418213m. Speed=0.612000m/h.</desc>
<speed>0.170000</speed>
</trkpt>
<trkpt lat="44.606457" lon="33.738468">
<ele>316.371338</ele>
<time>2011-10-11T07:52:28Z</time>
<desc>lat.=44.606457, lon.=33.738468, Alt.=316.371338m. Speed=0.360000m/h.</desc>
<speed>0.100000</speed>
</trkpt>
<trkpt lat="44.606449" lon="33.738472">
<ele>315.105713</ele>
<time>2011-10-11T07:52:33Z</time>
<desc>lat.=44.606449, lon.=33.738472, Alt.=315.105713m. Speed=3.456000m/h.</desc>
<speed>0.960000</speed>
</trkpt>
<trkpt lat="44.606434" lon="33.738491">
<ele>314.558838</ele>
<time>2011-10-11T07:52:38Z</time>
<desc>lat.=44.606434, lon.=33.738491, Alt.=314.558838m. Speed=0.612000m/h.</desc>
<speed>0.170000</speed>
</trkpt>
<trkpt lat="44.606438" lon="33.738495">
<ele>314.168213</ele>
<time>2011-10-11T07:52:43Z</time>
<desc>lat.=44.606438, lon.=33.738495, Alt.=314.168213m. Speed=0.288000m/h.</desc>
<speed>0.080000</speed>
</trkpt>
<trkpt lat="44.606422" lon="33.738506">
<ele>313.363525</ele>
<time>2011-10-11T07:52:48Z</time>
<desc>lat.=44.606422, lon.=33.738506, Alt.=313.363525m. Speed=2.520000m/h.</desc>
<speed>0.700000</speed>
</trkpt>
<trkpt lat="44.606407" lon="33.738514">
<ele>313.238525</ele>
<time>2011-10-11T07:52:53Z</time>
<desc>lat.=44.606407, lon.=33.738514, Alt.=313.238525m. Speed=0.252000m/h.</desc>
<speed>0.070000</speed>
</trkpt>
<trkpt lat="44.606407" lon="33.738514">
<ele>313.136963</ele>
<time>2011-10-11T07:52:58Z</time>
<desc>lat.=44.606407, lon.=33.738514, Alt.=313.136963m. Speed=0.036000m/h.</desc>
<speed>0.010000</speed>
</trkpt>
<trkpt lat="44.606407" lon="33.738518">
<ele>313.058838</ele>
<time>2011-10-11T07:53:03Z</time>
<desc>lat.=44.606407, lon.=33.738518, Alt.=313.058838m. Speed=0.360000m/h.</desc>
<speed>0.100000</speed>
</trkpt>
<trkpt lat="44.606411" lon="33.738518">
<ele>313.043213</ele>
<time>2011-10-11T07:53:08Z</time>
<desc>lat.=44.606411, lon.=33.738518, Alt.=313.043213m. Speed=0.360000m/h.</desc>
<speed>0.100000</speed>
</trkpt>
<trkpt lat="44.606407" lon="33.738522">
<ele>313.051025</ele>
<time>2011-10-11T07:53:13Z</time>
<desc>lat.=44.606407, lon.=33.738522, Alt.=313.051025m. Speed=1.044000m/h.</desc>
<speed>0.290000</speed>
</trkpt>
<trkpt lat="44.606392" lon="33.738537">
<ele>312.980713</ele>
<time>2011-10-11T07:53:18Z</time>
<desc>lat.=44.606392, lon.=33.738537, Alt.=312.980713m. Speed=1.548000m/h.</desc>
<speed>0.430000</speed>
</trkpt>
<trkpt lat="44.606377" lon="33.738544">
<ele>312.816650</ele>
<time>2011-10-11T07:53:23Z</time>
<desc>lat.=44.606377, lon.=33.738544, Alt.=312.816650m. Speed=0.072000m/h.</desc>
<speed>0.020000</speed>
</trkpt>
<trkpt lat="44.606377" lon="33.738548">
<ele>312.597900</ele>
<time>2011-10-11T07:53:28Z</time>
<desc>lat.=44.606377, lon.=33.738548, Alt.=312.597900m. Speed=0.000000m/h.</desc>
<speed>0.000000</speed>
</trkpt>
<trkpt lat="44.606377" lon="33.738544">
<ele>312.371338</ele>
<time>2011-10-11T07:53:33Z</time>
<desc>lat.=44.606377, lon.=33.738544, Alt.=312.371338m. Speed=0.036000m/h.</desc>
<speed>0.010000</speed>
</trkpt>
<trkpt lat="44.606377" lon="33.738544">
<ele>312.316650</ele>
<time>2011-10-11T07:53:38Z</time>
<desc>lat.=44.606377, lon.=33.738544, Alt.=312.316650m. Speed=0.000000m/h.</desc>
<speed>0.000000</speed>
</trkpt>
<trkpt lat="44.606377" lon="33.738544">
<ele>312.324463</ele>
<time>2011-10-11T07:53:43Z</time>
<desc>lat.=44.606377, lon.=33.738544, Alt.=312.324463m. Speed=0.000000m/h.</desc>
<speed>0.000000</speed>
</trkpt>
<trkpt lat="44.606377" lon="33.738544">
<ele>312.316650</ele>
<time>2011-10-11T07:53:48Z</time>
<desc>lat.=44.606377, lon.=33.738544, Alt.=312.316650m. Speed=0.072000m/h.</desc>
<speed>0.020000</speed>
</trkpt>
<trkpt lat="44.606377" lon="33.738544">
<ele>312.324463</ele>
<time>2011-10-11T07:53:53Z</time>
<desc>lat.=44.606377, lon.=33.738544, Alt.=312.324463m. Speed=0.036000m/h.</desc>
<speed>0.010000</speed>
</trkpt>
<trkpt lat="44.606377" lon="33.738544">
<ele>312.324463</ele>
<time>2011-10-11T07:53:58Z</time>
<desc>lat.=44.606377, lon.=33.738544, Alt.=312.324463m. Speed=0.036000m/h.</desc>
<speed>0.010000</speed>
</trkpt>
<trkpt lat="44.606373" lon="33.738544">
<ele>312.324463</ele>
<time>2011-10-11T07:54:03Z</time>
<desc>lat.=44.606373, lon.=33.738544, Alt.=312.324463m. Speed=0.072000m/h.</desc>
<speed>0.020000</speed>
</trkpt>
<trkpt lat="44.606373" lon="33.738544">
<ele>312.324463</ele>
<time>2011-10-11T07:54:08Z</time>
<desc>lat.=44.606373, lon.=33.738544, Alt.=312.324463m. Speed=0.180000m/h.</desc>
<speed>0.050000</speed>
</trkpt>
<trkpt lat="44.606354" lon="33.738571">
<ele>312.394775</ele>
<time>2011-10-11T07:54:13Z</time>
<desc>lat.=44.606354, lon.=33.738571, Alt.=312.394775m. Speed=3.420000m/h.</desc>
<speed>0.950000</speed>
</trkpt>
<trkpt lat="44.606312" lon="33.738598">
<ele>312.176025</ele>
<time>2011-10-11T07:54:18Z</time>
<desc>lat.=44.606312, lon.=33.738598, Alt.=312.176025m. Speed=3.708000m/h.</desc>
<speed>1.030000</speed>
</trkpt>
<trkpt lat="44.606255" lon="33.738625">
<ele>311.433838</ele>
<time>2011-10-11T07:54:23Z</time>
<desc>lat.=44.606255, lon.=33.738625, Alt.=311.433838m. Speed=3.168000m/h.</desc>
<speed>0.880000</speed>
</trkpt>
<trkpt lat="44.606232" lon="33.738682">
<ele>310.910400</ele>
<time>2011-10-11T07:54:28Z</time>
<desc>lat.=44.606232, lon.=33.738682, Alt.=310.910400m. Speed=2.520000m/h.</desc>
<speed>0.700000</speed>
</trkpt>
<trkpt lat="44.606201" lon="33.738724">
<ele>312.269775</ele>
<time>2011-10-11T07:54:33Z</time>
<desc>lat.=44.606201, lon.=33.738724, Alt.=312.269775m. Speed=1.152000m/h.</desc>
<speed>0.320000</speed>
</trkpt>
<trkpt lat="44.606197" lon="33.738708">
<ele>313.152588</ele>
<time>2011-10-11T07:54:38Z</time>
<desc>lat.=44.606197, lon.=33.738708, Alt.=313.152588m. Speed=0.216000m/h.</desc>
<speed>0.060000</speed>
</trkpt>
<trkpt lat="44.606197" lon="33.738712">
<ele>313.215088</ele>
<time>2011-10-11T07:54:43Z</time>
<desc>lat.=44.606197, lon.=33.738712, Alt.=313.215088m. Speed=2.556000m/h.</desc>
<speed>0.710000</speed>
</trkpt>
<trkpt lat="44.606190" lon="33.738724">
<ele>313.074463</ele>
<time>2011-10-11T07:54:48Z</time>
<desc>lat.=44.606190, lon.=33.738724, Alt.=313.074463m. Speed=0.036000m/h.</desc>
<speed>0.010000</speed>
</trkpt>
<trkpt lat="44.606194" lon="33.738731">
<ele>313.332275</ele>
<time>2011-10-11T07:54:53Z</time>
<desc>lat.=44.606194, lon.=33.738731, Alt.=313.332275m. Speed=3.240000m/h.</desc>
<speed>0.900000</speed>
</trkpt>
<trkpt lat="44.606213" lon="33.738739">
<ele>313.996338</ele>
<time>2011-10-11T07:54:58Z</time>
<desc>lat.=44.606213, lon.=33.738739, Alt.=313.996338m. Speed=1.224000m/h.</desc>
<speed>0.340000</speed>
</trkpt>
<trkpt lat="44.606236" lon="33.738758">
<ele>314.457275</ele>
<time>2011-10-11T07:55:03Z</time>
<desc>lat.=44.606236, lon.=33.738758, Alt.=314.457275m. Speed=2.520000m/h.</desc>
<speed>0.700000</speed>
</trkpt>
<trkpt lat="44.606243" lon="33.738789">
<ele>315.051025</ele>
<time>2011-10-11T07:55:08Z</time>
<desc>lat.=44.606243, lon.=33.738789, Alt.=315.051025m. Speed=0.288000m/h.</desc>
<speed>0.080000</speed>
</trkpt>
<trkpt lat="44.606239" lon="33.738781">
<ele>315.144775</ele>
<time>2011-10-11T07:55:13Z</time>
<desc>lat.=44.606239, lon.=33.738781, Alt.=315.144775m. Speed=0.720000m/h.</desc>
<speed>0.200000</speed>
</trkpt>
<trkpt lat="44.606277" lon="33.738762">
<ele>315.918213</ele>
<time>2011-10-11T07:55:18Z</time>
<desc>lat.=44.606277, lon.=33.738762, Alt.=315.918213m. Speed=3.168000m/h.</desc>
<speed>0.880000</speed>
</trkpt>
<trkpt lat="44.606316" lon="33.738777">
<ele>316.832275</ele>
<time>2011-10-11T07:55:23Z</time>
<desc>lat.=44.606316, lon.=33.738777, Alt.=316.832275m. Speed=2.376000m/h.</desc>
<speed>0.660000</speed>
</trkpt>
<trkpt lat="44.606316" lon="33.738831">
<ele>317.043213</ele>
<time>2011-10-11T07:55:28Z</time>
<desc>lat.=44.606316, lon.=33.738831, Alt.=317.043213m. Speed=3.456000m/h.</desc>
<speed>0.960000</speed>
</trkpt>
<trkpt lat="44.606316" lon="33.738865">
<ele>317.066650</ele>
<time>2011-10-11T07:55:33Z</time>
<desc>lat.=44.606316, lon.=33.738865, Alt.=317.066650m. Speed=0.756000m/h.</desc>
<speed>0.210000</speed>
</trkpt>
<trkpt lat="44.606300" lon="33.738888">
<ele>317.082275</ele>
<time>2011-10-11T07:55:38Z</time>
<desc>lat.=44.606300, lon.=33.738888, Alt.=317.082275m. Speed=1.476000m/h.</desc>
<speed>0.410000</speed>
</trkpt>
<trkpt lat="44.606297" lon="33.738888">
<ele>317.136963</ele>
<time>2011-10-11T07:55:43Z</time>
<desc>lat.=44.606297, lon.=33.738888, Alt.=317.136963m. Speed=0.360000m/h.</desc>
<speed>0.100000</speed>
</trkpt>
<trkpt lat="44.606297" lon="33.738888">
<ele>317.191650</ele>
<time>2011-10-11T07:55:48Z</time>
<desc>lat.=44.606297, lon.=33.738888, Alt.=317.191650m. Speed=1.044000m/h.</desc>
<speed>0.290000</speed>
</trkpt>
<trkpt lat="44.606304" lon="33.738865">
<ele>317.176025</ele>
<time>2011-10-11T07:55:53Z</time>
<desc>lat.=44.606304, lon.=33.738865, Alt.=317.176025m. Speed=0.900000m/h.</desc>
<speed>0.250000</speed>
</trkpt>
<trkpt lat="44.606316" lon="33.738861">
<ele>317.176025</ele>
<time>2011-10-11T07:55:58Z</time>
<desc>lat.=44.606316, lon.=33.738861, Alt.=317.176025m. Speed=0.396000m/h.</desc>
<speed>0.110000</speed>
</trkpt>
<trkpt lat="44.606319" lon="33.738865">
<ele>317.160400</ele>
<time>2011-10-11T07:56:03Z</time>
<desc>lat.=44.606319, lon.=33.738865, Alt.=317.160400m. Speed=0.756000m/h.</desc>
<speed>0.210000</speed>
</trkpt>
<trkpt lat="44.606331" lon="33.738873">
<ele>317.152588</ele>
<time>2011-10-11T07:56:08Z</time>
<desc>lat.=44.606331, lon.=33.738873, Alt.=317.152588m. Speed=0.648000m/h.</desc>
<speed>0.180000</speed>
</trkpt>
<trkpt lat="44.606335" lon="33.738880">
<ele>317.144775</ele>
<time>2011-10-11T07:56:13Z</time>
<desc>lat.=44.606335, lon.=33.738880, Alt.=317.144775m. Speed=0.648000m/h.</desc>
<speed>0.180000</speed>
</trkpt>
<trkpt lat="44.606365" lon="33.738911">
<ele>317.121338</ele>
<time>2011-10-11T07:56:18Z</time>
<desc>lat.=44.606365, lon.=33.738911, Alt.=317.121338m. Speed=2.016000m/h.</desc>
<speed>0.560000</speed>
</trkpt>
<trkpt lat="44.606388" lon="33.738918">
<ele>317.058838</ele>
<time>2011-10-11T07:56:23Z</time>
<desc>lat.=44.606388, lon.=33.738918, Alt.=317.058838m. Speed=1.332000m/h.</desc>
<speed>0.370000</speed>
</trkpt>
<trkpt lat="44.606430" lon="33.738926">
<ele>316.996338</ele>
<time>2011-10-11T07:56:28Z</time>
<desc>lat.=44.606430, lon.=33.738926, Alt.=316.996338m. Speed=1.764000m/h.</desc>
<speed>0.490000</speed>
</trkpt>
<trkpt lat="44.606441" lon="33.738911">
<ele>316.871338</ele>
<time>2011-10-11T07:56:33Z</time>
<desc>lat.=44.606441, lon.=33.738911, Alt.=316.871338m. Speed=1.404000m/h.</desc>
<speed>0.390000</speed>
</trkpt>
<trkpt lat="44.606483" lon="33.738934">
<ele>316.777588</ele>
<time>2011-10-11T07:56:38Z</time>
<desc>lat.=44.606483, lon.=33.738934, Alt.=316.777588m. Speed=0.468000m/h.</desc>
<speed>0.130000</speed>
</trkpt>
<trkpt lat="44.606419" lon="33.738934">
<ele>316.730713</ele>
<time>2011-10-11T07:56:43Z</time>
<desc>lat.=44.606419, lon.=33.738934, Alt.=316.730713m. Speed=0.756000m/h.</desc>
<speed>0.210000</speed>
</trkpt>
<trkpt lat="44.606419" lon="33.738922">
<ele>316.676025</ele>
<time>2011-10-11T07:56:48Z</time>
<desc>lat.=44.606419, lon.=33.738922, Alt.=316.676025m. Speed=0.468000m/h.</desc>
<speed>0.130000</speed>
</trkpt>
<trkpt lat="44.606419" lon="33.738914">
<ele>316.652588</ele>
<time>2011-10-11T07:56:53Z</time>
<desc>lat.=44.606419, lon.=33.738914, Alt.=316.652588m. Speed=0.252000m/h.</desc>
<speed>0.070000</speed>
</trkpt>
<trkpt lat="44.606415" lon="33.738914">
<ele>316.629150</ele>
<time>2011-10-11T07:56:58Z</time>
<desc>lat.=44.606415, lon.=33.738914, Alt.=316.629150m. Speed=0.288000m/h.</desc>
<speed>0.080000</speed>
</trkpt>
<trkpt lat="44.606392" lon="33.738892">
<ele>316.621338</ele>
<time>2011-10-11T07:57:03Z</time>
<desc>lat.=44.606392, lon.=33.738892, Alt.=316.621338m. Speed=1.404000m/h.</desc>
<speed>0.390000</speed>
</trkpt>
<trkpt lat="44.606358" lon="33.738865">
<ele>316.629150</ele>
<time>2011-10-11T07:57:08Z</time>
<desc>lat.=44.606358, lon.=33.738865, Alt.=316.629150m. Speed=1.656000m/h.</desc>
<speed>0.460000</speed>
</trkpt>
<trkpt lat="44.606335" lon="33.738846">
<ele>316.629150</ele>
<time>2011-10-11T07:57:13Z</time>
<desc>lat.=44.606335, lon.=33.738846, Alt.=316.629150m. Speed=1.332000m/h.</desc>
<speed>0.370000</speed>
</trkpt>
<trkpt lat="44.606316" lon="33.738842">
<ele>316.605713</ele>
<time>2011-10-11T07:57:18Z</time>
<desc>lat.=44.606316, lon.=33.738842, Alt.=316.605713m. Speed=1.044000m/h.</desc>
<speed>0.290000</speed>
</trkpt>
<trkpt lat="44.606304" lon="33.738857">
<ele>316.621338</ele>
<time>2011-10-11T07:57:23Z</time>
<desc>lat.=44.606304, lon.=33.738857, Alt.=316.621338m. Speed=1.080000m/h.</desc>
<speed>0.300000</speed>
</trkpt>
<trkpt lat="44.606285" lon="33.738865">
<ele>316.691650</ele>
<time>2011-10-11T07:57:28Z</time>
<desc>lat.=44.606285, lon.=33.738865, Alt.=316.691650m. Speed=0.684000m/h.</desc>
<speed>0.190000</speed>
</trkpt>
<trkpt lat="44.606281" lon="33.738853">
<ele>316.676025</ele>
<time>2011-10-11T07:57:33Z</time>
<desc>lat.=44.606281, lon.=33.738853, Alt.=316.676025m. Speed=0.396000m/h.</desc>
<speed>0.110000</speed>
</trkpt>
<trkpt lat="44.606369" lon="33.738895">
<ele>317.379150</ele>
<time>2011-10-11T07:57:38Z</time>
<desc>lat.=44.606369, lon.=33.738895, Alt.=317.379150m. Speed=1.548000m/h.</desc>
<speed>0.430000</speed>
</trkpt>
<trkpt lat="44.606419" lon="33.738892">
<ele>317.144775</ele>
<time>2011-10-11T07:57:43Z</time>
<desc>lat.=44.606419, lon.=33.738892, Alt.=317.144775m. Speed=0.576000m/h.</desc>
<speed>0.160000</speed>
</trkpt>
<trkpt lat="44.606422" lon="33.738873">
<ele>317.004150</ele>
<time>2011-10-11T07:57:48Z</time>
<desc>lat.=44.606422, lon.=33.738873, Alt.=317.004150m. Speed=2.700000m/h.</desc>
<speed>0.750000</speed>
</trkpt>
<trkpt lat="44.606430" lon="33.738857">
<ele>316.894775</ele>
<time>2011-10-11T07:57:53Z</time>
<desc>lat.=44.606430, lon.=33.738857, Alt.=316.894775m. Speed=1.548000m/h.</desc>
<speed>0.430000</speed>
</trkpt>
<trkpt lat="44.606407" lon="33.738827">
<ele>316.566650</ele>
<time>2011-10-11T07:57:58Z</time>
<desc>lat.=44.606407, lon.=33.738827, Alt.=316.566650m. Speed=0.864000m/h.</desc>
<speed>0.240000</speed>
</trkpt>
<trkpt lat="44.606407" lon="33.738811">
<ele>316.480713</ele>
<time>2011-10-11T07:58:03Z</time>
<desc>lat.=44.606407, lon.=33.738811, Alt.=316.480713m. Speed=1.080000m/h.</desc>
<speed>0.300000</speed>
</trkpt>
<trkpt lat="44.606384" lon="33.738819">
<ele>316.941650</ele>
<time>2011-10-11T07:58:08Z</time>
<desc>lat.=44.606384, lon.=33.738819, Alt.=316.941650m. Speed=0.792000m/h.</desc>
<speed>0.220000</speed>
</trkpt>
<trkpt lat="44.606373" lon="33.738808">
<ele>317.926025</ele>
<time>2011-10-11T07:58:13Z</time>
<desc>lat.=44.606373, lon.=33.738808, Alt.=317.926025m. Speed=0.540000m/h.</desc>
<speed>0.150000</speed>
</trkpt>
<trkpt lat="44.606365" lon="33.738804">
<ele>318.066650</ele>
<time>2011-10-11T07:58:18Z</time>
<desc>lat.=44.606365, lon.=33.738804, Alt.=318.066650m. Speed=0.972000m/h.</desc>
<speed>0.270000</speed>
</trkpt>
<trkpt lat="44.606354" lon="33.738800">
<ele>318.207275</ele>
<time>2011-10-11T07:58:23Z</time>
<desc>lat.=44.606354, lon.=33.738800, Alt.=318.207275m. Speed=0.828000m/h.</desc>
<speed>0.230000</speed>
</trkpt>
<trkpt lat="44.606346" lon="33.738796">
<ele>318.386963</ele>
<time>2011-10-11T07:58:28Z</time>
<desc>lat.=44.606346, lon.=33.738796, Alt.=318.386963m. Speed=0.612000m/h.</desc>
<speed>0.170000</speed>
</trkpt>
<trkpt lat="44.606339" lon="33.738792">
<ele>318.551025</ele>
<time>2011-10-11T07:58:33Z</time>
<desc>lat.=44.606339, lon.=33.738792, Alt.=318.551025m. Speed=0.612000m/h.</desc>
<speed>0.170000</speed>
</trkpt>
<trkpt lat="44.606335" lon="33.738789">
<ele>318.722900</ele>
<time>2011-10-11T07:58:38Z</time>
<desc>lat.=44.606335, lon.=33.738789, Alt.=318.722900m. Speed=0.360000m/h.</desc>
<speed>0.100000</speed>
</trkpt>
<trkpt lat="44.606331" lon="33.738789">
<ele>318.910400</ele>
<time>2011-10-11T07:58:43Z</time>
<desc>lat.=44.606331, lon.=33.738789, Alt.=318.910400m. Speed=0.432000m/h.</desc>
<speed>0.120000</speed>
</trkpt>
<trkpt lat="44.606335" lon="33.738785">
<ele>319.082275</ele>
<time>2011-10-11T07:58:48Z</time>
<desc>lat.=44.606335, lon.=33.738785, Alt.=319.082275m. Speed=0.612000m/h.</desc>
<speed>0.170000</speed>
</trkpt>
<trkpt lat="44.606342" lon="33.738792">
<ele>319.230713</ele>
<time>2011-10-11T07:58:53Z</time>
<desc>lat.=44.606342, lon.=33.738792, Alt.=319.230713m. Speed=1.260000m/h.</desc>
<speed>0.350000</speed>
</trkpt>
<trkpt lat="44.606308" lon="33.738831">
<ele>319.121338</ele>
<time>2011-10-11T07:58:58Z</time>
<desc>lat.=44.606308, lon.=33.738831, Alt.=319.121338m. Speed=1.728000m/h.</desc>
<speed>0.480000</speed>
</trkpt>
<trkpt lat="44.606331" lon="33.738811">
<ele>319.379150</ele>
<time>2011-10-11T07:59:03Z</time>
<desc>lat.=44.606331, lon.=33.738811, Alt.=319.379150m. Speed=0.972000m/h.</desc>
<speed>0.270000</speed>
</trkpt>
<trkpt lat="44.606339" lon="33.738773">
<ele>319.676025</ele>
<time>2011-10-11T07:59:08Z</time>
<desc>lat.=44.606339, lon.=33.738773, Alt.=319.676025m. Speed=1.476000m/h.</desc>
<speed>0.410000</speed>
</trkpt>
<trkpt lat="44.606319" lon="33.738762">
<ele>319.988525</ele>
<time>2011-10-11T07:59:13Z</time>
<desc>lat.=44.606319, lon.=33.738762, Alt.=319.988525m. Speed=3.528000m/h.</desc>
<speed>0.980000</speed>
</trkpt>
<trkpt lat="44.606281" lon="33.738758">
<ele>320.246338</ele>
<time>2011-10-11T07:59:18Z</time>
<desc>lat.=44.606281, lon.=33.738758, Alt.=320.246338m. Speed=3.492000m/h.</desc>
<speed>0.970000</speed>
</trkpt>
<trkpt lat="44.606243" lon="33.738750">
<ele>319.582275</ele>
<time>2011-10-11T07:59:23Z</time>
<desc>lat.=44.606243, lon.=33.738750, Alt.=319.582275m. Speed=4.932000m/h.</desc>
<speed>1.370000</speed>
</trkpt>
<trkpt lat="44.606209" lon="33.738773">
<ele>319.230713</ele>
<time>2011-10-11T07:59:28Z</time>
<desc>lat.=44.606209, lon.=33.738773, Alt.=319.230713m. Speed=3.024000m/h.</desc>
<speed>0.840000</speed>
</trkpt>
<trkpt lat="44.606239" lon="33.738819">
<ele>318.418213</ele>
<time>2011-10-11T07:59:33Z</time>
<desc>lat.=44.606239, lon.=33.738819, Alt.=318.418213m. Speed=2.160000m/h.</desc>
<speed>0.600000</speed>
</trkpt>
<trkpt lat="44.606270" lon="33.738857">
<ele>317.511963</ele>
<time>2011-10-11T07:59:38Z</time>
<desc>lat.=44.606270, lon.=33.738857, Alt.=317.511963m. Speed=1.116000m/h.</desc>
<speed>0.310000</speed>
</trkpt>
<trkpt lat="44.606274" lon="33.738853">
<ele>317.090088</ele>
<time>2011-10-11T07:59:43Z</time>
<desc>lat.=44.606274, lon.=33.738853, Alt.=317.090088m. Speed=0.108000m/h.</desc>
<speed>0.030000</speed>
</trkpt>
<trkpt lat="44.606281" lon="33.738861">
<ele>316.574463</ele>
<time>2011-10-11T07:59:48Z</time>
<desc>lat.=44.606281, lon.=33.738861, Alt.=316.574463m. Speed=0.936000m/h.</desc>
<speed>0.260000</speed>
</trkpt>
<trkpt lat="44.606289" lon="33.738865">
<ele>316.371338</ele>
<time>2011-10-11T07:59:53Z</time>
<desc>lat.=44.606289, lon.=33.738865, Alt.=316.371338m. Speed=1.008000m/h.</desc>
<speed>0.280000</speed>
</trkpt>
<trkpt lat="44.606277" lon="33.738865">
<ele>316.261963</ele>
<time>2011-10-11T07:59:58Z</time>
<desc>lat.=44.606277, lon.=33.738865, Alt.=316.261963m. Speed=0.000000m/h.</desc>
<speed>0.000000</speed>
</trkpt>
<trkpt lat="44.606270" lon="33.738865">
<ele>316.488525</ele>
<time>2011-10-11T08:00:03Z</time>
<desc>lat.=44.606270, lon.=33.738865, Alt.=316.488525m. Speed=0.036000m/h.</desc>
<speed>0.010000</speed>
</trkpt>
<trkpt lat="44.606274" lon="33.738873">
<ele>316.418213</ele>
<time>2011-10-11T08:00:08Z</time>
<desc>lat.=44.606274, lon.=33.738873, Alt.=316.418213m. Speed=2.124000m/h.</desc>
<speed>0.590000</speed>
</trkpt>
<trkpt lat="44.606297" lon="33.738880">
<ele>315.957275</ele>
<time>2011-10-11T08:00:13Z</time>
<desc>lat.=44.606297, lon.=33.738880, Alt.=315.957275m. Speed=1.908000m/h.</desc>
<speed>0.530000</speed>
</trkpt>
<trkpt lat="44.606308" lon="33.738880">
<ele>315.527588</ele>
<time>2011-10-11T08:00:18Z</time>
<desc>lat.=44.606308, lon.=33.738880, Alt.=315.527588m. Speed=0.756000m/h.</desc>
<speed>0.210000</speed>
</trkpt>
<trkpt lat="44.606308" lon="33.738903">
<ele>315.191650</ele>
<time>2011-10-11T08:00:23Z</time>
<desc>lat.=44.606308, lon.=33.738903, Alt.=315.191650m. Speed=1.908000m/h.</desc>
<speed>0.530000</speed>
</trkpt>
<trkpt lat="44.606293" lon="33.738930">
<ele>314.613525</ele>
<time>2011-10-11T08:00:28Z</time>
<desc>lat.=44.606293, lon.=33.738930, Alt.=314.613525m. Speed=1.656000m/h.</desc>
<speed>0.460000</speed>
</trkpt>
<trkpt lat="44.606293" lon="33.738972">
<ele>314.090088</ele>
<time>2011-10-11T08:00:33Z</time>
<desc>lat.=44.606293, lon.=33.738972, Alt.=314.090088m. Speed=1.116000m/h.</desc>
<speed>0.310000</speed>
</trkpt>
<trkpt lat="44.606293" lon="33.738976">
<ele>313.754150</ele>
<time>2011-10-11T08:00:38Z</time>
<desc>lat.=44.606293, lon.=33.738976, Alt.=313.754150m. Speed=2.844000m/h.</desc>
<speed>0.790000</speed>
</trkpt>
<trkpt lat="44.606316" lon="33.739025">
<ele>312.738525</ele>
<time>2011-10-11T08:00:43Z</time>
<desc>lat.=44.606316, lon.=33.739025, Alt.=312.738525m. Speed=3.672000m/h.</desc>
<speed>1.020000</speed>
</trkpt>
<trkpt lat="44.606319" lon="33.739067">
<ele>312.535400</ele>
<time>2011-10-11T08:00:48Z</time>
<desc>lat.=44.606319, lon.=33.739067, Alt.=312.535400m. Speed=1.368000m/h.</desc>
<speed>0.380000</speed>
</trkpt>
<trkpt lat="44.606323" lon="33.739113">
<ele>313.566650</ele>
<time>2011-10-11T08:00:53Z</time>
<desc>lat.=44.606323, lon.=33.739113, Alt.=313.566650m. Speed=3.276000m/h.</desc>
<speed>0.910000</speed>
</trkpt>
<trkpt lat="44.606339" lon="33.739197">
<ele>314.629150</ele>
<time>2011-10-11T08:00:58Z</time>
<desc>lat.=44.606339, lon.=33.739197, Alt.=314.629150m. Speed=4.428000m/h.</desc>
<speed>1.230000</speed>
</trkpt>
<trkpt lat="44.606388" lon="33.739262">
<ele>316.183838</ele>
<time>2011-10-11T08:01:03Z</time>
<desc>lat.=44.606388, lon.=33.739262, Alt.=316.183838m. Speed=4.536000m/h.</desc>
<speed>1.260000</speed>
</trkpt>
<trkpt lat="44.606411" lon="33.739307">
<ele>318.035400</ele>
<time>2011-10-11T08:01:08Z</time>
<desc>lat.=44.606411, lon.=33.739307, Alt.=318.035400m. Speed=3.204000m/h.</desc>
<speed>0.890000</speed>
</trkpt>
<trkpt lat="44.606457" lon="33.739334">
<ele>319.496338</ele>
<time>2011-10-11T08:01:13Z</time>
<desc>lat.=44.606457, lon.=33.739334, Alt.=319.496338m. Speed=1.908000m/h.</desc>
<speed>0.530000</speed>
</trkpt>
<trkpt lat="44.606472" lon="33.739361">
<ele>320.394775</ele>
<time>2011-10-11T08:01:18Z</time>
<desc>lat.=44.606472, lon.=33.739361, Alt.=320.394775m. Speed=0.756000m/h.</desc>
<speed>0.210000</speed>
</trkpt>
<trkpt lat="44.606503" lon="33.739388">
<ele>321.285400</ele>
<time>2011-10-11T08:01:23Z</time>
<desc>lat.=44.606503, lon.=33.739388, Alt.=321.285400m. Speed=1.296000m/h.</desc>
<speed>0.360000</speed>
</trkpt>
<trkpt lat="44.606491" lon="33.739391">
<ele>321.301025</ele>
<time>2011-10-11T08:01:28Z</time>
<desc>lat.=44.606491, lon.=33.739391, Alt.=321.301025m. Speed=0.072000m/h.</desc>
<speed>0.020000</speed>
</trkpt>
<trkpt lat="44.606487" lon="33.739380">
<ele>321.324463</ele>
<time>2011-10-11T08:01:33Z</time>
<desc>lat.=44.606487, lon.=33.739380, Alt.=321.324463m. Speed=1.296000m/h.</desc>
<speed>0.360000</speed>
</trkpt>
<trkpt lat="44.606457" lon="33.739315">
<ele>321.113525</ele>
<time>2011-10-11T08:01:38Z</time>
<desc>lat.=44.606457, lon.=33.739315, Alt.=321.113525m. Speed=3.996000m/h.</desc>
<speed>1.110000</speed>
</trkpt>
<trkpt lat="44.606396" lon="33.739235">
<ele>320.801025</ele>
<time>2011-10-11T08:01:43Z</time>
<desc>lat.=44.606396, lon.=33.739235, Alt.=320.801025m. Speed=4.860000m/h.</desc>
<speed>1.350000</speed>
</trkpt>
<trkpt lat="44.606396" lon="33.739159">
<ele>320.027588</ele>
<time>2011-10-11T08:01:48Z</time>
<desc>lat.=44.606396, lon.=33.739159, Alt.=320.027588m. Speed=0.324000m/h.</desc>
<speed>0.090000</speed>
</trkpt>
<trkpt lat="44.606392" lon="33.739159">
<ele>319.933838</ele>
<time>2011-10-11T08:01:53Z</time>
<desc>lat.=44.606392, lon.=33.739159, Alt.=319.933838m. Speed=0.324000m/h.</desc>
<speed>0.090000</speed>
</trkpt>
<trkpt lat="44.606396" lon="33.739159">
<ele>319.871338</ele>
<time>2011-10-11T08:01:58Z</time>
<desc>lat.=44.606396, lon.=33.739159, Alt.=319.871338m. Speed=0.360000m/h.</desc>
<speed>0.100000</speed>
</trkpt>
<trkpt lat="44.606400" lon="33.739162">
<ele>319.832275</ele>
<time>2011-10-11T08:02:03Z</time>
<desc>lat.=44.606400, lon.=33.739162, Alt.=319.832275m. Speed=2.880000m/h.</desc>
<speed>0.800000</speed>
</trkpt>
<trkpt lat="44.606441" lon="33.739223">
<ele>319.301025</ele>
<time>2011-10-11T08:02:08Z</time>
<desc>lat.=44.606441, lon.=33.739223, Alt.=319.301025m. Speed=3.528000m/h.</desc>
<speed>0.980000</speed>
</trkpt>
<trkpt lat="44.606461" lon="33.739296">
<ele>318.722900</ele>
<time>2011-10-11T08:02:13Z</time>
<desc>lat.=44.606461, lon.=33.739296, Alt.=318.722900m. Speed=6.228000m/h.</desc>
<speed>1.730000</speed>
</trkpt>
<trkpt lat="44.606522" lon="33.739376">
<ele>317.918213</ele>
<time>2011-10-11T08:02:18Z</time>
<desc>lat.=44.606522, lon.=33.739376, Alt.=317.918213m. Speed=6.012000m/h.</desc>
<speed>1.670000</speed>
</trkpt>
<trkpt lat="44.606556" lon="33.739449">
<ele>316.957275</ele>
<time>2011-10-11T08:02:23Z</time>
<desc>lat.=44.606556, lon.=33.739449, Alt.=316.957275m. Speed=3.420000m/h.</desc>
<speed>0.950000</speed>
</trkpt>
<trkpt lat="44.606564" lon="33.739532">
<ele>315.949463</ele>
<time>2011-10-11T08:02:28Z</time>
<desc>lat.=44.606564, lon.=33.739532, Alt.=315.949463m. Speed=3.168000m/h.</desc>
<speed>0.880000</speed>
</trkpt>
<trkpt lat="44.606579" lon="33.739590">
<ele>315.144775</ele>
<time>2011-10-11T08:02:33Z</time>
<desc>lat.=44.606579, lon.=33.739590, Alt.=315.144775m. Speed=2.592000m/h.</desc>
<speed>0.720000</speed>
</trkpt>
<trkpt lat="44.606575" lon="33.739658">
<ele>314.011963</ele>
<time>2011-10-11T08:02:38Z</time>
<desc>lat.=44.606575, lon.=33.739658, Alt.=314.011963m. Speed=4.428000m/h.</desc>
<speed>1.230000</speed>
</trkpt>
<trkpt lat="44.606586" lon="33.739735">
<ele>312.386963</ele>
<time>2011-10-11T08:02:43Z</time>
<desc>lat.=44.606586, lon.=33.739735, Alt.=312.386963m. Speed=6.408000m/h.</desc>
<speed>1.780000</speed>
</trkpt>
<trkpt lat="44.606602" lon="33.739799">
<ele>310.777588</ele>
<time>2011-10-11T08:02:48Z</time>
<desc>lat.=44.606602, lon.=33.739799, Alt.=310.777588m. Speed=4.212000m/h.</desc>
<speed>1.170000</speed>
</trkpt>
<trkpt lat="44.606617" lon="33.739876">
<ele>308.566650</ele>
<time>2011-10-11T08:02:53Z</time>
<desc>lat.=44.606617, lon.=33.739876, Alt.=308.566650m. Speed=4.500000m/h.</desc>
<speed>1.250000</speed>
</trkpt>
<trkpt lat="44.606640" lon="33.739941">
<ele>307.121338</ele>
<time>2011-10-11T08:02:58Z</time>
<desc>lat.=44.606640, lon.=33.739941, Alt.=307.121338m. Speed=3.132000m/h.</desc>
<speed>0.870000</speed>
</trkpt>
<trkpt lat="44.606632" lon="33.739990">
<ele>305.097900</ele>
<time>2011-10-11T08:03:03Z</time>
<desc>lat.=44.606632, lon.=33.739990, Alt.=305.097900m. Speed=3.168000m/h.</desc>
<speed>0.880000</speed>
</trkpt>
<trkpt lat="44.606647" lon="33.740063">
<ele>303.277588</ele>
<time>2011-10-11T08:03:08Z</time>
<desc>lat.=44.606647, lon.=33.740063, Alt.=303.277588m. Speed=4.284000m/h.</desc>
<speed>1.190000</speed>
</trkpt>
<trkpt lat="44.606686" lon="33.740105">
<ele>300.910400</ele>
<time>2011-10-11T08:03:13Z</time>
<desc>lat.=44.606686, lon.=33.740105, Alt.=300.910400m. Speed=2.664000m/h.</desc>
<speed>0.740000</speed>
</trkpt>
<trkpt lat="44.606716" lon="33.740135">
<ele>298.761963</ele>
<time>2011-10-11T08:03:18Z</time>
<desc>lat.=44.606716, lon.=33.740135, Alt.=298.761963m. Speed=1.872000m/h.</desc>
<speed>0.520000</speed>
</trkpt>
<trkpt lat="44.606728" lon="33.740189">
<ele>297.113525</ele>
<time>2011-10-11T08:03:23Z</time>
<desc>lat.=44.606728, lon.=33.740189, Alt.=297.113525m. Speed=2.628000m/h.</desc>
<speed>0.730000</speed>
</trkpt>
<trkpt lat="44.606735" lon="33.740253">
<ele>295.582275</ele>
<time>2011-10-11T08:03:28Z</time>
<desc>lat.=44.606735, lon.=33.740253, Alt.=295.582275m. Speed=2.916000m/h.</desc>
<speed>0.810000</speed>
</trkpt>
<trkpt lat="44.606766" lon="33.740322">
<ele>292.066650</ele>
<time>2011-10-11T08:03:33Z</time>
<desc>lat.=44.606766, lon.=33.740322, Alt.=292.066650m. Speed=3.996000m/h.</desc>
<speed>1.110000</speed>
</trkpt>
<trkpt lat="44.606792" lon="33.740391">
<ele>289.308838</ele>
<time>2011-10-11T08:03:38Z</time>
<desc>lat.=44.606792, lon.=33.740391, Alt.=289.308838m. Speed=2.808000m/h.</desc>
<speed>0.780000</speed>
</trkpt>
<trkpt lat="44.606792" lon="33.740490">
<ele>287.058838</ele>
<time>2011-10-11T08:03:43Z</time>
<desc>lat.=44.606792, lon.=33.740490, Alt.=287.058838m. Speed=5.256000m/h.</desc>
<speed>1.460000</speed>
</trkpt>
<trkpt lat="44.606804" lon="33.740570">
<ele>284.910400</ele>
<time>2011-10-11T08:03:48Z</time>
<desc>lat.=44.606804, lon.=33.740570, Alt.=284.910400m. Speed=4.140000m/h.</desc>
<speed>1.150000</speed>
</trkpt>
<trkpt lat="44.606819" lon="33.740658">
<ele>283.293213</ele>
<time>2011-10-11T08:03:53Z</time>
<desc>lat.=44.606819, lon.=33.740658, Alt.=283.293213m. Speed=2.448000m/h.</desc>
<speed>0.680000</speed>
</trkpt>
<trkpt lat="44.606842" lon="33.740692">
<ele>281.644775</ele>
<time>2011-10-11T08:03:58Z</time>
<desc>lat.=44.606842, lon.=33.740692, Alt.=281.644775m. Speed=2.484000m/h.</desc>
<speed>0.690000</speed>
</trkpt>
<trkpt lat="44.606846" lon="33.740749">
<ele>280.051025</ele>
<time>2011-10-11T08:04:03Z</time>
<desc>lat.=44.606846, lon.=33.740749, Alt.=280.051025m. Speed=3.888000m/h.</desc>
<speed>1.080000</speed>
</trkpt>
<trkpt lat="44.606861" lon="33.740814">
<ele>278.847900</ele>
<time>2011-10-11T08:04:08Z</time>
<desc>lat.=44.606861, lon.=33.740814, Alt.=278.847900m. Speed=2.520000m/h.</desc>
<speed>0.700000</speed>
</trkpt>
<trkpt lat="44.606850" lon="33.740883">
<ele>277.433838</ele>
<time>2011-10-11T08:04:13Z</time>
<desc>lat.=44.606850, lon.=33.740883, Alt.=277.433838m. Speed=2.484000m/h.</desc>
<speed>0.690000</speed>
</trkpt>
<trkpt lat="44.606857" lon="33.740936">
<ele>276.027588</ele>
<time>2011-10-11T08:04:18Z</time>
<desc>lat.=44.606857, lon.=33.740936, Alt.=276.027588m. Speed=1.548000m/h.</desc>
<speed>0.430000</speed>
</trkpt>
<trkpt lat="44.606873" lon="33.740971">
<ele>275.074463</ele>
<time>2011-10-11T08:04:23Z</time>
<desc>lat.=44.606873, lon.=33.740971, Alt.=275.074463m. Speed=0.648000m/h.</desc>
<speed>0.180000</speed>
</trkpt>
<trkpt lat="44.606869" lon="33.740971">
<ele>274.746338</ele>
<time>2011-10-11T08:04:28Z</time>
<desc>lat.=44.606869, lon.=33.740971, Alt.=274.746338m. Speed=0.468000m/h.</desc>
<speed>0.130000</speed>
</trkpt>
<trkpt lat="44.606869" lon="33.740974">
<ele>274.488525</ele>
<time>2011-10-11T08:04:33Z</time>
<desc>lat.=44.606869, lon.=33.740974, Alt.=274.488525m. Speed=1.836000m/h.</desc>
<speed>0.510000</speed>
</trkpt>
<trkpt lat="44.606857" lon="33.741028">
<ele>274.863525</ele>
<time>2011-10-11T08:04:38Z</time>
<desc>lat.=44.606857, lon.=33.741028, Alt.=274.863525m. Speed=1.836000m/h.</desc>
<speed>0.510000</speed>
</trkpt>
<trkpt lat="44.606857" lon="33.741062">
<ele>274.543213</ele>
<time>2011-10-11T08:04:43Z</time>
<desc>lat.=44.606857, lon.=33.741062, Alt.=274.543213m. Speed=2.268000m/h.</desc>
<speed>0.630000</speed>
</trkpt>
<trkpt lat="44.606831" lon="33.741104">
<ele>274.324463</ele>
<time>2011-10-11T08:04:48Z</time>
<desc>lat.=44.606831, lon.=33.741104, Alt.=274.324463m. Speed=2.520000m/h.</desc>
<speed>0.700000</speed>
</trkpt>
<trkpt lat="44.606819" lon="33.741135">
<ele>274.629150</ele>
<time>2011-10-11T08:04:53Z</time>
<desc>lat.=44.606819, lon.=33.741135, Alt.=274.629150m. Speed=1.404000m/h.</desc>
<speed>0.390000</speed>
</trkpt>
<trkpt lat="44.606827" lon="33.741138">
<ele>274.683838</ele>
<time>2011-10-11T08:04:58Z</time>
<desc>lat.=44.606827, lon.=33.741138, Alt.=274.683838m. Speed=0.504000m/h.</desc>
<speed>0.140000</speed>
</trkpt>
<trkpt lat="44.606831" lon="33.741116">
<ele>275.230713</ele>
<time>2011-10-11T08:05:03Z</time>
<desc>lat.=44.606831, lon.=33.741116, Alt.=275.230713m. Speed=1.548000m/h.</desc>
<speed>0.430000</speed>
</trkpt>
<trkpt lat="44.606850" lon="33.741100">
<ele>275.972900</ele>
<time>2011-10-11T08:05:08Z</time>
<desc>lat.=44.606850, lon.=33.741100, Alt.=275.972900m. Speed=1.116000m/h.</desc>
<speed>0.310000</speed>
</trkpt>
<trkpt lat="44.606861" lon="33.741104">
<ele>276.285400</ele>
<time>2011-10-11T08:05:13Z</time>
<desc>lat.=44.606861, lon.=33.741104, Alt.=276.285400m. Speed=0.540000m/h.</desc>
<speed>0.150000</speed>
</trkpt>
<trkpt lat="44.606850" lon="33.741096">
<ele>277.105713</ele>
<time>2011-10-11T08:05:18Z</time>
<desc>lat.=44.606850, lon.=33.741096, Alt.=277.105713m. Speed=0.612000m/h.</desc>
<speed>0.170000</speed>
</trkpt>
<trkpt lat="44.606838" lon="33.741100">
<ele>277.379150</ele>
<time>2011-10-11T08:05:23Z</time>
<desc>lat.=44.606838, lon.=33.741100, Alt.=277.379150m. Speed=0.576000m/h.</desc>
<speed>0.160000</speed>
</trkpt>
<trkpt lat="44.606819" lon="33.741131">
<ele>277.636963</ele>
<time>2011-10-11T08:05:28Z</time>
<desc>lat.=44.606819, lon.=33.741131, Alt.=277.636963m. Speed=1.476000m/h.</desc>
<speed>0.410000</speed>
</trkpt>
<trkpt lat="44.606812" lon="33.741165">
<ele>277.949463</ele>
<time>2011-10-11T08:05:33Z</time>
<desc>lat.=44.606812, lon.=33.741165, Alt.=277.949463m. Speed=1.836000m/h.</desc>
<speed>0.510000</speed>
</trkpt>
<trkpt lat="44.606812" lon="33.741180">
<ele>278.144775</ele>
<time>2011-10-11T08:05:38Z</time>
<desc>lat.=44.606812, lon.=33.741180, Alt.=278.144775m. Speed=0.720000m/h.</desc>
<speed>0.200000</speed>
</trkpt>
<trkpt lat="44.606815" lon="33.741177">
<ele>278.402588</ele>
<time>2011-10-11T08:05:43Z</time>
<desc>lat.=44.606815, lon.=33.741177, Alt.=278.402588m. Speed=2.016000m/h.</desc>
<speed>0.560000</speed>
</trkpt>
<trkpt lat="44.606812" lon="33.741180">
<ele>278.043213</ele>
<time>2011-10-11T08:05:48Z</time>
<desc>lat.=44.606812, lon.=33.741180, Alt.=278.043213m. Speed=0.072000m/h.</desc>
<speed>0.020000</speed>
</trkpt>
<trkpt lat="44.606804" lon="33.741150">
<ele>277.613525</ele>
<time>2011-10-11T08:05:53Z</time>
<desc>lat.=44.606804, lon.=33.741150, Alt.=277.613525m. Speed=0.936000m/h.</desc>
<speed>0.260000</speed>
</trkpt>
<trkpt lat="44.606773" lon="33.741150">
<ele>277.144775</ele>
<time>2011-10-11T08:05:58Z</time>
<desc>lat.=44.606773, lon.=33.741150, Alt.=277.144775m. Speed=3.240000m/h.</desc>
<speed>0.900000</speed>
</trkpt>
<trkpt lat="44.606754" lon="33.741180">
<ele>277.152588</ele>
<time>2011-10-11T08:06:03Z</time>
<desc>lat.=44.606754, lon.=33.741180, Alt.=277.152588m. Speed=2.664000m/h.</desc>
<speed>0.740000</speed>
</trkpt>
<trkpt lat="44.606766" lon="33.741215">
<ele>276.808838</ele>
<time>2011-10-11T08:06:08Z</time>
<desc>lat.=44.606766, lon.=33.741215, Alt.=276.808838m. Speed=1.440000m/h.</desc>
<speed>0.400000</speed>
</trkpt>
<trkpt lat="44.606754" lon="33.741264">
<ele>276.715088</ele>
<time>2011-10-11T08:06:13Z</time>
<desc>lat.=44.606754, lon.=33.741264, Alt.=276.715088m. Speed=2.592000m/h.</desc>
<speed>0.720000</speed>
</trkpt>
<trkpt lat="44.606747" lon="33.741302">
<ele>276.597900</ele>
<time>2011-10-11T08:06:18Z</time>
<desc>lat.=44.606747, lon.=33.741302, Alt.=276.597900m. Speed=2.160000m/h.</desc>
<speed>0.600000</speed>
</trkpt>
<trkpt lat="44.606739" lon="33.741364">
<ele>276.527588</ele>
<time>2011-10-11T08:06:23Z</time>
<desc>lat.=44.606739, lon.=33.741364, Alt.=276.527588m. Speed=2.520000m/h.</desc>
<speed>0.700000</speed>
</trkpt>
<trkpt lat="44.606743" lon="33.741436">
<ele>276.402588</ele>
<time>2011-10-11T08:06:28Z</time>
<desc>lat.=44.606743, lon.=33.741436, Alt.=276.402588m. Speed=3.888000m/h.</desc>
<speed>1.080000</speed>
</trkpt>
<trkpt lat="44.606754" lon="33.741535">
<ele>276.105713</ele>
<time>2011-10-11T08:06:33Z</time>
<desc>lat.=44.606754, lon.=33.741535, Alt.=276.105713m. Speed=3.960000m/h.</desc>
<speed>1.100000</speed>
</trkpt>
<trkpt lat="44.606808" lon="33.741631">
<ele>275.285400</ele>
<time>2011-10-11T08:06:38Z</time>
<desc>lat.=44.606808, lon.=33.741631, Alt.=275.285400m. Speed=5.760000m/h.</desc>
<speed>1.600000</speed>
</trkpt>
<trkpt lat="44.606869" lon="33.741699">
<ele>274.636963</ele>
<time>2011-10-11T08:06:43Z</time>
<desc>lat.=44.606869, lon.=33.741699, Alt.=274.636963m. Speed=5.148000m/h.</desc>
<speed>1.430000</speed>
</trkpt>
<trkpt lat="44.606915" lon="33.741749">
<ele>274.761963</ele>
<time>2011-10-11T08:06:48Z</time>
<desc>lat.=44.606915, lon.=33.741749, Alt.=274.761963m. Speed=4.500000m/h.</desc>
<speed>1.250000</speed>
</trkpt>
<trkpt lat="44.606953" lon="33.741806">
<ele>274.746338</ele>
<time>2011-10-11T08:06:53Z</time>
<desc>lat.=44.606953, lon.=33.741806, Alt.=274.746338m. Speed=4.536000m/h.</desc>
<speed>1.260000</speed>
</trkpt>
<trkpt lat="44.606956" lon="33.741901">
<ele>274.246338</ele>
<time>2011-10-11T08:06:58Z</time>
<desc>lat.=44.606956, lon.=33.741901, Alt.=274.246338m. Speed=3.780000m/h.</desc>
<speed>1.050000</speed>
</trkpt>
<trkpt lat="44.606964" lon="33.741997">
<ele>272.582275</ele>
<time>2011-10-11T08:07:03Z</time>
<desc>lat.=44.606964, lon.=33.741997, Alt.=272.582275m. Speed=4.500000m/h.</desc>
<speed>1.250000</speed>
</trkpt>
<trkpt lat="44.606991" lon="33.742096">
<ele>270.894775</ele>
<time>2011-10-11T08:07:08Z</time>
<desc>lat.=44.606991, lon.=33.742096, Alt.=270.894775m. Speed=5.580000m/h.</desc>
<speed>1.550000</speed>
</trkpt>
<trkpt lat="44.607006" lon="33.742176">
<ele>266.832275</ele>
<time>2011-10-11T08:07:13Z</time>
<desc>lat.=44.607006, lon.=33.742176, Alt.=266.832275m. Speed=5.544000m/h.</desc>
<speed>1.540000</speed>
</trkpt>
<trkpt lat="44.607025" lon="33.742245">
<ele>262.863525</ele>
<time>2011-10-11T08:07:18Z</time>
<desc>lat.=44.607025, lon.=33.742245, Alt.=262.863525m. Speed=5.976000m/h.</desc>
<speed>1.660000</speed>
</trkpt>
<trkpt lat="44.607071" lon="33.742298">
<ele>259.480713</ele>
<time>2011-10-11T08:07:23Z</time>
<desc>lat.=44.607071, lon.=33.742298, Alt.=259.480713m. Speed=6.228000m/h.</desc>
<speed>1.730000</speed>
</trkpt>
<trkpt lat="44.607124" lon="33.742382">
<ele>257.746338</ele>
<time>2011-10-11T08:07:28Z</time>
<desc>lat.=44.607124, lon.=33.742382, Alt.=257.746338m. Speed=5.508000m/h.</desc>
<speed>1.530000</speed>
</trkpt>
<trkpt lat="44.607185" lon="33.742435">
<ele>255.834106</ele>
<time>2011-10-11T08:07:33Z</time>
<desc>lat.=44.607185, lon.=33.742435, Alt.=255.834106m. Speed=6.660000m/h.</desc>
<speed>1.850000</speed>
</trkpt>
<trkpt lat="44.607258" lon="33.742500">
<ele>252.923950</ele>
<time>2011-10-11T08:07:38Z</time>
<desc>lat.=44.607258, lon.=33.742500, Alt.=252.923950m. Speed=6.408000m/h.</desc>
<speed>1.780000</speed>
</trkpt>
<trkpt lat="44.607315" lon="33.742561">
<ele>250.642700</ele>
<time>2011-10-11T08:07:43Z</time>
<desc>lat.=44.607315, lon.=33.742561, Alt.=250.642700m. Speed=6.552000m/h.</desc>
<speed>1.820000</speed>
</trkpt>
<trkpt lat="44.607376" lon="33.742584">
<ele>248.400513</ele>
<time>2011-10-11T08:07:48Z</time>
<desc>lat.=44.607376, lon.=33.742584, Alt.=248.400513m. Speed=4.428000m/h.</desc>
<speed>1.230000</speed>
</trkpt>
<trkpt lat="44.607445" lon="33.742641">
<ele>246.494263</ele>
<time>2011-10-11T08:07:53Z</time>
<desc>lat.=44.607445, lon.=33.742641, Alt.=246.494263m. Speed=6.876000m/h.</desc>
<speed>1.910000</speed>
</trkpt>
<trkpt lat="44.607502" lon="33.742672">
<ele>245.670044</ele>
<time>2011-10-11T08:07:58Z</time>
<desc>lat.=44.607502, lon.=33.742672, Alt.=245.670044m. Speed=7.128000m/h.</desc>
<speed>1.980000</speed>
</trkpt>
<trkpt lat="44.607563" lon="33.742722">
<ele>244.943481</ele>
<time>2011-10-11T08:08:03Z</time>
<desc>lat.=44.607563, lon.=33.742722, Alt.=244.943481m. Speed=4.608000m/h.</desc>
<speed>1.280000</speed>
</trkpt>
<trkpt lat="44.607609" lon="33.742775">
<ele>244.630981</ele>
<time>2011-10-11T08:08:08Z</time>
<desc>lat.=44.607609, lon.=33.742775, Alt.=244.630981m. Speed=5.184000m/h.</desc>
<speed>1.440000</speed>
</trkpt>
<trkpt lat="44.607655" lon="33.742809">
<ele>243.916138</ele>
<time>2011-10-11T08:08:13Z</time>
<desc>lat.=44.607655, lon.=33.742809, Alt.=243.916138m. Speed=4.824000m/h.</desc>
<speed>1.340000</speed>
</trkpt>
<trkpt lat="44.607761" lon="33.742851">
<ele>243.021606</ele>
<time>2011-10-11T08:08:18Z</time>
<desc>lat.=44.607761, lon.=33.742851, Alt.=243.021606m. Speed=5.148000m/h.</desc>
<speed>1.430000</speed>
</trkpt>
<trkpt lat="44.607822" lon="33.742878">
<ele>242.353638</ele>
<time>2011-10-11T08:08:23Z</time>
<desc>lat.=44.607822, lon.=33.742878, Alt.=242.353638m. Speed=4.392000m/h.</desc>
<speed>1.220000</speed>
</trkpt>
<trkpt lat="44.607864" lon="33.742905">
<ele>242.209106</ele>
<time>2011-10-11T08:08:28Z</time>
<desc>lat.=44.607864, lon.=33.742905, Alt.=242.209106m. Speed=3.636000m/h.</desc>
<speed>1.010000</speed>
</trkpt>
<trkpt lat="44.607925" lon="33.742935">
<ele>241.412231</ele>
<time>2011-10-11T08:08:33Z</time>
<desc>lat.=44.607925, lon.=33.742935, Alt.=241.412231m. Speed=1.656000m/h.</desc>
<speed>0.460000</speed>
</trkpt>
<trkpt lat="44.607975" lon="33.742966">
<ele>240.291138</ele>
<time>2011-10-11T08:08:38Z</time>
<desc>lat.=44.607975, lon.=33.742966, Alt.=240.291138m. Speed=4.068000m/h.</desc>
<speed>1.130000</speed>
</trkpt>
<trkpt lat="44.608047" lon="33.742962">
<ele>238.791138</ele>
<time>2011-10-11T08:08:43Z</time>
<desc>lat.=44.608047, lon.=33.742962, Alt.=238.791138m. Speed=3.780000m/h.</desc>
<speed>1.050000</speed>
</trkpt>
<trkpt lat="44.608105" lon="33.742992">
<ele>238.041138</ele>
<time>2011-10-11T08:08:48Z</time>
<desc>lat.=44.608105, lon.=33.742992, Alt.=238.041138m. Speed=4.140000m/h.</desc>
<speed>1.150000</speed>
</trkpt>
<trkpt lat="44.608150" lon="33.743034">
<ele>236.908325</ele>
<time>2011-10-11T08:08:53Z</time>
<desc>lat.=44.608150, lon.=33.743034, Alt.=236.908325m. Speed=2.664000m/h.</desc>
<speed>0.740000</speed>
</trkpt>
<trkpt lat="44.608192" lon="33.743088">
<ele>236.130981</ele>
<time>2011-10-11T08:08:58Z</time>
<desc>lat.=44.608192, lon.=33.743088, Alt.=236.130981m. Speed=2.412000m/h.</desc>
<speed>0.670000</speed>
</trkpt>
<trkpt lat="44.608238" lon="33.743118">
<ele>236.060669</ele>
<time>2011-10-11T08:09:03Z</time>
<desc>lat.=44.608238, lon.=33.743118, Alt.=236.060669m. Speed=3.204000m/h.</desc>
<speed>0.890000</speed>
</trkpt>
<trkpt lat="44.608284" lon="33.743176">
<ele>236.052856</ele>
<time>2011-10-11T08:09:08Z</time>
<desc>lat.=44.608284, lon.=33.743176, Alt.=236.052856m. Speed=2.700000m/h.</desc>
<speed>0.750000</speed>
</trkpt>
<trkpt lat="44.608307" lon="33.743214">
<ele>235.814575</ele>
<time>2011-10-11T08:09:13Z</time>
<desc>lat.=44.608307, lon.=33.743214, Alt.=235.814575m. Speed=2.916000m/h.</desc>
<speed>0.810000</speed>
</trkpt>
<trkpt lat="44.608376" lon="33.743221">
<ele>235.189575</ele>
<time>2011-10-11T08:09:18Z</time>
<desc>lat.=44.608376, lon.=33.743221, Alt.=235.189575m. Speed=4.356000m/h.</desc>
<speed>1.210000</speed>
</trkpt>
<trkpt lat="44.608402" lon="33.743324">
<ele>235.771606</ele>
<time>2011-10-11T08:09:23Z</time>
<desc>lat.=44.608402, lon.=33.743324, Alt.=235.771606m. Speed=3.636000m/h.</desc>
<speed>1.010000</speed>
</trkpt>
<trkpt lat="44.608452" lon="33.743362">
<ele>236.283325</ele>
<time>2011-10-11T08:09:28Z</time>
<desc>lat.=44.608452, lon.=33.743362, Alt.=236.283325m. Speed=4.320000m/h.</desc>
<speed>1.200000</speed>
</trkpt>
<trkpt lat="44.608494" lon="33.743401">
<ele>236.838013</ele>
<time>2011-10-11T08:09:33Z</time>
<desc>lat.=44.608494, lon.=33.743401, Alt.=236.838013m. Speed=2.736000m/h.</desc>
<speed>0.760000</speed>
</trkpt>
<trkpt lat="44.608547" lon="33.743431">
<ele>235.947388</ele>
<time>2011-10-11T08:09:38Z</time>
<desc>lat.=44.608547, lon.=33.743431, Alt.=235.947388m. Speed=4.068000m/h.</desc>
<speed>1.130000</speed>
</trkpt>
<trkpt lat="44.608585" lon="33.743488">
<ele>236.466919</ele>
<time>2011-10-11T08:09:43Z</time>
<desc>lat.=44.608585, lon.=33.743488, Alt.=236.466919m. Speed=4.500000m/h.</desc>
<speed>1.250000</speed>
</trkpt>
<trkpt lat="44.608643" lon="33.743534">
<ele>235.795044</ele>
<time>2011-10-11T08:09:48Z</time>
<desc>lat.=44.608643, lon.=33.743534, Alt.=235.795044m. Speed=4.608000m/h.</desc>
<speed>1.280000</speed>
</trkpt>
<trkpt lat="44.608700" lon="33.743534">
<ele>233.486450</ele>
<time>2011-10-11T08:09:53Z</time>
<desc>lat.=44.608700, lon.=33.743534, Alt.=233.486450m. Speed=4.608000m/h.</desc>
<speed>1.280000</speed>
</trkpt>
<trkpt lat="44.608768" lon="33.743546">
<ele>232.287231</ele>
<time>2011-10-11T08:09:58Z</time>
<desc>lat.=44.608768, lon.=33.743546, Alt.=232.287231m. Speed=4.536000m/h.</desc>
<speed>1.260000</speed>
</trkpt>
<trkpt lat="44.608837" lon="33.743557">
<ele>231.252075</ele>
<time>2011-10-11T08:10:03Z</time>
<desc>lat.=44.608837, lon.=33.743557, Alt.=231.252075m. Speed=4.176000m/h.</desc>
<speed>1.160000</speed>
</trkpt>
<trkpt lat="44.608891" lon="33.743584">
<ele>230.513794</ele>
<time>2011-10-11T08:10:08Z</time>
<desc>lat.=44.608891, lon.=33.743584, Alt.=230.513794m. Speed=5.112000m/h.</desc>
<speed>1.420000</speed>
</trkpt>
<trkpt lat="44.608955" lon="33.743614">
<ele>230.486450</ele>
<time>2011-10-11T08:10:13Z</time>
<desc>lat.=44.608955, lon.=33.743614, Alt.=230.486450m. Speed=4.572000m/h.</desc>
<speed>1.270000</speed>
</trkpt>
<trkpt lat="44.609005" lon="33.743629">
<ele>229.681763</ele>
<time>2011-10-11T08:10:18Z</time>
<desc>lat.=44.609005, lon.=33.743629, Alt.=229.681763m. Speed=3.492000m/h.</desc>
<speed>0.970000</speed>
</trkpt>
<trkpt lat="44.609058" lon="33.743649">
<ele>229.689575</ele>
<time>2011-10-11T08:10:23Z</time>
<desc>lat.=44.609058, lon.=33.743649, Alt.=229.689575m. Speed=3.852000m/h.</desc>
<speed>1.070000</speed>
</trkpt>
<trkpt lat="44.609119" lon="33.743660">
<ele>228.650513</ele>
<time>2011-10-11T08:10:28Z</time>
<desc>lat.=44.609119, lon.=33.743660, Alt.=228.650513m. Speed=4.680000m/h.</desc>
<speed>1.300000</speed>
</trkpt>
<trkpt lat="44.609173" lon="33.743671">
<ele>229.228638</ele>
<time>2011-10-11T08:10:33Z</time>
<desc>lat.=44.609173, lon.=33.743671, Alt.=229.228638m. Speed=4.608000m/h.</desc>
<speed>1.280000</speed>
</trkpt>
<trkpt lat="44.609238" lon="33.743664">
<ele>229.259888</ele>
<time>2011-10-11T08:10:38Z</time>
<desc>lat.=44.609238, lon.=33.743664, Alt.=229.259888m. Speed=5.472000m/h.</desc>
<speed>1.520000</speed>
</trkpt>
<trkpt lat="44.609280" lon="33.743668">
<ele>229.310669</ele>
<time>2011-10-11T08:10:43Z</time>
<desc>lat.=44.609280, lon.=33.743668, Alt.=229.310669m. Speed=2.160000m/h.</desc>
<speed>0.600000</speed>
</trkpt>
<trkpt lat="44.609348" lon="33.743660">
<ele>229.466919</ele>
<time>2011-10-11T08:10:48Z</time>
<desc>lat.=44.609348, lon.=33.743660, Alt.=229.466919m. Speed=5.076000m/h.</desc>
<speed>1.410000</speed>
</trkpt>
<trkpt lat="44.609421" lon="33.743656">
<ele>229.283325</ele>
<time>2011-10-11T08:10:53Z</time>
<desc>lat.=44.609421, lon.=33.743656, Alt.=229.283325m. Speed=4.284000m/h.</desc>
<speed>1.190000</speed>
</trkpt>
<trkpt lat="44.609474" lon="33.743664">
<ele>228.654419</ele>
<time>2011-10-11T08:10:58Z</time>
<desc>lat.=44.609474, lon.=33.743664, Alt.=228.654419m. Speed=3.996000m/h.</desc>
<speed>1.110000</speed>
</trkpt>
<trkpt lat="44.609539" lon="33.743664">
<ele>227.978638</ele>
<time>2011-10-11T08:11:03Z</time>
<desc>lat.=44.609539, lon.=33.743664, Alt.=227.978638m. Speed=4.824000m/h.</desc>
<speed>1.340000</speed>
</trkpt>
<trkpt lat="44.609600" lon="33.743683">
<ele>227.732544</ele>
<time>2011-10-11T08:11:08Z</time>
<desc>lat.=44.609600, lon.=33.743683, Alt.=227.732544m. Speed=4.536000m/h.</desc>
<speed>1.260000</speed>
</trkpt>
<trkpt lat="44.609653" lon="33.743725">
<ele>226.951294</ele>
<time>2011-10-11T08:11:13Z</time>
<desc>lat.=44.609653, lon.=33.743725, Alt.=226.951294m. Speed=4.248000m/h.</desc>
<speed>1.180000</speed>
</trkpt>
<trkpt lat="44.609715" lon="33.743755">
<ele>226.353638</ele>
<time>2011-10-11T08:11:18Z</time>
<desc>lat.=44.609715, lon.=33.743755, Alt.=226.353638m. Speed=4.356000m/h.</desc>
<speed>1.210000</speed>
</trkpt>
<trkpt lat="44.609791" lon="33.743771">
<ele>226.439575</ele>
<time>2011-10-11T08:11:23Z</time>
<desc>lat.=44.609791, lon.=33.743771, Alt.=226.439575m. Speed=6.336000m/h.</desc>
<speed>1.760000</speed>
</trkpt>
<trkpt lat="44.609837" lon="33.743755">
<ele>227.435669</ele>
<time>2011-10-11T08:11:28Z</time>
<desc>lat.=44.609837, lon.=33.743755, Alt.=227.435669m. Speed=3.528000m/h.</desc>
<speed>0.980000</speed>
</trkpt>
<trkpt lat="44.609901" lon="33.743774">
<ele>227.713013</ele>
<time>2011-10-11T08:11:33Z</time>
<desc>lat.=44.609901, lon.=33.743774, Alt.=227.713013m. Speed=4.968000m/h.</desc>
<speed>1.380000</speed>
</trkpt>
<trkpt lat="44.609974" lon="33.743793">
<ele>227.349731</ele>
<time>2011-10-11T08:11:38Z</time>
<desc>lat.=44.609974, lon.=33.743793, Alt.=227.349731m. Speed=6.840000m/h.</desc>
<speed>1.900000</speed>
</trkpt>
<trkpt lat="44.610050" lon="33.743755">
<ele>227.892700</ele>
<time>2011-10-11T08:11:43Z</time>
<desc>lat.=44.610050, lon.=33.743755, Alt.=227.892700m. Speed=7.200000m/h.</desc>
<speed>2.000000</speed>
</trkpt>
<trkpt lat="44.610119" lon="33.743687">
<ele>227.646606</ele>
<time>2011-10-11T08:11:48Z</time>
<desc>lat.=44.610119, lon.=33.743687, Alt.=227.646606m. Speed=4.824000m/h.</desc>
<speed>1.340000</speed>
</trkpt>
<trkpt lat="44.610199" lon="33.743645">
<ele>228.130981</ele>
<time>2011-10-11T08:11:53Z</time>
<desc>lat.=44.610199, lon.=33.743645, Alt.=228.130981m. Speed=6.120000m/h.</desc>
<speed>1.700000</speed>
</trkpt>
<trkpt lat="44.610256" lon="33.743595">
<ele>229.287231</ele>
<time>2011-10-11T08:11:58Z</time>
<desc>lat.=44.610256, lon.=33.743595, Alt.=229.287231m. Speed=3.888000m/h.</desc>
<speed>1.080000</speed>
</trkpt>
<trkpt lat="44.610325" lon="33.743553">
<ele>232.181763</ele>
<time>2011-10-11T08:12:03Z</time>
<desc>lat.=44.610325, lon.=33.743553, Alt.=232.181763m. Speed=4.320000m/h.</desc>
<speed>1.200000</speed>
</trkpt>
<trkpt lat="44.610386" lon="33.743523">
<ele>232.603638</ele>
<time>2011-10-11T08:12:08Z</time>
<desc>lat.=44.610386, lon.=33.743523, Alt.=232.603638m. Speed=5.364000m/h.</desc>
<speed>1.490000</speed>
</trkpt>
<trkpt lat="44.610451" lon="33.743427">
<ele>234.021606</ele>
<time>2011-10-11T08:12:13Z</time>
<desc>lat.=44.610451, lon.=33.743427, Alt.=234.021606m. Speed=6.048000m/h.</desc>
<speed>1.680000</speed>
</trkpt>
<trkpt lat="44.610519" lon="33.743366">
<ele>234.158325</ele>
<time>2011-10-11T08:12:18Z</time>
<desc>lat.=44.610519, lon.=33.743366, Alt.=234.158325m. Speed=4.356000m/h.</desc>
<speed>1.210000</speed>
</trkpt>
<trkpt lat="44.610569" lon="33.743294">
<ele>233.822388</ele>
<time>2011-10-11T08:12:23Z</time>
<desc>lat.=44.610569, lon.=33.743294, Alt.=233.822388m. Speed=5.868000m/h.</desc>
<speed>1.630000</speed>
</trkpt>
<trkpt lat="44.610638" lon="33.743229">
<ele>234.755981</ele>
<time>2011-10-11T08:12:28Z</time>
<desc>lat.=44.610638, lon.=33.743229, Alt.=234.755981m. Speed=5.148000m/h.</desc>
<speed>1.430000</speed>
</trkpt>
<trkpt lat="44.610680" lon="33.743164">
<ele>234.459106</ele>
<time>2011-10-11T08:12:33Z</time>
<desc>lat.=44.610680, lon.=33.743164, Alt.=234.459106m. Speed=5.076000m/h.</desc>
<speed>1.410000</speed>
</trkpt>
<trkpt lat="44.610729" lon="33.743103">
<ele>234.537231</ele>
<time>2011-10-11T08:12:38Z</time>
<desc>lat.=44.610729, lon.=33.743103, Alt.=234.537231m. Speed=5.760000m/h.</desc>
<speed>1.600000</speed>
</trkpt>
<trkpt lat="44.610806" lon="33.743069">
<ele>234.677856</ele>
<time>2011-10-11T08:12:43Z</time>
<desc>lat.=44.610806, lon.=33.743069, Alt.=234.677856m. Speed=5.652000m/h.</desc>
<speed>1.570000</speed>
</trkpt>
<trkpt lat="44.610870" lon="33.743038">
<ele>234.888794</ele>
<time>2011-10-11T08:12:48Z</time>
<desc>lat.=44.610870, lon.=33.743038, Alt.=234.888794m. Speed=4.752000m/h.</desc>
<speed>1.320000</speed>
</trkpt>
<trkpt lat="44.610928" lon="33.742970">
<ele>236.420044</ele>
<time>2011-10-11T08:12:53Z</time>
<desc>lat.=44.610928, lon.=33.742970, Alt.=236.420044m. Speed=4.680000m/h.</desc>
<speed>1.300000</speed>
</trkpt>
<trkpt lat="44.610977" lon="33.742931">
<ele>236.076294</ele>
<time>2011-10-11T08:12:58Z</time>
<desc>lat.=44.610977, lon.=33.742931, Alt.=236.076294m. Speed=5.148000m/h.</desc>
<speed>1.430000</speed>
</trkpt>
<trkpt lat="44.611042" lon="33.742886">
<ele>236.248169</ele>
<time>2011-10-11T08:13:03Z</time>
<desc>lat.=44.611042, lon.=33.742886, Alt.=236.248169m. Speed=4.212000m/h.</desc>
<speed>1.170000</speed>
</trkpt>
<trkpt lat="44.611088" lon="33.742840">
<ele>236.580200</ele>
<time>2011-10-11T08:13:08Z</time>
<desc>lat.=44.611088, lon.=33.742840, Alt.=236.580200m. Speed=6.372000m/h.</desc>
<speed>1.770000</speed>
</trkpt>
<trkpt lat="44.611156" lon="33.742802">
<ele>236.904419</ele>
<time>2011-10-11T08:13:13Z</time>
<desc>lat.=44.611156, lon.=33.742802, Alt.=236.904419m. Speed=6.480000m/h.</desc>
<speed>1.800000</speed>
</trkpt>
<trkpt lat="44.611229" lon="33.742764">
<ele>235.935669</ele>
<time>2011-10-11T08:13:18Z</time>
<desc>lat.=44.611229, lon.=33.742764, Alt.=235.935669m. Speed=4.464000m/h.</desc>
<speed>1.240000</speed>
</trkpt>
<trkpt lat="44.611305" lon="33.742733">
<ele>235.189575</ele>
<time>2011-10-11T08:13:23Z</time>
<desc>lat.=44.611305, lon.=33.742733, Alt.=235.189575m. Speed=5.364000m/h.</desc>
<speed>1.490000</speed>
</trkpt>
<trkpt lat="44.611332" lon="33.742680">
<ele>233.634888</ele>
<time>2011-10-11T08:13:28Z</time>
<desc>lat.=44.611332, lon.=33.742680, Alt.=233.634888m. Speed=4.032000m/h.</desc>
<speed>1.120000</speed>
</trkpt>
<trkpt lat="44.611382" lon="33.742630">
<ele>233.463013</ele>
<time>2011-10-11T08:13:33Z</time>
<desc>lat.=44.611382, lon.=33.742630, Alt.=233.463013m. Speed=4.320000m/h.</desc>
<speed>1.200000</speed>
</trkpt>
<trkpt lat="44.611458" lon="33.742603">
<ele>233.111450</ele>
<time>2011-10-11T08:13:38Z</time>
<desc>lat.=44.611458, lon.=33.742603, Alt.=233.111450m. Speed=4.644000m/h.</desc>
<speed>1.290000</speed>
</trkpt>
<trkpt lat="44.611511" lon="33.742561">
<ele>233.185669</ele>
<time>2011-10-11T08:13:43Z</time>
<desc>lat.=44.611511, lon.=33.742561, Alt.=233.185669m. Speed=5.364000m/h.</desc>
<speed>1.490000</speed>
</trkpt>
<trkpt lat="44.611557" lon="33.742542">
<ele>233.033325</ele>
<time>2011-10-11T08:13:48Z</time>
<desc>lat.=44.611557, lon.=33.742542, Alt.=233.033325m. Speed=3.240000m/h.</desc>
<speed>0.900000</speed>
</trkpt>
<trkpt lat="44.611610" lon="33.742458">
<ele>232.896606</ele>
<time>2011-10-11T08:13:53Z</time>
<desc>lat.=44.611610, lon.=33.742458, Alt.=232.896606m. Speed=5.256000m/h.</desc>
<speed>1.460000</speed>
</trkpt>
<trkpt lat="44.611649" lon="33.742401">
<ele>233.193481</ele>
<time>2011-10-11T08:13:58Z</time>
<desc>lat.=44.611649, lon.=33.742401, Alt.=233.193481m. Speed=3.456000m/h.</desc>
<speed>0.960000</speed>
</trkpt>
<trkpt lat="44.611683" lon="33.742336">
<ele>233.416138</ele>
<time>2011-10-11T08:14:03Z</time>
<desc>lat.=44.611683, lon.=33.742336, Alt.=233.416138m. Speed=2.052000m/h.</desc>
<speed>0.570000</speed>
</trkpt>
<trkpt lat="44.611744" lon="33.742313">
<ele>234.795044</ele>
<time>2011-10-11T08:14:08Z</time>
<desc>lat.=44.611744, lon.=33.742313, Alt.=234.795044m. Speed=3.636000m/h.</desc>
<speed>1.010000</speed>
</trkpt>
<trkpt lat="44.611790" lon="33.742290">
<ele>235.904419</ele>
<time>2011-10-11T08:14:13Z</time>
<desc>lat.=44.611790, lon.=33.742290, Alt.=235.904419m. Speed=3.312000m/h.</desc>
<speed>0.920000</speed>
</trkpt>
<trkpt lat="44.611843" lon="33.742176">
<ele>236.095825</ele>
<time>2011-10-11T08:14:18Z</time>
<desc>lat.=44.611843, lon.=33.742176, Alt.=236.095825m. Speed=3.420000m/h.</desc>
<speed>0.950000</speed>
</trkpt>
<trkpt lat="44.611900" lon="33.742096">
<ele>236.603638</ele>
<time>2011-10-11T08:14:23Z</time>
<desc>lat.=44.611900, lon.=33.742096, Alt.=236.603638m. Speed=5.400000m/h.</desc>
<speed>1.500000</speed>
</trkpt>
<trkpt lat="44.611950" lon="33.742054">
<ele>237.720825</ele>
<time>2011-10-11T08:14:28Z</time>
<desc>lat.=44.611950, lon.=33.742054, Alt.=237.720825m. Speed=4.500000m/h.</desc>
<speed>1.250000</speed>
</trkpt>
<trkpt lat="44.612003" lon="33.742023">
<ele>238.052856</ele>
<time>2011-10-11T08:14:33Z</time>
<desc>lat.=44.612003, lon.=33.742023, Alt.=238.052856m. Speed=3.852000m/h.</desc>
<speed>1.070000</speed>
</trkpt>
<trkpt lat="44.612064" lon="33.742023">
<ele>238.060669</ele>
<time>2011-10-11T08:14:38Z</time>
<desc>lat.=44.612064, lon.=33.742023, Alt.=238.060669m. Speed=4.860000m/h.</desc>
<speed>1.350000</speed>
</trkpt>
<trkpt lat="44.612144" lon="33.742046">
<ele>236.439575</ele>
<time>2011-10-11T08:14:43Z</time>
<desc>lat.=44.612144, lon.=33.742046, Alt.=236.439575m. Speed=5.328000m/h.</desc>
<speed>1.480000</speed>
</trkpt>
<trkpt lat="44.612217" lon="33.741955">
<ele>232.330200</ele>
<time>2011-10-11T08:14:48Z</time>
<desc>lat.=44.612217, lon.=33.741955, Alt.=232.330200m. Speed=3.240000m/h.</desc>
<speed>0.900000</speed>
</trkpt>
<trkpt lat="44.612263" lon="33.741894">
<ele>231.170044</ele>
<time>2011-10-11T08:14:53Z</time>
<desc>lat.=44.612263, lon.=33.741894, Alt.=231.170044m. Speed=1.368000m/h.</desc>
<speed>0.380000</speed>
</trkpt>
<trkpt lat="44.612328" lon="33.741806">
<ele>229.623169</ele>
<time>2011-10-11T08:14:58Z</time>
<desc>lat.=44.612328, lon.=33.741806, Alt.=229.623169m. Speed=6.048000m/h.</desc>
<speed>1.680000</speed>
</trkpt>
<trkpt lat="44.612392" lon="33.741726">
<ele>228.838013</ele>
<time>2011-10-11T08:15:03Z</time>
<desc>lat.=44.612392, lon.=33.741726, Alt.=228.838013m. Speed=5.364000m/h.</desc>
<speed>1.490000</speed>
</trkpt>
<trkpt lat="44.612423" lon="33.741642">
<ele>227.068481</ele>
<time>2011-10-11T08:15:08Z</time>
<desc>lat.=44.612423, lon.=33.741642, Alt.=227.068481m. Speed=5.508000m/h.</desc>
<speed>1.530000</speed>
</trkpt>
<trkpt lat="44.612480" lon="33.741566">
<ele>225.466919</ele>
<time>2011-10-11T08:15:13Z</time>
<desc>lat.=44.612480, lon.=33.741566, Alt.=225.466919m. Speed=5.580000m/h.</desc>
<speed>1.550000</speed>
</trkpt>
<trkpt lat="44.612530" lon="33.741501">
<ele>225.662231</ele>
<time>2011-10-11T08:15:18Z</time>
<desc>lat.=44.612530, lon.=33.741501, Alt.=225.662231m. Speed=5.544000m/h.</desc>
<speed>1.540000</speed>
</trkpt>
<trkpt lat="44.612583" lon="33.741436">
<ele>224.486450</ele>
<time>2011-10-11T08:15:23Z</time>
<desc>lat.=44.612583, lon.=33.741436, Alt.=224.486450m. Speed=5.292000m/h.</desc>
<speed>1.470000</speed>
</trkpt>
<trkpt lat="44.612625" lon="33.741360">
<ele>222.310669</ele>
<time>2011-10-11T08:15:28Z</time>
<desc>lat.=44.612625, lon.=33.741360, Alt.=222.310669m. Speed=6.372000m/h.</desc>
<speed>1.770000</speed>
</trkpt>
<trkpt lat="44.612675" lon="33.741295">
<ele>221.263794</ele>
<time>2011-10-11T08:15:33Z</time>
<desc>lat.=44.612675, lon.=33.741295, Alt.=221.263794m. Speed=5.148000m/h.</desc>
<speed>1.430000</speed>
</trkpt>
<trkpt lat="44.612720" lon="33.741234">
<ele>219.728638</ele>
<time>2011-10-11T08:15:38Z</time>
<desc>lat.=44.612720, lon.=33.741234, Alt.=219.728638m. Speed=5.940000m/h.</desc>
<speed>1.650000</speed>
</trkpt>
<trkpt lat="44.612762" lon="33.741173">
<ele>219.521606</ele>
<time>2011-10-11T08:15:43Z</time>
<desc>lat.=44.612762, lon.=33.741173, Alt.=219.521606m. Speed=4.248000m/h.</desc>
<speed>1.180000</speed>
</trkpt>
<trkpt lat="44.612808" lon="33.741093">
<ele>219.353638</ele>
<time>2011-10-11T08:15:48Z</time>
<desc>lat.=44.612808, lon.=33.741093, Alt.=219.353638m. Speed=5.184000m/h.</desc>
<speed>1.440000</speed>
</trkpt>
<trkpt lat="44.612854" lon="33.741009">
<ele>218.974731</ele>
<time>2011-10-11T08:15:53Z</time>
<desc>lat.=44.612854, lon.=33.741009, Alt.=218.974731m. Speed=5.796000m/h.</desc>
<speed>1.610000</speed>
</trkpt>
<trkpt lat="44.612919" lon="33.740959">
<ele>218.607544</ele>
<time>2011-10-11T08:15:58Z</time>
<desc>lat.=44.612919, lon.=33.740959, Alt.=218.607544m. Speed=5.688000m/h.</desc>
<speed>1.580000</speed>
</trkpt>
<trkpt lat="44.612965" lon="33.740887">
<ele>217.755981</ele>
<time>2011-10-11T08:16:03Z</time>
<desc>lat.=44.612965, lon.=33.740887, Alt.=217.755981m. Speed=5.112000m/h.</desc>
<speed>1.420000</speed>
</trkpt>
<trkpt lat="44.613003" lon="33.740810">
<ele>217.322388</ele>
<time>2011-10-11T08:16:08Z</time>
<desc>lat.=44.613003, lon.=33.740810, Alt.=217.322388m. Speed=4.500000m/h.</desc>
<speed>1.250000</speed>
</trkpt>
<trkpt lat="44.613041" lon="33.740757">
<ele>216.990356</ele>
<time>2011-10-11T08:16:13Z</time>
<desc>lat.=44.613041, lon.=33.740757, Alt.=216.990356m. Speed=4.788000m/h.</desc>
<speed>1.330000</speed>
</trkpt>
<trkpt lat="44.613087" lon="33.740677">
<ele>216.959106</ele>
<time>2011-10-11T08:16:18Z</time>
<desc>lat.=44.613087, lon.=33.740677, Alt.=216.959106m. Speed=3.924000m/h.</desc>
<speed>1.090000</speed>
</trkpt>
<trkpt lat="44.613132" lon="33.740635">
<ele>216.670044</ele>
<time>2011-10-11T08:16:23Z</time>
<desc>lat.=44.613132, lon.=33.740635, Alt.=216.670044m. Speed=3.636000m/h.</desc>
<speed>1.010000</speed>
</trkpt>
<trkpt lat="44.613197" lon="33.740593">
<ele>217.037231</ele>
<time>2011-10-11T08:16:28Z</time>
<desc>lat.=44.613197, lon.=33.740593, Alt.=217.037231m. Speed=5.472000m/h.</desc>
<speed>1.520000</speed>
</trkpt>
<trkpt lat="44.613281" lon="33.740566">
<ele>217.150513</ele>
<time>2011-10-11T08:16:33Z</time>
<desc>lat.=44.613281, lon.=33.740566, Alt.=217.150513m. Speed=6.300000m/h.</desc>
<speed>1.750000</speed>
</trkpt>
<trkpt lat="44.613354" lon="33.740532">
<ele>217.455200</ele>
<time>2011-10-11T08:16:38Z</time>
<desc>lat.=44.613354, lon.=33.740532, Alt.=217.455200m. Speed=5.688000m/h.</desc>
<speed>1.580000</speed>
</trkpt>
<trkpt lat="44.613426" lon="33.740486">
<ele>216.990356</ele>
<time>2011-10-11T08:16:43Z</time>
<desc>lat.=44.613426, lon.=33.740486, Alt.=216.990356m. Speed=5.364000m/h.</desc>
<speed>1.490000</speed>
</trkpt>
<trkpt lat="44.613483" lon="33.740448">
<ele>216.142700</ele>
<time>2011-10-11T08:16:48Z</time>
<desc>lat.=44.613483, lon.=33.740448, Alt.=216.142700m. Speed=4.644000m/h.</desc>
<speed>1.290000</speed>
</trkpt>
<trkpt lat="44.613552" lon="33.740410">
<ele>215.947388</ele>
<time>2011-10-11T08:16:53Z</time>
<desc>lat.=44.613552, lon.=33.740410, Alt.=215.947388m. Speed=5.544000m/h.</desc>
<speed>1.540000</speed>
</trkpt>
<trkpt lat="44.613621" lon="33.740356">
<ele>215.908325</ele>
<time>2011-10-11T08:16:58Z</time>
<desc>lat.=44.613621, lon.=33.740356, Alt.=215.908325m. Speed=4.644000m/h.</desc>
<speed>1.290000</speed>
</trkpt>
<trkpt lat="44.613682" lon="33.740307">
<ele>216.244263</ele>
<time>2011-10-11T08:17:03Z</time>
<desc>lat.=44.613682, lon.=33.740307, Alt.=216.244263m. Speed=5.436000m/h.</desc>
<speed>1.510000</speed>
</trkpt>
<trkpt lat="44.613739" lon="33.740265">
<ele>216.619263</ele>
<time>2011-10-11T08:17:08Z</time>
<desc>lat.=44.613739, lon.=33.740265, Alt.=216.619263m. Speed=5.220000m/h.</desc>
<speed>1.450000</speed>
</trkpt>
<trkpt lat="44.613789" lon="33.740234">
<ele>216.416138</ele>
<time>2011-10-11T08:17:13Z</time>
<desc>lat.=44.613789, lon.=33.740234, Alt.=216.416138m. Speed=4.068000m/h.</desc>
<speed>1.130000</speed>
</trkpt>
<trkpt lat="44.613834" lon="33.740189">
<ele>215.693481</ele>
<time>2011-10-11T08:17:18Z</time>
<desc>lat.=44.613834, lon.=33.740189, Alt.=215.693481m. Speed=5.400000m/h.</desc>
<speed>1.500000</speed>
</trkpt>
<trkpt lat="44.613892" lon="33.740139">
<ele>215.541138</ele>
<time>2011-10-11T08:17:23Z</time>
<desc>lat.=44.613892, lon.=33.740139, Alt.=215.541138m. Speed=5.940000m/h.</desc>
<speed>1.650000</speed>
</trkpt>
<trkpt lat="44.613953" lon="33.740082">
<ele>215.252075</ele>
<time>2011-10-11T08:17:28Z</time>
<desc>lat.=44.613953, lon.=33.740082, Alt.=215.252075m. Speed=5.580000m/h.</desc>
<speed>1.550000</speed>
</trkpt>
<trkpt lat="44.614014" lon="33.740028">
<ele>214.873169</ele>
<time>2011-10-11T08:17:33Z</time>
<desc>lat.=44.614014, lon.=33.740028, Alt.=214.873169m. Speed=5.328000m/h.</desc>
<speed>1.480000</speed>
</trkpt>
<trkpt lat="44.614056" lon="33.739967">
<ele>213.646606</ele>
<time>2011-10-11T08:17:38Z</time>
<desc>lat.=44.614056, lon.=33.739967, Alt.=213.646606m. Speed=4.644000m/h.</desc>
<speed>1.290000</speed>
</trkpt>
<trkpt lat="44.614117" lon="33.739906">
<ele>211.568481</ele>
<time>2011-10-11T08:17:43Z</time>
<desc>lat.=44.614117, lon.=33.739906, Alt.=211.568481m. Speed=5.364000m/h.</desc>
<speed>1.490000</speed>
</trkpt>
<trkpt lat="44.614166" lon="33.739861">
<ele>211.088013</ele>
<time>2011-10-11T08:17:48Z</time>
<desc>lat.=44.614166, lon.=33.739861, Alt.=211.088013m. Speed=4.788000m/h.</desc>
<speed>1.330000</speed>
</trkpt>
<trkpt lat="44.614208" lon="33.739838">
<ele>210.216919</ele>
<time>2011-10-11T08:17:53Z</time>
<desc>lat.=44.614208, lon.=33.739838, Alt.=210.216919m. Speed=2.196000m/h.</desc>
<speed>0.610000</speed>
</trkpt>
<trkpt lat="44.614250" lon="33.739819">
<ele>208.916138</ele>
<time>2011-10-11T08:17:58Z</time>
<desc>lat.=44.614250, lon.=33.739819, Alt.=208.916138m. Speed=3.456000m/h.</desc>
<speed>0.960000</speed>
</trkpt>
<trkpt lat="44.614311" lon="33.739792">
<ele>208.322388</ele>
<time>2011-10-11T08:18:03Z</time>
<desc>lat.=44.614311, lon.=33.739792, Alt.=208.322388m. Speed=4.356000m/h.</desc>
<speed>1.210000</speed>
</trkpt>
<trkpt lat="44.614407" lon="33.739727">
<ele>207.556763</ele>
<time>2011-10-11T08:18:08Z</time>
<desc>lat.=44.614407, lon.=33.739727, Alt.=207.556763m. Speed=4.896000m/h.</desc>
<speed>1.360000</speed>
</trkpt>
<trkpt lat="44.614456" lon="33.739681">
<ele>207.990356</ele>
<time>2011-10-11T08:18:13Z</time>
<desc>lat.=44.614456, lon.=33.739681, Alt.=207.990356m. Speed=3.960000m/h.</desc>
<speed>1.100000</speed>
</trkpt>
<trkpt lat="44.614540" lon="33.739601">
<ele>207.279419</ele>
<time>2011-10-11T08:18:18Z</time>
<desc>lat.=44.614540, lon.=33.739601, Alt.=207.279419m. Speed=5.472000m/h.</desc>
<speed>1.520000</speed>
</trkpt>
<trkpt lat="44.614616" lon="33.739544">
<ele>206.591919</ele>
<time>2011-10-11T08:18:23Z</time>
<desc>lat.=44.614616, lon.=33.739544, Alt.=206.591919m. Speed=5.472000m/h.</desc>
<speed>1.520000</speed>
</trkpt>
<trkpt lat="44.614674" lon="33.739475">
<ele>206.236450</ele>
<time>2011-10-11T08:18:28Z</time>
<desc>lat.=44.614674, lon.=33.739475, Alt.=206.236450m. Speed=5.868000m/h.</desc>
<speed>1.630000</speed>
</trkpt>
<trkpt lat="44.614742" lon="33.739403">
<ele>205.076294</ele>
<time>2011-10-11T08:18:33Z</time>
<desc>lat.=44.614742, lon.=33.739403, Alt.=205.076294m. Speed=6.084000m/h.</desc>
<speed>1.690000</speed>
</trkpt>
<trkpt lat="44.614811" lon="33.739357">
<ele>203.818481</ele>
<time>2011-10-11T08:18:38Z</time>
<desc>lat.=44.614811, lon.=33.739357, Alt.=203.818481m. Speed=3.852000m/h.</desc>
<speed>1.070000</speed>
</trkpt>
<trkpt lat="44.614857" lon="33.739296">
<ele>202.732544</ele>
<time>2011-10-11T08:18:43Z</time>
<desc>lat.=44.614857, lon.=33.739296, Alt.=202.732544m. Speed=4.284000m/h.</desc>
<speed>1.190000</speed>
</trkpt>
<trkpt lat="44.614918" lon="33.739250">
<ele>201.209106</ele>
<time>2011-10-11T08:18:48Z</time>
<desc>lat.=44.614918, lon.=33.739250, Alt.=201.209106m. Speed=5.688000m/h.</desc>
<speed>1.580000</speed>
</trkpt>
<trkpt lat="44.614971" lon="33.739197">
<ele>200.056763</ele>
<time>2011-10-11T08:18:53Z</time>
<desc>lat.=44.614971, lon.=33.739197, Alt.=200.056763m. Speed=5.580000m/h.</desc>
<speed>1.550000</speed>
</trkpt>
<trkpt lat="44.615032" lon="33.739155">
<ele>198.525513</ele>
<time>2011-10-11T08:18:58Z</time>
<desc>lat.=44.615032, lon.=33.739155, Alt.=198.525513m. Speed=4.212000m/h.</desc>
<speed>1.170000</speed>
</trkpt>
<trkpt lat="44.615097" lon="33.739113">
<ele>198.021606</ele>
<time>2011-10-11T08:19:03Z</time>
<desc>lat.=44.615097, lon.=33.739113, Alt.=198.021606m. Speed=6.876000m/h.</desc>
<speed>1.910000</speed>
</trkpt>
<trkpt lat="44.615170" lon="33.739063">
<ele>198.416138</ele>
<time>2011-10-11T08:19:08Z</time>
<desc>lat.=44.615170, lon.=33.739063, Alt.=198.416138m. Speed=8.388000m/h.</desc>
<speed>2.330000</speed>
</trkpt>
<trkpt lat="44.615223" lon="33.739014">
<ele>197.982544</ele>
<time>2011-10-11T08:19:13Z</time>
<desc>lat.=44.615223, lon.=33.739014, Alt.=197.982544m. Speed=3.924000m/h.</desc>
<speed>1.090000</speed>
</trkpt>
<trkpt lat="44.615265" lon="33.738945">
<ele>197.974731</ele>
<time>2011-10-11T08:19:18Z</time>
<desc>lat.=44.615265, lon.=33.738945, Alt.=197.974731m. Speed=4.320000m/h.</desc>
<speed>1.200000</speed>
</trkpt>
<trkpt lat="44.615288" lon="33.738911">
<ele>197.974731</ele>
<time>2011-10-11T08:19:23Z</time>
<desc>lat.=44.615288, lon.=33.738911, Alt.=197.974731m. Speed=1.404000m/h.</desc>
<speed>0.390000</speed>
</trkpt>
<trkpt lat="44.615334" lon="33.738876">
<ele>197.693481</ele>
<time>2011-10-11T08:19:28Z</time>
<desc>lat.=44.615334, lon.=33.738876, Alt.=197.693481m. Speed=2.556000m/h.</desc>
<speed>0.710000</speed>
</trkpt>
<trkpt lat="44.615417" lon="33.738827">
<ele>197.646606</ele>
<time>2011-10-11T08:19:33Z</time>
<desc>lat.=44.615417, lon.=33.738827, Alt.=197.646606m. Speed=5.724000m/h.</desc>
<speed>1.590000</speed>
</trkpt>
<trkpt lat="44.615467" lon="33.738750">
<ele>197.752075</ele>
<time>2011-10-11T08:19:38Z</time>
<desc>lat.=44.615467, lon.=33.738750, Alt.=197.752075m. Speed=5.184000m/h.</desc>
<speed>1.440000</speed>
</trkpt>
<trkpt lat="44.615513" lon="33.738682">
<ele>197.744263</ele>
<time>2011-10-11T08:19:43Z</time>
<desc>lat.=44.615513, lon.=33.738682, Alt.=197.744263m. Speed=5.184000m/h.</desc>
<speed>1.440000</speed>
</trkpt>
<trkpt lat="44.615570" lon="33.738628">
<ele>197.728638</ele>
<time>2011-10-11T08:19:48Z</time>
<desc>lat.=44.615570, lon.=33.738628, Alt.=197.728638m. Speed=5.076000m/h.</desc>
<speed>1.410000</speed>
</trkpt>
<trkpt lat="44.615635" lon="33.738594">
<ele>197.947388</ele>
<time>2011-10-11T08:19:53Z</time>
<desc>lat.=44.615635, lon.=33.738594, Alt.=197.947388m. Speed=3.672000m/h.</desc>
<speed>1.020000</speed>
</trkpt>
<trkpt lat="44.615692" lon="33.738541">
<ele>197.705200</ele>
<time>2011-10-11T08:19:58Z</time>
<desc>lat.=44.615692, lon.=33.738541, Alt.=197.705200m. Speed=5.832000m/h.</desc>
<speed>1.620000</speed>
</trkpt>
<trkpt lat="44.615753" lon="33.738483">
<ele>197.994263</ele>
<time>2011-10-11T08:20:03Z</time>
<desc>lat.=44.615753, lon.=33.738483, Alt.=197.994263m. Speed=5.220000m/h.</desc>
<speed>1.450000</speed>
</trkpt>
<trkpt lat="44.615807" lon="33.738441">
<ele>197.134888</ele>
<time>2011-10-11T08:20:08Z</time>
<desc>lat.=44.615807, lon.=33.738441, Alt.=197.134888m. Speed=4.284000m/h.</desc>
<speed>1.190000</speed>
</trkpt>
<trkpt lat="44.615875" lon="33.738419">
<ele>198.224731</ele>
<time>2011-10-11T08:20:13Z</time>
<desc>lat.=44.615875, lon.=33.738419, Alt.=198.224731m. Speed=2.232000m/h.</desc>
<speed>0.620000</speed>
</trkpt>
<trkpt lat="44.615875" lon="33.738396">
<ele>199.068481</ele>
<time>2011-10-11T08:20:18Z</time>
<desc>lat.=44.615875, lon.=33.738396, Alt.=199.068481m. Speed=0.252000m/h.</desc>
<speed>0.070000</speed>
</trkpt>
<trkpt lat="44.615879" lon="33.738403">
<ele>199.439575</ele>
<time>2011-10-11T08:20:23Z</time>
<desc>lat.=44.615879, lon.=33.738403, Alt.=199.439575m. Speed=0.540000m/h.</desc>
<speed>0.150000</speed>
</trkpt>
<trkpt lat="44.615891" lon="33.738392">
<ele>199.630981</ele>
<time>2011-10-11T08:20:28Z</time>
<desc>lat.=44.615891, lon.=33.738392, Alt.=199.630981m. Speed=1.908000m/h.</desc>
<speed>0.530000</speed>
</trkpt>
<trkpt lat="44.615891" lon="33.738377">
<ele>199.736450</ele>
<time>2011-10-11T08:20:33Z</time>
<desc>lat.=44.615891, lon.=33.738377, Alt.=199.736450m. Speed=0.504000m/h.</desc>
<speed>0.140000</speed>
</trkpt>
<trkpt lat="44.615887" lon="33.738380">
<ele>199.951294</ele>
<time>2011-10-11T08:20:38Z</time>
<desc>lat.=44.615887, lon.=33.738380, Alt.=199.951294m. Speed=0.324000m/h.</desc>
<speed>0.090000</speed>
</trkpt>
<trkpt lat="44.615875" lon="33.738396">
<ele>199.783325</ele>
<time>2011-10-11T08:20:43Z</time>
<desc>lat.=44.615875, lon.=33.738396, Alt.=199.783325m. Speed=0.648000m/h.</desc>
<speed>0.180000</speed>
</trkpt>
<trkpt lat="44.615856" lon="33.738419">
<ele>199.900513</ele>
<time>2011-10-11T08:20:48Z</time>
<desc>lat.=44.615856, lon.=33.738419, Alt.=199.900513m. Speed=0.036000m/h.</desc>
<speed>0.010000</speed>
</trkpt>
<trkpt lat="44.615852" lon="33.738422">
<ele>200.486450</ele>
<time>2011-10-11T08:20:53Z</time>
<desc>lat.=44.615852, lon.=33.738422, Alt.=200.486450m. Speed=0.108000m/h.</desc>
<speed>0.030000</speed>
</trkpt>
<trkpt lat="44.615845" lon="33.738407">
<ele>201.060669</ele>
<time>2011-10-11T08:20:58Z</time>
<desc>lat.=44.615845, lon.=33.738407, Alt.=201.060669m. Speed=0.432000m/h.</desc>
<speed>0.120000</speed>
</trkpt>
<trkpt lat="44.615849" lon="33.738407">
<ele>201.037231</ele>
<time>2011-10-11T08:21:03Z</time>
<desc>lat.=44.615849, lon.=33.738407, Alt.=201.037231m. Speed=0.468000m/h.</desc>
<speed>0.130000</speed>
</trkpt>
<trkpt lat="44.615849" lon="33.738403">
<ele>201.396606</ele>
<time>2011-10-11T08:21:08Z</time>
<desc>lat.=44.615849, lon.=33.738403, Alt.=201.396606m. Speed=0.252000m/h.</desc>
<speed>0.070000</speed>
</trkpt>
<trkpt lat="44.615868" lon="33.738365">
<ele>201.361450</ele>
<time>2011-10-11T08:21:13Z</time>
<desc>lat.=44.615868, lon.=33.738365, Alt.=201.361450m. Speed=2.124000m/h.</desc>
<speed>0.590000</speed>
</trkpt>
<trkpt lat="44.615883" lon="33.738365">
<ele>201.005981</ele>
<time>2011-10-11T08:21:18Z</time>
<desc>lat.=44.615883, lon.=33.738365, Alt.=201.005981m. Speed=1.152000m/h.</desc>
<speed>0.320000</speed>
</trkpt>
<trkpt lat="44.615887" lon="33.738369">
<ele>201.146606</ele>
<time>2011-10-11T08:21:23Z</time>
<desc>lat.=44.615887, lon.=33.738369, Alt.=201.146606m. Speed=1.224000m/h.</desc>
<speed>0.340000</speed>
</trkpt>
<trkpt lat="44.615887" lon="33.738358">
<ele>201.130981</ele>
<time>2011-10-11T08:21:28Z</time>
<desc>lat.=44.615887, lon.=33.738358, Alt.=201.130981m. Speed=0.252000m/h.</desc>
<speed>0.070000</speed>
</trkpt>
<trkpt lat="44.615891" lon="33.738354">
<ele>201.123169</ele>
<time>2011-10-11T08:21:33Z</time>
<desc>lat.=44.615891, lon.=33.738354, Alt.=201.123169m. Speed=0.216000m/h.</desc>
<speed>0.060000</speed>
</trkpt>
<trkpt lat="44.615887" lon="33.738342">
<ele>201.103638</ele>
<time>2011-10-11T08:21:38Z</time>
<desc>lat.=44.615887, lon.=33.738342, Alt.=201.103638m. Speed=1.404000m/h.</desc>
<speed>0.390000</speed>
</trkpt>
<trkpt lat="44.615879" lon="33.738327">
<ele>201.099731</ele>
<time>2011-10-11T08:21:43Z</time>
<desc>lat.=44.615879, lon.=33.738327, Alt.=201.099731m. Speed=0.972000m/h.</desc>
<speed>0.270000</speed>
</trkpt>
<trkpt lat="44.615875" lon="33.738323">
<ele>201.091919</ele>
<time>2011-10-11T08:21:48Z</time>
<desc>lat.=44.615875, lon.=33.738323, Alt.=201.091919m. Speed=0.288000m/h.</desc>
<speed>0.080000</speed>
</trkpt>
<trkpt lat="44.615871" lon="33.738331">
<ele>201.099731</ele>
<time>2011-10-11T08:21:53Z</time>
<desc>lat.=44.615871, lon.=33.738331, Alt.=201.099731m. Speed=0.720000m/h.</desc>
<speed>0.200000</speed>
</trkpt>
<trkpt lat="44.615864" lon="33.738354">
<ele>201.111450</ele>
<time>2011-10-11T08:21:58Z</time>
<desc>lat.=44.615864, lon.=33.738354, Alt.=201.111450m. Speed=1.260000m/h.</desc>
<speed>0.350000</speed>
</trkpt>
<trkpt lat="44.615852" lon="33.738419">
<ele>201.158325</ele>
<time>2011-10-11T08:22:03Z</time>
<desc>lat.=44.615852, lon.=33.738419, Alt.=201.158325m. Speed=1.620000m/h.</desc>
<speed>0.450000</speed>
</trkpt>
<trkpt lat="44.615849" lon="33.738464">
<ele>201.162231</ele>
<time>2011-10-11T08:22:08Z</time>
<desc>lat.=44.615849, lon.=33.738464, Alt.=201.162231m. Speed=1.656000m/h.</desc>
<speed>0.460000</speed>
</trkpt>
<trkpt lat="44.615887" lon="33.738396">
<ele>201.295044</ele>
<time>2011-10-11T08:22:13Z</time>
<desc>lat.=44.615887, lon.=33.738396, Alt.=201.295044m. Speed=0.612000m/h.</desc>
<speed>0.170000</speed>
</trkpt>
<trkpt lat="44.615894" lon="33.738377">
<ele>201.798950</ele>
<time>2011-10-11T08:22:18Z</time>
<desc>lat.=44.615894, lon.=33.738377, Alt.=201.798950m. Speed=0.000000m/h.</desc>
<speed>0.000000</speed>
</trkpt>
<trkpt lat="44.615894" lon="33.738377">
<ele>201.806763</ele>
<time>2011-10-11T08:22:23Z</time>
<desc>lat.=44.615894, lon.=33.738377, Alt.=201.806763m. Speed=0.000000m/h.</desc>
<speed>0.000000</speed>
</trkpt>
<trkpt lat="44.615894" lon="33.738377">
<ele>201.810669</ele>
<time>2011-10-11T08:22:28Z</time>
<desc>lat.=44.615894, lon.=33.738377, Alt.=201.810669m. Speed=0.144000m/h.</desc>
<speed>0.040000</speed>
</trkpt>
<trkpt lat="44.615891" lon="33.738373">
<ele>201.806763</ele>
<time>2011-10-11T08:22:33Z</time>
<desc>lat.=44.615891, lon.=33.738373, Alt.=201.806763m. Speed=0.144000m/h.</desc>
<speed>0.040000</speed>
</trkpt>
<trkpt lat="44.615891" lon="33.738373">
<ele>201.806763</ele>
<time>2011-10-11T08:22:38Z</time>
<desc>lat.=44.615891, lon.=33.738373, Alt.=201.806763m. Speed=0.180000m/h.</desc>
<speed>0.050000</speed>
</trkpt>
<trkpt lat="44.615887" lon="33.738377">
<ele>201.806763</ele>
<time>2011-10-11T08:22:43Z</time>
<desc>lat.=44.615887, lon.=33.738377, Alt.=201.806763m. Speed=0.252000m/h.</desc>
<speed>0.070000</speed>
</trkpt>
<trkpt lat="44.615887" lon="33.738373">
<ele>201.802856</ele>
<time>2011-10-11T08:22:48Z</time>
<desc>lat.=44.615887, lon.=33.738373, Alt.=201.802856m. Speed=0.180000m/h.</desc>
<speed>0.050000</speed>
</trkpt>
<trkpt lat="44.615887" lon="33.738369">
<ele>201.802856</ele>
<time>2011-10-11T08:22:53Z</time>
<desc>lat.=44.615887, lon.=33.738369, Alt.=201.802856m. Speed=0.324000m/h.</desc>
<speed>0.090000</speed>
</trkpt>
<trkpt lat="44.615887" lon="33.738361">
<ele>201.795044</ele>
<time>2011-10-11T08:22:58Z</time>
<desc>lat.=44.615887, lon.=33.738361, Alt.=201.795044m. Speed=0.612000m/h.</desc>
<speed>0.170000</speed>
</trkpt>
<trkpt lat="44.615891" lon="33.738350">
<ele>201.791138</ele>
<time>2011-10-11T08:23:03Z</time>
<desc>lat.=44.615891, lon.=33.738350, Alt.=201.791138m. Speed=1.044000m/h.</desc>
<speed>0.290000</speed>
</trkpt>
<trkpt lat="44.615898" lon="33.738335">
<ele>201.783325</ele>
<time>2011-10-11T08:23:08Z</time>
<desc>lat.=44.615898, lon.=33.738335, Alt.=201.783325m. Speed=0.900000m/h.</desc>
<speed>0.250000</speed>
</trkpt>
<trkpt lat="44.615902" lon="33.738319">
<ele>201.779419</ele>
<time>2011-10-11T08:23:13Z</time>
<desc>lat.=44.615902, lon.=33.738319, Alt.=201.779419m. Speed=0.828000m/h.</desc>
<speed>0.230000</speed>
</trkpt>
<trkpt lat="44.615910" lon="33.738308">
<ele>201.779419</ele>
<time>2011-10-11T08:23:18Z</time>
<desc>lat.=44.615910, lon.=33.738308, Alt.=201.779419m. Speed=0.792000m/h.</desc>
<speed>0.220000</speed>
</trkpt>
<trkpt lat="44.615917" lon="33.738297">
<ele>201.779419</ele>
<time>2011-10-11T08:23:23Z</time>
<desc>lat.=44.615917, lon.=33.738297, Alt.=201.779419m. Speed=0.792000m/h.</desc>
<speed>0.220000</speed>
</trkpt>
<trkpt lat="44.615925" lon="33.738297">
<ele>201.779419</ele>
<time>2011-10-11T08:23:28Z</time>
<desc>lat.=44.615925, lon.=33.738297, Alt.=201.779419m. Speed=0.972000m/h.</desc>
<speed>0.270000</speed>
</trkpt>
<trkpt lat="44.615932" lon="33.738308">
<ele>201.791138</ele>
<time>2011-10-11T08:23:33Z</time>
<desc>lat.=44.615932, lon.=33.738308, Alt.=201.791138m. Speed=0.864000m/h.</desc>
<speed>0.240000</speed>
</trkpt>
<trkpt lat="44.615921" lon="33.738300">
<ele>201.978638</ele>
<time>2011-10-11T08:23:38Z</time>
<desc>lat.=44.615921, lon.=33.738300, Alt.=201.978638m. Speed=0.144000m/h.</desc>
<speed>0.040000</speed>
</trkpt>
<trkpt lat="44.615894" lon="33.738266">
<ele>202.525513</ele>
<time>2011-10-11T08:23:43Z</time>
<desc>lat.=44.615894, lon.=33.738266, Alt.=202.525513m. Speed=0.288000m/h.</desc>
<speed>0.080000</speed>
</trkpt>
<trkpt lat="44.615871" lon="33.738247">
<ele>202.857544</ele>
<time>2011-10-11T08:23:48Z</time>
<desc>lat.=44.615871, lon.=33.738247, Alt.=202.857544m. Speed=0.612000m/h.</desc>
<speed>0.170000</speed>
</trkpt>
<trkpt lat="44.615864" lon="33.738247">
<ele>202.849731</ele>
<time>2011-10-11T08:23:53Z</time>
<desc>lat.=44.615864, lon.=33.738247, Alt.=202.849731m. Speed=0.396000m/h.</desc>
<speed>0.110000</speed>
</trkpt>
<trkpt lat="44.615871" lon="33.738266">
<ele>203.064575</ele>
<time>2011-10-11T08:23:58Z</time>
<desc>lat.=44.615871, lon.=33.738266, Alt.=203.064575m. Speed=0.108000m/h.</desc>
<speed>0.030000</speed>
</trkpt>
<trkpt lat="44.615875" lon="33.738285">
<ele>203.295044</ele>
<time>2011-10-11T08:24:03Z</time>
<desc>lat.=44.615875, lon.=33.738285, Alt.=203.295044m. Speed=0.144000m/h.</desc>
<speed>0.040000</speed>
</trkpt>
<trkpt lat="44.615887" lon="33.738304">
<ele>203.490356</ele>
<time>2011-10-11T08:24:08Z</time>
<desc>lat.=44.615887, lon.=33.738304, Alt.=203.490356m. Speed=0.000000m/h.</desc>
<speed>0.000000</speed>
</trkpt>
<trkpt lat="44.615894" lon="33.738319">
<ele>203.505981</ele>
<time>2011-10-11T08:24:13Z</time>
<desc>lat.=44.615894, lon.=33.738319, Alt.=203.505981m. Speed=0.000000m/h.</desc>
<speed>0.000000</speed>
</trkpt>
<trkpt lat="44.615902" lon="33.738323">
<ele>203.365356</ele>
<time>2011-10-11T08:24:18Z</time>
<desc>lat.=44.615902, lon.=33.738323, Alt.=203.365356m. Speed=0.000000m/h.</desc>
<speed>0.000000</speed>
</trkpt>
<trkpt lat="44.615910" lon="33.738316">
<ele>203.435669</ele>
<time>2011-10-11T08:24:23Z</time>
<desc>lat.=44.615910, lon.=33.738316, Alt.=203.435669m. Speed=0.000000m/h.</desc>
<speed>0.000000</speed>
</trkpt>
<trkpt lat="44.615910" lon="33.738304">
<ele>203.541138</ele>
<time>2011-10-11T08:24:28Z</time>
<desc>lat.=44.615910, lon.=33.738304, Alt.=203.541138m. Speed=0.000000m/h.</desc>
<speed>0.000000</speed>
</trkpt>
<trkpt lat="44.615910" lon="33.738304">
<ele>203.548950</ele>
<time>2011-10-11T08:24:33Z</time>
<desc>lat.=44.615910, lon.=33.738304, Alt.=203.548950m. Speed=0.000000m/h.</desc>
<speed>0.000000</speed>
</trkpt>
<trkpt lat="44.615910" lon="33.738304">
<ele>203.552856</ele>
<time>2011-10-11T08:24:38Z</time>
<desc>lat.=44.615910, lon.=33.738304, Alt.=203.552856m. Speed=0.000000m/h.</desc>
<speed>0.000000</speed>
</trkpt>
<trkpt lat="44.615910" lon="33.738304">
<ele>203.545044</ele>
<time>2011-10-11T08:24:43Z</time>
<desc>lat.=44.615910, lon.=33.738304, Alt.=203.545044m. Speed=0.144000m/h.</desc>
<speed>0.040000</speed>
</trkpt>
<trkpt lat="44.615910" lon="33.738304">
<ele>203.533325</ele>
<time>2011-10-11T08:24:48Z</time>
<desc>lat.=44.615910, lon.=33.738304, Alt.=203.533325m. Speed=0.108000m/h.</desc>
<speed>0.030000</speed>
</trkpt>
<trkpt lat="44.615910" lon="33.738304">
<ele>203.537231</ele>
<time>2011-10-11T08:24:53Z</time>
<desc>lat.=44.615910, lon.=33.738304, Alt.=203.537231m. Speed=0.000000m/h.</desc>
<speed>0.000000</speed>
</trkpt>
<trkpt lat="44.615910" lon="33.738304">
<ele>203.533325</ele>
<time>2011-10-11T08:24:58Z</time>
<desc>lat.=44.615910, lon.=33.738304, Alt.=203.533325m. Speed=0.072000m/h.</desc>
<speed>0.020000</speed>
</trkpt>
<trkpt lat="44.615910" lon="33.738304">
<ele>203.537231</ele>
<time>2011-10-11T08:25:03Z</time>
<desc>lat.=44.615910, lon.=33.738304, Alt.=203.537231m. Speed=0.000000m/h.</desc>
<speed>0.000000</speed>
</trkpt>
<trkpt lat="44.615910" lon="33.738304">
<ele>203.541138</ele>
<time>2011-10-11T08:25:08Z</time>
<desc>lat.=44.615910, lon.=33.738304, Alt.=203.541138m. Speed=0.000000m/h.</desc>
<speed>0.000000</speed>
</trkpt>
<trkpt lat="44.615910" lon="33.738304">
<ele>203.545044</ele>
<time>2011-10-11T08:25:13Z</time>
<desc>lat.=44.615910, lon.=33.738304, Alt.=203.545044m. Speed=0.000000m/h.</desc>
<speed>0.000000</speed>
</trkpt>
<trkpt lat="44.615910" lon="33.738304">
<ele>203.545044</ele>
<time>2011-10-11T08:25:18Z</time>
<desc>lat.=44.615910, lon.=33.738304, Alt.=203.545044m. Speed=0.144000m/h.</desc>
<speed>0.040000</speed>
</trkpt>
<trkpt lat="44.615913" lon="33.738308">
<ele>203.537231</ele>
<time>2011-10-11T08:25:23Z</time>
<desc>lat.=44.615913, lon.=33.738308, Alt.=203.537231m. Speed=0.324000m/h.</desc>
<speed>0.090000</speed>
</trkpt>
<trkpt lat="44.615917" lon="33.738312">
<ele>203.525513</ele>
<time>2011-10-11T08:25:28Z</time>
<desc>lat.=44.615917, lon.=33.738312, Alt.=203.525513m. Speed=0.432000m/h.</desc>
<speed>0.120000</speed>
</trkpt>
<trkpt lat="44.615921" lon="33.738319">
<ele>203.513794</ele>
<time>2011-10-11T08:25:33Z</time>
<desc>lat.=44.615921, lon.=33.738319, Alt.=203.513794m. Speed=0.396000m/h.</desc>
<speed>0.110000</speed>
</trkpt>
<trkpt lat="44.615925" lon="33.738323">
<ele>203.502075</ele>
<time>2011-10-11T08:25:38Z</time>
<desc>lat.=44.615925, lon.=33.738323, Alt.=203.502075m. Speed=0.468000m/h.</desc>
<speed>0.130000</speed>
</trkpt>
<trkpt lat="44.615929" lon="33.738331">
<ele>203.478638</ele>
<time>2011-10-11T08:25:43Z</time>
<desc>lat.=44.615929, lon.=33.738331, Alt.=203.478638m. Speed=0.360000m/h.</desc>
<speed>0.100000</speed>
</trkpt>
<trkpt lat="44.615932" lon="33.738335">
<ele>203.447388</ele>
<time>2011-10-11T08:25:48Z</time>
<desc>lat.=44.615932, lon.=33.738335, Alt.=203.447388m. Speed=0.324000m/h.</desc>
<speed>0.090000</speed>
</trkpt>
<trkpt lat="44.615936" lon="33.738335">
<ele>203.412231</ele>
<time>2011-10-11T08:25:53Z</time>
<desc>lat.=44.615936, lon.=33.738335, Alt.=203.412231m. Speed=0.360000m/h.</desc>
<speed>0.100000</speed>
</trkpt>
<trkpt lat="44.615940" lon="33.738338">
<ele>203.373169</ele>
<time>2011-10-11T08:25:58Z</time>
<desc>lat.=44.615940, lon.=33.738338, Alt.=203.373169m. Speed=0.288000m/h.</desc>
<speed>0.080000</speed>
</trkpt>
<trkpt lat="44.615944" lon="33.738338">
<ele>203.330200</ele>
<time>2011-10-11T08:26:03Z</time>
<desc>lat.=44.615944, lon.=33.738338, Alt.=203.330200m. Speed=0.180000m/h.</desc>
<speed>0.050000</speed>
</trkpt>
<trkpt lat="44.615944" lon="33.738338">
<ele>203.298950</ele>
<time>2011-10-11T08:26:08Z</time>
<desc>lat.=44.615944, lon.=33.738338, Alt.=203.298950m. Speed=0.036000m/h.</desc>
<speed>0.010000</speed>
</trkpt>
<trkpt lat="44.615944" lon="33.738338">
<ele>203.267700</ele>
<time>2011-10-11T08:26:13Z</time>
<desc>lat.=44.615944, lon.=33.738338, Alt.=203.267700m. Speed=0.000000m/h.</desc>
<speed>0.000000</speed>
</trkpt>
<trkpt lat="44.615948" lon="33.738338">
<ele>203.255981</ele>
<time>2011-10-11T08:26:18Z</time>
<desc>lat.=44.615948, lon.=33.738338, Alt.=203.255981m. Speed=0.144000m/h.</desc>
<speed>0.040000</speed>
</trkpt>
<trkpt lat="44.615944" lon="33.738338">
<ele>203.263794</ele>
<time>2011-10-11T08:26:23Z</time>
<desc>lat.=44.615944, lon.=33.738338, Alt.=203.263794m. Speed=0.108000m/h.</desc>
<speed>0.030000</speed>
</trkpt>
<trkpt lat="44.615944" lon="33.738338">
<ele>203.259888</ele>
<time>2011-10-11T08:26:28Z</time>
<desc>lat.=44.615944, lon.=33.738338, Alt.=203.259888m. Speed=0.000000m/h.</desc>
<speed>0.000000</speed>
</trkpt>
<trkpt lat="44.616020" lon="33.738342">
<ele>204.177856</ele>
<time>2011-10-11T08:26:33Z</time>
<desc>lat.=44.616020, lon.=33.738342, Alt.=204.177856m. Speed=9.720000m/h.</desc>
<speed>2.700000</speed>
</trkpt>
<trkpt lat="44.616169" lon="33.738293">
<ele>203.373169</ele>
<time>2011-10-11T08:26:38Z</time>
<desc>lat.=44.616169, lon.=33.738293, Alt.=203.373169m. Speed=16.091999m/h.</desc>
<speed>4.470000</speed>
</trkpt>
<trkpt lat="44.616295" lon="33.738129">
<ele>203.349731</ele>
<time>2011-10-11T08:26:43Z</time>
<desc>lat.=44.616295, lon.=33.738129, Alt.=203.349731m. Speed=7.596000m/h.</desc>
<speed>2.110000</speed>
</trkpt>
<trkpt lat="44.616371" lon="33.738018">
<ele>201.595825</ele>
<time>2011-10-11T08:26:48Z</time>
<desc>lat.=44.616371, lon.=33.738018, Alt.=201.595825m. Speed=8.532000m/h.</desc>
<speed>2.370000</speed>
</trkpt>
<trkpt lat="44.616508" lon="33.737934">
<ele>199.732544</ele>
<time>2011-10-11T08:26:53Z</time>
<desc>lat.=44.616508, lon.=33.737934, Alt.=199.732544m. Speed=13.752000m/h.</desc>
<speed>3.820000</speed>
</trkpt>
<trkpt lat="44.616631" lon="33.737823">
<ele>202.130981</ele>
<time>2011-10-11T08:26:58Z</time>
<desc>lat.=44.616631, lon.=33.737823, Alt.=202.130981m. Speed=9.720000m/h.</desc>
<speed>2.700000</speed>
</trkpt>
<trkpt lat="44.616680" lon="33.737942">
<ele>199.900513</ele>
<time>2011-10-11T08:27:03Z</time>
<desc>lat.=44.616680, lon.=33.737942, Alt.=199.900513m. Speed=9.000000m/h.</desc>
<speed>2.500000</speed>
</trkpt>
<trkpt lat="44.616623" lon="33.737953">
<ele>199.603638</ele>
<time>2011-10-11T08:27:08Z</time>
<desc>lat.=44.616623, lon.=33.737953, Alt.=199.603638m. Speed=5.904000m/h.</desc>
<speed>1.640000</speed>
</trkpt>
<trkpt lat="44.616547" lon="33.737946">
<ele>199.552856</ele>
<time>2011-10-11T08:27:13Z</time>
<desc>lat.=44.616547, lon.=33.737946, Alt.=199.552856m. Speed=5.976000m/h.</desc>
<speed>1.660000</speed>
</trkpt>
<trkpt lat="44.616497" lon="33.737843">
<ele>197.896606</ele>
<time>2011-10-11T08:27:18Z</time>
<desc>lat.=44.616497, lon.=33.737843, Alt.=197.896606m. Speed=5.400000m/h.</desc>
<speed>1.500000</speed>
</trkpt>
<trkpt lat="44.616478" lon="33.737789">
<ele>197.701294</ele>
<time>2011-10-11T08:27:23Z</time>
<desc>lat.=44.616478, lon.=33.737789, Alt.=197.701294m. Speed=2.268000m/h.</desc>
<speed>0.630000</speed>
</trkpt>
<trkpt lat="44.616486" lon="33.737770">
<ele>197.123169</ele>
<time>2011-10-11T08:27:28Z</time>
<desc>lat.=44.616486, lon.=33.737770, Alt.=197.123169m. Speed=1.476000m/h.</desc>
<speed>0.410000</speed>
</trkpt>
<trkpt lat="44.616486" lon="33.737766">
<ele>196.548950</ele>
<time>2011-10-11T08:27:33Z</time>
<desc>lat.=44.616486, lon.=33.737766, Alt.=196.548950m. Speed=0.108000m/h.</desc>
<speed>0.030000</speed>
</trkpt>
<trkpt lat="44.616486" lon="33.737766">
<ele>196.127075</ele>
<time>2011-10-11T08:27:38Z</time>
<desc>lat.=44.616486, lon.=33.737766, Alt.=196.127075m. Speed=0.108000m/h.</desc>
<speed>0.030000</speed>
</trkpt>
<trkpt lat="44.616486" lon="33.737770">
<ele>195.720825</ele>
<time>2011-10-11T08:27:43Z</time>
<desc>lat.=44.616486, lon.=33.737770, Alt.=195.720825m. Speed=0.036000m/h.</desc>
<speed>0.010000</speed>
</trkpt>
<trkpt lat="44.616489" lon="33.737774">
<ele>195.482544</ele>
<time>2011-10-11T08:27:48Z</time>
<desc>lat.=44.616489, lon.=33.737774, Alt.=195.482544m. Speed=0.180000m/h.</desc>
<speed>0.050000</speed>
</trkpt>
<trkpt lat="44.616489" lon="33.737774">
<ele>195.232544</ele>
<time>2011-10-11T08:27:53Z</time>
<desc>lat.=44.616489, lon.=33.737774, Alt.=195.232544m. Speed=0.108000m/h.</desc>
<speed>0.030000</speed>
</trkpt>
<trkpt lat="44.616489" lon="33.737774">
<ele>195.060669</ele>
<time>2011-10-11T08:27:58Z</time>
<desc>lat.=44.616489, lon.=33.737774, Alt.=195.060669m. Speed=0.000000m/h.</desc>
<speed>0.000000</speed>
</trkpt>
<trkpt lat="44.616486" lon="33.737774">
<ele>194.853638</ele>
<time>2011-10-11T08:28:03Z</time>
<desc>lat.=44.616486, lon.=33.737774, Alt.=194.853638m. Speed=0.000000m/h.</desc>
<speed>0.000000</speed>
</trkpt>
<trkpt lat="44.616486" lon="33.737770">
<ele>194.736450</ele>
<time>2011-10-11T08:28:08Z</time>
<desc>lat.=44.616486, lon.=33.737770, Alt.=194.736450m. Speed=0.072000m/h.</desc>
<speed>0.020000</speed>
</trkpt>
<trkpt lat="44.616486" lon="33.737774">
<ele>194.638794</ele>
<time>2011-10-11T08:28:13Z</time>
<desc>lat.=44.616486, lon.=33.737774, Alt.=194.638794m. Speed=0.036000m/h.</desc>
<speed>0.010000</speed>
</trkpt>
<trkpt lat="44.616489" lon="33.737778">
<ele>194.373169</ele>
<time>2011-10-11T08:28:18Z</time>
<desc>lat.=44.616489, lon.=33.737778, Alt.=194.373169m. Speed=0.036000m/h.</desc>
<speed>0.010000</speed>
</trkpt>
<trkpt lat="44.616489" lon="33.737774">
<ele>194.064575</ele>
<time>2011-10-11T08:28:23Z</time>
<desc>lat.=44.616489, lon.=33.737774, Alt.=194.064575m. Speed=0.036000m/h.</desc>
<speed>0.010000</speed>
</trkpt>
<trkpt lat="44.616489" lon="33.737770">
<ele>193.701294</ele>
<time>2011-10-11T08:28:28Z</time>
<desc>lat.=44.616489, lon.=33.737770, Alt.=193.701294m. Speed=0.000000m/h.</desc>
<speed>0.000000</speed>
</trkpt>
<trkpt lat="44.616489" lon="33.737770">
<ele>193.677856</ele>
<time>2011-10-11T08:28:33Z</time>
<desc>lat.=44.616489, lon.=33.737770, Alt.=193.677856m. Speed=0.000000m/h.</desc>
<speed>0.000000</speed>
</trkpt>
<trkpt lat="44.616489" lon="33.737770">
<ele>193.677856</ele>
<time>2011-10-11T08:28:38Z</time>
<desc>lat.=44.616489, lon.=33.737770, Alt.=193.677856m. Speed=0.036000m/h.</desc>
<speed>0.010000</speed>
</trkpt>
<trkpt lat="44.616489" lon="33.737770">
<ele>193.677856</ele>
<time>2011-10-11T08:28:43Z</time>
<desc>lat.=44.616489, lon.=33.737770, Alt.=193.677856m. Speed=0.036000m/h.</desc>
<speed>0.010000</speed>
</trkpt>
<trkpt lat="44.616489" lon="33.737770">
<ele>193.564575</ele>
<time>2011-10-11T08:28:48Z</time>
<desc>lat.=44.616489, lon.=33.737770, Alt.=193.564575m. Speed=0.000000m/h.</desc>
<speed>0.000000</speed>
</trkpt>
<trkpt lat="44.616493" lon="33.737770">
<ele>193.213013</ele>
<time>2011-10-11T08:28:53Z</time>
<desc>lat.=44.616493, lon.=33.737770, Alt.=193.213013m. Speed=0.072000m/h.</desc>
<speed>0.020000</speed>
</trkpt>
<trkpt lat="44.616497" lon="33.737770">
<ele>193.029419</ele>
<time>2011-10-11T08:28:58Z</time>
<desc>lat.=44.616497, lon.=33.737770, Alt.=193.029419m. Speed=0.000000m/h.</desc>
<speed>0.000000</speed>
</trkpt>
<trkpt lat="44.616497" lon="33.737770">
<ele>192.396606</ele>
<time>2011-10-11T08:29:03Z</time>
<desc>lat.=44.616497, lon.=33.737770, Alt.=192.396606m. Speed=0.036000m/h.</desc>
<speed>0.010000</speed>
</trkpt>
<trkpt lat="44.616497" lon="33.737770">
<ele>191.752075</ele>
<time>2011-10-11T08:29:08Z</time>
<desc>lat.=44.616497, lon.=33.737770, Alt.=191.752075m. Speed=0.000000m/h.</desc>
<speed>0.000000</speed>
</trkpt>
<trkpt lat="44.616497" lon="33.737770">
<ele>191.763794</ele>
<time>2011-10-11T08:29:13Z</time>
<desc>lat.=44.616497, lon.=33.737770, Alt.=191.763794m. Speed=0.036000m/h.</desc>
<speed>0.010000</speed>
</trkpt>
<trkpt lat="44.616501" lon="33.737770">
<ele>191.521606</ele>
<time>2011-10-11T08:29:18Z</time>
<desc>lat.=44.616501, lon.=33.737770, Alt.=191.521606m. Speed=0.036000m/h.</desc>
<speed>0.010000</speed>
</trkpt>
<trkpt lat="44.616501" lon="33.737762">
<ele>191.271606</ele>
<time>2011-10-11T08:29:23Z</time>
<desc>lat.=44.616501, lon.=33.737762, Alt.=191.271606m. Speed=0.072000m/h.</desc>
<speed>0.020000</speed>
</trkpt>
<trkpt lat="44.616512" lon="33.737743">
<ele>191.470825</ele>
<time>2011-10-11T08:29:28Z</time>
<desc>lat.=44.616512, lon.=33.737743, Alt.=191.470825m. Speed=0.036000m/h.</desc>
<speed>0.010000</speed>
</trkpt>
<trkpt lat="44.616520" lon="33.737728">
<ele>191.029419</ele>
<time>2011-10-11T08:29:33Z</time>
<desc>lat.=44.616520, lon.=33.737728, Alt.=191.029419m. Speed=0.036000m/h.</desc>
<speed>0.010000</speed>
</trkpt>
<trkpt lat="44.616516" lon="33.737732">
<ele>190.338013</ele>
<time>2011-10-11T08:29:38Z</time>
<desc>lat.=44.616516, lon.=33.737732, Alt.=190.338013m. Speed=0.000000m/h.</desc>
<speed>0.000000</speed>
</trkpt>
<trkpt lat="44.616520" lon="33.737724">
<ele>190.685669</ele>
<time>2011-10-11T08:29:43Z</time>
<desc>lat.=44.616520, lon.=33.737724, Alt.=190.685669m. Speed=0.000000m/h.</desc>
<speed>0.000000</speed>
</trkpt>
<trkpt lat="44.616516" lon="33.737728">
<ele>190.646606</ele>
<time>2011-10-11T08:29:48Z</time>
<desc>lat.=44.616516, lon.=33.737728, Alt.=190.646606m. Speed=0.000000m/h.</desc>
<speed>0.000000</speed>
</trkpt>
<trkpt lat="44.616501" lon="33.737751">
<ele>190.271606</ele>
<time>2011-10-11T08:29:53Z</time>
<desc>lat.=44.616501, lon.=33.737751, Alt.=190.271606m. Speed=0.036000m/h.</desc>
<speed>0.010000</speed>
</trkpt>
<trkpt lat="44.616493" lon="33.737762">
<ele>190.255981</ele>
<time>2011-10-11T08:29:58Z</time>
<desc>lat.=44.616493, lon.=33.737762, Alt.=190.255981m. Speed=0.000000m/h.</desc>
<speed>0.000000</speed>
</trkpt>
<trkpt lat="44.616493" lon="33.737762">
<ele>190.252075</ele>
<time>2011-10-11T08:30:03Z</time>
<desc>lat.=44.616493, lon.=33.737762, Alt.=190.252075m. Speed=0.000000m/h.</desc>
<speed>0.000000</speed>
</trkpt>
<trkpt lat="44.616493" lon="33.737762">
<ele>190.252075</ele>
<time>2011-10-11T08:30:08Z</time>
<desc>lat.=44.616493, lon.=33.737762, Alt.=190.252075m. Speed=0.000000m/h.</desc>
<speed>0.000000</speed>
</trkpt>
<trkpt lat="44.616489" lon="33.737762">
<ele>190.252075</ele>
<time>2011-10-11T08:30:13Z</time>
<desc>lat.=44.616489, lon.=33.737762, Alt.=190.252075m. Speed=0.000000m/h.</desc>
<speed>0.000000</speed>
</trkpt>
<trkpt lat="44.616489" lon="33.737762">
<ele>190.255981</ele>
<time>2011-10-11T08:30:18Z</time>
<desc>lat.=44.616489, lon.=33.737762, Alt.=190.255981m. Speed=0.036000m/h.</desc>
<speed>0.010000</speed>
</trkpt>
<trkpt lat="44.616489" lon="33.737762">
<ele>190.252075</ele>
<time>2011-10-11T08:30:23Z</time>
<desc>lat.=44.616489, lon.=33.737762, Alt.=190.252075m. Speed=0.000000m/h.</desc>
<speed>0.000000</speed>
</trkpt>
<trkpt lat="44.616489" lon="33.737762">
<ele>190.252075</ele>
<time>2011-10-11T08:30:28Z</time>
<desc>lat.=44.616489, lon.=33.737762, Alt.=190.252075m. Speed=0.000000m/h.</desc>
<speed>0.000000</speed>
</trkpt>
<trkpt lat="44.616489" lon="33.737762">
<ele>190.248169</ele>
<time>2011-10-11T08:30:33Z</time>
<desc>lat.=44.616489, lon.=33.737762, Alt.=190.248169m. Speed=0.000000m/h.</desc>
<speed>0.000000</speed>
</trkpt>
<trkpt lat="44.616489" lon="33.737762">
<ele>190.244263</ele>
<time>2011-10-11T08:30:38Z</time>
<desc>lat.=44.616489, lon.=33.737762, Alt.=190.244263m. Speed=0.036000m/h.</desc>
<speed>0.010000</speed>
</trkpt>
<trkpt lat="44.616489" lon="33.737762">
<ele>190.240356</ele>
<time>2011-10-11T08:30:43Z</time>
<desc>lat.=44.616489, lon.=33.737762, Alt.=190.240356m. Speed=0.216000m/h.</desc>
<speed>0.060000</speed>
</trkpt>
<trkpt lat="44.616489" lon="33.737762">
<ele>190.240356</ele>
<time>2011-10-11T08:30:48Z</time>
<desc>lat.=44.616489, lon.=33.737762, Alt.=190.240356m. Speed=0.072000m/h.</desc>
<speed>0.020000</speed>
</trkpt>
<trkpt lat="44.616489" lon="33.737762">
<ele>190.236450</ele>
<time>2011-10-11T08:30:53Z</time>
<desc>lat.=44.616489, lon.=33.737762, Alt.=190.236450m. Speed=0.072000m/h.</desc>
<speed>0.020000</speed>
</trkpt>
<trkpt lat="44.616489" lon="33.737762">
<ele>190.240356</ele>
<time>2011-10-11T08:30:58Z</time>
<desc>lat.=44.616489, lon.=33.737762, Alt.=190.240356m. Speed=0.000000m/h.</desc>
<speed>0.000000</speed>
</trkpt>
<trkpt lat="44.616489" lon="33.737766">
<ele>190.240356</ele>
<time>2011-10-11T08:31:03Z</time>
<desc>lat.=44.616489, lon.=33.737766, Alt.=190.240356m. Speed=0.036000m/h.</desc>
<speed>0.010000</speed>
</trkpt>
<trkpt lat="44.616489" lon="33.737766">
<ele>190.244263</ele>
<time>2011-10-11T08:31:08Z</time>
<desc>lat.=44.616489, lon.=33.737766, Alt.=190.244263m. Speed=0.036000m/h.</desc>
<speed>0.010000</speed>
</trkpt>
<trkpt lat="44.616489" lon="33.737766">
<ele>190.248169</ele>
<time>2011-10-11T08:31:13Z</time>
<desc>lat.=44.616489, lon.=33.737766, Alt.=190.248169m. Speed=0.000000m/h.</desc>
<speed>0.000000</speed>
</trkpt>
<trkpt lat="44.616489" lon="33.737766">
<ele>190.248169</ele>
<time>2011-10-11T08:31:18Z</time>
<desc>lat.=44.616489, lon.=33.737766, Alt.=190.248169m. Speed=0.036000m/h.</desc>
<speed>0.010000</speed>
</trkpt>
<trkpt lat="44.616489" lon="33.737766">
<ele>190.248169</ele>
<time>2011-10-11T08:31:23Z</time>
<desc>lat.=44.616489, lon.=33.737766, Alt.=190.248169m. Speed=0.000000m/h.</desc>
<speed>0.000000</speed>
</trkpt>
<trkpt lat="44.616489" lon="33.737766">
<ele>190.248169</ele>
<time>2011-10-11T08:31:28Z</time>
<desc>lat.=44.616489, lon.=33.737766, Alt.=190.248169m. Speed=0.036000m/h.</desc>
<speed>0.010000</speed>
</trkpt>
<trkpt lat="44.616489" lon="33.737766">
<ele>190.244263</ele>
<time>2011-10-11T08:31:33Z</time>
<desc>lat.=44.616489, lon.=33.737766, Alt.=190.244263m. Speed=0.036000m/h.</desc>
<speed>0.010000</speed>
</trkpt>
<trkpt lat="44.616489" lon="33.737766">
<ele>190.244263</ele>
<time>2011-10-11T08:31:38Z</time>
<desc>lat.=44.616489, lon.=33.737766, Alt.=190.244263m. Speed=0.000000m/h.</desc>
<speed>0.000000</speed>
</trkpt>
<trkpt lat="44.616489" lon="33.737766">
<ele>190.248169</ele>
<time>2011-10-11T08:31:43Z</time>
<desc>lat.=44.616489, lon.=33.737766, Alt.=190.248169m. Speed=0.000000m/h.</desc>
<speed>0.000000</speed>
</trkpt>
<trkpt lat="44.616489" lon="33.737766">
<ele>190.240356</ele>
<time>2011-10-11T08:31:48Z</time>
<desc>lat.=44.616489, lon.=33.737766, Alt.=190.240356m. Speed=0.036000m/h.</desc>
<speed>0.010000</speed>
</trkpt>
<trkpt lat="44.616489" lon="33.737766">
<ele>190.232544</ele>
<time>2011-10-11T08:31:53Z</time>
<desc>lat.=44.616489, lon.=33.737766, Alt.=190.232544m. Speed=0.036000m/h.</desc>
<speed>0.010000</speed>
</trkpt>
<trkpt lat="44.616489" lon="33.737766">
<ele>190.232544</ele>
<time>2011-10-11T08:31:58Z</time>
<desc>lat.=44.616489, lon.=33.737766, Alt.=190.232544m. Speed=0.036000m/h.</desc>
<speed>0.010000</speed>
</trkpt>
<trkpt lat="44.616489" lon="33.737766">
<ele>190.228638</ele>
<time>2011-10-11T08:32:03Z</time>
<desc>lat.=44.616489, lon.=33.737766, Alt.=190.228638m. Speed=0.000000m/h.</desc>
<speed>0.000000</speed>
</trkpt>
<trkpt lat="44.616489" lon="33.737766">
<ele>190.224731</ele>
<time>2011-10-11T08:32:08Z</time>
<desc>lat.=44.616489, lon.=33.737766, Alt.=190.224731m. Speed=0.036000m/h.</desc>
<speed>0.010000</speed>
</trkpt>
<trkpt lat="44.616489" lon="33.737766">
<ele>190.224731</ele>
<time>2011-10-11T08:32:13Z</time>
<desc>lat.=44.616489, lon.=33.737766, Alt.=190.224731m. Speed=0.000000m/h.</desc>
<speed>0.000000</speed>
</trkpt>
<trkpt lat="44.616489" lon="33.737766">
<ele>190.216919</ele>
<time>2011-10-11T08:32:18Z</time>
<desc>lat.=44.616489, lon.=33.737766, Alt.=190.216919m. Speed=0.000000m/h.</desc>
<speed>0.000000</speed>
</trkpt>
<trkpt lat="44.616489" lon="33.737766">
<ele>190.216919</ele>
<time>2011-10-11T08:32:23Z</time>
<desc>lat.=44.616489, lon.=33.737766, Alt.=190.216919m. Speed=0.000000m/h.</desc>
<speed>0.000000</speed>
</trkpt>
<trkpt lat="44.616489" lon="33.737770">
<ele>190.224731</ele>
<time>2011-10-11T08:32:28Z</time>
<desc>lat.=44.616489, lon.=33.737770, Alt.=190.224731m. Speed=0.000000m/h.</desc>
<speed>0.000000</speed>
</trkpt>
<trkpt lat="44.616489" lon="33.737770">
<ele>190.224731</ele>
<time>2011-10-11T08:32:33Z</time>
<desc>lat.=44.616489, lon.=33.737770, Alt.=190.224731m. Speed=0.000000m/h.</desc>
<speed>0.000000</speed>
</trkpt>
<trkpt lat="44.616489" lon="33.737770">
<ele>190.216919</ele>
<time>2011-10-11T08:32:38Z</time>
<desc>lat.=44.616489, lon.=33.737770, Alt.=190.216919m. Speed=0.000000m/h.</desc>
<speed>0.000000</speed>
</trkpt>
<trkpt lat="44.616489" lon="33.737770">
<ele>190.213013</ele>
<time>2011-10-11T08:32:43Z</time>
<desc>lat.=44.616489, lon.=33.737770, Alt.=190.213013m. Speed=0.000000m/h.</desc>
<speed>0.000000</speed>
</trkpt>
<trkpt lat="44.616489" lon="33.737770">
<ele>190.209106</ele>
<time>2011-10-11T08:32:48Z</time>
<desc>lat.=44.616489, lon.=33.737770, Alt.=190.209106m. Speed=0.036000m/h.</desc>
<speed>0.010000</speed>
</trkpt>
<trkpt lat="44.616489" lon="33.737770">
<ele>190.209106</ele>
<time>2011-10-11T08:32:53Z</time>
<desc>lat.=44.616489, lon.=33.737770, Alt.=190.209106m. Speed=0.000000m/h.</desc>
<speed>0.000000</speed>
</trkpt>
<trkpt lat="44.616489" lon="33.737770">
<ele>190.205200</ele>
<time>2011-10-11T08:32:58Z</time>
<desc>lat.=44.616489, lon.=33.737770, Alt.=190.205200m. Speed=0.072000m/h.</desc>
<speed>0.020000</speed>
</trkpt>
<trkpt lat="44.616489" lon="33.737770">
<ele>190.213013</ele>
<time>2011-10-11T08:33:03Z</time>
<desc>lat.=44.616489, lon.=33.737770, Alt.=190.213013m. Speed=0.000000m/h.</desc>
<speed>0.000000</speed>
</trkpt>
<trkpt lat="44.616489" lon="33.737770">
<ele>190.216919</ele>
<time>2011-10-11T08:33:08Z</time>
<desc>lat.=44.616489, lon.=33.737770, Alt.=190.216919m. Speed=0.000000m/h.</desc>
<speed>0.000000</speed>
</trkpt>
<trkpt lat="44.616489" lon="33.737770">
<ele>190.228638</ele>
<time>2011-10-11T08:33:13Z</time>
<desc>lat.=44.616489, lon.=33.737770, Alt.=190.228638m. Speed=0.000000m/h.</desc>
<speed>0.000000</speed>
</trkpt>
<trkpt lat="44.616489" lon="33.737770">
<ele>190.236450</ele>
<time>2011-10-11T08:33:18Z</time>
<desc>lat.=44.616489, lon.=33.737770, Alt.=190.236450m. Speed=0.000000m/h.</desc>
<speed>0.000000</speed>
</trkpt>
<trkpt lat="44.616489" lon="33.737770">
<ele>190.232544</ele>
<time>2011-10-11T08:33:23Z</time>
<desc>lat.=44.616489, lon.=33.737770, Alt.=190.232544m. Speed=0.036000m/h.</desc>
<speed>0.010000</speed>
</trkpt>
<trkpt lat="44.616489" lon="33.737770">
<ele>190.244263</ele>
<time>2011-10-11T08:33:28Z</time>
<desc>lat.=44.616489, lon.=33.737770, Alt.=190.244263m. Speed=0.000000m/h.</desc>
<speed>0.000000</speed>
</trkpt>
<trkpt lat="44.616493" lon="33.737770">
<ele>190.255981</ele>
<time>2011-10-11T08:33:33Z</time>
<desc>lat.=44.616493, lon.=33.737770, Alt.=190.255981m. Speed=0.000000m/h.</desc>
<speed>0.000000</speed>
</trkpt>
<trkpt lat="44.616493" lon="33.737770">
<ele>190.259888</ele>
<time>2011-10-11T08:33:38Z</time>
<desc>lat.=44.616493, lon.=33.737770, Alt.=190.259888m. Speed=0.000000m/h.</desc>
<speed>0.000000</speed>
</trkpt>
<trkpt lat="44.616493" lon="33.737770">
<ele>190.263794</ele>
<time>2011-10-11T08:33:43Z</time>
<desc>lat.=44.616493, lon.=33.737770, Alt.=190.263794m. Speed=0.000000m/h.</desc>
<speed>0.000000</speed>
</trkpt>
<trkpt lat="44.616493" lon="33.737770">
<ele>190.271606</ele>
<time>2011-10-11T08:33:48Z</time>
<desc>lat.=44.616493, lon.=33.737770, Alt.=190.271606m. Speed=0.000000m/h.</desc>
<speed>0.000000</speed>
</trkpt>
<trkpt lat="44.616493" lon="33.737770">
<ele>190.275513</ele>
<time>2011-10-11T08:33:53Z</time>
<desc>lat.=44.616493, lon.=33.737770, Alt.=190.275513m. Speed=0.036000m/h.</desc>
<speed>0.010000</speed>
</trkpt>
<trkpt lat="44.616493" lon="33.737770">
<ele>190.275513</ele>
<time>2011-10-11T08:33:58Z</time>
<desc>lat.=44.616493, lon.=33.737770, Alt.=190.275513m. Speed=0.000000m/h.</desc>
<speed>0.000000</speed>
</trkpt>
<trkpt lat="44.616493" lon="33.737770">
<ele>190.275513</ele>
<time>2011-10-11T08:34:03Z</time>
<desc>lat.=44.616493, lon.=33.737770, Alt.=190.275513m. Speed=0.036000m/h.</desc>
<speed>0.010000</speed>
</trkpt>
<trkpt lat="44.616493" lon="33.737770">
<ele>190.271606</ele>
<time>2011-10-11T08:34:08Z</time>
<desc>lat.=44.616493, lon.=33.737770, Alt.=190.271606m. Speed=0.036000m/h.</desc>
<speed>0.010000</speed>
</trkpt>
<trkpt lat="44.616493" lon="33.737770">
<ele>190.263794</ele>
<time>2011-10-11T08:34:13Z</time>
<desc>lat.=44.616493, lon.=33.737770, Alt.=190.263794m. Speed=0.000000m/h.</desc>
<speed>0.000000</speed>
</trkpt>
<trkpt lat="44.616493" lon="33.737770">
<ele>190.263794</ele>
<time>2011-10-11T08:34:18Z</time>
<desc>lat.=44.616493, lon.=33.737770, Alt.=190.263794m. Speed=0.000000m/h.</desc>
<speed>0.000000</speed>
</trkpt>
<trkpt lat="44.616493" lon="33.737770">
<ele>190.263794</ele>
<time>2011-10-11T08:34:23Z</time>
<desc>lat.=44.616493, lon.=33.737770, Alt.=190.263794m. Speed=0.036000m/h.</desc>
<speed>0.010000</speed>
</trkpt>
<trkpt lat="44.616493" lon="33.737770">
<ele>190.263794</ele>
<time>2011-10-11T08:34:28Z</time>
<desc>lat.=44.616493, lon.=33.737770, Alt.=190.263794m. Speed=0.000000m/h.</desc>
<speed>0.000000</speed>
</trkpt>
<trkpt lat="44.616493" lon="33.737770">
<ele>190.259888</ele>
<time>2011-10-11T08:34:33Z</time>
<desc>lat.=44.616493, lon.=33.737770, Alt.=190.259888m. Speed=0.000000m/h.</desc>
<speed>0.000000</speed>
</trkpt>
<trkpt lat="44.616493" lon="33.737770">
<ele>190.252075</ele>
<time>2011-10-11T08:34:38Z</time>
<desc>lat.=44.616493, lon.=33.737770, Alt.=190.252075m. Speed=0.000000m/h.</desc>
<speed>0.000000</speed>
</trkpt>
<trkpt lat="44.616493" lon="33.737770">
<ele>190.248169</ele>
<time>2011-10-11T08:34:43Z</time>
<desc>lat.=44.616493, lon.=33.737770, Alt.=190.248169m. Speed=0.000000m/h.</desc>
<speed>0.000000</speed>
</trkpt>
<trkpt lat="44.616493" lon="33.737770">
<ele>190.248169</ele>
<time>2011-10-11T08:34:48Z</time>
<desc>lat.=44.616493, lon.=33.737770, Alt.=190.248169m. Speed=0.000000m/h.</desc>
<speed>0.000000</speed>
</trkpt>
<trkpt lat="44.616493" lon="33.737770">
<ele>190.244263</ele>
<time>2011-10-11T08:34:53Z</time>
<desc>lat.=44.616493, lon.=33.737770, Alt.=190.244263m. Speed=0.000000m/h.</desc>
<speed>0.000000</speed>
</trkpt>
<trkpt lat="44.616493" lon="33.737770">
<ele>190.240356</ele>
<time>2011-10-11T08:34:58Z</time>
<desc>lat.=44.616493, lon.=33.737770, Alt.=190.240356m. Speed=0.000000m/h.</desc>
<speed>0.000000</speed>
</trkpt>
<trkpt lat="44.616493" lon="33.737770">
<ele>190.224731</ele>
<time>2011-10-11T08:35:03Z</time>
<desc>lat.=44.616493, lon.=33.737770, Alt.=190.224731m. Speed=0.000000m/h.</desc>
<speed>0.000000</speed>
</trkpt>
<trkpt lat="44.616493" lon="33.737770">
<ele>190.216919</ele>
<time>2011-10-11T08:35:08Z</time>
<desc>lat.=44.616493, lon.=33.737770, Alt.=190.216919m. Speed=0.000000m/h.</desc>
<speed>0.000000</speed>
</trkpt>
<trkpt lat="44.616493" lon="33.737770">
<ele>190.220825</ele>
<time>2011-10-11T08:35:13Z</time>
<desc>lat.=44.616493, lon.=33.737770, Alt.=190.220825m. Speed=0.000000m/h.</desc>
<speed>0.000000</speed>
</trkpt>
<trkpt lat="44.616493" lon="33.737770">
<ele>190.220825</ele>
<time>2011-10-11T08:35:18Z</time>
<desc>lat.=44.616493, lon.=33.737770, Alt.=190.220825m. Speed=0.000000m/h.</desc>
<speed>0.000000</speed>
</trkpt>
<trkpt lat="44.616493" lon="33.737770">
<ele>190.213013</ele>
<time>2011-10-11T08:35:23Z</time>
<desc>lat.=44.616493, lon.=33.737770, Alt.=190.213013m. Speed=0.036000m/h.</desc>
<speed>0.010000</speed>
</trkpt>
<trkpt lat="44.616489" lon="33.737770">
<ele>190.205200</ele>
<time>2011-10-11T08:35:28Z</time>
<desc>lat.=44.616489, lon.=33.737770, Alt.=190.205200m. Speed=0.072000m/h.</desc>
<speed>0.020000</speed>
</trkpt>
<trkpt lat="44.616489" lon="33.737770">
<ele>190.181763</ele>
<time>2011-10-11T08:35:33Z</time>
<desc>lat.=44.616489, lon.=33.737770, Alt.=190.181763m. Speed=0.036000m/h.</desc>
<speed>0.010000</speed>
</trkpt>
<trkpt lat="44.616489" lon="33.737770">
<ele>190.166138</ele>
<time>2011-10-11T08:35:38Z</time>
<desc>lat.=44.616489, lon.=33.737770, Alt.=190.166138m. Speed=0.036000m/h.</desc>
<speed>0.010000</speed>
</trkpt>
<trkpt lat="44.616489" lon="33.737770">
<ele>190.150513</ele>
<time>2011-10-11T08:35:43Z</time>
<desc>lat.=44.616489, lon.=33.737770, Alt.=190.150513m. Speed=0.036000m/h.</desc>
<speed>0.010000</speed>
</trkpt>
<trkpt lat="44.616489" lon="33.737770">
<ele>190.130981</ele>
<time>2011-10-11T08:35:48Z</time>
<desc>lat.=44.616489, lon.=33.737770, Alt.=190.130981m. Speed=0.036000m/h.</desc>
<speed>0.010000</speed>
</trkpt>
<trkpt lat="44.616489" lon="33.737770">
<ele>190.115356</ele>
<time>2011-10-11T08:35:53Z</time>
<desc>lat.=44.616489, lon.=33.737770, Alt.=190.115356m. Speed=0.036000m/h.</desc>
<speed>0.010000</speed>
</trkpt>
<trkpt lat="44.616489" lon="33.737774">
<ele>190.099731</ele>
<time>2011-10-11T08:35:58Z</time>
<desc>lat.=44.616489, lon.=33.737774, Alt.=190.099731m. Speed=0.036000m/h.</desc>
<speed>0.010000</speed>
</trkpt>
<trkpt lat="44.616489" lon="33.737774">
<ele>190.091919</ele>
<time>2011-10-11T08:36:03Z</time>
<desc>lat.=44.616489, lon.=33.737774, Alt.=190.091919m. Speed=0.036000m/h.</desc>
<speed>0.010000</speed>
</trkpt>
<trkpt lat="44.616489" lon="33.737774">
<ele>190.091919</ele>
<time>2011-10-11T08:36:08Z</time>
<desc>lat.=44.616489, lon.=33.737774, Alt.=190.091919m. Speed=0.036000m/h.</desc>
<speed>0.010000</speed>
</trkpt>
<trkpt lat="44.616489" lon="33.737774">
<ele>190.088013</ele>
<time>2011-10-11T08:36:13Z</time>
<desc>lat.=44.616489, lon.=33.737774, Alt.=190.088013m. Speed=0.000000m/h.</desc>
<speed>0.000000</speed>
</trkpt>
<trkpt lat="44.616489" lon="33.737774">
<ele>190.072388</ele>
<time>2011-10-11T08:36:18Z</time>
<desc>lat.=44.616489, lon.=33.737774, Alt.=190.072388m. Speed=0.000000m/h.</desc>
<speed>0.000000</speed>
</trkpt>
<trkpt lat="44.616489" lon="33.737774">
<ele>190.068481</ele>
<time>2011-10-11T08:36:23Z</time>
<desc>lat.=44.616489, lon.=33.737774, Alt.=190.068481m. Speed=0.072000m/h.</desc>
<speed>0.020000</speed>
</trkpt>
<trkpt lat="44.616489" lon="33.737774">
<ele>190.068481</ele>
<time>2011-10-11T08:36:28Z</time>
<desc>lat.=44.616489, lon.=33.737774, Alt.=190.068481m. Speed=0.000000m/h.</desc>
<speed>0.000000</speed>
</trkpt>
<trkpt lat="44.616489" lon="33.737774">
<ele>190.064575</ele>
<time>2011-10-11T08:36:33Z</time>
<desc>lat.=44.616489, lon.=33.737774, Alt.=190.064575m. Speed=0.000000m/h.</desc>
<speed>0.000000</speed>
</trkpt>
<trkpt lat="44.616489" lon="33.737774">
<ele>190.064575</ele>
<time>2011-10-11T08:36:38Z</time>
<desc>lat.=44.616489, lon.=33.737774, Alt.=190.064575m. Speed=0.000000m/h.</desc>
<speed>0.000000</speed>
</trkpt>
<trkpt lat="44.616489" lon="33.737774">
<ele>190.064575</ele>
<time>2011-10-11T08:36:43Z</time>
<desc>lat.=44.616489, lon.=33.737774, Alt.=190.064575m. Speed=0.000000m/h.</desc>
<speed>0.000000</speed>
</trkpt>
<trkpt lat="44.616489" lon="33.737774">
<ele>190.064575</ele>
<time>2011-10-11T08:36:48Z</time>
<desc>lat.=44.616489, lon.=33.737774, Alt.=190.064575m. Speed=0.072000m/h.</desc>
<speed>0.020000</speed>
</trkpt>
<trkpt lat="44.616489" lon="33.737774">
<ele>190.060669</ele>
<time>2011-10-11T08:36:53Z</time>
<desc>lat.=44.616489, lon.=33.737774, Alt.=190.060669m. Speed=0.072000m/h.</desc>
<speed>0.020000</speed>
</trkpt>
<trkpt lat="44.616493" lon="33.737774">
<ele>190.052856</ele>
<time>2011-10-11T08:36:58Z</time>
<desc>lat.=44.616493, lon.=33.737774, Alt.=190.052856m. Speed=0.108000m/h.</desc>
<speed>0.030000</speed>
</trkpt>
<trkpt lat="44.616493" lon="33.737774">
<ele>190.002075</ele>
<time>2011-10-11T08:37:03Z</time>
<desc>lat.=44.616493, lon.=33.737774, Alt.=190.002075m. Speed=0.180000m/h.</desc>
<speed>0.050000</speed>
</trkpt>
<trkpt lat="44.616493" lon="33.737770">
<ele>189.935669</ele>
<time>2011-10-11T08:37:08Z</time>
<desc>lat.=44.616493, lon.=33.737770, Alt.=189.935669m. Speed=0.180000m/h.</desc>
<speed>0.050000</speed>
</trkpt>
<trkpt lat="44.616493" lon="33.737770">
<ele>189.861450</ele>
<time>2011-10-11T08:37:13Z</time>
<desc>lat.=44.616493, lon.=33.737770, Alt.=189.861450m. Speed=0.036000m/h.</desc>
<speed>0.010000</speed>
</trkpt>
<trkpt lat="44.616493" lon="33.737770">
<ele>189.822388</ele>
<time>2011-10-11T08:37:18Z</time>
<desc>lat.=44.616493, lon.=33.737770, Alt.=189.822388m. Speed=0.036000m/h.</desc>
<speed>0.010000</speed>
</trkpt>
<trkpt lat="44.616493" lon="33.737770">
<ele>189.779419</ele>
<time>2011-10-11T08:37:23Z</time>
<desc>lat.=44.616493, lon.=33.737770, Alt.=189.779419m. Speed=0.036000m/h.</desc>
<speed>0.010000</speed>
</trkpt>
<trkpt lat="44.616493" lon="33.737770">
<ele>189.771606</ele>
<time>2011-10-11T08:37:28Z</time>
<desc>lat.=44.616493, lon.=33.737770, Alt.=189.771606m. Speed=0.000000m/h.</desc>
<speed>0.000000</speed>
</trkpt>
<trkpt lat="44.616493" lon="33.737770">
<ele>189.767700</ele>
<time>2011-10-11T08:37:33Z</time>
<desc>lat.=44.616493, lon.=33.737770, Alt.=189.767700m. Speed=0.036000m/h.</desc>
<speed>0.010000</speed>
</trkpt>
<trkpt lat="44.616493" lon="33.737766">
<ele>189.744263</ele>
<time>2011-10-11T08:37:38Z</time>
<desc>lat.=44.616493, lon.=33.737766, Alt.=189.744263m. Speed=0.108000m/h.</desc>
<speed>0.030000</speed>
</trkpt>
<trkpt lat="44.616493" lon="33.737766">
<ele>189.650513</ele>
<time>2011-10-11T08:37:43Z</time>
<desc>lat.=44.616493, lon.=33.737766, Alt.=189.650513m. Speed=0.036000m/h.</desc>
<speed>0.010000</speed>
</trkpt>
<trkpt lat="44.616493" lon="33.737766">
<ele>189.568481</ele>
<time>2011-10-11T08:37:48Z</time>
<desc>lat.=44.616493, lon.=33.737766, Alt.=189.568481m. Speed=0.036000m/h.</desc>
<speed>0.010000</speed>
</trkpt>
<trkpt lat="44.616493" lon="33.737766">
<ele>189.541138</ele>
<time>2011-10-11T08:37:53Z</time>
<desc>lat.=44.616493, lon.=33.737766, Alt.=189.541138m. Speed=0.036000m/h.</desc>
<speed>0.010000</speed>
</trkpt>
<trkpt lat="44.616489" lon="33.737766">
<ele>189.541138</ele>
<time>2011-10-11T08:37:58Z</time>
<desc>lat.=44.616489, lon.=33.737766, Alt.=189.541138m. Speed=0.000000m/h.</desc>
<speed>0.000000</speed>
</trkpt>
<trkpt lat="44.616489" lon="33.737766">
<ele>189.509888</ele>
<time>2011-10-11T08:38:03Z</time>
<desc>lat.=44.616489, lon.=33.737766, Alt.=189.509888m. Speed=0.000000m/h.</desc>
<speed>0.000000</speed>
</trkpt>
<trkpt lat="44.616489" lon="33.737766">
<ele>189.439575</ele>
<time>2011-10-11T08:38:08Z</time>
<desc>lat.=44.616489, lon.=33.737766, Alt.=189.439575m. Speed=0.000000m/h.</desc>
<speed>0.000000</speed>
</trkpt>
<trkpt lat="44.616489" lon="33.737770">
<ele>189.392700</ele>
<time>2011-10-11T08:38:13Z</time>
<desc>lat.=44.616489, lon.=33.737770, Alt.=189.392700m. Speed=0.000000m/h.</desc>
<speed>0.000000</speed>
</trkpt>
<trkpt lat="44.616489" lon="33.737770">
<ele>189.373169</ele>
<time>2011-10-11T08:38:18Z</time>
<desc>lat.=44.616489, lon.=33.737770, Alt.=189.373169m. Speed=0.000000m/h.</desc>
<speed>0.000000</speed>
</trkpt>
<trkpt lat="44.616489" lon="33.737770">
<ele>189.357544</ele>
<time>2011-10-11T08:38:23Z</time>
<desc>lat.=44.616489, lon.=33.737770, Alt.=189.357544m. Speed=0.000000m/h.</desc>
<speed>0.000000</speed>
</trkpt>
<trkpt lat="44.616489" lon="33.737770">
<ele>189.357544</ele>
<time>2011-10-11T08:38:28Z</time>
<desc>lat.=44.616489, lon.=33.737770, Alt.=189.357544m. Speed=0.000000m/h.</desc>
<speed>0.000000</speed>
</trkpt>
<trkpt lat="44.616489" lon="33.737770">
<ele>189.353638</ele>
<time>2011-10-11T08:38:33Z</time>
<desc>lat.=44.616489, lon.=33.737770, Alt.=189.353638m. Speed=0.036000m/h.</desc>
<speed>0.010000</speed>
</trkpt>
<trkpt lat="44.616489" lon="33.737770">
<ele>189.330200</ele>
<time>2011-10-11T08:38:38Z</time>
<desc>lat.=44.616489, lon.=33.737770, Alt.=189.330200m. Speed=0.000000m/h.</desc>
<speed>0.000000</speed>
</trkpt>
<trkpt lat="44.616489" lon="33.737770">
<ele>189.287231</ele>
<time>2011-10-11T08:38:43Z</time>
<desc>lat.=44.616489, lon.=33.737770, Alt.=189.287231m. Speed=0.000000m/h.</desc>
<speed>0.000000</speed>
</trkpt>
<trkpt lat="44.616489" lon="33.737770">
<ele>189.279419</ele>
<time>2011-10-11T08:38:48Z</time>
<desc>lat.=44.616489, lon.=33.737770, Alt.=189.279419m. Speed=0.000000m/h.</desc>
<speed>0.000000</speed>
</trkpt>
<trkpt lat="44.616489" lon="33.737770">
<ele>189.298950</ele>
<time>2011-10-11T08:38:53Z</time>
<desc>lat.=44.616489, lon.=33.737770, Alt.=189.298950m. Speed=0.000000m/h.</desc>
<speed>0.000000</speed>
</trkpt>
<trkpt lat="44.616489" lon="33.737766">
<ele>189.353638</ele>
<time>2011-10-11T08:38:58Z</time>
<desc>lat.=44.616489, lon.=33.737766, Alt.=189.353638m. Speed=0.000000m/h.</desc>
<speed>0.000000</speed>
</trkpt>
<trkpt lat="44.616489" lon="33.737766">
<ele>189.365356</ele>
<time>2011-10-11T08:39:03Z</time>
<desc>lat.=44.616489, lon.=33.737766, Alt.=189.365356m. Speed=0.000000m/h.</desc>
<speed>0.000000</speed>
</trkpt>
<trkpt lat="44.616489" lon="33.737766">
<ele>189.361450</ele>
<time>2011-10-11T08:39:08Z</time>
<desc>lat.=44.616489, lon.=33.737766, Alt.=189.361450m. Speed=0.036000m/h.</desc>
<speed>0.010000</speed>
</trkpt>
<trkpt lat="44.616489" lon="33.737766">
<ele>189.361450</ele>
<time>2011-10-11T08:39:13Z</time>
<desc>lat.=44.616489, lon.=33.737766, Alt.=189.361450m. Speed=0.000000m/h.</desc>
<speed>0.000000</speed>
</trkpt>
<trkpt lat="44.616489" lon="33.737766">
<ele>189.361450</ele>
<time>2011-10-11T08:39:18Z</time>
<desc>lat.=44.616489, lon.=33.737766, Alt.=189.361450m. Speed=0.036000m/h.</desc>
<speed>0.010000</speed>
</trkpt>
<trkpt lat="44.616486" lon="33.737766">
<ele>189.353638</ele>
<time>2011-10-11T08:39:23Z</time>
<desc>lat.=44.616486, lon.=33.737766, Alt.=189.353638m. Speed=0.036000m/h.</desc>
<speed>0.010000</speed>
</trkpt>
<trkpt lat="44.616486" lon="33.737766">
<ele>189.326294</ele>
<time>2011-10-11T08:39:28Z</time>
<desc>lat.=44.616486, lon.=33.737766, Alt.=189.326294m. Speed=0.036000m/h.</desc>
<speed>0.010000</speed>
</trkpt>
<trkpt lat="44.616486" lon="33.737766">
<ele>189.298950</ele>
<time>2011-10-11T08:39:33Z</time>
<desc>lat.=44.616486, lon.=33.737766, Alt.=189.298950m. Speed=0.000000m/h.</desc>
<speed>0.000000</speed>
</trkpt>
<trkpt lat="44.616486" lon="33.737766">
<ele>189.279419</ele>
<time>2011-10-11T08:39:38Z</time>
<desc>lat.=44.616486, lon.=33.737766, Alt.=189.279419m. Speed=0.000000m/h.</desc>
<speed>0.000000</speed>
</trkpt>
<trkpt lat="44.616486" lon="33.737766">
<ele>189.295044</ele>
<time>2011-10-11T08:39:43Z</time>
<desc>lat.=44.616486, lon.=33.737766, Alt.=189.295044m. Speed=0.000000m/h.</desc>
<speed>0.000000</speed>
</trkpt>
<trkpt lat="44.616486" lon="33.737766">
<ele>189.291138</ele>
<time>2011-10-11T08:39:48Z</time>
<desc>lat.=44.616486, lon.=33.737766, Alt.=189.291138m. Speed=0.036000m/h.</desc>
<speed>0.010000</speed>
</trkpt>
<trkpt lat="44.616486" lon="33.737766">
<ele>189.283325</ele>
<time>2011-10-11T08:39:53Z</time>
<desc>lat.=44.616486, lon.=33.737766, Alt.=189.283325m. Speed=0.036000m/h.</desc>
<speed>0.010000</speed>
</trkpt>
<trkpt lat="44.616486" lon="33.737766">
<ele>189.326294</ele>
<time>2011-10-11T08:39:58Z</time>
<desc>lat.=44.616486, lon.=33.737766, Alt.=189.326294m. Speed=0.000000m/h.</desc>
<speed>0.000000</speed>
</trkpt>
<trkpt lat="44.616486" lon="33.737766">
<ele>189.400513</ele>
<time>2011-10-11T08:40:03Z</time>
<desc>lat.=44.616486, lon.=33.737766, Alt.=189.400513m. Speed=0.036000m/h.</desc>
<speed>0.010000</speed>
</trkpt>
<trkpt lat="44.616486" lon="33.737766">
<ele>189.451294</ele>
<time>2011-10-11T08:40:08Z</time>
<desc>lat.=44.616486, lon.=33.737766, Alt.=189.451294m. Speed=0.036000m/h.</desc>
<speed>0.010000</speed>
</trkpt>
<trkpt lat="44.616486" lon="33.737766">
<ele>189.459106</ele>
<time>2011-10-11T08:40:13Z</time>
<desc>lat.=44.616486, lon.=33.737766, Alt.=189.459106m. Speed=0.000000m/h.</desc>
<speed>0.000000</speed>
</trkpt>
<trkpt lat="44.616486" lon="33.737766">
<ele>189.478638</ele>
<time>2011-10-11T08:40:18Z</time>
<desc>lat.=44.616486, lon.=33.737766, Alt.=189.478638m. Speed=0.000000m/h.</desc>
<speed>0.000000</speed>
</trkpt>
<trkpt lat="44.616486" lon="33.737766">
<ele>189.572388</ele>
<time>2011-10-11T08:40:23Z</time>
<desc>lat.=44.616486, lon.=33.737766, Alt.=189.572388m. Speed=0.036000m/h.</desc>
<speed>0.010000</speed>
</trkpt>
<trkpt lat="44.616486" lon="33.737766">
<ele>189.646606</ele>
<time>2011-10-11T08:40:28Z</time>
<desc>lat.=44.616486, lon.=33.737766, Alt.=189.646606m. Speed=0.000000m/h.</desc>
<speed>0.000000</speed>
</trkpt>
<trkpt lat="44.616486" lon="33.737766">
<ele>189.595825</ele>
<time>2011-10-11T08:40:33Z</time>
<desc>lat.=44.616486, lon.=33.737766, Alt.=189.595825m. Speed=0.036000m/h.</desc>
<speed>0.010000</speed>
</trkpt>
<trkpt lat="44.616486" lon="33.737766">
<ele>189.474731</ele>
<time>2011-10-11T08:40:38Z</time>
<desc>lat.=44.616486, lon.=33.737766, Alt.=189.474731m. Speed=0.072000m/h.</desc>
<speed>0.020000</speed>
</trkpt>
<trkpt lat="44.616486" lon="33.737766">
<ele>189.291138</ele>
<time>2011-10-11T08:40:43Z</time>
<desc>lat.=44.616486, lon.=33.737766, Alt.=189.291138m. Speed=0.180000m/h.</desc>
<speed>0.050000</speed>
</trkpt>
<trkpt lat="44.616489" lon="33.737766">
<ele>189.052856</ele>
<time>2011-10-11T08:40:48Z</time>
<desc>lat.=44.616489, lon.=33.737766, Alt.=189.052856m. Speed=0.072000m/h.</desc>
<speed>0.020000</speed>
</trkpt>
<trkpt lat="44.616489" lon="33.737766">
<ele>188.904419</ele>
<time>2011-10-11T08:40:53Z</time>
<desc>lat.=44.616489, lon.=33.737766, Alt.=188.904419m. Speed=0.000000m/h.</desc>
<speed>0.000000</speed>
</trkpt>
<trkpt lat="44.616489" lon="33.737766">
<ele>188.869263</ele>
<time>2011-10-11T08:40:58Z</time>
<desc>lat.=44.616489, lon.=33.737766, Alt.=188.869263m. Speed=0.072000m/h.</desc>
<speed>0.020000</speed>
</trkpt>
<trkpt lat="44.616489" lon="33.737766">
<ele>188.853638</ele>
<time>2011-10-11T08:41:03Z</time>
<desc>lat.=44.616489, lon.=33.737766, Alt.=188.853638m. Speed=0.072000m/h.</desc>
<speed>0.020000</speed>
</trkpt>
<trkpt lat="44.616489" lon="33.737762">
<ele>188.861450</ele>
<time>2011-10-11T08:41:08Z</time>
<desc>lat.=44.616489, lon.=33.737762, Alt.=188.861450m. Speed=0.072000m/h.</desc>
<speed>0.020000</speed>
</trkpt>
<trkpt lat="44.616489" lon="33.737762">
<ele>188.834106</ele>
<time>2011-10-11T08:41:13Z</time>
<desc>lat.=44.616489, lon.=33.737762, Alt.=188.834106m. Speed=0.036000m/h.</desc>
<speed>0.010000</speed>
</trkpt>
<trkpt lat="44.616489" lon="33.737762">
<ele>188.775513</ele>
<time>2011-10-11T08:41:18Z</time>
<desc>lat.=44.616489, lon.=33.737762, Alt.=188.775513m. Speed=0.288000m/h.</desc>
<speed>0.080000</speed>
</trkpt>
<trkpt lat="44.616489" lon="33.737762">
<ele>188.755981</ele>
<time>2011-10-11T08:41:23Z</time>
<desc>lat.=44.616489, lon.=33.737762, Alt.=188.755981m. Speed=0.180000m/h.</desc>
<speed>0.050000</speed>
</trkpt>
<trkpt lat="44.616489" lon="33.737762">
<ele>188.752075</ele>
<time>2011-10-11T08:41:28Z</time>
<desc>lat.=44.616489, lon.=33.737762, Alt.=188.752075m. Speed=0.000000m/h.</desc>
<speed>0.000000</speed>
</trkpt>
<trkpt lat="44.616486" lon="33.737762">
<ele>188.728638</ele>
<time>2011-10-11T08:41:33Z</time>
<desc>lat.=44.616486, lon.=33.737762, Alt.=188.728638m. Speed=0.396000m/h.</desc>
<speed>0.110000</speed>
</trkpt>
<trkpt lat="44.616482" lon="33.737766">
<ele>188.693481</ele>
<time>2011-10-11T08:41:38Z</time>
<desc>lat.=44.616482, lon.=33.737766, Alt.=188.693481m. Speed=0.036000m/h.</desc>
<speed>0.010000</speed>
</trkpt>
<trkpt lat="44.616482" lon="33.737766">
<ele>188.662231</ele>
<time>2011-10-11T08:41:43Z</time>
<desc>lat.=44.616482, lon.=33.737766, Alt.=188.662231m. Speed=0.144000m/h.</desc>
<speed>0.040000</speed>
</trkpt>
<trkpt lat="44.616482" lon="33.737770">
<ele>188.630981</ele>
<time>2011-10-11T08:41:48Z</time>
<desc>lat.=44.616482, lon.=33.737770, Alt.=188.630981m. Speed=0.072000m/h.</desc>
<speed>0.020000</speed>
</trkpt>
<trkpt lat="44.616482" lon="33.737770">
<ele>188.607544</ele>
<time>2011-10-11T08:41:53Z</time>
<desc>lat.=44.616482, lon.=33.737770, Alt.=188.607544m. Speed=0.036000m/h.</desc>
<speed>0.010000</speed>
</trkpt>
<trkpt lat="44.616482" lon="33.737774">
<ele>188.580200</ele>
<time>2011-10-11T08:41:58Z</time>
<desc>lat.=44.616482, lon.=33.737774, Alt.=188.580200m. Speed=0.324000m/h.</desc>
<speed>0.090000</speed>
</trkpt>
<trkpt lat="44.616478" lon="33.737774">
<ele>188.517700</ele>
<time>2011-10-11T08:42:03Z</time>
<desc>lat.=44.616478, lon.=33.737774, Alt.=188.517700m. Speed=0.036000m/h.</desc>
<speed>0.010000</speed>
</trkpt>
<trkpt lat="44.616478" lon="33.737774">
<ele>188.486450</ele>
<time>2011-10-11T08:42:08Z</time>
<desc>lat.=44.616478, lon.=33.737774, Alt.=188.486450m. Speed=0.036000m/h.</desc>
<speed>0.010000</speed>
</trkpt>
<trkpt lat="44.616478" lon="33.737778">
<ele>188.494263</ele>
<time>2011-10-11T08:42:13Z</time>
<desc>lat.=44.616478, lon.=33.737778, Alt.=188.494263m. Speed=0.072000m/h.</desc>
<speed>0.020000</speed>
</trkpt>
<trkpt lat="44.616478" lon="33.737778">
<ele>188.498169</ele>
<time>2011-10-11T08:42:18Z</time>
<desc>lat.=44.616478, lon.=33.737778, Alt.=188.498169m. Speed=0.000000m/h.</desc>
<speed>0.000000</speed>
</trkpt>
<trkpt lat="44.616478" lon="33.737778">
<ele>188.498169</ele>
<time>2011-10-11T08:42:23Z</time>
<desc>lat.=44.616478, lon.=33.737778, Alt.=188.498169m. Speed=0.000000m/h.</desc>
<speed>0.000000</speed>
</trkpt>
<trkpt lat="44.616478" lon="33.737778">
<ele>188.502075</ele>
<time>2011-10-11T08:42:28Z</time>
<desc>lat.=44.616478, lon.=33.737778, Alt.=188.502075m. Speed=0.036000m/h.</desc>
<speed>0.010000</speed>
</trkpt>
<trkpt lat="44.616478" lon="33.737778">
<ele>188.505981</ele>
<time>2011-10-11T08:42:33Z</time>
<desc>lat.=44.616478, lon.=33.737778, Alt.=188.505981m. Speed=0.000000m/h.</desc>
<speed>0.000000</speed>
</trkpt>
<trkpt lat="44.616478" lon="33.737778">
<ele>188.509888</ele>
<time>2011-10-11T08:42:38Z</time>
<desc>lat.=44.616478, lon.=33.737778, Alt.=188.509888m. Speed=0.036000m/h.</desc>
<speed>0.010000</speed>
</trkpt>
<trkpt lat="44.616478" lon="33.737778">
<ele>188.513794</ele>
<time>2011-10-11T08:42:43Z</time>
<desc>lat.=44.616478, lon.=33.737778, Alt.=188.513794m. Speed=0.000000m/h.</desc>
<speed>0.000000</speed>
</trkpt>
<trkpt lat="44.616478" lon="33.737778">
<ele>188.517700</ele>
<time>2011-10-11T08:42:48Z</time>
<desc>lat.=44.616478, lon.=33.737778, Alt.=188.517700m. Speed=0.000000m/h.</desc>
<speed>0.000000</speed>
</trkpt>
<trkpt lat="44.616478" lon="33.737778">
<ele>188.525513</ele>
<time>2011-10-11T08:42:53Z</time>
<desc>lat.=44.616478, lon.=33.737778, Alt.=188.525513m. Speed=0.036000m/h.</desc>
<speed>0.010000</speed>
</trkpt>
<trkpt lat="44.616478" lon="33.737778">
<ele>188.529419</ele>
<time>2011-10-11T08:42:58Z</time>
<desc>lat.=44.616478, lon.=33.737778, Alt.=188.529419m. Speed=0.036000m/h.</desc>
<speed>0.010000</speed>
</trkpt>
<trkpt lat="44.616478" lon="33.737778">
<ele>188.517700</ele>
<time>2011-10-11T08:43:03Z</time>
<desc>lat.=44.616478, lon.=33.737778, Alt.=188.517700m. Speed=0.000000m/h.</desc>
<speed>0.000000</speed>
</trkpt>
<trkpt lat="44.616478" lon="33.737778">
<ele>188.474731</ele>
<time>2011-10-11T08:43:08Z</time>
<desc>lat.=44.616478, lon.=33.737778, Alt.=188.474731m. Speed=0.036000m/h.</desc>
<speed>0.010000</speed>
</trkpt>
<trkpt lat="44.616478" lon="33.737778">
<ele>188.455200</ele>
<time>2011-10-11T08:43:13Z</time>
<desc>lat.=44.616478, lon.=33.737778, Alt.=188.455200m. Speed=0.036000m/h.</desc>
<speed>0.010000</speed>
</trkpt>
<trkpt lat="44.616478" lon="33.737778">
<ele>188.439575</ele>
<time>2011-10-11T08:43:18Z</time>
<desc>lat.=44.616478, lon.=33.737778, Alt.=188.439575m. Speed=0.036000m/h.</desc>
<speed>0.010000</speed>
</trkpt>
<trkpt lat="44.616478" lon="33.737778">
<ele>188.345825</ele>
<time>2011-10-11T08:43:23Z</time>
<desc>lat.=44.616478, lon.=33.737778, Alt.=188.345825m. Speed=0.000000m/h.</desc>
<speed>0.000000</speed>
</trkpt>
<trkpt lat="44.616474" lon="33.737778">
<ele>188.295044</ele>
<time>2011-10-11T08:43:28Z</time>
<desc>lat.=44.616474, lon.=33.737778, Alt.=188.295044m. Speed=0.000000m/h.</desc>
<speed>0.000000</speed>
</trkpt>
<trkpt lat="44.616474" lon="33.737778">
<ele>188.263794</ele>
<time>2011-10-11T08:43:33Z</time>
<desc>lat.=44.616474, lon.=33.737778, Alt.=188.263794m. Speed=0.000000m/h.</desc>
<speed>0.000000</speed>
</trkpt>
<trkpt lat="44.616474" lon="33.737778">
<ele>188.232544</ele>
<time>2011-10-11T08:43:38Z</time>
<desc>lat.=44.616474, lon.=33.737778, Alt.=188.232544m. Speed=0.036000m/h.</desc>
<speed>0.010000</speed>
</trkpt>
<trkpt lat="44.616474" lon="33.737778">
<ele>188.205200</ele>
<time>2011-10-11T08:43:43Z</time>
<desc>lat.=44.616474, lon.=33.737778, Alt.=188.205200m. Speed=0.000000m/h.</desc>
<speed>0.000000</speed>
</trkpt>
<trkpt lat="44.616474" lon="33.737778">
<ele>188.177856</ele>
<time>2011-10-11T08:43:48Z</time>
<desc>lat.=44.616474, lon.=33.737778, Alt.=188.177856m. Speed=0.036000m/h.</desc>
<speed>0.010000</speed>
</trkpt>
<trkpt lat="44.616474" lon="33.737778">
<ele>188.170044</ele>
<time>2011-10-11T08:43:53Z</time>
<desc>lat.=44.616474, lon.=33.737778, Alt.=188.170044m. Speed=0.000000m/h.</desc>
<speed>0.000000</speed>
</trkpt>
<trkpt lat="44.616474" lon="33.737778">
<ele>188.181763</ele>
<time>2011-10-11T08:43:58Z</time>
<desc>lat.=44.616474, lon.=33.737778, Alt.=188.181763m. Speed=0.108000m/h.</desc>
<speed>0.030000</speed>
</trkpt>
<trkpt lat="44.616474" lon="33.737778">
<ele>188.166138</ele>
<time>2011-10-11T08:44:03Z</time>
<desc>lat.=44.616474, lon.=33.737778, Alt.=188.166138m. Speed=0.000000m/h.</desc>
<speed>0.000000</speed>
</trkpt>
<trkpt lat="44.616474" lon="33.737778">
<ele>188.119263</ele>
<time>2011-10-11T08:44:08Z</time>
<desc>lat.=44.616474, lon.=33.737778, Alt.=188.119263m. Speed=0.000000m/h.</desc>
<speed>0.000000</speed>
</trkpt>
<trkpt lat="44.616474" lon="33.737785">
<ele>186.802856</ele>
<time>2011-10-11T08:44:13Z</time>
<desc>lat.=44.616474, lon.=33.737785, Alt.=186.802856m. Speed=0.648000m/h.</desc>
<speed>0.180000</speed>
</trkpt>
<trkpt lat="44.616470" lon="33.737766">
<ele>185.634888</ele>
<time>2011-10-11T08:44:18Z</time>
<desc>lat.=44.616470, lon.=33.737766, Alt.=185.634888m. Speed=0.504000m/h.</desc>
<speed>0.140000</speed>
</trkpt>
<trkpt lat="44.616467" lon="33.737759">
<ele>184.877075</ele>
<time>2011-10-11T08:44:23Z</time>
<desc>lat.=44.616467, lon.=33.737759, Alt.=184.877075m. Speed=0.144000m/h.</desc>
<speed>0.040000</speed>
</trkpt>
<trkpt lat="44.616467" lon="33.737759">
<ele>184.826294</ele>
<time>2011-10-11T08:44:28Z</time>
<desc>lat.=44.616467, lon.=33.737759, Alt.=184.826294m. Speed=0.036000m/h.</desc>
<speed>0.010000</speed>
</trkpt>
<trkpt lat="44.616463" lon="33.737755">
<ele>184.814575</ele>
<time>2011-10-11T08:44:33Z</time>
<desc>lat.=44.616463, lon.=33.737755, Alt.=184.814575m. Speed=0.432000m/h.</desc>
<speed>0.120000</speed>
</trkpt>
<trkpt lat="44.616459" lon="33.737751">
<ele>184.873169</ele>
<time>2011-10-11T08:44:38Z</time>
<desc>lat.=44.616459, lon.=33.737751, Alt.=184.873169m. Speed=0.072000m/h.</desc>
<speed>0.020000</speed>
</trkpt>
<trkpt lat="44.616436" lon="33.737762">
<ele>184.763794</ele>
<time>2011-10-11T08:44:43Z</time>
<desc>lat.=44.616436, lon.=33.737762, Alt.=184.763794m. Speed=1.440000m/h.</desc>
<speed>0.400000</speed>
</trkpt>
<trkpt lat="44.616436" lon="33.737762">
<ele>184.505981</ele>
<time>2011-10-11T08:44:48Z</time>
<desc>lat.=44.616436, lon.=33.737762, Alt.=184.505981m. Speed=0.288000m/h.</desc>
<speed>0.080000</speed>
</trkpt>
<trkpt lat="44.616436" lon="33.737766">
<ele>184.548950</ele>
<time>2011-10-11T08:44:53Z</time>
<desc>lat.=44.616436, lon.=33.737766, Alt.=184.548950m. Speed=0.144000m/h.</desc>
<speed>0.040000</speed>
</trkpt>
<trkpt lat="44.616436" lon="33.737766">
<ele>184.545044</ele>
<time>2011-10-11T08:44:58Z</time>
<desc>lat.=44.616436, lon.=33.737766, Alt.=184.545044m. Speed=0.252000m/h.</desc>
<speed>0.070000</speed>
</trkpt>
<trkpt lat="44.616432" lon="33.737766">
<ele>184.548950</ele>
<time>2011-10-11T08:45:03Z</time>
<desc>lat.=44.616432, lon.=33.737766, Alt.=184.548950m. Speed=0.036000m/h.</desc>
<speed>0.010000</speed>
</trkpt>
<trkpt lat="44.616432" lon="33.737766">
<ele>184.556763</ele>
<time>2011-10-11T08:45:08Z</time>
<desc>lat.=44.616432, lon.=33.737766, Alt.=184.556763m. Speed=0.108000m/h.</desc>
<speed>0.030000</speed>
</trkpt>
<trkpt lat="44.616432" lon="33.737766">
<ele>184.556763</ele>
<time>2011-10-11T08:45:13Z</time>
<desc>lat.=44.616432, lon.=33.737766, Alt.=184.556763m. Speed=0.324000m/h.</desc>
<speed>0.090000</speed>
</trkpt>
<trkpt lat="44.616440" lon="33.737762">
<ele>184.556763</ele>
<time>2011-10-11T08:45:18Z</time>
<desc>lat.=44.616440, lon.=33.737762, Alt.=184.556763m. Speed=0.432000m/h.</desc>
<speed>0.120000</speed>
</trkpt>
<trkpt lat="44.616444" lon="33.737755">
<ele>184.517700</ele>
<time>2011-10-11T08:45:23Z</time>
<desc>lat.=44.616444, lon.=33.737755, Alt.=184.517700m. Speed=0.540000m/h.</desc>
<speed>0.150000</speed>
</trkpt>
<trkpt lat="44.616447" lon="33.737751">
<ele>184.470825</ele>
<time>2011-10-11T08:45:28Z</time>
<desc>lat.=44.616447, lon.=33.737751, Alt.=184.470825m. Speed=0.468000m/h.</desc>
<speed>0.130000</speed>
</trkpt>
<trkpt lat="44.616451" lon="33.737743">
<ele>184.443481</ele>
<time>2011-10-11T08:45:33Z</time>
<desc>lat.=44.616451, lon.=33.737743, Alt.=184.443481m. Speed=0.540000m/h.</desc>
<speed>0.150000</speed>
</trkpt>
<trkpt lat="44.616486" lon="33.737732">
<ele>184.380981</ele>
<time>2011-10-11T08:45:38Z</time>
<desc>lat.=44.616486, lon.=33.737732, Alt.=184.380981m. Speed=1.548000m/h.</desc>
<speed>0.430000</speed>
</trkpt>
<trkpt lat="44.616470" lon="33.737743">
<ele>184.400513</ele>
<time>2011-10-11T08:45:43Z</time>
<desc>lat.=44.616470, lon.=33.737743, Alt.=184.400513m. Speed=0.144000m/h.</desc>
<speed>0.040000</speed>
</trkpt>
<trkpt lat="44.616467" lon="33.737743">
<ele>184.420044</ele>
<time>2011-10-11T08:45:48Z</time>
<desc>lat.=44.616467, lon.=33.737743, Alt.=184.420044m. Speed=0.072000m/h.</desc>
<speed>0.020000</speed>
</trkpt>
<trkpt lat="44.616470" lon="33.737743">
<ele>184.404419</ele>
<time>2011-10-11T08:45:53Z</time>
<desc>lat.=44.616470, lon.=33.737743, Alt.=184.404419m. Speed=0.144000m/h.</desc>
<speed>0.040000</speed>
</trkpt>
<trkpt lat="44.616474" lon="33.737740">
<ele>184.377075</ele>
<time>2011-10-11T08:45:58Z</time>
<desc>lat.=44.616474, lon.=33.737740, Alt.=184.377075m. Speed=0.684000m/h.</desc>
<speed>0.190000</speed>
</trkpt>
<trkpt lat="44.616474" lon="33.737732">
<ele>184.361450</ele>
<time>2011-10-11T08:46:03Z</time>
<desc>lat.=44.616474, lon.=33.737732, Alt.=184.361450m. Speed=0.396000m/h.</desc>
<speed>0.110000</speed>
</trkpt>
<trkpt lat="44.616478" lon="33.737724">
<ele>184.361450</ele>
<time>2011-10-11T08:46:08Z</time>
<desc>lat.=44.616478, lon.=33.737724, Alt.=184.361450m. Speed=0.540000m/h.</desc>
<speed>0.150000</speed>
</trkpt>
<trkpt lat="44.616478" lon="33.737724">
<ele>183.990356</ele>
<time>2011-10-11T08:46:13Z</time>
<desc>lat.=44.616478, lon.=33.737724, Alt.=183.990356m. Speed=1.656000m/h.</desc>
<speed>0.460000</speed>
</trkpt>
<trkpt lat="44.616474" lon="33.737713">
<ele>183.791138</ele>
<time>2011-10-11T08:46:18Z</time>
<desc>lat.=44.616474, lon.=33.737713, Alt.=183.791138m. Speed=0.936000m/h.</desc>
<speed>0.260000</speed>
</trkpt>
<trkpt lat="44.616470" lon="33.737713">
<ele>183.365356</ele>
<time>2011-10-11T08:46:23Z</time>
<desc>lat.=44.616470, lon.=33.737713, Alt.=183.365356m. Speed=1.008000m/h.</desc>
<speed>0.280000</speed>
</trkpt>
<trkpt lat="44.616447" lon="33.737747">
<ele>182.619263</ele>
<time>2011-10-11T08:46:28Z</time>
<desc>lat.=44.616447, lon.=33.737747, Alt.=182.619263m. Speed=0.864000m/h.</desc>
<speed>0.240000</speed>
</trkpt>
<trkpt lat="44.616447" lon="33.737747">
<ele>182.588013</ele>
<time>2011-10-11T08:46:33Z</time>
<desc>lat.=44.616447, lon.=33.737747, Alt.=182.588013m. Speed=0.936000m/h.</desc>
<speed>0.260000</speed>
</trkpt>
<trkpt lat="44.616455" lon="33.737751">
<ele>182.599731</ele>
<time>2011-10-11T08:46:38Z</time>
<desc>lat.=44.616455, lon.=33.737751, Alt.=182.599731m. Speed=0.108000m/h.</desc>
<speed>0.030000</speed>
</trkpt>
<trkpt lat="44.616463" lon="33.737751">
<ele>182.607544</ele>
<time>2011-10-11T08:46:43Z</time>
<desc>lat.=44.616463, lon.=33.737751, Alt.=182.607544m. Speed=1.080000m/h.</desc>
<speed>0.300000</speed>
</trkpt>
<trkpt lat="44.616478" lon="33.737755">
<ele>181.982544</ele>
<time>2011-10-11T08:46:48Z</time>
<desc>lat.=44.616478, lon.=33.737755, Alt.=181.982544m. Speed=0.612000m/h.</desc>
<speed>0.170000</speed>
</trkpt>
<trkpt lat="44.616486" lon="33.737751">
<ele>181.990356</ele>
<time>2011-10-11T08:46:53Z</time>
<desc>lat.=44.616486, lon.=33.737751, Alt.=181.990356m. Speed=0.396000m/h.</desc>
<speed>0.110000</speed>
</trkpt>
<trkpt lat="44.616486" lon="33.737755">
<ele>181.986450</ele>
<time>2011-10-11T08:46:58Z</time>
<desc>lat.=44.616486, lon.=33.737755, Alt.=181.986450m. Speed=0.036000m/h.</desc>
<speed>0.010000</speed>
</trkpt>
<trkpt lat="44.616486" lon="33.737755">
<ele>182.013794</ele>
<time>2011-10-11T08:47:03Z</time>
<desc>lat.=44.616486, lon.=33.737755, Alt.=182.013794m. Speed=0.180000m/h.</desc>
<speed>0.050000</speed>
</trkpt>
<trkpt lat="44.616482" lon="33.737755">
<ele>182.017700</ele>
<time>2011-10-11T08:47:08Z</time>
<desc>lat.=44.616482, lon.=33.737755, Alt.=182.017700m. Speed=0.000000m/h.</desc>
<speed>0.000000</speed>
</trkpt>
<trkpt lat="44.616482" lon="33.737751">
<ele>181.990356</ele>
<time>2011-10-11T08:47:13Z</time>
<desc>lat.=44.616482, lon.=33.737751, Alt.=181.990356m. Speed=0.036000m/h.</desc>
<speed>0.010000</speed>
</trkpt>
<trkpt lat="44.616478" lon="33.737751">
<ele>181.877075</ele>
<time>2011-10-11T08:47:18Z</time>
<desc>lat.=44.616478, lon.=33.737751, Alt.=181.877075m. Speed=0.000000m/h.</desc>
<speed>0.000000</speed>
</trkpt>
<trkpt lat="44.616478" lon="33.737751">
<ele>181.767700</ele>
<time>2011-10-11T08:47:23Z</time>
<desc>lat.=44.616478, lon.=33.737751, Alt.=181.767700m. Speed=0.000000m/h.</desc>
<speed>0.000000</speed>
</trkpt>
<trkpt lat="44.616474" lon="33.737751">
<ele>181.713013</ele>
<time>2011-10-11T08:47:28Z</time>
<desc>lat.=44.616474, lon.=33.737751, Alt.=181.713013m. Speed=0.000000m/h.</desc>
<speed>0.000000</speed>
</trkpt>
<trkpt lat="44.616474" lon="33.737751">
<ele>181.670044</ele>
<time>2011-10-11T08:47:33Z</time>
<desc>lat.=44.616474, lon.=33.737751, Alt.=181.670044m. Speed=0.000000m/h.</desc>
<speed>0.000000</speed>
</trkpt>
<trkpt lat="44.616474" lon="33.737751">
<ele>181.658325</ele>
<time>2011-10-11T08:47:38Z</time>
<desc>lat.=44.616474, lon.=33.737751, Alt.=181.658325m. Speed=0.036000m/h.</desc>
<speed>0.010000</speed>
</trkpt>
<trkpt lat="44.616474" lon="33.737751">
<ele>181.630981</ele>
<time>2011-10-11T08:47:43Z</time>
<desc>lat.=44.616474, lon.=33.737751, Alt.=181.630981m. Speed=0.036000m/h.</desc>
<speed>0.010000</speed>
</trkpt>
<trkpt lat="44.616474" lon="33.737751">
<ele>181.588013</ele>
<time>2011-10-11T08:47:48Z</time>
<desc>lat.=44.616474, lon.=33.737751, Alt.=181.588013m. Speed=0.000000m/h.</desc>
<speed>0.000000</speed>
</trkpt>
<trkpt lat="44.616474" lon="33.737751">
<ele>181.552856</ele>
<time>2011-10-11T08:47:53Z</time>
<desc>lat.=44.616474, lon.=33.737751, Alt.=181.552856m. Speed=0.036000m/h.</desc>
<speed>0.010000</speed>
</trkpt>
<trkpt lat="44.616474" lon="33.737751">
<ele>181.556763</ele>
<time>2011-10-11T08:47:58Z</time>
<desc>lat.=44.616474, lon.=33.737751, Alt.=181.556763m. Speed=0.000000m/h.</desc>
<speed>0.000000</speed>
</trkpt>
<trkpt lat="44.616474" lon="33.737751">
<ele>181.541138</ele>
<time>2011-10-11T08:48:03Z</time>
<desc>lat.=44.616474, lon.=33.737751, Alt.=181.541138m. Speed=0.000000m/h.</desc>
<speed>0.000000</speed>
</trkpt>
<trkpt lat="44.616474" lon="33.737751">
<ele>181.517700</ele>
<time>2011-10-11T08:48:08Z</time>
<desc>lat.=44.616474, lon.=33.737751, Alt.=181.517700m. Speed=0.036000m/h.</desc>
<speed>0.010000</speed>
</trkpt>
<trkpt lat="44.616474" lon="33.737751">
<ele>181.502075</ele>
<time>2011-10-11T08:48:13Z</time>
<desc>lat.=44.616474, lon.=33.737751, Alt.=181.502075m. Speed=0.036000m/h.</desc>
<speed>0.010000</speed>
</trkpt>
<trkpt lat="44.616474" lon="33.737751">
<ele>181.498169</ele>
<time>2011-10-11T08:48:18Z</time>
<desc>lat.=44.616474, lon.=33.737751, Alt.=181.498169m. Speed=0.000000m/h.</desc>
<speed>0.000000</speed>
</trkpt>
<trkpt lat="44.616474" lon="33.737751">
<ele>181.502075</ele>
<time>2011-10-11T08:48:23Z</time>
<desc>lat.=44.616474, lon.=33.737751, Alt.=181.502075m. Speed=0.000000m/h.</desc>
<speed>0.000000</speed>
</trkpt>
<trkpt lat="44.616474" lon="33.737751">
<ele>181.486450</ele>
<time>2011-10-11T08:48:28Z</time>
<desc>lat.=44.616474, lon.=33.737751, Alt.=181.486450m. Speed=0.036000m/h.</desc>
<speed>0.010000</speed>
</trkpt>
<trkpt lat="44.616470" lon="33.737751">
<ele>181.470825</ele>
<time>2011-10-11T08:48:33Z</time>
<desc>lat.=44.616470, lon.=33.737751, Alt.=181.470825m. Speed=0.000000m/h.</desc>
<speed>0.000000</speed>
</trkpt>
<trkpt lat="44.616470" lon="33.737751">
<ele>181.443481</ele>
<time>2011-10-11T08:48:38Z</time>
<desc>lat.=44.616470, lon.=33.737751, Alt.=181.443481m. Speed=0.000000m/h.</desc>
<speed>0.000000</speed>
</trkpt>
<trkpt lat="44.616470" lon="33.737751">
<ele>181.420044</ele>
<time>2011-10-11T08:48:43Z</time>
<desc>lat.=44.616470, lon.=33.737751, Alt.=181.420044m. Speed=0.072000m/h.</desc>
<speed>0.020000</speed>
</trkpt>
<trkpt lat="44.616470" lon="33.737751">
<ele>181.423950</ele>
<time>2011-10-11T08:48:48Z</time>
<desc>lat.=44.616470, lon.=33.737751, Alt.=181.423950m. Speed=0.000000m/h.</desc>
<speed>0.000000</speed>
</trkpt>
<trkpt lat="44.616470" lon="33.737751">
<ele>181.451294</ele>
<time>2011-10-11T08:48:53Z</time>
<desc>lat.=44.616470, lon.=33.737751, Alt.=181.451294m. Speed=0.000000m/h.</desc>
<speed>0.000000</speed>
</trkpt>
<trkpt lat="44.616470" lon="33.737751">
<ele>181.459106</ele>
<time>2011-10-11T08:48:58Z</time>
<desc>lat.=44.616470, lon.=33.737751, Alt.=181.459106m. Speed=0.036000m/h.</desc>
<speed>0.010000</speed>
</trkpt>
<trkpt lat="44.616470" lon="33.737751">
<ele>181.439575</ele>
<time>2011-10-11T08:49:03Z</time>
<desc>lat.=44.616470, lon.=33.737751, Alt.=181.439575m. Speed=0.072000m/h.</desc>
<speed>0.020000</speed>
</trkpt>
<trkpt lat="44.616470" lon="33.737751">
<ele>181.416138</ele>
<time>2011-10-11T08:49:08Z</time>
<desc>lat.=44.616470, lon.=33.737751, Alt.=181.416138m. Speed=0.000000m/h.</desc>
<speed>0.000000</speed>
</trkpt>
<trkpt lat="44.616470" lon="33.737751">
<ele>181.416138</ele>
<time>2011-10-11T08:49:13Z</time>
<desc>lat.=44.616470, lon.=33.737751, Alt.=181.416138m. Speed=0.072000m/h.</desc>
<speed>0.020000</speed>
</trkpt>
<trkpt lat="44.616470" lon="33.737747">
<ele>181.431763</ele>
<time>2011-10-11T08:49:18Z</time>
<desc>lat.=44.616470, lon.=33.737747, Alt.=181.431763m. Speed=0.000000m/h.</desc>
<speed>0.000000</speed>
</trkpt>
<trkpt lat="44.616470" lon="33.737747">
<ele>181.420044</ele>
<time>2011-10-11T08:49:23Z</time>
<desc>lat.=44.616470, lon.=33.737747, Alt.=181.420044m. Speed=0.036000m/h.</desc>
<speed>0.010000</speed>
</trkpt>
<trkpt lat="44.616467" lon="33.737747">
<ele>181.412231</ele>
<time>2011-10-11T08:49:28Z</time>
<desc>lat.=44.616467, lon.=33.737747, Alt.=181.412231m. Speed=0.036000m/h.</desc>
<speed>0.010000</speed>
</trkpt>
<trkpt lat="44.616467" lon="33.737747">
<ele>181.388794</ele>
<time>2011-10-11T08:49:33Z</time>
<desc>lat.=44.616467, lon.=33.737747, Alt.=181.388794m. Speed=0.000000m/h.</desc>
<speed>0.000000</speed>
</trkpt>
<trkpt lat="44.616467" lon="33.737747">
<ele>181.384888</ele>
<time>2011-10-11T08:49:38Z</time>
<desc>lat.=44.616467, lon.=33.737747, Alt.=181.384888m. Speed=0.072000m/h.</desc>
<speed>0.020000</speed>
</trkpt>
<trkpt lat="44.616467" lon="33.737747">
<ele>181.396606</ele>
<time>2011-10-11T08:49:43Z</time>
<desc>lat.=44.616467, lon.=33.737747, Alt.=181.396606m. Speed=0.072000m/h.</desc>
<speed>0.020000</speed>
</trkpt>
<trkpt lat="44.616467" lon="33.737747">
<ele>181.408325</ele>
<time>2011-10-11T08:49:48Z</time>
<desc>lat.=44.616467, lon.=33.737747, Alt.=181.408325m. Speed=0.144000m/h.</desc>
<speed>0.040000</speed>
</trkpt>
<trkpt lat="44.616467" lon="33.737747">
<ele>181.423950</ele>
<time>2011-10-11T08:49:53Z</time>
<desc>lat.=44.616467, lon.=33.737747, Alt.=181.423950m. Speed=0.000000m/h.</desc>
<speed>0.000000</speed>
</trkpt>
<trkpt lat="44.616467" lon="33.737747">
<ele>181.416138</ele>
<time>2011-10-11T08:49:58Z</time>
<desc>lat.=44.616467, lon.=33.737747, Alt.=181.416138m. Speed=0.108000m/h.</desc>
<speed>0.030000</speed>
</trkpt>
<trkpt lat="44.616467" lon="33.737747">
<ele>181.396606</ele>
<time>2011-10-11T08:50:03Z</time>
<desc>lat.=44.616467, lon.=33.737747, Alt.=181.396606m. Speed=0.036000m/h.</desc>
<speed>0.010000</speed>
</trkpt>
<trkpt lat="44.616467" lon="33.737747">
<ele>181.380981</ele>
<time>2011-10-11T08:50:08Z</time>
<desc>lat.=44.616467, lon.=33.737747, Alt.=181.380981m. Speed=0.000000m/h.</desc>
<speed>0.000000</speed>
</trkpt>
<trkpt lat="44.616467" lon="33.737747">
<ele>181.338013</ele>
<time>2011-10-11T08:50:13Z</time>
<desc>lat.=44.616467, lon.=33.737747, Alt.=181.338013m. Speed=0.036000m/h.</desc>
<speed>0.010000</speed>
</trkpt>
<trkpt lat="44.616467" lon="33.737747">
<ele>181.341919</ele>
<time>2011-10-11T08:50:18Z</time>
<desc>lat.=44.616467, lon.=33.737747, Alt.=181.341919m. Speed=0.000000m/h.</desc>
<speed>0.000000</speed>
</trkpt>
<trkpt lat="44.616467" lon="33.737747">
<ele>181.334106</ele>
<time>2011-10-11T08:50:23Z</time>
<desc>lat.=44.616467, lon.=33.737747, Alt.=181.334106m. Speed=0.000000m/h.</desc>
<speed>0.000000</speed>
</trkpt>
<trkpt lat="44.616467" lon="33.737747">
<ele>181.334106</ele>
<time>2011-10-11T08:50:28Z</time>
<desc>lat.=44.616467, lon.=33.737747, Alt.=181.334106m. Speed=0.000000m/h.</desc>
<speed>0.000000</speed>
</trkpt>
<trkpt lat="44.616467" lon="33.737747">
<ele>181.334106</ele>
<time>2011-10-11T08:50:33Z</time>
<desc>lat.=44.616467, lon.=33.737747, Alt.=181.334106m. Speed=0.000000m/h.</desc>
<speed>0.000000</speed>
</trkpt>
<trkpt lat="44.616467" lon="33.737747">
<ele>181.338013</ele>
<time>2011-10-11T08:50:38Z</time>
<desc>lat.=44.616467, lon.=33.737747, Alt.=181.338013m. Speed=0.000000m/h.</desc>
<speed>0.000000</speed>
</trkpt>
<trkpt lat="44.616467" lon="33.737747">
<ele>181.345825</ele>
<time>2011-10-11T08:50:43Z</time>
<desc>lat.=44.616467, lon.=33.737747, Alt.=181.345825m. Speed=0.036000m/h.</desc>
<speed>0.010000</speed>
</trkpt>
<trkpt lat="44.616463" lon="33.737747">
<ele>181.369263</ele>
<time>2011-10-11T08:50:48Z</time>
<desc>lat.=44.616463, lon.=33.737747, Alt.=181.369263m. Speed=0.252000m/h.</desc>
<speed>0.070000</speed>
</trkpt>
<trkpt lat="44.616459" lon="33.737751">
<ele>181.400513</ele>
<time>2011-10-11T08:50:53Z</time>
<desc>lat.=44.616459, lon.=33.737751, Alt.=181.400513m. Speed=0.324000m/h.</desc>
<speed>0.090000</speed>
</trkpt>
<trkpt lat="44.616455" lon="33.737751">
<ele>181.439575</ele>
<time>2011-10-11T08:50:58Z</time>
<desc>lat.=44.616455, lon.=33.737751, Alt.=181.439575m. Speed=0.252000m/h.</desc>
<speed>0.070000</speed>
</trkpt>
<trkpt lat="44.616451" lon="33.737755">
<ele>181.470825</ele>
<time>2011-10-11T08:51:03Z</time>
<desc>lat.=44.616451, lon.=33.737755, Alt.=181.470825m. Speed=0.432000m/h.</desc>
<speed>0.120000</speed>
</trkpt>
<trkpt lat="44.616444" lon="33.737755">
<ele>181.502075</ele>
<time>2011-10-11T08:51:08Z</time>
<desc>lat.=44.616444, lon.=33.737755, Alt.=181.502075m. Speed=0.504000m/h.</desc>
<speed>0.140000</speed>
</trkpt>
<trkpt lat="44.616440" lon="33.737762">
<ele>181.533325</ele>
<time>2011-10-11T08:51:13Z</time>
<desc>lat.=44.616440, lon.=33.737762, Alt.=181.533325m. Speed=0.468000m/h.</desc>
<speed>0.130000</speed>
</trkpt>
<trkpt lat="44.616436" lon="33.737766">
<ele>181.564575</ele>
<time>2011-10-11T08:51:18Z</time>
<desc>lat.=44.616436, lon.=33.737766, Alt.=181.564575m. Speed=0.396000m/h.</desc>
<speed>0.110000</speed>
</trkpt>
<trkpt lat="44.616432" lon="33.737770">
<ele>181.588013</ele>
<time>2011-10-11T08:51:23Z</time>
<desc>lat.=44.616432, lon.=33.737770, Alt.=181.588013m. Speed=0.324000m/h.</desc>
<speed>0.090000</speed>
</trkpt>
<trkpt lat="44.616428" lon="33.737770">
<ele>181.611450</ele>
<time>2011-10-11T08:51:28Z</time>
<desc>lat.=44.616428, lon.=33.737770, Alt.=181.611450m. Speed=0.360000m/h.</desc>
<speed>0.100000</speed>
</trkpt>
<trkpt lat="44.616421" lon="33.737774">
<ele>181.634888</ele>
<time>2011-10-11T08:51:33Z</time>
<desc>lat.=44.616421, lon.=33.737774, Alt.=181.634888m. Speed=0.432000m/h.</desc>
<speed>0.120000</speed>
</trkpt>
<trkpt lat="44.616417" lon="33.737778">
<ele>181.650513</ele>
<time>2011-10-11T08:51:38Z</time>
<desc>lat.=44.616417, lon.=33.737778, Alt.=181.650513m. Speed=0.432000m/h.</desc>
<speed>0.120000</speed>
</trkpt>
<trkpt lat="44.616413" lon="33.737782">
<ele>181.666138</ele>
<time>2011-10-11T08:51:43Z</time>
<desc>lat.=44.616413, lon.=33.737782, Alt.=181.666138m. Speed=0.144000m/h.</desc>
<speed>0.040000</speed>
</trkpt>
<trkpt lat="44.616409" lon="33.737782">
<ele>181.681763</ele>
<time>2011-10-11T08:51:48Z</time>
<desc>lat.=44.616409, lon.=33.737782, Alt.=181.681763m. Speed=0.432000m/h.</desc>
<speed>0.120000</speed>
</trkpt>
<trkpt lat="44.616405" lon="33.737785">
<ele>181.701294</ele>
<time>2011-10-11T08:51:53Z</time>
<desc>lat.=44.616405, lon.=33.737785, Alt.=181.701294m. Speed=0.684000m/h.</desc>
<speed>0.190000</speed>
</trkpt>
<trkpt lat="44.616398" lon="33.737793">
<ele>181.709106</ele>
<time>2011-10-11T08:51:58Z</time>
<desc>lat.=44.616398, lon.=33.737793, Alt.=181.709106m. Speed=0.576000m/h.</desc>
<speed>0.160000</speed>
</trkpt>
<trkpt lat="44.616394" lon="33.737801">
<ele>181.701294</ele>
<time>2011-10-11T08:52:03Z</time>
<desc>lat.=44.616394, lon.=33.737801, Alt.=181.701294m. Speed=0.504000m/h.</desc>
<speed>0.140000</speed>
</trkpt>
<trkpt lat="44.616390" lon="33.737808">
<ele>181.673950</ele>
<time>2011-10-11T08:52:08Z</time>
<desc>lat.=44.616390, lon.=33.737808, Alt.=181.673950m. Speed=0.468000m/h.</desc>
<speed>0.130000</speed>
</trkpt>
<trkpt lat="44.616386" lon="33.737816">
<ele>181.627075</ele>
<time>2011-10-11T08:52:13Z</time>
<desc>lat.=44.616386, lon.=33.737816, Alt.=181.627075m. Speed=0.180000m/h.</desc>
<speed>0.050000</speed>
</trkpt>
<trkpt lat="44.616390" lon="33.737816">
<ele>181.584106</ele>
<time>2011-10-11T08:52:18Z</time>
<desc>lat.=44.616390, lon.=33.737816, Alt.=181.584106m. Speed=0.216000m/h.</desc>
<speed>0.060000</speed>
</trkpt>
<trkpt lat="44.616390" lon="33.737816">
<ele>181.556763</ele>
<time>2011-10-11T08:52:23Z</time>
<desc>lat.=44.616390, lon.=33.737816, Alt.=181.556763m. Speed=0.180000m/h.</desc>
<speed>0.050000</speed>
</trkpt>
<trkpt lat="44.616394" lon="33.737816">
<ele>181.521606</ele>
<time>2011-10-11T08:52:28Z</time>
<desc>lat.=44.616394, lon.=33.737816, Alt.=181.521606m. Speed=0.108000m/h.</desc>
<speed>0.030000</speed>
</trkpt>
<trkpt lat="44.616394" lon="33.737820">
<ele>181.478638</ele>
<time>2011-10-11T08:52:33Z</time>
<desc>lat.=44.616394, lon.=33.737820, Alt.=181.478638m. Speed=0.324000m/h.</desc>
<speed>0.090000</speed>
</trkpt>
<trkpt lat="44.616390" lon="33.737820">
<ele>181.451294</ele>
<time>2011-10-11T08:52:38Z</time>
<desc>lat.=44.616390, lon.=33.737820, Alt.=181.451294m. Speed=0.144000m/h.</desc>
<speed>0.040000</speed>
</trkpt>
<trkpt lat="44.616386" lon="33.737820">
<ele>181.439575</ele>
<time>2011-10-11T08:52:43Z</time>
<desc>lat.=44.616386, lon.=33.737820, Alt.=181.439575m. Speed=0.144000m/h.</desc>
<speed>0.040000</speed>
</trkpt>
<trkpt lat="44.616386" lon="33.737820">
<ele>181.412231</ele>
<time>2011-10-11T08:52:48Z</time>
<desc>lat.=44.616386, lon.=33.737820, Alt.=181.412231m. Speed=0.216000m/h.</desc>
<speed>0.060000</speed>
</trkpt>
<trkpt lat="44.616383" lon="33.737820">
<ele>181.357544</ele>
<time>2011-10-11T08:52:53Z</time>
<desc>lat.=44.616383, lon.=33.737820, Alt.=181.357544m. Speed=0.144000m/h.</desc>
<speed>0.040000</speed>
</trkpt>
<trkpt lat="44.616383" lon="33.737820">
<ele>181.283325</ele>
<time>2011-10-11T08:52:58Z</time>
<desc>lat.=44.616383, lon.=33.737820, Alt.=181.283325m. Speed=0.072000m/h.</desc>
<speed>0.020000</speed>
</trkpt>
<trkpt lat="44.616383" lon="33.737816">
<ele>181.213013</ele>
<time>2011-10-11T08:53:03Z</time>
<desc>lat.=44.616383, lon.=33.737816, Alt.=181.213013m. Speed=0.216000m/h.</desc>
<speed>0.060000</speed>
</trkpt>
<trkpt lat="44.616386" lon="33.737812">
<ele>181.138794</ele>
<time>2011-10-11T08:53:08Z</time>
<desc>lat.=44.616386, lon.=33.737812, Alt.=181.138794m. Speed=0.252000m/h.</desc>
<speed>0.070000</speed>
</trkpt>
<trkpt lat="44.616390" lon="33.737812">
<ele>181.002075</ele>
<time>2011-10-11T08:53:13Z</time>
<desc>lat.=44.616390, lon.=33.737812, Alt.=181.002075m. Speed=0.216000m/h.</desc>
<speed>0.060000</speed>
</trkpt>
<trkpt lat="44.616402" lon="33.737835">
<ele>180.189575</ele>
<time>2011-10-11T08:53:18Z</time>
<desc>lat.=44.616402, lon.=33.737835, Alt.=180.189575m. Speed=2.700000m/h.</desc>
<speed>0.750000</speed>
</trkpt>
<trkpt lat="44.616402" lon="33.737820">
<ele>178.838013</ele>
<time>2011-10-11T08:53:23Z</time>
<desc>lat.=44.616402, lon.=33.737820, Alt.=178.838013m. Speed=0.036000m/h.</desc>
<speed>0.010000</speed>
</trkpt>
<trkpt lat="44.616405" lon="33.737831">
<ele>178.990356</ele>
<time>2011-10-11T08:53:28Z</time>
<desc>lat.=44.616405, lon.=33.737831, Alt.=178.990356m. Speed=1.152000m/h.</desc>
<speed>0.320000</speed>
</trkpt>
<trkpt lat="44.616417" lon="33.737831">
<ele>178.240356</ele>
<time>2011-10-11T08:53:33Z</time>
<desc>lat.=44.616417, lon.=33.737831, Alt.=178.240356m. Speed=0.036000m/h.</desc>
<speed>0.010000</speed>
</trkpt>
<trkpt lat="44.616417" lon="33.737823">
<ele>178.322388</ele>
<time>2011-10-11T08:53:38Z</time>
<desc>lat.=44.616417, lon.=33.737823, Alt.=178.322388m. Speed=1.692000m/h.</desc>
<speed>0.470000</speed>
</trkpt>
<trkpt lat="44.616436" lon="33.737785">
<ele>177.838013</ele>
<time>2011-10-11T08:53:43Z</time>
<desc>lat.=44.616436, lon.=33.737785, Alt.=177.838013m. Speed=1.116000m/h.</desc>
<speed>0.310000</speed>
</trkpt>
<trkpt lat="44.616451" lon="33.737789">
<ele>177.173950</ele>
<time>2011-10-11T08:53:48Z</time>
<desc>lat.=44.616451, lon.=33.737789, Alt.=177.173950m. Speed=0.108000m/h.</desc>
<speed>0.030000</speed>
</trkpt>
<trkpt lat="44.616451" lon="33.737789">
<ele>177.033325</ele>
<time>2011-10-11T08:53:53Z</time>
<desc>lat.=44.616451, lon.=33.737789, Alt.=177.033325m. Speed=0.108000m/h.</desc>
<speed>0.030000</speed>
</trkpt>
<trkpt lat="44.616451" lon="33.737789">
<ele>176.908325</ele>
<time>2011-10-11T08:53:58Z</time>
<desc>lat.=44.616451, lon.=33.737789, Alt.=176.908325m. Speed=0.000000m/h.</desc>
<speed>0.000000</speed>
</trkpt>
<trkpt lat="44.616447" lon="33.737789">
<ele>176.818481</ele>
<time>2011-10-11T08:54:03Z</time>
<desc>lat.=44.616447, lon.=33.737789, Alt.=176.818481m. Speed=0.396000m/h.</desc>
<speed>0.110000</speed>
</trkpt>
<trkpt lat="44.616451" lon="33.737789">
<ele>176.826294</ele>
<time>2011-10-11T08:54:08Z</time>
<desc>lat.=44.616451, lon.=33.737789, Alt.=176.826294m. Speed=0.036000m/h.</desc>
<speed>0.010000</speed>
</trkpt>
<trkpt lat="44.616451" lon="33.737789">
<ele>176.826294</ele>
<time>2011-10-11T08:54:13Z</time>
<desc>lat.=44.616451, lon.=33.737789, Alt.=176.826294m. Speed=0.036000m/h.</desc>
<speed>0.010000</speed>
</trkpt>
<trkpt lat="44.616451" lon="33.737789">
<ele>176.818481</ele>
<time>2011-10-11T08:54:18Z</time>
<desc>lat.=44.616451, lon.=33.737789, Alt.=176.818481m. Speed=0.036000m/h.</desc>
<speed>0.010000</speed>
</trkpt>
<trkpt lat="44.616451" lon="33.737789">
<ele>176.802856</ele>
<time>2011-10-11T08:54:23Z</time>
<desc>lat.=44.616451, lon.=33.737789, Alt.=176.802856m. Speed=0.000000m/h.</desc>
<speed>0.000000</speed>
</trkpt>
<trkpt lat="44.616451" lon="33.737789">
<ele>176.783325</ele>
<time>2011-10-11T08:54:28Z</time>
<desc>lat.=44.616451, lon.=33.737789, Alt.=176.783325m. Speed=0.144000m/h.</desc>
<speed>0.040000</speed>
</trkpt>
<trkpt lat="44.616451" lon="33.737793">
<ele>176.748169</ele>
<time>2011-10-11T08:54:33Z</time>
<desc>lat.=44.616451, lon.=33.737793, Alt.=176.748169m. Speed=0.108000m/h.</desc>
<speed>0.030000</speed>
</trkpt>
<trkpt lat="44.616451" lon="33.737797">
<ele>176.720825</ele>
<time>2011-10-11T08:54:38Z</time>
<desc>lat.=44.616451, lon.=33.737797, Alt.=176.720825m. Speed=0.792000m/h.</desc>
<speed>0.220000</speed>
</trkpt>
<trkpt lat="44.616444" lon="33.737808">
<ele>176.775513</ele>
<time>2011-10-11T08:54:43Z</time>
<desc>lat.=44.616444, lon.=33.737808, Alt.=176.775513m. Speed=1.260000m/h.</desc>
<speed>0.350000</speed>
</trkpt>
<trkpt lat="44.616436" lon="33.737804">
<ele>176.951294</ele>
<time>2011-10-11T08:54:48Z</time>
<desc>lat.=44.616436, lon.=33.737804, Alt.=176.951294m. Speed=0.360000m/h.</desc>
<speed>0.100000</speed>
</trkpt>
<trkpt lat="44.616425" lon="33.737804">
<ele>176.474731</ele>
<time>2011-10-11T08:54:53Z</time>
<desc>lat.=44.616425, lon.=33.737804, Alt.=176.474731m. Speed=1.476000m/h.</desc>
<speed>0.410000</speed>
</trkpt>
<trkpt lat="44.616398" lon="33.737808">
<ele>177.095825</ele>
<time>2011-10-11T08:54:58Z</time>
<desc>lat.=44.616398, lon.=33.737808, Alt.=177.095825m. Speed=1.656000m/h.</desc>
<speed>0.460000</speed>
</trkpt>
<trkpt lat="44.616383" lon="33.737804">
<ele>177.146606</ele>
<time>2011-10-11T08:55:03Z</time>
<desc>lat.=44.616383, lon.=33.737804, Alt.=177.146606m. Speed=0.252000m/h.</desc>
<speed>0.070000</speed>
</trkpt>
<trkpt lat="44.616383" lon="33.737801">
<ele>178.037231</ele>
<time>2011-10-11T08:55:08Z</time>
<desc>lat.=44.616383, lon.=33.737801, Alt.=178.037231m. Speed=0.288000m/h.</desc>
<speed>0.080000</speed>
</trkpt>
<trkpt lat="44.616375" lon="33.737816">
<ele>178.263794</ele>
<time>2011-10-11T08:55:13Z</time>
<desc>lat.=44.616375, lon.=33.737816, Alt.=178.263794m. Speed=0.504000m/h.</desc>
<speed>0.140000</speed>
</trkpt>
<trkpt lat="44.616379" lon="33.737820">
<ele>178.322388</ele>
<time>2011-10-11T08:55:18Z</time>
<desc>lat.=44.616379, lon.=33.737820, Alt.=178.322388m. Speed=0.432000m/h.</desc>
<speed>0.120000</speed>
</trkpt>
<trkpt lat="44.616367" lon="33.737823">
<ele>177.845825</ele>
<time>2011-10-11T08:55:23Z</time>
<desc>lat.=44.616367, lon.=33.737823, Alt.=177.845825m. Speed=1.476000m/h.</desc>
<speed>0.410000</speed>
</trkpt>
<trkpt lat="44.616364" lon="33.737820">
<ele>177.787231</ele>
<time>2011-10-11T08:55:28Z</time>
<desc>lat.=44.616364, lon.=33.737820, Alt.=177.787231m. Speed=0.180000m/h.</desc>
<speed>0.050000</speed>
</trkpt>
<trkpt lat="44.616364" lon="33.737820">
<ele>177.904419</ele>
<time>2011-10-11T08:55:33Z</time>
<desc>lat.=44.616364, lon.=33.737820, Alt.=177.904419m. Speed=0.720000m/h.</desc>
<speed>0.200000</speed>
</trkpt>
<trkpt lat="44.616356" lon="33.737820">
<ele>177.943481</ele>
<time>2011-10-11T08:55:38Z</time>
<desc>lat.=44.616356, lon.=33.737820, Alt.=177.943481m. Speed=0.612000m/h.</desc>
<speed>0.170000</speed>
</trkpt>
<trkpt lat="44.616356" lon="33.737827">
<ele>178.052856</ele>
<time>2011-10-11T08:55:43Z</time>
<desc>lat.=44.616356, lon.=33.737827, Alt.=178.052856m. Speed=2.088000m/h.</desc>
<speed>0.580000</speed>
</trkpt>
<trkpt lat="44.616364" lon="33.737843">
<ele>178.029419</ele>
<time>2011-10-11T08:55:48Z</time>
<desc>lat.=44.616364, lon.=33.737843, Alt.=178.029419m. Speed=0.684000m/h.</desc>
<speed>0.190000</speed>
</trkpt>
<trkpt lat="44.616364" lon="33.737846">
<ele>178.068481</ele>
<time>2011-10-11T08:55:53Z</time>
<desc>lat.=44.616364, lon.=33.737846, Alt.=178.068481m. Speed=0.396000m/h.</desc>
<speed>0.110000</speed>
</trkpt>
<trkpt lat="44.616360" lon="33.737850">
<ele>178.095825</ele>
<time>2011-10-11T08:55:58Z</time>
<desc>lat.=44.616360, lon.=33.737850, Alt.=178.095825m. Speed=0.180000m/h.</desc>
<speed>0.050000</speed>
</trkpt>
<trkpt lat="44.616367" lon="33.737831">
<ele>178.232544</ele>
<time>2011-10-11T08:56:03Z</time>
<desc>lat.=44.616367, lon.=33.737831, Alt.=178.232544m. Speed=0.900000m/h.</desc>
<speed>0.250000</speed>
</trkpt>
<trkpt lat="44.616360" lon="33.737827">
<ele>178.431763</ele>
<time>2011-10-11T08:56:08Z</time>
<desc>lat.=44.616360, lon.=33.737827, Alt.=178.431763m. Speed=0.828000m/h.</desc>
<speed>0.230000</speed>
</trkpt>
<trkpt lat="44.616356" lon="33.737831">
<ele>178.513794</ele>
<time>2011-10-11T08:56:13Z</time>
<desc>lat.=44.616356, lon.=33.737831, Alt.=178.513794m. Speed=0.324000m/h.</desc>
<speed>0.090000</speed>
</trkpt>
<trkpt lat="44.616352" lon="33.737831">
<ele>178.505981</ele>
<time>2011-10-11T08:56:18Z</time>
<desc>lat.=44.616352, lon.=33.737831, Alt.=178.505981m. Speed=0.468000m/h.</desc>
<speed>0.130000</speed>
</trkpt>
<trkpt lat="44.616360" lon="33.737831">
<ele>178.295044</ele>
<time>2011-10-11T08:56:23Z</time>
<desc>lat.=44.616360, lon.=33.737831, Alt.=178.295044m. Speed=0.288000m/h.</desc>
<speed>0.080000</speed>
</trkpt>
<trkpt lat="44.616364" lon="33.737831">
<ele>179.447388</ele>
<time>2011-10-11T08:56:28Z</time>
<desc>lat.=44.616364, lon.=33.737831, Alt.=179.447388m. Speed=0.576000m/h.</desc>
<speed>0.160000</speed>
</trkpt>
<trkpt lat="44.616364" lon="33.737843">
<ele>179.357544</ele>
<time>2011-10-11T08:56:33Z</time>
<desc>lat.=44.616364, lon.=33.737843, Alt.=179.357544m. Speed=0.864000m/h.</desc>
<speed>0.240000</speed>
</trkpt>
<trkpt lat="44.616367" lon="33.737846">
<ele>179.298950</ele>
<time>2011-10-11T08:56:38Z</time>
<desc>lat.=44.616367, lon.=33.737846, Alt.=179.298950m. Speed=0.504000m/h.</desc>
<speed>0.140000</speed>
</trkpt>
<trkpt lat="44.616390" lon="33.737820">
<ele>179.213013</ele>
<time>2011-10-11T08:56:43Z</time>
<desc>lat.=44.616390, lon.=33.737820, Alt.=179.213013m. Speed=1.512000m/h.</desc>
<speed>0.420000</speed>
</trkpt>
<trkpt lat="44.616367" lon="33.737823">
<ele>179.209106</ele>
<time>2011-10-11T08:56:48Z</time>
<desc>lat.=44.616367, lon.=33.737823, Alt.=179.209106m. Speed=0.504000m/h.</desc>
<speed>0.140000</speed>
</trkpt>
<trkpt lat="44.616360" lon="33.737820">
<ele>179.205200</ele>
<time>2011-10-11T08:56:53Z</time>
<desc>lat.=44.616360, lon.=33.737820, Alt.=179.205200m. Speed=0.576000m/h.</desc>
<speed>0.160000</speed>
</trkpt>
<trkpt lat="44.616356" lon="33.737808">
<ele>179.213013</ele>
<time>2011-10-11T08:56:58Z</time>
<desc>lat.=44.616356, lon.=33.737808, Alt.=179.213013m. Speed=0.576000m/h.</desc>
<speed>0.160000</speed>
</trkpt>
<trkpt lat="44.616341" lon="33.737827">
<ele>179.248169</ele>
<time>2011-10-11T08:57:03Z</time>
<desc>lat.=44.616341, lon.=33.737827, Alt.=179.248169m. Speed=0.432000m/h.</desc>
<speed>0.120000</speed>
</trkpt>
<trkpt lat="44.616322" lon="33.737850">
<ele>179.263794</ele>
<time>2011-10-11T08:57:08Z</time>
<desc>lat.=44.616322, lon.=33.737850, Alt.=179.263794m. Speed=0.756000m/h.</desc>
<speed>0.210000</speed>
</trkpt>
<trkpt lat="44.616341" lon="33.737858">
<ele>179.275513</ele>
<time>2011-10-11T08:57:13Z</time>
<desc>lat.=44.616341, lon.=33.737858, Alt.=179.275513m. Speed=0.468000m/h.</desc>
<speed>0.130000</speed>
</trkpt>
<trkpt lat="44.616344" lon="33.737877">
<ele>179.275513</ele>
<time>2011-10-11T08:57:18Z</time>
<desc>lat.=44.616344, lon.=33.737877, Alt.=179.275513m. Speed=0.504000m/h.</desc>
<speed>0.140000</speed>
</trkpt>
<trkpt lat="44.616341" lon="33.737892">
<ele>179.263794</ele>
<time>2011-10-11T08:57:23Z</time>
<desc>lat.=44.616341, lon.=33.737892, Alt.=179.263794m. Speed=0.540000m/h.</desc>
<speed>0.150000</speed>
</trkpt>
<trkpt lat="44.616333" lon="33.737888">
<ele>179.295044</ele>
<time>2011-10-11T08:57:28Z</time>
<desc>lat.=44.616333, lon.=33.737888, Alt.=179.295044m. Speed=0.504000m/h.</desc>
<speed>0.140000</speed>
</trkpt>
<trkpt lat="44.616364" lon="33.737869">
<ele>179.306763</ele>
<time>2011-10-11T08:57:33Z</time>
<desc>lat.=44.616364, lon.=33.737869, Alt.=179.306763m. Speed=0.180000m/h.</desc>
<speed>0.050000</speed>
</trkpt>
<trkpt lat="44.616398" lon="33.737820">
<ele>179.279419</ele>
<time>2011-10-11T08:57:38Z</time>
<desc>lat.=44.616398, lon.=33.737820, Alt.=179.279419m. Speed=0.288000m/h.</desc>
<speed>0.080000</speed>
</trkpt>
<trkpt lat="44.616405" lon="33.737801">
<ele>179.248169</ele>
<time>2011-10-11T08:57:43Z</time>
<desc>lat.=44.616405, lon.=33.737801, Alt.=179.248169m. Speed=0.396000m/h.</desc>
<speed>0.110000</speed>
</trkpt>
<trkpt lat="44.616409" lon="33.737793">
<ele>179.267700</ele>
<time>2011-10-11T08:57:48Z</time>
<desc>lat.=44.616409, lon.=33.737793, Alt.=179.267700m. Speed=0.288000m/h.</desc>
<speed>0.080000</speed>
</trkpt>
<trkpt lat="44.616413" lon="33.737789">
<ele>179.287231</ele>
<time>2011-10-11T08:57:53Z</time>
<desc>lat.=44.616413, lon.=33.737789, Alt.=179.287231m. Speed=0.360000m/h.</desc>
<speed>0.100000</speed>
</trkpt>
<trkpt lat="44.616413" lon="33.737785">
<ele>179.310669</ele>
<time>2011-10-11T08:57:58Z</time>
<desc>lat.=44.616413, lon.=33.737785, Alt.=179.310669m. Speed=0.396000m/h.</desc>
<speed>0.110000</speed>
</trkpt>
<trkpt lat="44.616413" lon="33.737778">
<ele>179.338013</ele>
<time>2011-10-11T08:58:03Z</time>
<desc>lat.=44.616413, lon.=33.737778, Alt.=179.338013m. Speed=0.360000m/h.</desc>
<speed>0.100000</speed>
</trkpt>
<trkpt lat="44.616413" lon="33.737774">
<ele>179.361450</ele>
<time>2011-10-11T08:58:08Z</time>
<desc>lat.=44.616413, lon.=33.737774, Alt.=179.361450m. Speed=0.360000m/h.</desc>
<speed>0.100000</speed>
</trkpt>
<trkpt lat="44.616409" lon="33.737766">
<ele>179.388794</ele>
<time>2011-10-11T08:58:13Z</time>
<desc>lat.=44.616409, lon.=33.737766, Alt.=179.388794m. Speed=0.180000m/h.</desc>
<speed>0.050000</speed>
</trkpt>
<trkpt lat="44.616405" lon="33.737766">
<ele>179.416138</ele>
<time>2011-10-11T08:58:18Z</time>
<desc>lat.=44.616405, lon.=33.737766, Alt.=179.416138m. Speed=0.180000m/h.</desc>
<speed>0.050000</speed>
</trkpt>
<trkpt lat="44.616405" lon="33.737770">
<ele>179.447388</ele>
<time>2011-10-11T08:58:23Z</time>
<desc>lat.=44.616405, lon.=33.737770, Alt.=179.447388m. Speed=0.576000m/h.</desc>
<speed>0.160000</speed>
</trkpt>
<trkpt lat="44.616405" lon="33.737782">
<ele>179.474731</ele>
<time>2011-10-11T08:58:28Z</time>
<desc>lat.=44.616405, lon.=33.737782, Alt.=179.474731m. Speed=0.504000m/h.</desc>
<speed>0.140000</speed>
</trkpt>
<trkpt lat="44.616436" lon="33.737820">
<ele>179.509888</ele>
<time>2011-10-11T08:58:33Z</time>
<desc>lat.=44.616436, lon.=33.737820, Alt.=179.509888m. Speed=1.800000m/h.</desc>
<speed>0.500000</speed>
</trkpt>
<trkpt lat="44.616543" lon="33.737888">
<ele>179.529419</ele>
<time>2011-10-11T08:58:38Z</time>
<desc>lat.=44.616543, lon.=33.737888, Alt.=179.529419m. Speed=3.744000m/h.</desc>
<speed>1.040000</speed>
</trkpt>
<trkpt lat="44.616760" lon="33.737957">
<ele>179.541138</ele>
<time>2011-10-11T08:58:43Z</time>
<desc>lat.=44.616760, lon.=33.737957, Alt.=179.541138m. Speed=13.140000m/h.</desc>
<speed>3.650000</speed>
</trkpt>
<trkpt lat="44.617062" lon="33.737961">
<ele>179.568481</ele>
<time>2011-10-11T08:58:48Z</time>
<desc>lat.=44.617062, lon.=33.737961, Alt.=179.568481m. Speed=20.952000m/h.</desc>
<speed>5.820000</speed>
</trkpt>
<trkpt lat="44.617481" lon="33.737839">
<ele>179.373169</ele>
<time>2011-10-11T08:58:53Z</time>
<desc>lat.=44.617481, lon.=33.737839, Alt.=179.373169m. Speed=25.596001m/h.</desc>
<speed>7.110000</speed>
</trkpt>
<trkpt lat="44.617889" lon="33.737659">
<ele>178.564575</ele>
<time>2011-10-11T08:58:58Z</time>
<desc>lat.=44.617889, lon.=33.737659, Alt.=178.564575m. Speed=26.784000m/h.</desc>
<speed>7.440000</speed>
</trkpt>
<trkpt lat="44.618320" lon="33.737522">
<ele>177.791138</ele>
<time>2011-10-11T08:59:03Z</time>
<desc>lat.=44.618320, lon.=33.737522, Alt.=177.791138m. Speed=29.448000m/h.</desc>
<speed>8.180000</speed>
</trkpt>
<trkpt lat="44.618847" lon="33.737396">
<ele>177.259888</ele>
<time>2011-10-11T08:59:08Z</time>
<desc>lat.=44.618847, lon.=33.737396, Alt.=177.259888m. Speed=33.228001m/h.</desc>
<speed>9.230000</speed>
</trkpt>
<trkpt lat="44.619324" lon="33.737366">
<ele>177.240356</ele>
<time>2011-10-11T08:59:13Z</time>
<desc>lat.=44.619324, lon.=33.737366, Alt.=177.240356m. Speed=35.424000m/h.</desc>
<speed>9.840000</speed>
</trkpt>
<trkpt lat="44.619804" lon="33.737362">
<ele>177.591919</ele>
<time>2011-10-11T08:59:18Z</time>
<desc>lat.=44.619804, lon.=33.737362, Alt.=177.591919m. Speed=35.964001m/h.</desc>
<speed>9.990000</speed>
</trkpt>
<trkpt lat="44.620193" lon="33.737396">
<ele>178.603638</ele>
<time>2011-10-11T08:59:23Z</time>
<desc>lat.=44.620193, lon.=33.737396, Alt.=178.603638m. Speed=26.892000m/h.</desc>
<speed>7.470000</speed>
</trkpt>
<trkpt lat="44.620438" lon="33.737450">
<ele>179.088013</ele>
<time>2011-10-11T08:59:28Z</time>
<desc>lat.=44.620438, lon.=33.737450, Alt.=179.088013m. Speed=23.040001m/h.</desc>
<speed>6.400000</speed>
</trkpt>
<trkpt lat="44.620678" lon="33.737465">
<ele>180.263794</ele>
<time>2011-10-11T08:59:33Z</time>
<desc>lat.=44.620678, lon.=33.737465, Alt.=180.263794m. Speed=19.368000m/h.</desc>
<speed>5.380000</speed>
</trkpt>
<trkpt lat="44.620857" lon="33.737514">
<ele>180.330200</ele>
<time>2011-10-11T08:59:38Z</time>
<desc>lat.=44.620857, lon.=33.737514, Alt.=180.330200m. Speed=14.364000m/h.</desc>
<speed>3.990000</speed>
</trkpt>
<trkpt lat="44.621078" lon="33.737587">
<ele>180.056763</ele>
<time>2011-10-11T08:59:43Z</time>
<desc>lat.=44.621078, lon.=33.737587, Alt.=180.056763m. Speed=15.660000m/h.</desc>
<speed>4.350000</speed>
</trkpt>
<trkpt lat="44.621212" lon="33.737865">
<ele>178.990356</ele>
<time>2011-10-11T08:59:48Z</time>
<desc>lat.=44.621212, lon.=33.737865, Alt.=178.990356m. Speed=23.004000m/h.</desc>
<speed>6.390000</speed>
</trkpt>
<trkpt lat="44.621365" lon="33.738224">
<ele>178.275513</ele>
<time>2011-10-11T08:59:53Z</time>
<desc>lat.=44.621365, lon.=33.738224, Alt.=178.275513m. Speed=23.544001m/h.</desc>
<speed>6.540000</speed>
</trkpt>
<trkpt lat="44.621536" lon="33.738590">
<ele>177.755981</ele>
<time>2011-10-11T08:59:58Z</time>
<desc>lat.=44.621536, lon.=33.738590, Alt.=177.755981m. Speed=28.188000m/h.</desc>
<speed>7.830000</speed>
</trkpt>
<trkpt lat="44.621857" lon="33.738960">
<ele>177.427856</ele>
<time>2011-10-11T09:00:03Z</time>
<desc>lat.=44.621857, lon.=33.738960, Alt.=177.427856m. Speed=35.028000m/h.</desc>
<speed>9.730000</speed>
</trkpt>
<trkpt lat="44.622250" lon="33.739372">
<ele>177.201294</ele>
<time>2011-10-11T09:00:08Z</time>
<desc>lat.=44.622250, lon.=33.739372, Alt.=177.201294m. Speed=39.240002m/h.</desc>
<speed>10.900000</speed>
</trkpt>
<trkpt lat="44.622711" lon="33.739803">
<ele>176.322388</ele>
<time>2011-10-11T09:00:13Z</time>
<desc>lat.=44.622711, lon.=33.739803, Alt.=176.322388m. Speed=43.776001m/h.</desc>
<speed>12.160000</speed>
</trkpt>
<trkpt lat="44.623158" lon="33.740040">
<ele>176.302856</ele>
<time>2011-10-11T09:00:18Z</time>
<desc>lat.=44.623158, lon.=33.740040, Alt.=176.302856m. Speed=37.296001m/h.</desc>
<speed>10.360000</speed>
</trkpt>
<trkpt lat="44.623547" lon="33.740265">
<ele>175.814575</ele>
<time>2011-10-11T09:00:23Z</time>
<desc>lat.=44.623547, lon.=33.740265, Alt.=175.814575m. Speed=29.052000m/h.</desc>
<speed>8.070000</speed>
</trkpt>
<trkpt lat="44.623783" lon="33.740444">
<ele>175.775513</ele>
<time>2011-10-11T09:00:28Z</time>
<desc>lat.=44.623783, lon.=33.740444, Alt.=175.775513m. Speed=12.960000m/h.</desc>
<speed>3.600000</speed>
</trkpt>
<trkpt lat="44.623898" lon="33.740517">
<ele>176.595825</ele>
<time>2011-10-11T09:00:33Z</time>
<desc>lat.=44.623898, lon.=33.740517, Alt.=176.595825m. Speed=11.772000m/h.</desc>
<speed>3.270000</speed>
</trkpt>
<trkpt lat="44.624020" lon="33.740814">
<ele>176.545044</ele>
<time>2011-10-11T09:00:38Z</time>
<desc>lat.=44.624020, lon.=33.740814, Alt.=176.545044m. Speed=20.771999m/h.</desc>
<speed>5.770000</speed>
</trkpt>
<trkpt lat="44.624104" lon="33.741207">
<ele>176.865356</ele>
<time>2011-10-11T09:00:43Z</time>
<desc>lat.=44.624104, lon.=33.741207, Alt.=176.865356m. Speed=27.035999m/h.</desc>
<speed>7.510000</speed>
</trkpt>
<trkpt lat="44.624176" lon="33.741722">
<ele>177.295044</ele>
<time>2011-10-11T09:00:48Z</time>
<desc>lat.=44.624176, lon.=33.741722, Alt.=177.295044m. Speed=30.851999m/h.</desc>
<speed>8.570000</speed>
</trkpt>
<trkpt lat="44.624252" lon="33.742310">
<ele>177.709106</ele>
<time>2011-10-11T09:00:53Z</time>
<desc>lat.=44.624252, lon.=33.742310, Alt.=177.709106m. Speed=37.188000m/h.</desc>
<speed>10.330000</speed>
</trkpt>
<trkpt lat="44.624313" lon="33.742966">
<ele>177.744263</ele>
<time>2011-10-11T09:00:58Z</time>
<desc>lat.=44.624313, lon.=33.742966, Alt.=177.744263m. Speed=35.964001m/h.</desc>
<speed>9.990000</speed>
</trkpt>
<trkpt lat="44.624355" lon="33.743538">
<ele>177.869263</ele>
<time>2011-10-11T09:01:03Z</time>
<desc>lat.=44.624355, lon.=33.743538, Alt.=177.869263m. Speed=29.844000m/h.</desc>
<speed>8.290000</speed>
</trkpt>
<trkpt lat="44.624485" lon="33.744057">
<ele>177.681763</ele>
<time>2011-10-11T09:01:08Z</time>
<desc>lat.=44.624485, lon.=33.744057, Alt.=177.681763m. Speed=24.480000m/h.</desc>
<speed>6.800000</speed>
</trkpt>
<trkpt lat="44.624641" lon="33.744259">
<ele>177.638794</ele>
<time>2011-10-11T09:01:13Z</time>
<desc>lat.=44.624641, lon.=33.744259, Alt.=177.638794m. Speed=13.572000m/h.</desc>
<speed>3.770000</speed>
</trkpt>
<trkpt lat="44.624702" lon="33.744511">
<ele>176.888794</ele>
<time>2011-10-11T09:01:18Z</time>
<desc>lat.=44.624702, lon.=33.744511, Alt.=176.888794m. Speed=17.604000m/h.</desc>
<speed>4.890000</speed>
</trkpt>
<trkpt lat="44.624748" lon="33.744785">
<ele>176.463013</ele>
<time>2011-10-11T09:01:23Z</time>
<desc>lat.=44.624748, lon.=33.744785, Alt.=176.463013m. Speed=16.704000m/h.</desc>
<speed>4.640000</speed>
</trkpt>
<trkpt lat="44.624756" lon="33.745068">
<ele>176.541138</ele>
<time>2011-10-11T09:01:28Z</time>
<desc>lat.=44.624756, lon.=33.745068, Alt.=176.541138m. Speed=17.532000m/h.</desc>
<speed>4.870000</speed>
</trkpt>
<trkpt lat="44.624702" lon="33.745388">
<ele>176.619263</ele>
<time>2011-10-11T09:01:33Z</time>
<desc>lat.=44.624702, lon.=33.745388, Alt.=176.619263m. Speed=18.035999m/h.</desc>
<speed>5.010000</speed>
</trkpt>
<trkpt lat="44.624733" lon="33.745686">
<ele>176.732544</ele>
<time>2011-10-11T09:01:38Z</time>
<desc>lat.=44.624733, lon.=33.745686, Alt.=176.732544m. Speed=19.620001m/h.</desc>
<speed>5.450000</speed>
</trkpt>
<trkpt lat="44.624828" lon="33.745865">
<ele>176.607544</ele>
<time>2011-10-11T09:01:43Z</time>
<desc>lat.=44.624828, lon.=33.745865, Alt.=176.607544m. Speed=7.092000m/h.</desc>
<speed>1.970000</speed>
</trkpt>
<trkpt lat="44.624886" lon="33.745949">
<ele>176.451294</ele>
<time>2011-10-11T09:01:48Z</time>
<desc>lat.=44.624886, lon.=33.745949, Alt.=176.451294m. Speed=8.316000m/h.</desc>
<speed>2.310000</speed>
</trkpt>
<trkpt lat="44.625015" lon="33.746117">
<ele>176.228638</ele>
<time>2011-10-11T09:01:53Z</time>
<desc>lat.=44.625015, lon.=33.746117, Alt.=176.228638m. Speed=15.912000m/h.</desc>
<speed>4.420000</speed>
</trkpt>
<trkpt lat="44.625210" lon="33.746387">
<ele>176.486450</ele>
<time>2011-10-11T09:01:58Z</time>
<desc>lat.=44.625210, lon.=33.746387, Alt.=176.486450m. Speed=23.076000m/h.</desc>
<speed>6.410000</speed>
</trkpt>
<trkpt lat="44.625340" lon="33.746639">
<ele>176.517700</ele>
<time>2011-10-11T09:02:03Z</time>
<desc>lat.=44.625340, lon.=33.746639, Alt.=176.517700m. Speed=11.844000m/h.</desc>
<speed>3.290000</speed>
</trkpt>
<trkpt lat="44.625427" lon="33.746803">
<ele>176.677856</ele>
<time>2011-10-11T09:02:08Z</time>
<desc>lat.=44.625427, lon.=33.746803, Alt.=176.677856m. Speed=10.224000m/h.</desc>
<speed>2.840000</speed>
</trkpt>
<trkpt lat="44.625523" lon="33.746998">
<ele>176.666138</ele>
<time>2011-10-11T09:02:13Z</time>
<desc>lat.=44.625523, lon.=33.746998, Alt.=176.666138m. Speed=12.204000m/h.</desc>
<speed>3.390000</speed>
</trkpt>
<trkpt lat="44.625607" lon="33.747177">
<ele>176.826294</ele>
<time>2011-10-11T09:02:18Z</time>
<desc>lat.=44.625607, lon.=33.747177, Alt.=176.826294m. Speed=15.768000m/h.</desc>
<speed>4.380000</speed>
</trkpt>
<trkpt lat="44.625690" lon="33.747391">
<ele>177.115356</ele>
<time>2011-10-11T09:02:23Z</time>
<desc>lat.=44.625690, lon.=33.747391, Alt.=177.115356m. Speed=13.320000m/h.</desc>
<speed>3.700000</speed>
</trkpt>
<trkpt lat="44.625805" lon="33.747581">
<ele>177.255981</ele>
<time>2011-10-11T09:02:28Z</time>
<desc>lat.=44.625805, lon.=33.747581, Alt.=177.255981m. Speed=16.416000m/h.</desc>
<speed>4.560000</speed>
</trkpt>
<trkpt lat="44.625896" lon="33.747753">
<ele>177.216919</ele>
<time>2011-10-11T09:02:33Z</time>
<desc>lat.=44.625896, lon.=33.747753, Alt.=177.216919m. Speed=9.252000m/h.</desc>
<speed>2.570000</speed>
</trkpt>
<trkpt lat="44.625984" lon="33.747856">
<ele>176.880981</ele>
<time>2011-10-11T09:02:38Z</time>
<desc>lat.=44.625984, lon.=33.747856, Alt.=176.880981m. Speed=12.024000m/h.</desc>
<speed>3.340000</speed>
</trkpt>
<trkpt lat="44.626057" lon="33.747978">
<ele>176.517700</ele>
<time>2011-10-11T09:02:43Z</time>
<desc>lat.=44.626057, lon.=33.747978, Alt.=176.517700m. Speed=5.832000m/h.</desc>
<speed>1.620000</speed>
</trkpt>
<trkpt lat="44.626102" lon="33.748074">
<ele>176.380981</ele>
<time>2011-10-11T09:02:48Z</time>
<desc>lat.=44.626102, lon.=33.748074, Alt.=176.380981m. Speed=5.688000m/h.</desc>
<speed>1.580000</speed>
</trkpt>
<trkpt lat="44.626167" lon="33.748173">
<ele>176.560669</ele>
<time>2011-10-11T09:02:53Z</time>
<desc>lat.=44.626167, lon.=33.748173, Alt.=176.560669m. Speed=8.280000m/h.</desc>
<speed>2.300000</speed>
</trkpt>
<trkpt lat="44.626221" lon="33.748295">
<ele>176.623169</ele>
<time>2011-10-11T09:02:58Z</time>
<desc>lat.=44.626221, lon.=33.748295, Alt.=176.623169m. Speed=7.704000m/h.</desc>
<speed>2.140000</speed>
</trkpt>
<trkpt lat="44.626270" lon="33.748466">
<ele>176.439575</ele>
<time>2011-10-11T09:03:03Z</time>
<desc>lat.=44.626270, lon.=33.748466, Alt.=176.439575m. Speed=11.700000m/h.</desc>
<speed>3.250000</speed>
</trkpt>
<trkpt lat="44.626358" lon="33.748619">
<ele>176.619263</ele>
<time>2011-10-11T09:03:08Z</time>
<desc>lat.=44.626358, lon.=33.748619, Alt.=176.619263m. Speed=9.684000m/h.</desc>
<speed>2.690000</speed>
</trkpt>
<trkpt lat="44.626419" lon="33.748791">
<ele>176.963013</ele>
<time>2011-10-11T09:03:13Z</time>
<desc>lat.=44.626419, lon.=33.748791, Alt.=176.963013m. Speed=13.248000m/h.</desc>
<speed>3.680000</speed>
</trkpt>
<trkpt lat="44.626465" lon="33.748936">
<ele>177.255981</ele>
<time>2011-10-11T09:03:18Z</time>
<desc>lat.=44.626465, lon.=33.748936, Alt.=177.255981m. Speed=8.316000m/h.</desc>
<speed>2.310000</speed>
</trkpt>
<trkpt lat="44.626549" lon="33.749111">
<ele>177.818481</ele>
<time>2011-10-11T09:03:23Z</time>
<desc>lat.=44.626549, lon.=33.749111, Alt.=177.818481m. Speed=10.800000m/h.</desc>
<speed>3.000000</speed>
</trkpt>
<trkpt lat="44.626606" lon="33.749317">
<ele>178.685669</ele>
<time>2011-10-11T09:03:28Z</time>
<desc>lat.=44.626606, lon.=33.749317, Alt.=178.685669m. Speed=12.924000m/h.</desc>
<speed>3.590000</speed>
</trkpt>
<trkpt lat="44.626732" lon="33.749557">
<ele>179.373169</ele>
<time>2011-10-11T09:03:33Z</time>
<desc>lat.=44.626732, lon.=33.749557, Alt.=179.373169m. Speed=17.280001m/h.</desc>
<speed>4.800000</speed>
</trkpt>
<trkpt lat="44.626919" lon="33.749866">
<ele>180.064575</ele>
<time>2011-10-11T09:03:38Z</time>
<desc>lat.=44.626919, lon.=33.749866, Alt.=180.064575m. Speed=23.219999m/h.</desc>
<speed>6.450000</speed>
</trkpt>
<trkpt lat="44.627098" lon="33.750225">
<ele>180.431763</ele>
<time>2011-10-11T09:03:43Z</time>
<desc>lat.=44.627098, lon.=33.750225, Alt.=180.431763m. Speed=26.316000m/h.</desc>
<speed>7.310000</speed>
</trkpt>
<trkpt lat="44.627266" lon="33.750595">
<ele>180.838013</ele>
<time>2011-10-11T09:03:48Z</time>
<desc>lat.=44.627266, lon.=33.750595, Alt.=180.838013m. Speed=27.864000m/h.</desc>
<speed>7.740000</speed>
</trkpt>
<trkpt lat="44.627445" lon="33.750973">
<ele>182.474731</ele>
<time>2011-10-11T09:03:53Z</time>
<desc>lat.=44.627445, lon.=33.750973, Alt.=182.474731m. Speed=23.112000m/h.</desc>
<speed>6.420000</speed>
</trkpt>
<trkpt lat="44.627594" lon="33.751270">
<ele>183.416138</ele>
<time>2011-10-11T09:03:58Z</time>
<desc>lat.=44.627594, lon.=33.751270, Alt.=183.416138m. Speed=18.684000m/h.</desc>
<speed>5.190000</speed>
</trkpt>
<trkpt lat="44.627754" lon="33.751495">
<ele>183.634888</ele>
<time>2011-10-11T09:04:03Z</time>
<desc>lat.=44.627754, lon.=33.751495, Alt.=183.634888m. Speed=18.035999m/h.</desc>
<speed>5.010000</speed>
</trkpt>
<trkpt lat="44.627888" lon="33.751808">
<ele>183.677856</ele>
<time>2011-10-11T09:04:08Z</time>
<desc>lat.=44.627888, lon.=33.751808, Alt.=183.677856m. Speed=23.076000m/h.</desc>
<speed>6.410000</speed>
</trkpt>
<trkpt lat="44.628075" lon="33.752239">
<ele>183.451294</ele>
<time>2011-10-11T09:04:13Z</time>
<desc>lat.=44.628075, lon.=33.752239, Alt.=183.451294m. Speed=26.208000m/h.</desc>
<speed>7.280000</speed>
</trkpt>
<trkpt lat="44.628273" lon="33.752590">
<ele>183.009888</ele>
<time>2011-10-11T09:04:18Z</time>
<desc>lat.=44.628273, lon.=33.752590, Alt.=183.009888m. Speed=23.652000m/h.</desc>
<speed>6.570000</speed>
</trkpt>
<trkpt lat="44.628483" lon="33.752918">
<ele>183.138794</ele>
<time>2011-10-11T09:04:23Z</time>
<desc>lat.=44.628483, lon.=33.752918, Alt.=183.138794m. Speed=25.488001m/h.</desc>
<speed>7.080000</speed>
</trkpt>
<trkpt lat="44.628723" lon="33.753265">
<ele>182.783325</ele>
<time>2011-10-11T09:04:28Z</time>
<desc>lat.=44.628723, lon.=33.753265, Alt.=182.783325m. Speed=28.368000m/h.</desc>
<speed>7.880000</speed>
</trkpt>
<trkpt lat="44.628929" lon="33.753571">
<ele>182.982544</ele>
<time>2011-10-11T09:04:33Z</time>
<desc>lat.=44.628929, lon.=33.753571, Alt.=182.982544m. Speed=22.392000m/h.</desc>
<speed>6.220000</speed>
</trkpt>
<trkpt lat="44.629120" lon="33.753807">
<ele>184.361450</ele>
<time>2011-10-11T09:04:38Z</time>
<desc>lat.=44.629120, lon.=33.753807, Alt.=184.361450m. Speed=22.464001m/h.</desc>
<speed>6.240000</speed>
</trkpt>
<trkpt lat="44.629314" lon="33.754097">
<ele>183.166138</ele>
<time>2011-10-11T09:04:43Z</time>
<desc>lat.=44.629314, lon.=33.754097, Alt.=183.166138m. Speed=26.280001m/h.</desc>
<speed>7.300000</speed>
</trkpt>
<trkpt lat="44.629559" lon="33.754486">
<ele>185.713013</ele>
<time>2011-10-11T09:04:48Z</time>
<desc>lat.=44.629559, lon.=33.754486, Alt.=185.713013m. Speed=31.247999m/h.</desc>
<speed>8.680000</speed>
</trkpt>
<trkpt lat="44.629826" lon="33.754845">
<ele>186.763794</ele>
<time>2011-10-11T09:04:53Z</time>
<desc>lat.=44.629826, lon.=33.754845, Alt.=186.763794m. Speed=27.216000m/h.</desc>
<speed>7.560000</speed>
</trkpt>
<trkpt lat="44.630085" lon="33.755165">
<ele>185.736450</ele>
<time>2011-10-11T09:04:58Z</time>
<desc>lat.=44.630085, lon.=33.755165, Alt.=185.736450m. Speed=29.736000m/h.</desc>
<speed>8.260000</speed>
</trkpt>
<trkpt lat="44.630337" lon="33.755527">
<ele>184.459106</ele>
<time>2011-10-11T09:05:03Z</time>
<desc>lat.=44.630337, lon.=33.755527, Alt.=184.459106m. Speed=27.719999m/h.</desc>
<speed>7.700000</speed>
</trkpt>
<trkpt lat="44.630512" lon="33.755890">
<ele>184.154419</ele>
<time>2011-10-11T09:05:08Z</time>
<desc>lat.=44.630512, lon.=33.755890, Alt.=184.154419m. Speed=20.736000m/h.</desc>
<speed>5.760000</speed>
</trkpt>
<trkpt lat="44.630600" lon="33.756199">
<ele>182.416138</ele>
<time>2011-10-11T09:05:13Z</time>
<desc>lat.=44.630600, lon.=33.756199, Alt.=182.416138m. Speed=19.260000m/h.</desc>
<speed>5.350000</speed>
</trkpt>
<trkpt lat="44.630672" lon="33.756485">
<ele>180.584106</ele>
<time>2011-10-11T09:05:18Z</time>
<desc>lat.=44.630672, lon.=33.756485, Alt.=180.584106m. Speed=14.400000m/h.</desc>
<speed>4.000000</speed>
</trkpt>
<trkpt lat="44.630764" lon="33.756733">
<ele>178.287231</ele>
<time>2011-10-11T09:05:23Z</time>
<desc>lat.=44.630764, lon.=33.756733, Alt.=178.287231m. Speed=15.912000m/h.</desc>
<speed>4.420000</speed>
</trkpt>
<trkpt lat="44.630890" lon="33.757030">
<ele>177.724731</ele>
<time>2011-10-11T09:05:28Z</time>
<desc>lat.=44.630890, lon.=33.757030, Alt.=177.724731m. Speed=22.176001m/h.</desc>
<speed>6.160000</speed>
</trkpt>
<trkpt lat="44.631039" lon="33.757366">
<ele>178.209106</ele>
<time>2011-10-11T09:05:33Z</time>
<desc>lat.=44.631039, lon.=33.757366, Alt.=178.209106m. Speed=22.392000m/h.</desc>
<speed>6.220000</speed>
</trkpt>
<trkpt lat="44.631142" lon="33.757771">
<ele>179.009888</ele>
<time>2011-10-11T09:05:38Z</time>
<desc>lat.=44.631142, lon.=33.757771, Alt.=179.009888m. Speed=23.724001m/h.</desc>
<speed>6.590000</speed>
</trkpt>
<trkpt lat="44.631302" lon="33.758087">
<ele>180.181763</ele>
<time>2011-10-11T09:05:43Z</time>
<desc>lat.=44.631302, lon.=33.758087, Alt.=180.181763m. Speed=26.028000m/h.</desc>
<speed>7.230000</speed>
</trkpt>
<trkpt lat="44.631531" lon="33.758358">
<ele>180.334106</ele>
<time>2011-10-11T09:05:48Z</time>
<desc>lat.=44.631531, lon.=33.758358, Alt.=180.334106m. Speed=26.424000m/h.</desc>
<speed>7.340000</speed>
</trkpt>
<trkpt lat="44.631729" lon="33.758774">
<ele>176.412231</ele>
<time>2011-10-11T09:05:53Z</time>
<desc>lat.=44.631729, lon.=33.758774, Alt.=176.412231m. Speed=30.384001m/h.</desc>
<speed>8.440000</speed>
</trkpt>
<trkpt lat="44.631920" lon="33.759148">
<ele>173.646606</ele>
<time>2011-10-11T09:05:58Z</time>
<desc>lat.=44.631920, lon.=33.759148, Alt.=173.646606m. Speed=17.712000m/h.</desc>
<speed>4.920000</speed>
</trkpt>
<trkpt lat="44.632080" lon="33.759430">
<ele>172.220825</ele>
<time>2011-10-11T09:06:03Z</time>
<desc>lat.=44.632080, lon.=33.759430, Alt.=172.220825m. Speed=22.320000m/h.</desc>
<speed>6.200000</speed>
</trkpt>
<trkpt lat="44.632328" lon="33.759743">
<ele>171.771606</ele>
<time>2011-10-11T09:06:08Z</time>
<desc>lat.=44.632328, lon.=33.759743, Alt.=171.771606m. Speed=28.152000m/h.</desc>
<speed>7.820000</speed>
</trkpt>
<trkpt lat="44.632591" lon="33.760136">
<ele>170.767700</ele>
<time>2011-10-11T09:06:13Z</time>
<desc>lat.=44.632591, lon.=33.760136, Alt.=170.767700m. Speed=31.104000m/h.</desc>
<speed>8.640000</speed>
</trkpt>
<trkpt lat="44.632866" lon="33.760578">
<ele>170.291138</ele>
<time>2011-10-11T09:06:18Z</time>
<desc>lat.=44.632866, lon.=33.760578, Alt.=170.291138m. Speed=33.731998m/h.</desc>
<speed>9.370000</speed>
</trkpt>
<trkpt lat="44.633137" lon="33.761013">
<ele>168.314575</ele>
<time>2011-10-11T09:06:23Z</time>
<desc>lat.=44.633137, lon.=33.761013, Alt.=168.314575m. Speed=28.799999m/h.</desc>
<speed>8.000000</speed>
</trkpt>
<trkpt lat="44.633385" lon="33.761440">
<ele>165.509888</ele>
<time>2011-10-11T09:06:28Z</time>
<desc>lat.=44.633385, lon.=33.761440, Alt.=165.509888m. Speed=30.708000m/h.</desc>
<speed>8.530000</speed>
</trkpt>
<trkpt lat="44.633514" lon="33.761948">
<ele>160.861450</ele>
<time>2011-10-11T09:06:33Z</time>
<desc>lat.=44.633514, lon.=33.761948, Alt.=160.861450m. Speed=28.728001m/h.</desc>
<speed>7.980000</speed>
</trkpt>
<trkpt lat="44.633648" lon="33.762383">
<ele>157.416138</ele>
<time>2011-10-11T09:06:38Z</time>
<desc>lat.=44.633648, lon.=33.762383, Alt.=157.416138m. Speed=20.448000m/h.</desc>
<speed>5.680000</speed>
</trkpt>
<trkpt lat="44.633728" lon="33.762623">
<ele>155.658325</ele>
<time>2011-10-11T09:06:43Z</time>
<desc>lat.=44.633728, lon.=33.762623, Alt.=155.658325m. Speed=12.960000m/h.</desc>
<speed>3.600000</speed>
</trkpt>
<trkpt lat="44.633793" lon="33.763004">
<ele>155.611450</ele>
<time>2011-10-11T09:06:48Z</time>
<desc>lat.=44.633793, lon.=33.763004, Alt.=155.611450m. Speed=27.288000m/h.</desc>
<speed>7.580000</speed>
</trkpt>
<trkpt lat="44.633770" lon="33.763454">
<ele>155.748169</ele>
<time>2011-10-11T09:06:53Z</time>
<desc>lat.=44.633770, lon.=33.763454, Alt.=155.748169m. Speed=21.672001m/h.</desc>
<speed>6.020000</speed>
</trkpt>
<trkpt lat="44.633694" lon="33.763691">
<ele>153.920044</ele>
<time>2011-10-11T09:06:58Z</time>
<desc>lat.=44.633694, lon.=33.763691, Alt.=153.920044m. Speed=7.308000m/h.</desc>
<speed>2.030000</speed>
</trkpt>
<trkpt lat="44.633644" lon="33.763809">
<ele>155.259888</ele>
<time>2011-10-11T09:07:03Z</time>
<desc>lat.=44.633644, lon.=33.763809, Alt.=155.259888m. Speed=8.748000m/h.</desc>
<speed>2.430000</speed>
</trkpt>
<trkpt lat="44.633614" lon="33.763908">
<ele>155.767700</ele>
<time>2011-10-11T09:07:08Z</time>
<desc>lat.=44.633614, lon.=33.763908, Alt.=155.767700m. Speed=6.768000m/h.</desc>
<speed>1.880000</speed>
</trkpt>
<trkpt lat="44.633579" lon="33.763985">
<ele>157.826294</ele>
<time>2011-10-11T09:07:13Z</time>
<desc>lat.=44.633579, lon.=33.763985, Alt.=157.826294m. Speed=5.148000m/h.</desc>
<speed>1.430000</speed>
</trkpt>
<trkpt lat="44.633507" lon="33.764103">
<ele>158.369263</ele>
<time>2011-10-11T09:07:18Z</time>
<desc>lat.=44.633507, lon.=33.764103, Alt.=158.369263m. Speed=10.944000m/h.</desc>
<speed>3.040000</speed>
</trkpt>
<trkpt lat="44.633396" lon="33.764278">
<ele>160.744263</ele>
<time>2011-10-11T09:07:23Z</time>
<desc>lat.=44.633396, lon.=33.764278, Alt.=160.744263m. Speed=13.644000m/h.</desc>
<speed>3.790000</speed>
</trkpt>
<trkpt lat="44.633331" lon="33.764530">
<ele>161.759888</ele>
<time>2011-10-11T09:07:28Z</time>
<desc>lat.=44.633331, lon.=33.764530, Alt.=161.759888m. Speed=18.000000m/h.</desc>
<speed>5.000000</speed>
</trkpt>
<trkpt lat="44.633377" lon="33.764969">
<ele>161.720825</ele>
<time>2011-10-11T09:07:33Z</time>
<desc>lat.=44.633377, lon.=33.764969, Alt.=161.720825m. Speed=25.056000m/h.</desc>
<speed>6.960000</speed>
</trkpt>
<trkpt lat="44.633484" lon="33.765434">
<ele>159.431763</ele>
<time>2011-10-11T09:07:38Z</time>
<desc>lat.=44.633484, lon.=33.765434, Alt.=159.431763m. Speed=24.048000m/h.</desc>
<speed>6.680000</speed>
</trkpt>
<trkpt lat="44.633705" lon="33.765808">
<ele>160.107544</ele>
<time>2011-10-11T09:07:43Z</time>
<desc>lat.=44.633705, lon.=33.765808, Alt.=160.107544m. Speed=30.600000m/h.</desc>
<speed>8.500000</speed>
</trkpt>
<trkpt lat="44.633972" lon="33.766224">
<ele>158.177856</ele>
<time>2011-10-11T09:07:48Z</time>
<desc>lat.=44.633972, lon.=33.766224, Alt.=158.177856m. Speed=32.472000m/h.</desc>
<speed>9.020000</speed>
</trkpt>
<trkpt lat="44.634197" lon="33.766663">
<ele>154.939575</ele>
<time>2011-10-11T09:07:53Z</time>
<desc>lat.=44.634197, lon.=33.766663, Alt.=154.939575m. Speed=22.752001m/h.</desc>
<speed>6.320000</speed>
</trkpt>
<trkpt lat="44.634254" lon="33.766922">
<ele>150.709106</ele>
<time>2011-10-11T09:07:58Z</time>
<desc>lat.=44.634254, lon.=33.766922, Alt.=150.709106m. Speed=9.972000m/h.</desc>
<speed>2.770000</speed>
</trkpt>
<trkpt lat="44.634335" lon="33.767105">
<ele>149.209106</ele>
<time>2011-10-11T09:08:03Z</time>
<desc>lat.=44.634335, lon.=33.767105, Alt.=149.209106m. Speed=11.448000m/h.</desc>
<speed>3.180000</speed>
</trkpt>
<trkpt lat="44.634399" lon="33.767330">
<ele>150.021606</ele>
<time>2011-10-11T09:08:08Z</time>
<desc>lat.=44.634399, lon.=33.767330, Alt.=150.021606m. Speed=13.428000m/h.</desc>
<speed>3.730000</speed>
</trkpt>
<trkpt lat="44.634422" lon="33.767502">
<ele>150.474731</ele>
<time>2011-10-11T09:08:13Z</time>
<desc>lat.=44.634422, lon.=33.767502, Alt.=150.474731m. Speed=8.064000m/h.</desc>
<speed>2.240000</speed>
</trkpt>
<trkpt lat="44.634438" lon="33.767677">
<ele>151.295044</ele>
<time>2011-10-11T09:08:18Z</time>
<desc>lat.=44.634438, lon.=33.767677, Alt.=151.295044m. Speed=6.912000m/h.</desc>
<speed>1.920000</speed>
</trkpt>
<trkpt lat="44.634460" lon="33.767864">
<ele>155.443481</ele>
<time>2011-10-11T09:08:23Z</time>
<desc>lat.=44.634460, lon.=33.767864, Alt.=155.443481m. Speed=12.240000m/h.</desc>
<speed>3.400000</speed>
</trkpt>
<trkpt lat="44.634567" lon="33.768013">
<ele>156.744263</ele>
<time>2011-10-11T09:08:28Z</time>
<desc>lat.=44.634567, lon.=33.768013, Alt.=156.744263m. Speed=16.091999m/h.</desc>
<speed>4.470000</speed>
</trkpt>
<trkpt lat="44.634705" lon="33.768265">
<ele>156.330200</ele>
<time>2011-10-11T09:08:33Z</time>
<desc>lat.=44.634705, lon.=33.768265, Alt.=156.330200m. Speed=18.540001m/h.</desc>
<speed>5.150000</speed>
</trkpt>
<trkpt lat="44.634800" lon="33.768501">
<ele>157.947388</ele>
<time>2011-10-11T09:08:38Z</time>
<desc>lat.=44.634800, lon.=33.768501, Alt.=157.947388m. Speed=16.920000m/h.</desc>
<speed>4.700000</speed>
</trkpt>
<trkpt lat="44.634972" lon="33.768730">
<ele>159.009888</ele>
<time>2011-10-11T09:08:43Z</time>
<desc>lat.=44.634972, lon.=33.768730, Alt.=159.009888m. Speed=21.743999m/h.</desc>
<speed>6.040000</speed>
</trkpt>
<trkpt lat="44.635075" lon="33.769184">
<ele>159.677856</ele>
<time>2011-10-11T09:08:48Z</time>
<desc>lat.=44.635075, lon.=33.769184, Alt.=159.677856m. Speed=31.284000m/h.</desc>
<speed>8.690000</speed>
</trkpt>
<trkpt lat="44.635170" lon="33.769779">
<ele>159.970825</ele>
<time>2011-10-11T09:08:53Z</time>
<desc>lat.=44.635170, lon.=33.769779, Alt.=159.970825m. Speed=34.307999m/h.</desc>
<speed>9.530000</speed>
</trkpt>
<trkpt lat="44.635208" lon="33.770382">
<ele>161.080200</ele>
<time>2011-10-11T09:08:58Z</time>
<desc>lat.=44.635208, lon.=33.770382, Alt.=161.080200m. Speed=33.299999m/h.</desc>
<speed>9.250000</speed>
</trkpt>
<trkpt lat="44.635159" lon="33.770920">
<ele>161.630981</ele>
<time>2011-10-11T09:09:03Z</time>
<desc>lat.=44.635159, lon.=33.770920, Alt.=161.630981m. Speed=29.771999m/h.</desc>
<speed>8.270000</speed>
</trkpt>
<trkpt lat="44.635128" lon="33.771450">
<ele>163.185669</ele>
<time>2011-10-11T09:09:08Z</time>
<desc>lat.=44.635128, lon.=33.771450, Alt.=163.185669m. Speed=27.719999m/h.</desc>
<speed>7.700000</speed>
</trkpt>
<trkpt lat="44.635178" lon="33.771759">
<ele>162.603638</ele>
<time>2011-10-11T09:09:13Z</time>
<desc>lat.=44.635178, lon.=33.771759, Alt.=162.603638m. Speed=8.856000m/h.</desc>
<speed>2.460000</speed>
</trkpt>
<trkpt lat="44.635139" lon="33.771862">
<ele>161.713013</ele>
<time>2011-10-11T09:09:18Z</time>
<desc>lat.=44.635139, lon.=33.771862, Alt.=161.713013m. Speed=11.700000m/h.</desc>
<speed>3.250000</speed>
</trkpt>
<trkpt lat="44.635139" lon="33.772079">
<ele>163.505981</ele>
<time>2011-10-11T09:09:23Z</time>
<desc>lat.=44.635139, lon.=33.772079, Alt.=163.505981m. Speed=13.176000m/h.</desc>
<speed>3.660000</speed>
</trkpt>
<trkpt lat="44.635170" lon="33.772308">
<ele>163.728638</ele>
<time>2011-10-11T09:09:28Z</time>
<desc>lat.=44.635170, lon.=33.772308, Alt.=163.728638m. Speed=13.608000m/h.</desc>
<speed>3.780000</speed>
</trkpt>
<trkpt lat="44.635178" lon="33.772678">
<ele>160.599731</ele>
<time>2011-10-11T09:09:33Z</time>
<desc>lat.=44.635178, lon.=33.772678, Alt.=160.599731m. Speed=24.948000m/h.</desc>
<speed>6.930000</speed>
</trkpt>
<trkpt lat="44.635170" lon="33.773102">
<ele>156.189575</ele>
<time>2011-10-11T09:09:38Z</time>
<desc>lat.=44.635170, lon.=33.773102, Alt.=156.189575m. Speed=22.500000m/h.</desc>
<speed>6.250000</speed>
</trkpt>
<trkpt lat="44.635113" lon="33.773350">
<ele>152.314575</ele>
<time>2011-10-11T09:09:43Z</time>
<desc>lat.=44.635113, lon.=33.773350, Alt.=152.314575m. Speed=6.984000m/h.</desc>
<speed>1.940000</speed>
</trkpt>
<trkpt lat="44.635193" lon="33.773624">
<ele>149.521606</ele>
<time>2011-10-11T09:09:48Z</time>
<desc>lat.=44.635193, lon.=33.773624, Alt.=149.521606m. Speed=24.983999m/h.</desc>
<speed>6.940000</speed>
</trkpt>
<trkpt lat="44.635284" lon="33.774181">
<ele>146.267700</ele>
<time>2011-10-11T09:09:53Z</time>
<desc>lat.=44.635284, lon.=33.774181, Alt.=146.267700m. Speed=37.980000m/h.</desc>
<speed>10.550000</speed>
</trkpt>
<trkpt lat="44.635456" lon="33.774818">
<ele>143.201294</ele>
<time>2011-10-11T09:09:58Z</time>
<desc>lat.=44.635456, lon.=33.774818, Alt.=143.201294m. Speed=40.608002m/h.</desc>
<speed>11.280000</speed>
</trkpt>
<trkpt lat="44.635715" lon="33.775436">
<ele>144.572388</ele>
<time>2011-10-11T09:10:03Z</time>
<desc>lat.=44.635715, lon.=33.775436, Alt.=144.572388m. Speed=41.112000m/h.</desc>
<speed>11.420000</speed>
</trkpt>
<trkpt lat="44.636078" lon="33.775997">
<ele>145.588013</ele>
<time>2011-10-11T09:10:08Z</time>
<desc>lat.=44.636078, lon.=33.775997, Alt.=145.588013m. Speed=44.028000m/h.</desc>
<speed>12.230000</speed>
</trkpt>
<trkpt lat="44.636456" lon="33.776508">
<ele>144.966919</ele>
<time>2011-10-11T09:10:13Z</time>
<desc>lat.=44.636456, lon.=33.776508, Alt.=144.966919m. Speed=42.804001m/h.</desc>
<speed>11.890000</speed>
</trkpt>
<trkpt lat="44.636898" lon="33.776917">
<ele>144.224731</ele>
<time>2011-10-11T09:10:18Z</time>
<desc>lat.=44.636898, lon.=33.776917, Alt.=144.224731m. Speed=44.820000m/h.</desc>
<speed>12.450000</speed>
</trkpt>
<trkpt lat="44.637329" lon="33.777386">
<ele>143.162231</ele>
<time>2011-10-11T09:10:23Z</time>
<desc>lat.=44.637329, lon.=33.777386, Alt.=143.162231m. Speed=46.188000m/h.</desc>
<speed>12.830000</speed>
</trkpt>
<trkpt lat="44.637676" lon="33.777859">
<ele>143.162231</ele>
<time>2011-10-11T09:10:28Z</time>
<desc>lat.=44.637676, lon.=33.777859, Alt.=143.162231m. Speed=36.827999m/h.</desc>
<speed>10.230000</speed>
</trkpt>
<trkpt lat="44.638054" lon="33.778328">
<ele>142.130981</ele>
<time>2011-10-11T09:10:33Z</time>
<desc>lat.=44.638054, lon.=33.778328, Alt.=142.130981m. Speed=42.911999m/h.</desc>
<speed>11.920000</speed>
</trkpt>
<trkpt lat="44.638412" lon="33.778770">
<ele>142.841919</ele>
<time>2011-10-11T09:10:38Z</time>
<desc>lat.=44.638412, lon.=33.778770, Alt.=142.841919m. Speed=41.759998m/h.</desc>
<speed>11.600000</speed>
</trkpt>
<trkpt lat="44.638851" lon="33.779186">
<ele>145.705200</ele>
<time>2011-10-11T09:10:43Z</time>
<desc>lat.=44.638851, lon.=33.779186, Alt.=145.705200m. Speed=42.695999m/h.</desc>
<speed>11.860000</speed>
</trkpt>
<trkpt lat="44.639343" lon="33.779518">
<ele>144.838013</ele>
<time>2011-10-11T09:10:48Z</time>
<desc>lat.=44.639343, lon.=33.779518, Alt.=144.838013m. Speed=45.972000m/h.</desc>
<speed>12.770000</speed>
</trkpt>
<trkpt lat="44.639927" lon="33.779804">
<ele>142.134888</ele>
<time>2011-10-11T09:10:53Z</time>
<desc>lat.=44.639927, lon.=33.779804, Alt.=142.134888m. Speed=46.619999m/h.</desc>
<speed>12.950000</speed>
</trkpt>
<trkpt lat="44.640423" lon="33.780231">
<ele>141.990356</ele>
<time>2011-10-11T09:10:58Z</time>
<desc>lat.=44.640423, lon.=33.780231, Alt.=141.990356m. Speed=40.139999m/h.</desc>
<speed>11.150000</speed>
</trkpt>
<trkpt lat="44.640984" lon="33.780376">
<ele>139.748169</ele>
<time>2011-10-11T09:11:03Z</time>
<desc>lat.=44.640984, lon.=33.780376, Alt.=139.748169m. Speed=45.900002m/h.</desc>
<speed>12.750000</speed>
</trkpt>
<trkpt lat="44.641541" lon="33.780354">
<ele>136.947388</ele>
<time>2011-10-11T09:11:08Z</time>
<desc>lat.=44.641541, lon.=33.780354, Alt.=136.947388m. Speed=44.532001m/h.</desc>
<speed>12.370000</speed>
</trkpt>
<trkpt lat="44.642136" lon="33.780479">
<ele>132.798950</ele>
<time>2011-10-11T09:11:13Z</time>
<desc>lat.=44.642136, lon.=33.780479, Alt.=132.798950m. Speed=45.792000m/h.</desc>
<speed>12.720000</speed>
</trkpt>
<trkpt lat="44.642799" lon="33.780598">
<ele>130.220825</ele>
<time>2011-10-11T09:11:18Z</time>
<desc>lat.=44.642799, lon.=33.780598, Alt.=130.220825m. Speed=53.891998m/h.</desc>
<speed>14.970000</speed>
</trkpt>
<trkpt lat="44.643490" lon="33.780785">
<ele>123.299866</ele>
<time>2011-10-11T09:11:23Z</time>
<desc>lat.=44.643490, lon.=33.780785, Alt.=123.299866m. Speed=58.787998m/h.</desc>
<speed>16.329999</speed>
</trkpt>
<trkpt lat="44.644161" lon="33.781006">
<ele>118.008850</ele>
<time>2011-10-11T09:11:28Z</time>
<desc>lat.=44.644161, lon.=33.781006, Alt.=118.008850m. Speed=57.023998m/h.</desc>
<speed>15.840000</speed>
</trkpt>
<trkpt lat="44.644794" lon="33.781384">
<ele>115.395569</ele>
<time>2011-10-11T09:11:33Z</time>
<desc>lat.=44.644794, lon.=33.781384, Alt.=115.395569m. Speed=52.380001m/h.</desc>
<speed>14.550000</speed>
</trkpt>
<trkpt lat="44.645355" lon="33.781590">
<ele>114.002991</ele>
<time>2011-10-11T09:11:38Z</time>
<desc>lat.=44.645355, lon.=33.781590, Alt.=114.002991m. Speed=41.112000m/h.</desc>
<speed>11.420000</speed>
</trkpt>
<trkpt lat="44.645908" lon="33.781635">
<ele>108.952209</ele>
<time>2011-10-11T09:11:43Z</time>
<desc>lat.=44.645908, lon.=33.781635, Alt.=108.952209m. Speed=46.980000m/h.</desc>
<speed>13.050000</speed>
</trkpt>
<trkpt lat="44.646454" lon="33.781590">
<ele>106.317444</ele>
<time>2011-10-11T09:11:48Z</time>
<desc>lat.=44.646454, lon.=33.781590, Alt.=106.317444m. Speed=43.020000m/h.</desc>
<speed>11.950000</speed>
</trkpt>
<trkpt lat="44.646935" lon="33.781502">
<ele>104.338928</ele>
<time>2011-10-11T09:11:53Z</time>
<desc>lat.=44.646935, lon.=33.781502, Alt.=104.338928m. Speed=38.015999m/h.</desc>
<speed>10.560000</speed>
</trkpt>
<trkpt lat="44.647240" lon="33.781471">
<ele>103.602600</ele>
<time>2011-10-11T09:11:58Z</time>
<desc>lat.=44.647240, lon.=33.781471, Alt.=103.602600m. Speed=14.292000m/h.</desc>
<speed>3.970000</speed>
</trkpt>
<trkpt lat="44.647388" lon="33.781467">
<ele>102.801819</ele>
<time>2011-10-11T09:12:03Z</time>
<desc>lat.=44.647388, lon.=33.781467, Alt.=102.801819m. Speed=16.596001m/h.</desc>
<speed>4.610000</speed>
</trkpt>
<trkpt lat="44.647667" lon="33.781467">
<ele>100.542053</ele>
<time>2011-10-11T09:12:08Z</time>
<desc>lat.=44.647667, lon.=33.781467, Alt.=100.542053m. Speed=26.351999m/h.</desc>
<speed>7.320000</speed>
</trkpt>
<trkpt lat="44.647991" lon="33.781376">
<ele>97.577209</ele>
<time>2011-10-11T09:12:13Z</time>
<desc>lat.=44.647991, lon.=33.781376, Alt.=97.577209m. Speed=33.588001m/h.</desc>
<speed>9.330000</speed>
</trkpt>
<trkpt lat="44.648277" lon="33.781258">
<ele>100.002991</ele>
<time>2011-10-11T09:12:18Z</time>
<desc>lat.=44.648277, lon.=33.781258, Alt.=100.002991m. Speed=25.559999m/h.</desc>
<speed>7.100000</speed>
</trkpt>
<trkpt lat="44.648411" lon="33.781307">
<ele>107.889709</ele>
<time>2011-10-11T09:12:23Z</time>
<desc>lat.=44.648411, lon.=33.781307, Alt.=107.889709m. Speed=11.448000m/h.</desc>
<speed>3.180000</speed>
</trkpt>
<trkpt lat="44.648499" lon="33.781502">
<ele>110.960022</ele>
<time>2011-10-11T09:12:28Z</time>
<desc>lat.=44.648499, lon.=33.781502, Alt.=110.960022m. Speed=18.900000m/h.</desc>
<speed>5.250000</speed>
</trkpt>
<trkpt lat="44.648506" lon="33.781944">
<ele>113.969788</ele>
<time>2011-10-11T09:12:33Z</time>
<desc>lat.=44.648506, lon.=33.781944, Alt.=113.969788m. Speed=29.988001m/h.</desc>
<speed>8.330000</speed>
</trkpt>
<trkpt lat="44.648579" lon="33.782440">
<ele>119.331116</ele>
<time>2011-10-11T09:12:38Z</time>
<desc>lat.=44.648579, lon.=33.782440, Alt.=119.331116m. Speed=29.340000m/h.</desc>
<speed>8.150000</speed>
</trkpt>
<trkpt lat="44.648632" lon="33.782928">
<ele>120.272522</ele>
<time>2011-10-11T09:12:43Z</time>
<desc>lat.=44.648632, lon.=33.782928, Alt.=120.272522m. Speed=27.719999m/h.</desc>
<speed>7.700000</speed>
</trkpt>
<trkpt lat="44.648560" lon="33.783367">
<ele>117.811584</ele>
<time>2011-10-11T09:12:48Z</time>
<desc>lat.=44.648560, lon.=33.783367, Alt.=117.811584m. Speed=19.080000m/h.</desc>
<speed>5.300000</speed>
</trkpt>
<trkpt lat="44.648598" lon="33.783691">
<ele>118.227600</ele>
<time>2011-10-11T09:12:53Z</time>
<desc>lat.=44.648598, lon.=33.783691, Alt.=118.227600m. Speed=19.980000m/h.</desc>
<speed>5.550000</speed>
</trkpt>
<trkpt lat="44.648582" lon="33.784031">
<ele>122.397522</ele>
<time>2011-10-11T09:12:58Z</time>
<desc>lat.=44.648582, lon.=33.784031, Alt.=122.397522m. Speed=22.320000m/h.</desc>
<speed>6.200000</speed>
</trkpt>
<trkpt lat="44.648598" lon="33.784359">
<ele>127.323303</ele>
<time>2011-10-11T09:13:03Z</time>
<desc>lat.=44.648598, lon.=33.784359, Alt.=127.323303m. Speed=14.400000m/h.</desc>
<speed>4.000000</speed>
</trkpt>
<trkpt lat="44.648678" lon="33.784496">
<ele>128.205200</ele>
<time>2011-10-11T09:13:08Z</time>
<desc>lat.=44.648678, lon.=33.784496, Alt.=128.205200m. Speed=13.176000m/h.</desc>
<speed>3.660000</speed>
</trkpt>
<trkpt lat="44.648880" lon="33.784569">
<ele>127.305725</ele>
<time>2011-10-11T09:13:13Z</time>
<desc>lat.=44.648880, lon.=33.784569, Alt.=127.305725m. Speed=18.684000m/h.</desc>
<speed>5.190000</speed>
</trkpt>
<trkpt lat="44.649158" lon="33.784454">
<ele>127.540100</ele>
<time>2011-10-11T09:13:18Z</time>
<desc>lat.=44.649158, lon.=33.784454, Alt.=127.540100m. Speed=21.816000m/h.</desc>
<speed>6.060000</speed>
</trkpt>
<trkpt lat="44.649532" lon="33.784382">
<ele>130.459106</ele>
<time>2011-10-11T09:13:23Z</time>
<desc>lat.=44.649532, lon.=33.784382, Alt.=130.459106m. Speed=31.643999m/h.</desc>
<speed>8.790000</speed>
</trkpt>
<trkpt lat="44.649921" lon="33.784260">
<ele>130.736450</ele>
<time>2011-10-11T09:13:28Z</time>
<desc>lat.=44.649921, lon.=33.784260, Alt.=130.736450m. Speed=32.040001m/h.</desc>
<speed>8.900000</speed>
</trkpt>
<trkpt lat="44.650368" lon="33.784065">
<ele>134.158325</ele>
<time>2011-10-11T09:13:33Z</time>
<desc>lat.=44.650368, lon.=33.784065, Alt.=134.158325m. Speed=38.340000m/h.</desc>
<speed>10.650000</speed>
</trkpt>
<trkpt lat="44.650909" lon="33.783802">
<ele>134.361450</ele>
<time>2011-10-11T09:13:38Z</time>
<desc>lat.=44.650909, lon.=33.783802, Alt.=134.361450m. Speed=46.043999m/h.</desc>
<speed>12.790000</speed>
</trkpt>
<trkpt lat="44.651421" lon="33.783539">
<ele>132.486450</ele>
<time>2011-10-11T09:13:43Z</time>
<desc>lat.=44.651421, lon.=33.783539, Alt.=132.486450m. Speed=43.632000m/h.</desc>
<speed>12.120000</speed>
</trkpt>
<trkpt lat="44.652020" lon="33.783272">
<ele>132.123169</ele>
<time>2011-10-11T09:13:48Z</time>
<desc>lat.=44.652020, lon.=33.783272, Alt.=132.123169m. Speed=49.032001m/h.</desc>
<speed>13.620000</speed>
</trkpt>
<trkpt lat="44.652676" lon="33.783035">
<ele>132.302856</ele>
<time>2011-10-11T09:13:53Z</time>
<desc>lat.=44.652676, lon.=33.783035, Alt.=132.302856m. Speed=52.523998m/h.</desc>
<speed>14.590000</speed>
</trkpt>
<trkpt lat="44.653297" lon="33.782803">
<ele>131.959106</ele>
<time>2011-10-11T09:13:58Z</time>
<desc>lat.=44.653297, lon.=33.782803, Alt.=131.959106m. Speed=50.436001m/h.</desc>
<speed>14.010000</speed>
</trkpt>
<trkpt lat="44.653896" lon="33.782516">
<ele>133.548950</ele>
<time>2011-10-11T09:14:03Z</time>
<desc>lat.=44.653896, lon.=33.782516, Alt.=133.548950m. Speed=51.875999m/h.</desc>
<speed>14.410000</speed>
</trkpt>
<trkpt lat="44.654579" lon="33.782238">
<ele>136.056763</ele>
<time>2011-10-11T09:14:08Z</time>
<desc>lat.=44.654579, lon.=33.782238, Alt.=136.056763m. Speed=59.076000m/h.</desc>
<speed>16.410000</speed>
</trkpt>
<trkpt lat="44.655243" lon="33.781982">
<ele>137.595825</ele>
<time>2011-10-11T09:14:13Z</time>
<desc>lat.=44.655243, lon.=33.781982, Alt.=137.595825m. Speed=56.700001m/h.</desc>
<speed>15.750000</speed>
</trkpt>
<trkpt lat="44.655922" lon="33.781731">
<ele>138.170044</ele>
<time>2011-10-11T09:14:18Z</time>
<desc>lat.=44.655922, lon.=33.781731, Alt.=138.170044m. Speed=55.980000m/h.</desc>
<speed>15.550000</speed>
</trkpt>
<trkpt lat="44.656574" lon="33.781433">
<ele>137.642700</ele>
<time>2011-10-11T09:14:23Z</time>
<desc>lat.=44.656574, lon.=33.781433, Alt.=137.642700m. Speed=55.259998m/h.</desc>
<speed>15.350000</speed>
</trkpt>
<trkpt lat="44.657131" lon="33.781090">
<ele>134.252075</ele>
<time>2011-10-11T09:14:28Z</time>
<desc>lat.=44.657131, lon.=33.781090, Alt.=134.252075m. Speed=48.852001m/h.</desc>
<speed>13.570000</speed>
</trkpt>
<trkpt lat="44.657665" lon="33.780769">
<ele>131.459106</ele>
<time>2011-10-11T09:14:33Z</time>
<desc>lat.=44.657665, lon.=33.780769, Alt.=131.459106m. Speed=46.908001m/h.</desc>
<speed>13.030000</speed>
</trkpt>
<trkpt lat="44.658157" lon="33.780479">
<ele>130.349731</ele>
<time>2011-10-11T09:14:38Z</time>
<desc>lat.=44.658157, lon.=33.780479, Alt.=130.349731m. Speed=40.464001m/h.</desc>
<speed>11.240000</speed>
</trkpt>
<trkpt lat="44.658676" lon="33.780224">
<ele>129.283325</ele>
<time>2011-10-11T09:14:43Z</time>
<desc>lat.=44.658676, lon.=33.780224, Alt.=129.283325m. Speed=43.344002m/h.</desc>
<speed>12.040000</speed>
</trkpt>
<trkpt lat="44.659252" lon="33.780167">
<ele>127.844788</ele>
<time>2011-10-11T09:14:48Z</time>
<desc>lat.=44.659252, lon.=33.780167, Alt.=127.844788m. Speed=48.924000m/h.</desc>
<speed>13.590000</speed>
</trkpt>
<trkpt lat="44.659847" lon="33.780293">
<ele>118.098694</ele>
<time>2011-10-11T09:14:53Z</time>
<desc>lat.=44.659847, lon.=33.780293, Alt.=118.098694m. Speed=50.183998m/h.</desc>
<speed>13.939999</speed>
</trkpt>
<trkpt lat="44.660492" lon="33.780495">
<ele>109.946350</ele>
<time>2011-10-11T09:14:58Z</time>
<desc>lat.=44.660492, lon.=33.780495, Alt.=109.946350m. Speed=53.279999m/h.</desc>
<speed>14.800000</speed>
</trkpt>
<trkpt lat="44.661182" lon="33.780663">
<ele>105.456116</ele>
<time>2011-10-11T09:15:03Z</time>
<desc>lat.=44.661182, lon.=33.780663, Alt.=105.456116m. Speed=52.380001m/h.</desc>
<speed>14.550000</speed>
</trkpt>
<trkpt lat="44.661800" lon="33.780933">
<ele>101.631897</ele>
<time>2011-10-11T09:15:08Z</time>
<desc>lat.=44.661800, lon.=33.780933, Alt.=101.631897m. Speed=50.939999m/h.</desc>
<speed>14.150000</speed>
</trkpt>
<trkpt lat="44.662292" lon="33.781590">
<ele>95.932678</ele>
<time>2011-10-11T09:15:13Z</time>
<desc>lat.=44.662292, lon.=33.781590, Alt.=95.932678m. Speed=50.723999m/h.</desc>
<speed>14.090000</speed>
</trkpt>
<trkpt lat="44.662571" lon="33.782387">
<ele>94.553772</ele>
<time>2011-10-11T09:15:18Z</time>
<desc>lat.=44.662571, lon.=33.782387, Alt.=94.553772m. Speed=44.891998m/h.</desc>
<speed>12.470000</speed>
</trkpt>
<trkpt lat="44.662704" lon="33.783085">
<ele>97.569397</ele>
<time>2011-10-11T09:15:23Z</time>
<desc>lat.=44.662704, lon.=33.783085, Alt.=97.569397m. Speed=38.880001m/h.</desc>
<speed>10.800000</speed>
</trkpt>
<trkpt lat="44.662640" lon="33.783749">
<ele>98.270569</ele>
<time>2011-10-11T09:15:28Z</time>
<desc>lat.=44.662640, lon.=33.783749, Alt.=98.270569m. Speed=38.736000m/h.</desc>
<speed>10.760000</speed>
</trkpt>
<trkpt lat="44.662579" lon="33.784443">
<ele>98.598694</ele>
<time>2011-10-11T09:15:33Z</time>
<desc>lat.=44.662579, lon.=33.784443, Alt.=98.598694m. Speed=41.688000m/h.</desc>
<speed>11.580000</speed>
</trkpt>
<trkpt lat="44.662479" lon="33.785198">
<ele>98.493225</ele>
<time>2011-10-11T09:15:38Z</time>
<desc>lat.=44.662479, lon.=33.785198, Alt.=98.493225m. Speed=46.872002m/h.</desc>
<speed>13.020000</speed>
</trkpt>
<trkpt lat="44.662342" lon="33.786037">
<ele>99.780334</ele>
<time>2011-10-11T09:15:43Z</time>
<desc>lat.=44.662342, lon.=33.786037, Alt.=99.780334m. Speed=49.500000m/h.</desc>
<speed>13.750000</speed>
</trkpt>
<trkpt lat="44.662312" lon="33.786915">
<ele>99.786194</ele>
<time>2011-10-11T09:15:48Z</time>
<desc>lat.=44.662312, lon.=33.786915, Alt.=99.786194m. Speed=49.104000m/h.</desc>
<speed>13.640000</speed>
</trkpt>
<trkpt lat="44.662331" lon="33.787834">
<ele>99.467834</ele>
<time>2011-10-11T09:15:53Z</time>
<desc>lat.=44.662331, lon.=33.787834, Alt.=99.467834m. Speed=53.352001m/h.</desc>
<speed>14.820000</speed>
</trkpt>
<trkpt lat="44.662209" lon="33.788784">
<ele>98.987366</ele>
<time>2011-10-11T09:15:58Z</time>
<desc>lat.=44.662209, lon.=33.788784, Alt.=98.987366m. Speed=57.672001m/h.</desc>
<speed>16.020000</speed>
</trkpt>
<trkpt lat="44.662037" lon="33.789742">
<ele>99.042053</ele>
<time>2011-10-11T09:16:03Z</time>
<desc>lat.=44.662037, lon.=33.789742, Alt.=99.042053m. Speed=58.391998m/h.</desc>
<speed>16.220000</speed>
</trkpt>
<trkpt lat="44.661907" lon="33.790771">
<ele>99.438538</ele>
<time>2011-10-11T09:16:08Z</time>
<desc>lat.=44.661907, lon.=33.790771, Alt.=99.438538m. Speed=60.048000m/h.</desc>
<speed>16.680000</speed>
</trkpt>
<trkpt lat="44.661755" lon="33.791805">
<ele>99.428772</ele>
<time>2011-10-11T09:16:13Z</time>
<desc>lat.=44.661755, lon.=33.791805, Alt.=99.428772m. Speed=53.891998m/h.</desc>
<speed>14.970000</speed>
</trkpt>
<trkpt lat="44.661564" lon="33.792648">
<ele>101.405334</ele>
<time>2011-10-11T09:16:18Z</time>
<desc>lat.=44.661564, lon.=33.792648, Alt.=101.405334m. Speed=48.852001m/h.</desc>
<speed>13.570000</speed>
</trkpt>
<trkpt lat="44.661404" lon="33.793438">
<ele>103.911194</ele>
<time>2011-10-11T09:16:23Z</time>
<desc>lat.=44.661404, lon.=33.793438, Alt.=103.911194m. Speed=47.088001m/h.</desc>
<speed>13.080000</speed>
</trkpt>
<trkpt lat="44.661274" lon="33.794212">
<ele>104.731506</ele>
<time>2011-10-11T09:16:28Z</time>
<desc>lat.=44.661274, lon.=33.794212, Alt.=104.731506m. Speed=43.020000m/h.</desc>
<speed>11.950000</speed>
</trkpt>
<trkpt lat="44.661190" lon="33.794941">
<ele>105.069397</ele>
<time>2011-10-11T09:16:33Z</time>
<desc>lat.=44.661190, lon.=33.794941, Alt.=105.069397m. Speed=41.363998m/h.</desc>
<speed>11.490000</speed>
</trkpt>
<trkpt lat="44.661221" lon="33.795654">
<ele>106.555725</ele>
<time>2011-10-11T09:16:38Z</time>
<desc>lat.=44.661221, lon.=33.795654, Alt.=106.555725m. Speed=41.868000m/h.</desc>
<speed>11.630000</speed>
</trkpt>
<trkpt lat="44.661209" lon="33.796368">
<ele>108.313538</ele>
<time>2011-10-11T09:16:43Z</time>
<desc>lat.=44.661209, lon.=33.796368, Alt.=108.313538m. Speed=42.264000m/h.</desc>
<speed>11.740000</speed>
</trkpt>
<trkpt lat="44.660954" lon="33.797054">
<ele>110.133850</ele>
<time>2011-10-11T09:16:48Z</time>
<desc>lat.=44.660954, lon.=33.797054, Alt.=110.133850m. Speed=46.152000m/h.</desc>
<speed>12.820000</speed>
</trkpt>
<trkpt lat="44.660591" lon="33.797741">
<ele>112.083069</ele>
<time>2011-10-11T09:16:53Z</time>
<desc>lat.=44.660591, lon.=33.797741, Alt.=112.083069m. Speed=50.256001m/h.</desc>
<speed>13.960000</speed>
</trkpt>
<trkpt lat="44.660339" lon="33.798527">
<ele>115.606506</ele>
<time>2011-10-11T09:16:58Z</time>
<desc>lat.=44.660339, lon.=33.798527, Alt.=115.606506m. Speed=54.900002m/h.</desc>
<speed>15.250000</speed>
</trkpt>
<trkpt lat="44.660027" lon="33.799393">
<ele>114.188538</ele>
<time>2011-10-11T09:17:03Z</time>
<desc>lat.=44.660027, lon.=33.799393, Alt.=114.188538m. Speed=57.456001m/h.</desc>
<speed>15.960000</speed>
</trkpt>
<trkpt lat="44.659576" lon="33.800171">
<ele>112.483459</ele>
<time>2011-10-11T09:17:08Z</time>
<desc>lat.=44.659576, lon.=33.800171, Alt.=112.483459m. Speed=56.736000m/h.</desc>
<speed>15.760000</speed>
</trkpt>
<trkpt lat="44.659161" lon="33.800915">
<ele>110.438538</ele>
<time>2011-10-11T09:17:13Z</time>
<desc>lat.=44.659161, lon.=33.800915, Alt.=110.438538m. Speed=51.264000m/h.</desc>
<speed>14.240000</speed>
</trkpt>
<trkpt lat="44.658779" lon="33.801594">
<ele>107.163147</ele>
<time>2011-10-11T09:17:18Z</time>
<desc>lat.=44.658779, lon.=33.801594, Alt.=107.163147m. Speed=48.995998m/h.</desc>
<speed>13.610000</speed>
</trkpt>
<trkpt lat="44.658253" lon="33.802086">
<ele>102.948303</ele>
<time>2011-10-11T09:17:23Z</time>
<desc>lat.=44.658253, lon.=33.802086, Alt.=102.948303m. Speed=44.820000m/h.</desc>
<speed>12.450000</speed>
</trkpt>
<trkpt lat="44.657673" lon="33.802402">
<ele>100.920959</ele>
<time>2011-10-11T09:17:28Z</time>
<desc>lat.=44.657673, lon.=33.802402, Alt.=100.920959m. Speed=45.467999m/h.</desc>
<speed>12.630000</speed>
</trkpt>
<trkpt lat="44.657166" lon="33.802818">
<ele>101.028381</ele>
<time>2011-10-11T09:17:33Z</time>
<desc>lat.=44.657166, lon.=33.802818, Alt.=101.028381m. Speed=46.619999m/h.</desc>
<speed>12.950000</speed>
</trkpt>
<trkpt lat="44.656849" lon="33.803558">
<ele>101.981506</ele>
<time>2011-10-11T09:17:38Z</time>
<desc>lat.=44.656849, lon.=33.803558, Alt.=101.981506m. Speed=51.264000m/h.</desc>
<speed>14.240000</speed>
</trkpt>
<trkpt lat="44.656559" lon="33.804340">
<ele>102.963928</ele>
<time>2011-10-11T09:17:43Z</time>
<desc>lat.=44.656559, lon.=33.804340, Alt.=102.963928m. Speed=49.320000m/h.</desc>
<speed>13.700000</speed>
</trkpt>
<trkpt lat="44.656269" lon="33.805161">
<ele>102.743225</ele>
<time>2011-10-11T09:17:48Z</time>
<desc>lat.=44.656269, lon.=33.805161, Alt.=102.743225m. Speed=53.136002m/h.</desc>
<speed>14.760000</speed>
</trkpt>
<trkpt lat="44.655880" lon="33.805897">
<ele>102.848694</ele>
<time>2011-10-11T09:17:53Z</time>
<desc>lat.=44.655880, lon.=33.805897, Alt.=102.848694m. Speed=48.276001m/h.</desc>
<speed>13.410000</speed>
</trkpt>
<trkpt lat="44.655411" lon="33.806580">
<ele>103.299866</ele>
<time>2011-10-11T09:17:58Z</time>
<desc>lat.=44.655411, lon.=33.806580, Alt.=103.299866m. Speed=55.152000m/h.</desc>
<speed>15.320000</speed>
</trkpt>
<trkpt lat="44.654961" lon="33.807312">
<ele>104.446350</ele>
<time>2011-10-11T09:18:03Z</time>
<desc>lat.=44.654961, lon.=33.807312, Alt.=104.446350m. Speed=52.020000m/h.</desc>
<speed>14.450000</speed>
</trkpt>
<trkpt lat="44.654533" lon="33.807995">
<ele>105.502991</ele>
<time>2011-10-11T09:18:08Z</time>
<desc>lat.=44.654533, lon.=33.807995, Alt.=105.502991m. Speed=50.688000m/h.</desc>
<speed>14.080000</speed>
</trkpt>
<trkpt lat="44.654140" lon="33.808743">
<ele>106.563538</ele>
<time>2011-10-11T09:18:13Z</time>
<desc>lat.=44.654140, lon.=33.808743, Alt.=106.563538m. Speed=51.695999m/h.</desc>
<speed>14.360000</speed>
</trkpt>
<trkpt lat="44.653782" lon="33.809471">
<ele>107.506897</ele>
<time>2011-10-11T09:18:18Z</time>
<desc>lat.=44.653782, lon.=33.809471, Alt.=107.506897m. Speed=51.012001m/h.</desc>
<speed>14.170000</speed>
</trkpt>
<trkpt lat="44.653446" lon="33.810253">
<ele>110.233459</ele>
<time>2011-10-11T09:18:23Z</time>
<desc>lat.=44.653446, lon.=33.810253, Alt.=110.233459m. Speed=53.388000m/h.</desc>
<speed>14.830000</speed>
</trkpt>
<trkpt lat="44.653111" lon="33.811138">
<ele>113.040100</ele>
<time>2011-10-11T09:18:28Z</time>
<desc>lat.=44.653111, lon.=33.811138, Alt.=113.040100m. Speed=59.652000m/h.</desc>
<speed>16.570000</speed>
</trkpt>
<trkpt lat="44.652733" lon="33.812080">
<ele>116.151428</ele>
<time>2011-10-11T09:18:33Z</time>
<desc>lat.=44.652733, lon.=33.812080, Alt.=116.151428m. Speed=63.324001m/h.</desc>
<speed>17.590000</speed>
</trkpt>
<trkpt lat="44.652332" lon="33.812992">
<ele>120.053772</ele>
<time>2011-10-11T09:18:38Z</time>
<desc>lat.=44.652332, lon.=33.812992, Alt.=120.053772m. Speed=54.467999m/h.</desc>
<speed>15.130000</speed>
</trkpt>
<trkpt lat="44.651878" lon="33.813671">
<ele>123.961975</ele>
<time>2011-10-11T09:18:43Z</time>
<desc>lat.=44.651878, lon.=33.813671, Alt.=123.961975m. Speed=48.276001m/h.</desc>
<speed>13.410000</speed>
</trkpt>
<trkpt lat="44.651386" lon="33.814171">
<ele>126.356506</ele>
<time>2011-10-11T09:18:48Z</time>
<desc>lat.=44.651386, lon.=33.814171, Alt.=126.356506m. Speed=45.251999m/h.</desc>
<speed>12.570000</speed>
</trkpt>
<trkpt lat="44.650890" lon="33.814701">
<ele>128.427856</ele>
<time>2011-10-11T09:18:53Z</time>
<desc>lat.=44.650890, lon.=33.814701, Alt.=128.427856m. Speed=46.548000m/h.</desc>
<speed>12.930000</speed>
</trkpt>
<trkpt lat="44.650391" lon="33.815269">
<ele>130.189575</ele>
<time>2011-10-11T09:18:58Z</time>
<desc>lat.=44.650391, lon.=33.815269, Alt.=130.189575m. Speed=54.000000m/h.</desc>
<speed>15.000000</speed>
</trkpt>
<trkpt lat="44.649853" lon="33.815865">
<ele>131.291138</ele>
<time>2011-10-11T09:19:03Z</time>
<desc>lat.=44.649853, lon.=33.815865, Alt.=131.291138m. Speed=53.352001m/h.</desc>
<speed>14.820000</speed>
</trkpt>
<trkpt lat="44.649273" lon="33.816406">
<ele>128.689575</ele>
<time>2011-10-11T09:19:08Z</time>
<desc>lat.=44.649273, lon.=33.816406, Alt.=128.689575m. Speed=51.264000m/h.</desc>
<speed>14.240000</speed>
</trkpt>
<trkpt lat="44.648773" lon="33.816956">
<ele>128.072388</ele>
<time>2011-10-11T09:19:13Z</time>
<desc>lat.=44.648773, lon.=33.816956, Alt.=128.072388m. Speed=50.939999m/h.</desc>
<speed>14.150000</speed>
</trkpt>
<trkpt lat="44.648335" lon="33.817589">
<ele>128.338013</ele>
<time>2011-10-11T09:19:18Z</time>
<desc>lat.=44.648335, lon.=33.817589, Alt.=128.338013m. Speed=45.576000m/h.</desc>
<speed>12.660000</speed>
</trkpt>
<trkpt lat="44.647953" lon="33.818150">
<ele>129.142700</ele>
<time>2011-10-11T09:19:23Z</time>
<desc>lat.=44.647953, lon.=33.818150, Alt.=129.142700m. Speed=43.667999m/h.</desc>
<speed>12.130000</speed>
</trkpt>
<trkpt lat="44.647778" lon="33.818748">
<ele>129.236450</ele>
<time>2011-10-11T09:19:28Z</time>
<desc>lat.=44.647778, lon.=33.818748, Alt.=129.236450m. Speed=43.164001m/h.</desc>
<speed>11.990000</speed>
</trkpt>
<trkpt lat="44.647671" lon="33.819485">
<ele>128.814575</ele>
<time>2011-10-11T09:19:33Z</time>
<desc>lat.=44.647671, lon.=33.819485, Alt.=128.814575m. Speed=48.383999m/h.</desc>
<speed>13.440000</speed>
</trkpt>
<trkpt lat="44.647491" lon="33.820347">
<ele>128.232544</ele>
<time>2011-10-11T09:19:38Z</time>
<desc>lat.=44.647491, lon.=33.820347, Alt.=128.232544m. Speed=55.835999m/h.</desc>
<speed>15.510000</speed>
</trkpt>
<trkpt lat="44.647129" lon="33.821152">
<ele>127.961975</ele>
<time>2011-10-11T09:19:43Z</time>
<desc>lat.=44.647129, lon.=33.821152, Alt.=127.961975m. Speed=53.352001m/h.</desc>
<speed>14.820000</speed>
</trkpt>
<trkpt lat="44.646667" lon="33.821747">
<ele>128.388794</ele>
<time>2011-10-11T09:19:48Z</time>
<desc>lat.=44.646667, lon.=33.821747, Alt.=128.388794m. Speed=50.292000m/h.</desc>
<speed>13.970000</speed>
</trkpt>
<trkpt lat="44.646107" lon="33.822323">
<ele>128.291138</ele>
<time>2011-10-11T09:19:53Z</time>
<desc>lat.=44.646107, lon.=33.822323, Alt.=128.291138m. Speed=50.147999m/h.</desc>
<speed>13.930000</speed>
</trkpt>
<trkpt lat="44.645710" lon="33.822968">
<ele>129.314575</ele>
<time>2011-10-11T09:19:58Z</time>
<desc>lat.=44.645710, lon.=33.822968, Alt.=129.314575m. Speed=45.972000m/h.</desc>
<speed>12.770000</speed>
</trkpt>
<trkpt lat="44.645229" lon="33.823582">
<ele>130.072388</ele>
<time>2011-10-11T09:20:03Z</time>
<desc>lat.=44.645229, lon.=33.823582, Alt.=130.072388m. Speed=43.956001m/h.</desc>
<speed>12.210000</speed>
</trkpt>
<trkpt lat="44.644745" lon="33.824112">
<ele>130.142700</ele>
<time>2011-10-11T09:20:08Z</time>
<desc>lat.=44.644745, lon.=33.824112, Alt.=130.142700m. Speed=55.512001m/h.</desc>
<speed>15.420000</speed>
</trkpt>
<trkpt lat="44.644299" lon="33.824940">
<ele>128.841919</ele>
<time>2011-10-11T09:20:13Z</time>
<desc>lat.=44.644299, lon.=33.824940, Alt.=128.841919m. Speed=59.580002m/h.</desc>
<speed>16.550001</speed>
</trkpt>
<trkpt lat="44.643944" lon="33.825802">
<ele>128.076294</ele>
<time>2011-10-11T09:20:18Z</time>
<desc>lat.=44.643944, lon.=33.825802, Alt.=128.076294m. Speed=57.456001m/h.</desc>
<speed>15.960000</speed>
</trkpt>
<trkpt lat="44.643730" lon="33.826828">
<ele>125.377991</ele>
<time>2011-10-11T09:20:23Z</time>
<desc>lat.=44.643730, lon.=33.826828, Alt.=125.377991m. Speed=59.400002m/h.</desc>
<speed>16.500000</speed>
</trkpt>
<trkpt lat="44.643543" lon="33.827751">
<ele>123.930725</ele>
<time>2011-10-11T09:20:28Z</time>
<desc>lat.=44.643543, lon.=33.827751, Alt.=123.930725m. Speed=53.784000m/h.</desc>
<speed>14.940000</speed>
</trkpt>
<trkpt lat="44.643181" lon="33.828556">
<ele>122.731506</ele>
<time>2011-10-11T09:20:33Z</time>
<desc>lat.=44.643181, lon.=33.828556, Alt.=122.731506m. Speed=53.352001m/h.</desc>
<speed>14.820000</speed>
</trkpt>
<trkpt lat="44.642773" lon="33.829369">
<ele>120.932678</ele>
<time>2011-10-11T09:20:38Z</time>
<desc>lat.=44.642773, lon.=33.829369, Alt.=120.932678m. Speed=59.147999m/h.</desc>
<speed>16.430000</speed>
</trkpt>
<trkpt lat="44.642342" lon="33.830143">
<ele>121.760803</ele>
<time>2011-10-11T09:20:43Z</time>
<desc>lat.=44.642342, lon.=33.830143, Alt.=121.760803m. Speed=57.852001m/h.</desc>
<speed>16.070000</speed>
</trkpt>
<trkpt lat="44.642021" lon="33.831005">
<ele>122.348694</ele>
<time>2011-10-11T09:20:48Z</time>
<desc>lat.=44.642021, lon.=33.831005, Alt.=122.348694m. Speed=55.764000m/h.</desc>
<speed>15.490000</speed>
</trkpt>
<trkpt lat="44.641945" lon="33.831959">
<ele>122.354553</ele>
<time>2011-10-11T09:20:53Z</time>
<desc>lat.=44.641945, lon.=33.831959, Alt.=122.354553m. Speed=51.264000m/h.</desc>
<speed>14.240000</speed>
</trkpt>
<trkpt lat="44.641712" lon="33.832794">
<ele>122.649475</ele>
<time>2011-10-11T09:20:58Z</time>
<desc>lat.=44.641712, lon.=33.832794, Alt.=122.649475m. Speed=53.099998m/h.</desc>
<speed>14.750000</speed>
</trkpt>
<trkpt lat="44.641415" lon="33.833588">
<ele>121.260803</ele>
<time>2011-10-11T09:21:03Z</time>
<desc>lat.=44.641415, lon.=33.833588, Alt.=121.260803m. Speed=48.924000m/h.</desc>
<speed>13.590000</speed>
</trkpt>
<trkpt lat="44.641109" lon="33.834396">
<ele>119.448303</ele>
<time>2011-10-11T09:21:08Z</time>
<desc>lat.=44.641109, lon.=33.834396, Alt.=119.448303m. Speed=52.560001m/h.</desc>
<speed>14.600000</speed>
</trkpt>
<trkpt lat="44.640980" lon="33.835320">
<ele>117.229553</ele>
<time>2011-10-11T09:21:13Z</time>
<desc>lat.=44.640980, lon.=33.835320, Alt.=117.229553m. Speed=53.243999m/h.</desc>
<speed>14.790000</speed>
</trkpt>
<trkpt lat="44.640839" lon="33.836273">
<ele>115.805725</ele>
<time>2011-10-11T09:21:18Z</time>
<desc>lat.=44.640839, lon.=33.836273, Alt.=115.805725m. Speed=53.928001m/h.</desc>
<speed>14.980000</speed>
</trkpt>
<trkpt lat="44.640724" lon="33.837154">
<ele>114.786194</ele>
<time>2011-10-11T09:21:23Z</time>
<desc>lat.=44.640724, lon.=33.837154, Alt.=114.786194m. Speed=48.348000m/h.</desc>
<speed>13.430000</speed>
</trkpt>
<trkpt lat="44.640553" lon="33.837971">
<ele>114.077209</ele>
<time>2011-10-11T09:21:28Z</time>
<desc>lat.=44.640553, lon.=33.837971, Alt.=114.077209m. Speed=46.872002m/h.</desc>
<speed>13.020000</speed>
</trkpt>
<trkpt lat="44.640259" lon="33.838753">
<ele>113.864319</ele>
<time>2011-10-11T09:21:33Z</time>
<desc>lat.=44.640259, lon.=33.838753, Alt.=113.864319m. Speed=54.180000m/h.</desc>
<speed>15.050000</speed>
</trkpt>
<trkpt lat="44.639927" lon="33.839523">
<ele>114.133850</ele>
<time>2011-10-11T09:21:38Z</time>
<desc>lat.=44.639927, lon.=33.839523, Alt.=114.133850m. Speed=51.408001m/h.</desc>
<speed>14.280000</speed>
</trkpt>
<trkpt lat="44.639618" lon="33.840336">
<ele>114.598694</ele>
<time>2011-10-11T09:21:43Z</time>
<desc>lat.=44.639618, lon.=33.840336, Alt.=114.598694m. Speed=55.619999m/h.</desc>
<speed>15.450000</speed>
</trkpt>
<trkpt lat="44.639450" lon="33.841183">
<ele>115.254944</ele>
<time>2011-10-11T09:21:48Z</time>
<desc>lat.=44.639450, lon.=33.841183, Alt.=115.254944m. Speed=43.992001m/h.</desc>
<speed>12.220000</speed>
</trkpt>
<trkpt lat="44.639484" lon="33.841995">
<ele>116.440491</ele>
<time>2011-10-11T09:21:53Z</time>
<desc>lat.=44.639484, lon.=33.841995, Alt.=116.440491m. Speed=46.439999m/h.</desc>
<speed>12.900000</speed>
</trkpt>
<trkpt lat="44.639648" lon="33.842838">
<ele>117.430725</ele>
<time>2011-10-11T09:21:58Z</time>
<desc>lat.=44.639648, lon.=33.842838, Alt.=117.430725m. Speed=51.948002m/h.</desc>
<speed>14.430001</speed>
</trkpt>
<trkpt lat="44.639969" lon="33.843719">
<ele>117.159241</ele>
<time>2011-10-11T09:22:03Z</time>
<desc>lat.=44.639969, lon.=33.843719, Alt.=117.159241m. Speed=48.276001m/h.</desc>
<speed>13.410000</speed>
</trkpt>
<trkpt lat="44.640228" lon="33.844482">
<ele>119.504944</ele>
<time>2011-10-11T09:22:08Z</time>
<desc>lat.=44.640228, lon.=33.844482, Alt.=119.504944m. Speed=47.807999m/h.</desc>
<speed>13.280000</speed>
</trkpt>
<trkpt lat="44.640202" lon="33.845242">
<ele>119.669006</ele>
<time>2011-10-11T09:22:13Z</time>
<desc>lat.=44.640202, lon.=33.845242, Alt.=119.669006m. Speed=43.883999m/h.</desc>
<speed>12.190000</speed>
</trkpt>
<trkpt lat="44.640121" lon="33.845951">
<ele>119.727600</ele>
<time>2011-10-11T09:22:18Z</time>
<desc>lat.=44.640121, lon.=33.845951, Alt.=119.727600m. Speed=44.675999m/h.</desc>
<speed>12.410000</speed>
</trkpt>
<trkpt lat="44.640106" lon="33.846748">
<ele>121.313538</ele>
<time>2011-10-11T09:22:23Z</time>
<desc>lat.=44.640106, lon.=33.846748, Alt.=121.313538m. Speed=50.363998m/h.</desc>
<speed>13.990000</speed>
</trkpt>
<trkpt lat="44.639912" lon="33.847530">
<ele>121.672913</ele>
<time>2011-10-11T09:22:28Z</time>
<desc>lat.=44.639912, lon.=33.847530, Alt.=121.672913m. Speed=44.495998m/h.</desc>
<speed>12.360000</speed>
</trkpt>
<trkpt lat="44.639565" lon="33.848038">
<ele>123.711975</ele>
<time>2011-10-11T09:22:33Z</time>
<desc>lat.=44.639565, lon.=33.848038, Alt.=123.711975m. Speed=40.032001m/h.</desc>
<speed>11.120000</speed>
</trkpt>
<trkpt lat="44.639130" lon="33.848434">
<ele>125.729553</ele>
<time>2011-10-11T09:22:38Z</time>
<desc>lat.=44.639130, lon.=33.848434, Alt.=125.729553m. Speed=46.152000m/h.</desc>
<speed>12.820000</speed>
</trkpt>
<trkpt lat="44.638763" lon="33.849068">
<ele>128.189575</ele>
<time>2011-10-11T09:22:43Z</time>
<desc>lat.=44.638763, lon.=33.849068, Alt.=128.189575m. Speed=52.200001m/h.</desc>
<speed>14.500000</speed>
</trkpt>
<trkpt lat="44.638317" lon="33.849819">
<ele>130.775513</ele>
<time>2011-10-11T09:22:48Z</time>
<desc>lat.=44.638317, lon.=33.849819, Alt.=130.775513m. Speed=54.540001m/h.</desc>
<speed>15.150000</speed>
</trkpt>
<trkpt lat="44.638027" lon="33.850632">
<ele>131.170044</ele>
<time>2011-10-11T09:22:53Z</time>
<desc>lat.=44.638027, lon.=33.850632, Alt.=131.170044m. Speed=48.132000m/h.</desc>
<speed>13.370000</speed>
</trkpt>
<trkpt lat="44.637779" lon="33.851364">
<ele>131.728638</ele>
<time>2011-10-11T09:22:58Z</time>
<desc>lat.=44.637779, lon.=33.851364, Alt.=131.728638m. Speed=42.911999m/h.</desc>
<speed>11.920000</speed>
</trkpt>
<trkpt lat="44.637478" lon="33.852051">
<ele>134.818481</ele>
<time>2011-10-11T09:23:03Z</time>
<desc>lat.=44.637478, lon.=33.852051, Alt.=134.818481m. Speed=50.112000m/h.</desc>
<speed>13.920000</speed>
</trkpt>
<trkpt lat="44.637115" lon="33.852818">
<ele>136.974731</ele>
<time>2011-10-11T09:23:08Z</time>
<desc>lat.=44.637115, lon.=33.852818, Alt.=136.974731m. Speed=57.528000m/h.</desc>
<speed>15.980000</speed>
</trkpt>
<trkpt lat="44.636696" lon="33.853600">
<ele>139.123169</ele>
<time>2011-10-11T09:23:13Z</time>
<desc>lat.=44.636696, lon.=33.853600, Alt.=139.123169m. Speed=56.375999m/h.</desc>
<speed>15.660000</speed>
</trkpt>
<trkpt lat="44.636230" lon="33.854408">
<ele>138.650513</ele>
<time>2011-10-11T09:23:18Z</time>
<desc>lat.=44.636230, lon.=33.854408, Alt.=138.650513m. Speed=55.548000m/h.</desc>
<speed>15.430000</speed>
</trkpt>
<trkpt lat="44.635731" lon="33.855053">
<ele>138.634888</ele>
<time>2011-10-11T09:23:23Z</time>
<desc>lat.=44.635731, lon.=33.855053, Alt.=138.634888m. Speed=53.568001m/h.</desc>
<speed>14.880000</speed>
</trkpt>
<trkpt lat="44.635422" lon="33.855850">
<ele>139.951294</ele>
<time>2011-10-11T09:23:28Z</time>
<desc>lat.=44.635422, lon.=33.855850, Alt.=139.951294m. Speed=52.307999m/h.</desc>
<speed>14.530000</speed>
</trkpt>
<trkpt lat="44.635143" lon="33.856758">
<ele>139.771606</ele>
<time>2011-10-11T09:23:33Z</time>
<desc>lat.=44.635143, lon.=33.856758, Alt.=139.771606m. Speed=55.152000m/h.</desc>
<speed>15.320000</speed>
</trkpt>
<trkpt lat="44.634773" lon="33.857552">
<ele>140.341919</ele>
<time>2011-10-11T09:23:38Z</time>
<desc>lat.=44.634773, lon.=33.857552, Alt.=140.341919m. Speed=54.827999m/h.</desc>
<speed>15.230000</speed>
</trkpt>
<trkpt lat="44.634331" lon="33.858337">
<ele>141.963013</ele>
<time>2011-10-11T09:23:43Z</time>
<desc>lat.=44.634331, lon.=33.858337, Alt.=141.963013m. Speed=55.728001m/h.</desc>
<speed>15.480000</speed>
</trkpt>
<trkpt lat="44.633881" lon="33.859055">
<ele>144.041138</ele>
<time>2011-10-11T09:23:48Z</time>
<desc>lat.=44.633881, lon.=33.859055, Alt.=144.041138m. Speed=53.459999m/h.</desc>
<speed>14.850000</speed>
</trkpt>
<trkpt lat="44.633492" lon="33.859810">
<ele>143.095825</ele>
<time>2011-10-11T09:23:53Z</time>
<desc>lat.=44.633492, lon.=33.859810, Alt.=143.095825m. Speed=51.192001m/h.</desc>
<speed>14.220000</speed>
</trkpt>
<trkpt lat="44.633175" lon="33.860542">
<ele>142.521606</ele>
<time>2011-10-11T09:23:58Z</time>
<desc>lat.=44.633175, lon.=33.860542, Alt.=142.521606m. Speed=45.863998m/h.</desc>
<speed>12.740000</speed>
</trkpt>
<trkpt lat="44.632912" lon="33.861095">
<ele>144.970825</ele>
<time>2011-10-11T09:24:03Z</time>
<desc>lat.=44.632912, lon.=33.861095, Alt.=144.970825m. Speed=22.032000m/h.</desc>
<speed>6.120000</speed>
</trkpt>
<trkpt lat="44.632885" lon="33.861191">
<ele>143.705200</ele>
<time>2011-10-11T09:24:08Z</time>
<desc>lat.=44.632885, lon.=33.861191, Alt.=143.705200m. Speed=1.512000m/h.</desc>
<speed>0.420000</speed>
</trkpt>
<trkpt lat="44.632874" lon="33.861233">
<ele>144.818481</ele>
<time>2011-10-11T09:24:13Z</time>
<desc>lat.=44.632874, lon.=33.861233, Alt.=144.818481m. Speed=0.936000m/h.</desc>
<speed>0.260000</speed>
</trkpt>
<trkpt lat="44.632854" lon="33.861248">
<ele>146.177856</ele>
<time>2011-10-11T09:24:18Z</time>
<desc>lat.=44.632854, lon.=33.861248, Alt.=146.177856m. Speed=2.520000m/h.</desc>
<speed>0.700000</speed>
</trkpt>
<trkpt lat="44.632862" lon="33.861240">
<ele>146.939575</ele>
<time>2011-10-11T09:24:23Z</time>
<desc>lat.=44.632862, lon.=33.861240, Alt.=146.939575m. Speed=2.592000m/h.</desc>
<speed>0.720000</speed>
</trkpt>
<trkpt lat="44.632851" lon="33.861217">
<ele>147.216919</ele>
<time>2011-10-11T09:24:28Z</time>
<desc>lat.=44.632851, lon.=33.861217, Alt.=147.216919m. Speed=0.540000m/h.</desc>
<speed>0.150000</speed>
</trkpt>
<trkpt lat="44.632847" lon="33.861210">
<ele>147.185669</ele>
<time>2011-10-11T09:24:33Z</time>
<desc>lat.=44.632847, lon.=33.861210, Alt.=147.185669m. Speed=0.540000m/h.</desc>
<speed>0.150000</speed>
</trkpt>
<trkpt lat="44.632843" lon="33.861206">
<ele>147.107544</ele>
<time>2011-10-11T09:24:38Z</time>
<desc>lat.=44.632843, lon.=33.861206, Alt.=147.107544m. Speed=0.648000m/h.</desc>
<speed>0.180000</speed>
</trkpt>
<trkpt lat="44.632854" lon="33.861210">
<ele>147.084106</ele>
<time>2011-10-11T09:24:43Z</time>
<desc>lat.=44.632854, lon.=33.861210, Alt.=147.084106m. Speed=0.612000m/h.</desc>
<speed>0.170000</speed>
</trkpt>
<trkpt lat="44.632858" lon="33.861198">
<ele>146.974731</ele>
<time>2011-10-11T09:24:48Z</time>
<desc>lat.=44.632858, lon.=33.861198, Alt.=146.974731m. Speed=1.440000m/h.</desc>
<speed>0.400000</speed>
</trkpt>
<trkpt lat="44.632854" lon="33.861187">
<ele>147.052856</ele>
<time>2011-10-11T09:24:53Z</time>
<desc>lat.=44.632854, lon.=33.861187, Alt.=147.052856m. Speed=0.216000m/h.</desc>
<speed>0.060000</speed>
</trkpt>
<trkpt lat="44.632854" lon="33.861187">
<ele>147.037231</ele>
<time>2011-10-11T09:24:58Z</time>
<desc>lat.=44.632854, lon.=33.861187, Alt.=147.037231m. Speed=0.144000m/h.</desc>
<speed>0.040000</speed>
</trkpt>
<trkpt lat="44.632854" lon="33.861176">
<ele>147.021606</ele>
<time>2011-10-11T09:25:03Z</time>
<desc>lat.=44.632854, lon.=33.861176, Alt.=147.021606m. Speed=3.996000m/h.</desc>
<speed>1.110000</speed>
</trkpt>
<trkpt lat="44.632847" lon="33.861092">
<ele>146.134888</ele>
<time>2011-10-11T09:25:08Z</time>
<desc>lat.=44.632847, lon.=33.861092, Alt.=146.134888m. Speed=4.896000m/h.</desc>
<speed>1.360000</speed>
</trkpt>
<trkpt lat="44.632828" lon="33.861042">
<ele>145.150513</ele>
<time>2011-10-11T09:25:13Z</time>
<desc>lat.=44.632828, lon.=33.861042, Alt.=145.150513m. Speed=1.872000m/h.</desc>
<speed>0.520000</speed>
</trkpt>
<trkpt lat="44.632813" lon="33.861027">
<ele>145.787231</ele>
<time>2011-10-11T09:25:18Z</time>
<desc>lat.=44.632813, lon.=33.861027, Alt.=145.787231m. Speed=1.764000m/h.</desc>
<speed>0.490000</speed>
</trkpt>
<trkpt lat="44.632809" lon="33.861015">
<ele>146.505981</ele>
<time>2011-10-11T09:25:23Z</time>
<desc>lat.=44.632809, lon.=33.861015, Alt.=146.505981m. Speed=1.296000m/h.</desc>
<speed>0.360000</speed>
</trkpt>
<trkpt lat="44.632816" lon="33.861000">
<ele>147.185669</ele>
<time>2011-10-11T09:25:28Z</time>
<desc>lat.=44.632816, lon.=33.861000, Alt.=147.185669m. Speed=0.828000m/h.</desc>
<speed>0.230000</speed>
</trkpt>
<trkpt lat="44.632809" lon="33.860989">
<ele>147.720825</ele>
<time>2011-10-11T09:25:33Z</time>
<desc>lat.=44.632809, lon.=33.860989, Alt.=147.720825m. Speed=0.648000m/h.</desc>
<speed>0.180000</speed>
</trkpt>
<trkpt lat="44.632805" lon="33.860981">
<ele>148.248169</ele>
<time>2011-10-11T09:25:38Z</time>
<desc>lat.=44.632805, lon.=33.860981, Alt.=148.248169m. Speed=0.504000m/h.</desc>
<speed>0.140000</speed>
</trkpt>
<trkpt lat="44.632805" lon="33.860973">
<ele>148.775513</ele>
<time>2011-10-11T09:25:43Z</time>
<desc>lat.=44.632805, lon.=33.860973, Alt.=148.775513m. Speed=0.252000m/h.</desc>
<speed>0.070000</speed>
</trkpt>
<trkpt lat="44.632805" lon="33.860970">
<ele>149.295044</ele>
<time>2011-10-11T09:25:48Z</time>
<desc>lat.=44.632805, lon.=33.860970, Alt.=149.295044m. Speed=0.108000m/h.</desc>
<speed>0.030000</speed>
</trkpt>
<trkpt lat="44.632805" lon="33.860966">
<ele>149.822388</ele>
<time>2011-10-11T09:25:53Z</time>
<desc>lat.=44.632805, lon.=33.860966, Alt.=149.822388m. Speed=0.288000m/h.</desc>
<speed>0.080000</speed>
</trkpt>
<trkpt lat="44.632797" lon="33.860962">
<ele>150.341919</ele>
<time>2011-10-11T09:25:58Z</time>
<desc>lat.=44.632797, lon.=33.860962, Alt.=150.341919m. Speed=0.684000m/h.</desc>
<speed>0.190000</speed>
</trkpt>
<trkpt lat="44.632790" lon="33.860958">
<ele>150.861450</ele>
<time>2011-10-11T09:26:03Z</time>
<desc>lat.=44.632790, lon.=33.860958, Alt.=150.861450m. Speed=0.504000m/h.</desc>
<speed>0.140000</speed>
</trkpt>
<trkpt lat="44.632782" lon="33.860954">
<ele>151.384888</ele>
<time>2011-10-11T09:26:08Z</time>
<desc>lat.=44.632782, lon.=33.860954, Alt.=151.384888m. Speed=0.504000m/h.</desc>
<speed>0.140000</speed>
</trkpt>
<trkpt lat="44.632778" lon="33.860950">
<ele>151.904419</ele>
<time>2011-10-11T09:26:13Z</time>
<desc>lat.=44.632778, lon.=33.860950, Alt.=151.904419m. Speed=0.180000m/h.</desc>
<speed>0.050000</speed>
</trkpt>
<trkpt lat="44.632778" lon="33.860950">
<ele>152.423950</ele>
<time>2011-10-11T09:26:18Z</time>
<desc>lat.=44.632778, lon.=33.860950, Alt.=152.423950m. Speed=0.216000m/h.</desc>
<speed>0.060000</speed>
</trkpt>
<trkpt lat="44.632786" lon="33.860950">
<ele>152.939575</ele>
<time>2011-10-11T09:26:23Z</time>
<desc>lat.=44.632786, lon.=33.860950, Alt.=152.939575m. Speed=0.432000m/h.</desc>
<speed>0.120000</speed>
</trkpt>
<trkpt lat="44.632790" lon="33.860950">
<ele>153.443481</ele>
<time>2011-10-11T09:26:28Z</time>
<desc>lat.=44.632790, lon.=33.860950, Alt.=153.443481m. Speed=0.540000m/h.</desc>
<speed>0.150000</speed>
</trkpt>
<trkpt lat="44.632790" lon="33.860958">
<ele>153.947388</ele>
<time>2011-10-11T09:26:33Z</time>
<desc>lat.=44.632790, lon.=33.860958, Alt.=153.947388m. Speed=0.468000m/h.</desc>
<speed>0.130000</speed>
</trkpt>
<trkpt lat="44.632790" lon="33.860966">
<ele>154.439575</ele>
<time>2011-10-11T09:26:38Z</time>
<desc>lat.=44.632790, lon.=33.860966, Alt.=154.439575m. Speed=0.432000m/h.</desc>
<speed>0.120000</speed>
</trkpt>
<trkpt lat="44.632786" lon="33.860973">
<ele>154.939575</ele>
<time>2011-10-11T09:26:43Z</time>
<desc>lat.=44.632786, lon.=33.860973, Alt.=154.939575m. Speed=0.252000m/h.</desc>
<speed>0.070000</speed>
</trkpt>
<trkpt lat="44.632786" lon="33.860977">
<ele>155.427856</ele>
<time>2011-10-11T09:26:48Z</time>
<desc>lat.=44.632786, lon.=33.860977, Alt.=155.427856m. Speed=0.252000m/h.</desc>
<speed>0.070000</speed>
</trkpt>
<trkpt lat="44.632778" lon="33.860977">
<ele>155.912231</ele>
<time>2011-10-11T09:26:53Z</time>
<desc>lat.=44.632778, lon.=33.860977, Alt.=155.912231m. Speed=0.504000m/h.</desc>
<speed>0.140000</speed>
</trkpt>
<trkpt lat="44.632774" lon="33.860973">
<ele>156.388794</ele>
<time>2011-10-11T09:26:58Z</time>
<desc>lat.=44.632774, lon.=33.860973, Alt.=156.388794m. Speed=0.216000m/h.</desc>
<speed>0.060000</speed>
</trkpt>
<trkpt lat="44.632774" lon="33.860977">
<ele>156.865356</ele>
<time>2011-10-11T09:27:03Z</time>
<desc>lat.=44.632774, lon.=33.860977, Alt.=156.865356m. Speed=0.180000m/h.</desc>
<speed>0.050000</speed>
</trkpt>
<trkpt lat="44.632771" lon="33.860981">
<ele>157.334106</ele>
<time>2011-10-11T09:27:08Z</time>
<desc>lat.=44.632771, lon.=33.860981, Alt.=157.334106m. Speed=0.144000m/h.</desc>
<speed>0.040000</speed>
</trkpt>
<trkpt lat="44.632774" lon="33.860985">
<ele>157.806763</ele>
<time>2011-10-11T09:27:13Z</time>
<desc>lat.=44.632774, lon.=33.860985, Alt.=157.806763m. Speed=0.396000m/h.</desc>
<speed>0.110000</speed>
</trkpt>
<trkpt lat="44.632778" lon="33.860992">
<ele>158.275513</ele>
<time>2011-10-11T09:27:18Z</time>
<desc>lat.=44.632778, lon.=33.860992, Alt.=158.275513m. Speed=0.648000m/h.</desc>
<speed>0.180000</speed>
</trkpt>
<trkpt lat="44.632782" lon="33.861000">
<ele>158.732544</ele>
<time>2011-10-11T09:27:23Z</time>
<desc>lat.=44.632782, lon.=33.861000, Alt.=158.732544m. Speed=0.648000m/h.</desc>
<speed>0.180000</speed>
</trkpt>
<trkpt lat="44.632790" lon="33.861008">
<ele>159.166138</ele>
<time>2011-10-11T09:27:28Z</time>
<desc>lat.=44.632790, lon.=33.861008, Alt.=159.166138m. Speed=0.684000m/h.</desc>
<speed>0.190000</speed>
</trkpt>
<trkpt lat="44.632793" lon="33.861019">
<ele>159.584106</ele>
<time>2011-10-11T09:27:33Z</time>
<desc>lat.=44.632793, lon.=33.861019, Alt.=159.584106m. Speed=0.720000m/h.</desc>
<speed>0.200000</speed>
</trkpt>
<trkpt lat="44.632801" lon="33.861027">
<ele>160.009888</ele>
<time>2011-10-11T09:27:38Z</time>
<desc>lat.=44.632801, lon.=33.861027, Alt.=160.009888m. Speed=0.612000m/h.</desc>
<speed>0.170000</speed>
</trkpt>
<trkpt lat="44.632805" lon="33.861034">
<ele>160.427856</ele>
<time>2011-10-11T09:27:43Z</time>
<desc>lat.=44.632805, lon.=33.861034, Alt.=160.427856m. Speed=0.396000m/h.</desc>
<speed>0.110000</speed>
</trkpt>
<trkpt lat="44.632809" lon="33.861038">
<ele>160.838013</ele>
<time>2011-10-11T09:27:48Z</time>
<desc>lat.=44.632809, lon.=33.861038, Alt.=160.838013m. Speed=0.144000m/h.</desc>
<speed>0.040000</speed>
</trkpt>
<trkpt lat="44.632805" lon="33.861034">
<ele>161.248169</ele>
<time>2011-10-11T09:27:53Z</time>
<desc>lat.=44.632805, lon.=33.861034, Alt.=161.248169m. Speed=0.468000m/h.</desc>
<speed>0.130000</speed>
</trkpt>
<trkpt lat="44.632797" lon="33.861034">
<ele>161.658325</ele>
<time>2011-10-11T09:27:58Z</time>
<desc>lat.=44.632797, lon.=33.861034, Alt.=161.658325m. Speed=0.540000m/h.</desc>
<speed>0.150000</speed>
</trkpt>
<trkpt lat="44.632790" lon="33.861031">
<ele>162.064575</ele>
<time>2011-10-11T09:28:03Z</time>
<desc>lat.=44.632790, lon.=33.861031, Alt.=162.064575m. Speed=0.540000m/h.</desc>
<speed>0.150000</speed>
</trkpt>
<trkpt lat="44.632786" lon="33.861027">
<ele>162.466919</ele>
<time>2011-10-11T09:28:08Z</time>
<desc>lat.=44.632786, lon.=33.861027, Alt.=162.466919m. Speed=0.180000m/h.</desc>
<speed>0.050000</speed>
</trkpt>
<trkpt lat="44.632782" lon="33.861027">
<ele>162.865356</ele>
<time>2011-10-11T09:28:13Z</time>
<desc>lat.=44.632782, lon.=33.861027, Alt.=162.865356m. Speed=0.000000m/h.</desc>
<speed>0.000000</speed>
</trkpt>
<trkpt lat="44.632782" lon="33.861031">
<ele>163.267700</ele>
<time>2011-10-11T09:28:18Z</time>
<desc>lat.=44.632782, lon.=33.861031, Alt.=163.267700m. Speed=0.144000m/h.</desc>
<speed>0.040000</speed>
</trkpt>
<trkpt lat="44.632786" lon="33.861031">
<ele>163.658325</ele>
<time>2011-10-11T09:28:23Z</time>
<desc>lat.=44.632786, lon.=33.861031, Alt.=163.658325m. Speed=0.396000m/h.</desc>
<speed>0.110000</speed>
</trkpt>
<trkpt lat="44.632793" lon="33.861031">
<ele>164.045044</ele>
<time>2011-10-11T09:28:28Z</time>
<desc>lat.=44.632793, lon.=33.861031, Alt.=164.045044m. Speed=0.396000m/h.</desc>
<speed>0.110000</speed>
</trkpt>
<trkpt lat="44.632801" lon="33.861031">
<ele>164.431763</ele>
<time>2011-10-11T09:28:33Z</time>
<desc>lat.=44.632801, lon.=33.861031, Alt.=164.431763m. Speed=0.576000m/h.</desc>
<speed>0.160000</speed>
</trkpt>
<trkpt lat="44.632809" lon="33.861031">
<ele>164.806763</ele>
<time>2011-10-11T09:28:38Z</time>
<desc>lat.=44.632809, lon.=33.861031, Alt.=164.806763m. Speed=0.684000m/h.</desc>
<speed>0.190000</speed>
</trkpt>
<trkpt lat="44.632816" lon="33.861031">
<ele>165.170044</ele>
<time>2011-10-11T09:28:43Z</time>
<desc>lat.=44.632816, lon.=33.861031, Alt.=165.170044m. Speed=0.684000m/h.</desc>
<speed>0.190000</speed>
</trkpt>
<trkpt lat="44.632824" lon="33.861027">
<ele>165.525513</ele>
<time>2011-10-11T09:28:48Z</time>
<desc>lat.=44.632824, lon.=33.861027, Alt.=165.525513m. Speed=0.540000m/h.</desc>
<speed>0.150000</speed>
</trkpt>
<trkpt lat="44.632828" lon="33.861023">
<ele>165.787231</ele>
<time>2011-10-11T09:28:53Z</time>
<desc>lat.=44.632828, lon.=33.861023, Alt.=165.787231m. Speed=0.288000m/h.</desc>
<speed>0.080000</speed>
</trkpt>
<trkpt lat="44.632820" lon="33.861027">
<ele>165.849731</ele>
<time>2011-10-11T09:28:58Z</time>
<desc>lat.=44.632820, lon.=33.861027, Alt.=165.849731m. Speed=0.432000m/h.</desc>
<speed>0.120000</speed>
</trkpt>
<trkpt lat="44.632828" lon="33.861031">
<ele>165.834106</ele>
<time>2011-10-11T09:29:03Z</time>
<desc>lat.=44.632828, lon.=33.861031, Alt.=165.834106m. Speed=0.828000m/h.</desc>
<speed>0.230000</speed>
</trkpt>
<trkpt lat="44.632847" lon="33.861019">
<ele>165.318481</ele>
<time>2011-10-11T09:29:08Z</time>
<desc>lat.=44.632847, lon.=33.861019, Alt.=165.318481m. Speed=1.656000m/h.</desc>
<speed>0.460000</speed>
</trkpt>
<trkpt lat="44.632862" lon="33.861023">
<ele>164.599731</ele>
<time>2011-10-11T09:29:13Z</time>
<desc>lat.=44.632862, lon.=33.861023, Alt.=164.599731m. Speed=1.116000m/h.</desc>
<speed>0.310000</speed>
</trkpt>
<trkpt lat="44.632912" lon="33.861023">
<ele>163.634888</ele>
<time>2011-10-11T09:29:18Z</time>
<desc>lat.=44.632912, lon.=33.861023, Alt.=163.634888m. Speed=1.764000m/h.</desc>
<speed>0.490000</speed>
</trkpt>
<trkpt lat="44.632912" lon="33.861008">
<ele>163.166138</ele>
<time>2011-10-11T09:29:23Z</time>
<desc>lat.=44.632912, lon.=33.861008, Alt.=163.166138m. Speed=1.224000m/h.</desc>
<speed>0.340000</speed>
</trkpt>
<trkpt lat="44.632900" lon="33.861023">
<ele>162.744263</ele>
<time>2011-10-11T09:29:28Z</time>
<desc>lat.=44.632900, lon.=33.861023, Alt.=162.744263m. Speed=0.396000m/h.</desc>
<speed>0.110000</speed>
</trkpt>
<trkpt lat="44.632904" lon="33.861019">
<ele>162.634888</ele>
<time>2011-10-11T09:29:33Z</time>
<desc>lat.=44.632904, lon.=33.861019, Alt.=162.634888m. Speed=0.288000m/h.</desc>
<speed>0.080000</speed>
</trkpt>
<trkpt lat="44.632908" lon="33.861015">
<ele>162.509888</ele>
<time>2011-10-11T09:29:38Z</time>
<desc>lat.=44.632908, lon.=33.861015, Alt.=162.509888m. Speed=0.324000m/h.</desc>
<speed>0.090000</speed>
</trkpt>
<trkpt lat="44.632904" lon="33.861012">
<ele>162.377075</ele>
<time>2011-10-11T09:29:43Z</time>
<desc>lat.=44.632904, lon.=33.861012, Alt.=162.377075m. Speed=0.144000m/h.</desc>
<speed>0.040000</speed>
</trkpt>
<trkpt lat="44.632908" lon="33.861008">
<ele>162.224731</ele>
<time>2011-10-11T09:29:48Z</time>
<desc>lat.=44.632908, lon.=33.861008, Alt.=162.224731m. Speed=0.288000m/h.</desc>
<speed>0.080000</speed>
</trkpt>
<trkpt lat="44.632908" lon="33.861004">
<ele>162.033325</ele>
<time>2011-10-11T09:29:53Z</time>
<desc>lat.=44.632908, lon.=33.861004, Alt.=162.033325m. Speed=0.216000m/h.</desc>
<speed>0.060000</speed>
</trkpt>
<trkpt lat="44.632908" lon="33.861000">
<ele>161.814575</ele>
<time>2011-10-11T09:29:58Z</time>
<desc>lat.=44.632908, lon.=33.861000, Alt.=161.814575m. Speed=0.180000m/h.</desc>
<speed>0.050000</speed>
</trkpt>
<trkpt lat="44.632904" lon="33.861000">
<ele>161.705200</ele>
<time>2011-10-11T09:30:03Z</time>
<desc>lat.=44.632904, lon.=33.861000, Alt.=161.705200m. Speed=0.144000m/h.</desc>
<speed>0.040000</speed>
</trkpt>
<trkpt lat="44.632904" lon="33.861000">
<ele>161.677856</ele>
<time>2011-10-11T09:30:08Z</time>
<desc>lat.=44.632904, lon.=33.861000, Alt.=161.677856m. Speed=0.000000m/h.</desc>
<speed>0.000000</speed>
</trkpt>
<trkpt lat="44.632904" lon="33.861000">
<ele>161.654419</ele>
<time>2011-10-11T09:30:13Z</time>
<desc>lat.=44.632904, lon.=33.861000, Alt.=161.654419m. Speed=0.180000m/h.</desc>
<speed>0.050000</speed>
</trkpt>
<trkpt lat="44.632904" lon="33.861000">
<ele>161.627075</ele>
<time>2011-10-11T09:30:18Z</time>
<desc>lat.=44.632904, lon.=33.861000, Alt.=161.627075m. Speed=0.036000m/h.</desc>
<speed>0.010000</speed>
</trkpt>
<trkpt lat="44.632904" lon="33.861004">
<ele>161.599731</ele>
<time>2011-10-11T09:30:23Z</time>
<desc>lat.=44.632904, lon.=33.861004, Alt.=161.599731m. Speed=0.036000m/h.</desc>
<speed>0.010000</speed>
</trkpt>
<trkpt lat="44.632904" lon="33.861004">
<ele>161.580200</ele>
<time>2011-10-11T09:30:28Z</time>
<desc>lat.=44.632904, lon.=33.861004, Alt.=161.580200m. Speed=0.108000m/h.</desc>
<speed>0.030000</speed>
</trkpt>
<trkpt lat="44.632900" lon="33.861004">
<ele>161.552856</ele>
<time>2011-10-11T09:30:33Z</time>
<desc>lat.=44.632900, lon.=33.861004, Alt.=161.552856m. Speed=0.180000m/h.</desc>
<speed>0.050000</speed>
</trkpt>
<trkpt lat="44.632900" lon="33.861004">
<ele>161.517700</ele>
<time>2011-10-11T09:30:38Z</time>
<desc>lat.=44.632900, lon.=33.861004, Alt.=161.517700m. Speed=0.000000m/h.</desc>
<speed>0.000000</speed>
</trkpt>
<trkpt lat="44.632900" lon="33.861004">
<ele>161.478638</ele>
<time>2011-10-11T09:30:43Z</time>
<desc>lat.=44.632900, lon.=33.861004, Alt.=161.478638m. Speed=0.036000m/h.</desc>
<speed>0.010000</speed>
</trkpt>
<trkpt lat="44.632900" lon="33.861004">
<ele>161.466919</ele>
<time>2011-10-11T09:30:48Z</time>
<desc>lat.=44.632900, lon.=33.861004, Alt.=161.466919m. Speed=0.000000m/h.</desc>
<speed>0.000000</speed>
</trkpt>
<trkpt lat="44.632900" lon="33.861004">
<ele>161.459106</ele>
<time>2011-10-11T09:30:53Z</time>
<desc>lat.=44.632900, lon.=33.861004, Alt.=161.459106m. Speed=0.036000m/h.</desc>
<speed>0.010000</speed>
</trkpt>
<trkpt lat="44.632900" lon="33.861004">
<ele>161.416138</ele>
<time>2011-10-11T09:30:58Z</time>
<desc>lat.=44.632900, lon.=33.861004, Alt.=161.416138m. Speed=0.108000m/h.</desc>
<speed>0.030000</speed>
</trkpt>
<trkpt lat="44.632900" lon="33.861004">
<ele>161.369263</ele>
<time>2011-10-11T09:31:03Z</time>
<desc>lat.=44.632900, lon.=33.861004, Alt.=161.369263m. Speed=0.180000m/h.</desc>
<speed>0.050000</speed>
</trkpt>
<trkpt lat="44.632900" lon="33.861004">
<ele>161.334106</ele>
<time>2011-10-11T09:31:08Z</time>
<desc>lat.=44.632900, lon.=33.861004, Alt.=161.334106m. Speed=0.036000m/h.</desc>
<speed>0.010000</speed>
</trkpt>
<trkpt lat="44.632900" lon="33.861004">
<ele>161.314575</ele>
<time>2011-10-11T09:31:13Z</time>
<desc>lat.=44.632900, lon.=33.861004, Alt.=161.314575m. Speed=0.036000m/h.</desc>
<speed>0.010000</speed>
</trkpt>
<trkpt lat="44.632900" lon="33.861004">
<ele>161.279419</ele>
<time>2011-10-11T09:31:18Z</time>
<desc>lat.=44.632900, lon.=33.861004, Alt.=161.279419m. Speed=0.252000m/h.</desc>
<speed>0.070000</speed>
</trkpt>
<trkpt lat="44.632900" lon="33.861004">
<ele>161.259888</ele>
<time>2011-10-11T09:31:23Z</time>
<desc>lat.=44.632900, lon.=33.861004, Alt.=161.259888m. Speed=0.036000m/h.</desc>
<speed>0.010000</speed>
</trkpt>
<trkpt lat="44.632900" lon="33.861004">
<ele>161.244263</ele>
<time>2011-10-11T09:31:28Z</time>
<desc>lat.=44.632900, lon.=33.861004, Alt.=161.244263m. Speed=0.036000m/h.</desc>
<speed>0.010000</speed>
</trkpt>
<trkpt lat="44.632900" lon="33.861004">
<ele>161.216919</ele>
<time>2011-10-11T09:31:33Z</time>
<desc>lat.=44.632900, lon.=33.861004, Alt.=161.216919m. Speed=0.144000m/h.</desc>
<speed>0.040000</speed>
</trkpt>
<trkpt lat="44.632900" lon="33.861004">
<ele>161.170044</ele>
<time>2011-10-11T09:31:38Z</time>
<desc>lat.=44.632900, lon.=33.861004, Alt.=161.170044m. Speed=0.144000m/h.</desc>
<speed>0.040000</speed>
</trkpt>
<trkpt lat="44.632904" lon="33.861004">
<ele>161.134888</ele>
<time>2011-10-11T09:31:43Z</time>
<desc>lat.=44.632904, lon.=33.861004, Alt.=161.134888m. Speed=0.216000m/h.</desc>
<speed>0.060000</speed>
</trkpt>
<trkpt lat="44.632904" lon="33.861004">
<ele>161.115356</ele>
<time>2011-10-11T09:31:48Z</time>
<desc>lat.=44.632904, lon.=33.861004, Alt.=161.115356m. Speed=0.036000m/h.</desc>
<speed>0.010000</speed>
</trkpt>
<trkpt lat="44.632900" lon="33.861004">
<ele>161.056763</ele>
<time>2011-10-11T09:31:53Z</time>
<desc>lat.=44.632900, lon.=33.861004, Alt.=161.056763m. Speed=0.252000m/h.</desc>
<speed>0.070000</speed>
</trkpt>
<trkpt lat="44.632900" lon="33.861004">
<ele>161.021606</ele>
<time>2011-10-11T09:31:58Z</time>
<desc>lat.=44.632900, lon.=33.861004, Alt.=161.021606m. Speed=0.072000m/h.</desc>
<speed>0.020000</speed>
</trkpt>
<trkpt lat="44.632900" lon="33.861004">
<ele>161.005981</ele>
<time>2011-10-11T09:32:03Z</time>
<desc>lat.=44.632900, lon.=33.861004, Alt.=161.005981m. Speed=0.036000m/h.</desc>
<speed>0.010000</speed>
</trkpt>
<trkpt lat="44.632900" lon="33.861004">
<ele>160.994263</ele>
<time>2011-10-11T09:32:08Z</time>
<desc>lat.=44.632900, lon.=33.861004, Alt.=160.994263m. Speed=0.036000m/h.</desc>
<speed>0.010000</speed>
</trkpt>
<trkpt lat="44.632893" lon="33.860996">
<ele>160.377075</ele>
<time>2011-10-11T09:32:13Z</time>
<desc>lat.=44.632893, lon.=33.860996, Alt.=160.377075m. Speed=0.792000m/h.</desc>
<speed>0.220000</speed>
</trkpt>
<trkpt lat="44.632896" lon="33.861000">
<ele>160.064575</ele>
<time>2011-10-11T09:32:18Z</time>
<desc>lat.=44.632896, lon.=33.861000, Alt.=160.064575m. Speed=0.216000m/h.</desc>
<speed>0.060000</speed>
</trkpt>
<trkpt lat="44.632889" lon="33.860989">
<ele>160.041138</ele>
<time>2011-10-11T09:32:23Z</time>
<desc>lat.=44.632889, lon.=33.860989, Alt.=160.041138m. Speed=0.216000m/h.</desc>
<speed>0.060000</speed>
</trkpt>
<trkpt lat="44.632896" lon="33.860981">
<ele>160.107544</ele>
<time>2011-10-11T09:32:28Z</time>
<desc>lat.=44.632896, lon.=33.860981, Alt.=160.107544m. Speed=0.540000m/h.</desc>
<speed>0.150000</speed>
</trkpt>
<trkpt lat="44.632904" lon="33.860985">
<ele>160.060669</ele>
<time>2011-10-11T09:32:33Z</time>
<desc>lat.=44.632904, lon.=33.860985, Alt.=160.060669m. Speed=1.368000m/h.</desc>
<speed>0.380000</speed>
</trkpt>
<trkpt lat="44.632912" lon="33.861019">
<ele>158.662231</ele>
<time>2011-10-11T09:32:38Z</time>
<desc>lat.=44.632912, lon.=33.861019, Alt.=158.662231m. Speed=2.556000m/h.</desc>
<speed>0.710000</speed>
</trkpt>
<trkpt lat="44.632896" lon="33.861073">
<ele>157.880981</ele>
<time>2011-10-11T09:32:43Z</time>
<desc>lat.=44.632896, lon.=33.861073, Alt.=157.880981m. Speed=3.744000m/h.</desc>
<speed>1.040000</speed>
</trkpt>
<trkpt lat="44.632896" lon="33.861076">
<ele>157.416138</ele>
<time>2011-10-11T09:32:48Z</time>
<desc>lat.=44.632896, lon.=33.861076, Alt.=157.416138m. Speed=2.916000m/h.</desc>
<speed>0.810000</speed>
</trkpt>
<trkpt lat="44.632858" lon="33.861118">
<ele>155.576294</ele>
<time>2011-10-11T09:32:53Z</time>
<desc>lat.=44.632858, lon.=33.861118, Alt.=155.576294m. Speed=0.648000m/h.</desc>
<speed>0.180000</speed>
</trkpt>
<trkpt lat="44.632835" lon="33.861095">
<ele>152.705200</ele>
<time>2011-10-11T09:32:58Z</time>
<desc>lat.=44.632835, lon.=33.861095, Alt.=152.705200m. Speed=3.672000m/h.</desc>
<speed>1.020000</speed>
</trkpt>
<trkpt lat="44.632813" lon="33.861073">
<ele>151.740356</ele>
<time>2011-10-11T09:33:03Z</time>
<desc>lat.=44.632813, lon.=33.861073, Alt.=151.740356m. Speed=0.684000m/h.</desc>
<speed>0.190000</speed>
</trkpt>
<trkpt lat="44.632809" lon="33.861065">
<ele>151.052856</ele>
<time>2011-10-11T09:33:08Z</time>
<desc>lat.=44.632809, lon.=33.861065, Alt.=151.052856m. Speed=0.252000m/h.</desc>
<speed>0.070000</speed>
</trkpt>
<trkpt lat="44.632797" lon="33.861080">
<ele>148.681763</ele>
<time>2011-10-11T09:33:13Z</time>
<desc>lat.=44.632797, lon.=33.861080, Alt.=148.681763m. Speed=0.720000m/h.</desc>
<speed>0.200000</speed>
</trkpt>
<trkpt lat="44.632809" lon="33.861080">
<ele>147.670044</ele>
<time>2011-10-11T09:33:18Z</time>
<desc>lat.=44.632809, lon.=33.861080, Alt.=147.670044m. Speed=0.036000m/h.</desc>
<speed>0.010000</speed>
</trkpt>
<trkpt lat="44.632813" lon="33.861080">
<ele>146.431763</ele>
<time>2011-10-11T09:33:23Z</time>
<desc>lat.=44.632813, lon.=33.861080, Alt.=146.431763m. Speed=0.720000m/h.</desc>
<speed>0.200000</speed>
</trkpt>
<trkpt lat="44.632824" lon="33.861080">
<ele>144.736450</ele>
<time>2011-10-11T09:33:28Z</time>
<desc>lat.=44.632824, lon.=33.861080, Alt.=144.736450m. Speed=0.576000m/h.</desc>
<speed>0.160000</speed>
</trkpt>
<trkpt lat="44.632835" lon="33.861080">
<ele>143.814575</ele>
<time>2011-10-11T09:33:33Z</time>
<desc>lat.=44.632835, lon.=33.861080, Alt.=143.814575m. Speed=1.836000m/h.</desc>
<speed>0.510000</speed>
</trkpt>
<trkpt lat="44.632839" lon="33.861080">
<ele>142.802856</ele>
<time>2011-10-11T09:33:38Z</time>
<desc>lat.=44.632839, lon.=33.861080, Alt.=142.802856m. Speed=0.144000m/h.</desc>
<speed>0.040000</speed>
</trkpt>
<trkpt lat="44.632839" lon="33.861076">
<ele>142.545044</ele>
<time>2011-10-11T09:33:43Z</time>
<desc>lat.=44.632839, lon.=33.861076, Alt.=142.545044m. Speed=0.324000m/h.</desc>
<speed>0.090000</speed>
</trkpt>
<trkpt lat="44.632839" lon="33.861080">
<ele>142.209106</ele>
<time>2011-10-11T09:33:48Z</time>
<desc>lat.=44.632839, lon.=33.861080, Alt.=142.209106m. Speed=1.224000m/h.</desc>
<speed>0.340000</speed>
</trkpt>
<trkpt lat="44.632809" lon="33.861076">
<ele>142.076294</ele>
<time>2011-10-11T09:33:53Z</time>
<desc>lat.=44.632809, lon.=33.861076, Alt.=142.076294m. Speed=1.008000m/h.</desc>
<speed>0.280000</speed>
</trkpt>
<trkpt lat="44.632797" lon="33.861080">
<ele>142.111450</ele>
<time>2011-10-11T09:33:58Z</time>
<desc>lat.=44.632797, lon.=33.861080, Alt.=142.111450m. Speed=0.684000m/h.</desc>
<speed>0.190000</speed>
</trkpt>
<trkpt lat="44.632797" lon="33.861076">
<ele>142.220825</ele>
<time>2011-10-11T09:34:03Z</time>
<desc>lat.=44.632797, lon.=33.861076, Alt.=142.220825m. Speed=0.036000m/h.</desc>
<speed>0.010000</speed>
</trkpt>
<trkpt lat="44.632797" lon="33.861080">
<ele>142.201294</ele>
<time>2011-10-11T09:34:08Z</time>
<desc>lat.=44.632797, lon.=33.861080, Alt.=142.201294m. Speed=0.036000m/h.</desc>
<speed>0.010000</speed>
</trkpt>
<trkpt lat="44.632797" lon="33.861080">
<ele>142.166138</ele>
<time>2011-10-11T09:34:13Z</time>
<desc>lat.=44.632797, lon.=33.861080, Alt.=142.166138m. Speed=0.144000m/h.</desc>
<speed>0.040000</speed>
</trkpt>
<trkpt lat="44.632797" lon="33.861080">
<ele>142.166138</ele>
<time>2011-10-11T09:34:18Z</time>
<desc>lat.=44.632797, lon.=33.861080, Alt.=142.166138m. Speed=0.036000m/h.</desc>
<speed>0.010000</speed>
</trkpt>
<trkpt lat="44.632797" lon="33.861080">
<ele>142.170044</ele>
<time>2011-10-11T09:34:23Z</time>
<desc>lat.=44.632797, lon.=33.861080, Alt.=142.170044m. Speed=0.072000m/h.</desc>
<speed>0.020000</speed>
</trkpt>
<trkpt lat="44.632797" lon="33.861080">
<ele>142.166138</ele>
<time>2011-10-11T09:34:28Z</time>
<desc>lat.=44.632797, lon.=33.861080, Alt.=142.166138m. Speed=1.080000m/h.</desc>
<speed>0.300000</speed>
</trkpt>
<trkpt lat="44.632793" lon="33.861080">
<ele>142.037231</ele>
<time>2011-10-11T09:34:33Z</time>
<desc>lat.=44.632793, lon.=33.861080, Alt.=142.037231m. Speed=0.036000m/h.</desc>
<speed>0.010000</speed>
</trkpt>
<trkpt lat="44.632793" lon="33.861080">
<ele>141.470825</ele>
<time>2011-10-11T09:34:38Z</time>
<desc>lat.=44.632793, lon.=33.861080, Alt.=141.470825m. Speed=0.432000m/h.</desc>
<speed>0.120000</speed>
</trkpt>
<trkpt lat="44.632778" lon="33.861084">
<ele>141.142700</ele>
<time>2011-10-11T09:34:43Z</time>
<desc>lat.=44.632778, lon.=33.861084, Alt.=141.142700m. Speed=0.000000m/h.</desc>
<speed>0.000000</speed>
</trkpt>
<trkpt lat="44.632778" lon="33.861084">
<ele>141.119263</ele>
<time>2011-10-11T09:34:48Z</time>
<desc>lat.=44.632778, lon.=33.861084, Alt.=141.119263m. Speed=0.000000m/h.</desc>
<speed>0.000000</speed>
</trkpt>
<trkpt lat="44.632778" lon="33.861080">
<ele>141.091919</ele>
<time>2011-10-11T09:34:53Z</time>
<desc>lat.=44.632778, lon.=33.861080, Alt.=141.091919m. Speed=0.072000m/h.</desc>
<speed>0.020000</speed>
</trkpt>
<trkpt lat="44.632778" lon="33.861084">
<ele>141.072388</ele>
<time>2011-10-11T09:34:58Z</time>
<desc>lat.=44.632778, lon.=33.861084, Alt.=141.072388m. Speed=0.468000m/h.</desc>
<speed>0.130000</speed>
</trkpt>
<trkpt lat="44.632782" lon="33.861080">
<ele>141.127075</ele>
<time>2011-10-11T09:35:03Z</time>
<desc>lat.=44.632782, lon.=33.861080, Alt.=141.127075m. Speed=0.036000m/h.</desc>
<speed>0.010000</speed>
</trkpt>
<trkpt lat="44.632782" lon="33.861080">
<ele>141.091919</ele>
<time>2011-10-11T09:35:08Z</time>
<desc>lat.=44.632782, lon.=33.861080, Alt.=141.091919m. Speed=0.036000m/h.</desc>
<speed>0.010000</speed>
</trkpt>
<trkpt lat="44.632790" lon="33.861073">
<ele>140.318481</ele>
<time>2011-10-11T09:35:13Z</time>
<desc>lat.=44.632790, lon.=33.861073, Alt.=140.318481m. Speed=1.836000m/h.</desc>
<speed>0.510000</speed>
</trkpt>
<trkpt lat="44.632793" lon="33.861076">
<ele>139.822388</ele>
<time>2011-10-11T09:35:18Z</time>
<desc>lat.=44.632793, lon.=33.861076, Alt.=139.822388m. Speed=0.072000m/h.</desc>
<speed>0.020000</speed>
</trkpt>
<trkpt lat="44.632793" lon="33.861076">
<ele>139.830200</ele>
<time>2011-10-11T09:35:23Z</time>
<desc>lat.=44.632793, lon.=33.861076, Alt.=139.830200m. Speed=0.000000m/h.</desc>
<speed>0.000000</speed>
</trkpt>
<trkpt lat="44.632793" lon="33.861076">
<ele>139.826294</ele>
<time>2011-10-11T09:35:28Z</time>
<desc>lat.=44.632793, lon.=33.861076, Alt.=139.826294m. Speed=0.108000m/h.</desc>
<speed>0.030000</speed>
</trkpt>
<trkpt lat="44.632793" lon="33.861076">
<ele>139.787231</ele>
<time>2011-10-11T09:35:33Z</time>
<desc>lat.=44.632793, lon.=33.861076, Alt.=139.787231m. Speed=0.036000m/h.</desc>
<speed>0.010000</speed>
</trkpt>
<trkpt lat="44.632793" lon="33.861073">
<ele>139.713013</ele>
<time>2011-10-11T09:35:38Z</time>
<desc>lat.=44.632793, lon.=33.861073, Alt.=139.713013m. Speed=0.684000m/h.</desc>
<speed>0.190000</speed>
</trkpt>
<trkpt lat="44.632793" lon="33.861073">
<ele>139.681763</ele>
<time>2011-10-11T09:35:43Z</time>
<desc>lat.=44.632793, lon.=33.861073, Alt.=139.681763m. Speed=0.036000m/h.</desc>
<speed>0.010000</speed>
</trkpt>
<trkpt lat="44.632793" lon="33.861073">
<ele>139.681763</ele>
<time>2011-10-11T09:35:48Z</time>
<desc>lat.=44.632793, lon.=33.861073, Alt.=139.681763m. Speed=0.036000m/h.</desc>
<speed>0.010000</speed>
</trkpt>
<trkpt lat="44.632793" lon="33.861069">
<ele>139.173950</ele>
<time>2011-10-11T09:35:53Z</time>
<desc>lat.=44.632793, lon.=33.861069, Alt.=139.173950m. Speed=0.252000m/h.</desc>
<speed>0.070000</speed>
</trkpt>
<trkpt lat="44.632793" lon="33.861073">
<ele>138.615356</ele>
<time>2011-10-11T09:35:58Z</time>
<desc>lat.=44.632793, lon.=33.861073, Alt.=138.615356m. Speed=0.180000m/h.</desc>
<speed>0.050000</speed>
</trkpt>
<trkpt lat="44.632793" lon="33.861073">
<ele>138.677856</ele>
<time>2011-10-11T09:36:03Z</time>
<desc>lat.=44.632793, lon.=33.861073, Alt.=138.677856m. Speed=0.036000m/h.</desc>
<speed>0.010000</speed>
</trkpt>
<trkpt lat="44.632793" lon="33.861073">
<ele>138.650513</ele>
<time>2011-10-11T09:36:08Z</time>
<desc>lat.=44.632793, lon.=33.861073, Alt.=138.650513m. Speed=0.000000m/h.</desc>
<speed>0.000000</speed>
</trkpt>
<trkpt lat="44.632793" lon="33.861073">
<ele>138.627075</ele>
<time>2011-10-11T09:36:13Z</time>
<desc>lat.=44.632793, lon.=33.861073, Alt.=138.627075m. Speed=0.072000m/h.</desc>
<speed>0.020000</speed>
</trkpt>
<trkpt lat="44.632793" lon="33.861073">
<ele>138.654419</ele>
<time>2011-10-11T09:36:18Z</time>
<desc>lat.=44.632793, lon.=33.861073, Alt.=138.654419m. Speed=0.072000m/h.</desc>
<speed>0.020000</speed>
</trkpt>
<trkpt lat="44.632793" lon="33.861073">
<ele>138.662231</ele>
<time>2011-10-11T09:36:23Z</time>
<desc>lat.=44.632793, lon.=33.861073, Alt.=138.662231m. Speed=0.828000m/h.</desc>
<speed>0.230000</speed>
</trkpt>
<trkpt lat="44.632790" lon="33.861069">
<ele>138.525513</ele>
<time>2011-10-11T09:36:28Z</time>
<desc>lat.=44.632790, lon.=33.861069, Alt.=138.525513m. Speed=0.072000m/h.</desc>
<speed>0.020000</speed>
</trkpt>
<trkpt lat="44.632790" lon="33.861065">
<ele>138.545044</ele>
<time>2011-10-11T09:36:33Z</time>
<desc>lat.=44.632790, lon.=33.861065, Alt.=138.545044m. Speed=0.036000m/h.</desc>
<speed>0.010000</speed>
</trkpt>
<trkpt lat="44.632790" lon="33.861065">
<ele>138.693481</ele>
<time>2011-10-11T09:36:38Z</time>
<desc>lat.=44.632790, lon.=33.861065, Alt.=138.693481m. Speed=0.072000m/h.</desc>
<speed>0.020000</speed>
</trkpt>
<trkpt lat="44.632790" lon="33.861065">
<ele>138.693481</ele>
<time>2011-10-11T09:36:43Z</time>
<desc>lat.=44.632790, lon.=33.861065, Alt.=138.693481m. Speed=0.000000m/h.</desc>
<speed>0.000000</speed>
</trkpt>
<trkpt lat="44.632790" lon="33.861065">
<ele>138.677856</ele>
<time>2011-10-11T09:36:48Z</time>
<desc>lat.=44.632790, lon.=33.861065, Alt.=138.677856m. Speed=0.000000m/h.</desc>
<speed>0.000000</speed>
</trkpt>
<trkpt lat="44.632786" lon="33.861065">
<ele>138.662231</ele>
<time>2011-10-11T09:36:53Z</time>
<desc>lat.=44.632786, lon.=33.861065, Alt.=138.662231m. Speed=0.072000m/h.</desc>
<speed>0.020000</speed>
</trkpt>
<trkpt lat="44.632786" lon="33.861065">
<ele>138.650513</ele>
<time>2011-10-11T09:36:58Z</time>
<desc>lat.=44.632786, lon.=33.861065, Alt.=138.650513m. Speed=0.108000m/h.</desc>
<speed>0.030000</speed>
</trkpt>
<trkpt lat="44.632790" lon="33.861065">
<ele>138.646606</ele>
<time>2011-10-11T09:37:03Z</time>
<desc>lat.=44.632790, lon.=33.861065, Alt.=138.646606m. Speed=1.188000m/h.</desc>
<speed>0.330000</speed>
</trkpt>
<trkpt lat="44.632793" lon="33.861061">
<ele>137.904419</ele>
<time>2011-10-11T09:37:08Z</time>
<desc>lat.=44.632793, lon.=33.861061, Alt.=137.904419m. Speed=0.144000m/h.</desc>
<speed>0.040000</speed>
</trkpt>
<trkpt lat="44.632793" lon="33.861061">
<ele>137.904419</ele>
<time>2011-10-11T09:37:13Z</time>
<desc>lat.=44.632793, lon.=33.861061, Alt.=137.904419m. Speed=0.072000m/h.</desc>
<speed>0.020000</speed>
</trkpt>
<trkpt lat="44.632793" lon="33.861061">
<ele>137.892700</ele>
<time>2011-10-11T09:37:18Z</time>
<desc>lat.=44.632793, lon.=33.861061, Alt.=137.892700m. Speed=0.216000m/h.</desc>
<speed>0.060000</speed>
</trkpt>
<trkpt lat="44.632793" lon="33.861065">
<ele>137.693481</ele>
<time>2011-10-11T09:37:23Z</time>
<desc>lat.=44.632793, lon.=33.861065, Alt.=137.693481m. Speed=0.972000m/h.</desc>
<speed>0.270000</speed>
</trkpt>
<trkpt lat="44.632793" lon="33.861069">
<ele>137.392700</ele>
<time>2011-10-11T09:37:28Z</time>
<desc>lat.=44.632793, lon.=33.861069, Alt.=137.392700m. Speed=0.252000m/h.</desc>
<speed>0.070000</speed>
</trkpt>
<trkpt lat="44.632797" lon="33.861073">
<ele>137.420044</ele>
<time>2011-10-11T09:37:33Z</time>
<desc>lat.=44.632797, lon.=33.861073, Alt.=137.420044m. Speed=0.180000m/h.</desc>
<speed>0.050000</speed>
</trkpt>
<trkpt lat="44.632813" lon="33.861069">
<ele>137.357544</ele>
<time>2011-10-11T09:37:38Z</time>
<desc>lat.=44.632813, lon.=33.861069, Alt.=137.357544m. Speed=2.124000m/h.</desc>
<speed>0.590000</speed>
</trkpt>
<trkpt lat="44.632835" lon="33.861092">
<ele>139.533325</ele>
<time>2011-10-11T09:37:43Z</time>
<desc>lat.=44.632835, lon.=33.861092, Alt.=139.533325m. Speed=2.232000m/h.</desc>
<speed>0.620000</speed>
</trkpt>
<trkpt lat="44.632824" lon="33.861092">
<ele>142.478638</ele>
<time>2011-10-11T09:37:48Z</time>
<desc>lat.=44.632824, lon.=33.861092, Alt.=142.478638m. Speed=0.540000m/h.</desc>
<speed>0.150000</speed>
</trkpt>
<trkpt lat="44.632828" lon="33.861088">
<ele>142.494263</ele>
<time>2011-10-11T09:37:53Z</time>
<desc>lat.=44.632828, lon.=33.861088, Alt.=142.494263m. Speed=0.252000m/h.</desc>
<speed>0.070000</speed>
</trkpt>
<trkpt lat="44.632824" lon="33.861088">
<ele>142.697388</ele>
<time>2011-10-11T09:37:58Z</time>
<desc>lat.=44.632824, lon.=33.861088, Alt.=142.697388m. Speed=0.288000m/h.</desc>
<speed>0.080000</speed>
</trkpt>
<trkpt lat="44.632828" lon="33.861088">
<ele>142.795044</ele>
<time>2011-10-11T09:38:03Z</time>
<desc>lat.=44.632828, lon.=33.861088, Alt.=142.795044m. Speed=0.252000m/h.</desc>
<speed>0.070000</speed>
</trkpt>
<trkpt lat="44.632828" lon="33.861088">
<ele>142.838013</ele>
<time>2011-10-11T09:38:08Z</time>
<desc>lat.=44.632828, lon.=33.861088, Alt.=142.838013m. Speed=0.648000m/h.</desc>
<speed>0.180000</speed>
</trkpt>
<trkpt lat="44.632832" lon="33.861095">
<ele>142.845825</ele>
<time>2011-10-11T09:38:13Z</time>
<desc>lat.=44.632832, lon.=33.861095, Alt.=142.845825m. Speed=0.144000m/h.</desc>
<speed>0.040000</speed>
</trkpt>
<trkpt lat="44.632832" lon="33.861092">
<ele>142.849731</ele>
<time>2011-10-11T09:38:18Z</time>
<desc>lat.=44.632832, lon.=33.861092, Alt.=142.849731m. Speed=0.468000m/h.</desc>
<speed>0.130000</speed>
</trkpt>
<trkpt lat="44.632832" lon="33.861088">
<ele>142.857544</ele>
<time>2011-10-11T09:38:23Z</time>
<desc>lat.=44.632832, lon.=33.861088, Alt.=142.857544m. Speed=0.432000m/h.</desc>
<speed>0.120000</speed>
</trkpt>
<trkpt lat="44.632828" lon="33.861095">
<ele>142.865356</ele>
<time>2011-10-11T09:38:28Z</time>
<desc>lat.=44.632828, lon.=33.861095, Alt.=142.865356m. Speed=0.468000m/h.</desc>
<speed>0.130000</speed>
</trkpt>
<trkpt lat="44.632816" lon="33.861088">
<ele>142.834106</ele>
<time>2011-10-11T09:38:33Z</time>
<desc>lat.=44.632816, lon.=33.861088, Alt.=142.834106m. Speed=1.548000m/h.</desc>
<speed>0.430000</speed>
</trkpt>
<trkpt lat="44.632797" lon="33.861073">
<ele>142.670044</ele>
<time>2011-10-11T09:38:38Z</time>
<desc>lat.=44.632797, lon.=33.861073, Alt.=142.670044m. Speed=1.368000m/h.</desc>
<speed>0.380000</speed>
</trkpt>
<trkpt lat="44.632790" lon="33.861092">
<ele>142.509888</ele>
<time>2011-10-11T09:38:43Z</time>
<desc>lat.=44.632790, lon.=33.861092, Alt.=142.509888m. Speed=0.504000m/h.</desc>
<speed>0.140000</speed>
</trkpt>
<trkpt lat="44.632790" lon="33.861095">
<ele>142.498169</ele>
<time>2011-10-11T09:38:48Z</time>
<desc>lat.=44.632790, lon.=33.861095, Alt.=142.498169m. Speed=0.288000m/h.</desc>
<speed>0.080000</speed>
</trkpt>
<trkpt lat="44.632801" lon="33.861103">
<ele>142.545044</ele>
<time>2011-10-11T09:38:53Z</time>
<desc>lat.=44.632801, lon.=33.861103, Alt.=142.545044m. Speed=0.756000m/h.</desc>
<speed>0.210000</speed>
</trkpt>
<trkpt lat="44.632828" lon="33.861141">
<ele>142.451294</ele>
<time>2011-10-11T09:38:58Z</time>
<desc>lat.=44.632828, lon.=33.861141, Alt.=142.451294m. Speed=1.548000m/h.</desc>
<speed>0.430000</speed>
</trkpt>
<trkpt lat="44.632816" lon="33.861229">
<ele>142.185669</ele>
<time>2011-10-11T09:39:03Z</time>
<desc>lat.=44.632816, lon.=33.861229, Alt.=142.185669m. Speed=7.956000m/h.</desc>
<speed>2.210000</speed>
</trkpt>
<trkpt lat="44.632683" lon="33.861485">
<ele>142.103638</ele>
<time>2011-10-11T09:39:08Z</time>
<desc>lat.=44.632683, lon.=33.861485, Alt.=142.103638m. Speed=22.247999m/h.</desc>
<speed>6.180000</speed>
</trkpt>
<trkpt lat="44.632435" lon="33.861874">
<ele>142.002075</ele>
<time>2011-10-11T09:39:13Z</time>
<desc>lat.=44.632435, lon.=33.861874, Alt.=142.002075m. Speed=34.487999m/h.</desc>
<speed>9.580000</speed>
</trkpt>
<trkpt lat="44.632061" lon="33.862362">
<ele>141.845825</ele>
<time>2011-10-11T09:39:18Z</time>
<desc>lat.=44.632061, lon.=33.862362, Alt.=141.845825m. Speed=41.868000m/h.</desc>
<speed>11.630000</speed>
</trkpt>
<trkpt lat="44.631607" lon="33.862843">
<ele>142.103638</ele>
<time>2011-10-11T09:39:23Z</time>
<desc>lat.=44.631607, lon.=33.862843, Alt.=142.103638m. Speed=43.200001m/h.</desc>
<speed>12.000000</speed>
</trkpt>
<trkpt lat="44.631081" lon="33.863323">
<ele>141.892700</ele>
<time>2011-10-11T09:39:28Z</time>
<desc>lat.=44.631081, lon.=33.863323, Alt.=141.892700m. Speed=44.639999m/h.</desc>
<speed>12.400000</speed>
</trkpt>
<trkpt lat="44.630646" lon="33.863770">
<ele>142.002075</ele>
<time>2011-10-11T09:39:33Z</time>
<desc>lat.=44.630646, lon.=33.863770, Alt.=142.002075m. Speed=43.956001m/h.</desc>
<speed>12.210000</speed>
</trkpt>
<trkpt lat="44.630215" lon="33.864227">
<ele>142.197388</ele>
<time>2011-10-11T09:39:38Z</time>
<desc>lat.=44.630215, lon.=33.864227, Alt.=142.197388m. Speed=40.824001m/h.</desc>
<speed>11.340000</speed>
</trkpt>
<trkpt lat="44.629868" lon="33.864544">
<ele>142.427856</ele>
<time>2011-10-11T09:39:43Z</time>
<desc>lat.=44.629868, lon.=33.864544, Alt.=142.427856m. Speed=24.444000m/h.</desc>
<speed>6.790000</speed>
</trkpt>
<trkpt lat="44.629745" lon="33.864723">
<ele>142.873169</ele>
<time>2011-10-11T09:39:48Z</time>
<desc>lat.=44.629745, lon.=33.864723, Alt.=142.873169m. Speed=14.616000m/h.</desc>
<speed>4.060000</speed>
</trkpt>
<trkpt lat="44.629639" lon="33.865025">
<ele>143.978638</ele>
<time>2011-10-11T09:39:53Z</time>
<desc>lat.=44.629639, lon.=33.865025, Alt.=143.978638m. Speed=22.823999m/h.</desc>
<speed>6.340000</speed>
</trkpt>
<trkpt lat="44.629429" lon="33.865429">
<ele>144.451294</ele>
<time>2011-10-11T09:39:58Z</time>
<desc>lat.=44.629429, lon.=33.865429, Alt.=144.451294m. Speed=28.044001m/h.</desc>
<speed>7.790000</speed>
</trkpt>
<trkpt lat="44.629280" lon="33.865948">
<ele>145.939575</ele>
<time>2011-10-11T09:40:03Z</time>
<desc>lat.=44.629280, lon.=33.865948, Alt.=145.939575m. Speed=33.875999m/h.</desc>
<speed>9.410000</speed>
</trkpt>
<trkpt lat="44.629128" lon="33.866508">
<ele>147.416138</ele>
<time>2011-10-11T09:40:08Z</time>
<desc>lat.=44.629128, lon.=33.866508, Alt.=147.416138m. Speed=35.820000m/h.</desc>
<speed>9.950000</speed>
</trkpt>
<trkpt lat="44.628887" lon="33.867123">
<ele>149.111450</ele>
<time>2011-10-11T09:40:13Z</time>
<desc>lat.=44.628887, lon.=33.867123, Alt.=149.111450m. Speed=39.779999m/h.</desc>
<speed>11.050000</speed>
</trkpt>
<trkpt lat="44.628529" lon="33.867706">
<ele>150.658325</ele>
<time>2011-10-11T09:40:18Z</time>
<desc>lat.=44.628529, lon.=33.867706, Alt.=150.658325m. Speed=39.816002m/h.</desc>
<speed>11.060001</speed>
</trkpt>
<trkpt lat="44.628132" lon="33.868198">
<ele>151.920044</ele>
<time>2011-10-11T09:40:23Z</time>
<desc>lat.=44.628132, lon.=33.868198, Alt.=151.920044m. Speed=42.948002m/h.</desc>
<speed>11.930001</speed>
</trkpt>
<trkpt lat="44.627689" lon="33.868626">
<ele>153.170044</ele>
<time>2011-10-11T09:40:28Z</time>
<desc>lat.=44.627689, lon.=33.868626, Alt.=153.170044m. Speed=42.372002m/h.</desc>
<speed>11.770000</speed>
</trkpt>
<trkpt lat="44.627186" lon="33.869030">
<ele>154.564575</ele>
<time>2011-10-11T09:40:33Z</time>
<desc>lat.=44.627186, lon.=33.869030, Alt.=154.564575m. Speed=45.540001m/h.</desc>
<speed>12.650000</speed>
</trkpt>
<trkpt lat="44.626659" lon="33.869427">
<ele>155.638794</ele>
<time>2011-10-11T09:40:38Z</time>
<desc>lat.=44.626659, lon.=33.869427, Alt.=155.638794m. Speed=48.023998m/h.</desc>
<speed>13.340000</speed>
</trkpt>
<trkpt lat="44.626125" lon="33.869892">
<ele>157.240356</ele>
<time>2011-10-11T09:40:43Z</time>
<desc>lat.=44.626125, lon.=33.869892, Alt.=157.240356m. Speed=47.448002m/h.</desc>
<speed>13.180001</speed>
</trkpt>
<trkpt lat="44.625599" lon="33.870365">
<ele>158.931763</ele>
<time>2011-10-11T09:40:48Z</time>
<desc>lat.=44.625599, lon.=33.870365, Alt.=158.931763m. Speed=50.616001m/h.</desc>
<speed>14.060000</speed>
</trkpt>
<trkpt lat="44.625088" lon="33.870876">
<ele>159.830200</ele>
<time>2011-10-11T09:40:53Z</time>
<desc>lat.=44.625088, lon.=33.870876, Alt.=159.830200m. Speed=49.104000m/h.</desc>
<speed>13.640000</speed>
</trkpt>
<trkpt lat="44.624561" lon="33.871216">
<ele>161.185669</ele>
<time>2011-10-11T09:40:58Z</time>
<desc>lat.=44.624561, lon.=33.871216, Alt.=161.185669m. Speed=44.099998m/h.</desc>
<speed>12.250000</speed>
</trkpt>
<trkpt lat="44.624054" lon="33.871513">
<ele>161.650513</ele>
<time>2011-10-11T09:41:03Z</time>
<desc>lat.=44.624054, lon.=33.871513, Alt.=161.650513m. Speed=47.952000m/h.</desc>
<speed>13.320000</speed>
</trkpt>
<trkpt lat="44.623619" lon="33.872101">
<ele>162.369263</ele>
<time>2011-10-11T09:41:08Z</time>
<desc>lat.=44.623619, lon.=33.872101, Alt.=162.369263m. Speed=49.284000m/h.</desc>
<speed>13.690000</speed>
</trkpt>
<trkpt lat="44.623344" lon="33.872890">
<ele>164.326294</ele>
<time>2011-10-11T09:41:13Z</time>
<desc>lat.=44.623344, lon.=33.872890, Alt.=164.326294m. Speed=46.944000m/h.</desc>
<speed>13.040000</speed>
</trkpt>
<trkpt lat="44.623055" lon="33.873726">
<ele>163.802856</ele>
<time>2011-10-11T09:41:18Z</time>
<desc>lat.=44.623055, lon.=33.873726, Alt.=163.802856m. Speed=50.183998m/h.</desc>
<speed>13.939999</speed>
</trkpt>
<trkpt lat="44.622807" lon="33.874550">
<ele>164.689575</ele>
<time>2011-10-11T09:41:23Z</time>
<desc>lat.=44.622807, lon.=33.874550, Alt.=164.689575m. Speed=50.256001m/h.</desc>
<speed>13.960000</speed>
</trkpt>
<trkpt lat="44.622566" lon="33.875301">
<ele>167.498169</ele>
<time>2011-10-11T09:41:28Z</time>
<desc>lat.=44.622566, lon.=33.875301, Alt.=167.498169m. Speed=45.287998m/h.</desc>
<speed>12.579999</speed>
</trkpt>
<trkpt lat="44.622265" lon="33.875984">
<ele>171.427856</ele>
<time>2011-10-11T09:41:33Z</time>
<desc>lat.=44.622265, lon.=33.875984, Alt.=171.427856m. Speed=44.784000m/h.</desc>
<speed>12.440000</speed>
</trkpt>
<trkpt lat="44.621956" lon="33.876648">
<ele>175.845825</ele>
<time>2011-10-11T09:41:38Z</time>
<desc>lat.=44.621956, lon.=33.876648, Alt.=175.845825m. Speed=43.164001m/h.</desc>
<speed>11.990000</speed>
</trkpt>
<trkpt lat="44.621517" lon="33.877270">
<ele>178.877075</ele>
<time>2011-10-11T09:41:43Z</time>
<desc>lat.=44.621517, lon.=33.877270, Alt.=178.877075m. Speed=51.155998m/h.</desc>
<speed>14.210000</speed>
</trkpt>
<trkpt lat="44.620934" lon="33.877811">
<ele>181.822388</ele>
<time>2011-10-11T09:41:48Z</time>
<desc>lat.=44.620934, lon.=33.877811, Alt.=181.822388m. Speed=52.056000m/h.</desc>
<speed>14.460000</speed>
</trkpt>
<trkpt lat="44.620220" lon="33.877979">
<ele>183.076294</ele>
<time>2011-10-11T09:41:53Z</time>
<desc>lat.=44.620220, lon.=33.877979, Alt.=183.076294m. Speed=53.136002m/h.</desc>
<speed>14.760000</speed>
</trkpt>
<trkpt lat="44.619606" lon="33.877728">
<ele>180.322388</ele>
<time>2011-10-11T09:41:58Z</time>
<desc>lat.=44.619606, lon.=33.877728, Alt.=180.322388m. Speed=50.256001m/h.</desc>
<speed>13.960000</speed>
</trkpt>
<trkpt lat="44.618965" lon="33.877506">
<ele>177.025513</ele>
<time>2011-10-11T09:42:03Z</time>
<desc>lat.=44.618965, lon.=33.877506, Alt.=177.025513m. Speed=50.868000m/h.</desc>
<speed>14.130000</speed>
</trkpt>
<trkpt lat="44.618294" lon="33.877472">
<ele>175.173950</ele>
<time>2011-10-11T09:42:08Z</time>
<desc>lat.=44.618294, lon.=33.877472, Alt.=175.173950m. Speed=52.919998m/h.</desc>
<speed>14.699999</speed>
</trkpt>
<trkpt lat="44.617622" lon="33.877499">
<ele>174.498169</ele>
<time>2011-10-11T09:42:13Z</time>
<desc>lat.=44.617622, lon.=33.877499, Alt.=174.498169m. Speed=53.424000m/h.</desc>
<speed>14.840000</speed>
</trkpt>
<trkpt lat="44.616974" lon="33.877777">
<ele>174.150513</ele>
<time>2011-10-11T09:42:18Z</time>
<desc>lat.=44.616974, lon.=33.877777, Alt.=174.150513m. Speed=51.875999m/h.</desc>
<speed>14.410000</speed>
</trkpt>
<trkpt lat="44.616478" lon="33.878281">
<ele>174.107544</ele>
<time>2011-10-11T09:42:23Z</time>
<desc>lat.=44.616478, lon.=33.878281, Alt.=174.107544m. Speed=46.944000m/h.</desc>
<speed>13.040000</speed>
</trkpt>
<trkpt lat="44.616192" lon="33.878975">
<ele>173.353638</ele>
<time>2011-10-11T09:42:28Z</time>
<desc>lat.=44.616192, lon.=33.878975, Alt.=173.353638m. Speed=41.004002m/h.</desc>
<speed>11.390000</speed>
</trkpt>
<trkpt lat="44.615963" lon="33.879646">
<ele>171.326294</ele>
<time>2011-10-11T09:42:33Z</time>
<desc>lat.=44.615963, lon.=33.879646, Alt.=171.326294m. Speed=39.240002m/h.</desc>
<speed>10.900000</speed>
</trkpt>
<trkpt lat="44.615704" lon="33.880241">
<ele>170.033325</ele>
<time>2011-10-11T09:42:38Z</time>
<desc>lat.=44.615704, lon.=33.880241, Alt.=170.033325m. Speed=39.023998m/h.</desc>
<speed>10.840000</speed>
</trkpt>
<trkpt lat="44.615444" lon="33.880852">
<ele>169.970825</ele>
<time>2011-10-11T09:42:43Z</time>
<desc>lat.=44.615444, lon.=33.880852, Alt.=169.970825m. Speed=41.796001m/h.</desc>
<speed>11.610000</speed>
</trkpt>
<trkpt lat="44.615128" lon="33.881458">
<ele>168.998169</ele>
<time>2011-10-11T09:42:48Z</time>
<desc>lat.=44.615128, lon.=33.881458, Alt.=168.998169m. Speed=43.883999m/h.</desc>
<speed>12.190000</speed>
</trkpt>
<trkpt lat="44.614761" lon="33.882092">
<ele>168.388794</ele>
<time>2011-10-11T09:42:53Z</time>
<desc>lat.=44.614761, lon.=33.882092, Alt.=168.388794m. Speed=45.431999m/h.</desc>
<speed>12.620000</speed>
</trkpt>
<trkpt lat="44.614388" lon="33.882740">
<ele>167.322388</ele>
<time>2011-10-11T09:42:58Z</time>
<desc>lat.=44.614388, lon.=33.882740, Alt.=167.322388m. Speed=46.619999m/h.</desc>
<speed>12.950000</speed>
</trkpt>
<trkpt lat="44.613991" lon="33.883442">
<ele>167.013794</ele>
<time>2011-10-11T09:43:03Z</time>
<desc>lat.=44.613991, lon.=33.883442, Alt.=167.013794m. Speed=52.344002m/h.</desc>
<speed>14.540000</speed>
</trkpt>
<trkpt lat="44.613594" lon="33.884224">
<ele>167.795044</ele>
<time>2011-10-11T09:43:08Z</time>
<desc>lat.=44.613594, lon.=33.884224, Alt.=167.795044m. Speed=47.952000m/h.</desc>
<speed>13.320000</speed>
</trkpt>
<trkpt lat="44.613232" lon="33.884926">
<ele>170.029419</ele>
<time>2011-10-11T09:43:13Z</time>
<desc>lat.=44.613232, lon.=33.884926, Alt.=170.029419m. Speed=47.916000m/h.</desc>
<speed>13.310000</speed>
</trkpt>
<trkpt lat="44.612732" lon="33.885391">
<ele>176.088013</ele>
<time>2011-10-11T09:43:18Z</time>
<desc>lat.=44.612732, lon.=33.885391, Alt.=176.088013m. Speed=46.296001m/h.</desc>
<speed>12.860000</speed>
</trkpt>
<trkpt lat="44.612137" lon="33.885723">
<ele>180.017700</ele>
<time>2011-10-11T09:43:23Z</time>
<desc>lat.=44.612137, lon.=33.885723, Alt.=180.017700m. Speed=48.383999m/h.</desc>
<speed>13.440000</speed>
</trkpt>
<trkpt lat="44.611530" lon="33.885986">
<ele>183.533325</ele>
<time>2011-10-11T09:43:28Z</time>
<desc>lat.=44.611530, lon.=33.885986, Alt.=183.533325m. Speed=49.571999m/h.</desc>
<speed>13.770000</speed>
</trkpt>
<trkpt lat="44.610962" lon="33.886379">
<ele>186.634888</ele>
<time>2011-10-11T09:43:33Z</time>
<desc>lat.=44.610962, lon.=33.886379, Alt.=186.634888m. Speed=52.883999m/h.</desc>
<speed>14.690000</speed>
</trkpt>
<trkpt lat="44.610386" lon="33.886925">
<ele>188.408325</ele>
<time>2011-10-11T09:43:38Z</time>
<desc>lat.=44.610386, lon.=33.886925, Alt.=188.408325m. Speed=54.792000m/h.</desc>
<speed>15.220000</speed>
</trkpt>
<trkpt lat="44.609921" lon="33.887524">
<ele>192.423950</ele>
<time>2011-10-11T09:43:43Z</time>
<desc>lat.=44.609921, lon.=33.887524, Alt.=192.423950m. Speed=49.608002m/h.</desc>
<speed>13.780000</speed>
</trkpt>
<trkpt lat="44.609692" lon="33.888294">
<ele>194.142700</ele>
<time>2011-10-11T09:43:48Z</time>
<desc>lat.=44.609692, lon.=33.888294, Alt.=194.142700m. Speed=48.348000m/h.</desc>
<speed>13.430000</speed>
</trkpt>
<trkpt lat="44.609314" lon="33.888916">
<ele>195.482544</ele>
<time>2011-10-11T09:43:53Z</time>
<desc>lat.=44.609314, lon.=33.888916, Alt.=195.482544m. Speed=46.296001m/h.</desc>
<speed>12.860000</speed>
</trkpt>
<trkpt lat="44.609074" lon="33.889656">
<ele>194.732544</ele>
<time>2011-10-11T09:43:58Z</time>
<desc>lat.=44.609074, lon.=33.889656, Alt.=194.732544m. Speed=47.411999m/h.</desc>
<speed>13.170000</speed>
</trkpt>
<trkpt lat="44.608784" lon="33.890377">
<ele>194.638794</ele>
<time>2011-10-11T09:44:03Z</time>
<desc>lat.=44.608784, lon.=33.890377, Alt.=194.638794m. Speed=44.675999m/h.</desc>
<speed>12.410000</speed>
</trkpt>
<trkpt lat="44.608471" lon="33.891045">
<ele>193.572388</ele>
<time>2011-10-11T09:44:08Z</time>
<desc>lat.=44.608471, lon.=33.891045, Alt.=193.572388m. Speed=50.292000m/h.</desc>
<speed>13.970000</speed>
</trkpt>
<trkpt lat="44.608273" lon="33.891964">
<ele>190.396606</ele>
<time>2011-10-11T09:44:13Z</time>
<desc>lat.=44.608273, lon.=33.891964, Alt.=190.396606m. Speed=52.919998m/h.</desc>
<speed>14.699999</speed>
</trkpt>
<trkpt lat="44.608013" lon="33.892883">
<ele>188.177856</ele>
<time>2011-10-11T09:44:18Z</time>
<desc>lat.=44.608013, lon.=33.892883, Alt.=188.177856m. Speed=58.248001m/h.</desc>
<speed>16.180000</speed>
</trkpt>
<trkpt lat="44.607719" lon="33.893810">
<ele>187.923950</ele>
<time>2011-10-11T09:44:23Z</time>
<desc>lat.=44.607719, lon.=33.893810, Alt.=187.923950m. Speed=54.216000m/h.</desc>
<speed>15.060000</speed>
</trkpt>
<trkpt lat="44.607361" lon="33.894661">
<ele>186.857544</ele>
<time>2011-10-11T09:44:28Z</time>
<desc>lat.=44.607361, lon.=33.894661, Alt.=186.857544m. Speed=58.212002m/h.</desc>
<speed>16.170001</speed>
</trkpt>
<trkpt lat="44.606853" lon="33.895405">
<ele>186.787231</ele>
<time>2011-10-11T09:44:33Z</time>
<desc>lat.=44.606853, lon.=33.895405, Alt.=186.787231m. Speed=57.203999m/h.</desc>
<speed>15.890000</speed>
</trkpt>
<trkpt lat="44.606194" lon="33.895885">
<ele>183.724731</ele>
<time>2011-10-11T09:44:38Z</time>
<desc>lat.=44.606194, lon.=33.895885, Alt.=183.724731m. Speed=58.355999m/h.</desc>
<speed>16.210000</speed>
</trkpt>
<trkpt lat="44.605686" lon="33.896568">
<ele>182.810669</ele>
<time>2011-10-11T09:44:43Z</time>
<desc>lat.=44.605686, lon.=33.896568, Alt.=182.810669m. Speed=54.827999m/h.</desc>
<speed>15.230000</speed>
</trkpt>
<trkpt lat="44.605209" lon="33.897285">
<ele>182.177856</ele>
<time>2011-10-11T09:44:48Z</time>
<desc>lat.=44.605209, lon.=33.897285, Alt.=182.177856m. Speed=55.043999m/h.</desc>
<speed>15.290000</speed>
</trkpt>
<trkpt lat="44.604755" lon="33.897919">
<ele>182.064575</ele>
<time>2011-10-11T09:44:53Z</time>
<desc>lat.=44.604755, lon.=33.897919, Alt.=182.064575m. Speed=49.355999m/h.</desc>
<speed>13.710000</speed>
</trkpt>
<trkpt lat="44.604374" lon="33.898575">
<ele>183.209106</ele>
<time>2011-10-11T09:44:58Z</time>
<desc>lat.=44.604374, lon.=33.898575, Alt.=183.209106m. Speed=43.883999m/h.</desc>
<speed>12.190000</speed>
</trkpt>
<trkpt lat="44.604130" lon="33.899334">
<ele>182.271606</ele>
<time>2011-10-11T09:45:03Z</time>
<desc>lat.=44.604130, lon.=33.899334, Alt.=182.271606m. Speed=46.584000m/h.</desc>
<speed>12.940000</speed>
</trkpt>
<trkpt lat="44.603931" lon="33.900112">
<ele>181.627075</ele>
<time>2011-10-11T09:45:08Z</time>
<desc>lat.=44.603931, lon.=33.900112, Alt.=181.627075m. Speed=47.051998m/h.</desc>
<speed>13.069999</speed>
</trkpt>
<trkpt lat="44.603893" lon="33.900948">
<ele>181.060669</ele>
<time>2011-10-11T09:45:13Z</time>
<desc>lat.=44.603893, lon.=33.900948, Alt.=181.060669m. Speed=47.160000m/h.</desc>
<speed>13.100000</speed>
</trkpt>
<trkpt lat="44.603561" lon="33.901554">
<ele>181.361450</ele>
<time>2011-10-11T09:45:18Z</time>
<desc>lat.=44.603561, lon.=33.901554, Alt.=181.361450m. Speed=47.771999m/h.</desc>
<speed>13.270000</speed>
</trkpt>
<trkpt lat="44.603073" lon="33.902065">
<ele>178.615356</ele>
<time>2011-10-11T09:45:23Z</time>
<desc>lat.=44.603073, lon.=33.902065, Alt.=178.615356m. Speed=51.264000m/h.</desc>
<speed>14.240000</speed>
</trkpt>
<trkpt lat="44.602570" lon="33.902573">
<ele>179.920044</ele>
<time>2011-10-11T09:45:28Z</time>
<desc>lat.=44.602570, lon.=33.902573, Alt.=179.920044m. Speed=48.276001m/h.</desc>
<speed>13.410000</speed>
</trkpt>
<trkpt lat="44.602108" lon="33.903229">
<ele>181.052856</ele>
<time>2011-10-11T09:45:33Z</time>
<desc>lat.=44.602108, lon.=33.903229, Alt.=181.052856m. Speed=55.116001m/h.</desc>
<speed>15.310000</speed>
</trkpt>
<trkpt lat="44.601650" lon="33.903934">
<ele>182.088013</ele>
<time>2011-10-11T09:45:38Z</time>
<desc>lat.=44.601650, lon.=33.903934, Alt.=182.088013m. Speed=55.655998m/h.</desc>
<speed>15.460000</speed>
</trkpt>
<trkpt lat="44.601162" lon="33.904625">
<ele>182.564575</ele>
<time>2011-10-11T09:45:43Z</time>
<desc>lat.=44.601162, lon.=33.904625, Alt.=182.564575m. Speed=58.967999m/h.</desc>
<speed>16.380000</speed>
</trkpt>
<trkpt lat="44.600719" lon="33.905434">
<ele>181.798950</ele>
<time>2011-10-11T09:45:48Z</time>
<desc>lat.=44.600719, lon.=33.905434, Alt.=181.798950m. Speed=58.320000m/h.</desc>
<speed>16.200000</speed>
</trkpt>
<trkpt lat="44.600372" lon="33.906364">
<ele>180.228638</ele>
<time>2011-10-11T09:45:53Z</time>
<desc>lat.=44.600372, lon.=33.906364, Alt.=180.228638m. Speed=56.664001m/h.</desc>
<speed>15.740000</speed>
</trkpt>
<trkpt lat="44.600082" lon="33.907242">
<ele>182.302856</ele>
<time>2011-10-11T09:45:58Z</time>
<desc>lat.=44.600082, lon.=33.907242, Alt.=182.302856m. Speed=54.540001m/h.</desc>
<speed>15.150000</speed>
</trkpt>
<trkpt lat="44.599731" lon="33.908047">
<ele>183.752075</ele>
<time>2011-10-11T09:46:03Z</time>
<desc>lat.=44.599731, lon.=33.908047, Alt.=183.752075m. Speed=52.271999m/h.</desc>
<speed>14.520000</speed>
</trkpt>
<trkpt lat="44.599319" lon="33.908741">
<ele>187.459106</ele>
<time>2011-10-11T09:46:08Z</time>
<desc>lat.=44.599319, lon.=33.908741, Alt.=187.459106m. Speed=51.012001m/h.</desc>
<speed>14.170000</speed>
</trkpt>
<trkpt lat="44.598927" lon="33.909462">
<ele>190.302856</ele>
<time>2011-10-11T09:46:13Z</time>
<desc>lat.=44.598927, lon.=33.909462, Alt.=190.302856m. Speed=51.695999m/h.</desc>
<speed>14.360000</speed>
</trkpt>
<trkpt lat="44.598377" lon="33.910069">
<ele>193.033325</ele>
<time>2011-10-11T09:46:18Z</time>
<desc>lat.=44.598377, lon.=33.910069, Alt.=193.033325m. Speed=59.040001m/h.</desc>
<speed>16.400000</speed>
</trkpt>
<trkpt lat="44.597740" lon="33.910702">
<ele>195.330200</ele>
<time>2011-10-11T09:46:23Z</time>
<desc>lat.=44.597740, lon.=33.910702, Alt.=195.330200m. Speed=64.907997m/h.</desc>
<speed>18.029999</speed>
</trkpt>
<trkpt lat="44.597145" lon="33.911388">
<ele>198.072388</ele>
<time>2011-10-11T09:46:28Z</time>
<desc>lat.=44.597145, lon.=33.911388, Alt.=198.072388m. Speed=61.271999m/h.</desc>
<speed>17.020000</speed>
</trkpt>
<trkpt lat="44.596539" lon="33.911995">
<ele>199.701294</ele>
<time>2011-10-11T09:46:33Z</time>
<desc>lat.=44.596539, lon.=33.911995, Alt.=199.701294m. Speed=56.627998m/h.</desc>
<speed>15.730000</speed>
</trkpt>
<trkpt lat="44.595905" lon="33.912380">
<ele>199.529419</ele>
<time>2011-10-11T09:46:38Z</time>
<desc>lat.=44.595905, lon.=33.912380, Alt.=199.529419m. Speed=55.007999m/h.</desc>
<speed>15.280000</speed>
</trkpt>
<trkpt lat="44.595242" lon="33.912800">
<ele>198.205200</ele>
<time>2011-10-11T09:46:43Z</time>
<desc>lat.=44.595242, lon.=33.912800, Alt.=198.205200m. Speed=59.507999m/h.</desc>
<speed>16.530000</speed>
</trkpt>
<trkpt lat="44.594715" lon="33.913357">
<ele>200.408325</ele>
<time>2011-10-11T09:46:48Z</time>
<desc>lat.=44.594715, lon.=33.913357, Alt.=200.408325m. Speed=50.076000m/h.</desc>
<speed>13.910000</speed>
</trkpt>
<trkpt lat="44.594215" lon="33.913811">
<ele>200.357544</ele>
<time>2011-10-11T09:46:53Z</time>
<desc>lat.=44.594215, lon.=33.913811, Alt.=200.357544m. Speed=44.604000m/h.</desc>
<speed>12.390000</speed>
</trkpt>
<trkpt lat="44.593746" lon="33.914108">
<ele>200.740356</ele>
<time>2011-10-11T09:46:58Z</time>
<desc>lat.=44.593746, lon.=33.914108, Alt.=200.740356m. Speed=37.080002m/h.</desc>
<speed>10.300001</speed>
</trkpt>
<trkpt lat="44.593273" lon="33.914261">
<ele>200.041138</ele>
<time>2011-10-11T09:47:03Z</time>
<desc>lat.=44.593273, lon.=33.914261, Alt.=200.041138m. Speed=34.307999m/h.</desc>
<speed>9.530000</speed>
</trkpt>
<trkpt lat="44.592876" lon="33.914497">
<ele>199.427856</ele>
<time>2011-10-11T09:47:08Z</time>
<desc>lat.=44.592876, lon.=33.914497, Alt.=199.427856m. Speed=35.891998m/h.</desc>
<speed>9.970000</speed>
</trkpt>
<trkpt lat="44.592518" lon="33.914948">
<ele>200.369263</ele>
<time>2011-10-11T09:47:13Z</time>
<desc>lat.=44.592518, lon.=33.914948, Alt.=200.369263m. Speed=42.660000m/h.</desc>
<speed>11.850000</speed>
</trkpt>
<trkpt lat="44.592171" lon="33.915501">
<ele>201.373169</ele>
<time>2011-10-11T09:47:18Z</time>
<desc>lat.=44.592171, lon.=33.915501, Alt.=201.373169m. Speed=43.812000m/h.</desc>
<speed>12.170000</speed>
</trkpt>
<trkpt lat="44.591831" lon="33.916092">
<ele>201.138794</ele>
<time>2011-10-11T09:47:23Z</time>
<desc>lat.=44.591831, lon.=33.916092, Alt.=201.138794m. Speed=45.360001m/h.</desc>
<speed>12.600000</speed>
</trkpt>
<trkpt lat="44.591484" lon="33.916725">
<ele>198.654419</ele>
<time>2011-10-11T09:47:28Z</time>
<desc>lat.=44.591484, lon.=33.916725, Alt.=198.654419m. Speed=47.231998m/h.</desc>
<speed>13.120000</speed>
</trkpt>
<trkpt lat="44.591057" lon="33.917404">
<ele>197.427856</ele>
<time>2011-10-11T09:47:33Z</time>
<desc>lat.=44.591057, lon.=33.917404, Alt.=197.427856m. Speed=51.299999m/h.</desc>
<speed>14.250000</speed>
</trkpt>
<trkpt lat="44.590641" lon="33.918056">
<ele>196.572388</ele>
<time>2011-10-11T09:47:38Z</time>
<desc>lat.=44.590641, lon.=33.918056, Alt.=196.572388m. Speed=47.916000m/h.</desc>
<speed>13.310000</speed>
</trkpt>
<trkpt lat="44.590206" lon="33.918736">
<ele>196.236450</ele>
<time>2011-10-11T09:47:43Z</time>
<desc>lat.=44.590206, lon.=33.918736, Alt.=196.236450m. Speed=51.335999m/h.</desc>
<speed>14.260000</speed>
</trkpt>
<trkpt lat="44.589756" lon="33.919441">
<ele>198.423950</ele>
<time>2011-10-11T09:47:48Z</time>
<desc>lat.=44.589756, lon.=33.919441, Alt.=198.423950m. Speed=50.183998m/h.</desc>
<speed>13.939999</speed>
</trkpt>
<trkpt lat="44.589233" lon="33.920132">
<ele>194.334106</ele>
<time>2011-10-11T09:47:53Z</time>
<desc>lat.=44.589233, lon.=33.920132, Alt.=194.334106m. Speed=53.568001m/h.</desc>
<speed>14.880000</speed>
</trkpt>
<trkpt lat="44.588707" lon="33.920799">
<ele>192.814575</ele>
<time>2011-10-11T09:47:58Z</time>
<desc>lat.=44.588707, lon.=33.920799, Alt.=192.814575m. Speed=56.015999m/h.</desc>
<speed>15.560000</speed>
</trkpt>
<trkpt lat="44.588169" lon="33.921463">
<ele>191.045044</ele>
<time>2011-10-11T09:48:03Z</time>
<desc>lat.=44.588169, lon.=33.921463, Alt.=191.045044m. Speed=57.023998m/h.</desc>
<speed>15.840000</speed>
</trkpt>
<trkpt lat="44.587654" lon="33.922142">
<ele>191.521606</ele>
<time>2011-10-11T09:48:08Z</time>
<desc>lat.=44.587654, lon.=33.922142, Alt.=191.521606m. Speed=55.043999m/h.</desc>
<speed>15.290000</speed>
</trkpt>
<trkpt lat="44.587162" lon="33.922794">
<ele>191.849731</ele>
<time>2011-10-11T09:48:13Z</time>
<desc>lat.=44.587162, lon.=33.922794, Alt.=191.849731m. Speed=54.324001m/h.</desc>
<speed>15.090000</speed>
</trkpt>
<trkpt lat="44.586697" lon="33.923393">
<ele>190.603638</ele>
<time>2011-10-11T09:48:18Z</time>
<desc>lat.=44.586697, lon.=33.923393, Alt.=190.603638m. Speed=48.708000m/h.</desc>
<speed>13.530000</speed>
</trkpt>
<trkpt lat="44.586269" lon="33.924026">
<ele>190.791138</ele>
<time>2011-10-11T09:48:23Z</time>
<desc>lat.=44.586269, lon.=33.924026, Alt.=190.791138m. Speed=51.299999m/h.</desc>
<speed>14.250000</speed>
</trkpt>
<trkpt lat="44.585865" lon="33.924755">
<ele>191.990356</ele>
<time>2011-10-11T09:48:28Z</time>
<desc>lat.=44.585865, lon.=33.924755, Alt.=191.990356m. Speed=55.403999m/h.</desc>
<speed>15.390000</speed>
</trkpt>
<trkpt lat="44.585442" lon="33.925579">
<ele>194.474731</ele>
<time>2011-10-11T09:48:33Z</time>
<desc>lat.=44.585442, lon.=33.925579, Alt.=194.474731m. Speed=56.268002m/h.</desc>
<speed>15.630000</speed>
</trkpt>
<trkpt lat="44.585049" lon="33.926346">
<ele>196.107544</ele>
<time>2011-10-11T09:48:38Z</time>
<desc>lat.=44.585049, lon.=33.926346, Alt.=196.107544m. Speed=52.164001m/h.</desc>
<speed>14.490000</speed>
</trkpt>
<trkpt lat="44.584671" lon="33.927113">
<ele>197.548950</ele>
<time>2011-10-11T09:48:43Z</time>
<desc>lat.=44.584671, lon.=33.927113, Alt.=197.548950m. Speed=53.136002m/h.</desc>
<speed>14.760000</speed>
</trkpt>
<trkpt lat="44.584282" lon="33.927895">
<ele>200.084106</ele>
<time>2011-10-11T09:48:48Z</time>
<desc>lat.=44.584282, lon.=33.927895, Alt.=200.084106m. Speed=55.980000m/h.</desc>
<speed>15.550000</speed>
</trkpt>
<trkpt lat="44.583912" lon="33.928696">
<ele>202.478638</ele>
<time>2011-10-11T09:48:53Z</time>
<desc>lat.=44.583912, lon.=33.928696, Alt.=202.478638m. Speed=53.136002m/h.</desc>
<speed>14.760000</speed>
</trkpt>
<trkpt lat="44.583538" lon="33.929489">
<ele>204.236450</ele>
<time>2011-10-11T09:48:58Z</time>
<desc>lat.=44.583538, lon.=33.929489, Alt.=204.236450m. Speed=54.324001m/h.</desc>
<speed>15.090000</speed>
</trkpt>
<trkpt lat="44.583263" lon="33.930435">
<ele>204.099731</ele>
<time>2011-10-11T09:49:03Z</time>
<desc>lat.=44.583263, lon.=33.930435, Alt.=204.099731m. Speed=58.571999m/h.</desc>
<speed>16.270000</speed>
</trkpt>
<trkpt lat="44.583088" lon="33.931458">
<ele>208.943481</ele>
<time>2011-10-11T09:49:08Z</time>
<desc>lat.=44.583088, lon.=33.931458, Alt.=208.943481m. Speed=59.436001m/h.</desc>
<speed>16.510000</speed>
</trkpt>
<trkpt lat="44.582874" lon="33.932438">
<ele>212.349731</ele>
<time>2011-10-11T09:49:13Z</time>
<desc>lat.=44.582874, lon.=33.932438, Alt.=212.349731m. Speed=55.835999m/h.</desc>
<speed>15.510000</speed>
</trkpt>
<trkpt lat="44.582680" lon="33.933365">
<ele>210.939575</ele>
<time>2011-10-11T09:49:18Z</time>
<desc>lat.=44.582680, lon.=33.933365, Alt.=210.939575m. Speed=54.540001m/h.</desc>
<speed>15.150000</speed>
</trkpt>
<trkpt lat="44.582500" lon="33.934246">
<ele>212.978638</ele>
<time>2011-10-11T09:49:23Z</time>
<desc>lat.=44.582500, lon.=33.934246, Alt.=212.978638m. Speed=49.931999m/h.</desc>
<speed>13.870000</speed>
</trkpt>
<trkpt lat="44.582321" lon="33.935078">
<ele>213.283325</ele>
<time>2011-10-11T09:49:28Z</time>
<desc>lat.=44.582321, lon.=33.935078, Alt.=213.283325m. Speed=47.375999m/h.</desc>
<speed>13.160000</speed>
</trkpt>
<trkpt lat="44.582218" lon="33.935856">
<ele>209.572388</ele>
<time>2011-10-11T09:49:33Z</time>
<desc>lat.=44.582218, lon.=33.935856, Alt.=209.572388m. Speed=45.360001m/h.</desc>
<speed>12.600000</speed>
</trkpt>
<trkpt lat="44.582020" lon="33.936554">
<ele>210.240356</ele>
<time>2011-10-11T09:49:38Z</time>
<desc>lat.=44.582020, lon.=33.936554, Alt.=210.240356m. Speed=41.040001m/h.</desc>
<speed>11.400000</speed>
</trkpt>
<trkpt lat="44.581554" lon="33.936905">
<ele>210.740356</ele>
<time>2011-10-11T09:49:43Z</time>
<desc>lat.=44.581554, lon.=33.936905, Alt.=210.740356m. Speed=43.703999m/h.</desc>
<speed>12.140000</speed>
</trkpt>
<trkpt lat="44.580952" lon="33.937092">
<ele>210.634888</ele>
<time>2011-10-11T09:49:48Z</time>
<desc>lat.=44.580952, lon.=33.937092, Alt.=210.634888m. Speed=51.192001m/h.</desc>
<speed>14.220000</speed>
</trkpt>
<trkpt lat="44.580288" lon="33.937263">
<ele>211.099731</ele>
<time>2011-10-11T09:49:53Z</time>
<desc>lat.=44.580288, lon.=33.937263, Alt.=211.099731m. Speed=54.827999m/h.</desc>
<speed>15.230000</speed>
</trkpt>
<trkpt lat="44.579651" lon="33.937469">
<ele>211.318481</ele>
<time>2011-10-11T09:49:58Z</time>
<desc>lat.=44.579651, lon.=33.937469, Alt.=211.318481m. Speed=50.183998m/h.</desc>
<speed>13.939999</speed>
</trkpt>
<trkpt lat="44.579021" lon="33.937744">
<ele>214.365356</ele>
<time>2011-10-11T09:50:03Z</time>
<desc>lat.=44.579021, lon.=33.937744, Alt.=214.365356m. Speed=52.560001m/h.</desc>
<speed>14.600000</speed>
</trkpt>
<trkpt lat="44.578384" lon="33.938095">
<ele>216.408325</ele>
<time>2011-10-11T09:50:08Z</time>
<desc>lat.=44.578384, lon.=33.938095, Alt.=216.408325m. Speed=54.324001m/h.</desc>
<speed>15.090000</speed>
</trkpt>
<trkpt lat="44.577732" lon="33.938427">
<ele>217.611450</ele>
<time>2011-10-11T09:50:13Z</time>
<desc>lat.=44.577732, lon.=33.938427, Alt.=217.611450m. Speed=55.007999m/h.</desc>
<speed>15.280000</speed>
</trkpt>
<trkpt lat="44.577080" lon="33.938896">
<ele>217.037231</ele>
<time>2011-10-11T09:50:18Z</time>
<desc>lat.=44.577080, lon.=33.938896, Alt.=217.037231m. Speed=58.391998m/h.</desc>
<speed>16.220000</speed>
</trkpt>
<trkpt lat="44.576462" lon="33.939396">
<ele>219.088013</ele>
<time>2011-10-11T09:50:23Z</time>
<desc>lat.=44.576462, lon.=33.939396, Alt.=219.088013m. Speed=57.995998m/h.</desc>
<speed>16.110000</speed>
</trkpt>
<trkpt lat="44.575863" lon="33.939960">
<ele>220.556763</ele>
<time>2011-10-11T09:50:28Z</time>
<desc>lat.=44.575863, lon.=33.939960, Alt.=220.556763m. Speed=59.616001m/h.</desc>
<speed>16.560000</speed>
</trkpt>
<trkpt lat="44.575317" lon="33.940697">
<ele>221.748169</ele>
<time>2011-10-11T09:50:33Z</time>
<desc>lat.=44.575317, lon.=33.940697, Alt.=221.748169m. Speed=63.071999m/h.</desc>
<speed>17.520000</speed>
</trkpt>
<trkpt lat="44.574787" lon="33.941517">
<ele>221.904419</ele>
<time>2011-10-11T09:50:38Z</time>
<desc>lat.=44.574787, lon.=33.941517, Alt.=221.904419m. Speed=58.931999m/h.</desc>
<speed>16.370000</speed>
</trkpt>
<trkpt lat="44.574184" lon="33.942131">
<ele>222.588013</ele>
<time>2011-10-11T09:50:43Z</time>
<desc>lat.=44.574184, lon.=33.942131, Alt.=222.588013m. Speed=62.279999m/h.</desc>
<speed>17.300000</speed>
</trkpt>
<trkpt lat="44.573505" lon="33.942654">
<ele>223.318481</ele>
<time>2011-10-11T09:50:48Z</time>
<desc>lat.=44.573505, lon.=33.942654, Alt.=223.318481m. Speed=58.896000m/h.</desc>
<speed>16.360000</speed>
</trkpt>
<trkpt lat="44.572895" lon="33.943100">
<ele>225.103638</ele>
<time>2011-10-11T09:50:53Z</time>
<desc>lat.=44.572895, lon.=33.943100, Alt.=225.103638m. Speed=54.863998m/h.</desc>
<speed>15.240000</speed>
</trkpt>
<trkpt lat="44.572323" lon="33.943489">
<ele>226.423950</ele>
<time>2011-10-11T09:50:58Z</time>
<desc>lat.=44.572323, lon.=33.943489, Alt.=226.423950m. Speed=49.500000m/h.</desc>
<speed>13.750000</speed>
</trkpt>
<trkpt lat="44.571716" lon="33.943661">
<ele>227.224731</ele>
<time>2011-10-11T09:51:03Z</time>
<desc>lat.=44.571716, lon.=33.943661, Alt.=227.224731m. Speed=53.964001m/h.</desc>
<speed>14.990000</speed>
</trkpt>
<trkpt lat="44.571041" lon="33.943790">
<ele>227.154419</ele>
<time>2011-10-11T09:51:08Z</time>
<desc>lat.=44.571041, lon.=33.943790, Alt.=227.154419m. Speed=54.180000m/h.</desc>
<speed>15.050000</speed>
</trkpt>
<trkpt lat="44.570381" lon="33.943935">
<ele>227.064575</ele>
<time>2011-10-11T09:51:13Z</time>
<desc>lat.=44.570381, lon.=33.943935, Alt.=227.064575m. Speed=52.703999m/h.</desc>
<speed>14.640000</speed>
</trkpt>
<trkpt lat="44.569721" lon="33.944145">
<ele>228.572388</ele>
<time>2011-10-11T09:51:18Z</time>
<desc>lat.=44.569721, lon.=33.944145, Alt.=228.572388m. Speed=53.243999m/h.</desc>
<speed>14.790000</speed>
</trkpt>
<trkpt lat="44.569069" lon="33.944389">
<ele>228.572388</ele>
<time>2011-10-11T09:51:23Z</time>
<desc>lat.=44.569069, lon.=33.944389, Alt.=228.572388m. Speed=51.119999m/h.</desc>
<speed>14.200000</speed>
</trkpt>
<trkpt lat="44.568451" lon="33.944664">
<ele>228.990356</ele>
<time>2011-10-11T09:51:28Z</time>
<desc>lat.=44.568451, lon.=33.944664, Alt.=228.990356m. Speed=53.784000m/h.</desc>
<speed>14.940000</speed>
</trkpt>
<trkpt lat="44.567814" lon="33.945000">
<ele>230.478638</ele>
<time>2011-10-11T09:51:33Z</time>
<desc>lat.=44.567814, lon.=33.945000, Alt.=230.478638m. Speed=51.768002m/h.</desc>
<speed>14.380000</speed>
</trkpt>
<trkpt lat="44.567200" lon="33.945358">
<ele>233.345825</ele>
<time>2011-10-11T09:51:38Z</time>
<desc>lat.=44.567200, lon.=33.945358, Alt.=233.345825m. Speed=54.216000m/h.</desc>
<speed>15.060000</speed>
</trkpt>
<trkpt lat="44.566608" lon="33.945797">
<ele>236.880981</ele>
<time>2011-10-11T09:51:43Z</time>
<desc>lat.=44.566608, lon.=33.945797, Alt.=236.880981m. Speed=51.768002m/h.</desc>
<speed>14.380000</speed>
</trkpt>
<trkpt lat="44.566044" lon="33.946285">
<ele>237.767700</ele>
<time>2011-10-11T09:51:48Z</time>
<desc>lat.=44.566044, lon.=33.946285, Alt.=237.767700m. Speed=54.576000m/h.</desc>
<speed>15.160000</speed>
</trkpt>
<trkpt lat="44.565475" lon="33.946789">
<ele>238.459106</ele>
<time>2011-10-11T09:51:53Z</time>
<desc>lat.=44.565475, lon.=33.946789, Alt.=238.459106m. Speed=54.647999m/h.</desc>
<speed>15.180000</speed>
</trkpt>
<trkpt lat="44.564907" lon="33.947254">
<ele>237.693481</ele>
<time>2011-10-11T09:51:58Z</time>
<desc>lat.=44.564907, lon.=33.947254, Alt.=237.693481m. Speed=49.787998m/h.</desc>
<speed>13.829999</speed>
</trkpt>
<trkpt lat="44.564419" lon="33.947697">
<ele>238.623169</ele>
<time>2011-10-11T09:52:03Z</time>
<desc>lat.=44.564419, lon.=33.947697, Alt.=238.623169m. Speed=46.799999m/h.</desc>
<speed>13.000000</speed>
</trkpt>
<trkpt lat="44.563881" lon="33.948059">
<ele>239.076294</ele>
<time>2011-10-11T09:52:08Z</time>
<desc>lat.=44.563881, lon.=33.948059, Alt.=239.076294m. Speed=47.771999m/h.</desc>
<speed>13.270000</speed>
</trkpt>
<trkpt lat="44.563297" lon="33.948345">
<ele>239.791138</ele>
<time>2011-10-11T09:52:13Z</time>
<desc>lat.=44.563297, lon.=33.948345, Alt.=239.791138m. Speed=50.400002m/h.</desc>
<speed>14.000000</speed>
</trkpt>
<trkpt lat="44.562691" lon="33.948540">
<ele>238.611450</ele>
<time>2011-10-11T09:52:18Z</time>
<desc>lat.=44.562691, lon.=33.948540, Alt.=238.611450m. Speed=49.535999m/h.</desc>
<speed>13.760000</speed>
</trkpt>
<trkpt lat="44.562111" lon="33.948833">
<ele>240.845825</ele>
<time>2011-10-11T09:52:23Z</time>
<desc>lat.=44.562111, lon.=33.948833, Alt.=240.845825m. Speed=47.411999m/h.</desc>
<speed>13.170000</speed>
</trkpt>
<trkpt lat="44.561573" lon="33.949135">
<ele>243.318481</ele>
<time>2011-10-11T09:52:28Z</time>
<desc>lat.=44.561573, lon.=33.949135, Alt.=243.318481m. Speed=43.667999m/h.</desc>
<speed>12.130000</speed>
</trkpt>
<trkpt lat="44.561092" lon="33.949436">
<ele>245.185669</ele>
<time>2011-10-11T09:52:33Z</time>
<desc>lat.=44.561092, lon.=33.949436, Alt.=245.185669m. Speed=42.444000m/h.</desc>
<speed>11.790000</speed>
</trkpt>
<trkpt lat="44.560623" lon="33.949745">
<ele>249.724731</ele>
<time>2011-10-11T09:52:38Z</time>
<desc>lat.=44.560623, lon.=33.949745, Alt.=249.724731m. Speed=42.660000m/h.</desc>
<speed>11.850000</speed>
</trkpt>
<trkpt lat="44.560116" lon="33.950069">
<ele>251.646606</ele>
<time>2011-10-11T09:52:43Z</time>
<desc>lat.=44.560116, lon.=33.950069, Alt.=251.646606m. Speed=42.804001m/h.</desc>
<speed>11.890000</speed>
</trkpt>
<trkpt lat="44.559681" lon="33.950493">
<ele>252.654419</ele>
<time>2011-10-11T09:52:48Z</time>
<desc>lat.=44.559681, lon.=33.950493, Alt.=252.654419m. Speed=41.040001m/h.</desc>
<speed>11.400000</speed>
</trkpt>
<trkpt lat="44.559387" lon="33.950951">
<ele>254.978638</ele>
<time>2011-10-11T09:52:53Z</time>
<desc>lat.=44.559387, lon.=33.950951, Alt.=254.978638m. Speed=33.372002m/h.</desc>
<speed>9.270000</speed>
</trkpt>
<trkpt lat="44.559044" lon="33.951378">
<ele>254.447388</ele>
<time>2011-10-11T09:52:58Z</time>
<desc>lat.=44.559044, lon.=33.951378, Alt.=254.447388m. Speed=34.632000m/h.</desc>
<speed>9.620000</speed>
</trkpt>
<trkpt lat="44.558636" lon="33.951736">
<ele>255.478638</ele>
<time>2011-10-11T09:53:03Z</time>
<desc>lat.=44.558636, lon.=33.951736, Alt.=255.478638m. Speed=40.175999m/h.</desc>
<speed>11.160000</speed>
</trkpt>
<trkpt lat="44.558250" lon="33.952126">
<ele>255.916138</ele>
<time>2011-10-11T09:53:08Z</time>
<desc>lat.=44.558250, lon.=33.952126, Alt.=255.916138m. Speed=37.043999m/h.</desc>
<speed>10.290000</speed>
</trkpt>
<trkpt lat="44.557854" lon="33.952435">
<ele>255.752075</ele>
<time>2011-10-11T09:53:13Z</time>
<desc>lat.=44.557854, lon.=33.952435, Alt.=255.752075m. Speed=31.968000m/h.</desc>
<speed>8.880000</speed>
</trkpt>
<trkpt lat="44.557411" lon="33.952526">
<ele>256.754150</ele>
<time>2011-10-11T09:53:18Z</time>
<desc>lat.=44.557411, lon.=33.952526, Alt.=256.754150m. Speed=38.591999m/h.</desc>
<speed>10.720000</speed>
</trkpt>
<trkpt lat="44.556900" lon="33.952633">
<ele>256.886963</ele>
<time>2011-10-11T09:53:23Z</time>
<desc>lat.=44.556900, lon.=33.952633, Alt.=256.886963m. Speed=40.896000m/h.</desc>
<speed>11.360000</speed>
</trkpt>
<trkpt lat="44.556385" lon="33.952774">
<ele>255.857544</ele>
<time>2011-10-11T09:53:28Z</time>
<desc>lat.=44.556385, lon.=33.952774, Alt.=255.857544m. Speed=43.596001m/h.</desc>
<speed>12.110000</speed>
</trkpt>
<trkpt lat="44.555824" lon="33.952927">
<ele>256.277588</ele>
<time>2011-10-11T09:53:33Z</time>
<desc>lat.=44.555824, lon.=33.952927, Alt.=256.277588m. Speed=45.467999m/h.</desc>
<speed>12.630000</speed>
</trkpt>
<trkpt lat="44.555271" lon="33.953041">
<ele>256.168213</ele>
<time>2011-10-11T09:53:38Z</time>
<desc>lat.=44.555271, lon.=33.953041, Alt.=256.168213m. Speed=42.119999m/h.</desc>
<speed>11.700000</speed>
</trkpt>
<trkpt lat="44.554760" lon="33.953178">
<ele>256.285400</ele>
<time>2011-10-11T09:53:43Z</time>
<desc>lat.=44.554760, lon.=33.953178, Alt.=256.285400m. Speed=41.004002m/h.</desc>
<speed>11.390000</speed>
</trkpt>
<trkpt lat="44.554291" lon="33.953449">
<ele>256.918213</ele>
<time>2011-10-11T09:53:48Z</time>
<desc>lat.=44.554291, lon.=33.953449, Alt.=256.918213m. Speed=42.444000m/h.</desc>
<speed>11.790000</speed>
</trkpt>
<trkpt lat="44.553829" lon="33.953903">
<ele>257.074463</ele>
<time>2011-10-11T09:53:53Z</time>
<desc>lat.=44.553829, lon.=33.953903, Alt.=257.074463m. Speed=45.360001m/h.</desc>
<speed>12.600000</speed>
</trkpt>
<trkpt lat="44.553326" lon="33.954300">
<ele>255.384888</ele>
<time>2011-10-11T09:53:58Z</time>
<desc>lat.=44.553326, lon.=33.954300, Alt.=255.384888m. Speed=45.108002m/h.</desc>
<speed>12.530000</speed>
</trkpt>
<trkpt lat="44.552887" lon="33.954723">
<ele>257.386963</ele>
<time>2011-10-11T09:54:03Z</time>
<desc>lat.=44.552887, lon.=33.954723, Alt.=257.386963m. Speed=39.924000m/h.</desc>
<speed>11.090000</speed>
</trkpt>
<trkpt lat="44.552601" lon="33.955292">
<ele>257.730713</ele>
<time>2011-10-11T09:54:08Z</time>
<desc>lat.=44.552601, lon.=33.955292, Alt.=257.730713m. Speed=37.332001m/h.</desc>
<speed>10.370000</speed>
</trkpt>
<trkpt lat="44.552284" lon="33.955730">
<ele>258.621338</ele>
<time>2011-10-11T09:54:13Z</time>
<desc>lat.=44.552284, lon.=33.955730, Alt.=258.621338m. Speed=35.028000m/h.</desc>
<speed>9.730000</speed>
</trkpt>
<trkpt lat="44.551937" lon="33.956013">
<ele>261.199463</ele>
<time>2011-10-11T09:54:18Z</time>
<desc>lat.=44.551937, lon.=33.956013, Alt.=261.199463m. Speed=33.119999m/h.</desc>
<speed>9.200000</speed>
</trkpt>
<trkpt lat="44.551598" lon="33.956131">
<ele>262.988525</ele>
<time>2011-10-11T09:54:23Z</time>
<desc>lat.=44.551598, lon.=33.956131, Alt.=262.988525m. Speed=22.608000m/h.</desc>
<speed>6.280000</speed>
</trkpt>
<trkpt lat="44.551376" lon="33.956173">
<ele>264.097900</ele>
<time>2011-10-11T09:54:28Z</time>
<desc>lat.=44.551376, lon.=33.956173, Alt.=264.097900m. Speed=14.508000m/h.</desc>
<speed>4.030000</speed>
</trkpt>
<trkpt lat="44.551235" lon="33.956184">
<ele>264.793213</ele>
<time>2011-10-11T09:54:33Z</time>
<desc>lat.=44.551235, lon.=33.956184, Alt.=264.793213m. Speed=11.592000m/h.</desc>
<speed>3.220000</speed>
</trkpt>
<trkpt lat="44.551125" lon="33.956223">
<ele>265.660400</ele>
<time>2011-10-11T09:54:38Z</time>
<desc>lat.=44.551125, lon.=33.956223, Alt.=265.660400m. Speed=4.788000m/h.</desc>
<speed>1.330000</speed>
</trkpt>
<trkpt lat="44.551067" lon="33.956242">
<ele>266.261963</ele>
<time>2011-10-11T09:54:43Z</time>
<desc>lat.=44.551067, lon.=33.956242, Alt.=266.261963m. Speed=8.280000m/h.</desc>
<speed>2.300000</speed>
</trkpt>
<trkpt lat="44.550884" lon="33.956276">
<ele>266.957275</ele>
<time>2011-10-11T09:54:48Z</time>
<desc>lat.=44.550884, lon.=33.956276, Alt.=266.957275m. Speed=19.224001m/h.</desc>
<speed>5.340000</speed>
</trkpt>
<trkpt lat="44.550625" lon="33.956329">
<ele>267.027588</ele>
<time>2011-10-11T09:54:53Z</time>
<desc>lat.=44.550625, lon.=33.956329, Alt.=267.027588m. Speed=22.032000m/h.</desc>
<speed>6.120000</speed>
</trkpt>
<trkpt lat="44.550274" lon="33.956383">
<ele>268.433838</ele>
<time>2011-10-11T09:54:58Z</time>
<desc>lat.=44.550274, lon.=33.956383, Alt.=268.433838m. Speed=30.959999m/h.</desc>
<speed>8.600000</speed>
</trkpt>
<trkpt lat="44.549847" lon="33.956490">
<ele>270.113525</ele>
<time>2011-10-11T09:55:03Z</time>
<desc>lat.=44.549847, lon.=33.956490, Alt.=270.113525m. Speed=31.860001m/h.</desc>
<speed>8.850000</speed>
</trkpt>
<trkpt lat="44.549465" lon="33.956631">
<ele>271.738525</ele>
<time>2011-10-11T09:55:08Z</time>
<desc>lat.=44.549465, lon.=33.956631, Alt.=271.738525m. Speed=29.664000m/h.</desc>
<speed>8.240000</speed>
</trkpt>
<trkpt lat="44.549164" lon="33.956749">
<ele>272.847900</ele>
<time>2011-10-11T09:55:13Z</time>
<desc>lat.=44.549164, lon.=33.956749, Alt.=272.847900m. Speed=24.011999m/h.</desc>
<speed>6.670000</speed>
</trkpt>
<trkpt lat="44.548805" lon="33.956860">
<ele>274.457275</ele>
<time>2011-10-11T09:55:18Z</time>
<desc>lat.=44.548805, lon.=33.956860, Alt.=274.457275m. Speed=30.348000m/h.</desc>
<speed>8.430000</speed>
</trkpt>
<trkpt lat="44.548424" lon="33.956993">
<ele>276.551025</ele>
<time>2011-10-11T09:55:23Z</time>
<desc>lat.=44.548424, lon.=33.956993, Alt.=276.551025m. Speed=25.812000m/h.</desc>
<speed>7.170000</speed>
</trkpt>
<trkpt lat="44.548187" lon="33.957207">
<ele>279.074463</ele>
<time>2011-10-11T09:55:28Z</time>
<desc>lat.=44.548187, lon.=33.957207, Alt.=279.074463m. Speed=24.120001m/h.</desc>
<speed>6.700000</speed>
</trkpt>
<trkpt lat="44.548016" lon="33.957523">
<ele>278.613525</ele>
<time>2011-10-11T09:55:33Z</time>
<desc>lat.=44.548016, lon.=33.957523, Alt.=278.613525m. Speed=18.756001m/h.</desc>
<speed>5.210000</speed>
</trkpt>
<trkpt lat="44.547977" lon="33.957695">
<ele>278.652588</ele>
<time>2011-10-11T09:55:38Z</time>
<desc>lat.=44.547977, lon.=33.957695, Alt.=278.652588m. Speed=6.516000m/h.</desc>
<speed>1.810000</speed>
</trkpt>
<trkpt lat="44.547993" lon="33.957848">
<ele>280.902588</ele>
<time>2011-10-11T09:55:43Z</time>
<desc>lat.=44.547993, lon.=33.957848, Alt.=280.902588m. Speed=10.512000m/h.</desc>
<speed>2.920000</speed>
</trkpt>
<trkpt lat="44.547981" lon="33.958149">
<ele>283.121338</ele>
<time>2011-10-11T09:55:48Z</time>
<desc>lat.=44.547981, lon.=33.958149, Alt.=283.121338m. Speed=21.455999m/h.</desc>
<speed>5.960000</speed>
</trkpt>
<trkpt lat="44.547752" lon="33.958401">
<ele>284.683838</ele>
<time>2011-10-11T09:55:53Z</time>
<desc>lat.=44.547752, lon.=33.958401, Alt.=284.683838m. Speed=26.604000m/h.</desc>
<speed>7.390000</speed>
</trkpt>
<trkpt lat="44.547451" lon="33.958652">
<ele>285.871338</ele>
<time>2011-10-11T09:55:58Z</time>
<desc>lat.=44.547451, lon.=33.958652, Alt.=285.871338m. Speed=23.544001m/h.</desc>
<speed>6.540000</speed>
</trkpt>
<trkpt lat="44.547192" lon="33.958805">
<ele>286.918213</ele>
<time>2011-10-11T09:56:03Z</time>
<desc>lat.=44.547192, lon.=33.958805, Alt.=286.918213m. Speed=21.240000m/h.</desc>
<speed>5.900000</speed>
</trkpt>
<trkpt lat="44.546894" lon="33.958832">
<ele>288.754150</ele>
<time>2011-10-11T09:56:08Z</time>
<desc>lat.=44.546894, lon.=33.958832, Alt.=288.754150m. Speed=20.483999m/h.</desc>
<speed>5.690000</speed>
</trkpt>
<trkpt lat="44.546795" lon="33.959042">
<ele>290.918213</ele>
<time>2011-10-11T09:56:13Z</time>
<desc>lat.=44.546795, lon.=33.959042, Alt.=290.918213m. Speed=17.351999m/h.</desc>
<speed>4.820000</speed>
</trkpt>
<trkpt lat="44.546661" lon="33.959373">
<ele>292.371338</ele>
<time>2011-10-11T09:56:18Z</time>
<desc>lat.=44.546661, lon.=33.959373, Alt.=292.371338m. Speed=23.256001m/h.</desc>
<speed>6.460000</speed>
</trkpt>
<trkpt lat="44.546425" lon="33.959572">
<ele>293.480713</ele>
<time>2011-10-11T09:56:23Z</time>
<desc>lat.=44.546425, lon.=33.959572, Alt.=293.480713m. Speed=22.500000m/h.</desc>
<speed>6.250000</speed>
</trkpt>
<trkpt lat="44.546276" lon="33.959961">
<ele>293.074463</ele>
<time>2011-10-11T09:56:28Z</time>
<desc>lat.=44.546276, lon.=33.959961, Alt.=293.074463m. Speed=22.068001m/h.</desc>
<speed>6.130000</speed>
</trkpt>
<trkpt lat="44.546070" lon="33.960159">
<ele>293.347900</ele>
<time>2011-10-11T09:56:33Z</time>
<desc>lat.=44.546070, lon.=33.960159, Alt.=293.347900m. Speed=23.112000m/h.</desc>
<speed>6.420000</speed>
</trkpt>
<trkpt lat="44.545750" lon="33.960361">
<ele>295.105713</ele>
<time>2011-10-11T09:56:38Z</time>
<desc>lat.=44.545750, lon.=33.960361, Alt.=295.105713m. Speed=32.076000m/h.</desc>
<speed>8.910000</speed>
</trkpt>
<trkpt lat="44.545422" lon="33.960705">
<ele>295.332275</ele>
<time>2011-10-11T09:56:43Z</time>
<desc>lat.=44.545422, lon.=33.960705, Alt.=295.332275m. Speed=25.812000m/h.</desc>
<speed>7.170000</speed>
</trkpt>
<trkpt lat="44.545166" lon="33.960835">
<ele>298.285400</ele>
<time>2011-10-11T09:56:48Z</time>
<desc>lat.=44.545166, lon.=33.960835, Alt.=298.285400m. Speed=21.059999m/h.</desc>
<speed>5.850000</speed>
</trkpt>
<trkpt lat="44.544888" lon="33.960682">
<ele>300.207275</ele>
<time>2011-10-11T09:56:53Z</time>
<desc>lat.=44.544888, lon.=33.960682, Alt.=300.207275m. Speed=27.972000m/h.</desc>
<speed>7.770000</speed>
</trkpt>
<trkpt lat="44.544544" lon="33.960625">
<ele>301.441650</ele>
<time>2011-10-11T09:56:58Z</time>
<desc>lat.=44.544544, lon.=33.960625, Alt.=301.441650m. Speed=31.860001m/h.</desc>
<speed>8.850000</speed>
</trkpt>
<trkpt lat="44.544167" lon="33.960423">
<ele>302.496338</ele>
<time>2011-10-11T09:57:03Z</time>
<desc>lat.=44.544167, lon.=33.960423, Alt.=302.496338m. Speed=28.260000m/h.</desc>
<speed>7.850000</speed>
</trkpt>
<trkpt lat="44.543869" lon="33.960224">
<ele>302.793213</ele>
<time>2011-10-11T09:57:08Z</time>
<desc>lat.=44.543869, lon.=33.960224, Alt.=302.793213m. Speed=21.420000m/h.</desc>
<speed>5.950000</speed>
</trkpt>
<trkpt lat="44.543655" lon="33.960396">
<ele>304.676025</ele>
<time>2011-10-11T09:57:13Z</time>
<desc>lat.=44.543655, lon.=33.960396, Alt.=304.676025m. Speed=14.688000m/h.</desc>
<speed>4.080000</speed>
</trkpt>
<trkpt lat="44.543495" lon="33.960197">
<ele>306.222900</ele>
<time>2011-10-11T09:57:18Z</time>
<desc>lat.=44.543495, lon.=33.960197, Alt.=306.222900m. Speed=17.028000m/h.</desc>
<speed>4.730000</speed>
</trkpt>
<trkpt lat="44.543327" lon="33.959972">
<ele>307.902588</ele>
<time>2011-10-11T09:57:23Z</time>
<desc>lat.=44.543327, lon.=33.959972, Alt.=307.902588m. Speed=17.424000m/h.</desc>
<speed>4.840000</speed>
</trkpt>
<trkpt lat="44.543045" lon="33.960060">
<ele>309.551025</ele>
<time>2011-10-11T09:57:28Z</time>
<desc>lat.=44.543045, lon.=33.960060, Alt.=309.551025m. Speed=21.708000m/h.</desc>
<speed>6.030000</speed>
</trkpt>
<trkpt lat="44.542805" lon="33.960220">
<ele>311.574463</ele>
<time>2011-10-11T09:57:33Z</time>
<desc>lat.=44.542805, lon.=33.960220, Alt.=311.574463m. Speed=16.632000m/h.</desc>
<speed>4.620000</speed>
</trkpt>
<trkpt lat="44.542816" lon="33.960560">
<ele>316.082275</ele>
<time>2011-10-11T09:57:38Z</time>
<desc>lat.=44.542816, lon.=33.960560, Alt.=316.082275m. Speed=16.020000m/h.</desc>
<speed>4.450000</speed>
</trkpt>
<trkpt lat="44.543072" lon="33.960979">
<ele>322.230713</ele>
<time>2011-10-11T09:57:43Z</time>
<desc>lat.=44.543072, lon.=33.960979, Alt.=322.230713m. Speed=28.080000m/h.</desc>
<speed>7.800000</speed>
</trkpt>
<trkpt lat="44.543037" lon="33.961269">
<ele>326.410400</ele>
<time>2011-10-11T09:57:48Z</time>
<desc>lat.=44.543037, lon.=33.961269, Alt.=326.410400m. Speed=18.468000m/h.</desc>
<speed>5.130000</speed>
</trkpt>
<trkpt lat="44.542820" lon="33.961483">
<ele>329.941650</ele>
<time>2011-10-11T09:57:53Z</time>
<desc>lat.=44.542820, lon.=33.961483, Alt.=329.941650m. Speed=21.563999m/h.</desc>
<speed>5.990000</speed>
</trkpt>
<trkpt lat="44.542603" lon="33.961788">
<ele>333.808838</ele>
<time>2011-10-11T09:57:58Z</time>
<desc>lat.=44.542603, lon.=33.961788, Alt.=333.808838m. Speed=24.191999m/h.</desc>
<speed>6.720000</speed>
</trkpt>
<trkpt lat="44.542286" lon="33.962177">
<ele>337.082275</ele>
<time>2011-10-11T09:58:03Z</time>
<desc>lat.=44.542286, lon.=33.962177, Alt.=337.082275m. Speed=30.851999m/h.</desc>
<speed>8.570000</speed>
</trkpt>
<trkpt lat="44.541935" lon="33.962624">
<ele>339.449463</ele>
<time>2011-10-11T09:58:08Z</time>
<desc>lat.=44.541935, lon.=33.962624, Alt.=339.449463m. Speed=31.860001m/h.</desc>
<speed>8.850000</speed>
</trkpt>
<trkpt lat="44.541550" lon="33.962814">
<ele>338.207275</ele>
<time>2011-10-11T09:58:13Z</time>
<desc>lat.=44.541550, lon.=33.962814, Alt.=338.207275m. Speed=26.856001m/h.</desc>
<speed>7.460000</speed>
</trkpt>
<trkpt lat="44.541214" lon="33.963245">
<ele>336.011963</ele>
<time>2011-10-11T09:58:18Z</time>
<desc>lat.=44.541214, lon.=33.963245, Alt.=336.011963m. Speed=25.920000m/h.</desc>
<speed>7.200000</speed>
</trkpt>
<trkpt lat="44.540871" lon="33.963604">
<ele>334.371338</ele>
<time>2011-10-11T09:58:23Z</time>
<desc>lat.=44.540871, lon.=33.963604, Alt.=334.371338m. Speed=30.672001m/h.</desc>
<speed>8.520000</speed>
</trkpt>
<trkpt lat="44.540665" lon="33.964203">
<ele>333.386963</ele>
<time>2011-10-11T09:58:28Z</time>
<desc>lat.=44.540665, lon.=33.964203, Alt.=333.386963m. Speed=34.236000m/h.</desc>
<speed>9.510000</speed>
</trkpt>
<trkpt lat="44.540356" lon="33.964668">
<ele>332.597900</ele>
<time>2011-10-11T09:58:33Z</time>
<desc>lat.=44.540356, lon.=33.964668, Alt.=332.597900m. Speed=31.176001m/h.</desc>
<speed>8.660000</speed>
</trkpt>
<trkpt lat="44.540127" lon="33.964928">
<ele>330.566650</ele>
<time>2011-10-11T09:58:38Z</time>
<desc>lat.=44.540127, lon.=33.964928, Alt.=330.566650m. Speed=18.684000m/h.</desc>
<speed>5.190000</speed>
</trkpt>
<trkpt lat="44.540028" lon="33.965038">
<ele>331.144775</ele>
<time>2011-10-11T09:58:43Z</time>
<desc>lat.=44.540028, lon.=33.965038, Alt.=331.144775m. Speed=12.240000m/h.</desc>
<speed>3.400000</speed>
</trkpt>
<trkpt lat="44.539799" lon="33.965023">
<ele>331.699463</ele>
<time>2011-10-11T09:58:48Z</time>
<desc>lat.=44.539799, lon.=33.965023, Alt.=331.699463m. Speed=24.983999m/h.</desc>
<speed>6.940000</speed>
</trkpt>
<trkpt lat="44.539463" lon="33.965168">
<ele>333.535400</ele>
<time>2011-10-11T09:58:53Z</time>
<desc>lat.=44.539463, lon.=33.965168, Alt.=333.535400m. Speed=27.072001m/h.</desc>
<speed>7.520000</speed>
</trkpt>
<trkpt lat="44.539173" lon="33.965553">
<ele>333.535400</ele>
<time>2011-10-11T09:58:58Z</time>
<desc>lat.=44.539173, lon.=33.965553, Alt.=333.535400m. Speed=30.492001m/h.</desc>
<speed>8.470000</speed>
</trkpt>
<trkpt lat="44.539185" lon="33.966133">
<ele>333.347900</ele>
<time>2011-10-11T09:59:03Z</time>
<desc>lat.=44.539185, lon.=33.966133, Alt.=333.347900m. Speed=30.816000m/h.</desc>
<speed>8.560000</speed>
</trkpt>
<trkpt lat="44.539299" lon="33.966694">
<ele>331.863525</ele>
<time>2011-10-11T09:59:08Z</time>
<desc>lat.=44.539299, lon.=33.966694, Alt.=331.863525m. Speed=24.624001m/h.</desc>
<speed>6.840000</speed>
</trkpt>
<trkpt lat="44.539043" lon="33.967022">
<ele>330.871338</ele>
<time>2011-10-11T09:59:13Z</time>
<desc>lat.=44.539043, lon.=33.967022, Alt.=330.871338m. Speed=25.164000m/h.</desc>
<speed>6.990000</speed>
</trkpt>
<trkpt lat="44.538826" lon="33.967339">
<ele>331.949463</ele>
<time>2011-10-11T09:59:18Z</time>
<desc>lat.=44.538826, lon.=33.967339, Alt.=331.949463m. Speed=17.388000m/h.</desc>
<speed>4.830000</speed>
</trkpt>
<trkpt lat="44.538662" lon="33.967541">
<ele>334.691650</ele>
<time>2011-10-11T09:59:23Z</time>
<desc>lat.=44.538662, lon.=33.967541, Alt.=334.691650m. Speed=22.823999m/h.</desc>
<speed>6.340000</speed>
</trkpt>
<trkpt lat="44.538658" lon="33.968079">
<ele>338.683838</ele>
<time>2011-10-11T09:59:28Z</time>
<desc>lat.=44.538658, lon.=33.968079, Alt.=338.683838m. Speed=28.548000m/h.</desc>
<speed>7.930000</speed>
</trkpt>
<trkpt lat="44.538647" lon="33.968651">
<ele>340.402588</ele>
<time>2011-10-11T09:59:33Z</time>
<desc>lat.=44.538647, lon.=33.968651, Alt.=340.402588m. Speed=26.351999m/h.</desc>
<speed>7.320000</speed>
</trkpt>
<trkpt lat="44.538364" lon="33.969021">
<ele>339.308838</ele>
<time>2011-10-11T09:59:38Z</time>
<desc>lat.=44.538364, lon.=33.969021, Alt.=339.308838m. Speed=29.124001m/h.</desc>
<speed>8.090000</speed>
</trkpt>
<trkpt lat="44.538303" lon="33.969593">
<ele>343.394775</ele>
<time>2011-10-11T09:59:43Z</time>
<desc>lat.=44.538303, lon.=33.969593, Alt.=343.394775m. Speed=28.296000m/h.</desc>
<speed>7.860000</speed>
</trkpt>
<trkpt lat="44.538197" lon="33.969963">
<ele>341.136963</ele>
<time>2011-10-11T09:59:48Z</time>
<desc>lat.=44.538197, lon.=33.969963, Alt.=341.136963m. Speed=20.124001m/h.</desc>
<speed>5.590000</speed>
</trkpt>
<trkpt lat="44.538055" lon="33.970161">
<ele>344.965088</ele>
<time>2011-10-11T09:59:53Z</time>
<desc>lat.=44.538055, lon.=33.970161, Alt.=344.965088m. Speed=22.680000m/h.</desc>
<speed>6.300000</speed>
</trkpt>
<trkpt lat="44.537792" lon="33.970306">
<ele>346.035400</ele>
<time>2011-10-11T09:59:58Z</time>
<desc>lat.=44.537792, lon.=33.970306, Alt.=346.035400m. Speed=24.695999m/h.</desc>
<speed>6.860000</speed>
</trkpt>
<trkpt lat="44.537479" lon="33.970406">
<ele>346.090088</ele>
<time>2011-10-11T10:00:03Z</time>
<desc>lat.=44.537479, lon.=33.970406, Alt.=346.090088m. Speed=24.372000m/h.</desc>
<speed>6.770000</speed>
</trkpt>
<trkpt lat="44.537064" lon="33.970638">
<ele>347.558838</ele>
<time>2011-10-11T10:00:08Z</time>
<desc>lat.=44.537064, lon.=33.970638, Alt.=347.558838m. Speed=34.812000m/h.</desc>
<speed>9.670000</speed>
</trkpt>
<trkpt lat="44.536633" lon="33.970844">
<ele>349.699463</ele>
<time>2011-10-11T10:00:13Z</time>
<desc>lat.=44.536633, lon.=33.970844, Alt.=349.699463m. Speed=39.636002m/h.</desc>
<speed>11.010000</speed>
</trkpt>
<trkpt lat="44.536293" lon="33.971107">
<ele>354.808838</ele>
<time>2011-10-11T10:00:18Z</time>
<desc>lat.=44.536293, lon.=33.971107, Alt.=354.808838m. Speed=28.007999m/h.</desc>
<speed>7.780000</speed>
</trkpt>
<trkpt lat="44.535919" lon="33.971169">
<ele>356.840088</ele>
<time>2011-10-11T10:00:23Z</time>
<desc>lat.=44.535919, lon.=33.971169, Alt.=356.840088m. Speed=28.511999m/h.</desc>
<speed>7.920000</speed>
</trkpt>
<trkpt lat="44.535564" lon="33.971046">
<ele>358.996338</ele>
<time>2011-10-11T10:00:28Z</time>
<desc>lat.=44.535564, lon.=33.971046, Alt.=358.996338m. Speed=27.323999m/h.</desc>
<speed>7.590000</speed>
</trkpt>
<trkpt lat="44.535179" lon="33.971027">
<ele>361.332275</ele>
<time>2011-10-11T10:00:33Z</time>
<desc>lat.=44.535179, lon.=33.971027, Alt.=361.332275m. Speed=29.340000m/h.</desc>
<speed>8.150000</speed>
</trkpt>
<trkpt lat="44.534882" lon="33.971165">
<ele>363.574463</ele>
<time>2011-10-11T10:00:38Z</time>
<desc>lat.=44.534882, lon.=33.971165, Alt.=363.574463m. Speed=14.328000m/h.</desc>
<speed>3.980000</speed>
</trkpt>
<trkpt lat="44.534798" lon="33.971584">
<ele>365.449463</ele>
<time>2011-10-11T10:00:43Z</time>
<desc>lat.=44.534798, lon.=33.971584, Alt.=365.449463m. Speed=23.688000m/h.</desc>
<speed>6.580000</speed>
</trkpt>
<trkpt lat="44.534557" lon="33.971973">
<ele>363.160400</ele>
<time>2011-10-11T10:00:48Z</time>
<desc>lat.=44.534557, lon.=33.971973, Alt.=363.160400m. Speed=20.232000m/h.</desc>
<speed>5.620000</speed>
</trkpt>
<trkpt lat="44.534317" lon="33.972103">
<ele>367.582275</ele>
<time>2011-10-11T10:00:53Z</time>
<desc>lat.=44.534317, lon.=33.972103, Alt.=367.582275m. Speed=31.032000m/h.</desc>
<speed>8.620000</speed>
</trkpt>
<trkpt lat="44.533852" lon="33.972260">
<ele>370.340088</ele>
<time>2011-10-11T10:00:58Z</time>
<desc>lat.=44.533852, lon.=33.972260, Alt.=370.340088m. Speed=39.456001m/h.</desc>
<speed>10.960000</speed>
</trkpt>
<trkpt lat="44.533329" lon="33.972527">
<ele>371.801025</ele>
<time>2011-10-11T10:01:03Z</time>
<desc>lat.=44.533329, lon.=33.972527, Alt.=371.801025m. Speed=42.695999m/h.</desc>
<speed>11.860000</speed>
</trkpt>
<trkpt lat="44.533028" lon="33.973000">
<ele>373.058838</ele>
<time>2011-10-11T10:01:08Z</time>
<desc>lat.=44.533028, lon.=33.973000, Alt.=373.058838m. Speed=33.155998m/h.</desc>
<speed>9.210000</speed>
</trkpt>
<trkpt lat="44.532753" lon="33.973637">
<ele>373.660400</ele>
<time>2011-10-11T10:01:13Z</time>
<desc>lat.=44.532753, lon.=33.973637, Alt.=373.660400m. Speed=36.504002m/h.</desc>
<speed>10.140000</speed>
</trkpt>
<trkpt lat="44.532509" lon="33.974255">
<ele>374.277588</ele>
<time>2011-10-11T10:01:18Z</time>
<desc>lat.=44.532509, lon.=33.974255, Alt.=374.277588m. Speed=35.316002m/h.</desc>
<speed>9.810001</speed>
</trkpt>
<trkpt lat="44.532257" lon="33.974754">
<ele>375.207275</ele>
<time>2011-10-11T10:01:23Z</time>
<desc>lat.=44.532257, lon.=33.974754, Alt.=375.207275m. Speed=30.384001m/h.</desc>
<speed>8.440000</speed>
</trkpt>
<trkpt lat="44.531963" lon="33.974991">
<ele>376.496338</ele>
<time>2011-10-11T10:01:28Z</time>
<desc>lat.=44.531963, lon.=33.974991, Alt.=376.496338m. Speed=27.576000m/h.</desc>
<speed>7.660000</speed>
</trkpt>
<trkpt lat="44.531639" lon="33.975292">
<ele>377.465088</ele>
<time>2011-10-11T10:01:33Z</time>
<desc>lat.=44.531639, lon.=33.975292, Alt.=377.465088m. Speed=31.068001m/h.</desc>
<speed>8.630000</speed>
</trkpt>
<trkpt lat="44.531452" lon="33.975800">
<ele>378.926025</ele>
<time>2011-10-11T10:01:38Z</time>
<desc>lat.=44.531452, lon.=33.975800, Alt.=378.926025m. Speed=25.379999m/h.</desc>
<speed>7.050000</speed>
</trkpt>
<trkpt lat="44.531216" lon="33.976177">
<ele>379.582275</ele>
<time>2011-10-11T10:01:43Z</time>
<desc>lat.=44.531216, lon.=33.976177, Alt.=379.582275m. Speed=21.348000m/h.</desc>
<speed>5.930000</speed>
</trkpt>
<trkpt lat="44.530918" lon="33.976364">
<ele>380.707275</ele>
<time>2011-10-11T10:01:48Z</time>
<desc>lat.=44.530918, lon.=33.976364, Alt.=380.707275m. Speed=26.063999m/h.</desc>
<speed>7.240000</speed>
</trkpt>
<trkpt lat="44.530781" lon="33.976849">
<ele>381.222900</ele>
<time>2011-10-11T10:01:53Z</time>
<desc>lat.=44.530781, lon.=33.976849, Alt.=381.222900m. Speed=29.268000m/h.</desc>
<speed>8.130000</speed>
</trkpt>
<trkpt lat="44.530575" lon="33.977283">
<ele>381.191650</ele>
<time>2011-10-11T10:01:58Z</time>
<desc>lat.=44.530575, lon.=33.977283, Alt.=381.191650m. Speed=24.228001m/h.</desc>
<speed>6.730000</speed>
</trkpt>
<trkpt lat="44.530220" lon="33.977551">
<ele>381.926025</ele>
<time>2011-10-11T10:02:03Z</time>
<desc>lat.=44.530220, lon.=33.977551, Alt.=381.926025m. Speed=36.612000m/h.</desc>
<speed>10.170000</speed>
</trkpt>
<trkpt lat="44.529800" lon="33.977802">
<ele>382.754150</ele>
<time>2011-10-11T10:02:08Z</time>
<desc>lat.=44.529800, lon.=33.977802, Alt.=382.754150m. Speed=34.992001m/h.</desc>
<speed>9.720000</speed>
</trkpt>
<trkpt lat="44.529396" lon="33.978069">
<ele>383.308838</ele>
<time>2011-10-11T10:02:13Z</time>
<desc>lat.=44.529396, lon.=33.978069, Alt.=383.308838m. Speed=37.548000m/h.</desc>
<speed>10.430000</speed>
</trkpt>
<trkpt lat="44.528889" lon="33.978325">
<ele>383.918213</ele>
<time>2011-10-11T10:02:18Z</time>
<desc>lat.=44.528889, lon.=33.978325, Alt.=383.918213m. Speed=38.520000m/h.</desc>
<speed>10.700000</speed>
</trkpt>
<trkpt lat="44.528404" lon="33.978649">
<ele>384.605713</ele>
<time>2011-10-11T10:02:23Z</time>
<desc>lat.=44.528404, lon.=33.978649, Alt.=384.605713m. Speed=44.099998m/h.</desc>
<speed>12.250000</speed>
</trkpt>
<trkpt lat="44.527859" lon="33.978935">
<ele>385.199463</ele>
<time>2011-10-11T10:02:28Z</time>
<desc>lat.=44.527859, lon.=33.978935, Alt.=385.199463m. Speed=46.152000m/h.</desc>
<speed>12.820000</speed>
</trkpt>
<trkpt lat="44.527355" lon="33.979294">
<ele>385.027588</ele>
<time>2011-10-11T10:02:33Z</time>
<desc>lat.=44.527355, lon.=33.979294, Alt.=385.027588m. Speed=43.091999m/h.</desc>
<speed>11.970000</speed>
</trkpt>
<trkpt lat="44.526997" lon="33.979622">
<ele>384.847900</ele>
<time>2011-10-11T10:02:38Z</time>
<desc>lat.=44.526997, lon.=33.979622, Alt.=384.847900m. Speed=36.251999m/h.</desc>
<speed>10.070000</speed>
</trkpt>
<trkpt lat="44.526711" lon="33.979904">
<ele>386.199463</ele>
<time>2011-10-11T10:02:43Z</time>
<desc>lat.=44.526711, lon.=33.979904, Alt.=386.199463m. Speed=28.260000m/h.</desc>
<speed>7.850000</speed>
</trkpt>
<trkpt lat="44.526413" lon="33.980038">
<ele>386.051025</ele>
<time>2011-10-11T10:02:48Z</time>
<desc>lat.=44.526413, lon.=33.980038, Alt.=386.051025m. Speed=23.760000m/h.</desc>
<speed>6.600000</speed>
</trkpt>
<trkpt lat="44.526157" lon="33.979961">
<ele>387.707275</ele>
<time>2011-10-11T10:02:53Z</time>
<desc>lat.=44.526157, lon.=33.979961, Alt.=387.707275m. Speed=25.308001m/h.</desc>
<speed>7.030000</speed>
</trkpt>
<trkpt lat="44.525810" lon="33.979919">
<ele>388.761963</ele>
<time>2011-10-11T10:02:58Z</time>
<desc>lat.=44.525810, lon.=33.979919, Alt.=388.761963m. Speed=31.896000m/h.</desc>
<speed>8.860000</speed>
</trkpt>
<trkpt lat="44.525486" lon="33.979992">
<ele>390.027588</ele>
<time>2011-10-11T10:03:03Z</time>
<desc>lat.=44.525486, lon.=33.979992, Alt.=390.027588m. Speed=21.132000m/h.</desc>
<speed>5.870000</speed>
</trkpt>
<trkpt lat="44.525230" lon="33.980164">
<ele>390.910400</ele>
<time>2011-10-11T10:03:08Z</time>
<desc>lat.=44.525230, lon.=33.980164, Alt.=390.910400m. Speed=23.580000m/h.</desc>
<speed>6.550000</speed>
</trkpt>
<trkpt lat="44.524887" lon="33.980335">
<ele>391.980713</ele>
<time>2011-10-11T10:03:13Z</time>
<desc>lat.=44.524887, lon.=33.980335, Alt.=391.980713m. Speed=30.672001m/h.</desc>
<speed>8.520000</speed>
</trkpt>
<trkpt lat="44.524517" lon="33.980526">
<ele>392.090088</ele>
<time>2011-10-11T10:03:18Z</time>
<desc>lat.=44.524517, lon.=33.980526, Alt.=392.090088m. Speed=28.980000m/h.</desc>
<speed>8.050000</speed>
</trkpt>
<trkpt lat="44.524155" lon="33.980728">
<ele>391.801025</ele>
<time>2011-10-11T10:03:23Z</time>
<desc>lat.=44.524155, lon.=33.980728, Alt.=391.801025m. Speed=30.132000m/h.</desc>
<speed>8.370000</speed>
</trkpt>
<trkpt lat="44.523876" lon="33.981152">
<ele>393.176025</ele>
<time>2011-10-11T10:03:28Z</time>
<desc>lat.=44.523876, lon.=33.981152, Alt.=393.176025m. Speed=32.543999m/h.</desc>
<speed>9.040000</speed>
</trkpt>
<trkpt lat="44.523495" lon="33.981544">
<ele>393.105713</ele>
<time>2011-10-11T10:03:33Z</time>
<desc>lat.=44.523495, lon.=33.981544, Alt.=393.105713m. Speed=35.784000m/h.</desc>
<speed>9.940000</speed>
</trkpt>
<trkpt lat="44.523270" lon="33.982075">
<ele>392.957275</ele>
<time>2011-10-11T10:03:38Z</time>
<desc>lat.=44.523270, lon.=33.982075, Alt.=392.957275m. Speed=32.292000m/h.</desc>
<speed>8.970000</speed>
</trkpt>
<trkpt lat="44.523159" lon="33.982662">
<ele>392.277588</ele>
<time>2011-10-11T10:03:43Z</time>
<desc>lat.=44.523159, lon.=33.982662, Alt.=392.277588m. Speed=28.332001m/h.</desc>
<speed>7.870000</speed>
</trkpt>
<trkpt lat="44.522835" lon="33.982964">
<ele>392.394775</ele>
<time>2011-10-11T10:03:48Z</time>
<desc>lat.=44.522835, lon.=33.982964, Alt.=392.394775m. Speed=27.504000m/h.</desc>
<speed>7.640000</speed>
</trkpt>
<trkpt lat="44.522709" lon="33.983177">
<ele>394.176025</ele>
<time>2011-10-11T10:03:53Z</time>
<desc>lat.=44.522709, lon.=33.983177, Alt.=394.176025m. Speed=19.691999m/h.</desc>
<speed>5.470000</speed>
</trkpt>
<trkpt lat="44.522461" lon="33.983383">
<ele>395.574463</ele>
<time>2011-10-11T10:03:58Z</time>
<desc>lat.=44.522461, lon.=33.983383, Alt.=395.574463m. Speed=23.184000m/h.</desc>
<speed>6.440000</speed>
</trkpt>
<trkpt lat="44.522221" lon="33.983543">
<ele>397.551025</ele>
<time>2011-10-11T10:04:03Z</time>
<desc>lat.=44.522221, lon.=33.983543, Alt.=397.551025m. Speed=26.028000m/h.</desc>
<speed>7.230000</speed>
</trkpt>
<trkpt lat="44.521812" lon="33.983665">
<ele>400.457275</ele>
<time>2011-10-11T10:04:08Z</time>
<desc>lat.=44.521812, lon.=33.983665, Alt.=400.457275m. Speed=32.868000m/h.</desc>
<speed>9.130000</speed>
</trkpt>
<trkpt lat="44.521461" lon="33.983635">
<ele>401.207275</ele>
<time>2011-10-11T10:04:13Z</time>
<desc>lat.=44.521461, lon.=33.983635, Alt.=401.207275m. Speed=27.323999m/h.</desc>
<speed>7.590000</speed>
</trkpt>
<trkpt lat="44.521141" lon="33.983421">
<ele>401.621338</ele>
<time>2011-10-11T10:04:18Z</time>
<desc>lat.=44.521141, lon.=33.983421, Alt.=401.621338m. Speed=31.752001m/h.</desc>
<speed>8.820000</speed>
</trkpt>
<trkpt lat="44.520733" lon="33.983562">
<ele>402.824463</ele>
<time>2011-10-11T10:04:23Z</time>
<desc>lat.=44.520733, lon.=33.983562, Alt.=402.824463m. Speed=31.500000m/h.</desc>
<speed>8.750000</speed>
</trkpt>
<trkpt lat="44.520309" lon="33.983723">
<ele>404.347900</ele>
<time>2011-10-11T10:04:28Z</time>
<desc>lat.=44.520309, lon.=33.983723, Alt.=404.347900m. Speed=26.496000m/h.</desc>
<speed>7.360000</speed>
</trkpt>
<trkpt lat="44.519905" lon="33.983807">
<ele>404.511963</ele>
<time>2011-10-11T10:04:33Z</time>
<desc>lat.=44.519905, lon.=33.983807, Alt.=404.511963m. Speed=30.888000m/h.</desc>
<speed>8.580000</speed>
</trkpt>
<trkpt lat="44.519581" lon="33.983879">
<ele>404.691650</ele>
<time>2011-10-11T10:04:38Z</time>
<desc>lat.=44.519581, lon.=33.983879, Alt.=404.691650m. Speed=18.792000m/h.</desc>
<speed>5.220000</speed>
</trkpt>
<trkpt lat="44.519379" lon="33.984043">
<ele>405.355713</ele>
<time>2011-10-11T10:04:43Z</time>
<desc>lat.=44.519379, lon.=33.984043, Alt.=405.355713m. Speed=20.736000m/h.</desc>
<speed>5.760000</speed>
</trkpt>
<trkpt lat="44.519115" lon="33.984241">
<ele>405.152588</ele>
<time>2011-10-11T10:04:48Z</time>
<desc>lat.=44.519115, lon.=33.984241, Alt.=405.152588m. Speed=20.916000m/h.</desc>
<speed>5.810000</speed>
</trkpt>
<trkpt lat="44.518787" lon="33.984554">
<ele>403.910400</ele>
<time>2011-10-11T10:04:53Z</time>
<desc>lat.=44.518787, lon.=33.984554, Alt.=403.910400m. Speed=24.948000m/h.</desc>
<speed>6.930000</speed>
</trkpt>
<trkpt lat="44.518459" lon="33.984783">
<ele>402.402588</ele>
<time>2011-10-11T10:04:58Z</time>
<desc>lat.=44.518459, lon.=33.984783, Alt.=402.402588m. Speed=21.455999m/h.</desc>
<speed>5.960000</speed>
</trkpt>
<trkpt lat="44.518291" lon="33.985134">
<ele>397.605713</ele>
<time>2011-10-11T10:05:03Z</time>
<desc>lat.=44.518291, lon.=33.985134, Alt.=397.605713m. Speed=17.784000m/h.</desc>
<speed>4.940000</speed>
</trkpt>
<trkpt lat="44.518139" lon="33.985310">
<ele>401.746338</ele>
<time>2011-10-11T10:05:08Z</time>
<desc>lat.=44.518139, lon.=33.985310, Alt.=401.746338m. Speed=16.452000m/h.</desc>
<speed>4.570000</speed>
</trkpt>
<trkpt lat="44.517963" lon="33.985210">
<ele>403.246338</ele>
<time>2011-10-11T10:05:13Z</time>
<desc>lat.=44.517963, lon.=33.985210, Alt.=403.246338m. Speed=20.879999m/h.</desc>
<speed>5.800000</speed>
</trkpt>
<trkpt lat="44.517792" lon="33.984924">
<ele>404.191650</ele>
<time>2011-10-11T10:05:18Z</time>
<desc>lat.=44.517792, lon.=33.984924, Alt.=404.191650m. Speed=18.900000m/h.</desc>
<speed>5.250000</speed>
</trkpt>
<trkpt lat="44.517712" lon="33.984737">
<ele>408.004150</ele>
<time>2011-10-11T10:05:23Z</time>
<desc>lat.=44.517712, lon.=33.984737, Alt.=408.004150m. Speed=12.312000m/h.</desc>
<speed>3.420000</speed>
</trkpt>
<trkpt lat="44.517628" lon="33.984547">
<ele>409.980713</ele>
<time>2011-10-11T10:05:28Z</time>
<desc>lat.=44.517628, lon.=33.984547, Alt.=409.980713m. Speed=11.916000m/h.</desc>
<speed>3.310000</speed>
</trkpt>
<trkpt lat="44.517471" lon="33.984383">
<ele>412.988525</ele>
<time>2011-10-11T10:05:33Z</time>
<desc>lat.=44.517471, lon.=33.984383, Alt.=412.988525m. Speed=11.052000m/h.</desc>
<speed>3.070000</speed>
</trkpt>
<trkpt lat="44.517307" lon="33.984322">
<ele>419.222900</ele>
<time>2011-10-11T10:05:38Z</time>
<desc>lat.=44.517307, lon.=33.984322, Alt.=419.222900m. Speed=6.768000m/h.</desc>
<speed>1.880000</speed>
</trkpt>
<trkpt lat="44.517185" lon="33.984291">
<ele>423.160400</ele>
<time>2011-10-11T10:05:43Z</time>
<desc>lat.=44.517185, lon.=33.984291, Alt.=423.160400m. Speed=4.860000m/h.</desc>
<speed>1.350000</speed>
</trkpt>
<trkpt lat="44.517159" lon="33.984272">
<ele>425.574463</ele>
<time>2011-10-11T10:05:48Z</time>
<desc>lat.=44.517159, lon.=33.984272, Alt.=425.574463m. Speed=1.476000m/h.</desc>
<speed>0.410000</speed>
</trkpt>
<trkpt lat="44.517147" lon="33.984261">
<ele>427.355713</ele>
<time>2011-10-11T10:05:53Z</time>
<desc>lat.=44.517147, lon.=33.984261, Alt.=427.355713m. Speed=1.116000m/h.</desc>
<speed>0.310000</speed>
</trkpt>
<trkpt lat="44.517132" lon="33.984253">
<ele>428.551025</ele>
<time>2011-10-11T10:05:58Z</time>
<desc>lat.=44.517132, lon.=33.984253, Alt.=428.551025m. Speed=1.260000m/h.</desc>
<speed>0.350000</speed>
</trkpt>
<trkpt lat="44.517117" lon="33.984241">
<ele>429.480713</ele>
<time>2011-10-11T10:06:03Z</time>
<desc>lat.=44.517117, lon.=33.984241, Alt.=429.480713m. Speed=1.332000m/h.</desc>
<speed>0.370000</speed>
</trkpt>
<trkpt lat="44.517105" lon="33.984234">
<ele>430.136963</ele>
<time>2011-10-11T10:06:08Z</time>
<desc>lat.=44.517105, lon.=33.984234, Alt.=430.136963m. Speed=0.936000m/h.</desc>
<speed>0.260000</speed>
</trkpt>
<trkpt lat="44.517097" lon="33.984226">
<ele>430.551025</ele>
<time>2011-10-11T10:06:13Z</time>
<desc>lat.=44.517097, lon.=33.984226, Alt.=430.551025m. Speed=0.396000m/h.</desc>
<speed>0.110000</speed>
</trkpt>
<trkpt lat="44.517094" lon="33.984219">
<ele>430.676025</ele>
<time>2011-10-11T10:06:18Z</time>
<desc>lat.=44.517094, lon.=33.984219, Alt.=430.676025m. Speed=0.576000m/h.</desc>
<speed>0.160000</speed>
</trkpt>
<trkpt lat="44.517094" lon="33.984211">
<ele>430.621338</ele>
<time>2011-10-11T10:06:23Z</time>
<desc>lat.=44.517094, lon.=33.984211, Alt.=430.621338m. Speed=0.684000m/h.</desc>
<speed>0.190000</speed>
</trkpt>
<trkpt lat="44.517094" lon="33.984211">
<ele>430.566650</ele>
<time>2011-10-11T10:06:28Z</time>
<desc>lat.=44.517094, lon.=33.984211, Alt.=430.566650m. Speed=0.216000m/h.</desc>
<speed>0.060000</speed>
</trkpt>
<trkpt lat="44.517094" lon="33.984207">
<ele>430.551025</ele>
<time>2011-10-11T10:06:33Z</time>
<desc>lat.=44.517094, lon.=33.984207, Alt.=430.551025m. Speed=0.432000m/h.</desc>
<speed>0.120000</speed>
</trkpt>
<trkpt lat="44.517094" lon="33.984200">
<ele>430.543213</ele>
<time>2011-10-11T10:06:38Z</time>
<desc>lat.=44.517094, lon.=33.984200, Alt.=430.543213m. Speed=0.936000m/h.</desc>
<speed>0.260000</speed>
</trkpt>
<trkpt lat="44.517101" lon="33.984192">
<ele>430.480713</ele>
<time>2011-10-11T10:06:43Z</time>
<desc>lat.=44.517101, lon.=33.984192, Alt.=430.480713m. Speed=0.864000m/h.</desc>
<speed>0.240000</speed>
</trkpt>
<trkpt lat="44.517105" lon="33.984184">
<ele>430.394775</ele>
<time>2011-10-11T10:06:48Z</time>
<desc>lat.=44.517105, lon.=33.984184, Alt.=430.394775m. Speed=0.072000m/h.</desc>
<speed>0.020000</speed>
</trkpt>
<trkpt lat="44.517101" lon="33.984180">
<ele>430.308838</ele>
<time>2011-10-11T10:06:53Z</time>
<desc>lat.=44.517101, lon.=33.984180, Alt.=430.308838m. Speed=0.648000m/h.</desc>
<speed>0.180000</speed>
</trkpt>
<trkpt lat="44.517094" lon="33.984173">
<ele>430.168213</ele>
<time>2011-10-11T10:06:58Z</time>
<desc>lat.=44.517094, lon.=33.984173, Alt.=430.168213m. Speed=0.936000m/h.</desc>
<speed>0.260000</speed>
</trkpt>
<trkpt lat="44.517094" lon="33.984165">
<ele>430.066650</ele>
<time>2011-10-11T10:07:03Z</time>
<desc>lat.=44.517094, lon.=33.984165, Alt.=430.066650m. Speed=1.584000m/h.</desc>
<speed>0.440000</speed>
</trkpt>
<trkpt lat="44.517086" lon="33.984150">
<ele>429.965088</ele>
<time>2011-10-11T10:07:08Z</time>
<desc>lat.=44.517086, lon.=33.984150, Alt.=429.965088m. Speed=1.152000m/h.</desc>
<speed>0.320000</speed>
</trkpt>
<trkpt lat="44.517101" lon="33.984150">
<ele>429.879150</ele>
<time>2011-10-11T10:07:13Z</time>
<desc>lat.=44.517101, lon.=33.984150, Alt.=429.879150m. Speed=0.936000m/h.</desc>
<speed>0.260000</speed>
</trkpt>
<trkpt lat="44.517105" lon="33.984146">
<ele>429.832275</ele>
<time>2011-10-11T10:07:18Z</time>
<desc>lat.=44.517105, lon.=33.984146, Alt.=429.832275m. Speed=0.396000m/h.</desc>
<speed>0.110000</speed>
</trkpt>
<trkpt lat="44.517094" lon="33.984169">
<ele>429.215088</ele>
<time>2011-10-11T10:07:23Z</time>
<desc>lat.=44.517094, lon.=33.984169, Alt.=429.215088m. Speed=2.124000m/h.</desc>
<speed>0.590000</speed>
</trkpt>
<trkpt lat="44.517094" lon="33.984158">
<ele>428.629150</ele>
<time>2011-10-11T10:07:28Z</time>
<desc>lat.=44.517094, lon.=33.984158, Alt.=428.629150m. Speed=0.144000m/h.</desc>
<speed>0.040000</speed>
</trkpt>
<trkpt lat="44.517090" lon="33.984165">
<ele>428.543213</ele>
<time>2011-10-11T10:07:33Z</time>
<desc>lat.=44.517090, lon.=33.984165, Alt.=428.543213m. Speed=0.864000m/h.</desc>
<speed>0.240000</speed>
</trkpt>
<trkpt lat="44.517086" lon="33.984180">
<ele>428.511963</ele>
<time>2011-10-11T10:07:38Z</time>
<desc>lat.=44.517086, lon.=33.984180, Alt.=428.511963m. Speed=0.684000m/h.</desc>
<speed>0.190000</speed>
</trkpt>
<trkpt lat="44.517082" lon="33.984192">
<ele>428.504150</ele>
<time>2011-10-11T10:07:43Z</time>
<desc>lat.=44.517082, lon.=33.984192, Alt.=428.504150m. Speed=0.576000m/h.</desc>
<speed>0.160000</speed>
</trkpt>
<trkpt lat="44.517078" lon="33.984196">
<ele>428.504150</ele>
<time>2011-10-11T10:07:48Z</time>
<desc>lat.=44.517078, lon.=33.984196, Alt.=428.504150m. Speed=1.476000m/h.</desc>
<speed>0.410000</speed>
</trkpt>
<trkpt lat="44.517097" lon="33.984276">
<ele>428.402588</ele>
<time>2011-10-11T10:07:53Z</time>
<desc>lat.=44.517097, lon.=33.984276, Alt.=428.402588m. Speed=1.332000m/h.</desc>
<speed>0.370000</speed>
</trkpt>
<trkpt lat="44.517105" lon="33.984287">
<ele>428.379150</ele>
<time>2011-10-11T10:07:58Z</time>
<desc>lat.=44.517105, lon.=33.984287, Alt.=428.379150m. Speed=0.576000m/h.</desc>
<speed>0.160000</speed>
</trkpt>
<trkpt lat="44.517109" lon="33.984291">
<ele>428.371338</ele>
<time>2011-10-11T10:08:03Z</time>
<desc>lat.=44.517109, lon.=33.984291, Alt.=428.371338m. Speed=0.396000m/h.</desc>
<speed>0.110000</speed>
</trkpt>
<trkpt lat="44.517117" lon="33.984291">
<ele>428.355713</ele>
<time>2011-10-11T10:08:08Z</time>
<desc>lat.=44.517117, lon.=33.984291, Alt.=428.355713m. Speed=0.504000m/h.</desc>
<speed>0.140000</speed>
</trkpt>
<trkpt lat="44.517124" lon="33.984291">
<ele>428.449463</ele>
<time>2011-10-11T10:08:13Z</time>
<desc>lat.=44.517124, lon.=33.984291, Alt.=428.449463m. Speed=0.612000m/h.</desc>
<speed>0.170000</speed>
</trkpt>
<trkpt lat="44.517128" lon="33.984291">
<ele>428.449463</ele>
<time>2011-10-11T10:08:18Z</time>
<desc>lat.=44.517128, lon.=33.984291, Alt.=428.449463m. Speed=0.144000m/h.</desc>
<speed>0.040000</speed>
</trkpt>
<trkpt lat="44.517128" lon="33.984287">
<ele>428.449463</ele>
<time>2011-10-11T10:08:23Z</time>
<desc>lat.=44.517128, lon.=33.984287, Alt.=428.449463m. Speed=0.036000m/h.</desc>
<speed>0.010000</speed>
</trkpt>
<trkpt lat="44.517128" lon="33.984291">
<ele>428.472900</ele>
<time>2011-10-11T10:08:28Z</time>
<desc>lat.=44.517128, lon.=33.984291, Alt.=428.472900m. Speed=0.180000m/h.</desc>
<speed>0.050000</speed>
</trkpt>
<trkpt lat="44.517132" lon="33.984291">
<ele>428.488525</ele>
<time>2011-10-11T10:08:33Z</time>
<desc>lat.=44.517132, lon.=33.984291, Alt.=428.488525m. Speed=0.072000m/h.</desc>
<speed>0.020000</speed>
</trkpt>
<trkpt lat="44.517132" lon="33.984291">
<ele>428.519775</ele>
<time>2011-10-11T10:08:38Z</time>
<desc>lat.=44.517132, lon.=33.984291, Alt.=428.519775m. Speed=0.108000m/h.</desc>
<speed>0.030000</speed>
</trkpt>
<trkpt lat="44.517132" lon="33.984291">
<ele>428.543213</ele>
<time>2011-10-11T10:08:43Z</time>
<desc>lat.=44.517132, lon.=33.984291, Alt.=428.543213m. Speed=0.180000m/h.</desc>
<speed>0.050000</speed>
</trkpt>
<trkpt lat="44.517132" lon="33.984291">
<ele>428.574463</ele>
<time>2011-10-11T10:08:48Z</time>
<desc>lat.=44.517132, lon.=33.984291, Alt.=428.574463m. Speed=0.000000m/h.</desc>
<speed>0.000000</speed>
</trkpt>
<trkpt lat="44.517132" lon="33.984291">
<ele>428.621338</ele>
<time>2011-10-11T10:08:53Z</time>
<desc>lat.=44.517132, lon.=33.984291, Alt.=428.621338m. Speed=0.000000m/h.</desc>
<speed>0.000000</speed>
</trkpt>
<trkpt lat="44.517132" lon="33.984291">
<ele>428.660400</ele>
<time>2011-10-11T10:08:58Z</time>
<desc>lat.=44.517132, lon.=33.984291, Alt.=428.660400m. Speed=0.000000m/h.</desc>
<speed>0.000000</speed>
</trkpt>
<trkpt lat="44.517136" lon="33.984291">
<ele>428.676025</ele>
<time>2011-10-11T10:09:03Z</time>
<desc>lat.=44.517136, lon.=33.984291, Alt.=428.676025m. Speed=0.144000m/h.</desc>
<speed>0.040000</speed>
</trkpt>
<trkpt lat="44.517136" lon="33.984291">
<ele>428.691650</ele>
<time>2011-10-11T10:09:08Z</time>
<desc>lat.=44.517136, lon.=33.984291, Alt.=428.691650m. Speed=0.036000m/h.</desc>
<speed>0.010000</speed>
</trkpt>
<trkpt lat="44.517136" lon="33.984291">
<ele>428.691650</ele>
<time>2011-10-11T10:09:13Z</time>
<desc>lat.=44.517136, lon.=33.984291, Alt.=428.691650m. Speed=0.144000m/h.</desc>
<speed>0.040000</speed>
</trkpt>
<trkpt lat="44.517132" lon="33.984291">
<ele>428.699463</ele>
<time>2011-10-11T10:09:18Z</time>
<desc>lat.=44.517132, lon.=33.984291, Alt.=428.699463m. Speed=0.216000m/h.</desc>
<speed>0.060000</speed>
</trkpt>
<trkpt lat="44.517132" lon="33.984291">
<ele>428.691650</ele>
<time>2011-10-11T10:09:23Z</time>
<desc>lat.=44.517132, lon.=33.984291, Alt.=428.691650m. Speed=0.144000m/h.</desc>
<speed>0.040000</speed>
</trkpt>
<trkpt lat="44.517132" lon="33.984291">
<ele>428.660400</ele>
<time>2011-10-11T10:09:28Z</time>
<desc>lat.=44.517132, lon.=33.984291, Alt.=428.660400m. Speed=0.036000m/h.</desc>
<speed>0.010000</speed>
</trkpt>
<trkpt lat="44.517132" lon="33.984291">
<ele>428.644775</ele>
<time>2011-10-11T10:09:33Z</time>
<desc>lat.=44.517132, lon.=33.984291, Alt.=428.644775m. Speed=0.036000m/h.</desc>
<speed>0.010000</speed>
</trkpt>
<trkpt lat="44.517136" lon="33.984295">
<ele>428.652588</ele>
<time>2011-10-11T10:09:38Z</time>
<desc>lat.=44.517136, lon.=33.984295, Alt.=428.652588m. Speed=0.360000m/h.</desc>
<speed>0.100000</speed>
</trkpt>
<trkpt lat="44.517132" lon="33.984299">
<ele>428.644775</ele>
<time>2011-10-11T10:09:43Z</time>
<desc>lat.=44.517132, lon.=33.984299, Alt.=428.644775m. Speed=0.072000m/h.</desc>
<speed>0.020000</speed>
</trkpt>
<trkpt lat="44.517136" lon="33.984299">
<ele>428.629150</ele>
<time>2011-10-11T10:09:48Z</time>
<desc>lat.=44.517136, lon.=33.984299, Alt.=428.629150m. Speed=0.072000m/h.</desc>
<speed>0.020000</speed>
</trkpt>
<trkpt lat="44.517139" lon="33.984303">
<ele>428.629150</ele>
<time>2011-10-11T10:09:53Z</time>
<desc>lat.=44.517139, lon.=33.984303, Alt.=428.629150m. Speed=0.360000m/h.</desc>
<speed>0.100000</speed>
</trkpt>
<trkpt lat="44.517159" lon="33.984299">
<ele>428.402588</ele>
<time>2011-10-11T10:09:58Z</time>
<desc>lat.=44.517159, lon.=33.984299, Alt.=428.402588m. Speed=0.756000m/h.</desc>
<speed>0.210000</speed>
</trkpt>
<trkpt lat="44.517178" lon="33.984295">
<ele>428.347900</ele>
<time>2011-10-11T10:10:03Z</time>
<desc>lat.=44.517178, lon.=33.984295, Alt.=428.347900m. Speed=0.936000m/h.</desc>
<speed>0.260000</speed>
</trkpt>
<trkpt lat="44.517185" lon="33.984291">
<ele>428.355713</ele>
<time>2011-10-11T10:10:08Z</time>
<desc>lat.=44.517185, lon.=33.984291, Alt.=428.355713m. Speed=0.648000m/h.</desc>
<speed>0.180000</speed>
</trkpt>
<trkpt lat="44.517193" lon="33.984283">
<ele>428.355713</ele>
<time>2011-10-11T10:10:13Z</time>
<desc>lat.=44.517193, lon.=33.984283, Alt.=428.355713m. Speed=0.828000m/h.</desc>
<speed>0.230000</speed>
</trkpt>
<trkpt lat="44.517200" lon="33.984276">
<ele>428.363525</ele>
<time>2011-10-11T10:10:18Z</time>
<desc>lat.=44.517200, lon.=33.984276, Alt.=428.363525m. Speed=0.720000m/h.</desc>
<speed>0.200000</speed>
</trkpt>
<trkpt lat="44.517208" lon="33.984268">
<ele>428.363525</ele>
<time>2011-10-11T10:10:23Z</time>
<desc>lat.=44.517208, lon.=33.984268, Alt.=428.363525m. Speed=0.612000m/h.</desc>
<speed>0.170000</speed>
</trkpt>
<trkpt lat="44.517212" lon="33.984268">
<ele>428.394775</ele>
<time>2011-10-11T10:10:28Z</time>
<desc>lat.=44.517212, lon.=33.984268, Alt.=428.394775m. Speed=0.324000m/h.</desc>
<speed>0.090000</speed>
</trkpt>
<trkpt lat="44.517216" lon="33.984268">
<ele>428.441650</ele>
<time>2011-10-11T10:10:33Z</time>
<desc>lat.=44.517216, lon.=33.984268, Alt.=428.441650m. Speed=0.108000m/h.</desc>
<speed>0.030000</speed>
</trkpt>
<trkpt lat="44.517216" lon="33.984268">
<ele>428.480713</ele>
<time>2011-10-11T10:10:38Z</time>
<desc>lat.=44.517216, lon.=33.984268, Alt.=428.480713m. Speed=0.108000m/h.</desc>
<speed>0.030000</speed>
</trkpt>
<trkpt lat="44.517216" lon="33.984268">
<ele>428.511963</ele>
<time>2011-10-11T10:10:43Z</time>
<desc>lat.=44.517216, lon.=33.984268, Alt.=428.511963m. Speed=0.144000m/h.</desc>
<speed>0.040000</speed>
</trkpt>
<trkpt lat="44.517220" lon="33.984272">
<ele>428.543213</ele>
<time>2011-10-11T10:10:48Z</time>
<desc>lat.=44.517220, lon.=33.984272, Alt.=428.543213m. Speed=0.288000m/h.</desc>
<speed>0.080000</speed>
</trkpt>
<trkpt lat="44.517220" lon="33.984272">
<ele>428.551025</ele>
<time>2011-10-11T10:10:53Z</time>
<desc>lat.=44.517220, lon.=33.984272, Alt.=428.551025m. Speed=0.288000m/h.</desc>
<speed>0.080000</speed>
</trkpt>
<trkpt lat="44.517220" lon="33.984272">
<ele>428.519775</ele>
<time>2011-10-11T10:10:58Z</time>
<desc>lat.=44.517220, lon.=33.984272, Alt.=428.519775m. Speed=0.396000m/h.</desc>
<speed>0.110000</speed>
</trkpt>
<trkpt lat="44.517220" lon="33.984272">
<ele>428.441650</ele>
<time>2011-10-11T10:11:03Z</time>
<desc>lat.=44.517220, lon.=33.984272, Alt.=428.441650m. Speed=0.468000m/h.</desc>
<speed>0.130000</speed>
</trkpt>
<trkpt lat="44.517223" lon="33.984268">
<ele>428.363525</ele>
<time>2011-10-11T10:11:08Z</time>
<desc>lat.=44.517223, lon.=33.984268, Alt.=428.363525m. Speed=0.396000m/h.</desc>
<speed>0.110000</speed>
</trkpt>
<trkpt lat="44.517227" lon="33.984264">
<ele>428.285400</ele>
<time>2011-10-11T10:11:13Z</time>
<desc>lat.=44.517227, lon.=33.984264, Alt.=428.285400m. Speed=0.108000m/h.</desc>
<speed>0.030000</speed>
</trkpt>
<trkpt lat="44.517223" lon="33.984268">
<ele>428.230713</ele>
<time>2011-10-11T10:11:18Z</time>
<desc>lat.=44.517223, lon.=33.984268, Alt.=428.230713m. Speed=0.180000m/h.</desc>
<speed>0.050000</speed>
</trkpt>
<trkpt lat="44.517220" lon="33.984272">
<ele>428.222900</ele>
<time>2011-10-11T10:11:23Z</time>
<desc>lat.=44.517220, lon.=33.984272, Alt.=428.222900m. Speed=0.468000m/h.</desc>
<speed>0.130000</speed>
</trkpt>
<trkpt lat="44.517212" lon="33.984276">
<ele>428.191650</ele>
<time>2011-10-11T10:11:28Z</time>
<desc>lat.=44.517212, lon.=33.984276, Alt.=428.191650m. Speed=0.216000m/h.</desc>
<speed>0.060000</speed>
</trkpt>
<trkpt lat="44.517208" lon="33.984276">
<ele>428.160400</ele>
<time>2011-10-11T10:11:33Z</time>
<desc>lat.=44.517208, lon.=33.984276, Alt.=428.160400m. Speed=0.288000m/h.</desc>
<speed>0.080000</speed>
</trkpt>
<trkpt lat="44.517204" lon="33.984276">
<ele>428.136963</ele>
<time>2011-10-11T10:11:38Z</time>
<desc>lat.=44.517204, lon.=33.984276, Alt.=428.136963m. Speed=0.360000m/h.</desc>
<speed>0.100000</speed>
</trkpt>
<trkpt lat="44.517197" lon="33.984268">
<ele>427.504150</ele>
<time>2011-10-11T10:11:43Z</time>
<desc>lat.=44.517197, lon.=33.984268, Alt.=427.504150m. Speed=0.144000m/h.</desc>
<speed>0.040000</speed>
</trkpt>
<trkpt lat="44.517178" lon="33.984283">
<ele>426.902588</ele>
<time>2011-10-11T10:11:48Z</time>
<desc>lat.=44.517178, lon.=33.984283, Alt.=426.902588m. Speed=0.756000m/h.</desc>
<speed>0.210000</speed>
</trkpt>
<trkpt lat="44.517162" lon="33.984283">
<ele>422.769775</ele>
<time>2011-10-11T10:11:53Z</time>
<desc>lat.=44.517162, lon.=33.984283, Alt.=422.769775m. Speed=0.216000m/h.</desc>
<speed>0.060000</speed>
</trkpt>
<trkpt lat="44.517143" lon="33.984299">
<ele>421.613525</ele>
<time>2011-10-11T10:11:58Z</time>
<desc>lat.=44.517143, lon.=33.984299, Alt.=421.613525m. Speed=0.324000m/h.</desc>
<speed>0.090000</speed>
</trkpt>
<trkpt lat="44.517132" lon="33.984329">
<ele>420.918213</ele>
<time>2011-10-11T10:12:03Z</time>
<desc>lat.=44.517132, lon.=33.984329, Alt.=420.918213m. Speed=0.072000m/h.</desc>
<speed>0.020000</speed>
</trkpt>
<trkpt lat="44.517132" lon="33.984318">
<ele>420.254150</ele>
<time>2011-10-11T10:12:08Z</time>
<desc>lat.=44.517132, lon.=33.984318, Alt.=420.254150m. Speed=0.324000m/h.</desc>
<speed>0.090000</speed>
</trkpt>
<trkpt lat="44.517124" lon="33.984318">
<ele>419.840088</ele>
<time>2011-10-11T10:12:13Z</time>
<desc>lat.=44.517124, lon.=33.984318, Alt.=419.840088m. Speed=0.432000m/h.</desc>
<speed>0.120000</speed>
</trkpt>
<trkpt lat="44.517097" lon="33.984341">
<ele>419.152588</ele>
<time>2011-10-11T10:12:18Z</time>
<desc>lat.=44.517097, lon.=33.984341, Alt.=419.152588m. Speed=0.864000m/h.</desc>
<speed>0.240000</speed>
</trkpt>
<trkpt lat="44.517082" lon="33.984337">
<ele>417.840088</ele>
<time>2011-10-11T10:12:23Z</time>
<desc>lat.=44.517082, lon.=33.984337, Alt.=417.840088m. Speed=0.144000m/h.</desc>
<speed>0.040000</speed>
</trkpt>
<trkpt lat="44.517078" lon="33.984337">
<ele>417.785400</ele>
<time>2011-10-11T10:12:28Z</time>
<desc>lat.=44.517078, lon.=33.984337, Alt.=417.785400m. Speed=0.288000m/h.</desc>
<speed>0.080000</speed>
</trkpt>
<trkpt lat="44.517082" lon="33.984333">
<ele>417.715088</ele>
<time>2011-10-11T10:12:33Z</time>
<desc>lat.=44.517082, lon.=33.984333, Alt.=417.715088m. Speed=0.360000m/h.</desc>
<speed>0.100000</speed>
</trkpt>
<trkpt lat="44.517086" lon="33.984333">
<ele>417.597900</ele>
<time>2011-10-11T10:12:38Z</time>
<desc>lat.=44.517086, lon.=33.984333, Alt.=417.597900m. Speed=0.036000m/h.</desc>
<speed>0.010000</speed>
</trkpt>
<trkpt lat="44.517090" lon="33.984322">
<ele>417.488525</ele>
<time>2011-10-11T10:12:43Z</time>
<desc>lat.=44.517090, lon.=33.984322, Alt.=417.488525m. Speed=0.648000m/h.</desc>
<speed>0.180000</speed>
</trkpt>
<trkpt lat="44.517094" lon="33.984318">
<ele>417.449463</ele>
<time>2011-10-11T10:12:48Z</time>
<desc>lat.=44.517094, lon.=33.984318, Alt.=417.449463m. Speed=0.072000m/h.</desc>
<speed>0.020000</speed>
</trkpt>
<trkpt lat="44.517094" lon="33.984314">
<ele>417.410400</ele>
<time>2011-10-11T10:12:53Z</time>
<desc>lat.=44.517094, lon.=33.984314, Alt.=417.410400m. Speed=0.252000m/h.</desc>
<speed>0.070000</speed>
</trkpt>
<trkpt lat="44.517094" lon="33.984314">
<ele>417.379150</ele>
<time>2011-10-11T10:12:58Z</time>
<desc>lat.=44.517094, lon.=33.984314, Alt.=417.379150m. Speed=0.288000m/h.</desc>
<speed>0.080000</speed>
</trkpt>
<trkpt lat="44.517097" lon="33.984306">
<ele>417.363525</ele>
<time>2011-10-11T10:13:03Z</time>
<desc>lat.=44.517097, lon.=33.984306, Alt.=417.363525m. Speed=0.324000m/h.</desc>
<speed>0.090000</speed>
</trkpt>
<trkpt lat="44.517097" lon="33.984303">
<ele>417.347900</ele>
<time>2011-10-11T10:13:08Z</time>
<desc>lat.=44.517097, lon.=33.984303, Alt.=417.347900m. Speed=0.108000m/h.</desc>
<speed>0.030000</speed>
</trkpt>
<trkpt lat="44.517094" lon="33.984303">
<ele>417.332275</ele>
<time>2011-10-11T10:13:13Z</time>
<desc>lat.=44.517094, lon.=33.984303, Alt.=417.332275m. Speed=0.648000m/h.</desc>
<speed>0.180000</speed>
</trkpt>
<trkpt lat="44.517086" lon="33.984303">
<ele>417.324463</ele>
<time>2011-10-11T10:13:18Z</time>
<desc>lat.=44.517086, lon.=33.984303, Alt.=417.324463m. Speed=0.288000m/h.</desc>
<speed>0.080000</speed>
</trkpt>
<trkpt lat="44.517090" lon="33.984299">
<ele>417.308838</ele>
<time>2011-10-11T10:13:23Z</time>
<desc>lat.=44.517090, lon.=33.984299, Alt.=417.308838m. Speed=0.684000m/h.</desc>
<speed>0.190000</speed>
</trkpt>
<trkpt lat="44.517094" lon="33.984306">
<ele>417.293213</ele>
<time>2011-10-11T10:13:28Z</time>
<desc>lat.=44.517094, lon.=33.984306, Alt.=417.293213m. Speed=0.288000m/h.</desc>
<speed>0.080000</speed>
</trkpt>
<trkpt lat="44.517094" lon="33.984303">
<ele>417.246338</ele>
<time>2011-10-11T10:13:33Z</time>
<desc>lat.=44.517094, lon.=33.984303, Alt.=417.246338m. Speed=0.108000m/h.</desc>
<speed>0.030000</speed>
</trkpt>
<trkpt lat="44.517101" lon="33.984306">
<ele>417.222900</ele>
<time>2011-10-11T10:13:38Z</time>
<desc>lat.=44.517101, lon.=33.984306, Alt.=417.222900m. Speed=0.792000m/h.</desc>
<speed>0.220000</speed>
</trkpt>
<trkpt lat="44.517109" lon="33.984303">
<ele>417.207275</ele>
<time>2011-10-11T10:13:43Z</time>
<desc>lat.=44.517109, lon.=33.984303, Alt.=417.207275m. Speed=0.612000m/h.</desc>
<speed>0.170000</speed>
</trkpt>
<trkpt lat="44.517113" lon="33.984295">
<ele>417.144775</ele>
<time>2011-10-11T10:13:48Z</time>
<desc>lat.=44.517113, lon.=33.984295, Alt.=417.144775m. Speed=0.216000m/h.</desc>
<speed>0.060000</speed>
</trkpt>
<trkpt lat="44.517113" lon="33.984295">
<ele>417.074463</ele>
<time>2011-10-11T10:13:53Z</time>
<desc>lat.=44.517113, lon.=33.984295, Alt.=417.074463m. Speed=0.216000m/h.</desc>
<speed>0.060000</speed>
</trkpt>
<trkpt lat="44.517117" lon="33.984291">
<ele>417.011963</ele>
<time>2011-10-11T10:13:58Z</time>
<desc>lat.=44.517117, lon.=33.984291, Alt.=417.011963m. Speed=0.756000m/h.</desc>
<speed>0.210000</speed>
</trkpt>
<trkpt lat="44.517120" lon="33.984287">
<ele>416.941650</ele>
<time>2011-10-11T10:14:03Z</time>
<desc>lat.=44.517120, lon.=33.984287, Alt.=416.941650m. Speed=0.468000m/h.</desc>
<speed>0.130000</speed>
</trkpt>
<trkpt lat="44.517120" lon="33.984295">
<ele>416.941650</ele>
<time>2011-10-11T10:14:08Z</time>
<desc>lat.=44.517120, lon.=33.984295, Alt.=416.941650m. Speed=0.360000m/h.</desc>
<speed>0.100000</speed>
</trkpt>
<trkpt lat="44.517143" lon="33.984283">
<ele>417.082275</ele>
<time>2011-10-11T10:14:13Z</time>
<desc>lat.=44.517143, lon.=33.984283, Alt.=417.082275m. Speed=1.260000m/h.</desc>
<speed>0.350000</speed>
</trkpt>
<trkpt lat="44.517181" lon="33.984257">
<ele>417.144775</ele>
<time>2011-10-11T10:14:18Z</time>
<desc>lat.=44.517181, lon.=33.984257, Alt.=417.144775m. Speed=1.044000m/h.</desc>
<speed>0.290000</speed>
</trkpt>
<trkpt lat="44.517204" lon="33.984238">
<ele>416.793213</ele>
<time>2011-10-11T10:14:23Z</time>
<desc>lat.=44.517204, lon.=33.984238, Alt.=416.793213m. Speed=1.080000m/h.</desc>
<speed>0.300000</speed>
</trkpt>
<trkpt lat="44.517212" lon="33.984230">
<ele>416.496338</ele>
<time>2011-10-11T10:14:28Z</time>
<desc>lat.=44.517212, lon.=33.984230, Alt.=416.496338m. Speed=0.720000m/h.</desc>
<speed>0.200000</speed>
</trkpt>
<trkpt lat="44.517223" lon="33.984230">
<ele>416.355713</ele>
<time>2011-10-11T10:14:33Z</time>
<desc>lat.=44.517223, lon.=33.984230, Alt.=416.355713m. Speed=0.972000m/h.</desc>
<speed>0.270000</speed>
</trkpt>
<trkpt lat="44.517231" lon="33.984230">
<ele>416.363525</ele>
<time>2011-10-11T10:14:38Z</time>
<desc>lat.=44.517231, lon.=33.984230, Alt.=416.363525m. Speed=0.756000m/h.</desc>
<speed>0.210000</speed>
</trkpt>
<trkpt lat="44.517239" lon="33.984238">
<ele>416.433838</ele>
<time>2011-10-11T10:14:43Z</time>
<desc>lat.=44.517239, lon.=33.984238, Alt.=416.433838m. Speed=0.648000m/h.</desc>
<speed>0.180000</speed>
</trkpt>
<trkpt lat="44.517246" lon="33.984245">
<ele>416.511963</ele>
<time>2011-10-11T10:14:48Z</time>
<desc>lat.=44.517246, lon.=33.984245, Alt.=416.511963m. Speed=0.504000m/h.</desc>
<speed>0.140000</speed>
</trkpt>
<trkpt lat="44.517254" lon="33.984253">
<ele>416.644775</ele>
<time>2011-10-11T10:14:53Z</time>
<desc>lat.=44.517254, lon.=33.984253, Alt.=416.644775m. Speed=0.864000m/h.</desc>
<speed>0.240000</speed>
</trkpt>
<trkpt lat="44.517262" lon="33.984261">
<ele>416.894775</ele>
<time>2011-10-11T10:14:58Z</time>
<desc>lat.=44.517262, lon.=33.984261, Alt.=416.894775m. Speed=0.936000m/h.</desc>
<speed>0.260000</speed>
</trkpt>
<trkpt lat="44.517281" lon="33.984291">
<ele>418.660400</ele>
<time>2011-10-11T10:15:03Z</time>
<desc>lat.=44.517281, lon.=33.984291, Alt.=418.660400m. Speed=1.224000m/h.</desc>
<speed>0.340000</speed>
</trkpt>
<trkpt lat="44.517246" lon="33.984364">
<ele>420.769775</ele>
<time>2011-10-11T10:15:08Z</time>
<desc>lat.=44.517246, lon.=33.984364, Alt.=420.769775m. Speed=1.116000m/h.</desc>
<speed>0.310000</speed>
</trkpt>
<trkpt lat="44.517250" lon="33.984367">
<ele>423.215088</ele>
<time>2011-10-11T10:15:13Z</time>
<desc>lat.=44.517250, lon.=33.984367, Alt.=423.215088m. Speed=0.468000m/h.</desc>
<speed>0.130000</speed>
</trkpt>
<trkpt lat="44.517250" lon="33.984379">
<ele>423.949463</ele>
<time>2011-10-11T10:15:18Z</time>
<desc>lat.=44.517250, lon.=33.984379, Alt.=423.949463m. Speed=0.540000m/h.</desc>
<speed>0.150000</speed>
</trkpt>
<trkpt lat="44.517250" lon="33.984383">
<ele>425.035400</ele>
<time>2011-10-11T10:15:23Z</time>
<desc>lat.=44.517250, lon.=33.984383, Alt.=425.035400m. Speed=0.036000m/h.</desc>
<speed>0.010000</speed>
</trkpt>
<trkpt lat="44.517258" lon="33.984386">
<ele>426.207275</ele>
<time>2011-10-11T10:15:28Z</time>
<desc>lat.=44.517258, lon.=33.984386, Alt.=426.207275m. Speed=0.648000m/h.</desc>
<speed>0.180000</speed>
</trkpt>
<trkpt lat="44.517265" lon="33.984394">
<ele>427.293213</ele>
<time>2011-10-11T10:15:33Z</time>
<desc>lat.=44.517265, lon.=33.984394, Alt.=427.293213m. Speed=0.576000m/h.</desc>
<speed>0.160000</speed>
</trkpt>
<trkpt lat="44.517269" lon="33.984398">
<ele>428.269775</ele>
<time>2011-10-11T10:15:38Z</time>
<desc>lat.=44.517269, lon.=33.984398, Alt.=428.269775m. Speed=0.504000m/h.</desc>
<speed>0.140000</speed>
</trkpt>
<trkpt lat="44.517273" lon="33.984406">
<ele>429.215088</ele>
<time>2011-10-11T10:15:43Z</time>
<desc>lat.=44.517273, lon.=33.984406, Alt.=429.215088m. Speed=0.432000m/h.</desc>
<speed>0.120000</speed>
</trkpt>
<trkpt lat="44.517273" lon="33.984413">
<ele>430.121338</ele>
<time>2011-10-11T10:15:48Z</time>
<desc>lat.=44.517273, lon.=33.984413, Alt.=430.121338m. Speed=0.324000m/h.</desc>
<speed>0.090000</speed>
</trkpt>
<trkpt lat="44.517273" lon="33.984417">
<ele>431.043213</ele>
<time>2011-10-11T10:15:53Z</time>
<desc>lat.=44.517273, lon.=33.984417, Alt.=431.043213m. Speed=0.324000m/h.</desc>
<speed>0.090000</speed>
</trkpt>
<trkpt lat="44.517273" lon="33.984421">
<ele>431.965088</ele>
<time>2011-10-11T10:15:58Z</time>
<desc>lat.=44.517273, lon.=33.984421, Alt.=431.965088m. Speed=0.360000m/h.</desc>
<speed>0.100000</speed>
</trkpt>
<trkpt lat="44.517277" lon="33.984428">
<ele>432.941650</ele>
<time>2011-10-11T10:16:03Z</time>
<desc>lat.=44.517277, lon.=33.984428, Alt.=432.941650m. Speed=0.324000m/h.</desc>
<speed>0.090000</speed>
</trkpt>
<trkpt lat="44.517277" lon="33.984432">
<ele>433.902588</ele>
<time>2011-10-11T10:16:08Z</time>
<desc>lat.=44.517277, lon.=33.984432, Alt.=433.902588m. Speed=0.324000m/h.</desc>
<speed>0.090000</speed>
</trkpt>
<trkpt lat="44.517277" lon="33.984436">
<ele>434.816650</ele>
<time>2011-10-11T10:16:13Z</time>
<desc>lat.=44.517277, lon.=33.984436, Alt.=434.816650m. Speed=0.612000m/h.</desc>
<speed>0.170000</speed>
</trkpt>
<trkpt lat="44.517281" lon="33.984436">
<ele>435.746338</ele>
<time>2011-10-11T10:16:18Z</time>
<desc>lat.=44.517281, lon.=33.984436, Alt.=435.746338m. Speed=0.324000m/h.</desc>
<speed>0.090000</speed>
</trkpt>
<trkpt lat="44.517284" lon="33.984444">
<ele>436.777588</ele>
<time>2011-10-11T10:16:23Z</time>
<desc>lat.=44.517284, lon.=33.984444, Alt.=436.777588m. Speed=0.288000m/h.</desc>
<speed>0.080000</speed>
</trkpt>
<trkpt lat="44.517284" lon="33.984447">
<ele>437.871338</ele>
<time>2011-10-11T10:16:28Z</time>
<desc>lat.=44.517284, lon.=33.984447, Alt.=437.871338m. Speed=0.396000m/h.</desc>
<speed>0.110000</speed>
</trkpt>
<trkpt lat="44.517288" lon="33.984451">
<ele>439.035400</ele>
<time>2011-10-11T10:16:33Z</time>
<desc>lat.=44.517288, lon.=33.984451, Alt.=439.035400m. Speed=0.396000m/h.</desc>
<speed>0.110000</speed>
</trkpt>
<trkpt lat="44.517292" lon="33.984459">
<ele>440.160400</ele>
<time>2011-10-11T10:16:38Z</time>
<desc>lat.=44.517292, lon.=33.984459, Alt.=440.160400m. Speed=0.396000m/h.</desc>
<speed>0.110000</speed>
</trkpt>
<trkpt lat="44.517288" lon="33.984467">
<ele>441.199463</ele>
<time>2011-10-11T10:16:43Z</time>
<desc>lat.=44.517288, lon.=33.984467, Alt.=441.199463m. Speed=0.324000m/h.</desc>
<speed>0.090000</speed>
</trkpt>
<trkpt lat="44.517288" lon="33.984470">
<ele>442.152588</ele>
<time>2011-10-11T10:16:48Z</time>
<desc>lat.=44.517288, lon.=33.984470, Alt.=442.152588m. Speed=0.324000m/h.</desc>
<speed>0.090000</speed>
</trkpt>
<trkpt lat="44.517265" lon="33.984463">
<ele>442.496338</ele>
<time>2011-10-11T10:16:53Z</time>
<desc>lat.=44.517265, lon.=33.984463, Alt.=442.496338m. Speed=0.468000m/h.</desc>
<speed>0.130000</speed>
</trkpt>
<trkpt lat="44.517227" lon="33.984447">
<ele>440.285400</ele>
<time>2011-10-11T10:16:58Z</time>
<desc>lat.=44.517227, lon.=33.984447, Alt.=440.285400m. Speed=0.612000m/h.</desc>
<speed>0.170000</speed>
</trkpt>
<trkpt lat="44.517208" lon="33.984428">
<ele>437.511963</ele>
<time>2011-10-11T10:17:03Z</time>
<desc>lat.=44.517208, lon.=33.984428, Alt.=437.511963m. Speed=0.576000m/h.</desc>
<speed>0.160000</speed>
</trkpt>
<trkpt lat="44.517227" lon="33.984383">
<ele>433.543213</ele>
<time>2011-10-11T10:17:08Z</time>
<desc>lat.=44.517227, lon.=33.984383, Alt.=433.543213m. Speed=0.252000m/h.</desc>
<speed>0.070000</speed>
</trkpt>
<trkpt lat="44.517235" lon="33.984344">
<ele>429.808838</ele>
<time>2011-10-11T10:17:13Z</time>
<desc>lat.=44.517235, lon.=33.984344, Alt.=429.808838m. Speed=0.216000m/h.</desc>
<speed>0.060000</speed>
</trkpt>
<trkpt lat="44.517246" lon="33.984322">
<ele>427.347900</ele>
<time>2011-10-11T10:17:18Z</time>
<desc>lat.=44.517246, lon.=33.984322, Alt.=427.347900m. Speed=0.468000m/h.</desc>
<speed>0.130000</speed>
</trkpt>
<trkpt lat="44.517235" lon="33.984318">
<ele>425.011963</ele>
<time>2011-10-11T10:17:23Z</time>
<desc>lat.=44.517235, lon.=33.984318, Alt.=425.011963m. Speed=0.252000m/h.</desc>
<speed>0.070000</speed>
</trkpt>
<trkpt lat="44.517235" lon="33.984303">
<ele>423.621338</ele>
<time>2011-10-11T10:17:28Z</time>
<desc>lat.=44.517235, lon.=33.984303, Alt.=423.621338m. Speed=0.396000m/h.</desc>
<speed>0.110000</speed>
</trkpt>
<trkpt lat="44.517246" lon="33.984276">
<ele>422.222900</ele>
<time>2011-10-11T10:17:33Z</time>
<desc>lat.=44.517246, lon.=33.984276, Alt.=422.222900m. Speed=0.720000m/h.</desc>
<speed>0.200000</speed>
</trkpt>
<trkpt lat="44.517262" lon="33.984257">
<ele>420.980713</ele>
<time>2011-10-11T10:17:38Z</time>
<desc>lat.=44.517262, lon.=33.984257, Alt.=420.980713m. Speed=1.368000m/h.</desc>
<speed>0.380000</speed>
</trkpt>
<trkpt lat="44.517265" lon="33.984226">
<ele>418.785400</ele>
<time>2011-10-11T10:17:43Z</time>
<desc>lat.=44.517265, lon.=33.984226, Alt.=418.785400m. Speed=0.900000m/h.</desc>
<speed>0.250000</speed>
</trkpt>
<trkpt lat="44.517242" lon="33.984215">
<ele>417.551025</ele>
<time>2011-10-11T10:17:48Z</time>
<desc>lat.=44.517242, lon.=33.984215, Alt.=417.551025m. Speed=0.360000m/h.</desc>
<speed>0.100000</speed>
</trkpt>
<trkpt lat="44.517242" lon="33.984211">
<ele>416.496338</ele>
<time>2011-10-11T10:17:53Z</time>
<desc>lat.=44.517242, lon.=33.984211, Alt.=416.496338m. Speed=0.180000m/h.</desc>
<speed>0.050000</speed>
</trkpt>
<trkpt lat="44.517239" lon="33.984215">
<ele>415.433838</ele>
<time>2011-10-11T10:17:58Z</time>
<desc>lat.=44.517239, lon.=33.984215, Alt.=415.433838m. Speed=0.504000m/h.</desc>
<speed>0.140000</speed>
</trkpt>
<trkpt lat="44.517231" lon="33.984219">
<ele>414.465088</ele>
<time>2011-10-11T10:18:03Z</time>
<desc>lat.=44.517231, lon.=33.984219, Alt.=414.465088m. Speed=0.504000m/h.</desc>
<speed>0.140000</speed>
</trkpt>
<trkpt lat="44.517189" lon="33.984200">
<ele>415.785400</ele>
<time>2011-10-11T10:18:08Z</time>
<desc>lat.=44.517189, lon.=33.984200, Alt.=415.785400m. Speed=0.252000m/h.</desc>
<speed>0.070000</speed>
</trkpt>
<trkpt lat="44.517159" lon="33.984207">
<ele>417.441650</ele>
<time>2011-10-11T10:18:13Z</time>
<desc>lat.=44.517159, lon.=33.984207, Alt.=417.441650m. Speed=0.360000m/h.</desc>
<speed>0.100000</speed>
</trkpt>
<trkpt lat="44.517136" lon="33.984238">
<ele>416.847900</ele>
<time>2011-10-11T10:18:18Z</time>
<desc>lat.=44.517136, lon.=33.984238, Alt.=416.847900m. Speed=0.468000m/h.</desc>
<speed>0.130000</speed>
</trkpt>
<trkpt lat="44.517094" lon="33.984203">
<ele>415.941650</ele>
<time>2011-10-11T10:18:23Z</time>
<desc>lat.=44.517094, lon.=33.984203, Alt.=415.941650m. Speed=0.468000m/h.</desc>
<speed>0.130000</speed>
</trkpt>
<trkpt lat="44.517105" lon="33.984203">
<ele>416.129150</ele>
<time>2011-10-11T10:18:28Z</time>
<desc>lat.=44.517105, lon.=33.984203, Alt.=416.129150m. Speed=0.576000m/h.</desc>
<speed>0.160000</speed>
</trkpt>
<trkpt lat="44.517105" lon="33.984241">
<ele>416.957275</ele>
<time>2011-10-11T10:18:33Z</time>
<desc>lat.=44.517105, lon.=33.984241, Alt.=416.957275m. Speed=0.720000m/h.</desc>
<speed>0.200000</speed>
</trkpt>
<trkpt lat="44.517082" lon="33.984268">
<ele>416.472900</ele>
<time>2011-10-11T10:18:38Z</time>
<desc>lat.=44.517082, lon.=33.984268, Alt.=416.472900m. Speed=0.468000m/h.</desc>
<speed>0.130000</speed>
</trkpt>
<trkpt lat="44.517086" lon="33.984303">
<ele>415.980713</ele>
<time>2011-10-11T10:18:43Z</time>
<desc>lat.=44.517086, lon.=33.984303, Alt.=415.980713m. Speed=0.288000m/h.</desc>
<speed>0.080000</speed>
</trkpt>
<trkpt lat="44.517094" lon="33.984329">
<ele>415.566650</ele>
<time>2011-10-11T10:18:48Z</time>
<desc>lat.=44.517094, lon.=33.984329, Alt.=415.566650m. Speed=0.324000m/h.</desc>
<speed>0.090000</speed>
</trkpt>
<trkpt lat="44.517086" lon="33.984333">
<ele>415.136963</ele>
<time>2011-10-11T10:18:53Z</time>
<desc>lat.=44.517086, lon.=33.984333, Alt.=415.136963m. Speed=0.576000m/h.</desc>
<speed>0.160000</speed>
</trkpt>
<trkpt lat="44.517090" lon="33.984303">
<ele>414.191650</ele>
<time>2011-10-11T10:18:58Z</time>
<desc>lat.=44.517090, lon.=33.984303, Alt.=414.191650m. Speed=1.008000m/h.</desc>
<speed>0.280000</speed>
</trkpt>
<trkpt lat="44.517105" lon="33.984287">
<ele>413.035400</ele>
<time>2011-10-11T10:19:03Z</time>
<desc>lat.=44.517105, lon.=33.984287, Alt.=413.035400m. Speed=0.576000m/h.</desc>
<speed>0.160000</speed>
</trkpt>
<trkpt lat="44.517124" lon="33.984287">
<ele>413.605713</ele>
<time>2011-10-11T10:19:08Z</time>
<desc>lat.=44.517124, lon.=33.984287, Alt.=413.605713m. Speed=0.648000m/h.</desc>
<speed>0.180000</speed>
</trkpt>
<trkpt lat="44.517143" lon="33.984276">
<ele>414.090088</ele>
<time>2011-10-11T10:19:13Z</time>
<desc>lat.=44.517143, lon.=33.984276, Alt.=414.090088m. Speed=0.540000m/h.</desc>
<speed>0.150000</speed>
</trkpt>
<trkpt lat="44.517170" lon="33.984249">
<ele>415.090088</ele>
<time>2011-10-11T10:19:18Z</time>
<desc>lat.=44.517170, lon.=33.984249, Alt.=415.090088m. Speed=0.576000m/h.</desc>
<speed>0.160000</speed>
</trkpt>
<trkpt lat="44.517204" lon="33.984264">
<ele>416.590088</ele>
<time>2011-10-11T10:19:23Z</time>
<desc>lat.=44.517204, lon.=33.984264, Alt.=416.590088m. Speed=0.576000m/h.</desc>
<speed>0.160000</speed>
</trkpt>
<trkpt lat="44.517197" lon="33.984299">
<ele>417.707275</ele>
<time>2011-10-11T10:19:28Z</time>
<desc>lat.=44.517197, lon.=33.984299, Alt.=417.707275m. Speed=0.540000m/h.</desc>
<speed>0.150000</speed>
</trkpt>
<trkpt lat="44.517174" lon="33.984303">
<ele>418.426025</ele>
<time>2011-10-11T10:19:33Z</time>
<desc>lat.=44.517174, lon.=33.984303, Alt.=418.426025m. Speed=0.108000m/h.</desc>
<speed>0.030000</speed>
</trkpt>
<trkpt lat="44.517170" lon="33.984314">
<ele>418.879150</ele>
<time>2011-10-11T10:19:38Z</time>
<desc>lat.=44.517170, lon.=33.984314, Alt.=418.879150m. Speed=0.000000m/h.</desc>
<speed>0.000000</speed>
</trkpt>
<trkpt lat="44.517109" lon="33.984303">
<ele>416.840088</ele>
<time>2011-10-11T10:19:43Z</time>
<desc>lat.=44.517109, lon.=33.984303, Alt.=416.840088m. Speed=0.432000m/h.</desc>
<speed>0.120000</speed>
</trkpt>
<trkpt lat="44.517097" lon="33.984283">
<ele>415.644775</ele>
<time>2011-10-11T10:19:48Z</time>
<desc>lat.=44.517097, lon.=33.984283, Alt.=415.644775m. Speed=0.180000m/h.</desc>
<speed>0.050000</speed>
</trkpt>
<trkpt lat="44.517090" lon="33.984280">
<ele>415.496338</ele>
<time>2011-10-11T10:19:53Z</time>
<desc>lat.=44.517090, lon.=33.984280, Alt.=415.496338m. Speed=0.108000m/h.</desc>
<speed>0.030000</speed>
</trkpt>
<trkpt lat="44.517090" lon="33.984280">
<ele>414.676025</ele>
<time>2011-10-11T10:19:58Z</time>
<desc>lat.=44.517090, lon.=33.984280, Alt.=414.676025m. Speed=0.072000m/h.</desc>
<speed>0.020000</speed>
</trkpt>
<trkpt lat="44.517086" lon="33.984283">
<ele>414.621338</ele>
<time>2011-10-11T10:20:03Z</time>
<desc>lat.=44.517086, lon.=33.984283, Alt.=414.621338m. Speed=0.216000m/h.</desc>
<speed>0.060000</speed>
</trkpt>
<trkpt lat="44.517082" lon="33.984287">
<ele>414.574463</ele>
<time>2011-10-11T10:20:08Z</time>
<desc>lat.=44.517082, lon.=33.984287, Alt.=414.574463m. Speed=0.216000m/h.</desc>
<speed>0.060000</speed>
</trkpt>
<trkpt lat="44.517082" lon="33.984291">
<ele>414.566650</ele>
<time>2011-10-11T10:20:13Z</time>
<desc>lat.=44.517082, lon.=33.984291, Alt.=414.566650m. Speed=0.180000m/h.</desc>
<speed>0.050000</speed>
</trkpt>
<trkpt lat="44.517078" lon="33.984291">
<ele>414.590088</ele>
<time>2011-10-11T10:20:18Z</time>
<desc>lat.=44.517078, lon.=33.984291, Alt.=414.590088m. Speed=0.216000m/h.</desc>
<speed>0.060000</speed>
</trkpt>
<trkpt lat="44.517082" lon="33.984291">
<ele>414.621338</ele>
<time>2011-10-11T10:20:23Z</time>
<desc>lat.=44.517082, lon.=33.984291, Alt.=414.621338m. Speed=0.180000m/h.</desc>
<speed>0.050000</speed>
</trkpt>
<trkpt lat="44.517082" lon="33.984291">
<ele>414.621338</ele>
<time>2011-10-11T10:20:28Z</time>
<desc>lat.=44.517082, lon.=33.984291, Alt.=414.621338m. Speed=0.108000m/h.</desc>
<speed>0.030000</speed>
</trkpt>
<trkpt lat="44.517082" lon="33.984287">
<ele>414.590088</ele>
<time>2011-10-11T10:20:33Z</time>
<desc>lat.=44.517082, lon.=33.984287, Alt.=414.590088m. Speed=0.144000m/h.</desc>
<speed>0.040000</speed>
</trkpt>
<trkpt lat="44.517082" lon="33.984287">
<ele>414.574463</ele>
<time>2011-10-11T10:20:38Z</time>
<desc>lat.=44.517082, lon.=33.984287, Alt.=414.574463m. Speed=0.036000m/h.</desc>
<speed>0.010000</speed>
</trkpt>
<trkpt lat="44.517082" lon="33.984287">
<ele>414.519775</ele>
<time>2011-10-11T10:20:43Z</time>
<desc>lat.=44.517082, lon.=33.984287, Alt.=414.519775m. Speed=0.072000m/h.</desc>
<speed>0.020000</speed>
</trkpt>
<trkpt lat="44.517082" lon="33.984287">
<ele>414.480713</ele>
<time>2011-10-11T10:20:48Z</time>
<desc>lat.=44.517082, lon.=33.984287, Alt.=414.480713m. Speed=0.252000m/h.</desc>
<speed>0.070000</speed>
</trkpt>
<trkpt lat="44.517082" lon="33.984283">
<ele>414.480713</ele>
<time>2011-10-11T10:20:53Z</time>
<desc>lat.=44.517082, lon.=33.984283, Alt.=414.480713m. Speed=0.144000m/h.</desc>
<speed>0.040000</speed>
</trkpt>
<trkpt lat="44.517082" lon="33.984283">
<ele>414.449463</ele>
<time>2011-10-11T10:20:58Z</time>
<desc>lat.=44.517082, lon.=33.984283, Alt.=414.449463m. Speed=0.144000m/h.</desc>
<speed>0.040000</speed>
</trkpt>
<trkpt lat="44.517082" lon="33.984283">
<ele>414.472900</ele>
<time>2011-10-11T10:21:03Z</time>
<desc>lat.=44.517082, lon.=33.984283, Alt.=414.472900m. Speed=0.108000m/h.</desc>
<speed>0.030000</speed>
</trkpt>
<trkpt lat="44.517082" lon="33.984283">
<ele>414.480713</ele>
<time>2011-10-11T10:21:08Z</time>
<desc>lat.=44.517082, lon.=33.984283, Alt.=414.480713m. Speed=0.108000m/h.</desc>
<speed>0.030000</speed>
</trkpt>
<trkpt lat="44.517082" lon="33.984280">
<ele>414.504150</ele>
<time>2011-10-11T10:21:13Z</time>
<desc>lat.=44.517082, lon.=33.984280, Alt.=414.504150m. Speed=0.108000m/h.</desc>
<speed>0.030000</speed>
</trkpt>
<trkpt lat="44.517082" lon="33.984280">
<ele>414.511963</ele>
<time>2011-10-11T10:21:18Z</time>
<desc>lat.=44.517082, lon.=33.984280, Alt.=414.511963m. Speed=0.072000m/h.</desc>
<speed>0.020000</speed>
</trkpt>
<trkpt lat="44.517082" lon="33.984280">
<ele>414.535400</ele>
<time>2011-10-11T10:21:23Z</time>
<desc>lat.=44.517082, lon.=33.984280, Alt.=414.535400m. Speed=0.108000m/h.</desc>
<speed>0.030000</speed>
</trkpt>
<trkpt lat="44.517082" lon="33.984276">
<ele>414.551025</ele>
<time>2011-10-11T10:21:28Z</time>
<desc>lat.=44.517082, lon.=33.984276, Alt.=414.551025m. Speed=0.036000m/h.</desc>
<speed>0.010000</speed>
</trkpt>
<trkpt lat="44.517082" lon="33.984276">
<ele>414.558838</ele>
<time>2011-10-11T10:21:33Z</time>
<desc>lat.=44.517082, lon.=33.984276, Alt.=414.558838m. Speed=0.036000m/h.</desc>
<speed>0.010000</speed>
</trkpt>
<trkpt lat="44.517082" lon="33.984276">
<ele>414.574463</ele>
<time>2011-10-11T10:21:38Z</time>
<desc>lat.=44.517082, lon.=33.984276, Alt.=414.574463m. Speed=0.036000m/h.</desc>
<speed>0.010000</speed>
</trkpt>
<trkpt lat="44.517078" lon="33.984276">
<ele>414.590088</ele>
<time>2011-10-11T10:21:43Z</time>
<desc>lat.=44.517078, lon.=33.984276, Alt.=414.590088m. Speed=0.036000m/h.</desc>
<speed>0.010000</speed>
</trkpt>
<trkpt lat="44.517078" lon="33.984276">
<ele>414.629150</ele>
<time>2011-10-11T10:21:48Z</time>
<desc>lat.=44.517078, lon.=33.984276, Alt.=414.629150m. Speed=0.072000m/h.</desc>
<speed>0.020000</speed>
</trkpt>
<trkpt lat="44.517078" lon="33.984276">
<ele>414.683838</ele>
<time>2011-10-11T10:21:53Z</time>
<desc>lat.=44.517078, lon.=33.984276, Alt.=414.683838m. Speed=0.108000m/h.</desc>
<speed>0.030000</speed>
</trkpt>
<trkpt lat="44.517078" lon="33.984276">
<ele>414.738525</ele>
<time>2011-10-11T10:21:58Z</time>
<desc>lat.=44.517078, lon.=33.984276, Alt.=414.738525m. Speed=0.000000m/h.</desc>
<speed>0.000000</speed>
</trkpt>
<trkpt lat="44.517078" lon="33.984272">
<ele>414.761963</ele>
<time>2011-10-11T10:22:03Z</time>
<desc>lat.=44.517078, lon.=33.984272, Alt.=414.761963m. Speed=0.036000m/h.</desc>
<speed>0.010000</speed>
</trkpt>
<trkpt lat="44.517078" lon="33.984272">
<ele>414.785400</ele>
<time>2011-10-11T10:22:08Z</time>
<desc>lat.=44.517078, lon.=33.984272, Alt.=414.785400m. Speed=0.108000m/h.</desc>
<speed>0.030000</speed>
</trkpt>
<trkpt lat="44.517078" lon="33.984272">
<ele>414.801025</ele>
<time>2011-10-11T10:22:13Z</time>
<desc>lat.=44.517078, lon.=33.984272, Alt.=414.801025m. Speed=0.072000m/h.</desc>
<speed>0.020000</speed>
</trkpt>
<trkpt lat="44.517078" lon="33.984272">
<ele>414.816650</ele>
<time>2011-10-11T10:22:18Z</time>
<desc>lat.=44.517078, lon.=33.984272, Alt.=414.816650m. Speed=0.036000m/h.</desc>
<speed>0.010000</speed>
</trkpt>
<trkpt lat="44.517078" lon="33.984272">
<ele>414.808838</ele>
<time>2011-10-11T10:22:23Z</time>
<desc>lat.=44.517078, lon.=33.984272, Alt.=414.808838m. Speed=0.000000m/h.</desc>
<speed>0.000000</speed>
</trkpt>
<trkpt lat="44.517078" lon="33.984272">
<ele>414.816650</ele>
<time>2011-10-11T10:22:28Z</time>
<desc>lat.=44.517078, lon.=33.984272, Alt.=414.816650m. Speed=0.036000m/h.</desc>
<speed>0.010000</speed>
</trkpt>
<trkpt lat="44.517078" lon="33.984272">
<ele>414.832275</ele>
<time>2011-10-11T10:22:33Z</time>
<desc>lat.=44.517078, lon.=33.984272, Alt.=414.832275m. Speed=0.036000m/h.</desc>
<speed>0.010000</speed>
</trkpt>
<trkpt lat="44.517078" lon="33.984268">
<ele>414.847900</ele>
<time>2011-10-11T10:22:38Z</time>
<desc>lat.=44.517078, lon.=33.984268, Alt.=414.847900m. Speed=0.036000m/h.</desc>
<speed>0.010000</speed>
</trkpt>
<trkpt lat="44.517078" lon="33.984268">
<ele>414.793213</ele>
<time>2011-10-11T10:22:43Z</time>
<desc>lat.=44.517078, lon.=33.984268, Alt.=414.793213m. Speed=0.072000m/h.</desc>
<speed>0.020000</speed>
</trkpt>
<trkpt lat="44.517078" lon="33.984268">
<ele>414.793213</ele>
<time>2011-10-11T10:22:48Z</time>
<desc>lat.=44.517078, lon.=33.984268, Alt.=414.793213m. Speed=0.144000m/h.</desc>
<speed>0.040000</speed>
</trkpt>
<trkpt lat="44.517078" lon="33.984268">
<ele>414.832275</ele>
<time>2011-10-11T10:22:53Z</time>
<desc>lat.=44.517078, lon.=33.984268, Alt.=414.832275m. Speed=0.180000m/h.</desc>
<speed>0.050000</speed>
</trkpt>
<trkpt lat="44.517078" lon="33.984264">
<ele>414.855713</ele>
<time>2011-10-11T10:22:58Z</time>
<desc>lat.=44.517078, lon.=33.984264, Alt.=414.855713m. Speed=0.216000m/h.</desc>
<speed>0.060000</speed>
</trkpt>
<trkpt lat="44.517078" lon="33.984264">
<ele>414.871338</ele>
<time>2011-10-11T10:23:03Z</time>
<desc>lat.=44.517078, lon.=33.984264, Alt.=414.871338m. Speed=0.180000m/h.</desc>
<speed>0.050000</speed>
</trkpt>
<trkpt lat="44.517075" lon="33.984264">
<ele>414.894775</ele>
<time>2011-10-11T10:23:08Z</time>
<desc>lat.=44.517075, lon.=33.984264, Alt.=414.894775m. Speed=0.144000m/h.</desc>
<speed>0.040000</speed>
</trkpt>
<trkpt lat="44.517075" lon="33.984264">
<ele>414.933838</ele>
<time>2011-10-11T10:23:13Z</time>
<desc>lat.=44.517075, lon.=33.984264, Alt.=414.933838m. Speed=0.036000m/h.</desc>
<speed>0.010000</speed>
</trkpt>
<trkpt lat="44.517075" lon="33.984264">
<ele>414.988525</ele>
<time>2011-10-11T10:23:18Z</time>
<desc>lat.=44.517075, lon.=33.984264, Alt.=414.988525m. Speed=0.072000m/h.</desc>
<speed>0.020000</speed>
</trkpt>
<trkpt lat="44.517075" lon="33.984264">
<ele>415.051025</ele>
<time>2011-10-11T10:23:23Z</time>
<desc>lat.=44.517075, lon.=33.984264, Alt.=415.051025m. Speed=0.108000m/h.</desc>
<speed>0.030000</speed>
</trkpt>
<trkpt lat="44.517075" lon="33.984261">
<ele>415.105713</ele>
<time>2011-10-11T10:23:28Z</time>
<desc>lat.=44.517075, lon.=33.984261, Alt.=415.105713m. Speed=0.072000m/h.</desc>
<speed>0.020000</speed>
</trkpt>
<trkpt lat="44.517075" lon="33.984261">
<ele>415.144775</ele>
<time>2011-10-11T10:23:33Z</time>
<desc>lat.=44.517075, lon.=33.984261, Alt.=415.144775m. Speed=0.000000m/h.</desc>
<speed>0.000000</speed>
</trkpt>
<trkpt lat="44.517075" lon="33.984261">
<ele>415.176025</ele>
<time>2011-10-11T10:23:38Z</time>
<desc>lat.=44.517075, lon.=33.984261, Alt.=415.176025m. Speed=0.000000m/h.</desc>
<speed>0.000000</speed>
</trkpt>
<trkpt lat="44.517075" lon="33.984261">
<ele>415.207275</ele>
<time>2011-10-11T10:23:43Z</time>
<desc>lat.=44.517075, lon.=33.984261, Alt.=415.207275m. Speed=0.036000m/h.</desc>
<speed>0.010000</speed>
</trkpt>
<trkpt lat="44.517075" lon="33.984261">
<ele>415.238525</ele>
<time>2011-10-11T10:23:48Z</time>
<desc>lat.=44.517075, lon.=33.984261, Alt.=415.238525m. Speed=0.036000m/h.</desc>
<speed>0.010000</speed>
</trkpt>
<trkpt lat="44.517075" lon="33.984261">
<ele>415.269775</ele>
<time>2011-10-11T10:23:53Z</time>
<desc>lat.=44.517075, lon.=33.984261, Alt.=415.269775m. Speed=0.000000m/h.</desc>
<speed>0.000000</speed>
</trkpt>
<trkpt lat="44.517075" lon="33.984261">
<ele>415.277588</ele>
<time>2011-10-11T10:23:58Z</time>
<desc>lat.=44.517075, lon.=33.984261, Alt.=415.277588m. Speed=0.000000m/h.</desc>
<speed>0.000000</speed>
</trkpt>
<trkpt lat="44.517075" lon="33.984261">
<ele>415.207275</ele>
<time>2011-10-11T10:24:03Z</time>
<desc>lat.=44.517075, lon.=33.984261, Alt.=415.207275m. Speed=0.072000m/h.</desc>
<speed>0.020000</speed>
</trkpt>
<trkpt lat="44.517075" lon="33.984261">
<ele>415.168213</ele>
<time>2011-10-11T10:24:08Z</time>
<desc>lat.=44.517075, lon.=33.984261, Alt.=415.168213m. Speed=0.036000m/h.</desc>
<speed>0.010000</speed>
</trkpt>
<trkpt lat="44.517075" lon="33.984261">
<ele>415.113525</ele>
<time>2011-10-11T10:24:13Z</time>
<desc>lat.=44.517075, lon.=33.984261, Alt.=415.113525m. Speed=0.072000m/h.</desc>
<speed>0.020000</speed>
</trkpt>
<trkpt lat="44.517075" lon="33.984261">
<ele>415.082275</ele>
<time>2011-10-11T10:24:18Z</time>
<desc>lat.=44.517075, lon.=33.984261, Alt.=415.082275m. Speed=0.108000m/h.</desc>
<speed>0.030000</speed>
</trkpt>
<trkpt lat="44.517075" lon="33.984261">
<ele>415.066650</ele>
<time>2011-10-11T10:24:23Z</time>
<desc>lat.=44.517075, lon.=33.984261, Alt.=415.066650m. Speed=0.144000m/h.</desc>
<speed>0.040000</speed>
</trkpt>
<trkpt lat="44.517075" lon="33.984261">
<ele>415.019775</ele>
<time>2011-10-11T10:24:28Z</time>
<desc>lat.=44.517075, lon.=33.984261, Alt.=415.019775m. Speed=0.036000m/h.</desc>
<speed>0.010000</speed>
</trkpt>
<trkpt lat="44.517075" lon="33.984261">
<ele>415.004150</ele>
<time>2011-10-11T10:24:33Z</time>
<desc>lat.=44.517075, lon.=33.984261, Alt.=415.004150m. Speed=0.036000m/h.</desc>
<speed>0.010000</speed>
</trkpt>
<trkpt lat="44.517075" lon="33.984261">
<ele>415.004150</ele>
<time>2011-10-11T10:24:38Z</time>
<desc>lat.=44.517075, lon.=33.984261, Alt.=415.004150m. Speed=0.072000m/h.</desc>
<speed>0.020000</speed>
</trkpt>
<trkpt lat="44.517075" lon="33.984261">
<ele>414.972900</ele>
<time>2011-10-11T10:24:43Z</time>
<desc>lat.=44.517075, lon.=33.984261, Alt.=414.972900m. Speed=0.144000m/h.</desc>
<speed>0.040000</speed>
</trkpt>
<trkpt lat="44.517075" lon="33.984261">
<ele>414.972900</ele>
<time>2011-10-11T10:24:48Z</time>
<desc>lat.=44.517075, lon.=33.984261, Alt.=414.972900m. Speed=0.036000m/h.</desc>
<speed>0.010000</speed>
</trkpt>
<trkpt lat="44.517075" lon="33.984261">
<ele>414.996338</ele>
<time>2011-10-11T10:24:53Z</time>
<desc>lat.=44.517075, lon.=33.984261, Alt.=414.996338m. Speed=0.036000m/h.</desc>
<speed>0.010000</speed>
</trkpt>
<trkpt lat="44.517078" lon="33.984261">
<ele>415.051025</ele>
<time>2011-10-11T10:24:58Z</time>
<desc>lat.=44.517078, lon.=33.984261, Alt.=415.051025m. Speed=0.036000m/h.</desc>
<speed>0.010000</speed>
</trkpt>
<trkpt lat="44.517078" lon="33.984261">
<ele>415.035400</ele>
<time>2011-10-11T10:25:03Z</time>
<desc>lat.=44.517078, lon.=33.984261, Alt.=415.035400m. Speed=0.108000m/h.</desc>
<speed>0.030000</speed>
</trkpt>
<trkpt lat="44.517075" lon="33.984261">
<ele>415.090088</ele>
<time>2011-10-11T10:25:08Z</time>
<desc>lat.=44.517075, lon.=33.984261, Alt.=415.090088m. Speed=0.072000m/h.</desc>
<speed>0.020000</speed>
</trkpt>
<trkpt lat="44.517075" lon="33.984261">
<ele>415.152588</ele>
<time>2011-10-11T10:25:13Z</time>
<desc>lat.=44.517075, lon.=33.984261, Alt.=415.152588m. Speed=0.108000m/h.</desc>
<speed>0.030000</speed>
</trkpt>
<trkpt lat="44.517075" lon="33.984264">
<ele>415.215088</ele>
<time>2011-10-11T10:25:18Z</time>
<desc>lat.=44.517075, lon.=33.984264, Alt.=415.215088m. Speed=0.108000m/h.</desc>
<speed>0.030000</speed>
</trkpt>
<trkpt lat="44.517075" lon="33.984264">
<ele>415.261963</ele>
<time>2011-10-11T10:25:23Z</time>
<desc>lat.=44.517075, lon.=33.984264, Alt.=415.261963m. Speed=0.000000m/h.</desc>
<speed>0.000000</speed>
</trkpt>
<trkpt lat="44.517075" lon="33.984264">
<ele>415.293213</ele>
<time>2011-10-11T10:25:28Z</time>
<desc>lat.=44.517075, lon.=33.984264, Alt.=415.293213m. Speed=0.000000m/h.</desc>
<speed>0.000000</speed>
</trkpt>
<trkpt lat="44.517075" lon="33.984264">
<ele>415.308838</ele>
<time>2011-10-11T10:25:33Z</time>
<desc>lat.=44.517075, lon.=33.984264, Alt.=415.308838m. Speed=0.000000m/h.</desc>
<speed>0.000000</speed>
</trkpt>
<trkpt lat="44.517078" lon="33.984261">
<ele>415.316650</ele>
<time>2011-10-11T10:25:38Z</time>
<desc>lat.=44.517078, lon.=33.984261, Alt.=415.316650m. Speed=0.000000m/h.</desc>
<speed>0.000000</speed>
</trkpt>
<trkpt lat="44.517078" lon="33.984261">
<ele>415.308838</ele>
<time>2011-10-11T10:25:43Z</time>
<desc>lat.=44.517078, lon.=33.984261, Alt.=415.308838m. Speed=0.180000m/h.</desc>
<speed>0.050000</speed>
</trkpt>
<trkpt lat="44.517078" lon="33.984249">
<ele>415.691650</ele>
<time>2011-10-11T10:25:48Z</time>
<desc>lat.=44.517078, lon.=33.984249, Alt.=415.691650m. Speed=0.504000m/h.</desc>
<speed>0.140000</speed>
</trkpt>
<trkpt lat="44.517086" lon="33.984249">
<ele>416.043213</ele>
<time>2011-10-11T10:25:53Z</time>
<desc>lat.=44.517086, lon.=33.984249, Alt.=416.043213m. Speed=1.728000m/h.</desc>
<speed>0.480000</speed>
</trkpt>
<trkpt lat="44.517086" lon="33.984253">
<ele>416.144775</ele>
<time>2011-10-11T10:25:58Z</time>
<desc>lat.=44.517086, lon.=33.984253, Alt.=416.144775m. Speed=0.468000m/h.</desc>
<speed>0.130000</speed>
</trkpt>
<trkpt lat="44.517086" lon="33.984253">
<ele>416.043213</ele>
<time>2011-10-11T10:26:03Z</time>
<desc>lat.=44.517086, lon.=33.984253, Alt.=416.043213m. Speed=0.072000m/h.</desc>
<speed>0.020000</speed>
</trkpt>
<trkpt lat="44.517097" lon="33.984230">
<ele>414.996338</ele>
<time>2011-10-11T10:26:08Z</time>
<desc>lat.=44.517097, lon.=33.984230, Alt.=414.996338m. Speed=2.700000m/h.</desc>
<speed>0.750000</speed>
</trkpt>
<trkpt lat="44.517097" lon="33.984211">
<ele>414.926025</ele>
<time>2011-10-11T10:26:13Z</time>
<desc>lat.=44.517097, lon.=33.984211, Alt.=414.926025m. Speed=0.180000m/h.</desc>
<speed>0.050000</speed>
</trkpt>
<trkpt lat="44.517109" lon="33.984215">
<ele>414.558838</ele>
<time>2011-10-11T10:26:18Z</time>
<desc>lat.=44.517109, lon.=33.984215, Alt.=414.558838m. Speed=0.288000m/h.</desc>
<speed>0.080000</speed>
</trkpt>
<trkpt lat="44.517109" lon="33.984226">
<ele>414.652588</ele>
<time>2011-10-11T10:26:23Z</time>
<desc>lat.=44.517109, lon.=33.984226, Alt.=414.652588m. Speed=0.396000m/h.</desc>
<speed>0.110000</speed>
</trkpt>
<trkpt lat="44.517109" lon="33.984230">
<ele>414.910400</ele>
<time>2011-10-11T10:26:28Z</time>
<desc>lat.=44.517109, lon.=33.984230, Alt.=414.910400m. Speed=0.252000m/h.</desc>
<speed>0.070000</speed>
</trkpt>
<trkpt lat="44.517113" lon="33.984230">
<ele>414.926025</ele>
<time>2011-10-11T10:26:33Z</time>
<desc>lat.=44.517113, lon.=33.984230, Alt.=414.926025m. Speed=0.000000m/h.</desc>
<speed>0.000000</speed>
</trkpt>
<trkpt lat="44.517113" lon="33.984238">
<ele>414.418213</ele>
<time>2011-10-11T10:26:38Z</time>
<desc>lat.=44.517113, lon.=33.984238, Alt.=414.418213m. Speed=0.108000m/h.</desc>
<speed>0.030000</speed>
</trkpt>
<trkpt lat="44.517109" lon="33.984226">
<ele>415.668213</ele>
<time>2011-10-11T10:26:43Z</time>
<desc>lat.=44.517109, lon.=33.984226, Alt.=415.668213m. Speed=0.000000m/h.</desc>
<speed>0.000000</speed>
</trkpt>
<trkpt lat="44.517105" lon="33.984215">
<ele>416.222900</ele>
<time>2011-10-11T10:26:48Z</time>
<desc>lat.=44.517105, lon.=33.984215, Alt.=416.222900m. Speed=0.216000m/h.</desc>
<speed>0.060000</speed>
</trkpt>
<trkpt lat="44.517101" lon="33.984215">
<ele>416.230713</ele>
<time>2011-10-11T10:26:53Z</time>
<desc>lat.=44.517101, lon.=33.984215, Alt.=416.230713m. Speed=0.720000m/h.</desc>
<speed>0.200000</speed>
</trkpt>
<trkpt lat="44.517105" lon="33.984215">
<ele>416.277588</ele>
<time>2011-10-11T10:26:58Z</time>
<desc>lat.=44.517105, lon.=33.984215, Alt.=416.277588m. Speed=0.036000m/h.</desc>
<speed>0.010000</speed>
</trkpt>
<trkpt lat="44.517101" lon="33.984219">
<ele>416.285400</ele>
<time>2011-10-11T10:27:03Z</time>
<desc>lat.=44.517101, lon.=33.984219, Alt.=416.285400m. Speed=0.828000m/h.</desc>
<speed>0.230000</speed>
</trkpt>
<trkpt lat="44.517101" lon="33.984222">
<ele>416.269775</ele>
<time>2011-10-11T10:27:08Z</time>
<desc>lat.=44.517101, lon.=33.984222, Alt.=416.269775m. Speed=0.144000m/h.</desc>
<speed>0.040000</speed>
</trkpt>
<trkpt lat="44.517101" lon="33.984226">
<ele>416.285400</ele>
<time>2011-10-11T10:27:13Z</time>
<desc>lat.=44.517101, lon.=33.984226, Alt.=416.285400m. Speed=0.000000m/h.</desc>
<speed>0.000000</speed>
</trkpt>
<trkpt lat="44.517101" lon="33.984226">
<ele>416.277588</ele>
<time>2011-10-11T10:27:18Z</time>
<desc>lat.=44.517101, lon.=33.984226, Alt.=416.277588m. Speed=0.000000m/h.</desc>
<speed>0.000000</speed>
</trkpt>
<trkpt lat="44.517101" lon="33.984226">
<ele>416.277588</ele>
<time>2011-10-11T10:27:23Z</time>
<desc>lat.=44.517101, lon.=33.984226, Alt.=416.277588m. Speed=0.036000m/h.</desc>
<speed>0.010000</speed>
</trkpt>
<trkpt lat="44.517101" lon="33.984226">
<ele>416.269775</ele>
<time>2011-10-11T10:27:28Z</time>
<desc>lat.=44.517101, lon.=33.984226, Alt.=416.269775m. Speed=0.000000m/h.</desc>
<speed>0.000000</speed>
</trkpt>
<trkpt lat="44.517101" lon="33.984226">
<ele>416.277588</ele>
<time>2011-10-11T10:27:33Z</time>
<desc>lat.=44.517101, lon.=33.984226, Alt.=416.277588m. Speed=0.036000m/h.</desc>
<speed>0.010000</speed>
</trkpt>
<trkpt lat="44.517101" lon="33.984226">
<ele>416.277588</ele>
<time>2011-10-11T10:27:38Z</time>
<desc>lat.=44.517101, lon.=33.984226, Alt.=416.277588m. Speed=0.000000m/h.</desc>
<speed>0.000000</speed>
</trkpt>
<trkpt lat="44.517101" lon="33.984226">
<ele>416.285400</ele>
<time>2011-10-11T10:27:43Z</time>
<desc>lat.=44.517101, lon.=33.984226, Alt.=416.285400m. Speed=0.000000m/h.</desc>
<speed>0.000000</speed>
</trkpt>
<trkpt lat="44.517101" lon="33.984226">
<ele>416.285400</ele>
<time>2011-10-11T10:27:48Z</time>
<desc>lat.=44.517101, lon.=33.984226, Alt.=416.285400m. Speed=0.036000m/h.</desc>
<speed>0.010000</speed>
</trkpt>
<trkpt lat="44.517101" lon="33.984226">
<ele>416.285400</ele>
<time>2011-10-11T10:27:53Z</time>
<desc>lat.=44.517101, lon.=33.984226, Alt.=416.285400m. Speed=0.288000m/h.</desc>
<speed>0.080000</speed>
</trkpt>
<trkpt lat="44.517101" lon="33.984226">
<ele>416.285400</ele>
<time>2011-10-11T10:27:58Z</time>
<desc>lat.=44.517101, lon.=33.984226, Alt.=416.285400m. Speed=0.324000m/h.</desc>
<speed>0.090000</speed>
</trkpt>
<trkpt lat="44.517101" lon="33.984226">
<ele>416.293213</ele>
<time>2011-10-11T10:28:03Z</time>
<desc>lat.=44.517101, lon.=33.984226, Alt.=416.293213m. Speed=0.000000m/h.</desc>
<speed>0.000000</speed>
</trkpt>
<trkpt lat="44.517101" lon="33.984222">
<ele>416.293213</ele>
<time>2011-10-11T10:28:08Z</time>
<desc>lat.=44.517101, lon.=33.984222, Alt.=416.293213m. Speed=1.080000m/h.</desc>
<speed>0.300000</speed>
</trkpt>
<trkpt lat="44.517094" lon="33.984211">
<ele>416.144775</ele>
<time>2011-10-11T10:28:13Z</time>
<desc>lat.=44.517094, lon.=33.984211, Alt.=416.144775m. Speed=0.000000m/h.</desc>
<speed>0.000000</speed>
</trkpt>
<trkpt lat="44.517094" lon="33.984211">
<ele>416.191650</ele>
<time>2011-10-11T10:28:18Z</time>
<desc>lat.=44.517094, lon.=33.984211, Alt.=416.191650m. Speed=0.792000m/h.</desc>
<speed>0.220000</speed>
</trkpt>
<trkpt lat="44.517094" lon="33.984211">
<ele>416.207275</ele>
<time>2011-10-11T10:28:23Z</time>
<desc>lat.=44.517094, lon.=33.984211, Alt.=416.207275m. Speed=0.180000m/h.</desc>
<speed>0.050000</speed>
</trkpt>
<trkpt lat="44.517094" lon="33.984207">
<ele>416.199463</ele>
<time>2011-10-11T10:28:28Z</time>
<desc>lat.=44.517094, lon.=33.984207, Alt.=416.199463m. Speed=0.216000m/h.</desc>
<speed>0.060000</speed>
</trkpt>
<trkpt lat="44.517090" lon="33.984211">
<ele>416.215088</ele>
<time>2011-10-11T10:28:33Z</time>
<desc>lat.=44.517090, lon.=33.984211, Alt.=416.215088m. Speed=1.296000m/h.</desc>
<speed>0.360000</speed>
</trkpt>
<trkpt lat="44.517090" lon="33.984222">
<ele>416.215088</ele>
<time>2011-10-11T10:28:38Z</time>
<desc>lat.=44.517090, lon.=33.984222, Alt.=416.215088m. Speed=0.072000m/h.</desc>
<speed>0.020000</speed>
</trkpt>
<trkpt lat="44.517090" lon="33.984222">
<ele>416.215088</ele>
<time>2011-10-11T10:28:43Z</time>
<desc>lat.=44.517090, lon.=33.984222, Alt.=416.215088m. Speed=0.036000m/h.</desc>
<speed>0.010000</speed>
</trkpt>
<trkpt lat="44.517090" lon="33.984222">
<ele>416.215088</ele>
<time>2011-10-11T10:28:48Z</time>
<desc>lat.=44.517090, lon.=33.984222, Alt.=416.215088m. Speed=0.000000m/h.</desc>
<speed>0.000000</speed>
</trkpt>
<trkpt lat="44.517094" lon="33.984222">
<ele>416.207275</ele>
<time>2011-10-11T10:28:53Z</time>
<desc>lat.=44.517094, lon.=33.984222, Alt.=416.207275m. Speed=0.036000m/h.</desc>
<speed>0.010000</speed>
</trkpt>
<trkpt lat="44.517094" lon="33.984222">
<ele>416.222900</ele>
<time>2011-10-11T10:28:58Z</time>
<desc>lat.=44.517094, lon.=33.984222, Alt.=416.222900m. Speed=0.144000m/h.</desc>
<speed>0.040000</speed>
</trkpt>
<trkpt lat="44.517094" lon="33.984222">
<ele>416.254150</ele>
<time>2011-10-11T10:29:03Z</time>
<desc>lat.=44.517094, lon.=33.984222, Alt.=416.254150m. Speed=0.108000m/h.</desc>
<speed>0.030000</speed>
</trkpt>
<trkpt lat="44.517090" lon="33.984226">
<ele>416.308838</ele>
<time>2011-10-11T10:29:08Z</time>
<desc>lat.=44.517090, lon.=33.984226, Alt.=416.308838m. Speed=0.144000m/h.</desc>
<speed>0.040000</speed>
</trkpt>
<trkpt lat="44.517090" lon="33.984226">
<ele>416.410400</ele>
<time>2011-10-11T10:29:13Z</time>
<desc>lat.=44.517090, lon.=33.984226, Alt.=416.410400m. Speed=0.036000m/h.</desc>
<speed>0.010000</speed>
</trkpt>
<trkpt lat="44.517090" lon="33.984226">
<ele>416.441650</ele>
<time>2011-10-11T10:29:18Z</time>
<desc>lat.=44.517090, lon.=33.984226, Alt.=416.441650m. Speed=0.108000m/h.</desc>
<speed>0.030000</speed>
</trkpt>
<trkpt lat="44.517090" lon="33.984222">
<ele>416.465088</ele>
<time>2011-10-11T10:29:23Z</time>
<desc>lat.=44.517090, lon.=33.984222, Alt.=416.465088m. Speed=0.072000m/h.</desc>
<speed>0.020000</speed>
</trkpt>
<trkpt lat="44.517090" lon="33.984226">
<ele>416.527588</ele>
<time>2011-10-11T10:29:28Z</time>
<desc>lat.=44.517090, lon.=33.984226, Alt.=416.527588m. Speed=0.252000m/h.</desc>
<speed>0.070000</speed>
</trkpt>
<trkpt lat="44.517090" lon="33.984226">
<ele>416.543213</ele>
<time>2011-10-11T10:29:33Z</time>
<desc>lat.=44.517090, lon.=33.984226, Alt.=416.543213m. Speed=0.108000m/h.</desc>
<speed>0.030000</speed>
</trkpt>
<trkpt lat="44.517094" lon="33.984234">
<ele>416.582275</ele>
<time>2011-10-11T10:29:38Z</time>
<desc>lat.=44.517094, lon.=33.984234, Alt.=416.582275m. Speed=1.908000m/h.</desc>
<speed>0.530000</speed>
</trkpt>
<trkpt lat="44.517101" lon="33.984230">
<ele>417.840088</ele>
<time>2011-10-11T10:29:43Z</time>
<desc>lat.=44.517101, lon.=33.984230, Alt.=417.840088m. Speed=0.360000m/h.</desc>
<speed>0.100000</speed>
</trkpt>
<trkpt lat="44.517105" lon="33.984196">
<ele>418.855713</ele>
<time>2011-10-11T10:29:48Z</time>
<desc>lat.=44.517105, lon.=33.984196, Alt.=418.855713m. Speed=1.620000m/h.</desc>
<speed>0.450000</speed>
</trkpt>
<trkpt lat="44.517132" lon="33.984158">
<ele>418.269775</ele>
<time>2011-10-11T10:29:53Z</time>
<desc>lat.=44.517132, lon.=33.984158, Alt.=418.269775m. Speed=3.168000m/h.</desc>
<speed>0.880000</speed>
</trkpt>
<trkpt lat="44.517155" lon="33.984150">
<ele>417.574463</ele>
<time>2011-10-11T10:29:58Z</time>
<desc>lat.=44.517155, lon.=33.984150, Alt.=417.574463m. Speed=0.684000m/h.</desc>
<speed>0.190000</speed>
</trkpt>
<trkpt lat="44.517178" lon="33.984158">
<ele>417.293213</ele>
<time>2011-10-11T10:30:03Z</time>
<desc>lat.=44.517178, lon.=33.984158, Alt.=417.293213m. Speed=1.476000m/h.</desc>
<speed>0.410000</speed>
</trkpt>
<trkpt lat="44.517212" lon="33.984169">
<ele>416.590088</ele>
<time>2011-10-11T10:30:08Z</time>
<desc>lat.=44.517212, lon.=33.984169, Alt.=416.590088m. Speed=0.144000m/h.</desc>
<speed>0.040000</speed>
</trkpt>
<trkpt lat="44.517212" lon="33.984173">
<ele>416.582275</ele>
<time>2011-10-11T10:30:13Z</time>
<desc>lat.=44.517212, lon.=33.984173, Alt.=416.582275m. Speed=0.000000m/h.</desc>
<speed>0.000000</speed>
</trkpt>
<trkpt lat="44.517212" lon="33.984173">
<ele>416.660400</ele>
<time>2011-10-11T10:30:18Z</time>
<desc>lat.=44.517212, lon.=33.984173, Alt.=416.660400m. Speed=0.000000m/h.</desc>
<speed>0.000000</speed>
</trkpt>
<trkpt lat="44.517212" lon="33.984146">
<ele>416.191650</ele>
<time>2011-10-11T10:30:23Z</time>
<desc>lat.=44.517212, lon.=33.984146, Alt.=416.191650m. Speed=0.216000m/h.</desc>
<speed>0.060000</speed>
</trkpt>
<trkpt lat="44.517216" lon="33.984146">
<ele>415.621338</ele>
<time>2011-10-11T10:30:28Z</time>
<desc>lat.=44.517216, lon.=33.984146, Alt.=415.621338m. Speed=0.036000m/h.</desc>
<speed>0.010000</speed>
</trkpt>
<trkpt lat="44.517216" lon="33.984142">
<ele>415.629150</ele>
<time>2011-10-11T10:30:33Z</time>
<desc>lat.=44.517216, lon.=33.984142, Alt.=415.629150m. Speed=0.144000m/h.</desc>
<speed>0.040000</speed>
</trkpt>
<trkpt lat="44.517216" lon="33.984146">
<ele>415.644775</ele>
<time>2011-10-11T10:30:38Z</time>
<desc>lat.=44.517216, lon.=33.984146, Alt.=415.644775m. Speed=0.144000m/h.</desc>
<speed>0.040000</speed>
</trkpt>
<trkpt lat="44.517204" lon="33.984154">
<ele>415.715088</ele>
<time>2011-10-11T10:30:43Z</time>
<desc>lat.=44.517204, lon.=33.984154, Alt.=415.715088m. Speed=4.032000m/h.</desc>
<speed>1.120000</speed>
</trkpt>
<trkpt lat="44.517162" lon="33.984180">
<ele>416.261963</ele>
<time>2011-10-11T10:30:48Z</time>
<desc>lat.=44.517162, lon.=33.984180, Alt.=416.261963m. Speed=3.672000m/h.</desc>
<speed>1.020000</speed>
</trkpt>
<trkpt lat="44.517159" lon="33.984150">
<ele>417.222900</ele>
<time>2011-10-11T10:30:53Z</time>
<desc>lat.=44.517159, lon.=33.984150, Alt.=417.222900m. Speed=3.384000m/h.</desc>
<speed>0.940000</speed>
</trkpt>
<trkpt lat="44.517166" lon="33.984085">
<ele>419.683838</ele>
<time>2011-10-11T10:30:58Z</time>
<desc>lat.=44.517166, lon.=33.984085, Alt.=419.683838m. Speed=3.132000m/h.</desc>
<speed>0.870000</speed>
</trkpt>
<trkpt lat="44.517128" lon="33.984047">
<ele>420.496338</ele>
<time>2011-10-11T10:31:03Z</time>
<desc>lat.=44.517128, lon.=33.984047, Alt.=420.496338m. Speed=4.752000m/h.</desc>
<speed>1.320000</speed>
</trkpt>
<trkpt lat="44.517117" lon="33.983990">
<ele>421.129150</ele>
<time>2011-10-11T10:31:08Z</time>
<desc>lat.=44.517117, lon.=33.983990, Alt.=421.129150m. Speed=5.508000m/h.</desc>
<speed>1.530000</speed>
</trkpt>
<trkpt lat="44.517124" lon="33.983940">
<ele>421.722900</ele>
<time>2011-10-11T10:31:13Z</time>
<desc>lat.=44.517124, lon.=33.983940, Alt.=421.722900m. Speed=3.420000m/h.</desc>
<speed>0.950000</speed>
</trkpt>
<trkpt lat="44.517090" lon="33.983883">
<ele>422.433838</ele>
<time>2011-10-11T10:31:18Z</time>
<desc>lat.=44.517090, lon.=33.983883, Alt.=422.433838m. Speed=4.896000m/h.</desc>
<speed>1.360000</speed>
</trkpt>
<trkpt lat="44.517036" lon="33.983849">
<ele>422.590088</ele>
<time>2011-10-11T10:31:23Z</time>
<desc>lat.=44.517036, lon.=33.983849, Alt.=422.590088m. Speed=6.948000m/h.</desc>
<speed>1.930000</speed>
</trkpt>
<trkpt lat="44.516991" lon="33.983799">
<ele>421.941650</ele>
<time>2011-10-11T10:31:28Z</time>
<desc>lat.=44.516991, lon.=33.983799, Alt.=421.941650m. Speed=1.836000m/h.</desc>
<speed>0.510000</speed>
</trkpt>
<trkpt lat="44.517010" lon="33.983818">
<ele>420.972900</ele>
<time>2011-10-11T10:31:33Z</time>
<desc>lat.=44.517010, lon.=33.983818, Alt.=420.972900m. Speed=4.680000m/h.</desc>
<speed>1.300000</speed>
</trkpt>
<trkpt lat="44.517052" lon="33.983841">
<ele>420.035400</ele>
<time>2011-10-11T10:31:38Z</time>
<desc>lat.=44.517052, lon.=33.983841, Alt.=420.035400m. Speed=3.780000m/h.</desc>
<speed>1.050000</speed>
</trkpt>
<trkpt lat="44.517090" lon="33.983868">
<ele>419.613525</ele>
<time>2011-10-11T10:31:43Z</time>
<desc>lat.=44.517090, lon.=33.983868, Alt.=419.613525m. Speed=2.520000m/h.</desc>
<speed>0.700000</speed>
</trkpt>
<trkpt lat="44.517090" lon="33.983898">
<ele>419.613525</ele>
<time>2011-10-11T10:31:48Z</time>
<desc>lat.=44.517090, lon.=33.983898, Alt.=419.613525m. Speed=2.952000m/h.</desc>
<speed>0.820000</speed>
</trkpt>
<trkpt lat="44.517086" lon="33.983936">
<ele>420.918213</ele>
<time>2011-10-11T10:31:53Z</time>
<desc>lat.=44.517086, lon.=33.983936, Alt.=420.918213m. Speed=0.792000m/h.</desc>
<speed>0.220000</speed>
</trkpt>
<trkpt lat="44.517101" lon="33.983967">
<ele>420.988525</ele>
<time>2011-10-11T10:31:58Z</time>
<desc>lat.=44.517101, lon.=33.983967, Alt.=420.988525m. Speed=3.960000m/h.</desc>
<speed>1.100000</speed>
</trkpt>
<trkpt lat="44.517082" lon="33.984013">
<ele>421.176025</ele>
<time>2011-10-11T10:32:03Z</time>
<desc>lat.=44.517082, lon.=33.984013, Alt.=421.176025m. Speed=2.196000m/h.</desc>
<speed>0.610000</speed>
</trkpt>
<trkpt lat="44.517067" lon="33.984013">
<ele>421.285400</ele>
<time>2011-10-11T10:32:08Z</time>
<desc>lat.=44.517067, lon.=33.984013, Alt.=421.285400m. Speed=0.216000m/h.</desc>
<speed>0.060000</speed>
</trkpt>
<trkpt lat="44.517063" lon="33.984013">
<ele>421.543213</ele>
<time>2011-10-11T10:32:13Z</time>
<desc>lat.=44.517063, lon.=33.984013, Alt.=421.543213m. Speed=0.360000m/h.</desc>
<speed>0.100000</speed>
</trkpt>
<trkpt lat="44.517063" lon="33.984016">
<ele>421.582275</ele>
<time>2011-10-11T10:32:18Z</time>
<desc>lat.=44.517063, lon.=33.984016, Alt.=421.582275m. Speed=0.144000m/h.</desc>
<speed>0.040000</speed>
</trkpt>
<trkpt lat="44.517067" lon="33.984016">
<ele>421.590088</ele>
<time>2011-10-11T10:32:23Z</time>
<desc>lat.=44.517067, lon.=33.984016, Alt.=421.590088m. Speed=3.924000m/h.</desc>
<speed>1.090000</speed>
</trkpt>
<trkpt lat="44.517078" lon="33.984024">
<ele>422.082275</ele>
<time>2011-10-11T10:32:28Z</time>
<desc>lat.=44.517078, lon.=33.984024, Alt.=422.082275m. Speed=0.180000m/h.</desc>
<speed>0.050000</speed>
</trkpt>
<trkpt lat="44.517086" lon="33.984020">
<ele>421.699463</ele>
<time>2011-10-11T10:32:33Z</time>
<desc>lat.=44.517086, lon.=33.984020, Alt.=421.699463m. Speed=0.036000m/h.</desc>
<speed>0.010000</speed>
</trkpt>
<trkpt lat="44.517086" lon="33.984020">
<ele>421.715088</ele>
<time>2011-10-11T10:32:38Z</time>
<desc>lat.=44.517086, lon.=33.984020, Alt.=421.715088m. Speed=0.144000m/h.</desc>
<speed>0.040000</speed>
</trkpt>
<trkpt lat="44.517109" lon="33.984016">
<ele>420.988525</ele>
<time>2011-10-11T10:32:43Z</time>
<desc>lat.=44.517109, lon.=33.984016, Alt.=420.988525m. Speed=2.988000m/h.</desc>
<speed>0.830000</speed>
</trkpt>
<trkpt lat="44.517155" lon="33.984035">
<ele>419.683838</ele>
<time>2011-10-11T10:32:48Z</time>
<desc>lat.=44.517155, lon.=33.984035, Alt.=419.683838m. Speed=1.764000m/h.</desc>
<speed>0.490000</speed>
</trkpt>
<trkpt lat="44.517147" lon="33.984081">
<ele>418.340088</ele>
<time>2011-10-11T10:32:53Z</time>
<desc>lat.=44.517147, lon.=33.984081, Alt.=418.340088m. Speed=2.340000m/h.</desc>
<speed>0.650000</speed>
</trkpt>
<trkpt lat="44.517132" lon="33.984142">
<ele>417.511963</ele>
<time>2011-10-11T10:32:58Z</time>
<desc>lat.=44.517132, lon.=33.984142, Alt.=417.511963m. Speed=4.428000m/h.</desc>
<speed>1.230000</speed>
</trkpt>
<trkpt lat="44.517101" lon="33.984196">
<ele>418.660400</ele>
<time>2011-10-11T10:33:03Z</time>
<desc>lat.=44.517101, lon.=33.984196, Alt.=418.660400m. Speed=3.780000m/h.</desc>
<speed>1.050000</speed>
</trkpt>
<trkpt lat="44.517101" lon="33.984219">
<ele>419.004150</ele>
<time>2011-10-11T10:33:08Z</time>
<desc>lat.=44.517101, lon.=33.984219, Alt.=419.004150m. Speed=2.988000m/h.</desc>
<speed>0.830000</speed>
</trkpt>
<trkpt lat="44.517132" lon="33.984234">
<ele>420.160400</ele>
<time>2011-10-11T10:33:13Z</time>
<desc>lat.=44.517132, lon.=33.984234, Alt.=420.160400m. Speed=1.404000m/h.</desc>
<speed>0.390000</speed>
</trkpt>
<trkpt lat="44.517136" lon="33.984234">
<ele>420.324463</ele>
<time>2011-10-11T10:33:18Z</time>
<desc>lat.=44.517136, lon.=33.984234, Alt.=420.324463m. Speed=3.888000m/h.</desc>
<speed>1.080000</speed>
</trkpt>
<trkpt lat="44.517124" lon="33.984226">
<ele>420.597900</ele>
<time>2011-10-11T10:33:23Z</time>
<desc>lat.=44.517124, lon.=33.984226, Alt.=420.597900m. Speed=0.072000m/h.</desc>
<speed>0.020000</speed>
</trkpt>
<trkpt lat="44.517124" lon="33.984226">
<ele>420.644775</ele>
<time>2011-10-11T10:33:28Z</time>
<desc>lat.=44.517124, lon.=33.984226, Alt.=420.644775m. Speed=0.000000m/h.</desc>
<speed>0.000000</speed>
</trkpt>
<trkpt lat="44.517124" lon="33.984226">
<ele>420.676025</ele>
<time>2011-10-11T10:33:33Z</time>
<desc>lat.=44.517124, lon.=33.984226, Alt.=420.676025m. Speed=0.072000m/h.</desc>
<speed>0.020000</speed>
</trkpt>
<trkpt lat="44.517124" lon="33.984226">
<ele>420.683838</ele>
<time>2011-10-11T10:33:38Z</time>
<desc>lat.=44.517124, lon.=33.984226, Alt.=420.683838m. Speed=0.000000m/h.</desc>
<speed>0.000000</speed>
</trkpt>
<trkpt lat="44.517124" lon="33.984226">
<ele>420.715088</ele>
<time>2011-10-11T10:33:43Z</time>
<desc>lat.=44.517124, lon.=33.984226, Alt.=420.715088m. Speed=0.036000m/h.</desc>
<speed>0.010000</speed>
</trkpt>
<trkpt lat="44.517124" lon="33.984226">
<ele>420.746338</ele>
<time>2011-10-11T10:33:48Z</time>
<desc>lat.=44.517124, lon.=33.984226, Alt.=420.746338m. Speed=0.036000m/h.</desc>
<speed>0.010000</speed>
</trkpt>
<trkpt lat="44.517124" lon="33.984226">
<ele>420.769775</ele>
<time>2011-10-11T10:33:53Z</time>
<desc>lat.=44.517124, lon.=33.984226, Alt.=420.769775m. Speed=0.072000m/h.</desc>
<speed>0.020000</speed>
</trkpt>
<trkpt lat="44.517124" lon="33.984226">
<ele>420.793213</ele>
<time>2011-10-11T10:33:58Z</time>
<desc>lat.=44.517124, lon.=33.984226, Alt.=420.793213m. Speed=0.000000m/h.</desc>
<speed>0.000000</speed>
</trkpt>
<trkpt lat="44.517124" lon="33.984226">
<ele>420.816650</ele>
<time>2011-10-11T10:34:03Z</time>
<desc>lat.=44.517124, lon.=33.984226, Alt.=420.816650m. Speed=0.036000m/h.</desc>
<speed>0.010000</speed>
</trkpt>
<trkpt lat="44.517124" lon="33.984226">
<ele>420.824463</ele>
<time>2011-10-11T10:34:08Z</time>
<desc>lat.=44.517124, lon.=33.984226, Alt.=420.824463m. Speed=0.036000m/h.</desc>
<speed>0.010000</speed>
</trkpt>
<trkpt lat="44.517124" lon="33.984226">
<ele>420.847900</ele>
<time>2011-10-11T10:34:13Z</time>
<desc>lat.=44.517124, lon.=33.984226, Alt.=420.847900m. Speed=0.072000m/h.</desc>
<speed>0.020000</speed>
</trkpt>
<trkpt lat="44.517124" lon="33.984222">
<ele>420.871338</ele>
<time>2011-10-11T10:34:18Z</time>
<desc>lat.=44.517124, lon.=33.984222, Alt.=420.871338m. Speed=0.252000m/h.</desc>
<speed>0.070000</speed>
</trkpt>
<trkpt lat="44.517124" lon="33.984222">
<ele>420.910400</ele>
<time>2011-10-11T10:34:23Z</time>
<desc>lat.=44.517124, lon.=33.984222, Alt.=420.910400m. Speed=0.216000m/h.</desc>
<speed>0.060000</speed>
</trkpt>
<trkpt lat="44.517124" lon="33.984222">
<ele>420.949463</ele>
<time>2011-10-11T10:34:28Z</time>
<desc>lat.=44.517124, lon.=33.984222, Alt.=420.949463m. Speed=0.684000m/h.</desc>
<speed>0.190000</speed>
</trkpt>
<trkpt lat="44.517120" lon="33.984222">
<ele>420.879150</ele>
<time>2011-10-11T10:34:33Z</time>
<desc>lat.=44.517120, lon.=33.984222, Alt.=420.879150m. Speed=0.000000m/h.</desc>
<speed>0.000000</speed>
</trkpt>
<trkpt lat="44.517120" lon="33.984222">
<ele>420.910400</ele>
<time>2011-10-11T10:34:38Z</time>
<desc>lat.=44.517120, lon.=33.984222, Alt.=420.910400m. Speed=0.288000m/h.</desc>
<speed>0.080000</speed>
</trkpt>
<trkpt lat="44.517120" lon="33.984222">
<ele>420.926025</ele>
<time>2011-10-11T10:34:43Z</time>
<desc>lat.=44.517120, lon.=33.984222, Alt.=420.926025m. Speed=0.036000m/h.</desc>
<speed>0.010000</speed>
</trkpt>
<trkpt lat="44.517124" lon="33.984222">
<ele>421.027588</ele>
<time>2011-10-11T10:34:48Z</time>
<desc>lat.=44.517124, lon.=33.984222, Alt.=421.027588m. Speed=0.720000m/h.</desc>
<speed>0.200000</speed>
</trkpt>
<trkpt lat="44.517124" lon="33.984226">
<ele>420.793213</ele>
<time>2011-10-11T10:34:53Z</time>
<desc>lat.=44.517124, lon.=33.984226, Alt.=420.793213m. Speed=0.000000m/h.</desc>
<speed>0.000000</speed>
</trkpt>
<trkpt lat="44.517124" lon="33.984226">
<ele>420.793213</ele>
<time>2011-10-11T10:34:58Z</time>
<desc>lat.=44.517124, lon.=33.984226, Alt.=420.793213m. Speed=0.828000m/h.</desc>
<speed>0.230000</speed>
</trkpt>
<trkpt lat="44.517120" lon="33.984219">
<ele>419.988525</ele>
<time>2011-10-11T10:35:03Z</time>
<desc>lat.=44.517120, lon.=33.984219, Alt.=419.988525m. Speed=0.036000m/h.</desc>
<speed>0.010000</speed>
</trkpt>
<trkpt lat="44.517113" lon="33.984219">
<ele>420.082275</ele>
<time>2011-10-11T10:35:08Z</time>
<desc>lat.=44.517113, lon.=33.984219, Alt.=420.082275m. Speed=0.036000m/h.</desc>
<speed>0.010000</speed>
</trkpt>
<trkpt lat="44.517113" lon="33.984219">
<ele>420.058838</ele>
<time>2011-10-11T10:35:13Z</time>
<desc>lat.=44.517113, lon.=33.984219, Alt.=420.058838m. Speed=0.000000m/h.</desc>
<speed>0.000000</speed>
</trkpt>
<trkpt lat="44.517113" lon="33.984219">
<ele>420.066650</ele>
<time>2011-10-11T10:35:18Z</time>
<desc>lat.=44.517113, lon.=33.984219, Alt.=420.066650m. Speed=0.000000m/h.</desc>
<speed>0.000000</speed>
</trkpt>
<trkpt lat="44.517113" lon="33.984219">
<ele>420.051025</ele>
<time>2011-10-11T10:35:23Z</time>
<desc>lat.=44.517113, lon.=33.984219, Alt.=420.051025m. Speed=0.216000m/h.</desc>
<speed>0.060000</speed>
</trkpt>
<trkpt lat="44.517113" lon="33.984207">
<ele>419.996338</ele>
<time>2011-10-11T10:35:28Z</time>
<desc>lat.=44.517113, lon.=33.984207, Alt.=419.996338m. Speed=3.096000m/h.</desc>
<speed>0.860000</speed>
</trkpt>
<trkpt lat="44.517113" lon="33.984177">
<ele>419.574463</ele>
<time>2011-10-11T10:35:33Z</time>
<desc>lat.=44.517113, lon.=33.984177, Alt.=419.574463m. Speed=0.396000m/h.</desc>
<speed>0.110000</speed>
</trkpt>
<trkpt lat="44.517113" lon="33.984165">
<ele>419.793213</ele>
<time>2011-10-11T10:35:38Z</time>
<desc>lat.=44.517113, lon.=33.984165, Alt.=419.793213m. Speed=0.252000m/h.</desc>
<speed>0.070000</speed>
</trkpt>
<trkpt lat="44.517113" lon="33.984161">
<ele>419.746338</ele>
<time>2011-10-11T10:35:43Z</time>
<desc>lat.=44.517113, lon.=33.984161, Alt.=419.746338m. Speed=1.152000m/h.</desc>
<speed>0.320000</speed>
</trkpt>
<trkpt lat="44.517113" lon="33.984146">
<ele>419.332275</ele>
<time>2011-10-11T10:35:48Z</time>
<desc>lat.=44.517113, lon.=33.984146, Alt.=419.332275m. Speed=0.144000m/h.</desc>
<speed>0.040000</speed>
</trkpt>
<trkpt lat="44.517113" lon="33.984146">
<ele>419.472900</ele>
<time>2011-10-11T10:35:53Z</time>
<desc>lat.=44.517113, lon.=33.984146, Alt.=419.472900m. Speed=0.072000m/h.</desc>
<speed>0.020000</speed>
</trkpt>
<trkpt lat="44.517113" lon="33.984146">
<ele>419.535400</ele>
<time>2011-10-11T10:35:58Z</time>
<desc>lat.=44.517113, lon.=33.984146, Alt.=419.535400m. Speed=0.216000m/h.</desc>
<speed>0.060000</speed>
</trkpt>
<trkpt lat="44.517113" lon="33.984146">
<ele>419.558838</ele>
<time>2011-10-11T10:36:03Z</time>
<desc>lat.=44.517113, lon.=33.984146, Alt.=419.558838m. Speed=0.036000m/h.</desc>
<speed>0.010000</speed>
</trkpt>
<trkpt lat="44.517113" lon="33.984146">
<ele>419.551025</ele>
<time>2011-10-11T10:36:08Z</time>
<desc>lat.=44.517113, lon.=33.984146, Alt.=419.551025m. Speed=0.396000m/h.</desc>
<speed>0.110000</speed>
</trkpt>
<trkpt lat="44.517105" lon="33.984146">
<ele>419.582275</ele>
<time>2011-10-11T10:36:13Z</time>
<desc>lat.=44.517105, lon.=33.984146, Alt.=419.582275m. Speed=1.404000m/h.</desc>
<speed>0.390000</speed>
</trkpt>
<trkpt lat="44.517094" lon="33.984146">
<ele>419.433838</ele>
<time>2011-10-11T10:36:18Z</time>
<desc>lat.=44.517094, lon.=33.984146, Alt.=419.433838m. Speed=1.656000m/h.</desc>
<speed>0.460000</speed>
</trkpt>
<trkpt lat="44.517086" lon="33.984154">
<ele>416.933838</ele>
<time>2011-10-11T10:36:23Z</time>
<desc>lat.=44.517086, lon.=33.984154, Alt.=416.933838m. Speed=0.432000m/h.</desc>
<speed>0.120000</speed>
</trkpt>
<trkpt lat="44.517090" lon="33.984154">
<ele>416.261963</ele>
<time>2011-10-11T10:36:28Z</time>
<desc>lat.=44.517090, lon.=33.984154, Alt.=416.261963m. Speed=0.504000m/h.</desc>
<speed>0.140000</speed>
</trkpt>
<trkpt lat="44.517094" lon="33.984158">
<ele>415.769775</ele>
<time>2011-10-11T10:36:33Z</time>
<desc>lat.=44.517094, lon.=33.984158, Alt.=415.769775m. Speed=0.108000m/h.</desc>
<speed>0.030000</speed>
</trkpt>
<trkpt lat="44.517090" lon="33.984158">
<ele>415.613525</ele>
<time>2011-10-11T10:36:38Z</time>
<desc>lat.=44.517090, lon.=33.984158, Alt.=415.613525m. Speed=0.072000m/h.</desc>
<speed>0.020000</speed>
</trkpt>
<trkpt lat="44.517090" lon="33.984158">
<ele>415.629150</ele>
<time>2011-10-11T10:36:43Z</time>
<desc>lat.=44.517090, lon.=33.984158, Alt.=415.629150m. Speed=0.000000m/h.</desc>
<speed>0.000000</speed>
</trkpt>
<trkpt lat="44.517090" lon="33.984158">
<ele>415.636963</ele>
<time>2011-10-11T10:36:48Z</time>
<desc>lat.=44.517090, lon.=33.984158, Alt.=415.636963m. Speed=0.036000m/h.</desc>
<speed>0.010000</speed>
</trkpt>
<trkpt lat="44.517090" lon="33.984158">
<ele>415.652588</ele>
<time>2011-10-11T10:36:53Z</time>
<desc>lat.=44.517090, lon.=33.984158, Alt.=415.652588m. Speed=0.144000m/h.</desc>
<speed>0.040000</speed>
</trkpt>
<trkpt lat="44.517090" lon="33.984158">
<ele>415.676025</ele>
<time>2011-10-11T10:36:58Z</time>
<desc>lat.=44.517090, lon.=33.984158, Alt.=415.676025m. Speed=0.036000m/h.</desc>
<speed>0.010000</speed>
</trkpt>
<trkpt lat="44.517082" lon="33.984161">
<ele>415.863525</ele>
<time>2011-10-11T10:37:03Z</time>
<desc>lat.=44.517082, lon.=33.984161, Alt.=415.863525m. Speed=1.008000m/h.</desc>
<speed>0.280000</speed>
</trkpt>
<trkpt lat="44.517101" lon="33.984161">
<ele>416.816650</ele>
<time>2011-10-11T10:37:08Z</time>
<desc>lat.=44.517101, lon.=33.984161, Alt.=416.816650m. Speed=4.392000m/h.</desc>
<speed>1.220000</speed>
</trkpt>
<trkpt lat="44.517162" lon="33.984173">
<ele>417.386963</ele>
<time>2011-10-11T10:37:13Z</time>
<desc>lat.=44.517162, lon.=33.984173, Alt.=417.386963m. Speed=4.860000m/h.</desc>
<speed>1.350000</speed>
</trkpt>
<trkpt lat="44.517216" lon="33.984203">
<ele>417.847900</ele>
<time>2011-10-11T10:37:18Z</time>
<desc>lat.=44.517216, lon.=33.984203, Alt.=417.847900m. Speed=3.060000m/h.</desc>
<speed>0.850000</speed>
</trkpt>
<trkpt lat="44.517235" lon="33.984238">
<ele>417.949463</ele>
<time>2011-10-11T10:37:23Z</time>
<desc>lat.=44.517235, lon.=33.984238, Alt.=417.949463m. Speed=1.872000m/h.</desc>
<speed>0.520000</speed>
</trkpt>
<trkpt lat="44.517250" lon="33.984283">
<ele>416.902588</ele>
<time>2011-10-11T10:37:28Z</time>
<desc>lat.=44.517250, lon.=33.984283, Alt.=416.902588m. Speed=3.744000m/h.</desc>
<speed>1.040000</speed>
</trkpt>
<trkpt lat="44.517269" lon="33.984333">
<ele>413.918213</ele>
<time>2011-10-11T10:37:33Z</time>
<desc>lat.=44.517269, lon.=33.984333, Alt.=413.918213m. Speed=3.348000m/h.</desc>
<speed>0.930000</speed>
</trkpt>
<trkpt lat="44.517323" lon="33.984402">
<ele>412.410400</ele>
<time>2011-10-11T10:37:38Z</time>
<desc>lat.=44.517323, lon.=33.984402, Alt.=412.410400m. Speed=6.480000m/h.</desc>
<speed>1.800000</speed>
</trkpt>
<trkpt lat="44.517361" lon="33.984463">
<ele>413.504150</ele>
<time>2011-10-11T10:37:43Z</time>
<desc>lat.=44.517361, lon.=33.984463, Alt.=413.504150m. Speed=2.124000m/h.</desc>
<speed>0.590000</speed>
</trkpt>
<trkpt lat="44.517403" lon="33.984566">
<ele>414.879150</ele>
<time>2011-10-11T10:37:48Z</time>
<desc>lat.=44.517403, lon.=33.984566, Alt.=414.879150m. Speed=6.876000m/h.</desc>
<speed>1.910000</speed>
</trkpt>
<trkpt lat="44.517437" lon="33.984642">
<ele>416.621338</ele>
<time>2011-10-11T10:37:53Z</time>
<desc>lat.=44.517437, lon.=33.984642, Alt.=416.621338m. Speed=4.140000m/h.</desc>
<speed>1.150000</speed>
</trkpt>
<trkpt lat="44.517456" lon="33.984707">
<ele>416.652588</ele>
<time>2011-10-11T10:37:58Z</time>
<desc>lat.=44.517456, lon.=33.984707, Alt.=416.652588m. Speed=3.132000m/h.</desc>
<speed>0.870000</speed>
</trkpt>
<trkpt lat="44.517460" lon="33.984810">
<ele>419.535400</ele>
<time>2011-10-11T10:38:03Z</time>
<desc>lat.=44.517460, lon.=33.984810, Alt.=419.535400m. Speed=5.868000m/h.</desc>
<speed>1.630000</speed>
</trkpt>
<trkpt lat="44.517490" lon="33.984921">
<ele>420.402588</ele>
<time>2011-10-11T10:38:08Z</time>
<desc>lat.=44.517490, lon.=33.984921, Alt.=420.402588m. Speed=5.688000m/h.</desc>
<speed>1.580000</speed>
</trkpt>
<trkpt lat="44.517490" lon="33.985031">
<ele>421.582275</ele>
<time>2011-10-11T10:38:13Z</time>
<desc>lat.=44.517490, lon.=33.985031, Alt.=421.582275m. Speed=5.256000m/h.</desc>
<speed>1.460000</speed>
</trkpt>
<trkpt lat="44.517498" lon="33.985123">
<ele>421.879150</ele>
<time>2011-10-11T10:38:18Z</time>
<desc>lat.=44.517498, lon.=33.985123, Alt.=421.879150m. Speed=3.276000m/h.</desc>
<speed>0.910000</speed>
</trkpt>
<trkpt lat="44.517532" lon="33.985218">
<ele>423.207275</ele>
<time>2011-10-11T10:38:23Z</time>
<desc>lat.=44.517532, lon.=33.985218, Alt.=423.207275m. Speed=3.672000m/h.</desc>
<speed>1.020000</speed>
</trkpt>
<trkpt lat="44.517570" lon="33.985302">
<ele>423.957275</ele>
<time>2011-10-11T10:38:28Z</time>
<desc>lat.=44.517570, lon.=33.985302, Alt.=423.957275m. Speed=4.068000m/h.</desc>
<speed>1.130000</speed>
</trkpt>
<trkpt lat="44.517635" lon="33.985359">
<ele>422.480713</ele>
<time>2011-10-11T10:38:33Z</time>
<desc>lat.=44.517635, lon.=33.985359, Alt.=422.480713m. Speed=5.832000m/h.</desc>
<speed>1.620000</speed>
</trkpt>
<trkpt lat="44.517693" lon="33.985424">
<ele>420.269775</ele>
<time>2011-10-11T10:38:38Z</time>
<desc>lat.=44.517693, lon.=33.985424, Alt.=420.269775m. Speed=5.868000m/h.</desc>
<speed>1.630000</speed>
</trkpt>
<trkpt lat="44.517750" lon="33.985489">
<ele>419.590088</ele>
<time>2011-10-11T10:38:43Z</time>
<desc>lat.=44.517750, lon.=33.985489, Alt.=419.590088m. Speed=5.904000m/h.</desc>
<speed>1.640000</speed>
</trkpt>
<trkpt lat="44.517807" lon="33.985531">
<ele>419.043213</ele>
<time>2011-10-11T10:38:48Z</time>
<desc>lat.=44.517807, lon.=33.985531, Alt.=419.043213m. Speed=4.140000m/h.</desc>
<speed>1.150000</speed>
</trkpt>
<trkpt lat="44.517853" lon="33.985577">
<ele>418.746338</ele>
<time>2011-10-11T10:38:53Z</time>
<desc>lat.=44.517853, lon.=33.985577, Alt.=418.746338m. Speed=3.888000m/h.</desc>
<speed>1.080000</speed>
</trkpt>
<trkpt lat="44.517899" lon="33.985607">
<ele>419.019775</ele>
<time>2011-10-11T10:38:58Z</time>
<desc>lat.=44.517899, lon.=33.985607, Alt.=419.019775m. Speed=2.952000m/h.</desc>
<speed>0.820000</speed>
</trkpt>
<trkpt lat="44.517948" lon="33.985645">
<ele>419.465088</ele>
<time>2011-10-11T10:39:03Z</time>
<desc>lat.=44.517948, lon.=33.985645, Alt.=419.465088m. Speed=4.608000m/h.</desc>
<speed>1.280000</speed>
</trkpt>
<trkpt lat="44.517994" lon="33.985668">
<ele>418.941650</ele>
<time>2011-10-11T10:39:08Z</time>
<desc>lat.=44.517994, lon.=33.985668, Alt.=418.941650m. Speed=1.764000m/h.</desc>
<speed>0.490000</speed>
</trkpt>
<trkpt lat="44.518040" lon="33.985699">
<ele>418.340088</ele>
<time>2011-10-11T10:39:13Z</time>
<desc>lat.=44.518040, lon.=33.985699, Alt.=418.340088m. Speed=2.124000m/h.</desc>
<speed>0.590000</speed>
</trkpt>
<trkpt lat="44.518097" lon="33.985737">
<ele>415.527588</ele>
<time>2011-10-11T10:39:18Z</time>
<desc>lat.=44.518097, lon.=33.985737, Alt.=415.527588m. Speed=2.592000m/h.</desc>
<speed>0.720000</speed>
</trkpt>
<trkpt lat="44.518147" lon="33.985790">
<ele>413.090088</ele>
<time>2011-10-11T10:39:23Z</time>
<desc>lat.=44.518147, lon.=33.985790, Alt.=413.090088m. Speed=2.340000m/h.</desc>
<speed>0.650000</speed>
</trkpt>
<trkpt lat="44.518208" lon="33.985828">
<ele>408.965088</ele>
<time>2011-10-11T10:39:28Z</time>
<desc>lat.=44.518208, lon.=33.985828, Alt.=408.965088m. Speed=3.096000m/h.</desc>
<speed>0.860000</speed>
</trkpt>
<trkpt lat="44.518257" lon="33.985859">
<ele>406.332275</ele>
<time>2011-10-11T10:39:33Z</time>
<desc>lat.=44.518257, lon.=33.985859, Alt.=406.332275m. Speed=4.212000m/h.</desc>
<speed>1.170000</speed>
</trkpt>
<trkpt lat="44.518322" lon="33.985855">
<ele>402.597900</ele>
<time>2011-10-11T10:39:38Z</time>
<desc>lat.=44.518322, lon.=33.985855, Alt.=402.597900m. Speed=5.004000m/h.</desc>
<speed>1.390000</speed>
</trkpt>
<trkpt lat="44.518356" lon="33.985847">
<ele>400.152588</ele>
<time>2011-10-11T10:39:43Z</time>
<desc>lat.=44.518356, lon.=33.985847, Alt.=400.152588m. Speed=4.536000m/h.</desc>
<speed>1.260000</speed>
</trkpt>
<trkpt lat="44.518391" lon="33.985790">
<ele>401.215088</ele>
<time>2011-10-11T10:39:48Z</time>
<desc>lat.=44.518391, lon.=33.985790, Alt.=401.215088m. Speed=3.672000m/h.</desc>
<speed>1.020000</speed>
</trkpt>
<trkpt lat="44.518429" lon="33.985737">
<ele>400.355713</ele>
<time>2011-10-11T10:39:53Z</time>
<desc>lat.=44.518429, lon.=33.985737, Alt.=400.355713m. Speed=5.688000m/h.</desc>
<speed>1.580000</speed>
</trkpt>
<trkpt lat="44.518471" lon="33.985676">
<ele>400.191650</ele>
<time>2011-10-11T10:39:58Z</time>
<desc>lat.=44.518471, lon.=33.985676, Alt.=400.191650m. Speed=4.680000m/h.</desc>
<speed>1.300000</speed>
</trkpt>
<trkpt lat="44.518509" lon="33.985615">
<ele>399.988525</ele>
<time>2011-10-11T10:40:03Z</time>
<desc>lat.=44.518509, lon.=33.985615, Alt.=399.988525m. Speed=5.796000m/h.</desc>
<speed>1.610000</speed>
</trkpt>
<trkpt lat="44.518539" lon="33.985580">
<ele>400.660400</ele>
<time>2011-10-11T10:40:08Z</time>
<desc>lat.=44.518539, lon.=33.985580, Alt.=400.660400m. Speed=3.672000m/h.</desc>
<speed>1.020000</speed>
</trkpt>
<trkpt lat="44.518600" lon="33.985531">
<ele>399.855713</ele>
<time>2011-10-11T10:40:13Z</time>
<desc>lat.=44.518600, lon.=33.985531, Alt.=399.855713m. Speed=5.184000m/h.</desc>
<speed>1.440000</speed>
</trkpt>
<trkpt lat="44.518639" lon="33.985489">
<ele>400.441650</ele>
<time>2011-10-11T10:40:18Z</time>
<desc>lat.=44.518639, lon.=33.985489, Alt.=400.441650m. Speed=2.448000m/h.</desc>
<speed>0.680000</speed>
</trkpt>
<trkpt lat="44.518681" lon="33.985451">
<ele>399.738525</ele>
<time>2011-10-11T10:40:23Z</time>
<desc>lat.=44.518681, lon.=33.985451, Alt.=399.738525m. Speed=4.968000m/h.</desc>
<speed>1.380000</speed>
</trkpt>
<trkpt lat="44.518730" lon="33.985416">
<ele>401.394775</ele>
<time>2011-10-11T10:40:28Z</time>
<desc>lat.=44.518730, lon.=33.985416, Alt.=401.394775m. Speed=3.960000m/h.</desc>
<speed>1.100000</speed>
</trkpt>
<trkpt lat="44.518761" lon="33.985382">
<ele>400.715088</ele>
<time>2011-10-11T10:40:33Z</time>
<desc>lat.=44.518761, lon.=33.985382, Alt.=400.715088m. Speed=2.808000m/h.</desc>
<speed>0.780000</speed>
</trkpt>
<trkpt lat="44.518799" lon="33.985352">
<ele>399.566650</ele>
<time>2011-10-11T10:40:38Z</time>
<desc>lat.=44.518799, lon.=33.985352, Alt.=399.566650m. Speed=2.520000m/h.</desc>
<speed>0.700000</speed>
</trkpt>
<trkpt lat="44.518822" lon="33.985363">
<ele>398.808838</ele>
<time>2011-10-11T10:40:43Z</time>
<desc>lat.=44.518822, lon.=33.985363, Alt.=398.808838m. Speed=1.836000m/h.</desc>
<speed>0.510000</speed>
</trkpt>
<trkpt lat="44.518845" lon="33.985413">
<ele>397.199463</ele>
<time>2011-10-11T10:40:48Z</time>
<desc>lat.=44.518845, lon.=33.985413, Alt.=397.199463m. Speed=3.456000m/h.</desc>
<speed>0.960000</speed>
</trkpt>
<trkpt lat="44.518871" lon="33.985497">
<ele>397.316650</ele>
<time>2011-10-11T10:40:53Z</time>
<desc>lat.=44.518871, lon.=33.985497, Alt.=397.316650m. Speed=3.852000m/h.</desc>
<speed>1.070000</speed>
</trkpt>
<trkpt lat="44.518875" lon="33.985519">
<ele>396.230713</ele>
<time>2011-10-11T10:40:58Z</time>
<desc>lat.=44.518875, lon.=33.985519, Alt.=396.230713m. Speed=1.512000m/h.</desc>
<speed>0.420000</speed>
</trkpt>
<trkpt lat="44.518890" lon="33.985535">
<ele>397.254150</ele>
<time>2011-10-11T10:41:03Z</time>
<desc>lat.=44.518890, lon.=33.985535, Alt.=397.254150m. Speed=0.144000m/h.</desc>
<speed>0.040000</speed>
</trkpt>
<trkpt lat="44.518898" lon="33.985527">
<ele>397.910400</ele>
<time>2011-10-11T10:41:08Z</time>
<desc>lat.=44.518898, lon.=33.985527, Alt.=397.910400m. Speed=0.252000m/h.</desc>
<speed>0.070000</speed>
</trkpt>
<trkpt lat="44.518894" lon="33.985527">
<ele>397.957275</ele>
<time>2011-10-11T10:41:13Z</time>
<desc>lat.=44.518894, lon.=33.985527, Alt.=397.957275m. Speed=0.432000m/h.</desc>
<speed>0.120000</speed>
</trkpt>
<trkpt lat="44.518898" lon="33.985531">
<ele>398.176025</ele>
<time>2011-10-11T10:41:18Z</time>
<desc>lat.=44.518898, lon.=33.985531, Alt.=398.176025m. Speed=1.368000m/h.</desc>
<speed>0.380000</speed>
</trkpt>
<trkpt lat="44.518890" lon="33.985546">
<ele>398.785400</ele>
<time>2011-10-11T10:41:23Z</time>
<desc>lat.=44.518890, lon.=33.985546, Alt.=398.785400m. Speed=0.468000m/h.</desc>
<speed>0.130000</speed>
</trkpt>
<trkpt lat="44.518890" lon="33.985546">
<ele>398.972900</ele>
<time>2011-10-11T10:41:28Z</time>
<desc>lat.=44.518890, lon.=33.985546, Alt.=398.972900m. Speed=0.072000m/h.</desc>
<speed>0.020000</speed>
</trkpt>
<trkpt lat="44.518890" lon="33.985546">
<ele>399.058838</ele>
<time>2011-10-11T10:41:33Z</time>
<desc>lat.=44.518890, lon.=33.985546, Alt.=399.058838m. Speed=0.036000m/h.</desc>
<speed>0.010000</speed>
</trkpt>
<trkpt lat="44.518909" lon="33.985516">
<ele>399.293213</ele>
<time>2011-10-11T10:41:38Z</time>
<desc>lat.=44.518909, lon.=33.985516, Alt.=399.293213m. Speed=2.844000m/h.</desc>
<speed>0.790000</speed>
</trkpt>
<trkpt lat="44.518921" lon="33.985523">
<ele>399.511963</ele>
<time>2011-10-11T10:41:43Z</time>
<desc>lat.=44.518921, lon.=33.985523, Alt.=399.511963m. Speed=0.252000m/h.</desc>
<speed>0.070000</speed>
</trkpt>
<trkpt lat="44.518917" lon="33.985523">
<ele>399.543213</ele>
<time>2011-10-11T10:41:48Z</time>
<desc>lat.=44.518917, lon.=33.985523, Alt.=399.543213m. Speed=0.576000m/h.</desc>
<speed>0.160000</speed>
</trkpt>
<trkpt lat="44.518913" lon="33.985523">
<ele>399.535400</ele>
<time>2011-10-11T10:41:53Z</time>
<desc>lat.=44.518913, lon.=33.985523, Alt.=399.535400m. Speed=0.036000m/h.</desc>
<speed>0.010000</speed>
</trkpt>
<trkpt lat="44.518913" lon="33.985523">
<ele>399.511963</ele>
<time>2011-10-11T10:41:58Z</time>
<desc>lat.=44.518913, lon.=33.985523, Alt.=399.511963m. Speed=0.000000m/h.</desc>
<speed>0.000000</speed>
</trkpt>
<trkpt lat="44.518909" lon="33.985527">
<ele>399.582275</ele>
<time>2011-10-11T10:42:03Z</time>
<desc>lat.=44.518909, lon.=33.985527, Alt.=399.582275m. Speed=0.756000m/h.</desc>
<speed>0.210000</speed>
</trkpt>
<trkpt lat="44.518909" lon="33.985527">
<ele>399.902588</ele>
<time>2011-10-11T10:42:08Z</time>
<desc>lat.=44.518909, lon.=33.985527, Alt.=399.902588m. Speed=0.072000m/h.</desc>
<speed>0.020000</speed>
</trkpt>
<trkpt lat="44.518909" lon="33.985527">
<ele>399.918213</ele>
<time>2011-10-11T10:42:13Z</time>
<desc>lat.=44.518909, lon.=33.985527, Alt.=399.918213m. Speed=0.036000m/h.</desc>
<speed>0.010000</speed>
</trkpt>
<trkpt lat="44.518906" lon="33.985531">
<ele>399.277588</ele>
<time>2011-10-11T10:42:18Z</time>
<desc>lat.=44.518906, lon.=33.985531, Alt.=399.277588m. Speed=2.952000m/h.</desc>
<speed>0.820000</speed>
</trkpt>
<trkpt lat="44.518902" lon="33.985538">
<ele>398.011963</ele>
<time>2011-10-11T10:42:23Z</time>
<desc>lat.=44.518902, lon.=33.985538, Alt.=398.011963m. Speed=0.180000m/h.</desc>
<speed>0.050000</speed>
</trkpt>
<trkpt lat="44.518898" lon="33.985535">
<ele>397.543213</ele>
<time>2011-10-11T10:42:28Z</time>
<desc>lat.=44.518898, lon.=33.985535, Alt.=397.543213m. Speed=2.412000m/h.</desc>
<speed>0.670000</speed>
</trkpt>
<trkpt lat="44.518906" lon="33.985558">
<ele>396.379150</ele>
<time>2011-10-11T10:42:33Z</time>
<desc>lat.=44.518906, lon.=33.985558, Alt.=396.379150m. Speed=0.036000m/h.</desc>
<speed>0.010000</speed>
</trkpt>
<trkpt lat="44.518906" lon="33.985558">
<ele>396.324463</ele>
<time>2011-10-11T10:42:38Z</time>
<desc>lat.=44.518906, lon.=33.985558, Alt.=396.324463m. Speed=0.036000m/h.</desc>
<speed>0.010000</speed>
</trkpt>
<trkpt lat="44.518906" lon="33.985558">
<ele>396.230713</ele>
<time>2011-10-11T10:42:43Z</time>
<desc>lat.=44.518906, lon.=33.985558, Alt.=396.230713m. Speed=0.036000m/h.</desc>
<speed>0.010000</speed>
</trkpt>
<trkpt lat="44.518906" lon="33.985558">
<ele>396.238525</ele>
<time>2011-10-11T10:42:48Z</time>
<desc>lat.=44.518906, lon.=33.985558, Alt.=396.238525m. Speed=0.396000m/h.</desc>
<speed>0.110000</speed>
</trkpt>
<trkpt lat="44.518906" lon="33.985561">
<ele>396.230713</ele>
<time>2011-10-11T10:42:53Z</time>
<desc>lat.=44.518906, lon.=33.985561, Alt.=396.230713m. Speed=0.036000m/h.</desc>
<speed>0.010000</speed>
</trkpt>
<trkpt lat="44.518906" lon="33.985558">
<ele>396.230713</ele>
<time>2011-10-11T10:42:58Z</time>
<desc>lat.=44.518906, lon.=33.985558, Alt.=396.230713m. Speed=0.036000m/h.</desc>
<speed>0.010000</speed>
</trkpt>
<trkpt lat="44.518906" lon="33.985558">
<ele>396.230713</ele>
<time>2011-10-11T10:43:03Z</time>
<desc>lat.=44.518906, lon.=33.985558, Alt.=396.230713m. Speed=0.108000m/h.</desc>
<speed>0.030000</speed>
</trkpt>
<trkpt lat="44.518906" lon="33.985558">
<ele>396.238525</ele>
<time>2011-10-11T10:43:08Z</time>
<desc>lat.=44.518906, lon.=33.985558, Alt.=396.238525m. Speed=0.000000m/h.</desc>
<speed>0.000000</speed>
</trkpt>
<trkpt lat="44.518909" lon="33.985550">
<ele>396.035400</ele>
<time>2011-10-11T10:43:13Z</time>
<desc>lat.=44.518909, lon.=33.985550, Alt.=396.035400m. Speed=0.432000m/h.</desc>
<speed>0.120000</speed>
</trkpt>
<trkpt lat="44.518909" lon="33.985542">
<ele>395.715088</ele>
<time>2011-10-11T10:43:18Z</time>
<desc>lat.=44.518909, lon.=33.985542, Alt.=395.715088m. Speed=0.324000m/h.</desc>
<speed>0.090000</speed>
</trkpt>
<trkpt lat="44.518909" lon="33.985538">
<ele>395.707275</ele>
<time>2011-10-11T10:43:23Z</time>
<desc>lat.=44.518909, lon.=33.985538, Alt.=395.707275m. Speed=0.000000m/h.</desc>
<speed>0.000000</speed>
</trkpt>
<trkpt lat="44.518906" lon="33.985538">
<ele>395.707275</ele>
<time>2011-10-11T10:43:28Z</time>
<desc>lat.=44.518906, lon.=33.985538, Alt.=395.707275m. Speed=0.108000m/h.</desc>
<speed>0.030000</speed>
</trkpt>
<trkpt lat="44.518894" lon="33.985580">
<ele>395.972900</ele>
<time>2011-10-11T10:43:33Z</time>
<desc>lat.=44.518894, lon.=33.985580, Alt.=395.972900m. Speed=4.716000m/h.</desc>
<speed>1.310000</speed>
</trkpt>
<trkpt lat="44.518871" lon="33.985638">
<ele>396.090088</ele>
<time>2011-10-11T10:43:38Z</time>
<desc>lat.=44.518871, lon.=33.985638, Alt.=396.090088m. Speed=4.176000m/h.</desc>
<speed>1.160000</speed>
</trkpt>
<trkpt lat="44.518875" lon="33.985710">
<ele>396.785400</ele>
<time>2011-10-11T10:43:43Z</time>
<desc>lat.=44.518875, lon.=33.985710, Alt.=396.785400m. Speed=2.988000m/h.</desc>
<speed>0.830000</speed>
</trkpt>
<trkpt lat="44.518894" lon="33.985779">
<ele>398.222900</ele>
<time>2011-10-11T10:43:48Z</time>
<desc>lat.=44.518894, lon.=33.985779, Alt.=398.222900m. Speed=4.644000m/h.</desc>
<speed>1.290000</speed>
</trkpt>
<trkpt lat="44.518913" lon="33.985878">
<ele>398.152588</ele>
<time>2011-10-11T10:43:53Z</time>
<desc>lat.=44.518913, lon.=33.985878, Alt.=398.152588m. Speed=5.256000m/h.</desc>
<speed>1.460000</speed>
</trkpt>
<trkpt lat="44.518921" lon="33.985935">
<ele>398.558838</ele>
<time>2011-10-11T10:43:58Z</time>
<desc>lat.=44.518921, lon.=33.985935, Alt.=398.558838m. Speed=2.376000m/h.</desc>
<speed>0.660000</speed>
</trkpt>
<trkpt lat="44.518898" lon="33.985996">
<ele>398.918213</ele>
<time>2011-10-11T10:44:03Z</time>
<desc>lat.=44.518898, lon.=33.985996, Alt.=398.918213m. Speed=2.844000m/h.</desc>
<speed>0.790000</speed>
</trkpt>
<trkpt lat="44.518871" lon="33.986076">
<ele>399.254150</ele>
<time>2011-10-11T10:44:08Z</time>
<desc>lat.=44.518871, lon.=33.986076, Alt.=399.254150m. Speed=3.420000m/h.</desc>
<speed>0.950000</speed>
</trkpt>
<trkpt lat="44.518864" lon="33.986137">
<ele>399.660400</ele>
<time>2011-10-11T10:44:13Z</time>
<desc>lat.=44.518864, lon.=33.986137, Alt.=399.660400m. Speed=2.016000m/h.</desc>
<speed>0.560000</speed>
</trkpt>
<trkpt lat="44.518875" lon="33.986164">
<ele>399.926025</ele>
<time>2011-10-11T10:44:18Z</time>
<desc>lat.=44.518875, lon.=33.986164, Alt.=399.926025m. Speed=1.152000m/h.</desc>
<speed>0.320000</speed>
</trkpt>
<trkpt lat="44.518917" lon="33.986229">
<ele>399.996338</ele>
<time>2011-10-11T10:44:23Z</time>
<desc>lat.=44.518917, lon.=33.986229, Alt.=399.996338m. Speed=4.464000m/h.</desc>
<speed>1.240000</speed>
</trkpt>
<trkpt lat="44.518921" lon="33.986271">
<ele>400.394775</ele>
<time>2011-10-11T10:44:28Z</time>
<desc>lat.=44.518921, lon.=33.986271, Alt.=400.394775m. Speed=4.356000m/h.</desc>
<speed>1.210000</speed>
</trkpt>
<trkpt lat="44.518913" lon="33.986374">
<ele>399.777588</ele>
<time>2011-10-11T10:44:33Z</time>
<desc>lat.=44.518913, lon.=33.986374, Alt.=399.777588m. Speed=5.004000m/h.</desc>
<speed>1.390000</speed>
</trkpt>
<trkpt lat="44.518940" lon="33.986454">
<ele>398.004150</ele>
<time>2011-10-11T10:44:38Z</time>
<desc>lat.=44.518940, lon.=33.986454, Alt.=398.004150m. Speed=2.844000m/h.</desc>
<speed>0.790000</speed>
</trkpt>
<trkpt lat="44.518970" lon="33.986538">
<ele>397.699463</ele>
<time>2011-10-11T10:44:43Z</time>
<desc>lat.=44.518970, lon.=33.986538, Alt.=397.699463m. Speed=7.272000m/h.</desc>
<speed>2.020000</speed>
</trkpt>
<trkpt lat="44.519020" lon="33.986614">
<ele>397.808838</ele>
<time>2011-10-11T10:44:48Z</time>
<desc>lat.=44.519020, lon.=33.986614, Alt.=397.808838m. Speed=4.392000m/h.</desc>
<speed>1.220000</speed>
</trkpt>
<trkpt lat="44.519047" lon="33.986694">
<ele>399.176025</ele>
<time>2011-10-11T10:44:53Z</time>
<desc>lat.=44.519047, lon.=33.986694, Alt.=399.176025m. Speed=5.508000m/h.</desc>
<speed>1.530000</speed>
</trkpt>
<trkpt lat="44.519100" lon="33.986759">
<ele>400.855713</ele>
<time>2011-10-11T10:44:58Z</time>
<desc>lat.=44.519100, lon.=33.986759, Alt.=400.855713m. Speed=3.348000m/h.</desc>
<speed>0.930000</speed>
</trkpt>
<trkpt lat="44.519115" lon="33.986843">
<ele>405.261963</ele>
<time>2011-10-11T10:45:03Z</time>
<desc>lat.=44.519115, lon.=33.986843, Alt.=405.261963m. Speed=5.004000m/h.</desc>
<speed>1.390000</speed>
</trkpt>
<trkpt lat="44.519138" lon="33.986916">
<ele>405.558838</ele>
<time>2011-10-11T10:45:08Z</time>
<desc>lat.=44.519138, lon.=33.986916, Alt.=405.558838m. Speed=5.400000m/h.</desc>
<speed>1.500000</speed>
</trkpt>
<trkpt lat="44.519180" lon="33.986980">
<ele>407.340088</ele>
<time>2011-10-11T10:45:13Z</time>
<desc>lat.=44.519180, lon.=33.986980, Alt.=407.340088m. Speed=4.932000m/h.</desc>
<speed>1.370000</speed>
</trkpt>
<trkpt lat="44.519211" lon="33.987057">
<ele>407.855713</ele>
<time>2011-10-11T10:45:18Z</time>
<desc>lat.=44.519211, lon.=33.987057, Alt.=407.855713m. Speed=8.244000m/h.</desc>
<speed>2.290000</speed>
</trkpt>
<trkpt lat="44.519264" lon="33.987122">
<ele>408.051025</ele>
<time>2011-10-11T10:45:23Z</time>
<desc>lat.=44.519264, lon.=33.987122, Alt.=408.051025m. Speed=5.328000m/h.</desc>
<speed>1.480000</speed>
</trkpt>
<trkpt lat="44.519321" lon="33.987179">
<ele>407.566650</ele>
<time>2011-10-11T10:45:28Z</time>
<desc>lat.=44.519321, lon.=33.987179, Alt.=407.566650m. Speed=5.796000m/h.</desc>
<speed>1.610000</speed>
</trkpt>
<trkpt lat="44.519352" lon="33.987251">
<ele>407.519775</ele>
<time>2011-10-11T10:45:33Z</time>
<desc>lat.=44.519352, lon.=33.987251, Alt.=407.519775m. Speed=5.004000m/h.</desc>
<speed>1.390000</speed>
</trkpt>
<trkpt lat="44.519386" lon="33.987339">
<ele>407.574463</ele>
<time>2011-10-11T10:45:38Z</time>
<desc>lat.=44.519386, lon.=33.987339, Alt.=407.574463m. Speed=5.328000m/h.</desc>
<speed>1.480000</speed>
</trkpt>
<trkpt lat="44.519447" lon="33.987389">
<ele>406.965088</ele>
<time>2011-10-11T10:45:43Z</time>
<desc>lat.=44.519447, lon.=33.987389, Alt.=406.965088m. Speed=6.012000m/h.</desc>
<speed>1.670000</speed>
</trkpt>
<trkpt lat="44.519505" lon="33.987465">
<ele>406.410400</ele>
<time>2011-10-11T10:45:48Z</time>
<desc>lat.=44.519505, lon.=33.987465, Alt.=406.410400m. Speed=4.896000m/h.</desc>
<speed>1.360000</speed>
</trkpt>
<trkpt lat="44.519554" lon="33.987579">
<ele>405.152588</ele>
<time>2011-10-11T10:45:53Z</time>
<desc>lat.=44.519554, lon.=33.987579, Alt.=405.152588m. Speed=3.780000m/h.</desc>
<speed>1.050000</speed>
</trkpt>
<trkpt lat="44.519566" lon="33.987656">
<ele>405.504150</ele>
<time>2011-10-11T10:45:58Z</time>
<desc>lat.=44.519566, lon.=33.987656, Alt.=405.504150m. Speed=5.976000m/h.</desc>
<speed>1.660000</speed>
</trkpt>
<trkpt lat="44.519562" lon="33.987751">
<ele>406.207275</ele>
<time>2011-10-11T10:46:03Z</time>
<desc>lat.=44.519562, lon.=33.987751, Alt.=406.207275m. Speed=4.212000m/h.</desc>
<speed>1.170000</speed>
</trkpt>
<trkpt lat="44.519554" lon="33.987862">
<ele>405.980713</ele>
<time>2011-10-11T10:46:08Z</time>
<desc>lat.=44.519554, lon.=33.987862, Alt.=405.980713m. Speed=5.328000m/h.</desc>
<speed>1.480000</speed>
</trkpt>
<trkpt lat="44.519566" lon="33.987949">
<ele>406.410400</ele>
<time>2011-10-11T10:46:13Z</time>
<desc>lat.=44.519566, lon.=33.987949, Alt.=406.410400m. Speed=4.212000m/h.</desc>
<speed>1.170000</speed>
</trkpt>
<trkpt lat="44.519585" lon="33.988026">
<ele>407.222900</ele>
<time>2011-10-11T10:46:18Z</time>
<desc>lat.=44.519585, lon.=33.988026, Alt.=407.222900m. Speed=3.960000m/h.</desc>
<speed>1.100000</speed>
</trkpt>
<trkpt lat="44.519600" lon="33.988083">
<ele>408.324463</ele>
<time>2011-10-11T10:46:23Z</time>
<desc>lat.=44.519600, lon.=33.988083, Alt.=408.324463m. Speed=3.564000m/h.</desc>
<speed>0.990000</speed>
</trkpt>
<trkpt lat="44.519604" lon="33.988129">
<ele>408.027588</ele>
<time>2011-10-11T10:46:28Z</time>
<desc>lat.=44.519604, lon.=33.988129, Alt.=408.027588m. Speed=1.440000m/h.</desc>
<speed>0.400000</speed>
</trkpt>
<trkpt lat="44.519596" lon="33.988140">
<ele>405.972900</ele>
<time>2011-10-11T10:46:33Z</time>
<desc>lat.=44.519596, lon.=33.988140, Alt.=405.972900m. Speed=2.844000m/h.</desc>
<speed>0.790000</speed>
</trkpt>
<trkpt lat="44.519566" lon="33.988182">
<ele>405.996338</ele>
<time>2011-10-11T10:46:38Z</time>
<desc>lat.=44.519566, lon.=33.988182, Alt.=405.996338m. Speed=2.592000m/h.</desc>
<speed>0.720000</speed>
</trkpt>
<trkpt lat="44.519562" lon="33.988174">
<ele>405.316650</ele>
<time>2011-10-11T10:46:43Z</time>
<desc>lat.=44.519562, lon.=33.988174, Alt.=405.316650m. Speed=2.916000m/h.</desc>
<speed>0.810000</speed>
</trkpt>
<trkpt lat="44.519592" lon="33.988197">
<ele>406.910400</ele>
<time>2011-10-11T10:46:48Z</time>
<desc>lat.=44.519592, lon.=33.988197, Alt.=406.910400m. Speed=5.544000m/h.</desc>
<speed>1.540000</speed>
</trkpt>
<trkpt lat="44.519642" lon="33.988232">
<ele>408.332275</ele>
<time>2011-10-11T10:46:53Z</time>
<desc>lat.=44.519642, lon.=33.988232, Alt.=408.332275m. Speed=3.852000m/h.</desc>
<speed>1.070000</speed>
</trkpt>
<trkpt lat="44.519680" lon="33.988289">
<ele>408.457275</ele>
<time>2011-10-11T10:46:58Z</time>
<desc>lat.=44.519680, lon.=33.988289, Alt.=408.457275m. Speed=4.572000m/h.</desc>
<speed>1.270000</speed>
</trkpt>
<trkpt lat="44.519711" lon="33.988335">
<ele>408.918213</ele>
<time>2011-10-11T10:47:03Z</time>
<desc>lat.=44.519711, lon.=33.988335, Alt.=408.918213m. Speed=3.924000m/h.</desc>
<speed>1.090000</speed>
</trkpt>
<trkpt lat="44.519741" lon="33.988392">
<ele>408.965088</ele>
<time>2011-10-11T10:47:08Z</time>
<desc>lat.=44.519741, lon.=33.988392, Alt.=408.965088m. Speed=4.248000m/h.</desc>
<speed>1.180000</speed>
</trkpt>
<trkpt lat="44.519787" lon="33.988430">
<ele>409.269775</ele>
<time>2011-10-11T10:47:13Z</time>
<desc>lat.=44.519787, lon.=33.988430, Alt.=409.269775m. Speed=5.076000m/h.</desc>
<speed>1.410000</speed>
</trkpt>
<trkpt lat="44.519833" lon="33.988480">
<ele>408.433838</ele>
<time>2011-10-11T10:47:18Z</time>
<desc>lat.=44.519833, lon.=33.988480, Alt.=408.433838m. Speed=4.716000m/h.</desc>
<speed>1.310000</speed>
</trkpt>
<trkpt lat="44.519867" lon="33.988525">
<ele>407.426025</ele>
<time>2011-10-11T10:47:23Z</time>
<desc>lat.=44.519867, lon.=33.988525, Alt.=407.426025m. Speed=3.708000m/h.</desc>
<speed>1.030000</speed>
</trkpt>
<trkpt lat="44.519894" lon="33.988564">
<ele>407.496338</ele>
<time>2011-10-11T10:47:28Z</time>
<desc>lat.=44.519894, lon.=33.988564, Alt.=407.496338m. Speed=4.356000m/h.</desc>
<speed>1.210000</speed>
</trkpt>
<trkpt lat="44.519909" lon="33.988617">
<ele>407.894775</ele>
<time>2011-10-11T10:47:33Z</time>
<desc>lat.=44.519909, lon.=33.988617, Alt.=407.894775m. Speed=2.232000m/h.</desc>
<speed>0.620000</speed>
</trkpt>
<trkpt lat="44.519901" lon="33.988632">
<ele>409.058838</ele>
<time>2011-10-11T10:47:38Z</time>
<desc>lat.=44.519901, lon.=33.988632, Alt.=409.058838m. Speed=2.088000m/h.</desc>
<speed>0.580000</speed>
</trkpt>
<trkpt lat="44.519897" lon="33.988670">
<ele>409.613525</ele>
<time>2011-10-11T10:47:43Z</time>
<desc>lat.=44.519897, lon.=33.988670, Alt.=409.613525m. Speed=4.392000m/h.</desc>
<speed>1.220000</speed>
</trkpt>
<trkpt lat="44.519909" lon="33.988735">
<ele>409.730713</ele>
<time>2011-10-11T10:47:48Z</time>
<desc>lat.=44.519909, lon.=33.988735, Alt.=409.730713m. Speed=3.492000m/h.</desc>
<speed>0.970000</speed>
</trkpt>
<trkpt lat="44.519920" lon="33.988800">
<ele>409.457275</ele>
<time>2011-10-11T10:47:53Z</time>
<desc>lat.=44.519920, lon.=33.988800, Alt.=409.457275m. Speed=4.788000m/h.</desc>
<speed>1.330000</speed>
</trkpt>
<trkpt lat="44.519913" lon="33.988834">
<ele>412.605713</ele>
<time>2011-10-11T10:47:58Z</time>
<desc>lat.=44.519913, lon.=33.988834, Alt.=412.605713m. Speed=0.684000m/h.</desc>
<speed>0.190000</speed>
</trkpt>
<trkpt lat="44.519939" lon="33.988865">
<ele>415.105713</ele>
<time>2011-10-11T10:48:03Z</time>
<desc>lat.=44.519939, lon.=33.988865, Alt.=415.105713m. Speed=3.708000m/h.</desc>
<speed>1.030000</speed>
</trkpt>
<trkpt lat="44.519974" lon="33.988922">
<ele>416.965088</ele>
<time>2011-10-11T10:48:08Z</time>
<desc>lat.=44.519974, lon.=33.988922, Alt.=416.965088m. Speed=4.212000m/h.</desc>
<speed>1.170000</speed>
</trkpt>
<trkpt lat="44.520004" lon="33.988968">
<ele>419.582275</ele>
<time>2011-10-11T10:48:13Z</time>
<desc>lat.=44.520004, lon.=33.988968, Alt.=419.582275m. Speed=3.024000m/h.</desc>
<speed>0.840000</speed>
</trkpt>
<trkpt lat="44.520031" lon="33.989052">
<ele>422.230713</ele>
<time>2011-10-11T10:48:18Z</time>
<desc>lat.=44.520031, lon.=33.989052, Alt.=422.230713m. Speed=4.752000m/h.</desc>
<speed>1.320000</speed>
</trkpt>
<trkpt lat="44.520046" lon="33.989101">
<ele>423.801025</ele>
<time>2011-10-11T10:48:23Z</time>
<desc>lat.=44.520046, lon.=33.989101, Alt.=423.801025m. Speed=2.844000m/h.</desc>
<speed>0.790000</speed>
</trkpt>
<trkpt lat="44.520084" lon="33.989151">
<ele>425.105713</ele>
<time>2011-10-11T10:48:28Z</time>
<desc>lat.=44.520084, lon.=33.989151, Alt.=425.105713m. Speed=4.428000m/h.</desc>
<speed>1.230000</speed>
</trkpt>
<trkpt lat="44.520126" lon="33.989178">
<ele>427.855713</ele>
<time>2011-10-11T10:48:33Z</time>
<desc>lat.=44.520126, lon.=33.989178, Alt.=427.855713m. Speed=3.168000m/h.</desc>
<speed>0.880000</speed>
</trkpt>
<trkpt lat="44.520157" lon="33.989197">
<ele>428.207275</ele>
<time>2011-10-11T10:48:38Z</time>
<desc>lat.=44.520157, lon.=33.989197, Alt.=428.207275m. Speed=2.520000m/h.</desc>
<speed>0.700000</speed>
</trkpt>
<trkpt lat="44.520168" lon="33.989193">
<ele>428.629150</ele>
<time>2011-10-11T10:48:43Z</time>
<desc>lat.=44.520168, lon.=33.989193, Alt.=428.629150m. Speed=0.180000m/h.</desc>
<speed>0.050000</speed>
</trkpt>
<trkpt lat="44.520168" lon="33.989197">
<ele>430.035400</ele>
<time>2011-10-11T10:48:48Z</time>
<desc>lat.=44.520168, lon.=33.989197, Alt.=430.035400m. Speed=0.324000m/h.</desc>
<speed>0.090000</speed>
</trkpt>
<trkpt lat="44.520168" lon="33.989197">
<ele>430.136963</ele>
<time>2011-10-11T10:48:53Z</time>
<desc>lat.=44.520168, lon.=33.989197, Alt.=430.136963m. Speed=0.036000m/h.</desc>
<speed>0.010000</speed>
</trkpt>
<trkpt lat="44.520168" lon="33.989197">
<ele>430.136963</ele>
<time>2011-10-11T10:48:58Z</time>
<desc>lat.=44.520168, lon.=33.989197, Alt.=430.136963m. Speed=0.144000m/h.</desc>
<speed>0.040000</speed>
</trkpt>
<trkpt lat="44.520168" lon="33.989197">
<ele>430.082275</ele>
<time>2011-10-11T10:49:03Z</time>
<desc>lat.=44.520168, lon.=33.989197, Alt.=430.082275m. Speed=0.540000m/h.</desc>
<speed>0.150000</speed>
</trkpt>
<trkpt lat="44.520191" lon="33.989204">
<ele>430.066650</ele>
<time>2011-10-11T10:49:08Z</time>
<desc>lat.=44.520191, lon.=33.989204, Alt.=430.066650m. Speed=5.076000m/h.</desc>
<speed>1.410000</speed>
</trkpt>
<trkpt lat="44.520218" lon="33.989265">
<ele>430.465088</ele>
<time>2011-10-11T10:49:13Z</time>
<desc>lat.=44.520218, lon.=33.989265, Alt.=430.465088m. Speed=3.204000m/h.</desc>
<speed>0.890000</speed>
</trkpt>
<trkpt lat="44.520222" lon="33.989273">
<ele>431.363525</ele>
<time>2011-10-11T10:49:18Z</time>
<desc>lat.=44.520222, lon.=33.989273, Alt.=431.363525m. Speed=0.144000m/h.</desc>
<speed>0.040000</speed>
</trkpt>
<trkpt lat="44.520229" lon="33.989269">
<ele>432.090088</ele>
<time>2011-10-11T10:49:23Z</time>
<desc>lat.=44.520229, lon.=33.989269, Alt.=432.090088m. Speed=0.144000m/h.</desc>
<speed>0.040000</speed>
</trkpt>
<trkpt lat="44.520226" lon="33.989269">
<ele>432.316650</ele>
<time>2011-10-11T10:49:28Z</time>
<desc>lat.=44.520226, lon.=33.989269, Alt.=432.316650m. Speed=0.036000m/h.</desc>
<speed>0.010000</speed>
</trkpt>
<trkpt lat="44.520229" lon="33.989269">
<ele>432.340088</ele>
<time>2011-10-11T10:49:33Z</time>
<desc>lat.=44.520229, lon.=33.989269, Alt.=432.340088m. Speed=0.000000m/h.</desc>
<speed>0.000000</speed>
</trkpt>
<trkpt lat="44.520226" lon="33.989269">
<ele>432.363525</ele>
<time>2011-10-11T10:49:38Z</time>
<desc>lat.=44.520226, lon.=33.989269, Alt.=432.363525m. Speed=1.296000m/h.</desc>
<speed>0.360000</speed>
</trkpt>
<trkpt lat="44.520226" lon="33.989269">
<ele>433.332275</ele>
<time>2011-10-11T10:49:43Z</time>
<desc>lat.=44.520226, lon.=33.989269, Alt.=433.332275m. Speed=0.252000m/h.</desc>
<speed>0.070000</speed>
</trkpt>
<trkpt lat="44.520229" lon="33.989277">
<ele>434.129150</ele>
<time>2011-10-11T10:49:48Z</time>
<desc>lat.=44.520229, lon.=33.989277, Alt.=434.129150m. Speed=3.636000m/h.</desc>
<speed>1.010000</speed>
</trkpt>
<trkpt lat="44.520271" lon="33.989311">
<ele>434.777588</ele>
<time>2011-10-11T10:49:53Z</time>
<desc>lat.=44.520271, lon.=33.989311, Alt.=434.777588m. Speed=5.112000m/h.</desc>
<speed>1.420000</speed>
</trkpt>
<trkpt lat="44.520302" lon="33.989338">
<ele>435.152588</ele>
<time>2011-10-11T10:49:58Z</time>
<desc>lat.=44.520302, lon.=33.989338, Alt.=435.152588m. Speed=5.508000m/h.</desc>
<speed>1.530000</speed>
</trkpt>
<trkpt lat="44.520340" lon="33.989395">
<ele>435.410400</ele>
<time>2011-10-11T10:50:03Z</time>
<desc>lat.=44.520340, lon.=33.989395, Alt.=435.410400m. Speed=2.952000m/h.</desc>
<speed>0.820000</speed>
</trkpt>
<trkpt lat="44.520386" lon="33.989449">
<ele>435.316650</ele>
<time>2011-10-11T10:50:08Z</time>
<desc>lat.=44.520386, lon.=33.989449, Alt.=435.316650m. Speed=4.644000m/h.</desc>
<speed>1.290000</speed>
</trkpt>
<trkpt lat="44.520416" lon="33.989456">
<ele>435.222900</ele>
<time>2011-10-11T10:50:13Z</time>
<desc>lat.=44.520416, lon.=33.989456, Alt.=435.222900m. Speed=1.044000m/h.</desc>
<speed>0.290000</speed>
</trkpt>
<trkpt lat="44.520443" lon="33.989491">
<ele>439.363525</ele>
<time>2011-10-11T10:50:18Z</time>
<desc>lat.=44.520443, lon.=33.989491, Alt.=439.363525m. Speed=3.924000m/h.</desc>
<speed>1.090000</speed>
</trkpt>
<trkpt lat="44.520454" lon="33.989548">
<ele>441.902588</ele>
<time>2011-10-11T10:50:23Z</time>
<desc>lat.=44.520454, lon.=33.989548, Alt.=441.902588m. Speed=4.464000m/h.</desc>
<speed>1.240000</speed>
</trkpt>
<trkpt lat="44.520447" lon="33.989632">
<ele>442.840088</ele>
<time>2011-10-11T10:50:28Z</time>
<desc>lat.=44.520447, lon.=33.989632, Alt.=442.840088m. Speed=3.852000m/h.</desc>
<speed>1.070000</speed>
</trkpt>
<trkpt lat="44.520447" lon="33.989697">
<ele>444.871338</ele>
<time>2011-10-11T10:50:33Z</time>
<desc>lat.=44.520447, lon.=33.989697, Alt.=444.871338m. Speed=3.528000m/h.</desc>
<speed>0.980000</speed>
</trkpt>
<trkpt lat="44.520447" lon="33.989761">
<ele>445.519775</ele>
<time>2011-10-11T10:50:38Z</time>
<desc>lat.=44.520447, lon.=33.989761, Alt.=445.519775m. Speed=1.620000m/h.</desc>
<speed>0.450000</speed>
</trkpt>
<trkpt lat="44.520458" lon="33.989796">
<ele>447.097900</ele>
<time>2011-10-11T10:50:43Z</time>
<desc>lat.=44.520458, lon.=33.989796, Alt.=447.097900m. Speed=1.584000m/h.</desc>
<speed>0.440000</speed>
</trkpt>
<trkpt lat="44.520477" lon="33.989857">
<ele>449.152588</ele>
<time>2011-10-11T10:50:48Z</time>
<desc>lat.=44.520477, lon.=33.989857, Alt.=449.152588m. Speed=2.700000m/h.</desc>
<speed>0.750000</speed>
</trkpt>
<trkpt lat="44.520493" lon="33.989902">
<ele>448.590088</ele>
<time>2011-10-11T10:50:53Z</time>
<desc>lat.=44.520493, lon.=33.989902, Alt.=448.590088m. Speed=4.788000m/h.</desc>
<speed>1.330000</speed>
</trkpt>
<trkpt lat="44.520504" lon="33.989948">
<ele>448.988525</ele>
<time>2011-10-11T10:50:58Z</time>
<desc>lat.=44.520504, lon.=33.989948, Alt.=448.988525m. Speed=2.988000m/h.</desc>
<speed>0.830000</speed>
</trkpt>
<trkpt lat="44.520481" lon="33.989986">
<ele>450.941650</ele>
<time>2011-10-11T10:51:03Z</time>
<desc>lat.=44.520481, lon.=33.989986, Alt.=450.941650m. Speed=3.312000m/h.</desc>
<speed>0.920000</speed>
</trkpt>
<trkpt lat="44.520477" lon="33.990044">
<ele>451.996338</ele>
<time>2011-10-11T10:51:08Z</time>
<desc>lat.=44.520477, lon.=33.990044, Alt.=451.996338m. Speed=3.276000m/h.</desc>
<speed>0.910000</speed>
</trkpt>
<trkpt lat="44.520500" lon="33.990089">
<ele>452.590088</ele>
<time>2011-10-11T10:51:13Z</time>
<desc>lat.=44.520500, lon.=33.990089, Alt.=452.590088m. Speed=1.080000m/h.</desc>
<speed>0.300000</speed>
</trkpt>
<trkpt lat="44.520546" lon="33.990158">
<ele>452.269775</ele>
<time>2011-10-11T10:51:18Z</time>
<desc>lat.=44.520546, lon.=33.990158, Alt.=452.269775m. Speed=3.744000m/h.</desc>
<speed>1.040000</speed>
</trkpt>
<trkpt lat="44.520588" lon="33.990208">
<ele>452.004150</ele>
<time>2011-10-11T10:51:23Z</time>
<desc>lat.=44.520588, lon.=33.990208, Alt.=452.004150m. Speed=3.276000m/h.</desc>
<speed>0.910000</speed>
</trkpt>
<trkpt lat="44.520611" lon="33.990276">
<ele>452.199463</ele>
<time>2011-10-11T10:51:28Z</time>
<desc>lat.=44.520611, lon.=33.990276, Alt.=452.199463m. Speed=3.744000m/h.</desc>
<speed>1.040000</speed>
</trkpt>
<trkpt lat="44.520607" lon="33.990341">
<ele>452.363525</ele>
<time>2011-10-11T10:51:33Z</time>
<desc>lat.=44.520607, lon.=33.990341, Alt.=452.363525m. Speed=3.708000m/h.</desc>
<speed>1.030000</speed>
</trkpt>
<trkpt lat="44.520588" lon="33.990406">
<ele>452.332275</ele>
<time>2011-10-11T10:51:38Z</time>
<desc>lat.=44.520588, lon.=33.990406, Alt.=452.332275m. Speed=1.692000m/h.</desc>
<speed>0.470000</speed>
</trkpt>
<trkpt lat="44.520584" lon="33.990402">
<ele>452.738525</ele>
<time>2011-10-11T10:51:43Z</time>
<desc>lat.=44.520584, lon.=33.990402, Alt.=452.738525m. Speed=1.044000m/h.</desc>
<speed>0.290000</speed>
</trkpt>
<trkpt lat="44.520592" lon="33.990452">
<ele>453.371338</ele>
<time>2011-10-11T10:51:48Z</time>
<desc>lat.=44.520592, lon.=33.990452, Alt.=453.371338m. Speed=4.896000m/h.</desc>
<speed>1.360000</speed>
</trkpt>
<trkpt lat="44.520596" lon="33.990509">
<ele>454.269775</ele>
<time>2011-10-11T10:51:53Z</time>
<desc>lat.=44.520596, lon.=33.990509, Alt.=454.269775m. Speed=3.996000m/h.</desc>
<speed>1.110000</speed>
</trkpt>
<trkpt lat="44.520603" lon="33.990570">
<ele>456.660400</ele>
<time>2011-10-11T10:51:58Z</time>
<desc>lat.=44.520603, lon.=33.990570, Alt.=456.660400m. Speed=2.952000m/h.</desc>
<speed>0.820000</speed>
</trkpt>
<trkpt lat="44.520596" lon="33.990635">
<ele>457.926025</ele>
<time>2011-10-11T10:52:03Z</time>
<desc>lat.=44.520596, lon.=33.990635, Alt.=457.926025m. Speed=4.212000m/h.</desc>
<speed>1.170000</speed>
</trkpt>
<trkpt lat="44.520557" lon="33.990669">
<ele>459.808838</ele>
<time>2011-10-11T10:52:08Z</time>
<desc>lat.=44.520557, lon.=33.990669, Alt.=459.808838m. Speed=3.600000m/h.</desc>
<speed>1.000000</speed>
</trkpt>
<trkpt lat="44.520512" lon="33.990700">
<ele>462.082275</ele>
<time>2011-10-11T10:52:13Z</time>
<desc>lat.=44.520512, lon.=33.990700, Alt.=462.082275m. Speed=3.888000m/h.</desc>
<speed>1.080000</speed>
</trkpt>
<trkpt lat="44.520504" lon="33.990765">
<ele>462.496338</ele>
<time>2011-10-11T10:52:18Z</time>
<desc>lat.=44.520504, lon.=33.990765, Alt.=462.496338m. Speed=4.644000m/h.</desc>
<speed>1.290000</speed>
</trkpt>
<trkpt lat="44.520508" lon="33.990837">
<ele>462.832275</ele>
<time>2011-10-11T10:52:23Z</time>
<desc>lat.=44.520508, lon.=33.990837, Alt.=462.832275m. Speed=4.284000m/h.</desc>
<speed>1.190000</speed>
</trkpt>
<trkpt lat="44.520527" lon="33.990898">
<ele>463.433838</ele>
<time>2011-10-11T10:52:28Z</time>
<desc>lat.=44.520527, lon.=33.990898, Alt.=463.433838m. Speed=3.564000m/h.</desc>
<speed>0.990000</speed>
</trkpt>
<trkpt lat="44.520557" lon="33.990952">
<ele>464.285400</ele>
<time>2011-10-11T10:52:33Z</time>
<desc>lat.=44.520557, lon.=33.990952, Alt.=464.285400m. Speed=5.112000m/h.</desc>
<speed>1.420000</speed>
</trkpt>
<trkpt lat="44.520576" lon="33.991005">
<ele>465.332275</ele>
<time>2011-10-11T10:52:38Z</time>
<desc>lat.=44.520576, lon.=33.991005, Alt.=465.332275m. Speed=2.880000m/h.</desc>
<speed>0.800000</speed>
</trkpt>
<trkpt lat="44.520573" lon="33.991062">
<ele>466.215088</ele>
<time>2011-10-11T10:52:43Z</time>
<desc>lat.=44.520573, lon.=33.991062, Alt.=466.215088m. Speed=2.556000m/h.</desc>
<speed>0.710000</speed>
</trkpt>
<trkpt lat="44.520576" lon="33.991104">
<ele>467.238525</ele>
<time>2011-10-11T10:52:48Z</time>
<desc>lat.=44.520576, lon.=33.991104, Alt.=467.238525m. Speed=3.204000m/h.</desc>
<speed>0.890000</speed>
</trkpt>
<trkpt lat="44.520584" lon="33.991142">
<ele>468.410400</ele>
<time>2011-10-11T10:52:53Z</time>
<desc>lat.=44.520584, lon.=33.991142, Alt.=468.410400m. Speed=2.268000m/h.</desc>
<speed>0.630000</speed>
</trkpt>
<trkpt lat="44.520584" lon="33.991150">
<ele>469.551025</ele>
<time>2011-10-11T10:52:58Z</time>
<desc>lat.=44.520584, lon.=33.991150, Alt.=469.551025m. Speed=0.072000m/h.</desc>
<speed>0.020000</speed>
</trkpt>
<trkpt lat="44.520592" lon="33.991161">
<ele>470.004150</ele>
<time>2011-10-11T10:53:03Z</time>
<desc>lat.=44.520592, lon.=33.991161, Alt.=470.004150m. Speed=0.144000m/h.</desc>
<speed>0.040000</speed>
</trkpt>
<trkpt lat="44.520588" lon="33.991177">
<ele>470.449463</ele>
<time>2011-10-11T10:53:08Z</time>
<desc>lat.=44.520588, lon.=33.991177, Alt.=470.449463m. Speed=0.036000m/h.</desc>
<speed>0.010000</speed>
</trkpt>
<trkpt lat="44.520592" lon="33.991180">
<ele>470.215088</ele>
<time>2011-10-11T10:53:13Z</time>
<desc>lat.=44.520592, lon.=33.991180, Alt.=470.215088m. Speed=0.000000m/h.</desc>
<speed>0.000000</speed>
</trkpt>
<trkpt lat="44.520592" lon="33.991180">
<ele>470.230713</ele>
<time>2011-10-11T10:53:18Z</time>
<desc>lat.=44.520592, lon.=33.991180, Alt.=470.230713m. Speed=0.036000m/h.</desc>
<speed>0.010000</speed>
</trkpt>
<trkpt lat="44.520592" lon="33.991180">
<ele>470.207275</ele>
<time>2011-10-11T10:53:23Z</time>
<desc>lat.=44.520592, lon.=33.991180, Alt.=470.207275m. Speed=0.000000m/h.</desc>
<speed>0.000000</speed>
</trkpt>
<trkpt lat="44.520592" lon="33.991180">
<ele>470.222900</ele>
<time>2011-10-11T10:53:28Z</time>
<desc>lat.=44.520592, lon.=33.991180, Alt.=470.222900m. Speed=0.000000m/h.</desc>
<speed>0.000000</speed>
</trkpt>
<trkpt lat="44.520596" lon="33.991180">
<ele>470.449463</ele>
<time>2011-10-11T10:53:33Z</time>
<desc>lat.=44.520596, lon.=33.991180, Alt.=470.449463m. Speed=1.116000m/h.</desc>
<speed>0.310000</speed>
</trkpt>
<trkpt lat="44.520588" lon="33.991169">
<ele>471.183838</ele>
<time>2011-10-11T10:53:38Z</time>
<desc>lat.=44.520588, lon.=33.991169, Alt.=471.183838m. Speed=1.188000m/h.</desc>
<speed>0.330000</speed>
</trkpt>
<trkpt lat="44.520584" lon="33.991150">
<ele>471.801025</ele>
<time>2011-10-11T10:53:43Z</time>
<desc>lat.=44.520584, lon.=33.991150, Alt.=471.801025m. Speed=1.908000m/h.</desc>
<speed>0.530000</speed>
</trkpt>
<trkpt lat="44.520573" lon="33.991131">
<ele>472.285400</ele>
<time>2011-10-11T10:53:48Z</time>
<desc>lat.=44.520573, lon.=33.991131, Alt.=472.285400m. Speed=0.108000m/h.</desc>
<speed>0.030000</speed>
</trkpt>
<trkpt lat="44.520573" lon="33.991135">
<ele>472.629150</ele>
<time>2011-10-11T10:53:53Z</time>
<desc>lat.=44.520573, lon.=33.991135, Alt.=472.629150m. Speed=0.036000m/h.</desc>
<speed>0.010000</speed>
</trkpt>
<trkpt lat="44.520569" lon="33.991123">
<ele>472.543213</ele>
<time>2011-10-11T10:53:58Z</time>
<desc>lat.=44.520569, lon.=33.991123, Alt.=472.543213m. Speed=1.332000m/h.</desc>
<speed>0.370000</speed>
</trkpt>
<trkpt lat="44.520569" lon="33.991146">
<ele>472.168213</ele>
<time>2011-10-11T10:54:03Z</time>
<desc>lat.=44.520569, lon.=33.991146, Alt.=472.168213m. Speed=0.180000m/h.</desc>
<speed>0.050000</speed>
</trkpt>
<trkpt lat="44.520569" lon="33.991146">
<ele>472.129150</ele>
<time>2011-10-11T10:54:08Z</time>
<desc>lat.=44.520569, lon.=33.991146, Alt.=472.129150m. Speed=0.540000m/h.</desc>
<speed>0.150000</speed>
</trkpt>
<trkpt lat="44.520573" lon="33.991180">
<ele>472.683838</ele>
<time>2011-10-11T10:54:13Z</time>
<desc>lat.=44.520573, lon.=33.991180, Alt.=472.683838m. Speed=3.384000m/h.</desc>
<speed>0.940000</speed>
</trkpt>
<trkpt lat="44.520584" lon="33.991230">
<ele>473.793213</ele>
<time>2011-10-11T10:54:18Z</time>
<desc>lat.=44.520584, lon.=33.991230, Alt.=473.793213m. Speed=3.528000m/h.</desc>
<speed>0.980000</speed>
</trkpt>
<trkpt lat="44.520573" lon="33.991287">
<ele>475.285400</ele>
<time>2011-10-11T10:54:23Z</time>
<desc>lat.=44.520573, lon.=33.991287, Alt.=475.285400m. Speed=3.240000m/h.</desc>
<speed>0.900000</speed>
</trkpt>
<trkpt lat="44.520557" lon="33.991337">
<ele>476.816650</ele>
<time>2011-10-11T10:54:28Z</time>
<desc>lat.=44.520557, lon.=33.991337, Alt.=476.816650m. Speed=2.988000m/h.</desc>
<speed>0.830000</speed>
</trkpt>
<trkpt lat="44.520569" lon="33.991379">
<ele>477.379150</ele>
<time>2011-10-11T10:54:33Z</time>
<desc>lat.=44.520569, lon.=33.991379, Alt.=477.379150m. Speed=2.412000m/h.</desc>
<speed>0.670000</speed>
</trkpt>
<trkpt lat="44.520576" lon="33.991421">
<ele>478.449463</ele>
<time>2011-10-11T10:54:38Z</time>
<desc>lat.=44.520576, lon.=33.991421, Alt.=478.449463m. Speed=2.736000m/h.</desc>
<speed>0.760000</speed>
</trkpt>
<trkpt lat="44.520584" lon="33.991459">
<ele>480.183838</ele>
<time>2011-10-11T10:54:43Z</time>
<desc>lat.=44.520584, lon.=33.991459, Alt.=480.183838m. Speed=2.916000m/h.</desc>
<speed>0.810000</speed>
</trkpt>
<trkpt lat="44.520599" lon="33.991474">
<ele>481.847900</ele>
<time>2011-10-11T10:54:48Z</time>
<desc>lat.=44.520599, lon.=33.991474, Alt.=481.847900m. Speed=3.132000m/h.</desc>
<speed>0.870000</speed>
</trkpt>
<trkpt lat="44.520618" lon="33.991486">
<ele>483.504150</ele>
<time>2011-10-11T10:54:53Z</time>
<desc>lat.=44.520618, lon.=33.991486, Alt.=483.504150m. Speed=1.008000m/h.</desc>
<speed>0.280000</speed>
</trkpt>
<trkpt lat="44.520638" lon="33.991508">
<ele>483.590088</ele>
<time>2011-10-11T10:54:58Z</time>
<desc>lat.=44.520638, lon.=33.991508, Alt.=483.590088m. Speed=2.628000m/h.</desc>
<speed>0.730000</speed>
</trkpt>
<trkpt lat="44.520672" lon="33.991535">
<ele>484.699463</ele>
<time>2011-10-11T10:55:03Z</time>
<desc>lat.=44.520672, lon.=33.991535, Alt.=484.699463m. Speed=2.232000m/h.</desc>
<speed>0.620000</speed>
</trkpt>
<trkpt lat="44.520683" lon="33.991573">
<ele>485.691650</ele>
<time>2011-10-11T10:55:08Z</time>
<desc>lat.=44.520683, lon.=33.991573, Alt.=485.691650m. Speed=2.484000m/h.</desc>
<speed>0.690000</speed>
</trkpt>
<trkpt lat="44.520706" lon="33.991604">
<ele>487.246338</ele>
<time>2011-10-11T10:55:13Z</time>
<desc>lat.=44.520706, lon.=33.991604, Alt.=487.246338m. Speed=1.188000m/h.</desc>
<speed>0.330000</speed>
</trkpt>
<trkpt lat="44.520741" lon="33.991638">
<ele>487.058838</ele>
<time>2011-10-11T10:55:18Z</time>
<desc>lat.=44.520741, lon.=33.991638, Alt.=487.058838m. Speed=1.404000m/h.</desc>
<speed>0.390000</speed>
</trkpt>
<trkpt lat="44.520763" lon="33.991669">
<ele>486.301025</ele>
<time>2011-10-11T10:55:23Z</time>
<desc>lat.=44.520763, lon.=33.991669, Alt.=486.301025m. Speed=3.060000m/h.</desc>
<speed>0.850000</speed>
</trkpt>
<trkpt lat="44.520771" lon="33.991734">
<ele>486.980713</ele>
<time>2011-10-11T10:55:28Z</time>
<desc>lat.=44.520771, lon.=33.991734, Alt.=486.980713m. Speed=3.096000m/h.</desc>
<speed>0.860000</speed>
</trkpt>
<trkpt lat="44.520782" lon="33.991787">
<ele>486.918213</ele>
<time>2011-10-11T10:55:33Z</time>
<desc>lat.=44.520782, lon.=33.991787, Alt.=486.918213m. Speed=3.312000m/h.</desc>
<speed>0.920000</speed>
</trkpt>
<trkpt lat="44.520786" lon="33.991848">
<ele>487.472900</ele>
<time>2011-10-11T10:55:38Z</time>
<desc>lat.=44.520786, lon.=33.991848, Alt.=487.472900m. Speed=2.844000m/h.</desc>
<speed>0.790000</speed>
</trkpt>
<trkpt lat="44.520794" lon="33.991890">
<ele>489.496338</ele>
<time>2011-10-11T10:55:43Z</time>
<desc>lat.=44.520794, lon.=33.991890, Alt.=489.496338m. Speed=3.024000m/h.</desc>
<speed>0.840000</speed>
</trkpt>
<trkpt lat="44.520809" lon="33.991951">
<ele>490.511963</ele>
<time>2011-10-11T10:55:48Z</time>
<desc>lat.=44.520809, lon.=33.991951, Alt.=490.511963m. Speed=2.700000m/h.</desc>
<speed>0.750000</speed>
</trkpt>
<trkpt lat="44.520824" lon="33.991993">
<ele>489.433838</ele>
<time>2011-10-11T10:55:53Z</time>
<desc>lat.=44.520824, lon.=33.991993, Alt.=489.433838m. Speed=2.880000m/h.</desc>
<speed>0.800000</speed>
</trkpt>
<trkpt lat="44.520832" lon="33.992039">
<ele>489.246338</ele>
<time>2011-10-11T10:55:58Z</time>
<desc>lat.=44.520832, lon.=33.992039, Alt.=489.246338m. Speed=3.672000m/h.</desc>
<speed>1.020000</speed>
</trkpt>
<trkpt lat="44.520844" lon="33.992100">
<ele>489.152588</ele>
<time>2011-10-11T10:56:03Z</time>
<desc>lat.=44.520844, lon.=33.992100, Alt.=489.152588m. Speed=2.628000m/h.</desc>
<speed>0.730000</speed>
</trkpt>
<trkpt lat="44.520851" lon="33.992165">
<ele>489.644775</ele>
<time>2011-10-11T10:56:08Z</time>
<desc>lat.=44.520851, lon.=33.992165, Alt.=489.644775m. Speed=2.808000m/h.</desc>
<speed>0.780000</speed>
</trkpt>
<trkpt lat="44.520847" lon="33.992199">
<ele>490.894775</ele>
<time>2011-10-11T10:56:13Z</time>
<desc>lat.=44.520847, lon.=33.992199, Alt.=490.894775m. Speed=0.756000m/h.</desc>
<speed>0.210000</speed>
</trkpt>
<trkpt lat="44.520836" lon="33.992237">
<ele>491.621338</ele>
<time>2011-10-11T10:56:18Z</time>
<desc>lat.=44.520836, lon.=33.992237, Alt.=491.621338m. Speed=2.268000m/h.</desc>
<speed>0.630000</speed>
</trkpt>
<trkpt lat="44.520836" lon="33.992245">
<ele>491.207275</ele>
<time>2011-10-11T10:56:23Z</time>
<desc>lat.=44.520836, lon.=33.992245, Alt.=491.207275m. Speed=1.188000m/h.</desc>
<speed>0.330000</speed>
</trkpt>
<trkpt lat="44.520836" lon="33.992249">
<ele>491.582275</ele>
<time>2011-10-11T10:56:28Z</time>
<desc>lat.=44.520836, lon.=33.992249, Alt.=491.582275m. Speed=0.720000m/h.</desc>
<speed>0.200000</speed>
</trkpt>
<trkpt lat="44.520836" lon="33.992252">
<ele>491.027588</ele>
<time>2011-10-11T10:56:33Z</time>
<desc>lat.=44.520836, lon.=33.992252, Alt.=491.027588m. Speed=0.180000m/h.</desc>
<speed>0.050000</speed>
</trkpt>
<trkpt lat="44.520840" lon="33.992249">
<ele>490.941650</ele>
<time>2011-10-11T10:56:38Z</time>
<desc>lat.=44.520840, lon.=33.992249, Alt.=490.941650m. Speed=0.000000m/h.</desc>
<speed>0.000000</speed>
</trkpt>
<trkpt lat="44.520836" lon="33.992249">
<ele>491.027588</ele>
<time>2011-10-11T10:56:43Z</time>
<desc>lat.=44.520836, lon.=33.992249, Alt.=491.027588m. Speed=0.792000m/h.</desc>
<speed>0.220000</speed>
</trkpt>
<trkpt lat="44.520805" lon="33.992237">
<ele>490.347900</ele>
<time>2011-10-11T10:56:48Z</time>
<desc>lat.=44.520805, lon.=33.992237, Alt.=490.347900m. Speed=0.828000m/h.</desc>
<speed>0.230000</speed>
</trkpt>
<trkpt lat="44.520809" lon="33.992245">
<ele>490.910400</ele>
<time>2011-10-11T10:56:53Z</time>
<desc>lat.=44.520809, lon.=33.992245, Alt.=490.910400m. Speed=0.396000m/h.</desc>
<speed>0.110000</speed>
</trkpt>
<trkpt lat="44.520813" lon="33.992245">
<ele>491.136963</ele>
<time>2011-10-11T10:56:58Z</time>
<desc>lat.=44.520813, lon.=33.992245, Alt.=491.136963m. Speed=0.036000m/h.</desc>
<speed>0.010000</speed>
</trkpt>
<trkpt lat="44.520813" lon="33.992245">
<ele>491.199463</ele>
<time>2011-10-11T10:57:03Z</time>
<desc>lat.=44.520813, lon.=33.992245, Alt.=491.199463m. Speed=0.000000m/h.</desc>
<speed>0.000000</speed>
</trkpt>
<trkpt lat="44.520813" lon="33.992245">
<ele>491.238525</ele>
<time>2011-10-11T10:57:08Z</time>
<desc>lat.=44.520813, lon.=33.992245, Alt.=491.238525m. Speed=0.036000m/h.</desc>
<speed>0.010000</speed>
</trkpt>
<trkpt lat="44.520813" lon="33.992241">
<ele>491.269775</ele>
<time>2011-10-11T10:57:13Z</time>
<desc>lat.=44.520813, lon.=33.992241, Alt.=491.269775m. Speed=2.376000m/h.</desc>
<speed>0.660000</speed>
</trkpt>
<trkpt lat="44.520760" lon="33.992256">
<ele>492.582275</ele>
<time>2011-10-11T10:57:18Z</time>
<desc>lat.=44.520760, lon.=33.992256, Alt.=492.582275m. Speed=2.772000m/h.</desc>
<speed>0.770000</speed>
</trkpt>
<trkpt lat="44.520702" lon="33.992275">
<ele>492.426025</ele>
<time>2011-10-11T10:57:23Z</time>
<desc>lat.=44.520702, lon.=33.992275, Alt.=492.426025m. Speed=4.032000m/h.</desc>
<speed>1.120000</speed>
</trkpt>
<trkpt lat="44.520653" lon="33.992310">
<ele>494.011963</ele>
<time>2011-10-11T10:57:28Z</time>
<desc>lat.=44.520653, lon.=33.992310, Alt.=494.011963m. Speed=3.816000m/h.</desc>
<speed>1.060000</speed>
</trkpt>
<trkpt lat="44.520611" lon="33.992352">
<ele>494.472900</ele>
<time>2011-10-11T10:57:33Z</time>
<desc>lat.=44.520611, lon.=33.992352, Alt.=494.472900m. Speed=4.500000m/h.</desc>
<speed>1.250000</speed>
</trkpt>
<trkpt lat="44.520573" lon="33.992371">
<ele>494.761963</ele>
<time>2011-10-11T10:57:38Z</time>
<desc>lat.=44.520573, lon.=33.992371, Alt.=494.761963m. Speed=1.980000m/h.</desc>
<speed>0.550000</speed>
</trkpt>
<trkpt lat="44.520550" lon="33.992378">
<ele>495.746338</ele>
<time>2011-10-11T10:57:43Z</time>
<desc>lat.=44.520550, lon.=33.992378, Alt.=495.746338m. Speed=4.248000m/h.</desc>
<speed>1.180000</speed>
</trkpt>
<trkpt lat="44.520496" lon="33.992401">
<ele>495.957275</ele>
<time>2011-10-11T10:57:48Z</time>
<desc>lat.=44.520496, lon.=33.992401, Alt.=495.957275m. Speed=3.672000m/h.</desc>
<speed>1.020000</speed>
</trkpt>
<trkpt lat="44.520443" lon="33.992447">
<ele>495.988525</ele>
<time>2011-10-11T10:57:53Z</time>
<desc>lat.=44.520443, lon.=33.992447, Alt.=495.988525m. Speed=4.788000m/h.</desc>
<speed>1.330000</speed>
</trkpt>
<trkpt lat="44.520393" lon="33.992493">
<ele>495.480713</ele>
<time>2011-10-11T10:57:58Z</time>
<desc>lat.=44.520393, lon.=33.992493, Alt.=495.480713m. Speed=4.680000m/h.</desc>
<speed>1.300000</speed>
</trkpt>
<trkpt lat="44.520344" lon="33.992538">
<ele>495.832275</ele>
<time>2011-10-11T10:58:03Z</time>
<desc>lat.=44.520344, lon.=33.992538, Alt.=495.832275m. Speed=4.716000m/h.</desc>
<speed>1.310000</speed>
</trkpt>
<trkpt lat="44.520302" lon="33.992592">
<ele>496.472900</ele>
<time>2011-10-11T10:58:08Z</time>
<desc>lat.=44.520302, lon.=33.992592, Alt.=496.472900m. Speed=4.248000m/h.</desc>
<speed>1.180000</speed>
</trkpt>
<trkpt lat="44.520267" lon="33.992649">
<ele>496.527588</ele>
<time>2011-10-11T10:58:13Z</time>
<desc>lat.=44.520267, lon.=33.992649, Alt.=496.527588m. Speed=4.320000m/h.</desc>
<speed>1.200000</speed>
</trkpt>
<trkpt lat="44.520233" lon="33.992699">
<ele>497.277588</ele>
<time>2011-10-11T10:58:18Z</time>
<desc>lat.=44.520233, lon.=33.992699, Alt.=497.277588m. Speed=4.104000m/h.</desc>
<speed>1.140000</speed>
</trkpt>
<trkpt lat="44.520199" lon="33.992756">
<ele>498.136963</ele>
<time>2011-10-11T10:58:23Z</time>
<desc>lat.=44.520199, lon.=33.992756, Alt.=498.136963m. Speed=4.428000m/h.</desc>
<speed>1.230000</speed>
</trkpt>
<trkpt lat="44.520180" lon="33.992821">
<ele>498.191650</ele>
<time>2011-10-11T10:58:28Z</time>
<desc>lat.=44.520180, lon.=33.992821, Alt.=498.191650m. Speed=4.536000m/h.</desc>
<speed>1.260000</speed>
</trkpt>
<trkpt lat="44.520157" lon="33.992886">
<ele>498.504150</ele>
<time>2011-10-11T10:58:33Z</time>
<desc>lat.=44.520157, lon.=33.992886, Alt.=498.504150m. Speed=3.996000m/h.</desc>
<speed>1.110000</speed>
</trkpt>
<trkpt lat="44.520149" lon="33.992966">
<ele>499.160400</ele>
<time>2011-10-11T10:58:38Z</time>
<desc>lat.=44.520149, lon.=33.992966, Alt.=499.160400m. Speed=3.996000m/h.</desc>
<speed>1.110000</speed>
</trkpt>
<trkpt lat="44.520134" lon="33.993034">
<ele>499.433838</ele>
<time>2011-10-11T10:58:43Z</time>
<desc>lat.=44.520134, lon.=33.993034, Alt.=499.433838m. Speed=4.716000m/h.</desc>
<speed>1.310000</speed>
</trkpt>
<trkpt lat="44.520134" lon="33.993111">
<ele>499.433838</ele>
<time>2011-10-11T10:58:48Z</time>
<desc>lat.=44.520134, lon.=33.993111, Alt.=499.433838m. Speed=4.320000m/h.</desc>
<speed>1.200000</speed>
</trkpt>
<trkpt lat="44.520138" lon="33.993179">
<ele>499.449463</ele>
<time>2011-10-11T10:58:53Z</time>
<desc>lat.=44.520138, lon.=33.993179, Alt.=499.449463m. Speed=3.636000m/h.</desc>
<speed>1.010000</speed>
</trkpt>
<trkpt lat="44.520142" lon="33.993237">
<ele>498.972900</ele>
<time>2011-10-11T10:58:58Z</time>
<desc>lat.=44.520142, lon.=33.993237, Alt.=498.972900m. Speed=4.104000m/h.</desc>
<speed>1.140000</speed>
</trkpt>
<trkpt lat="44.520149" lon="33.993309">
<ele>498.441650</ele>
<time>2011-10-11T10:59:03Z</time>
<desc>lat.=44.520149, lon.=33.993309, Alt.=498.441650m. Speed=4.284000m/h.</desc>
<speed>1.190000</speed>
</trkpt>
<trkpt lat="44.520153" lon="33.993374">
<ele>498.551025</ele>
<time>2011-10-11T10:59:08Z</time>
<desc>lat.=44.520153, lon.=33.993374, Alt.=498.551025m. Speed=3.852000m/h.</desc>
<speed>1.070000</speed>
</trkpt>
<trkpt lat="44.520157" lon="33.993446">
<ele>498.707275</ele>
<time>2011-10-11T10:59:13Z</time>
<desc>lat.=44.520157, lon.=33.993446, Alt.=498.707275m. Speed=4.464000m/h.</desc>
<speed>1.240000</speed>
</trkpt>
<trkpt lat="44.520164" lon="33.993530">
<ele>499.504150</ele>
<time>2011-10-11T10:59:18Z</time>
<desc>lat.=44.520164, lon.=33.993530, Alt.=499.504150m. Speed=4.896000m/h.</desc>
<speed>1.360000</speed>
</trkpt>
<trkpt lat="44.520168" lon="33.993614">
<ele>499.363525</ele>
<time>2011-10-11T10:59:23Z</time>
<desc>lat.=44.520168, lon.=33.993614, Alt.=499.363525m. Speed=4.500000m/h.</desc>
<speed>1.250000</speed>
</trkpt>
<trkpt lat="44.520172" lon="33.993690">
<ele>499.261963</ele>
<time>2011-10-11T10:59:28Z</time>
<desc>lat.=44.520172, lon.=33.993690, Alt.=499.261963m. Speed=4.860000m/h.</desc>
<speed>1.350000</speed>
</trkpt>
<trkpt lat="44.520172" lon="33.993771">
<ele>499.543213</ele>
<time>2011-10-11T10:59:33Z</time>
<desc>lat.=44.520172, lon.=33.993771, Alt.=499.543213m. Speed=4.860000m/h.</desc>
<speed>1.350000</speed>
</trkpt>
<trkpt lat="44.520180" lon="33.993851">
<ele>499.926025</ele>
<time>2011-10-11T10:59:38Z</time>
<desc>lat.=44.520180, lon.=33.993851, Alt.=499.926025m. Speed=4.572000m/h.</desc>
<speed>1.270000</speed>
</trkpt>
<trkpt lat="44.520180" lon="33.993938">
<ele>499.965088</ele>
<time>2011-10-11T10:59:43Z</time>
<desc>lat.=44.520180, lon.=33.993938, Alt.=499.965088m. Speed=4.824000m/h.</desc>
<speed>1.340000</speed>
</trkpt>
<trkpt lat="44.520172" lon="33.994022">
<ele>498.254150</ele>
<time>2011-10-11T10:59:48Z</time>
<desc>lat.=44.520172, lon.=33.994022, Alt.=498.254150m. Speed=5.148000m/h.</desc>
<speed>1.430000</speed>
</trkpt>
<trkpt lat="44.520164" lon="33.994114">
<ele>496.816650</ele>
<time>2011-10-11T10:59:53Z</time>
<desc>lat.=44.520164, lon.=33.994114, Alt.=496.816650m. Speed=5.364000m/h.</desc>
<speed>1.490000</speed>
</trkpt>
<trkpt lat="44.520149" lon="33.994202">
<ele>496.691650</ele>
<time>2011-10-11T10:59:58Z</time>
<desc>lat.=44.520149, lon.=33.994202, Alt.=496.691650m. Speed=4.356000m/h.</desc>
<speed>1.210000</speed>
</trkpt>
<trkpt lat="44.520134" lon="33.994278">
<ele>497.754150</ele>
<time>2011-10-11T11:00:03Z</time>
<desc>lat.=44.520134, lon.=33.994278, Alt.=497.754150m. Speed=4.464000m/h.</desc>
<speed>1.240000</speed>
</trkpt>
<trkpt lat="44.520103" lon="33.994358">
<ele>497.910400</ele>
<time>2011-10-11T11:00:08Z</time>
<desc>lat.=44.520103, lon.=33.994358, Alt.=497.910400m. Speed=4.824000m/h.</desc>
<speed>1.340000</speed>
</trkpt>
<trkpt lat="44.520065" lon="33.994434">
<ele>498.894775</ele>
<time>2011-10-11T11:00:13Z</time>
<desc>lat.=44.520065, lon.=33.994434, Alt.=498.894775m. Speed=4.608000m/h.</desc>
<speed>1.280000</speed>
</trkpt>
<trkpt lat="44.520031" lon="33.994503">
<ele>499.152588</ele>
<time>2011-10-11T11:00:18Z</time>
<desc>lat.=44.520031, lon.=33.994503, Alt.=499.152588m. Speed=4.428000m/h.</desc>
<speed>1.230000</speed>
</trkpt>
<trkpt lat="44.519993" lon="33.994564">
<ele>498.644775</ele>
<time>2011-10-11T11:00:23Z</time>
<desc>lat.=44.519993, lon.=33.994564, Alt.=498.644775m. Speed=5.076000m/h.</desc>
<speed>1.410000</speed>
</trkpt>
<trkpt lat="44.519966" lon="33.994644">
<ele>498.113525</ele>
<time>2011-10-11T11:00:28Z</time>
<desc>lat.=44.519966, lon.=33.994644, Alt.=498.113525m. Speed=4.716000m/h.</desc>
<speed>1.310000</speed>
</trkpt>
<trkpt lat="44.519943" lon="33.994728">
<ele>498.176025</ele>
<time>2011-10-11T11:00:33Z</time>
<desc>lat.=44.519943, lon.=33.994728, Alt.=498.176025m. Speed=5.076000m/h.</desc>
<speed>1.410000</speed>
</trkpt>
<trkpt lat="44.519943" lon="33.994801">
<ele>498.636963</ele>
<time>2011-10-11T11:00:38Z</time>
<desc>lat.=44.519943, lon.=33.994801, Alt.=498.636963m. Speed=5.040000m/h.</desc>
<speed>1.400000</speed>
</trkpt>
<trkpt lat="44.519958" lon="33.994896">
<ele>500.355713</ele>
<time>2011-10-11T11:00:43Z</time>
<desc>lat.=44.519958, lon.=33.994896, Alt.=500.355713m. Speed=4.860000m/h.</desc>
<speed>1.350000</speed>
</trkpt>
<trkpt lat="44.519955" lon="33.994968">
<ele>501.551025</ele>
<time>2011-10-11T11:00:48Z</time>
<desc>lat.=44.519955, lon.=33.994968, Alt.=501.551025m. Speed=5.112000m/h.</desc>
<speed>1.420000</speed>
</trkpt>
<trkpt lat="44.519943" lon="33.995052">
<ele>502.676025</ele>
<time>2011-10-11T11:00:53Z</time>
<desc>lat.=44.519943, lon.=33.995052, Alt.=502.676025m. Speed=3.384000m/h.</desc>
<speed>0.940000</speed>
</trkpt>
<trkpt lat="44.519924" lon="33.995113">
<ele>503.027588</ele>
<time>2011-10-11T11:00:58Z</time>
<desc>lat.=44.519924, lon.=33.995113, Alt.=503.027588m. Speed=4.896000m/h.</desc>
<speed>1.360000</speed>
</trkpt>
<trkpt lat="44.519890" lon="33.995190">
<ele>503.551025</ele>
<time>2011-10-11T11:01:03Z</time>
<desc>lat.=44.519890, lon.=33.995190, Alt.=503.551025m. Speed=4.572000m/h.</desc>
<speed>1.270000</speed>
</trkpt>
<trkpt lat="44.519875" lon="33.995270">
<ele>503.402588</ele>
<time>2011-10-11T11:01:08Z</time>
<desc>lat.=44.519875, lon.=33.995270, Alt.=503.402588m. Speed=4.896000m/h.</desc>
<speed>1.360000</speed>
</trkpt>
<trkpt lat="44.519867" lon="33.995350">
<ele>502.832275</ele>
<time>2011-10-11T11:01:13Z</time>
<desc>lat.=44.519867, lon.=33.995350, Alt.=502.832275m. Speed=5.184000m/h.</desc>
<speed>1.440000</speed>
</trkpt>
<trkpt lat="44.519863" lon="33.995434">
<ele>502.574463</ele>
<time>2011-10-11T11:01:18Z</time>
<desc>lat.=44.519863, lon.=33.995434, Alt.=502.574463m. Speed=4.860000m/h.</desc>
<speed>1.350000</speed>
</trkpt>
<trkpt lat="44.519871" lon="33.995518">
<ele>502.433838</ele>
<time>2011-10-11T11:01:23Z</time>
<desc>lat.=44.519871, lon.=33.995518, Alt.=502.433838m. Speed=4.824000m/h.</desc>
<speed>1.340000</speed>
</trkpt>
<trkpt lat="44.519894" lon="33.995586">
<ele>503.730713</ele>
<time>2011-10-11T11:01:28Z</time>
<desc>lat.=44.519894, lon.=33.995586, Alt.=503.730713m. Speed=4.284000m/h.</desc>
<speed>1.190000</speed>
</trkpt>
<trkpt lat="44.519897" lon="33.995655">
<ele>504.207275</ele>
<time>2011-10-11T11:01:33Z</time>
<desc>lat.=44.519897, lon.=33.995655, Alt.=504.207275m. Speed=3.456000m/h.</desc>
<speed>0.960000</speed>
</trkpt>
<trkpt lat="44.519890" lon="33.995701">
<ele>504.527588</ele>
<time>2011-10-11T11:01:38Z</time>
<desc>lat.=44.519890, lon.=33.995701, Alt.=504.527588m. Speed=1.404000m/h.</desc>
<speed>0.390000</speed>
</trkpt>
<trkpt lat="44.519890" lon="33.995708">
<ele>503.527588</ele>
<time>2011-10-11T11:01:43Z</time>
<desc>lat.=44.519890, lon.=33.995708, Alt.=503.527588m. Speed=0.072000m/h.</desc>
<speed>0.020000</speed>
</trkpt>
<trkpt lat="44.519890" lon="33.995708">
<ele>503.472900</ele>
<time>2011-10-11T11:01:48Z</time>
<desc>lat.=44.519890, lon.=33.995708, Alt.=503.472900m. Speed=0.648000m/h.</desc>
<speed>0.180000</speed>
</trkpt>
<trkpt lat="44.519894" lon="33.995720">
<ele>503.527588</ele>
<time>2011-10-11T11:01:53Z</time>
<desc>lat.=44.519894, lon.=33.995720, Alt.=503.527588m. Speed=3.492000m/h.</desc>
<speed>0.970000</speed>
</trkpt>
<trkpt lat="44.519894" lon="33.995796">
<ele>503.347900</ele>
<time>2011-10-11T11:01:58Z</time>
<desc>lat.=44.519894, lon.=33.995796, Alt.=503.347900m. Speed=4.428000m/h.</desc>
<speed>1.230000</speed>
</trkpt>
<trkpt lat="44.519894" lon="33.995876">
<ele>503.379150</ele>
<time>2011-10-11T11:02:03Z</time>
<desc>lat.=44.519894, lon.=33.995876, Alt.=503.379150m. Speed=3.708000m/h.</desc>
<speed>1.030000</speed>
</trkpt>
<trkpt lat="44.519909" lon="33.995953">
<ele>505.152588</ele>
<time>2011-10-11T11:02:08Z</time>
<desc>lat.=44.519909, lon.=33.995953, Alt.=505.152588m. Speed=4.320000m/h.</desc>
<speed>1.200000</speed>
</trkpt>
<trkpt lat="44.519897" lon="33.996025">
<ele>505.801025</ele>
<time>2011-10-11T11:02:13Z</time>
<desc>lat.=44.519897, lon.=33.996025, Alt.=505.801025m. Speed=4.680000m/h.</desc>
<speed>1.300000</speed>
</trkpt>
<trkpt lat="44.519897" lon="33.996109">
<ele>505.636963</ele>
<time>2011-10-11T11:02:18Z</time>
<desc>lat.=44.519897, lon.=33.996109, Alt.=505.636963m. Speed=4.608000m/h.</desc>
<speed>1.280000</speed>
</trkpt>
<trkpt lat="44.519894" lon="33.996201">
<ele>505.043213</ele>
<time>2011-10-11T11:02:23Z</time>
<desc>lat.=44.519894, lon.=33.996201, Alt.=505.043213m. Speed=6.156000m/h.</desc>
<speed>1.710000</speed>
</trkpt>
<trkpt lat="44.519886" lon="33.996292">
<ele>503.558838</ele>
<time>2011-10-11T11:02:28Z</time>
<desc>lat.=44.519886, lon.=33.996292, Alt.=503.558838m. Speed=4.356000m/h.</desc>
<speed>1.210000</speed>
</trkpt>
<trkpt lat="44.519894" lon="33.996361">
<ele>503.504150</ele>
<time>2011-10-11T11:02:33Z</time>
<desc>lat.=44.519894, lon.=33.996361, Alt.=503.504150m. Speed=3.348000m/h.</desc>
<speed>0.930000</speed>
</trkpt>
<trkpt lat="44.519913" lon="33.996433">
<ele>502.183838</ele>
<time>2011-10-11T11:02:38Z</time>
<desc>lat.=44.519913, lon.=33.996433, Alt.=502.183838m. Speed=4.824000m/h.</desc>
<speed>1.340000</speed>
</trkpt>
<trkpt lat="44.519939" lon="33.996506">
<ele>501.097900</ele>
<time>2011-10-11T11:02:43Z</time>
<desc>lat.=44.519939, lon.=33.996506, Alt.=501.097900m. Speed=5.040000m/h.</desc>
<speed>1.400000</speed>
</trkpt>
<trkpt lat="44.519970" lon="33.996559">
<ele>500.863525</ele>
<time>2011-10-11T11:02:48Z</time>
<desc>lat.=44.519970, lon.=33.996559, Alt.=500.863525m. Speed=3.168000m/h.</desc>
<speed>0.880000</speed>
</trkpt>
<trkpt lat="44.520000" lon="33.996609">
<ele>501.105713</ele>
<time>2011-10-11T11:02:53Z</time>
<desc>lat.=44.520000, lon.=33.996609, Alt.=501.105713m. Speed=3.600000m/h.</desc>
<speed>1.000000</speed>
</trkpt>
<trkpt lat="44.520027" lon="33.996613">
<ele>500.972900</ele>
<time>2011-10-11T11:02:58Z</time>
<desc>lat.=44.520027, lon.=33.996613, Alt.=500.972900m. Speed=3.888000m/h.</desc>
<speed>1.080000</speed>
</trkpt>
<trkpt lat="44.520061" lon="33.996651">
<ele>500.324463</ele>
<time>2011-10-11T11:03:03Z</time>
<desc>lat.=44.520061, lon.=33.996651, Alt.=500.324463m. Speed=4.104000m/h.</desc>
<speed>1.140000</speed>
</trkpt>
<trkpt lat="44.520103" lon="33.996670">
<ele>500.418213</ele>
<time>2011-10-11T11:03:08Z</time>
<desc>lat.=44.520103, lon.=33.996670, Alt.=500.418213m. Speed=2.664000m/h.</desc>
<speed>0.740000</speed>
</trkpt>
<trkpt lat="44.520107" lon="33.996666">
<ele>501.113525</ele>
<time>2011-10-11T11:03:13Z</time>
<desc>lat.=44.520107, lon.=33.996666, Alt.=501.113525m. Speed=0.720000m/h.</desc>
<speed>0.200000</speed>
</trkpt>
<trkpt lat="44.520107" lon="33.996685">
<ele>500.394775</ele>
<time>2011-10-11T11:03:18Z</time>
<desc>lat.=44.520107, lon.=33.996685, Alt.=500.394775m. Speed=1.656000m/h.</desc>
<speed>0.460000</speed>
</trkpt>
<trkpt lat="44.520123" lon="33.996704">
<ele>499.816650</ele>
<time>2011-10-11T11:03:23Z</time>
<desc>lat.=44.520123, lon.=33.996704, Alt.=499.816650m. Speed=2.232000m/h.</desc>
<speed>0.620000</speed>
</trkpt>
<trkpt lat="44.520134" lon="33.996731">
<ele>498.980713</ele>
<time>2011-10-11T11:03:28Z</time>
<desc>lat.=44.520134, lon.=33.996731, Alt.=498.980713m. Speed=0.468000m/h.</desc>
<speed>0.130000</speed>
</trkpt>
<trkpt lat="44.520145" lon="33.996746">
<ele>498.527588</ele>
<time>2011-10-11T11:03:33Z</time>
<desc>lat.=44.520145, lon.=33.996746, Alt.=498.527588m. Speed=3.204000m/h.</desc>
<speed>0.890000</speed>
</trkpt>
<trkpt lat="44.520180" lon="33.996773">
<ele>498.090088</ele>
<time>2011-10-11T11:03:38Z</time>
<desc>lat.=44.520180, lon.=33.996773, Alt.=498.090088m. Speed=3.456000m/h.</desc>
<speed>0.960000</speed>
</trkpt>
<trkpt lat="44.520210" lon="33.996815">
<ele>496.965088</ele>
<time>2011-10-11T11:03:43Z</time>
<desc>lat.=44.520210, lon.=33.996815, Alt.=496.965088m. Speed=3.312000m/h.</desc>
<speed>0.920000</speed>
</trkpt>
<trkpt lat="44.520241" lon="33.996853">
<ele>496.551025</ele>
<time>2011-10-11T11:03:48Z</time>
<desc>lat.=44.520241, lon.=33.996853, Alt.=496.551025m. Speed=3.204000m/h.</desc>
<speed>0.890000</speed>
</trkpt>
<trkpt lat="44.520264" lon="33.996895">
<ele>496.308838</ele>
<time>2011-10-11T11:03:53Z</time>
<desc>lat.=44.520264, lon.=33.996895, Alt.=496.308838m. Speed=3.456000m/h.</desc>
<speed>0.960000</speed>
</trkpt>
<trkpt lat="44.520283" lon="33.996937">
<ele>496.558838</ele>
<time>2011-10-11T11:03:58Z</time>
<desc>lat.=44.520283, lon.=33.996937, Alt.=496.558838m. Speed=2.952000m/h.</desc>
<speed>0.820000</speed>
</trkpt>
<trkpt lat="44.520321" lon="33.996975">
<ele>495.660400</ele>
<time>2011-10-11T11:04:03Z</time>
<desc>lat.=44.520321, lon.=33.996975, Alt.=495.660400m. Speed=3.456000m/h.</desc>
<speed>0.960000</speed>
</trkpt>
<trkpt lat="44.520363" lon="33.997009">
<ele>495.543213</ele>
<time>2011-10-11T11:04:08Z</time>
<desc>lat.=44.520363, lon.=33.997009, Alt.=495.543213m. Speed=3.672000m/h.</desc>
<speed>1.020000</speed>
</trkpt>
<trkpt lat="44.520416" lon="33.997028">
<ele>494.855713</ele>
<time>2011-10-11T11:04:13Z</time>
<desc>lat.=44.520416, lon.=33.997028, Alt.=494.855713m. Speed=4.284000m/h.</desc>
<speed>1.190000</speed>
</trkpt>
<trkpt lat="44.520470" lon="33.997044">
<ele>493.293213</ele>
<time>2011-10-11T11:04:18Z</time>
<desc>lat.=44.520470, lon.=33.997044, Alt.=493.293213m. Speed=4.680000m/h.</desc>
<speed>1.300000</speed>
</trkpt>
<trkpt lat="44.520515" lon="33.997066">
<ele>493.597900</ele>
<time>2011-10-11T11:04:23Z</time>
<desc>lat.=44.520515, lon.=33.997066, Alt.=493.597900m. Speed=3.636000m/h.</desc>
<speed>1.010000</speed>
</trkpt>
<trkpt lat="44.520565" lon="33.997105">
<ele>493.480713</ele>
<time>2011-10-11T11:04:28Z</time>
<desc>lat.=44.520565, lon.=33.997105, Alt.=493.480713m. Speed=5.040000m/h.</desc>
<speed>1.400000</speed>
</trkpt>
<trkpt lat="44.520618" lon="33.997120">
<ele>493.808838</ele>
<time>2011-10-11T11:04:33Z</time>
<desc>lat.=44.520618, lon.=33.997120, Alt.=493.808838m. Speed=5.004000m/h.</desc>
<speed>1.390000</speed>
</trkpt>
<trkpt lat="44.520679" lon="33.997150">
<ele>493.472900</ele>
<time>2011-10-11T11:04:38Z</time>
<desc>lat.=44.520679, lon.=33.997150, Alt.=493.472900m. Speed=5.364000m/h.</desc>
<speed>1.490000</speed>
</trkpt>
<trkpt lat="44.520737" lon="33.997177">
<ele>493.097900</ele>
<time>2011-10-11T11:04:43Z</time>
<desc>lat.=44.520737, lon.=33.997177, Alt.=493.097900m. Speed=4.392000m/h.</desc>
<speed>1.220000</speed>
</trkpt>
<trkpt lat="44.520779" lon="33.997215">
<ele>491.793213</ele>
<time>2011-10-11T11:04:48Z</time>
<desc>lat.=44.520779, lon.=33.997215, Alt.=491.793213m. Speed=3.600000m/h.</desc>
<speed>1.000000</speed>
</trkpt>
<trkpt lat="44.520817" lon="33.997265">
<ele>490.355713</ele>
<time>2011-10-11T11:04:53Z</time>
<desc>lat.=44.520817, lon.=33.997265, Alt.=490.355713m. Speed=2.952000m/h.</desc>
<speed>0.820000</speed>
</trkpt>
<trkpt lat="44.520844" lon="33.997311">
<ele>488.847900</ele>
<time>2011-10-11T11:04:58Z</time>
<desc>lat.=44.520844, lon.=33.997311, Alt.=488.847900m. Speed=1.944000m/h.</desc>
<speed>0.540000</speed>
</trkpt>
<trkpt lat="44.520859" lon="33.997368">
<ele>488.621338</ele>
<time>2011-10-11T11:05:03Z</time>
<desc>lat.=44.520859, lon.=33.997368, Alt.=488.621338m. Speed=0.576000m/h.</desc>
<speed>0.160000</speed>
</trkpt>
<trkpt lat="44.520859" lon="33.997375">
<ele>488.902588</ele>
<time>2011-10-11T11:05:08Z</time>
<desc>lat.=44.520859, lon.=33.997375, Alt.=488.902588m. Speed=0.756000m/h.</desc>
<speed>0.210000</speed>
</trkpt>
<trkpt lat="44.520863" lon="33.997372">
<ele>488.918213</ele>
<time>2011-10-11T11:05:13Z</time>
<desc>lat.=44.520863, lon.=33.997372, Alt.=488.918213m. Speed=0.180000m/h.</desc>
<speed>0.050000</speed>
</trkpt>
<trkpt lat="44.520859" lon="33.997379">
<ele>489.097900</ele>
<time>2011-10-11T11:05:18Z</time>
<desc>lat.=44.520859, lon.=33.997379, Alt.=489.097900m. Speed=1.800000m/h.</desc>
<speed>0.500000</speed>
</trkpt>
<trkpt lat="44.520859" lon="33.997414">
<ele>489.261963</ele>
<time>2011-10-11T11:05:23Z</time>
<desc>lat.=44.520859, lon.=33.997414, Alt.=489.261963m. Speed=2.772000m/h.</desc>
<speed>0.770000</speed>
</trkpt>
<trkpt lat="44.520855" lon="33.997429">
<ele>489.504150</ele>
<time>2011-10-11T11:05:28Z</time>
<desc>lat.=44.520855, lon.=33.997429, Alt.=489.504150m. Speed=1.152000m/h.</desc>
<speed>0.320000</speed>
</trkpt>
<trkpt lat="44.520836" lon="33.997448">
<ele>488.941650</ele>
<time>2011-10-11T11:05:33Z</time>
<desc>lat.=44.520836, lon.=33.997448, Alt.=488.941650m. Speed=2.088000m/h.</desc>
<speed>0.580000</speed>
</trkpt>
<trkpt lat="44.520832" lon="33.997478">
<ele>489.090088</ele>
<time>2011-10-11T11:05:38Z</time>
<desc>lat.=44.520832, lon.=33.997478, Alt.=489.090088m. Speed=2.268000m/h.</desc>
<speed>0.630000</speed>
</trkpt>
<trkpt lat="44.520809" lon="33.997513">
<ele>489.144775</ele>
<time>2011-10-11T11:05:43Z</time>
<desc>lat.=44.520809, lon.=33.997513, Alt.=489.144775m. Speed=3.492000m/h.</desc>
<speed>0.970000</speed>
</trkpt>
<trkpt lat="44.520763" lon="33.997528">
<ele>488.426025</ele>
<time>2011-10-11T11:05:48Z</time>
<desc>lat.=44.520763, lon.=33.997528, Alt.=488.426025m. Speed=4.392000m/h.</desc>
<speed>1.220000</speed>
</trkpt>
<trkpt lat="44.520752" lon="33.997608">
<ele>487.371338</ele>
<time>2011-10-11T11:05:53Z</time>
<desc>lat.=44.520752, lon.=33.997608, Alt.=487.371338m. Speed=2.484000m/h.</desc>
<speed>0.690000</speed>
</trkpt>
<trkpt lat="44.520741" lon="33.997684">
<ele>486.379150</ele>
<time>2011-10-11T11:05:58Z</time>
<desc>lat.=44.520741, lon.=33.997684, Alt.=486.379150m. Speed=3.564000m/h.</desc>
<speed>0.990000</speed>
</trkpt>
<trkpt lat="44.520737" lon="33.997711">
<ele>487.066650</ele>
<time>2011-10-11T11:06:03Z</time>
<desc>lat.=44.520737, lon.=33.997711, Alt.=487.066650m. Speed=0.036000m/h.</desc>
<speed>0.010000</speed>
</trkpt>
<trkpt lat="44.520733" lon="33.997734">
<ele>486.629150</ele>
<time>2011-10-11T11:06:08Z</time>
<desc>lat.=44.520733, lon.=33.997734, Alt.=486.629150m. Speed=3.816000m/h.</desc>
<speed>1.060000</speed>
</trkpt>
<trkpt lat="44.520737" lon="33.997761">
<ele>487.285400</ele>
<time>2011-10-11T11:06:13Z</time>
<desc>lat.=44.520737, lon.=33.997761, Alt.=487.285400m. Speed=0.576000m/h.</desc>
<speed>0.160000</speed>
</trkpt>
<trkpt lat="44.520737" lon="33.997761">
<ele>487.457275</ele>
<time>2011-10-11T11:06:18Z</time>
<desc>lat.=44.520737, lon.=33.997761, Alt.=487.457275m. Speed=1.116000m/h.</desc>
<speed>0.310000</speed>
</trkpt>
<trkpt lat="44.520721" lon="33.997784">
<ele>486.340088</ele>
<time>2011-10-11T11:06:23Z</time>
<desc>lat.=44.520721, lon.=33.997784, Alt.=486.340088m. Speed=0.540000m/h.</desc>
<speed>0.150000</speed>
</trkpt>
<trkpt lat="44.520710" lon="33.997772">
<ele>485.511963</ele>
<time>2011-10-11T11:06:28Z</time>
<desc>lat.=44.520710, lon.=33.997772, Alt.=485.511963m. Speed=1.908000m/h.</desc>
<speed>0.530000</speed>
</trkpt>
<trkpt lat="44.520668" lon="33.997768">
<ele>485.183838</ele>
<time>2011-10-11T11:06:33Z</time>
<desc>lat.=44.520668, lon.=33.997768, Alt.=485.183838m. Speed=4.752000m/h.</desc>
<speed>1.320000</speed>
</trkpt>
<trkpt lat="44.520626" lon="33.997746">
<ele>486.105713</ele>
<time>2011-10-11T11:06:38Z</time>
<desc>lat.=44.520626, lon.=33.997746, Alt.=486.105713m. Speed=3.564000m/h.</desc>
<speed>0.990000</speed>
</trkpt>
<trkpt lat="44.520607" lon="33.997696">
<ele>485.613525</ele>
<time>2011-10-11T11:06:43Z</time>
<desc>lat.=44.520607, lon.=33.997696, Alt.=485.613525m. Speed=2.880000m/h.</desc>
<speed>0.800000</speed>
</trkpt>
<trkpt lat="44.520596" lon="33.997669">
<ele>485.160400</ele>
<time>2011-10-11T11:06:48Z</time>
<desc>lat.=44.520596, lon.=33.997669, Alt.=485.160400m. Speed=1.404000m/h.</desc>
<speed>0.390000</speed>
</trkpt>
<trkpt lat="44.520584" lon="33.997665">
<ele>483.972900</ele>
<time>2011-10-11T11:06:53Z</time>
<desc>lat.=44.520584, lon.=33.997665, Alt.=483.972900m. Speed=0.396000m/h.</desc>
<speed>0.110000</speed>
</trkpt>
<trkpt lat="44.520607" lon="33.997700">
<ele>483.496338</ele>
<time>2011-10-11T11:06:58Z</time>
<desc>lat.=44.520607, lon.=33.997700, Alt.=483.496338m. Speed=4.500000m/h.</desc>
<speed>1.250000</speed>
</trkpt>
<trkpt lat="44.520634" lon="33.997742">
<ele>482.910400</ele>
<time>2011-10-11T11:07:03Z</time>
<desc>lat.=44.520634, lon.=33.997742, Alt.=482.910400m. Speed=2.880000m/h.</desc>
<speed>0.800000</speed>
</trkpt>
<trkpt lat="44.520638" lon="33.997784">
<ele>481.465088</ele>
<time>2011-10-11T11:07:08Z</time>
<desc>lat.=44.520638, lon.=33.997784, Alt.=481.465088m. Speed=1.620000m/h.</desc>
<speed>0.450000</speed>
</trkpt>
<trkpt lat="44.520634" lon="33.997784">
<ele>480.566650</ele>
<time>2011-10-11T11:07:13Z</time>
<desc>lat.=44.520634, lon.=33.997784, Alt.=480.566650m. Speed=0.396000m/h.</desc>
<speed>0.110000</speed>
</trkpt>
<trkpt lat="44.520641" lon="33.997784">
<ele>480.004150</ele>
<time>2011-10-11T11:07:18Z</time>
<desc>lat.=44.520641, lon.=33.997784, Alt.=480.004150m. Speed=0.972000m/h.</desc>
<speed>0.270000</speed>
</trkpt>
<trkpt lat="44.520672" lon="33.997803">
<ele>480.433838</ele>
<time>2011-10-11T11:07:23Z</time>
<desc>lat.=44.520672, lon.=33.997803, Alt.=480.433838m. Speed=3.708000m/h.</desc>
<speed>1.030000</speed>
</trkpt>
<trkpt lat="44.520687" lon="33.997841">
<ele>480.574463</ele>
<time>2011-10-11T11:07:28Z</time>
<desc>lat.=44.520687, lon.=33.997841, Alt.=480.574463m. Speed=6.588000m/h.</desc>
<speed>1.830000</speed>
</trkpt>
<trkpt lat="44.520699" lon="33.997883">
<ele>481.769775</ele>
<time>2011-10-11T11:07:33Z</time>
<desc>lat.=44.520699, lon.=33.997883, Alt.=481.769775m. Speed=4.032000m/h.</desc>
<speed>1.120000</speed>
</trkpt>
<trkpt lat="44.520729" lon="33.997952">
<ele>482.340088</ele>
<time>2011-10-11T11:07:38Z</time>
<desc>lat.=44.520729, lon.=33.997952, Alt.=482.340088m. Speed=5.292000m/h.</desc>
<speed>1.470000</speed>
</trkpt>
<trkpt lat="44.520737" lon="33.998028">
<ele>482.386963</ele>
<time>2011-10-11T11:07:43Z</time>
<desc>lat.=44.520737, lon.=33.998028, Alt.=482.386963m. Speed=3.852000m/h.</desc>
<speed>1.070000</speed>
</trkpt>
<trkpt lat="44.520744" lon="33.998066">
<ele>482.410400</ele>
<time>2011-10-11T11:07:48Z</time>
<desc>lat.=44.520744, lon.=33.998066, Alt.=482.410400m. Speed=1.368000m/h.</desc>
<speed>0.380000</speed>
</trkpt>
<trkpt lat="44.520748" lon="33.998093">
<ele>480.582275</ele>
<time>2011-10-11T11:07:53Z</time>
<desc>lat.=44.520748, lon.=33.998093, Alt.=480.582275m. Speed=3.924000m/h.</desc>
<speed>1.090000</speed>
</trkpt>
<trkpt lat="44.520767" lon="33.998131">
<ele>479.840088</ele>
<time>2011-10-11T11:07:58Z</time>
<desc>lat.=44.520767, lon.=33.998131, Alt.=479.840088m. Speed=2.844000m/h.</desc>
<speed>0.790000</speed>
</trkpt>
<trkpt lat="44.520779" lon="33.998192">
<ele>479.816650</ele>
<time>2011-10-11T11:08:03Z</time>
<desc>lat.=44.520779, lon.=33.998192, Alt.=479.816650m. Speed=1.656000m/h.</desc>
<speed>0.460000</speed>
</trkpt>
<trkpt lat="44.520782" lon="33.998196">
<ele>480.199463</ele>
<time>2011-10-11T11:08:08Z</time>
<desc>lat.=44.520782, lon.=33.998196, Alt.=480.199463m. Speed=0.144000m/h.</desc>
<speed>0.040000</speed>
</trkpt>
<trkpt lat="44.520782" lon="33.998196">
<ele>479.761963</ele>
<time>2011-10-11T11:08:13Z</time>
<desc>lat.=44.520782, lon.=33.998196, Alt.=479.761963m. Speed=0.072000m/h.</desc>
<speed>0.020000</speed>
</trkpt>
<trkpt lat="44.520786" lon="33.998215">
<ele>479.129150</ele>
<time>2011-10-11T11:08:18Z</time>
<desc>lat.=44.520786, lon.=33.998215, Alt.=479.129150m. Speed=5.184000m/h.</desc>
<speed>1.440000</speed>
</trkpt>
<trkpt lat="44.520809" lon="33.998272">
<ele>479.535400</ele>
<time>2011-10-11T11:08:23Z</time>
<desc>lat.=44.520809, lon.=33.998272, Alt.=479.535400m. Speed=2.844000m/h.</desc>
<speed>0.790000</speed>
</trkpt>
<trkpt lat="44.520840" lon="33.998295">
<ele>481.051025</ele>
<time>2011-10-11T11:08:28Z</time>
<desc>lat.=44.520840, lon.=33.998295, Alt.=481.051025m. Speed=2.520000m/h.</desc>
<speed>0.700000</speed>
</trkpt>
<trkpt lat="44.520851" lon="33.998356">
<ele>483.410400</ele>
<time>2011-10-11T11:08:33Z</time>
<desc>lat.=44.520851, lon.=33.998356, Alt.=483.410400m. Speed=4.032000m/h.</desc>
<speed>1.120000</speed>
</trkpt>
<trkpt lat="44.520882" lon="33.998409">
<ele>485.472900</ele>
<time>2011-10-11T11:08:38Z</time>
<desc>lat.=44.520882, lon.=33.998409, Alt.=485.472900m. Speed=4.104000m/h.</desc>
<speed>1.140000</speed>
</trkpt>
<trkpt lat="44.520905" lon="33.998466">
<ele>485.465088</ele>
<time>2011-10-11T11:08:43Z</time>
<desc>lat.=44.520905, lon.=33.998466, Alt.=485.465088m. Speed=3.312000m/h.</desc>
<speed>0.920000</speed>
</trkpt>
<trkpt lat="44.520927" lon="33.998528">
<ele>487.144775</ele>
<time>2011-10-11T11:08:48Z</time>
<desc>lat.=44.520927, lon.=33.998528, Alt.=487.144775m. Speed=4.932000m/h.</desc>
<speed>1.370000</speed>
</trkpt>
<trkpt lat="44.520947" lon="33.998558">
<ele>488.715088</ele>
<time>2011-10-11T11:08:53Z</time>
<desc>lat.=44.520947, lon.=33.998558, Alt.=488.715088m. Speed=1.008000m/h.</desc>
<speed>0.280000</speed>
</trkpt>
<trkpt lat="44.520962" lon="33.998589">
<ele>489.590088</ele>
<time>2011-10-11T11:08:58Z</time>
<desc>lat.=44.520962, lon.=33.998589, Alt.=489.590088m. Speed=4.968000m/h.</desc>
<speed>1.380000</speed>
</trkpt>
<trkpt lat="44.520992" lon="33.998657">
<ele>491.066650</ele>
<time>2011-10-11T11:09:03Z</time>
<desc>lat.=44.520992, lon.=33.998657, Alt.=491.066650m. Speed=4.716000m/h.</desc>
<speed>1.310000</speed>
</trkpt>
<trkpt lat="44.521027" lon="33.998737">
<ele>492.582275</ele>
<time>2011-10-11T11:09:08Z</time>
<desc>lat.=44.521027, lon.=33.998737, Alt.=492.582275m. Speed=4.896000m/h.</desc>
<speed>1.360000</speed>
</trkpt>
<trkpt lat="44.521072" lon="33.998814">
<ele>493.668213</ele>
<time>2011-10-11T11:09:13Z</time>
<desc>lat.=44.521072, lon.=33.998814, Alt.=493.668213m. Speed=5.688000m/h.</desc>
<speed>1.580000</speed>
</trkpt>
<trkpt lat="44.521107" lon="33.998890">
<ele>493.894775</ele>
<time>2011-10-11T11:09:18Z</time>
<desc>lat.=44.521107, lon.=33.998890, Alt.=493.894775m. Speed=2.088000m/h.</desc>
<speed>0.580000</speed>
</trkpt>
<trkpt lat="44.521114" lon="33.998943">
<ele>494.379150</ele>
<time>2011-10-11T11:09:23Z</time>
<desc>lat.=44.521114, lon.=33.998943, Alt.=494.379150m. Speed=4.392000m/h.</desc>
<speed>1.220000</speed>
</trkpt>
<trkpt lat="44.521141" lon="33.999027">
<ele>494.418213</ele>
<time>2011-10-11T11:09:28Z</time>
<desc>lat.=44.521141, lon.=33.999027, Alt.=494.418213m. Speed=4.680000m/h.</desc>
<speed>1.300000</speed>
</trkpt>
<trkpt lat="44.521172" lon="33.999100">
<ele>495.019775</ele>
<time>2011-10-11T11:09:33Z</time>
<desc>lat.=44.521172, lon.=33.999100, Alt.=495.019775m. Speed=5.724000m/h.</desc>
<speed>1.590000</speed>
</trkpt>
<trkpt lat="44.521206" lon="33.999187">
<ele>495.027588</ele>
<time>2011-10-11T11:09:38Z</time>
<desc>lat.=44.521206, lon.=33.999187, Alt.=495.027588m. Speed=5.184000m/h.</desc>
<speed>1.440000</speed>
</trkpt>
<trkpt lat="44.521221" lon="33.999283">
<ele>495.324463</ele>
<time>2011-10-11T11:09:43Z</time>
<desc>lat.=44.521221, lon.=33.999283, Alt.=495.324463m. Speed=5.544000m/h.</desc>
<speed>1.540000</speed>
</trkpt>
<trkpt lat="44.521236" lon="33.999363">
<ele>493.504150</ele>
<time>2011-10-11T11:09:48Z</time>
<desc>lat.=44.521236, lon.=33.999363, Alt.=493.504150m. Speed=4.248000m/h.</desc>
<speed>1.180000</speed>
</trkpt>
<trkpt lat="44.521248" lon="33.999435">
<ele>494.457275</ele>
<time>2011-10-11T11:09:53Z</time>
<desc>lat.=44.521248, lon.=33.999435, Alt.=494.457275m. Speed=4.068000m/h.</desc>
<speed>1.130000</speed>
</trkpt>
<trkpt lat="44.521275" lon="33.999500">
<ele>493.957275</ele>
<time>2011-10-11T11:09:58Z</time>
<desc>lat.=44.521275, lon.=33.999500, Alt.=493.957275m. Speed=2.808000m/h.</desc>
<speed>0.780000</speed>
</trkpt>
<trkpt lat="44.521294" lon="33.999531">
<ele>493.527588</ele>
<time>2011-10-11T11:10:03Z</time>
<desc>lat.=44.521294, lon.=33.999531, Alt.=493.527588m. Speed=0.792000m/h.</desc>
<speed>0.220000</speed>
</trkpt>
<trkpt lat="44.521282" lon="33.999588">
<ele>493.558838</ele>
<time>2011-10-11T11:10:08Z</time>
<desc>lat.=44.521282, lon.=33.999588, Alt.=493.558838m. Speed=4.680000m/h.</desc>
<speed>1.300000</speed>
</trkpt>
<trkpt lat="44.521301" lon="33.999672">
<ele>493.121338</ele>
<time>2011-10-11T11:10:13Z</time>
<desc>lat.=44.521301, lon.=33.999672, Alt.=493.121338m. Speed=5.004000m/h.</desc>
<speed>1.390000</speed>
</trkpt>
<trkpt lat="44.521324" lon="33.999752">
<ele>493.324463</ele>
<time>2011-10-11T11:10:18Z</time>
<desc>lat.=44.521324, lon.=33.999752, Alt.=493.324463m. Speed=4.608000m/h.</desc>
<speed>1.280000</speed>
</trkpt>
<trkpt lat="44.521343" lon="33.999836">
<ele>494.191650</ele>
<time>2011-10-11T11:10:23Z</time>
<desc>lat.=44.521343, lon.=33.999836, Alt.=494.191650m. Speed=4.356000m/h.</desc>
<speed>1.210000</speed>
</trkpt>
<trkpt lat="44.521378" lon="33.999897">
<ele>494.168213</ele>
<time>2011-10-11T11:10:28Z</time>
<desc>lat.=44.521378, lon.=33.999897, Alt.=494.168213m. Speed=4.212000m/h.</desc>
<speed>1.170000</speed>
</trkpt>
<trkpt lat="44.521408" lon="33.999973">
<ele>493.058838</ele>
<time>2011-10-11T11:10:33Z</time>
<desc>lat.=44.521408, lon.=33.999973, Alt.=493.058838m. Speed=3.276000m/h.</desc>
<speed>0.910000</speed>
</trkpt>
<trkpt lat="44.521423" lon="34.000046">
<ele>492.035400</ele>
<time>2011-10-11T11:10:38Z</time>
<desc>lat.=44.521423, lon.=34.000046, Alt.=492.035400m. Speed=4.500000m/h.</desc>
<speed>1.250000</speed>
</trkpt>
<trkpt lat="44.521431" lon="34.000095">
<ele>490.730713</ele>
<time>2011-10-11T11:10:43Z</time>
<desc>lat.=44.521431, lon.=34.000095, Alt.=490.730713m. Speed=2.196000m/h.</desc>
<speed>0.610000</speed>
</trkpt>
<trkpt lat="44.521442" lon="34.000164">
<ele>489.066650</ele>
<time>2011-10-11T11:10:48Z</time>
<desc>lat.=44.521442, lon.=34.000164, Alt.=489.066650m. Speed=2.844000m/h.</desc>
<speed>0.790000</speed>
</trkpt>
<trkpt lat="44.521427" lon="34.000214">
<ele>488.683838</ele>
<time>2011-10-11T11:10:53Z</time>
<desc>lat.=44.521427, lon.=34.000214, Alt.=488.683838m. Speed=0.180000m/h.</desc>
<speed>0.050000</speed>
</trkpt>
<trkpt lat="44.521442" lon="34.000237">
<ele>489.980713</ele>
<time>2011-10-11T11:10:58Z</time>
<desc>lat.=44.521442, lon.=34.000237, Alt.=489.980713m. Speed=2.124000m/h.</desc>
<speed>0.590000</speed>
</trkpt>
<trkpt lat="44.521454" lon="34.000278">
<ele>491.324463</ele>
<time>2011-10-11T11:11:03Z</time>
<desc>lat.=44.521454, lon.=34.000278, Alt.=491.324463m. Speed=2.232000m/h.</desc>
<speed>0.620000</speed>
</trkpt>
<trkpt lat="44.521469" lon="34.000294">
<ele>492.090088</ele>
<time>2011-10-11T11:11:08Z</time>
<desc>lat.=44.521469, lon.=34.000294, Alt.=492.090088m. Speed=0.036000m/h.</desc>
<speed>0.010000</speed>
</trkpt>
<trkpt lat="44.521465" lon="34.000298">
<ele>493.402588</ele>
<time>2011-10-11T11:11:13Z</time>
<desc>lat.=44.521465, lon.=34.000298, Alt.=493.402588m. Speed=0.360000m/h.</desc>
<speed>0.100000</speed>
</trkpt>
<trkpt lat="44.521469" lon="34.000305">
<ele>494.176025</ele>
<time>2011-10-11T11:11:18Z</time>
<desc>lat.=44.521469, lon.=34.000305, Alt.=494.176025m. Speed=0.036000m/h.</desc>
<speed>0.010000</speed>
</trkpt>
<trkpt lat="44.521469" lon="34.000305">
<ele>494.144775</ele>
<time>2011-10-11T11:11:23Z</time>
<desc>lat.=44.521469, lon.=34.000305, Alt.=494.144775m. Speed=0.036000m/h.</desc>
<speed>0.010000</speed>
</trkpt>
<trkpt lat="44.521469" lon="34.000305">
<ele>494.129150</ele>
<time>2011-10-11T11:11:28Z</time>
<desc>lat.=44.521469, lon.=34.000305, Alt.=494.129150m. Speed=0.036000m/h.</desc>
<speed>0.010000</speed>
</trkpt>
<trkpt lat="44.521469" lon="34.000301">
<ele>494.113525</ele>
<time>2011-10-11T11:11:33Z</time>
<desc>lat.=44.521469, lon.=34.000301, Alt.=494.113525m. Speed=0.360000m/h.</desc>
<speed>0.100000</speed>
</trkpt>
<trkpt lat="44.521469" lon="34.000298">
<ele>494.113525</ele>
<time>2011-10-11T11:11:38Z</time>
<desc>lat.=44.521469, lon.=34.000298, Alt.=494.113525m. Speed=0.468000m/h.</desc>
<speed>0.130000</speed>
</trkpt>
<trkpt lat="44.521469" lon="34.000301">
<ele>494.191650</ele>
<time>2011-10-11T11:11:43Z</time>
<desc>lat.=44.521469, lon.=34.000301, Alt.=494.191650m. Speed=0.108000m/h.</desc>
<speed>0.030000</speed>
</trkpt>
<trkpt lat="44.521469" lon="34.000301">
<ele>494.301025</ele>
<time>2011-10-11T11:11:48Z</time>
<desc>lat.=44.521469, lon.=34.000301, Alt.=494.301025m. Speed=0.072000m/h.</desc>
<speed>0.020000</speed>
</trkpt>
<trkpt lat="44.521469" lon="34.000301">
<ele>494.293213</ele>
<time>2011-10-11T11:11:53Z</time>
<desc>lat.=44.521469, lon.=34.000301, Alt.=494.293213m. Speed=0.900000m/h.</desc>
<speed>0.250000</speed>
</trkpt>
<trkpt lat="44.521473" lon="34.000298">
<ele>494.418213</ele>
<time>2011-10-11T11:11:58Z</time>
<desc>lat.=44.521473, lon.=34.000298, Alt.=494.418213m. Speed=1.080000m/h.</desc>
<speed>0.300000</speed>
</trkpt>
<trkpt lat="44.521469" lon="34.000320">
<ele>494.207275</ele>
<time>2011-10-11T11:12:03Z</time>
<desc>lat.=44.521469, lon.=34.000320, Alt.=494.207275m. Speed=2.376000m/h.</desc>
<speed>0.660000</speed>
</trkpt>
<trkpt lat="44.521503" lon="34.000370">
<ele>496.011963</ele>
<time>2011-10-11T11:12:08Z</time>
<desc>lat.=44.521503, lon.=34.000370, Alt.=496.011963m. Speed=3.564000m/h.</desc>
<speed>0.990000</speed>
</trkpt>
<trkpt lat="44.521534" lon="34.000420">
<ele>497.566650</ele>
<time>2011-10-11T11:12:13Z</time>
<desc>lat.=44.521534, lon.=34.000420, Alt.=497.566650m. Speed=2.736000m/h.</desc>
<speed>0.760000</speed>
</trkpt>
<trkpt lat="44.521561" lon="34.000454">
<ele>498.144775</ele>
<time>2011-10-11T11:12:18Z</time>
<desc>lat.=44.521561, lon.=34.000454, Alt.=498.144775m. Speed=3.348000m/h.</desc>
<speed>0.930000</speed>
</trkpt>
<trkpt lat="44.521591" lon="34.000538">
<ele>497.386963</ele>
<time>2011-10-11T11:12:23Z</time>
<desc>lat.=44.521591, lon.=34.000538, Alt.=497.386963m. Speed=4.716000m/h.</desc>
<speed>1.310000</speed>
</trkpt>
<trkpt lat="44.521641" lon="34.000587">
<ele>498.301025</ele>
<time>2011-10-11T11:12:28Z</time>
<desc>lat.=44.521641, lon.=34.000587, Alt.=498.301025m. Speed=3.420000m/h.</desc>
<speed>0.950000</speed>
</trkpt>
<trkpt lat="44.521694" lon="34.000599">
<ele>498.558838</ele>
<time>2011-10-11T11:12:33Z</time>
<desc>lat.=44.521694, lon.=34.000599, Alt.=498.558838m. Speed=3.240000m/h.</desc>
<speed>0.900000</speed>
</trkpt>
<trkpt lat="44.521732" lon="34.000603">
<ele>498.363525</ele>
<time>2011-10-11T11:12:38Z</time>
<desc>lat.=44.521732, lon.=34.000603, Alt.=498.363525m. Speed=3.132000m/h.</desc>
<speed>0.870000</speed>
</trkpt>
<trkpt lat="44.521767" lon="34.000614">
<ele>496.715088</ele>
<time>2011-10-11T11:12:43Z</time>
<desc>lat.=44.521767, lon.=34.000614, Alt.=496.715088m. Speed=2.160000m/h.</desc>
<speed>0.600000</speed>
</trkpt>
<trkpt lat="44.521809" lon="34.000633">
<ele>495.636963</ele>
<time>2011-10-11T11:12:48Z</time>
<desc>lat.=44.521809, lon.=34.000633, Alt.=495.636963m. Speed=2.952000m/h.</desc>
<speed>0.820000</speed>
</trkpt>
<trkpt lat="44.521851" lon="34.000637">
<ele>494.590088</ele>
<time>2011-10-11T11:12:53Z</time>
<desc>lat.=44.521851, lon.=34.000637, Alt.=494.590088m. Speed=2.772000m/h.</desc>
<speed>0.770000</speed>
</trkpt>
<trkpt lat="44.521893" lon="34.000626">
<ele>493.035400</ele>
<time>2011-10-11T11:12:58Z</time>
<desc>lat.=44.521893, lon.=34.000626, Alt.=493.035400m. Speed=1.944000m/h.</desc>
<speed>0.540000</speed>
</trkpt>
<trkpt lat="44.521923" lon="34.000614">
<ele>492.379150</ele>
<time>2011-10-11T11:13:03Z</time>
<desc>lat.=44.521923, lon.=34.000614, Alt.=492.379150m. Speed=3.312000m/h.</desc>
<speed>0.920000</speed>
</trkpt>
<trkpt lat="44.521942" lon="34.000622">
<ele>493.504150</ele>
<time>2011-10-11T11:13:08Z</time>
<desc>lat.=44.521942, lon.=34.000622, Alt.=493.504150m. Speed=2.880000m/h.</desc>
<speed>0.800000</speed>
</trkpt>
<trkpt lat="44.521984" lon="34.000633">
<ele>494.918213</ele>
<time>2011-10-11T11:13:13Z</time>
<desc>lat.=44.521984, lon.=34.000633, Alt.=494.918213m. Speed=4.860000m/h.</desc>
<speed>1.350000</speed>
</trkpt>
<trkpt lat="44.522030" lon="34.000622">
<ele>497.371338</ele>
<time>2011-10-11T11:13:18Z</time>
<desc>lat.=44.522030, lon.=34.000622, Alt.=497.371338m. Speed=3.060000m/h.</desc>
<speed>0.850000</speed>
</trkpt>
<trkpt lat="44.522072" lon="34.000610">
<ele>500.269775</ele>
<time>2011-10-11T11:13:23Z</time>
<desc>lat.=44.522072, lon.=34.000610, Alt.=500.269775m. Speed=3.672000m/h.</desc>
<speed>1.020000</speed>
</trkpt>
<trkpt lat="44.522118" lon="34.000622">
<ele>503.090088</ele>
<time>2011-10-11T11:13:28Z</time>
<desc>lat.=44.522118, lon.=34.000622, Alt.=503.090088m. Speed=2.556000m/h.</desc>
<speed>0.710000</speed>
</trkpt>
<trkpt lat="44.522133" lon="34.000626">
<ele>506.199463</ele>
<time>2011-10-11T11:13:33Z</time>
<desc>lat.=44.522133, lon.=34.000626, Alt.=506.199463m. Speed=4.788000m/h.</desc>
<speed>1.330000</speed>
</trkpt>
<trkpt lat="44.522175" lon="34.000664">
<ele>508.949463</ele>
<time>2011-10-11T11:13:38Z</time>
<desc>lat.=44.522175, lon.=34.000664, Alt.=508.949463m. Speed=3.960000m/h.</desc>
<speed>1.100000</speed>
</trkpt>
<trkpt lat="44.522221" lon="34.000694">
<ele>511.168213</ele>
<time>2011-10-11T11:13:43Z</time>
<desc>lat.=44.522221, lon.=34.000694, Alt.=511.168213m. Speed=3.276000m/h.</desc>
<speed>0.910000</speed>
</trkpt>
<trkpt lat="44.522255" lon="34.000683">
<ele>513.492676</ele>
<time>2011-10-11T11:13:48Z</time>
<desc>lat.=44.522255, lon.=34.000683, Alt.=513.492676m. Speed=3.852000m/h.</desc>
<speed>1.070000</speed>
</trkpt>
<trkpt lat="44.522316" lon="34.000751">
<ele>513.523926</ele>
<time>2011-10-11T11:13:53Z</time>
<desc>lat.=44.522316, lon.=34.000751, Alt.=513.523926m. Speed=4.320000m/h.</desc>
<speed>1.200000</speed>
</trkpt>
<trkpt lat="44.522366" lon="34.000824">
<ele>514.383301</ele>
<time>2011-10-11T11:13:58Z</time>
<desc>lat.=44.522366, lon.=34.000824, Alt.=514.383301m. Speed=5.364000m/h.</desc>
<speed>1.490000</speed>
</trkpt>
<trkpt lat="44.522392" lon="34.000889">
<ele>514.805176</ele>
<time>2011-10-11T11:14:03Z</time>
<desc>lat.=44.522392, lon.=34.000889, Alt.=514.805176m. Speed=5.040000m/h.</desc>
<speed>1.400000</speed>
</trkpt>
<trkpt lat="44.522461" lon="34.000919">
<ele>513.023926</ele>
<time>2011-10-11T11:14:08Z</time>
<desc>lat.=44.522461, lon.=34.000919, Alt.=513.023926m. Speed=6.012000m/h.</desc>
<speed>1.670000</speed>
</trkpt>
<trkpt lat="44.522499" lon="34.000942">
<ele>512.305176</ele>
<time>2011-10-11T11:14:13Z</time>
<desc>lat.=44.522499, lon.=34.000942, Alt.=512.305176m. Speed=3.312000m/h.</desc>
<speed>0.920000</speed>
</trkpt>
<trkpt lat="44.522545" lon="34.001015">
<ele>510.379150</ele>
<time>2011-10-11T11:14:18Z</time>
<desc>lat.=44.522545, lon.=34.001015, Alt.=510.379150m. Speed=3.600000m/h.</desc>
<speed>1.000000</speed>
</trkpt>
<trkpt lat="44.522568" lon="34.001068">
<ele>511.629150</ele>
<time>2011-10-11T11:14:23Z</time>
<desc>lat.=44.522568, lon.=34.001068, Alt.=511.629150m. Speed=4.860000m/h.</desc>
<speed>1.350000</speed>
</trkpt>
<trkpt lat="44.522583" lon="34.001125">
<ele>511.480713</ele>
<time>2011-10-11T11:14:28Z</time>
<desc>lat.=44.522583, lon.=34.001125, Alt.=511.480713m. Speed=2.232000m/h.</desc>
<speed>0.620000</speed>
</trkpt>
<trkpt lat="44.522606" lon="34.001160">
<ele>510.316650</ele>
<time>2011-10-11T11:14:33Z</time>
<desc>lat.=44.522606, lon.=34.001160, Alt.=510.316650m. Speed=1.908000m/h.</desc>
<speed>0.530000</speed>
</trkpt>
<trkpt lat="44.522598" lon="34.001205">
<ele>513.148926</ele>
<time>2011-10-11T11:14:38Z</time>
<desc>lat.=44.522598, lon.=34.001205, Alt.=513.148926m. Speed=2.052000m/h.</desc>
<speed>0.570000</speed>
</trkpt>
<trkpt lat="44.522629" lon="34.001244">
<ele>512.727051</ele>
<time>2011-10-11T11:14:43Z</time>
<desc>lat.=44.522629, lon.=34.001244, Alt.=512.727051m. Speed=3.384000m/h.</desc>
<speed>0.940000</speed>
</trkpt>
<trkpt lat="44.522655" lon="34.001282">
<ele>511.301025</ele>
<time>2011-10-11T11:14:48Z</time>
<desc>lat.=44.522655, lon.=34.001282, Alt.=511.301025m. Speed=6.984000m/h.</desc>
<speed>1.940000</speed>
</trkpt>
<trkpt lat="44.522690" lon="34.001335">
<ele>511.879150</ele>
<time>2011-10-11T11:14:53Z</time>
<desc>lat.=44.522690, lon.=34.001335, Alt.=511.879150m. Speed=2.736000m/h.</desc>
<speed>0.760000</speed>
</trkpt>
<trkpt lat="44.522697" lon="34.001400">
<ele>511.652588</ele>
<time>2011-10-11T11:14:58Z</time>
<desc>lat.=44.522697, lon.=34.001400, Alt.=511.652588m. Speed=4.104000m/h.</desc>
<speed>1.140000</speed>
</trkpt>
<trkpt lat="44.522713" lon="34.001431">
<ele>512.039551</ele>
<time>2011-10-11T11:15:03Z</time>
<desc>lat.=44.522713, lon.=34.001431, Alt.=512.039551m. Speed=5.184000m/h.</desc>
<speed>1.440000</speed>
</trkpt>
<trkpt lat="44.522705" lon="34.001526">
<ele>512.242676</ele>
<time>2011-10-11T11:15:08Z</time>
<desc>lat.=44.522705, lon.=34.001526, Alt.=512.242676m. Speed=4.968000m/h.</desc>
<speed>1.380000</speed>
</trkpt>
<trkpt lat="44.522701" lon="34.001621">
<ele>513.430176</ele>
<time>2011-10-11T11:15:13Z</time>
<desc>lat.=44.522701, lon.=34.001621, Alt.=513.430176m. Speed=4.500000m/h.</desc>
<speed>1.250000</speed>
</trkpt>
<trkpt lat="44.522690" lon="34.001720">
<ele>514.273926</ele>
<time>2011-10-11T11:15:18Z</time>
<desc>lat.=44.522690, lon.=34.001720, Alt.=514.273926m. Speed=6.768000m/h.</desc>
<speed>1.880000</speed>
</trkpt>
<trkpt lat="44.522701" lon="34.001751">
<ele>512.445801</ele>
<time>2011-10-11T11:15:23Z</time>
<desc>lat.=44.522701, lon.=34.001751, Alt.=512.445801m. Speed=1.080000m/h.</desc>
<speed>0.300000</speed>
</trkpt>
<trkpt lat="44.522671" lon="34.001804">
<ele>511.019775</ele>
<time>2011-10-11T11:15:28Z</time>
<desc>lat.=44.522671, lon.=34.001804, Alt.=511.019775m. Speed=3.168000m/h.</desc>
<speed>0.880000</speed>
</trkpt>
<trkpt lat="44.522667" lon="34.001862">
<ele>508.144775</ele>
<time>2011-10-11T11:15:33Z</time>
<desc>lat.=44.522667, lon.=34.001862, Alt.=508.144775m. Speed=4.068000m/h.</desc>
<speed>1.130000</speed>
</trkpt>
<trkpt lat="44.522655" lon="34.001919">
<ele>506.988525</ele>
<time>2011-10-11T11:15:38Z</time>
<desc>lat.=44.522655, lon.=34.001919, Alt.=506.988525m. Speed=2.988000m/h.</desc>
<speed>0.830000</speed>
</trkpt>
<trkpt lat="44.522636" lon="34.001980">
<ele>505.551025</ele>
<time>2011-10-11T11:15:43Z</time>
<desc>lat.=44.522636, lon.=34.001980, Alt.=505.551025m. Speed=4.608000m/h.</desc>
<speed>1.280000</speed>
</trkpt>
<trkpt lat="44.522614" lon="34.002041">
<ele>504.785400</ele>
<time>2011-10-11T11:15:48Z</time>
<desc>lat.=44.522614, lon.=34.002041, Alt.=504.785400m. Speed=4.392000m/h.</desc>
<speed>1.220000</speed>
</trkpt>
<trkpt lat="44.522575" lon="34.002113">
<ele>503.051025</ele>
<time>2011-10-11T11:15:53Z</time>
<desc>lat.=44.522575, lon.=34.002113, Alt.=503.051025m. Speed=4.392000m/h.</desc>
<speed>1.220000</speed>
</trkpt>
<trkpt lat="44.522564" lon="34.002178">
<ele>502.051025</ele>
<time>2011-10-11T11:15:58Z</time>
<desc>lat.=44.522564, lon.=34.002178, Alt.=502.051025m. Speed=2.448000m/h.</desc>
<speed>0.680000</speed>
</trkpt>
<trkpt lat="44.522533" lon="34.002228">
<ele>500.222900</ele>
<time>2011-10-11T11:16:03Z</time>
<desc>lat.=44.522533, lon.=34.002228, Alt.=500.222900m. Speed=3.996000m/h.</desc>
<speed>1.110000</speed>
</trkpt>
<trkpt lat="44.522522" lon="34.002304">
<ele>498.808838</ele>
<time>2011-10-11T11:16:08Z</time>
<desc>lat.=44.522522, lon.=34.002304, Alt.=498.808838m. Speed=4.104000m/h.</desc>
<speed>1.140000</speed>
</trkpt>
<trkpt lat="44.522491" lon="34.002373">
<ele>497.988525</ele>
<time>2011-10-11T11:16:13Z</time>
<desc>lat.=44.522491, lon.=34.002373, Alt.=497.988525m. Speed=4.176000m/h.</desc>
<speed>1.160000</speed>
</trkpt>
<trkpt lat="44.522461" lon="34.002411">
<ele>496.269775</ele>
<time>2011-10-11T11:16:18Z</time>
<desc>lat.=44.522461, lon.=34.002411, Alt.=496.269775m. Speed=3.348000m/h.</desc>
<speed>0.930000</speed>
</trkpt>
<trkpt lat="44.522442" lon="34.002411">
<ele>495.996338</ele>
<time>2011-10-11T11:16:23Z</time>
<desc>lat.=44.522442, lon.=34.002411, Alt.=495.996338m. Speed=4.968000m/h.</desc>
<speed>1.380000</speed>
</trkpt>
<trkpt lat="44.522404" lon="34.002415">
<ele>496.558838</ele>
<time>2011-10-11T11:16:28Z</time>
<desc>lat.=44.522404, lon.=34.002415, Alt.=496.558838m. Speed=3.996000m/h.</desc>
<speed>1.110000</speed>
</trkpt>
<trkpt lat="44.522362" lon="34.002441">
<ele>497.090088</ele>
<time>2011-10-11T11:16:33Z</time>
<desc>lat.=44.522362, lon.=34.002441, Alt.=497.090088m. Speed=1.548000m/h.</desc>
<speed>0.430000</speed>
</trkpt>
<trkpt lat="44.522320" lon="34.002476">
<ele>497.558838</ele>
<time>2011-10-11T11:16:38Z</time>
<desc>lat.=44.522320, lon.=34.002476, Alt.=497.558838m. Speed=1.188000m/h.</desc>
<speed>0.330000</speed>
</trkpt>
<trkpt lat="44.522308" lon="34.002472">
<ele>496.558838</ele>
<time>2011-10-11T11:16:43Z</time>
<desc>lat.=44.522308, lon.=34.002472, Alt.=496.558838m. Speed=0.936000m/h.</desc>
<speed>0.260000</speed>
</trkpt>
<trkpt lat="44.522255" lon="34.002499">
<ele>496.027588</ele>
<time>2011-10-11T11:16:48Z</time>
<desc>lat.=44.522255, lon.=34.002499, Alt.=496.027588m. Speed=4.536000m/h.</desc>
<speed>1.260000</speed>
</trkpt>
<trkpt lat="44.522205" lon="34.002514">
<ele>495.386963</ele>
<time>2011-10-11T11:16:53Z</time>
<desc>lat.=44.522205, lon.=34.002514, Alt.=495.386963m. Speed=4.536000m/h.</desc>
<speed>1.260000</speed>
</trkpt>
<trkpt lat="44.522148" lon="34.002525">
<ele>495.363525</ele>
<time>2011-10-11T11:16:58Z</time>
<desc>lat.=44.522148, lon.=34.002525, Alt.=495.363525m. Speed=2.988000m/h.</desc>
<speed>0.830000</speed>
</trkpt>
<trkpt lat="44.522110" lon="34.002533">
<ele>495.488525</ele>
<time>2011-10-11T11:17:03Z</time>
<desc>lat.=44.522110, lon.=34.002533, Alt.=495.488525m. Speed=1.548000m/h.</desc>
<speed>0.430000</speed>
</trkpt>
<trkpt lat="44.522099" lon="34.002560">
<ele>496.269775</ele>
<time>2011-10-11T11:17:08Z</time>
<desc>lat.=44.522099, lon.=34.002560, Alt.=496.269775m. Speed=0.720000m/h.</desc>
<speed>0.200000</speed>
</trkpt>
<trkpt lat="44.522106" lon="34.002632">
<ele>497.215088</ele>
<time>2011-10-11T11:17:13Z</time>
<desc>lat.=44.522106, lon.=34.002632, Alt.=497.215088m. Speed=5.292000m/h.</desc>
<speed>1.470000</speed>
</trkpt>
<trkpt lat="44.522102" lon="34.002701">
<ele>497.457275</ele>
<time>2011-10-11T11:17:18Z</time>
<desc>lat.=44.522102, lon.=34.002701, Alt.=497.457275m. Speed=1.080000m/h.</desc>
<speed>0.300000</speed>
</trkpt>
<trkpt lat="44.522095" lon="34.002735">
<ele>497.379150</ele>
<time>2011-10-11T11:17:23Z</time>
<desc>lat.=44.522095, lon.=34.002735, Alt.=497.379150m. Speed=6.228000m/h.</desc>
<speed>1.730000</speed>
</trkpt>
<trkpt lat="44.522079" lon="34.002823">
<ele>497.410400</ele>
<time>2011-10-11T11:17:28Z</time>
<desc>lat.=44.522079, lon.=34.002823, Alt.=497.410400m. Speed=3.528000m/h.</desc>
<speed>0.980000</speed>
</trkpt>
<trkpt lat="44.522068" lon="34.002865">
<ele>498.355713</ele>
<time>2011-10-11T11:17:33Z</time>
<desc>lat.=44.522068, lon.=34.002865, Alt.=498.355713m. Speed=2.664000m/h.</desc>
<speed>0.740000</speed>
</trkpt>
<trkpt lat="44.522083" lon="34.002926">
<ele>498.902588</ele>
<time>2011-10-11T11:17:38Z</time>
<desc>lat.=44.522083, lon.=34.002926, Alt.=498.902588m. Speed=4.716000m/h.</desc>
<speed>1.310000</speed>
</trkpt>
<trkpt lat="44.522053" lon="34.003029">
<ele>500.215088</ele>
<time>2011-10-11T11:17:43Z</time>
<desc>lat.=44.522053, lon.=34.003029, Alt.=500.215088m. Speed=6.696000m/h.</desc>
<speed>1.860000</speed>
</trkpt>
<trkpt lat="44.522076" lon="34.003075">
<ele>499.785400</ele>
<time>2011-10-11T11:17:48Z</time>
<desc>lat.=44.522076, lon.=34.003075, Alt.=499.785400m. Speed=0.864000m/h.</desc>
<speed>0.240000</speed>
</trkpt>
<trkpt lat="44.522083" lon="34.003094">
<ele>499.379150</ele>
<time>2011-10-11T11:17:53Z</time>
<desc>lat.=44.522083, lon.=34.003094, Alt.=499.379150m. Speed=0.540000m/h.</desc>
<speed>0.150000</speed>
</trkpt>
<trkpt lat="44.522114" lon="34.003124">
<ele>499.332275</ele>
<time>2011-10-11T11:17:58Z</time>
<desc>lat.=44.522114, lon.=34.003124, Alt.=499.332275m. Speed=2.916000m/h.</desc>
<speed>0.810000</speed>
</trkpt>
<trkpt lat="44.522118" lon="34.003159">
<ele>500.207275</ele>
<time>2011-10-11T11:18:03Z</time>
<desc>lat.=44.522118, lon.=34.003159, Alt.=500.207275m. Speed=2.772000m/h.</desc>
<speed>0.770000</speed>
</trkpt>
<trkpt lat="44.522148" lon="34.003170">
<ele>501.168213</ele>
<time>2011-10-11T11:18:08Z</time>
<desc>lat.=44.522148, lon.=34.003170, Alt.=501.168213m. Speed=3.312000m/h.</desc>
<speed>0.920000</speed>
</trkpt>
<trkpt lat="44.522179" lon="34.003201">
<ele>502.472900</ele>
<time>2011-10-11T11:18:13Z</time>
<desc>lat.=44.522179, lon.=34.003201, Alt.=502.472900m. Speed=2.124000m/h.</desc>
<speed>0.590000</speed>
</trkpt>
<trkpt lat="44.522213" lon="34.003227">
<ele>503.644775</ele>
<time>2011-10-11T11:18:18Z</time>
<desc>lat.=44.522213, lon.=34.003227, Alt.=503.644775m. Speed=2.952000m/h.</desc>
<speed>0.820000</speed>
</trkpt>
<trkpt lat="44.522194" lon="34.003265">
<ele>503.715088</ele>
<time>2011-10-11T11:18:23Z</time>
<desc>lat.=44.522194, lon.=34.003265, Alt.=503.715088m. Speed=1.476000m/h.</desc>
<speed>0.410000</speed>
</trkpt>
<trkpt lat="44.522202" lon="34.003265">
<ele>504.129150</ele>
<time>2011-10-11T11:18:28Z</time>
<desc>lat.=44.522202, lon.=34.003265, Alt.=504.129150m. Speed=0.216000m/h.</desc>
<speed>0.060000</speed>
</trkpt>
<trkpt lat="44.522179" lon="34.003269">
<ele>504.254150</ele>
<time>2011-10-11T11:18:33Z</time>
<desc>lat.=44.522179, lon.=34.003269, Alt.=504.254150m. Speed=4.644000m/h.</desc>
<speed>1.290000</speed>
</trkpt>
<trkpt lat="44.522125" lon="34.003273">
<ele>504.535400</ele>
<time>2011-10-11T11:18:38Z</time>
<desc>lat.=44.522125, lon.=34.003273, Alt.=504.535400m. Speed=3.996000m/h.</desc>
<speed>1.110000</speed>
</trkpt>
<trkpt lat="44.522087" lon="34.003311">
<ele>504.582275</ele>
<time>2011-10-11T11:18:43Z</time>
<desc>lat.=44.522087, lon.=34.003311, Alt.=504.582275m. Speed=3.060000m/h.</desc>
<speed>0.850000</speed>
</trkpt>
<trkpt lat="44.522060" lon="34.003361">
<ele>504.613525</ele>
<time>2011-10-11T11:18:48Z</time>
<desc>lat.=44.522060, lon.=34.003361, Alt.=504.613525m. Speed=2.520000m/h.</desc>
<speed>0.700000</speed>
</trkpt>
<trkpt lat="44.522148" lon="34.003304">
<ele>504.597900</ele>
<time>2011-10-11T11:18:53Z</time>
<desc>lat.=44.522148, lon.=34.003304, Alt.=504.597900m. Speed=0.612000m/h.</desc>
<speed>0.170000</speed>
</trkpt>
<trkpt lat="44.522202" lon="34.003300">
<ele>504.840088</ele>
<time>2011-10-11T11:18:58Z</time>
<desc>lat.=44.522202, lon.=34.003300, Alt.=504.840088m. Speed=2.124000m/h.</desc>
<speed>0.590000</speed>
</trkpt>
<trkpt lat="44.522190" lon="34.003342">
<ele>505.246338</ele>
<time>2011-10-11T11:19:03Z</time>
<desc>lat.=44.522190, lon.=34.003342, Alt.=505.246338m. Speed=1.404000m/h.</desc>
<speed>0.390000</speed>
</trkpt>
<trkpt lat="44.522209" lon="34.003330">
<ele>505.418213</ele>
<time>2011-10-11T11:19:08Z</time>
<desc>lat.=44.522209, lon.=34.003330, Alt.=505.418213m. Speed=1.260000m/h.</desc>
<speed>0.350000</speed>
</trkpt>
<trkpt lat="44.522266" lon="34.003315">
<ele>505.793213</ele>
<time>2011-10-11T11:19:13Z</time>
<desc>lat.=44.522266, lon.=34.003315, Alt.=505.793213m. Speed=1.584000m/h.</desc>
<speed>0.440000</speed>
</trkpt>
<trkpt lat="44.522312" lon="34.003254">
<ele>506.043213</ele>
<time>2011-10-11T11:19:18Z</time>
<desc>lat.=44.522312, lon.=34.003254, Alt.=506.043213m. Speed=2.268000m/h.</desc>
<speed>0.630000</speed>
</trkpt>
<trkpt lat="44.522369" lon="34.003181">
<ele>506.144775</ele>
<time>2011-10-11T11:19:23Z</time>
<desc>lat.=44.522369, lon.=34.003181, Alt.=506.144775m. Speed=2.664000m/h.</desc>
<speed>0.740000</speed>
</trkpt>
<trkpt lat="44.522472" lon="34.003109">
<ele>506.254150</ele>
<time>2011-10-11T11:19:28Z</time>
<desc>lat.=44.522472, lon.=34.003109, Alt.=506.254150m. Speed=2.808000m/h.</desc>
<speed>0.780000</speed>
</trkpt>
<trkpt lat="44.522541" lon="34.003075">
<ele>506.738525</ele>
<time>2011-10-11T11:19:33Z</time>
<desc>lat.=44.522541, lon.=34.003075, Alt.=506.738525m. Speed=2.232000m/h.</desc>
<speed>0.620000</speed>
</trkpt>
<trkpt lat="44.522564" lon="34.003059">
<ele>506.832275</ele>
<time>2011-10-11T11:19:38Z</time>
<desc>lat.=44.522564, lon.=34.003059, Alt.=506.832275m. Speed=1.368000m/h.</desc>
<speed>0.380000</speed>
</trkpt>
<trkpt lat="44.522579" lon="34.003067">
<ele>506.918213</ele>
<time>2011-10-11T11:19:43Z</time>
<desc>lat.=44.522579, lon.=34.003067, Alt.=506.918213m. Speed=0.612000m/h.</desc>
<speed>0.170000</speed>
</trkpt>
<trkpt lat="44.522591" lon="34.003059">
<ele>507.051025</ele>
<time>2011-10-11T11:19:48Z</time>
<desc>lat.=44.522591, lon.=34.003059, Alt.=507.051025m. Speed=0.504000m/h.</desc>
<speed>0.140000</speed>
</trkpt>
<trkpt lat="44.522598" lon="34.003052">
<ele>507.058838</ele>
<time>2011-10-11T11:19:53Z</time>
<desc>lat.=44.522598, lon.=34.003052, Alt.=507.058838m. Speed=0.972000m/h.</desc>
<speed>0.270000</speed>
</trkpt>
<trkpt lat="44.522621" lon="34.003056">
<ele>507.347900</ele>
<time>2011-10-11T11:19:58Z</time>
<desc>lat.=44.522621, lon.=34.003056, Alt.=507.347900m. Speed=0.756000m/h.</desc>
<speed>0.210000</speed>
</trkpt>
<trkpt lat="44.522633" lon="34.003048">
<ele>507.347900</ele>
<time>2011-10-11T11:20:03Z</time>
<desc>lat.=44.522633, lon.=34.003048, Alt.=507.347900m. Speed=1.080000m/h.</desc>
<speed>0.300000</speed>
</trkpt>
<trkpt lat="44.522678" lon="34.003002">
<ele>507.488525</ele>
<time>2011-10-11T11:20:08Z</time>
<desc>lat.=44.522678, lon.=34.003002, Alt.=507.488525m. Speed=1.728000m/h.</desc>
<speed>0.480000</speed>
</trkpt>
<trkpt lat="44.522739" lon="34.002945">
<ele>507.488525</ele>
<time>2011-10-11T11:20:13Z</time>
<desc>lat.=44.522739, lon.=34.002945, Alt.=507.488525m. Speed=3.096000m/h.</desc>
<speed>0.860000</speed>
</trkpt>
<trkpt lat="44.522812" lon="34.002861">
<ele>507.605713</ele>
<time>2011-10-11T11:20:18Z</time>
<desc>lat.=44.522812, lon.=34.002861, Alt.=507.605713m. Speed=3.744000m/h.</desc>
<speed>1.040000</speed>
</trkpt>
<trkpt lat="44.522884" lon="34.002773">
<ele>507.761963</ele>
<time>2011-10-11T11:20:23Z</time>
<desc>lat.=44.522884, lon.=34.002773, Alt.=507.761963m. Speed=3.780000m/h.</desc>
<speed>1.050000</speed>
</trkpt>
<trkpt lat="44.522938" lon="34.002739">
<ele>508.051025</ele>
<time>2011-10-11T11:20:28Z</time>
<desc>lat.=44.522938, lon.=34.002739, Alt.=508.051025m. Speed=3.240000m/h.</desc>
<speed>0.900000</speed>
</trkpt>
<trkpt lat="44.522949" lon="34.002724">
<ele>507.926025</ele>
<time>2011-10-11T11:20:33Z</time>
<desc>lat.=44.522949, lon.=34.002724, Alt.=507.926025m. Speed=2.268000m/h.</desc>
<speed>0.630000</speed>
</trkpt>
<trkpt lat="44.522896" lon="34.002781">
<ele>507.168213</ele>
<time>2011-10-11T11:20:38Z</time>
<desc>lat.=44.522896, lon.=34.002781, Alt.=507.168213m. Speed=0.468000m/h.</desc>
<speed>0.130000</speed>
</trkpt>
<trkpt lat="44.522781" lon="34.002880">
<ele>506.644775</ele>
<time>2011-10-11T11:20:43Z</time>
<desc>lat.=44.522781, lon.=34.002880, Alt.=506.644775m. Speed=2.952000m/h.</desc>
<speed>0.820000</speed>
</trkpt>
<trkpt lat="44.522640" lon="34.003029">
<ele>506.144775</ele>
<time>2011-10-11T11:20:48Z</time>
<desc>lat.=44.522640, lon.=34.003029, Alt.=506.144775m. Speed=3.564000m/h.</desc>
<speed>0.990000</speed>
</trkpt>
<trkpt lat="44.522583" lon="34.003094">
<ele>506.301025</ele>
<time>2011-10-11T11:20:53Z</time>
<desc>lat.=44.522583, lon.=34.003094, Alt.=506.301025m. Speed=2.628000m/h.</desc>
<speed>0.730000</speed>
</trkpt>
<trkpt lat="44.522533" lon="34.003174">
<ele>506.926025</ele>
<time>2011-10-11T11:20:58Z</time>
<desc>lat.=44.522533, lon.=34.003174, Alt.=506.926025m. Speed=1.980000m/h.</desc>
<speed>0.550000</speed>
</trkpt>
<trkpt lat="44.522491" lon="34.003208">
<ele>507.402588</ele>
<time>2011-10-11T11:21:03Z</time>
<desc>lat.=44.522491, lon.=34.003208, Alt.=507.402588m. Speed=1.368000m/h.</desc>
<speed>0.380000</speed>
</trkpt>
<trkpt lat="44.522476" lon="34.003189">
<ele>508.191650</ele>
<time>2011-10-11T11:21:08Z</time>
<desc>lat.=44.522476, lon.=34.003189, Alt.=508.191650m. Speed=0.540000m/h.</desc>
<speed>0.150000</speed>
</trkpt>
<trkpt lat="44.522465" lon="34.003193">
<ele>508.152588</ele>
<time>2011-10-11T11:21:13Z</time>
<desc>lat.=44.522465, lon.=34.003193, Alt.=508.152588m. Speed=0.900000m/h.</desc>
<speed>0.250000</speed>
</trkpt>
<trkpt lat="44.522457" lon="34.003197">
<ele>508.160400</ele>
<time>2011-10-11T11:21:18Z</time>
<desc>lat.=44.522457, lon.=34.003197, Alt.=508.160400m. Speed=0.540000m/h.</desc>
<speed>0.150000</speed>
</trkpt>
<trkpt lat="44.522430" lon="34.003208">
<ele>508.308838</ele>
<time>2011-10-11T11:21:23Z</time>
<desc>lat.=44.522430, lon.=34.003208, Alt.=508.308838m. Speed=1.404000m/h.</desc>
<speed>0.390000</speed>
</trkpt>
<trkpt lat="44.522377" lon="34.003185">
<ele>509.793213</ele>
<time>2011-10-11T11:21:28Z</time>
<desc>lat.=44.522377, lon.=34.003185, Alt.=509.793213m. Speed=1.656000m/h.</desc>
<speed>0.460000</speed>
</trkpt>
<trkpt lat="44.522392" lon="34.003162">
<ele>511.957275</ele>
<time>2011-10-11T11:21:33Z</time>
<desc>lat.=44.522392, lon.=34.003162, Alt.=511.957275m. Speed=0.036000m/h.</desc>
<speed>0.010000</speed>
</trkpt>
<trkpt lat="44.522396" lon="34.003162">
<ele>512.055176</ele>
<time>2011-10-11T11:21:38Z</time>
<desc>lat.=44.522396, lon.=34.003162, Alt.=512.055176m. Speed=0.432000m/h.</desc>
<speed>0.120000</speed>
</trkpt>
<trkpt lat="44.522343" lon="34.003185">
<ele>512.742676</ele>
<time>2011-10-11T11:21:43Z</time>
<desc>lat.=44.522343, lon.=34.003185, Alt.=512.742676m. Speed=3.852000m/h.</desc>
<speed>1.070000</speed>
</trkpt>
<trkpt lat="44.522327" lon="34.003239">
<ele>514.992676</ele>
<time>2011-10-11T11:21:48Z</time>
<desc>lat.=44.522327, lon.=34.003239, Alt.=514.992676m. Speed=2.376000m/h.</desc>
<speed>0.660000</speed>
</trkpt>
<trkpt lat="44.522331" lon="34.003250">
<ele>514.992676</ele>
<time>2011-10-11T11:21:53Z</time>
<desc>lat.=44.522331, lon.=34.003250, Alt.=514.992676m. Speed=1.692000m/h.</desc>
<speed>0.470000</speed>
</trkpt>
<trkpt lat="44.522366" lon="34.003216">
<ele>515.555176</ele>
<time>2011-10-11T11:21:58Z</time>
<desc>lat.=44.522366, lon.=34.003216, Alt.=515.555176m. Speed=1.440000m/h.</desc>
<speed>0.400000</speed>
</trkpt>
<trkpt lat="44.522411" lon="34.003139">
<ele>516.086426</ele>
<time>2011-10-11T11:22:03Z</time>
<desc>lat.=44.522411, lon.=34.003139, Alt.=516.086426m. Speed=1.584000m/h.</desc>
<speed>0.440000</speed>
</trkpt>
<trkpt lat="44.522449" lon="34.003071">
<ele>516.555176</ele>
<time>2011-10-11T11:22:08Z</time>
<desc>lat.=44.522449, lon.=34.003071, Alt.=516.555176m. Speed=1.440000m/h.</desc>
<speed>0.400000</speed>
</trkpt>
<trkpt lat="44.522461" lon="34.003036">
<ele>517.180176</ele>
<time>2011-10-11T11:22:13Z</time>
<desc>lat.=44.522461, lon.=34.003036, Alt.=517.180176m. Speed=0.792000m/h.</desc>
<speed>0.220000</speed>
</trkpt>
<trkpt lat="44.522465" lon="34.003033">
<ele>517.227051</ele>
<time>2011-10-11T11:22:18Z</time>
<desc>lat.=44.522465, lon.=34.003033, Alt.=517.227051m. Speed=0.216000m/h.</desc>
<speed>0.060000</speed>
</trkpt>
<trkpt lat="44.522465" lon="34.003033">
<ele>517.195801</ele>
<time>2011-10-11T11:22:23Z</time>
<desc>lat.=44.522465, lon.=34.003033, Alt.=517.195801m. Speed=0.432000m/h.</desc>
<speed>0.120000</speed>
</trkpt>
<trkpt lat="44.522453" lon="34.003044">
<ele>517.289551</ele>
<time>2011-10-11T11:22:28Z</time>
<desc>lat.=44.522453, lon.=34.003044, Alt.=517.289551m. Speed=1.260000m/h.</desc>
<speed>0.350000</speed>
</trkpt>
<trkpt lat="44.522411" lon="34.003078">
<ele>517.805176</ele>
<time>2011-10-11T11:22:33Z</time>
<desc>lat.=44.522411, lon.=34.003078, Alt.=517.805176m. Speed=1.656000m/h.</desc>
<speed>0.460000</speed>
</trkpt>
<trkpt lat="44.522388" lon="34.003105">
<ele>518.258301</ele>
<time>2011-10-11T11:22:38Z</time>
<desc>lat.=44.522388, lon.=34.003105, Alt.=518.258301m. Speed=1.296000m/h.</desc>
<speed>0.360000</speed>
</trkpt>
<trkpt lat="44.522358" lon="34.003132">
<ele>518.914551</ele>
<time>2011-10-11T11:22:43Z</time>
<desc>lat.=44.522358, lon.=34.003132, Alt.=518.914551m. Speed=1.332000m/h.</desc>
<speed>0.370000</speed>
</trkpt>
<trkpt lat="44.522312" lon="34.003155">
<ele>519.680176</ele>
<time>2011-10-11T11:22:48Z</time>
<desc>lat.=44.522312, lon.=34.003155, Alt.=519.680176m. Speed=1.800000m/h.</desc>
<speed>0.500000</speed>
</trkpt>
<trkpt lat="44.522266" lon="34.003174">
<ele>520.227051</ele>
<time>2011-10-11T11:22:53Z</time>
<desc>lat.=44.522266, lon.=34.003174, Alt.=520.227051m. Speed=2.016000m/h.</desc>
<speed>0.560000</speed>
</trkpt>
<trkpt lat="44.522251" lon="34.003204">
<ele>520.789551</ele>
<time>2011-10-11T11:22:58Z</time>
<desc>lat.=44.522251, lon.=34.003204, Alt.=520.789551m. Speed=1.692000m/h.</desc>
<speed>0.470000</speed>
</trkpt>
<trkpt lat="44.522240" lon="34.003181">
<ele>521.320801</ele>
<time>2011-10-11T11:23:03Z</time>
<desc>lat.=44.522240, lon.=34.003181, Alt.=521.320801m. Speed=0.900000m/h.</desc>
<speed>0.250000</speed>
</trkpt>
<trkpt lat="44.522232" lon="34.003181">
<ele>521.461426</ele>
<time>2011-10-11T11:23:08Z</time>
<desc>lat.=44.522232, lon.=34.003181, Alt.=521.461426m. Speed=0.144000m/h.</desc>
<speed>0.040000</speed>
</trkpt>
<trkpt lat="44.522236" lon="34.003174">
<ele>521.477051</ele>
<time>2011-10-11T11:23:13Z</time>
<desc>lat.=44.522236, lon.=34.003174, Alt.=521.477051m. Speed=1.152000m/h.</desc>
<speed>0.320000</speed>
</trkpt>
<trkpt lat="44.522324" lon="34.003128">
<ele>521.492676</ele>
<time>2011-10-11T11:23:18Z</time>
<desc>lat.=44.522324, lon.=34.003128, Alt.=521.492676m. Speed=1.800000m/h.</desc>
<speed>0.500000</speed>
</trkpt>
<trkpt lat="44.522316" lon="34.003105">
<ele>521.180176</ele>
<time>2011-10-11T11:23:23Z</time>
<desc>lat.=44.522316, lon.=34.003105, Alt.=521.180176m. Speed=0.396000m/h.</desc>
<speed>0.110000</speed>
</trkpt>
<trkpt lat="44.522293" lon="34.003143">
<ele>520.648926</ele>
<time>2011-10-11T11:23:28Z</time>
<desc>lat.=44.522293, lon.=34.003143, Alt.=520.648926m. Speed=1.512000m/h.</desc>
<speed>0.420000</speed>
</trkpt>
<trkpt lat="44.522251" lon="34.003155">
<ele>519.258301</ele>
<time>2011-10-11T11:23:33Z</time>
<desc>lat.=44.522251, lon.=34.003155, Alt.=519.258301m. Speed=1.332000m/h.</desc>
<speed>0.370000</speed>
</trkpt>
<trkpt lat="44.522270" lon="34.003136">
<ele>517.898926</ele>
<time>2011-10-11T11:23:38Z</time>
<desc>lat.=44.522270, lon.=34.003136, Alt.=517.898926m. Speed=0.864000m/h.</desc>
<speed>0.240000</speed>
</trkpt>
<trkpt lat="44.522282" lon="34.003189">
<ele>516.211426</ele>
<time>2011-10-11T11:23:43Z</time>
<desc>lat.=44.522282, lon.=34.003189, Alt.=516.211426m. Speed=2.376000m/h.</desc>
<speed>0.660000</speed>
</trkpt>
<trkpt lat="44.522324" lon="34.003212">
<ele>515.758301</ele>
<time>2011-10-11T11:23:48Z</time>
<desc>lat.=44.522324, lon.=34.003212, Alt.=515.758301m. Speed=6.408000m/h.</desc>
<speed>1.780000</speed>
</trkpt>
<trkpt lat="44.522327" lon="34.003265">
<ele>515.211426</ele>
<time>2011-10-11T11:23:53Z</time>
<desc>lat.=44.522327, lon.=34.003265, Alt.=515.211426m. Speed=0.252000m/h.</desc>
<speed>0.070000</speed>
</trkpt>
<trkpt lat="44.522354" lon="34.003284">
<ele>514.117676</ele>
<time>2011-10-11T11:23:58Z</time>
<desc>lat.=44.522354, lon.=34.003284, Alt.=514.117676m. Speed=5.724000m/h.</desc>
<speed>1.590000</speed>
</trkpt>
<trkpt lat="44.522385" lon="34.003334">
<ele>514.602051</ele>
<time>2011-10-11T11:24:03Z</time>
<desc>lat.=44.522385, lon.=34.003334, Alt.=514.602051m. Speed=3.636000m/h.</desc>
<speed>1.010000</speed>
</trkpt>
<trkpt lat="44.522419" lon="34.003361">
<ele>515.117676</ele>
<time>2011-10-11T11:24:08Z</time>
<desc>lat.=44.522419, lon.=34.003361, Alt.=515.117676m. Speed=2.304000m/h.</desc>
<speed>0.640000</speed>
</trkpt>
<trkpt lat="44.522446" lon="34.003403">
<ele>514.586426</ele>
<time>2011-10-11T11:24:13Z</time>
<desc>lat.=44.522446, lon.=34.003403, Alt.=514.586426m. Speed=3.888000m/h.</desc>
<speed>1.080000</speed>
</trkpt>
<trkpt lat="44.522465" lon="34.003471">
<ele>514.289551</ele>
<time>2011-10-11T11:24:18Z</time>
<desc>lat.=44.522465, lon.=34.003471, Alt.=514.289551m. Speed=3.636000m/h.</desc>
<speed>1.010000</speed>
</trkpt>
<trkpt lat="44.522507" lon="34.003529">
<ele>514.180176</ele>
<time>2011-10-11T11:24:23Z</time>
<desc>lat.=44.522507, lon.=34.003529, Alt.=514.180176m. Speed=2.844000m/h.</desc>
<speed>0.790000</speed>
</trkpt>
<trkpt lat="44.522518" lon="34.003571">
<ele>514.180176</ele>
<time>2011-10-11T11:24:28Z</time>
<desc>lat.=44.522518, lon.=34.003571, Alt.=514.180176m. Speed=0.504000m/h.</desc>
<speed>0.140000</speed>
</trkpt>
<trkpt lat="44.522499" lon="34.003616">
<ele>515.164551</ele>
<time>2011-10-11T11:24:33Z</time>
<desc>lat.=44.522499, lon.=34.003616, Alt.=515.164551m. Speed=1.332000m/h.</desc>
<speed>0.370000</speed>
</trkpt>
<trkpt lat="44.522465" lon="34.003643">
<ele>515.164551</ele>
<time>2011-10-11T11:24:38Z</time>
<desc>lat.=44.522465, lon.=34.003643, Alt.=515.164551m. Speed=3.168000m/h.</desc>
<speed>0.880000</speed>
</trkpt>
<trkpt lat="44.522453" lon="34.003674">
<ele>514.914551</ele>
<time>2011-10-11T11:24:43Z</time>
<desc>lat.=44.522453, lon.=34.003674, Alt.=514.914551m. Speed=2.160000m/h.</desc>
<speed>0.600000</speed>
</trkpt>
<trkpt lat="44.522484" lon="34.003696">
<ele>515.508301</ele>
<time>2011-10-11T11:24:48Z</time>
<desc>lat.=44.522484, lon.=34.003696, Alt.=515.508301m. Speed=1.512000m/h.</desc>
<speed>0.420000</speed>
</trkpt>
<trkpt lat="44.522469" lon="34.003738">
<ele>517.539551</ele>
<time>2011-10-11T11:24:53Z</time>
<desc>lat.=44.522469, lon.=34.003738, Alt.=517.539551m. Speed=2.160000m/h.</desc>
<speed>0.600000</speed>
</trkpt>
<trkpt lat="44.522472" lon="34.003780">
<ele>519.023926</ele>
<time>2011-10-11T11:24:58Z</time>
<desc>lat.=44.522472, lon.=34.003780, Alt.=519.023926m. Speed=1.152000m/h.</desc>
<speed>0.320000</speed>
</trkpt>
<trkpt lat="44.522465" lon="34.003799">
<ele>519.695801</ele>
<time>2011-10-11T11:25:03Z</time>
<desc>lat.=44.522465, lon.=34.003799, Alt.=519.695801m. Speed=1.728000m/h.</desc>
<speed>0.480000</speed>
</trkpt>
<trkpt lat="44.522469" lon="34.003822">
<ele>519.867676</ele>
<time>2011-10-11T11:25:08Z</time>
<desc>lat.=44.522469, lon.=34.003822, Alt.=519.867676m. Speed=1.692000m/h.</desc>
<speed>0.470000</speed>
</trkpt>
<trkpt lat="44.522461" lon="34.003880">
<ele>519.211426</ele>
<time>2011-10-11T11:25:13Z</time>
<desc>lat.=44.522461, lon.=34.003880, Alt.=519.211426m. Speed=3.528000m/h.</desc>
<speed>0.980000</speed>
</trkpt>
<trkpt lat="44.522461" lon="34.003948">
<ele>520.508301</ele>
<time>2011-10-11T11:25:18Z</time>
<desc>lat.=44.522461, lon.=34.003948, Alt.=520.508301m. Speed=4.248000m/h.</desc>
<speed>1.180000</speed>
</trkpt>
<trkpt lat="44.522446" lon="34.004009">
<ele>523.039551</ele>
<time>2011-10-11T11:25:23Z</time>
<desc>lat.=44.522446, lon.=34.004009, Alt.=523.039551m. Speed=2.340000m/h.</desc>
<speed>0.650000</speed>
</trkpt>
<trkpt lat="44.522419" lon="34.004082">
<ele>523.820801</ele>
<time>2011-10-11T11:25:28Z</time>
<desc>lat.=44.522419, lon.=34.004082, Alt.=523.820801m. Speed=2.232000m/h.</desc>
<speed>0.620000</speed>
</trkpt>
<trkpt lat="44.522438" lon="34.004070">
<ele>522.445801</ele>
<time>2011-10-11T11:25:33Z</time>
<desc>lat.=44.522438, lon.=34.004070, Alt.=522.445801m. Speed=1.584000m/h.</desc>
<speed>0.440000</speed>
</trkpt>
<trkpt lat="44.522423" lon="34.004097">
<ele>523.070801</ele>
<time>2011-10-11T11:25:38Z</time>
<desc>lat.=44.522423, lon.=34.004097, Alt.=523.070801m. Speed=1.116000m/h.</desc>
<speed>0.310000</speed>
</trkpt>
<trkpt lat="44.522350" lon="34.004154">
<ele>523.648926</ele>
<time>2011-10-11T11:25:43Z</time>
<desc>lat.=44.522350, lon.=34.004154, Alt.=523.648926m. Speed=3.276000m/h.</desc>
<speed>0.910000</speed>
</trkpt>
<trkpt lat="44.522312" lon="34.004177">
<ele>525.383301</ele>
<time>2011-10-11T11:25:48Z</time>
<desc>lat.=44.522312, lon.=34.004177, Alt.=525.383301m. Speed=2.196000m/h.</desc>
<speed>0.610000</speed>
</trkpt>
<trkpt lat="44.522278" lon="34.004169">
<ele>526.352051</ele>
<time>2011-10-11T11:25:53Z</time>
<desc>lat.=44.522278, lon.=34.004169, Alt.=526.352051m. Speed=1.440000m/h.</desc>
<speed>0.400000</speed>
</trkpt>
<trkpt lat="44.522293" lon="34.004143">
<ele>526.820801</ele>
<time>2011-10-11T11:25:58Z</time>
<desc>lat.=44.522293, lon.=34.004143, Alt.=526.820801m. Speed=0.288000m/h.</desc>
<speed>0.080000</speed>
</trkpt>
<trkpt lat="44.522297" lon="34.004139">
<ele>527.164551</ele>
<time>2011-10-11T11:26:03Z</time>
<desc>lat.=44.522297, lon.=34.004139, Alt.=527.164551m. Speed=0.468000m/h.</desc>
<speed>0.130000</speed>
</trkpt>
<trkpt lat="44.522297" lon="34.004135">
<ele>527.336426</ele>
<time>2011-10-11T11:26:08Z</time>
<desc>lat.=44.522297, lon.=34.004135, Alt.=527.336426m. Speed=0.576000m/h.</desc>
<speed>0.160000</speed>
</trkpt>
<trkpt lat="44.522293" lon="34.004143">
<ele>527.383301</ele>
<time>2011-10-11T11:26:13Z</time>
<desc>lat.=44.522293, lon.=34.004143, Alt.=527.383301m. Speed=0.180000m/h.</desc>
<speed>0.050000</speed>
</trkpt>
<trkpt lat="44.522293" lon="34.004143">
<ele>528.492676</ele>
<time>2011-10-11T11:26:18Z</time>
<desc>lat.=44.522293, lon.=34.004143, Alt.=528.492676m. Speed=0.576000m/h.</desc>
<speed>0.160000</speed>
</trkpt>
<trkpt lat="44.522297" lon="34.004143">
<ele>529.102051</ele>
<time>2011-10-11T11:26:23Z</time>
<desc>lat.=44.522297, lon.=34.004143, Alt.=529.102051m. Speed=0.576000m/h.</desc>
<speed>0.160000</speed>
</trkpt>
<trkpt lat="44.522301" lon="34.004135">
<ele>529.289551</ele>
<time>2011-10-11T11:26:28Z</time>
<desc>lat.=44.522301, lon.=34.004135, Alt.=529.289551m. Speed=0.612000m/h.</desc>
<speed>0.170000</speed>
</trkpt>
<trkpt lat="44.522285" lon="34.004124">
<ele>530.805176</ele>
<time>2011-10-11T11:26:33Z</time>
<desc>lat.=44.522285, lon.=34.004124, Alt.=530.805176m. Speed=1.620000m/h.</desc>
<speed>0.450000</speed>
</trkpt>
<trkpt lat="44.522247" lon="34.004158">
<ele>531.211426</ele>
<time>2011-10-11T11:26:38Z</time>
<desc>lat.=44.522247, lon.=34.004158, Alt.=531.211426m. Speed=1.044000m/h.</desc>
<speed>0.290000</speed>
</trkpt>
<trkpt lat="44.522232" lon="34.004173">
<ele>531.555176</ele>
<time>2011-10-11T11:26:43Z</time>
<desc>lat.=44.522232, lon.=34.004173, Alt.=531.555176m. Speed=1.764000m/h.</desc>
<speed>0.490000</speed>
</trkpt>
<trkpt lat="44.522224" lon="34.004154">
<ele>531.742676</ele>
<time>2011-10-11T11:26:48Z</time>
<desc>lat.=44.522224, lon.=34.004154, Alt.=531.742676m. Speed=1.872000m/h.</desc>
<speed>0.520000</speed>
</trkpt>
<trkpt lat="44.522243" lon="34.004143">
<ele>532.102051</ele>
<time>2011-10-11T11:26:53Z</time>
<desc>lat.=44.522243, lon.=34.004143, Alt.=532.102051m. Speed=0.180000m/h.</desc>
<speed>0.050000</speed>
</trkpt>
<trkpt lat="44.522243" lon="34.004143">
<ele>532.367676</ele>
<time>2011-10-11T11:26:58Z</time>
<desc>lat.=44.522243, lon.=34.004143, Alt.=532.367676m. Speed=1.008000m/h.</desc>
<speed>0.280000</speed>
</trkpt>
<trkpt lat="44.522251" lon="34.004139">
<ele>532.570801</ele>
<time>2011-10-11T11:27:03Z</time>
<desc>lat.=44.522251, lon.=34.004139, Alt.=532.570801m. Speed=0.324000m/h.</desc>
<speed>0.090000</speed>
</trkpt>
<trkpt lat="44.522251" lon="34.004135">
<ele>532.820801</ele>
<time>2011-10-11T11:27:08Z</time>
<desc>lat.=44.522251, lon.=34.004135, Alt.=532.820801m. Speed=0.360000m/h.</desc>
<speed>0.100000</speed>
</trkpt>
<trkpt lat="44.522251" lon="34.004139">
<ele>532.992676</ele>
<time>2011-10-11T11:27:13Z</time>
<desc>lat.=44.522251, lon.=34.004139, Alt.=532.992676m. Speed=0.756000m/h.</desc>
<speed>0.210000</speed>
</trkpt>
<trkpt lat="44.522247" lon="34.004150">
<ele>533.273926</ele>
<time>2011-10-11T11:27:18Z</time>
<desc>lat.=44.522247, lon.=34.004150, Alt.=533.273926m. Speed=0.288000m/h.</desc>
<speed>0.080000</speed>
</trkpt>
<trkpt lat="44.522243" lon="34.004150">
<ele>533.539551</ele>
<time>2011-10-11T11:27:23Z</time>
<desc>lat.=44.522243, lon.=34.004150, Alt.=533.539551m. Speed=0.324000m/h.</desc>
<speed>0.090000</speed>
</trkpt>
<trkpt lat="44.522240" lon="34.004150">
<ele>533.820801</ele>
<time>2011-10-11T11:27:28Z</time>
<desc>lat.=44.522240, lon.=34.004150, Alt.=533.820801m. Speed=0.396000m/h.</desc>
<speed>0.110000</speed>
</trkpt>
<trkpt lat="44.522236" lon="34.004147">
<ele>534.086426</ele>
<time>2011-10-11T11:27:33Z</time>
<desc>lat.=44.522236, lon.=34.004147, Alt.=534.086426m. Speed=0.468000m/h.</desc>
<speed>0.130000</speed>
</trkpt>
<trkpt lat="44.522232" lon="34.004143">
<ele>534.367676</ele>
<time>2011-10-11T11:27:38Z</time>
<desc>lat.=44.522232, lon.=34.004143, Alt.=534.367676m. Speed=0.324000m/h.</desc>
<speed>0.090000</speed>
</trkpt>
<trkpt lat="44.522232" lon="34.004131">
<ele>534.648926</ele>
<time>2011-10-11T11:27:43Z</time>
<desc>lat.=44.522232, lon.=34.004131, Alt.=534.648926m. Speed=0.684000m/h.</desc>
<speed>0.190000</speed>
</trkpt>
<trkpt lat="44.522232" lon="34.004124">
<ele>534.945801</ele>
<time>2011-10-11T11:27:48Z</time>
<desc>lat.=44.522232, lon.=34.004124, Alt.=534.945801m. Speed=0.216000m/h.</desc>
<speed>0.060000</speed>
</trkpt>
<trkpt lat="44.522236" lon="34.004124">
<ele>535.211426</ele>
<time>2011-10-11T11:27:53Z</time>
<desc>lat.=44.522236, lon.=34.004124, Alt.=535.211426m. Speed=0.324000m/h.</desc>
<speed>0.090000</speed>
</trkpt>
<trkpt lat="44.522240" lon="34.004120">
<ele>535.492676</ele>
<time>2011-10-11T11:27:58Z</time>
<desc>lat.=44.522240, lon.=34.004120, Alt.=535.492676m. Speed=0.540000m/h.</desc>
<speed>0.150000</speed>
</trkpt>
<trkpt lat="44.522247" lon="34.004112">
<ele>535.758301</ele>
<time>2011-10-11T11:28:03Z</time>
<desc>lat.=44.522247, lon.=34.004112, Alt.=535.758301m. Speed=0.792000m/h.</desc>
<speed>0.220000</speed>
</trkpt>
<trkpt lat="44.522259" lon="34.004101">
<ele>535.977051</ele>
<time>2011-10-11T11:28:08Z</time>
<desc>lat.=44.522259, lon.=34.004101, Alt.=535.977051m. Speed=1.116000m/h.</desc>
<speed>0.310000</speed>
</trkpt>
<trkpt lat="44.522251" lon="34.004101">
<ele>536.414551</ele>
<time>2011-10-11T11:28:13Z</time>
<desc>lat.=44.522251, lon.=34.004101, Alt.=536.414551m. Speed=0.684000m/h.</desc>
<speed>0.190000</speed>
</trkpt>
<trkpt lat="44.522255" lon="34.004097">
<ele>536.680176</ele>
<time>2011-10-11T11:28:18Z</time>
<desc>lat.=44.522255, lon.=34.004097, Alt.=536.680176m. Speed=0.396000m/h.</desc>
<speed>0.110000</speed>
</trkpt>
<trkpt lat="44.522263" lon="34.004097">
<ele>536.961426</ele>
<time>2011-10-11T11:28:23Z</time>
<desc>lat.=44.522263, lon.=34.004097, Alt.=536.961426m. Speed=0.396000m/h.</desc>
<speed>0.110000</speed>
</trkpt>
<trkpt lat="44.522266" lon="34.004101">
<ele>537.242676</ele>
<time>2011-10-11T11:28:28Z</time>
<desc>lat.=44.522266, lon.=34.004101, Alt.=537.242676m. Speed=0.540000m/h.</desc>
<speed>0.150000</speed>
</trkpt>
<trkpt lat="44.522274" lon="34.004108">
<ele>537.508301</ele>
<time>2011-10-11T11:28:33Z</time>
<desc>lat.=44.522274, lon.=34.004108, Alt.=537.508301m. Speed=0.648000m/h.</desc>
<speed>0.180000</speed>
</trkpt>
<trkpt lat="44.522282" lon="34.004116">
<ele>537.789551</ele>
<time>2011-10-11T11:28:38Z</time>
<desc>lat.=44.522282, lon.=34.004116, Alt.=537.789551m. Speed=0.684000m/h.</desc>
<speed>0.190000</speed>
</trkpt>
<trkpt lat="44.522285" lon="34.004120">
<ele>538.070801</ele>
<time>2011-10-11T11:28:43Z</time>
<desc>lat.=44.522285, lon.=34.004120, Alt.=538.070801m. Speed=0.324000m/h.</desc>
<speed>0.090000</speed>
</trkpt>
<trkpt lat="44.522293" lon="34.004116">
<ele>538.336426</ele>
<time>2011-10-11T11:28:48Z</time>
<desc>lat.=44.522293, lon.=34.004116, Alt.=538.336426m. Speed=0.828000m/h.</desc>
<speed>0.230000</speed>
</trkpt>
<trkpt lat="44.522301" lon="34.004108">
<ele>538.617676</ele>
<time>2011-10-11T11:28:53Z</time>
<desc>lat.=44.522301, lon.=34.004108, Alt.=538.617676m. Speed=0.864000m/h.</desc>
<speed>0.240000</speed>
</trkpt>
<trkpt lat="44.522312" lon="34.004101">
<ele>538.898926</ele>
<time>2011-10-11T11:28:58Z</time>
<desc>lat.=44.522312, lon.=34.004101, Alt.=538.898926m. Speed=0.720000m/h.</desc>
<speed>0.200000</speed>
</trkpt>
<trkpt lat="44.522316" lon="34.004093">
<ele>539.164551</ele>
<time>2011-10-11T11:29:03Z</time>
<desc>lat.=44.522316, lon.=34.004093, Alt.=539.164551m. Speed=0.504000m/h.</desc>
<speed>0.140000</speed>
</trkpt>
<trkpt lat="44.522320" lon="34.004086">
<ele>539.445801</ele>
<time>2011-10-11T11:29:08Z</time>
<desc>lat.=44.522320, lon.=34.004086, Alt.=539.445801m. Speed=0.468000m/h.</desc>
<speed>0.130000</speed>
</trkpt>
<trkpt lat="44.522320" lon="34.004082">
<ele>539.727051</ele>
<time>2011-10-11T11:29:13Z</time>
<desc>lat.=44.522320, lon.=34.004082, Alt.=539.727051m. Speed=0.072000m/h.</desc>
<speed>0.020000</speed>
</trkpt>
<trkpt lat="44.522316" lon="34.004082">
<ele>539.992676</ele>
<time>2011-10-11T11:29:18Z</time>
<desc>lat.=44.522316, lon.=34.004082, Alt.=539.992676m. Speed=0.828000m/h.</desc>
<speed>0.230000</speed>
</trkpt>
<trkpt lat="44.522305" lon="34.004089">
<ele>540.273926</ele>
<time>2011-10-11T11:29:23Z</time>
<desc>lat.=44.522305, lon.=34.004089, Alt.=540.273926m. Speed=0.936000m/h.</desc>
<speed>0.260000</speed>
</trkpt>
<trkpt lat="44.522266" lon="34.004177">
<ele>540.695801</ele>
<time>2011-10-11T11:29:28Z</time>
<desc>lat.=44.522266, lon.=34.004177, Alt.=540.695801m. Speed=1.620000m/h.</desc>
<speed>0.450000</speed>
</trkpt>
<trkpt lat="44.522224" lon="34.004196">
<ele>541.008301</ele>
<time>2011-10-11T11:29:33Z</time>
<desc>lat.=44.522224, lon.=34.004196, Alt.=541.008301m. Speed=1.800000m/h.</desc>
<speed>0.500000</speed>
</trkpt>
<trkpt lat="44.522186" lon="34.004219">
<ele>541.289551</ele>
<time>2011-10-11T11:29:38Z</time>
<desc>lat.=44.522186, lon.=34.004219, Alt.=541.289551m. Speed=1.944000m/h.</desc>
<speed>0.540000</speed>
</trkpt>
<trkpt lat="44.522175" lon="34.004196">
<ele>541.398926</ele>
<time>2011-10-11T11:29:43Z</time>
<desc>lat.=44.522175, lon.=34.004196, Alt.=541.398926m. Speed=1.548000m/h.</desc>
<speed>0.430000</speed>
</trkpt>
<trkpt lat="44.522182" lon="34.004147">
<ele>541.664551</ele>
<time>2011-10-11T11:29:48Z</time>
<desc>lat.=44.522182, lon.=34.004147, Alt.=541.664551m. Speed=1.152000m/h.</desc>
<speed>0.320000</speed>
</trkpt>
<trkpt lat="44.522205" lon="34.004078">
<ele>542.023926</ele>
<time>2011-10-11T11:29:53Z</time>
<desc>lat.=44.522205, lon.=34.004078, Alt.=542.023926m. Speed=0.936000m/h.</desc>
<speed>0.260000</speed>
</trkpt>
<trkpt lat="44.522224" lon="34.004055">
<ele>542.117676</ele>
<time>2011-10-11T11:29:58Z</time>
<desc>lat.=44.522224, lon.=34.004055, Alt.=542.117676m. Speed=1.296000m/h.</desc>
<speed>0.360000</speed>
</trkpt>
<trkpt lat="44.522266" lon="34.004032">
<ele>542.273926</ele>
<time>2011-10-11T11:30:03Z</time>
<desc>lat.=44.522266, lon.=34.004032, Alt.=542.273926m. Speed=1.404000m/h.</desc>
<speed>0.390000</speed>
</trkpt>
<trkpt lat="44.522278" lon="34.004002">
<ele>542.570801</ele>
<time>2011-10-11T11:30:08Z</time>
<desc>lat.=44.522278, lon.=34.004002, Alt.=542.570801m. Speed=1.332000m/h.</desc>
<speed>0.370000</speed>
</trkpt>
<trkpt lat="44.522270" lon="34.004028">
<ele>542.945801</ele>
<time>2011-10-11T11:30:13Z</time>
<desc>lat.=44.522270, lon.=34.004028, Alt.=542.945801m. Speed=0.756000m/h.</desc>
<speed>0.210000</speed>
</trkpt>
<trkpt lat="44.522274" lon="34.004028">
<ele>543.211426</ele>
<time>2011-10-11T11:30:18Z</time>
<desc>lat.=44.522274, lon.=34.004028, Alt.=543.211426m. Speed=0.072000m/h.</desc>
<speed>0.020000</speed>
</trkpt>
<trkpt lat="44.522266" lon="34.004028">
<ele>543.445801</ele>
<time>2011-10-11T11:30:23Z</time>
<desc>lat.=44.522266, lon.=34.004028, Alt.=543.445801m. Speed=0.432000m/h.</desc>
<speed>0.120000</speed>
</trkpt>
<trkpt lat="44.522259" lon="34.004025">
<ele>543.680176</ele>
<time>2011-10-11T11:30:28Z</time>
<desc>lat.=44.522259, lon.=34.004025, Alt.=543.680176m. Speed=0.684000m/h.</desc>
<speed>0.190000</speed>
</trkpt>
<trkpt lat="44.522247" lon="34.004028">
<ele>543.914551</ele>
<time>2011-10-11T11:30:33Z</time>
<desc>lat.=44.522247, lon.=34.004028, Alt.=543.914551m. Speed=0.828000m/h.</desc>
<speed>0.230000</speed>
</trkpt>
<trkpt lat="44.522240" lon="34.004036">
<ele>544.164551</ele>
<time>2011-10-11T11:30:38Z</time>
<desc>lat.=44.522240, lon.=34.004036, Alt.=544.164551m. Speed=0.720000m/h.</desc>
<speed>0.200000</speed>
</trkpt>
<trkpt lat="44.522232" lon="34.004044">
<ele>544.398926</ele>
<time>2011-10-11T11:30:43Z</time>
<desc>lat.=44.522232, lon.=34.004044, Alt.=544.398926m. Speed=0.504000m/h.</desc>
<speed>0.140000</speed>
</trkpt>
<trkpt lat="44.522228" lon="34.004047">
<ele>544.570801</ele>
<time>2011-10-11T11:30:48Z</time>
<desc>lat.=44.522228, lon.=34.004047, Alt.=544.570801m. Speed=0.504000m/h.</desc>
<speed>0.140000</speed>
</trkpt>
<trkpt lat="44.522221" lon="34.004051">
<ele>544.742676</ele>
<time>2011-10-11T11:30:53Z</time>
<desc>lat.=44.522221, lon.=34.004051, Alt.=544.742676m. Speed=0.828000m/h.</desc>
<speed>0.230000</speed>
</trkpt>
<trkpt lat="44.522213" lon="34.004055">
<ele>544.883301</ele>
<time>2011-10-11T11:30:58Z</time>
<desc>lat.=44.522213, lon.=34.004055, Alt.=544.883301m. Speed=0.432000m/h.</desc>
<speed>0.120000</speed>
</trkpt>
<trkpt lat="44.522205" lon="34.004059">
<ele>545.008301</ele>
<time>2011-10-11T11:31:03Z</time>
<desc>lat.=44.522205, lon.=34.004059, Alt.=545.008301m. Speed=0.576000m/h.</desc>
<speed>0.160000</speed>
</trkpt>
<trkpt lat="44.522202" lon="34.004059">
<ele>545.133301</ele>
<time>2011-10-11T11:31:08Z</time>
<desc>lat.=44.522202, lon.=34.004059, Alt.=545.133301m. Speed=0.288000m/h.</desc>
<speed>0.080000</speed>
</trkpt>
<trkpt lat="44.522205" lon="34.004063">
<ele>545.242676</ele>
<time>2011-10-11T11:31:13Z</time>
<desc>lat.=44.522205, lon.=34.004063, Alt.=545.242676m. Speed=0.252000m/h.</desc>
<speed>0.070000</speed>
</trkpt>
<trkpt lat="44.522209" lon="34.004055">
<ele>545.320801</ele>
<time>2011-10-11T11:31:18Z</time>
<desc>lat.=44.522209, lon.=34.004055, Alt.=545.320801m. Speed=0.396000m/h.</desc>
<speed>0.110000</speed>
</trkpt>
<trkpt lat="44.522209" lon="34.004051">
<ele>545.430176</ele>
<time>2011-10-11T11:31:23Z</time>
<desc>lat.=44.522209, lon.=34.004051, Alt.=545.430176m. Speed=0.216000m/h.</desc>
<speed>0.060000</speed>
</trkpt>
<trkpt lat="44.522209" lon="34.004051">
<ele>545.633301</ele>
<time>2011-10-11T11:31:28Z</time>
<desc>lat.=44.522209, lon.=34.004051, Alt.=545.633301m. Speed=0.180000m/h.</desc>
<speed>0.050000</speed>
</trkpt>
<trkpt lat="44.522209" lon="34.004051">
<ele>545.867676</ele>
<time>2011-10-11T11:31:33Z</time>
<desc>lat.=44.522209, lon.=34.004051, Alt.=545.867676m. Speed=0.360000m/h.</desc>
<speed>0.100000</speed>
</trkpt>
<trkpt lat="44.522209" lon="34.004047">
<ele>546.195801</ele>
<time>2011-10-11T11:31:38Z</time>
<desc>lat.=44.522209, lon.=34.004047, Alt.=546.195801m. Speed=1.188000m/h.</desc>
<speed>0.330000</speed>
</trkpt>
<trkpt lat="44.522343" lon="34.003975">
<ele>548.117676</ele>
<time>2011-10-11T11:31:43Z</time>
<desc>lat.=44.522343, lon.=34.003975, Alt.=548.117676m. Speed=2.268000m/h.</desc>
<speed>0.630000</speed>
</trkpt>
<trkpt lat="44.522446" lon="34.003948">
<ele>545.883301</ele>
<time>2011-10-11T11:31:48Z</time>
<desc>lat.=44.522446, lon.=34.003948, Alt.=545.883301m. Speed=1.872000m/h.</desc>
<speed>0.520000</speed>
</trkpt>
<trkpt lat="44.522469" lon="34.003944">
<ele>545.867676</ele>
<time>2011-10-11T11:31:53Z</time>
<desc>lat.=44.522469, lon.=34.003944, Alt.=545.867676m. Speed=1.332000m/h.</desc>
<speed>0.370000</speed>
</trkpt>
<trkpt lat="44.522461" lon="34.003941">
<ele>546.883301</ele>
<time>2011-10-11T11:31:58Z</time>
<desc>lat.=44.522461, lon.=34.003941, Alt.=546.883301m. Speed=0.684000m/h.</desc>
<speed>0.190000</speed>
</trkpt>
<trkpt lat="44.522465" lon="34.003937">
<ele>547.273926</ele>
<time>2011-10-11T11:32:03Z</time>
<desc>lat.=44.522465, lon.=34.003937, Alt.=547.273926m. Speed=0.144000m/h.</desc>
<speed>0.040000</speed>
</trkpt>
<trkpt lat="44.522469" lon="34.003937">
<ele>547.602051</ele>
<time>2011-10-11T11:32:08Z</time>
<desc>lat.=44.522469, lon.=34.003937, Alt.=547.602051m. Speed=0.576000m/h.</desc>
<speed>0.160000</speed>
</trkpt>
<trkpt lat="44.522476" lon="34.003933">
<ele>547.914551</ele>
<time>2011-10-11T11:32:13Z</time>
<desc>lat.=44.522476, lon.=34.003933, Alt.=547.914551m. Speed=0.216000m/h.</desc>
<speed>0.060000</speed>
</trkpt>
<trkpt lat="44.522476" lon="34.003929">
<ele>548.414551</ele>
<time>2011-10-11T11:32:18Z</time>
<desc>lat.=44.522476, lon.=34.003929, Alt.=548.414551m. Speed=0.252000m/h.</desc>
<speed>0.070000</speed>
</trkpt>
<trkpt lat="44.522472" lon="34.003929">
<ele>548.930176</ele>
<time>2011-10-11T11:32:23Z</time>
<desc>lat.=44.522472, lon.=34.003929, Alt.=548.930176m. Speed=0.108000m/h.</desc>
<speed>0.030000</speed>
</trkpt>
<trkpt lat="44.522472" lon="34.003925">
<ele>549.414551</ele>
<time>2011-10-11T11:32:28Z</time>
<desc>lat.=44.522472, lon.=34.003925, Alt.=549.414551m. Speed=0.000000m/h.</desc>
<speed>0.000000</speed>
</trkpt>
<trkpt lat="44.522472" lon="34.003925">
<ele>549.898926</ele>
<time>2011-10-11T11:32:33Z</time>
<desc>lat.=44.522472, lon.=34.003925, Alt.=549.898926m. Speed=0.072000m/h.</desc>
<speed>0.020000</speed>
</trkpt>
<trkpt lat="44.522476" lon="34.003922">
<ele>550.414551</ele>
<time>2011-10-11T11:32:38Z</time>
<desc>lat.=44.522476, lon.=34.003922, Alt.=550.414551m. Speed=0.576000m/h.</desc>
<speed>0.160000</speed>
</trkpt>
<trkpt lat="44.522484" lon="34.003914">
<ele>550.945801</ele>
<time>2011-10-11T11:32:43Z</time>
<desc>lat.=44.522484, lon.=34.003914, Alt.=550.945801m. Speed=0.576000m/h.</desc>
<speed>0.160000</speed>
</trkpt>
<trkpt lat="44.522484" lon="34.003918">
<ele>551.617676</ele>
<time>2011-10-11T11:32:48Z</time>
<desc>lat.=44.522484, lon.=34.003918, Alt.=551.617676m. Speed=0.684000m/h.</desc>
<speed>0.190000</speed>
</trkpt>
<trkpt lat="44.522476" lon="34.003937">
<ele>552.195801</ele>
<time>2011-10-11T11:32:53Z</time>
<desc>lat.=44.522476, lon.=34.003937, Alt.=552.195801m. Speed=0.684000m/h.</desc>
<speed>0.190000</speed>
</trkpt>
<trkpt lat="44.522427" lon="34.003983">
<ele>552.195801</ele>
<time>2011-10-11T11:32:58Z</time>
<desc>lat.=44.522427, lon.=34.003983, Alt.=552.195801m. Speed=1.440000m/h.</desc>
<speed>0.400000</speed>
</trkpt>
<trkpt lat="44.522274" lon="34.004131">
<ele>550.148926</ele>
<time>2011-10-11T11:33:03Z</time>
<desc>lat.=44.522274, lon.=34.004131, Alt.=550.148926m. Speed=1.512000m/h.</desc>
<speed>0.420000</speed>
</trkpt>
<trkpt lat="44.522221" lon="34.004143">
<ele>550.320801</ele>
<time>2011-10-11T11:33:08Z</time>
<desc>lat.=44.522221, lon.=34.004143, Alt.=550.320801m. Speed=1.224000m/h.</desc>
<speed>0.340000</speed>
</trkpt>
<trkpt lat="44.522217" lon="34.004135">
<ele>550.836426</ele>
<time>2011-10-11T11:33:13Z</time>
<desc>lat.=44.522217, lon.=34.004135, Alt.=550.836426m. Speed=0.540000m/h.</desc>
<speed>0.150000</speed>
</trkpt>
<trkpt lat="44.522213" lon="34.004131">
<ele>551.383301</ele>
<time>2011-10-11T11:33:18Z</time>
<desc>lat.=44.522213, lon.=34.004131, Alt.=551.383301m. Speed=0.288000m/h.</desc>
<speed>0.080000</speed>
</trkpt>
<trkpt lat="44.522209" lon="34.004128">
<ele>551.914551</ele>
<time>2011-10-11T11:33:23Z</time>
<desc>lat.=44.522209, lon.=34.004128, Alt.=551.914551m. Speed=0.036000m/h.</desc>
<speed>0.010000</speed>
</trkpt>
<trkpt lat="44.522209" lon="34.004128">
<ele>552.445801</ele>
<time>2011-10-11T11:33:28Z</time>
<desc>lat.=44.522209, lon.=34.004128, Alt.=552.445801m. Speed=0.108000m/h.</desc>
<speed>0.030000</speed>
</trkpt>
<trkpt lat="44.522213" lon="34.004124">
<ele>552.914551</ele>
<time>2011-10-11T11:33:33Z</time>
<desc>lat.=44.522213, lon.=34.004124, Alt.=552.914551m. Speed=0.144000m/h.</desc>
<speed>0.040000</speed>
</trkpt>
<trkpt lat="44.522217" lon="34.004120">
<ele>553.273926</ele>
<time>2011-10-11T11:33:38Z</time>
<desc>lat.=44.522217, lon.=34.004120, Alt.=553.273926m. Speed=0.576000m/h.</desc>
<speed>0.160000</speed>
</trkpt>
<trkpt lat="44.522224" lon="34.004108">
<ele>553.633301</ele>
<time>2011-10-11T11:33:43Z</time>
<desc>lat.=44.522224, lon.=34.004108, Alt.=553.633301m. Speed=0.972000m/h.</desc>
<speed>0.270000</speed>
</trkpt>
<trkpt lat="44.522247" lon="34.004074">
<ele>553.430176</ele>
<time>2011-10-11T11:33:48Z</time>
<desc>lat.=44.522247, lon.=34.004074, Alt.=553.430176m. Speed=1.296000m/h.</desc>
<speed>0.360000</speed>
</trkpt>
<trkpt lat="44.522266" lon="34.004059">
<ele>554.523926</ele>
<time>2011-10-11T11:33:53Z</time>
<desc>lat.=44.522266, lon.=34.004059, Alt.=554.523926m. Speed=1.224000m/h.</desc>
<speed>0.340000</speed>
</trkpt>
<trkpt lat="44.522305" lon="34.004028">
<ele>556.133301</ele>
<time>2011-10-11T11:33:58Z</time>
<desc>lat.=44.522305, lon.=34.004028, Alt.=556.133301m. Speed=1.512000m/h.</desc>
<speed>0.420000</speed>
</trkpt>
<trkpt lat="44.522335" lon="34.004044">
<ele>557.133301</ele>
<time>2011-10-11T11:34:03Z</time>
<desc>lat.=44.522335, lon.=34.004044, Alt.=557.133301m. Speed=1.512000m/h.</desc>
<speed>0.420000</speed>
</trkpt>
<trkpt lat="44.522320" lon="34.004055">
<ele>557.773926</ele>
<time>2011-10-11T11:34:08Z</time>
<desc>lat.=44.522320, lon.=34.004055, Alt.=557.773926m. Speed=0.828000m/h.</desc>
<speed>0.230000</speed>
</trkpt>
<trkpt lat="44.522327" lon="34.004059">
<ele>558.633301</ele>
<time>2011-10-11T11:34:13Z</time>
<desc>lat.=44.522327, lon.=34.004059, Alt.=558.633301m. Speed=0.432000m/h.</desc>
<speed>0.120000</speed>
</trkpt>
<trkpt lat="44.522327" lon="34.004059">
<ele>559.352051</ele>
<time>2011-10-11T11:34:18Z</time>
<desc>lat.=44.522327, lon.=34.004059, Alt.=559.352051m. Speed=0.216000m/h.</desc>
<speed>0.060000</speed>
</trkpt>
<trkpt lat="44.522331" lon="34.004055">
<ele>560.148926</ele>
<time>2011-10-11T11:34:23Z</time>
<desc>lat.=44.522331, lon.=34.004055, Alt.=560.148926m. Speed=0.360000m/h.</desc>
<speed>0.100000</speed>
</trkpt>
<trkpt lat="44.522335" lon="34.004044">
<ele>561.008301</ele>
<time>2011-10-11T11:34:28Z</time>
<desc>lat.=44.522335, lon.=34.004044, Alt.=561.008301m. Speed=0.828000m/h.</desc>
<speed>0.230000</speed>
</trkpt>
<trkpt lat="44.522339" lon="34.004032">
<ele>561.867676</ele>
<time>2011-10-11T11:34:33Z</time>
<desc>lat.=44.522339, lon.=34.004032, Alt.=561.867676m. Speed=0.756000m/h.</desc>
<speed>0.210000</speed>
</trkpt>
<trkpt lat="44.522346" lon="34.004025">
<ele>562.758301</ele>
<time>2011-10-11T11:34:38Z</time>
<desc>lat.=44.522346, lon.=34.004025, Alt.=562.758301m. Speed=0.720000m/h.</desc>
<speed>0.200000</speed>
</trkpt>
<trkpt lat="44.522354" lon="34.004025">
<ele>563.664551</ele>
<time>2011-10-11T11:34:43Z</time>
<desc>lat.=44.522354, lon.=34.004025, Alt.=563.664551m. Speed=0.792000m/h.</desc>
<speed>0.220000</speed>
</trkpt>
<trkpt lat="44.522366" lon="34.004021">
<ele>564.367676</ele>
<time>2011-10-11T11:34:48Z</time>
<desc>lat.=44.522366, lon.=34.004021, Alt.=564.367676m. Speed=1.224000m/h.</desc>
<speed>0.340000</speed>
</trkpt>
<trkpt lat="44.522392" lon="34.004009">
<ele>563.586426</ele>
<time>2011-10-11T11:34:53Z</time>
<desc>lat.=44.522392, lon.=34.004009, Alt.=563.586426m. Speed=1.404000m/h.</desc>
<speed>0.390000</speed>
</trkpt>
<trkpt lat="44.522396" lon="34.003998">
<ele>562.977051</ele>
<time>2011-10-11T11:34:58Z</time>
<desc>lat.=44.522396, lon.=34.003998, Alt.=562.977051m. Speed=1.260000m/h.</desc>
<speed>0.350000</speed>
</trkpt>
<trkpt lat="44.522453" lon="34.003986">
<ele>562.180176</ele>
<time>2011-10-11T11:35:03Z</time>
<desc>lat.=44.522453, lon.=34.003986, Alt.=562.180176m. Speed=1.584000m/h.</desc>
<speed>0.440000</speed>
</trkpt>
<trkpt lat="44.522457" lon="34.003983">
<ele>562.461426</ele>
<time>2011-10-11T11:35:08Z</time>
<desc>lat.=44.522457, lon.=34.003983, Alt.=562.461426m. Speed=1.188000m/h.</desc>
<speed>0.330000</speed>
</trkpt>
<trkpt lat="44.522400" lon="34.004005">
<ele>563.461426</ele>
<time>2011-10-11T11:35:13Z</time>
<desc>lat.=44.522400, lon.=34.004005, Alt.=563.461426m. Speed=0.072000m/h.</desc>
<speed>0.020000</speed>
</trkpt>
<trkpt lat="44.522396" lon="34.004013">
<ele>564.039551</ele>
<time>2011-10-11T11:35:18Z</time>
<desc>lat.=44.522396, lon.=34.004013, Alt.=564.039551m. Speed=0.972000m/h.</desc>
<speed>0.270000</speed>
</trkpt>
<trkpt lat="44.522358" lon="34.004063">
<ele>564.492676</ele>
<time>2011-10-11T11:35:23Z</time>
<desc>lat.=44.522358, lon.=34.004063, Alt.=564.492676m. Speed=1.152000m/h.</desc>
<speed>0.320000</speed>
</trkpt>
<trkpt lat="44.522354" lon="34.004089">
<ele>564.367676</ele>
<time>2011-10-11T11:35:28Z</time>
<desc>lat.=44.522354, lon.=34.004089, Alt.=564.367676m. Speed=1.008000m/h.</desc>
<speed>0.280000</speed>
</trkpt>
<trkpt lat="44.522346" lon="34.004097">
<ele>564.164551</ele>
<time>2011-10-11T11:35:33Z</time>
<desc>lat.=44.522346, lon.=34.004097, Alt.=564.164551m. Speed=0.360000m/h.</desc>
<speed>0.100000</speed>
</trkpt>
<trkpt lat="44.522343" lon="34.004097">
<ele>564.430176</ele>
<time>2011-10-11T11:35:38Z</time>
<desc>lat.=44.522343, lon.=34.004097, Alt.=564.430176m. Speed=0.576000m/h.</desc>
<speed>0.160000</speed>
</trkpt>
<trkpt lat="44.522354" lon="34.004093">
<ele>562.852051</ele>
<time>2011-10-11T11:35:43Z</time>
<desc>lat.=44.522354, lon.=34.004093, Alt.=562.852051m. Speed=0.756000m/h.</desc>
<speed>0.210000</speed>
</trkpt>
<trkpt lat="44.522354" lon="34.004108">
<ele>561.898926</ele>
<time>2011-10-11T11:35:48Z</time>
<desc>lat.=44.522354, lon.=34.004108, Alt.=561.898926m. Speed=0.540000m/h.</desc>
<speed>0.150000</speed>
</trkpt>
<trkpt lat="44.522354" lon="34.004116">
<ele>561.039551</ele>
<time>2011-10-11T11:35:53Z</time>
<desc>lat.=44.522354, lon.=34.004116, Alt.=561.039551m. Speed=0.360000m/h.</desc>
<speed>0.100000</speed>
</trkpt>
<trkpt lat="44.522335" lon="34.004128">
<ele>560.945801</ele>
<time>2011-10-11T11:35:58Z</time>
<desc>lat.=44.522335, lon.=34.004128, Alt.=560.945801m. Speed=0.144000m/h.</desc>
<speed>0.040000</speed>
</trkpt>
<trkpt lat="44.522339" lon="34.004128">
<ele>560.461426</ele>
<time>2011-10-11T11:36:03Z</time>
<desc>lat.=44.522339, lon.=34.004128, Alt.=560.461426m. Speed=2.556000m/h.</desc>
<speed>0.710000</speed>
</trkpt>
<trkpt lat="44.522385" lon="34.004070">
<ele>558.180176</ele>
<time>2011-10-11T11:36:08Z</time>
<desc>lat.=44.522385, lon.=34.004070, Alt.=558.180176m. Speed=5.616000m/h.</desc>
<speed>1.560000</speed>
</trkpt>
<trkpt lat="44.522449" lon="34.004032">
<ele>555.977051</ele>
<time>2011-10-11T11:36:13Z</time>
<desc>lat.=44.522449, lon.=34.004032, Alt.=555.977051m. Speed=2.772000m/h.</desc>
<speed>0.770000</speed>
</trkpt>
<trkpt lat="44.522434" lon="34.004051">
<ele>553.133301</ele>
<time>2011-10-11T11:36:18Z</time>
<desc>lat.=44.522434, lon.=34.004051, Alt.=553.133301m. Speed=1.476000m/h.</desc>
<speed>0.410000</speed>
</trkpt>
<trkpt lat="44.522472" lon="34.004032">
<ele>551.148926</ele>
<time>2011-10-11T11:36:23Z</time>
<desc>lat.=44.522472, lon.=34.004032, Alt.=551.148926m. Speed=3.528000m/h.</desc>
<speed>0.980000</speed>
</trkpt>
<trkpt lat="44.522511" lon="34.004036">
<ele>547.242676</ele>
<time>2011-10-11T11:36:28Z</time>
<desc>lat.=44.522511, lon.=34.004036, Alt.=547.242676m. Speed=1.584000m/h.</desc>
<speed>0.440000</speed>
</trkpt>
<trkpt lat="44.522533" lon="34.004028">
<ele>545.555176</ele>
<time>2011-10-11T11:36:33Z</time>
<desc>lat.=44.522533, lon.=34.004028, Alt.=545.555176m. Speed=1.296000m/h.</desc>
<speed>0.360000</speed>
</trkpt>
<trkpt lat="44.522579" lon="34.004017">
<ele>544.336426</ele>
<time>2011-10-11T11:36:38Z</time>
<desc>lat.=44.522579, lon.=34.004017, Alt.=544.336426m. Speed=2.196000m/h.</desc>
<speed>0.610000</speed>
</trkpt>
<trkpt lat="44.522591" lon="34.004028">
<ele>543.133301</ele>
<time>2011-10-11T11:36:43Z</time>
<desc>lat.=44.522591, lon.=34.004028, Alt.=543.133301m. Speed=2.376000m/h.</desc>
<speed>0.660000</speed>
</trkpt>
<trkpt lat="44.522633" lon="34.004044">
<ele>542.305176</ele>
<time>2011-10-11T11:36:48Z</time>
<desc>lat.=44.522633, lon.=34.004044, Alt.=542.305176m. Speed=3.960000m/h.</desc>
<speed>1.100000</speed>
</trkpt>
<trkpt lat="44.522621" lon="34.004078">
<ele>542.914551</ele>
<time>2011-10-11T11:36:53Z</time>
<desc>lat.=44.522621, lon.=34.004078, Alt.=542.914551m. Speed=0.756000m/h.</desc>
<speed>0.210000</speed>
</trkpt>
<trkpt lat="44.522621" lon="34.004074">
<ele>543.039551</ele>
<time>2011-10-11T11:36:58Z</time>
<desc>lat.=44.522621, lon.=34.004074, Alt.=543.039551m. Speed=0.612000m/h.</desc>
<speed>0.170000</speed>
</trkpt>
<trkpt lat="44.522617" lon="34.004074">
<ele>542.930176</ele>
<time>2011-10-11T11:37:03Z</time>
<desc>lat.=44.522617, lon.=34.004074, Alt.=542.930176m. Speed=0.180000m/h.</desc>
<speed>0.050000</speed>
</trkpt>
<trkpt lat="44.522587" lon="34.004105">
<ele>541.758301</ele>
<time>2011-10-11T11:37:08Z</time>
<desc>lat.=44.522587, lon.=34.004105, Alt.=541.758301m. Speed=0.324000m/h.</desc>
<speed>0.090000</speed>
</trkpt>
<trkpt lat="44.522591" lon="34.004101">
<ele>541.586426</ele>
<time>2011-10-11T11:37:13Z</time>
<desc>lat.=44.522591, lon.=34.004101, Alt.=541.586426m. Speed=0.360000m/h.</desc>
<speed>0.100000</speed>
</trkpt>
<trkpt lat="44.522617" lon="34.004078">
<ele>540.477051</ele>
<time>2011-10-11T11:37:18Z</time>
<desc>lat.=44.522617, lon.=34.004078, Alt.=540.477051m. Speed=4.068000m/h.</desc>
<speed>1.130000</speed>
</trkpt>
<trkpt lat="44.522648" lon="34.004044">
<ele>539.086426</ele>
<time>2011-10-11T11:37:23Z</time>
<desc>lat.=44.522648, lon.=34.004044, Alt.=539.086426m. Speed=2.988000m/h.</desc>
<speed>0.830000</speed>
</trkpt>
<trkpt lat="44.522640" lon="34.003990">
<ele>537.742676</ele>
<time>2011-10-11T11:37:28Z</time>
<desc>lat.=44.522640, lon.=34.003990, Alt.=537.742676m. Speed=1.908000m/h.</desc>
<speed>0.530000</speed>
</trkpt>
<trkpt lat="44.522644" lon="34.003952">
<ele>536.258301</ele>
<time>2011-10-11T11:37:33Z</time>
<desc>lat.=44.522644, lon.=34.003952, Alt.=536.258301m. Speed=2.088000m/h.</desc>
<speed>0.580000</speed>
</trkpt>
<trkpt lat="44.522728" lon="34.003841">
<ele>535.305176</ele>
<time>2011-10-11T11:37:38Z</time>
<desc>lat.=44.522728, lon.=34.003841, Alt.=535.305176m. Speed=4.932000m/h.</desc>
<speed>1.370000</speed>
</trkpt>
<trkpt lat="44.522751" lon="34.003757">
<ele>534.430176</ele>
<time>2011-10-11T11:37:43Z</time>
<desc>lat.=44.522751, lon.=34.003757, Alt.=534.430176m. Speed=4.572000m/h.</desc>
<speed>1.270000</speed>
</trkpt>
<trkpt lat="44.522755" lon="34.003654">
<ele>532.836426</ele>
<time>2011-10-11T11:37:48Z</time>
<desc>lat.=44.522755, lon.=34.003654, Alt.=532.836426m. Speed=4.716000m/h.</desc>
<speed>1.310000</speed>
</trkpt>
<trkpt lat="44.522778" lon="34.003578">
<ele>531.398926</ele>
<time>2011-10-11T11:37:53Z</time>
<desc>lat.=44.522778, lon.=34.003578, Alt.=531.398926m. Speed=0.684000m/h.</desc>
<speed>0.190000</speed>
</trkpt>
<trkpt lat="44.522808" lon="34.003567">
<ele>527.070801</ele>
<time>2011-10-11T11:37:58Z</time>
<desc>lat.=44.522808, lon.=34.003567, Alt.=527.070801m. Speed=1.656000m/h.</desc>
<speed>0.460000</speed>
</trkpt>
<trkpt lat="44.522854" lon="34.003559">
<ele>524.867676</ele>
<time>2011-10-11T11:38:03Z</time>
<desc>lat.=44.522854, lon.=34.003559, Alt.=524.867676m. Speed=6.372000m/h.</desc>
<speed>1.770000</speed>
</trkpt>
<trkpt lat="44.522877" lon="34.003601">
<ele>523.352051</ele>
<time>2011-10-11T11:38:08Z</time>
<desc>lat.=44.522877, lon.=34.003601, Alt.=523.352051m. Speed=3.528000m/h.</desc>
<speed>0.980000</speed>
</trkpt>
<trkpt lat="44.522892" lon="34.003658">
<ele>519.289551</ele>
<time>2011-10-11T11:38:13Z</time>
<desc>lat.=44.522892, lon.=34.003658, Alt.=519.289551m. Speed=3.816000m/h.</desc>
<speed>1.060000</speed>
</trkpt>
<trkpt lat="44.522907" lon="34.003735">
<ele>516.711426</ele>
<time>2011-10-11T11:38:18Z</time>
<desc>lat.=44.522907, lon.=34.003735, Alt.=516.711426m. Speed=4.536000m/h.</desc>
<speed>1.260000</speed>
</trkpt>
<trkpt lat="44.522934" lon="34.003799">
<ele>515.789551</ele>
<time>2011-10-11T11:38:23Z</time>
<desc>lat.=44.522934, lon.=34.003799, Alt.=515.789551m. Speed=5.364000m/h.</desc>
<speed>1.490000</speed>
</trkpt>
<trkpt lat="44.522945" lon="34.003849">
<ele>516.758301</ele>
<time>2011-10-11T11:38:28Z</time>
<desc>lat.=44.522945, lon.=34.003849, Alt.=516.758301m. Speed=3.708000m/h.</desc>
<speed>1.030000</speed>
</trkpt>
<trkpt lat="44.522964" lon="34.003876">
<ele>519.070801</ele>
<time>2011-10-11T11:38:33Z</time>
<desc>lat.=44.522964, lon.=34.003876, Alt.=519.070801m. Speed=0.756000m/h.</desc>
<speed>0.210000</speed>
</trkpt>
<trkpt lat="44.523029" lon="34.003868">
<ele>521.852051</ele>
<time>2011-10-11T11:38:38Z</time>
<desc>lat.=44.523029, lon.=34.003868, Alt.=521.852051m. Speed=2.988000m/h.</desc>
<speed>0.830000</speed>
</trkpt>
<trkpt lat="44.523067" lon="34.003876">
<ele>524.367676</ele>
<time>2011-10-11T11:38:43Z</time>
<desc>lat.=44.523067, lon.=34.003876, Alt.=524.367676m. Speed=2.196000m/h.</desc>
<speed>0.610000</speed>
</trkpt>
<trkpt lat="44.523045" lon="34.003937">
<ele>524.977051</ele>
<time>2011-10-11T11:38:48Z</time>
<desc>lat.=44.523045, lon.=34.003937, Alt.=524.977051m. Speed=2.880000m/h.</desc>
<speed>0.800000</speed>
</trkpt>
<trkpt lat="44.523037" lon="34.004017">
<ele>526.258301</ele>
<time>2011-10-11T11:38:53Z</time>
<desc>lat.=44.523037, lon.=34.004017, Alt.=526.258301m. Speed=4.320000m/h.</desc>
<speed>1.200000</speed>
</trkpt>
<trkpt lat="44.523045" lon="34.004066">
<ele>528.914551</ele>
<time>2011-10-11T11:38:58Z</time>
<desc>lat.=44.523045, lon.=34.004066, Alt.=528.914551m. Speed=5.472000m/h.</desc>
<speed>1.520000</speed>
</trkpt>
<trkpt lat="44.523106" lon="34.004089">
<ele>529.445801</ele>
<time>2011-10-11T11:39:03Z</time>
<desc>lat.=44.523106, lon.=34.004089, Alt.=529.445801m. Speed=2.880000m/h.</desc>
<speed>0.800000</speed>
</trkpt>
<trkpt lat="44.523144" lon="34.004162">
<ele>531.383301</ele>
<time>2011-10-11T11:39:08Z</time>
<desc>lat.=44.523144, lon.=34.004162, Alt.=531.383301m. Speed=5.436000m/h.</desc>
<speed>1.510000</speed>
</trkpt>
<trkpt lat="44.523201" lon="34.004196">
<ele>533.367676</ele>
<time>2011-10-11T11:39:13Z</time>
<desc>lat.=44.523201, lon.=34.004196, Alt.=533.367676m. Speed=3.276000m/h.</desc>
<speed>0.910000</speed>
</trkpt>
<trkpt lat="44.523224" lon="34.004230">
<ele>532.664551</ele>
<time>2011-10-11T11:39:18Z</time>
<desc>lat.=44.523224, lon.=34.004230, Alt.=532.664551m. Speed=0.792000m/h.</desc>
<speed>0.220000</speed>
</trkpt>
<trkpt lat="44.523247" lon="34.004257">
<ele>531.883301</ele>
<time>2011-10-11T11:39:23Z</time>
<desc>lat.=44.523247, lon.=34.004257, Alt.=531.883301m. Speed=2.880000m/h.</desc>
<speed>0.800000</speed>
</trkpt>
<trkpt lat="44.523266" lon="34.004295">
<ele>532.242676</ele>
<time>2011-10-11T11:39:28Z</time>
<desc>lat.=44.523266, lon.=34.004295, Alt.=532.242676m. Speed=2.088000m/h.</desc>
<speed>0.580000</speed>
</trkpt>
<trkpt lat="44.523285" lon="34.004345">
<ele>532.711426</ele>
<time>2011-10-11T11:39:33Z</time>
<desc>lat.=44.523285, lon.=34.004345, Alt.=532.711426m. Speed=3.384000m/h.</desc>
<speed>0.940000</speed>
</trkpt>
<trkpt lat="44.523308" lon="34.004398">
<ele>531.539551</ele>
<time>2011-10-11T11:39:38Z</time>
<desc>lat.=44.523308, lon.=34.004398, Alt.=531.539551m. Speed=2.916000m/h.</desc>
<speed>0.810000</speed>
</trkpt>
<trkpt lat="44.523357" lon="34.004425">
<ele>529.898926</ele>
<time>2011-10-11T11:39:43Z</time>
<desc>lat.=44.523357, lon.=34.004425, Alt.=529.898926m. Speed=4.284000m/h.</desc>
<speed>1.190000</speed>
</trkpt>
<trkpt lat="44.523396" lon="34.004463">
<ele>527.789551</ele>
<time>2011-10-11T11:39:48Z</time>
<desc>lat.=44.523396, lon.=34.004463, Alt.=527.789551m. Speed=2.412000m/h.</desc>
<speed>0.670000</speed>
</trkpt>
<trkpt lat="44.523422" lon="34.004494">
<ele>525.961426</ele>
<time>2011-10-11T11:39:53Z</time>
<desc>lat.=44.523422, lon.=34.004494, Alt.=525.961426m. Speed=3.168000m/h.</desc>
<speed>0.880000</speed>
</trkpt>
<trkpt lat="44.523464" lon="34.004555">
<ele>525.336426</ele>
<time>2011-10-11T11:39:58Z</time>
<desc>lat.=44.523464, lon.=34.004555, Alt.=525.336426m. Speed=3.960000m/h.</desc>
<speed>1.100000</speed>
</trkpt>
<trkpt lat="44.523483" lon="34.004604">
<ele>524.227051</ele>
<time>2011-10-11T11:40:03Z</time>
<desc>lat.=44.523483, lon.=34.004604, Alt.=524.227051m. Speed=2.268000m/h.</desc>
<speed>0.630000</speed>
</trkpt>
<trkpt lat="44.523487" lon="34.004658">
<ele>523.352051</ele>
<time>2011-10-11T11:40:08Z</time>
<desc>lat.=44.523487, lon.=34.004658, Alt.=523.352051m. Speed=5.112000m/h.</desc>
<speed>1.420000</speed>
</trkpt>
<trkpt lat="44.523579" lon="34.004681">
<ele>523.273926</ele>
<time>2011-10-11T11:40:13Z</time>
<desc>lat.=44.523579, lon.=34.004681, Alt.=523.273926m. Speed=5.688000m/h.</desc>
<speed>1.580000</speed>
</trkpt>
<trkpt lat="44.523632" lon="34.004738">
<ele>522.992676</ele>
<time>2011-10-11T11:40:18Z</time>
<desc>lat.=44.523632, lon.=34.004738, Alt.=522.992676m. Speed=4.824000m/h.</desc>
<speed>1.340000</speed>
</trkpt>
<trkpt lat="44.523670" lon="34.004795">
<ele>524.070801</ele>
<time>2011-10-11T11:40:23Z</time>
<desc>lat.=44.523670, lon.=34.004795, Alt.=524.070801m. Speed=4.068000m/h.</desc>
<speed>1.130000</speed>
</trkpt>
<trkpt lat="44.523720" lon="34.004818">
<ele>523.820801</ele>
<time>2011-10-11T11:40:28Z</time>
<desc>lat.=44.523720, lon.=34.004818, Alt.=523.820801m. Speed=2.088000m/h.</desc>
<speed>0.580000</speed>
</trkpt>
<trkpt lat="44.523739" lon="34.004875">
<ele>522.977051</ele>
<time>2011-10-11T11:40:33Z</time>
<desc>lat.=44.523739, lon.=34.004875, Alt.=522.977051m. Speed=3.672000m/h.</desc>
<speed>1.020000</speed>
</trkpt>
<trkpt lat="44.523762" lon="34.004921">
<ele>522.539551</ele>
<time>2011-10-11T11:40:38Z</time>
<desc>lat.=44.523762, lon.=34.004921, Alt.=522.539551m. Speed=3.312000m/h.</desc>
<speed>0.920000</speed>
</trkpt>
<trkpt lat="44.523861" lon="34.004932">
<ele>525.633301</ele>
<time>2011-10-11T11:40:43Z</time>
<desc>lat.=44.523861, lon.=34.004932, Alt.=525.633301m. Speed=4.968000m/h.</desc>
<speed>1.380000</speed>
</trkpt>
<trkpt lat="44.523918" lon="34.004974">
<ele>523.602051</ele>
<time>2011-10-11T11:40:48Z</time>
<desc>lat.=44.523918, lon.=34.004974, Alt.=523.602051m. Speed=2.916000m/h.</desc>
<speed>0.810000</speed>
</trkpt>
<trkpt lat="44.523964" lon="34.005028">
<ele>523.133301</ele>
<time>2011-10-11T11:40:53Z</time>
<desc>lat.=44.523964, lon.=34.005028, Alt.=523.133301m. Speed=4.428000m/h.</desc>
<speed>1.230000</speed>
</trkpt>
<trkpt lat="44.524006" lon="34.005062">
<ele>523.570801</ele>
<time>2011-10-11T11:40:58Z</time>
<desc>lat.=44.524006, lon.=34.005062, Alt.=523.570801m. Speed=0.216000m/h.</desc>
<speed>0.060000</speed>
</trkpt>
<trkpt lat="44.524014" lon="34.005070">
<ele>523.461426</ele>
<time>2011-10-11T11:41:03Z</time>
<desc>lat.=44.524014, lon.=34.005070, Alt.=523.461426m. Speed=1.728000m/h.</desc>
<speed>0.480000</speed>
</trkpt>
<trkpt lat="44.524014" lon="34.005062">
<ele>523.617676</ele>
<time>2011-10-11T11:41:08Z</time>
<desc>lat.=44.524014, lon.=34.005062, Alt.=523.617676m. Speed=2.880000m/h.</desc>
<speed>0.800000</speed>
</trkpt>
<trkpt lat="44.524044" lon="34.005077">
<ele>524.211426</ele>
<time>2011-10-11T11:41:13Z</time>
<desc>lat.=44.524044, lon.=34.005077, Alt.=524.211426m. Speed=1.008000m/h.</desc>
<speed>0.280000</speed>
</trkpt>
<trkpt lat="44.524052" lon="34.005074">
<ele>525.133301</ele>
<time>2011-10-11T11:41:18Z</time>
<desc>lat.=44.524052, lon.=34.005074, Alt.=525.133301m. Speed=1.404000m/h.</desc>
<speed>0.390000</speed>
</trkpt>
<trkpt lat="44.524063" lon="34.005116">
<ele>524.617676</ele>
<time>2011-10-11T11:41:23Z</time>
<desc>lat.=44.524063, lon.=34.005116, Alt.=524.617676m. Speed=2.808000m/h.</desc>
<speed>0.780000</speed>
</trkpt>
<trkpt lat="44.524071" lon="34.005127">
<ele>524.492676</ele>
<time>2011-10-11T11:41:28Z</time>
<desc>lat.=44.524071, lon.=34.005127, Alt.=524.492676m. Speed=0.216000m/h.</desc>
<speed>0.060000</speed>
</trkpt>
<trkpt lat="44.524067" lon="34.005127">
<ele>524.086426</ele>
<time>2011-10-11T11:41:33Z</time>
<desc>lat.=44.524067, lon.=34.005127, Alt.=524.086426m. Speed=0.648000m/h.</desc>
<speed>0.180000</speed>
</trkpt>
<trkpt lat="44.524075" lon="34.005119">
<ele>524.383301</ele>
<time>2011-10-11T11:41:38Z</time>
<desc>lat.=44.524075, lon.=34.005119, Alt.=524.383301m. Speed=0.072000m/h.</desc>
<speed>0.020000</speed>
</trkpt>
<trkpt lat="44.524075" lon="34.005119">
<ele>524.320801</ele>
<time>2011-10-11T11:41:43Z</time>
<desc>lat.=44.524075, lon.=34.005119, Alt.=524.320801m. Speed=0.216000m/h.</desc>
<speed>0.060000</speed>
</trkpt>
<trkpt lat="44.524094" lon="34.005127">
<ele>523.820801</ele>
<time>2011-10-11T11:41:48Z</time>
<desc>lat.=44.524094, lon.=34.005127, Alt.=523.820801m. Speed=2.304000m/h.</desc>
<speed>0.640000</speed>
</trkpt>
<trkpt lat="44.524139" lon="34.005146">
<ele>523.414551</ele>
<time>2011-10-11T11:41:53Z</time>
<desc>lat.=44.524139, lon.=34.005146, Alt.=523.414551m. Speed=4.212000m/h.</desc>
<speed>1.170000</speed>
</trkpt>
<trkpt lat="44.524178" lon="34.005146">
<ele>522.023926</ele>
<time>2011-10-11T11:41:58Z</time>
<desc>lat.=44.524178, lon.=34.005146, Alt.=522.023926m. Speed=5.004000m/h.</desc>
<speed>1.390000</speed>
</trkpt>
<trkpt lat="44.524212" lon="34.005188">
<ele>523.555176</ele>
<time>2011-10-11T11:42:03Z</time>
<desc>lat.=44.524212, lon.=34.005188, Alt.=523.555176m. Speed=3.168000m/h.</desc>
<speed>0.880000</speed>
</trkpt>
<trkpt lat="44.524223" lon="34.005219">
<ele>524.398926</ele>
<time>2011-10-11T11:42:08Z</time>
<desc>lat.=44.524223, lon.=34.005219, Alt.=524.398926m. Speed=0.720000m/h.</desc>
<speed>0.200000</speed>
</trkpt>
<trkpt lat="44.524269" lon="34.005238">
<ele>525.148926</ele>
<time>2011-10-11T11:42:13Z</time>
<desc>lat.=44.524269, lon.=34.005238, Alt.=525.148926m. Speed=2.340000m/h.</desc>
<speed>0.650000</speed>
</trkpt>
<trkpt lat="44.524273" lon="34.005260">
<ele>525.789551</ele>
<time>2011-10-11T11:42:18Z</time>
<desc>lat.=44.524273, lon.=34.005260, Alt.=525.789551m. Speed=0.180000m/h.</desc>
<speed>0.050000</speed>
</trkpt>
<trkpt lat="44.524273" lon="34.005260">
<ele>525.727051</ele>
<time>2011-10-11T11:42:23Z</time>
<desc>lat.=44.524273, lon.=34.005260, Alt.=525.727051m. Speed=0.684000m/h.</desc>
<speed>0.190000</speed>
</trkpt>
<trkpt lat="44.524261" lon="34.005260">
<ele>524.305176</ele>
<time>2011-10-11T11:42:28Z</time>
<desc>lat.=44.524261, lon.=34.005260, Alt.=524.305176m. Speed=4.248000m/h.</desc>
<speed>1.180000</speed>
</trkpt>
<trkpt lat="44.524242" lon="34.005249">
<ele>523.602051</ele>
<time>2011-10-11T11:42:33Z</time>
<desc>lat.=44.524242, lon.=34.005249, Alt.=523.602051m. Speed=1.656000m/h.</desc>
<speed>0.460000</speed>
</trkpt>
<trkpt lat="44.524231" lon="34.005241">
<ele>523.070801</ele>
<time>2011-10-11T11:42:38Z</time>
<desc>lat.=44.524231, lon.=34.005241, Alt.=523.070801m. Speed=1.584000m/h.</desc>
<speed>0.440000</speed>
</trkpt>
<trkpt lat="44.524216" lon="34.005234">
<ele>522.867676</ele>
<time>2011-10-11T11:42:43Z</time>
<desc>lat.=44.524216, lon.=34.005234, Alt.=522.867676m. Speed=0.468000m/h.</desc>
<speed>0.130000</speed>
</trkpt>
<trkpt lat="44.524208" lon="34.005230">
<ele>522.602051</ele>
<time>2011-10-11T11:42:48Z</time>
<desc>lat.=44.524208, lon.=34.005230, Alt.=522.602051m. Speed=0.576000m/h.</desc>
<speed>0.160000</speed>
</trkpt>
<trkpt lat="44.524200" lon="34.005222">
<ele>522.523926</ele>
<time>2011-10-11T11:42:53Z</time>
<desc>lat.=44.524200, lon.=34.005222, Alt.=522.523926m. Speed=0.720000m/h.</desc>
<speed>0.200000</speed>
</trkpt>
<trkpt lat="44.524193" lon="34.005219">
<ele>522.477051</ele>
<time>2011-10-11T11:42:58Z</time>
<desc>lat.=44.524193, lon.=34.005219, Alt.=522.477051m. Speed=0.540000m/h.</desc>
<speed>0.150000</speed>
</trkpt>
<trkpt lat="44.524193" lon="34.005219">
<ele>522.461426</ele>
<time>2011-10-11T11:43:03Z</time>
<desc>lat.=44.524193, lon.=34.005219, Alt.=522.461426m. Speed=0.792000m/h.</desc>
<speed>0.220000</speed>
</trkpt>
<trkpt lat="44.524239" lon="34.005283">
<ele>522.992676</ele>
<time>2011-10-11T11:43:08Z</time>
<desc>lat.=44.524239, lon.=34.005283, Alt.=522.992676m. Speed=3.744000m/h.</desc>
<speed>1.040000</speed>
</trkpt>
<trkpt lat="44.524254" lon="34.005363">
<ele>520.539551</ele>
<time>2011-10-11T11:43:13Z</time>
<desc>lat.=44.524254, lon.=34.005363, Alt.=520.539551m. Speed=4.680000m/h.</desc>
<speed>1.300000</speed>
</trkpt>
<trkpt lat="44.524284" lon="34.005421">
<ele>519.977051</ele>
<time>2011-10-11T11:43:18Z</time>
<desc>lat.=44.524284, lon.=34.005421, Alt.=519.977051m. Speed=4.572000m/h.</desc>
<speed>1.270000</speed>
</trkpt>
<trkpt lat="44.524307" lon="34.005478">
<ele>519.555176</ele>
<time>2011-10-11T11:43:23Z</time>
<desc>lat.=44.524307, lon.=34.005478, Alt.=519.555176m. Speed=0.972000m/h.</desc>
<speed>0.270000</speed>
</trkpt>
<trkpt lat="44.524330" lon="34.005512">
<ele>519.305176</ele>
<time>2011-10-11T11:43:28Z</time>
<desc>lat.=44.524330, lon.=34.005512, Alt.=519.305176m. Speed=3.564000m/h.</desc>
<speed>0.990000</speed>
</trkpt>
<trkpt lat="44.524303" lon="34.005562">
<ele>517.836426</ele>
<time>2011-10-11T11:43:33Z</time>
<desc>lat.=44.524303, lon.=34.005562, Alt.=517.836426m. Speed=3.384000m/h.</desc>
<speed>0.940000</speed>
</trkpt>
<trkpt lat="44.524342" lon="34.005604">
<ele>520.992676</ele>
<time>2011-10-11T11:43:38Z</time>
<desc>lat.=44.524342, lon.=34.005604, Alt.=520.992676m. Speed=7.308000m/h.</desc>
<speed>2.030000</speed>
</trkpt>
<trkpt lat="44.524376" lon="34.005650">
<ele>521.836426</ele>
<time>2011-10-11T11:43:43Z</time>
<desc>lat.=44.524376, lon.=34.005650, Alt.=521.836426m. Speed=1.836000m/h.</desc>
<speed>0.510000</speed>
</trkpt>
<trkpt lat="44.524403" lon="34.005699">
<ele>522.602051</ele>
<time>2011-10-11T11:43:48Z</time>
<desc>lat.=44.524403, lon.=34.005699, Alt.=522.602051m. Speed=3.744000m/h.</desc>
<speed>1.040000</speed>
</trkpt>
<trkpt lat="44.524429" lon="34.005703">
<ele>523.367676</ele>
<time>2011-10-11T11:43:53Z</time>
<desc>lat.=44.524429, lon.=34.005703, Alt.=523.367676m. Speed=2.304000m/h.</desc>
<speed>0.640000</speed>
</trkpt>
<trkpt lat="44.524464" lon="34.005711">
<ele>524.258301</ele>
<time>2011-10-11T11:43:58Z</time>
<desc>lat.=44.524464, lon.=34.005711, Alt.=524.258301m. Speed=1.836000m/h.</desc>
<speed>0.510000</speed>
</trkpt>
<trkpt lat="44.524521" lon="34.005749">
<ele>525.102051</ele>
<time>2011-10-11T11:44:03Z</time>
<desc>lat.=44.524521, lon.=34.005749, Alt.=525.102051m. Speed=5.400000m/h.</desc>
<speed>1.500000</speed>
</trkpt>
<trkpt lat="44.524586" lon="34.005756">
<ele>525.227051</ele>
<time>2011-10-11T11:44:08Z</time>
<desc>lat.=44.524586, lon.=34.005756, Alt.=525.227051m. Speed=3.168000m/h.</desc>
<speed>0.880000</speed>
</trkpt>
<trkpt lat="44.524628" lon="34.005798">
<ele>523.727051</ele>
<time>2011-10-11T11:44:13Z</time>
<desc>lat.=44.524628, lon.=34.005798, Alt.=523.727051m. Speed=3.312000m/h.</desc>
<speed>0.920000</speed>
</trkpt>
<trkpt lat="44.524673" lon="34.005848">
<ele>526.086426</ele>
<time>2011-10-11T11:44:18Z</time>
<desc>lat.=44.524673, lon.=34.005848, Alt.=526.086426m. Speed=3.744000m/h.</desc>
<speed>1.040000</speed>
</trkpt>
<trkpt lat="44.524693" lon="34.005878">
<ele>528.164551</ele>
<time>2011-10-11T11:44:23Z</time>
<desc>lat.=44.524693, lon.=34.005878, Alt.=528.164551m. Speed=3.564000m/h.</desc>
<speed>0.990000</speed>
</trkpt>
<trkpt lat="44.524719" lon="34.005932">
<ele>528.055176</ele>
<time>2011-10-11T11:44:28Z</time>
<desc>lat.=44.524719, lon.=34.005932, Alt.=528.055176m. Speed=2.880000m/h.</desc>
<speed>0.800000</speed>
</trkpt>
<trkpt lat="44.524750" lon="34.005962">
<ele>528.633301</ele>
<time>2011-10-11T11:44:33Z</time>
<desc>lat.=44.524750, lon.=34.005962, Alt.=528.633301m. Speed=1.260000m/h.</desc>
<speed>0.350000</speed>
</trkpt>
<trkpt lat="44.524727" lon="34.005962">
<ele>528.836426</ele>
<time>2011-10-11T11:44:38Z</time>
<desc>lat.=44.524727, lon.=34.005962, Alt.=528.836426m. Speed=0.396000m/h.</desc>
<speed>0.110000</speed>
</trkpt>
<trkpt lat="44.524727" lon="34.005962">
<ele>528.695801</ele>
<time>2011-10-11T11:44:43Z</time>
<desc>lat.=44.524727, lon.=34.005962, Alt.=528.695801m. Speed=0.288000m/h.</desc>
<speed>0.080000</speed>
</trkpt>
<trkpt lat="44.524723" lon="34.005966">
<ele>528.711426</ele>
<time>2011-10-11T11:44:48Z</time>
<desc>lat.=44.524723, lon.=34.005966, Alt.=528.711426m. Speed=0.252000m/h.</desc>
<speed>0.070000</speed>
</trkpt>
<trkpt lat="44.524719" lon="34.005970">
<ele>528.148926</ele>
<time>2011-10-11T11:44:53Z</time>
<desc>lat.=44.524719, lon.=34.005970, Alt.=528.148926m. Speed=0.324000m/h.</desc>
<speed>0.090000</speed>
</trkpt>
<trkpt lat="44.524719" lon="34.005970">
<ele>528.117676</ele>
<time>2011-10-11T11:44:58Z</time>
<desc>lat.=44.524719, lon.=34.005970, Alt.=528.117676m. Speed=0.360000m/h.</desc>
<speed>0.100000</speed>
</trkpt>
<trkpt lat="44.524765" lon="34.005985">
<ele>528.180176</ele>
<time>2011-10-11T11:45:03Z</time>
<desc>lat.=44.524765, lon.=34.005985, Alt.=528.180176m. Speed=3.852000m/h.</desc>
<speed>1.070000</speed>
</trkpt>
<trkpt lat="44.524788" lon="34.006012">
<ele>529.492676</ele>
<time>2011-10-11T11:45:08Z</time>
<desc>lat.=44.524788, lon.=34.006012, Alt.=529.492676m. Speed=3.816000m/h.</desc>
<speed>1.060000</speed>
</trkpt>
<trkpt lat="44.524799" lon="34.006081">
<ele>530.383301</ele>
<time>2011-10-11T11:45:13Z</time>
<desc>lat.=44.524799, lon.=34.006081, Alt.=530.383301m. Speed=4.464000m/h.</desc>
<speed>1.240000</speed>
</trkpt>
<trkpt lat="44.524845" lon="34.006126">
<ele>530.039551</ele>
<time>2011-10-11T11:45:18Z</time>
<desc>lat.=44.524845, lon.=34.006126, Alt.=530.039551m. Speed=3.780000m/h.</desc>
<speed>1.050000</speed>
</trkpt>
<trkpt lat="44.524883" lon="34.006165">
<ele>530.539551</ele>
<time>2011-10-11T11:45:23Z</time>
<desc>lat.=44.524883, lon.=34.006165, Alt.=530.539551m. Speed=3.888000m/h.</desc>
<speed>1.080000</speed>
</trkpt>
<trkpt lat="44.524918" lon="34.006222">
<ele>530.414551</ele>
<time>2011-10-11T11:45:28Z</time>
<desc>lat.=44.524918, lon.=34.006222, Alt.=530.414551m. Speed=3.240000m/h.</desc>
<speed>0.900000</speed>
</trkpt>
<trkpt lat="44.524921" lon="34.006264">
<ele>531.227051</ele>
<time>2011-10-11T11:45:33Z</time>
<desc>lat.=44.524921, lon.=34.006264, Alt.=531.227051m. Speed=5.436000m/h.</desc>
<speed>1.510000</speed>
</trkpt>
<trkpt lat="44.524971" lon="34.006306">
<ele>531.258301</ele>
<time>2011-10-11T11:45:38Z</time>
<desc>lat.=44.524971, lon.=34.006306, Alt.=531.258301m. Speed=4.536000m/h.</desc>
<speed>1.260000</speed>
</trkpt>
<trkpt lat="44.524994" lon="34.006329">
<ele>532.008301</ele>
<time>2011-10-11T11:45:43Z</time>
<desc>lat.=44.524994, lon.=34.006329, Alt.=532.008301m. Speed=1.008000m/h.</desc>
<speed>0.280000</speed>
</trkpt>
<trkpt lat="44.525002" lon="34.006371">
<ele>532.508301</ele>
<time>2011-10-11T11:45:48Z</time>
<desc>lat.=44.525002, lon.=34.006371, Alt.=532.508301m. Speed=4.824000m/h.</desc>
<speed>1.340000</speed>
</trkpt>
<trkpt lat="44.525047" lon="34.006405">
<ele>531.836426</ele>
<time>2011-10-11T11:45:53Z</time>
<desc>lat.=44.525047, lon.=34.006405, Alt.=531.836426m. Speed=4.860000m/h.</desc>
<speed>1.350000</speed>
</trkpt>
<trkpt lat="44.525085" lon="34.006439">
<ele>532.617676</ele>
<time>2011-10-11T11:45:58Z</time>
<desc>lat.=44.525085, lon.=34.006439, Alt.=532.617676m. Speed=2.520000m/h.</desc>
<speed>0.700000</speed>
</trkpt>
<trkpt lat="44.525074" lon="34.006477">
<ele>533.508301</ele>
<time>2011-10-11T11:46:03Z</time>
<desc>lat.=44.525074, lon.=34.006477, Alt.=533.508301m. Speed=4.680000m/h.</desc>
<speed>1.300000</speed>
</trkpt>
<trkpt lat="44.525097" lon="34.006546">
<ele>533.492676</ele>
<time>2011-10-11T11:46:08Z</time>
<desc>lat.=44.525097, lon.=34.006546, Alt.=533.492676m. Speed=2.088000m/h.</desc>
<speed>0.580000</speed>
</trkpt>
<trkpt lat="44.525112" lon="34.006607">
<ele>532.992676</ele>
<time>2011-10-11T11:46:13Z</time>
<desc>lat.=44.525112, lon.=34.006607, Alt.=532.992676m. Speed=6.444000m/h.</desc>
<speed>1.790000</speed>
</trkpt>
<trkpt lat="44.525146" lon="34.006668">
<ele>532.898926</ele>
<time>2011-10-11T11:46:18Z</time>
<desc>lat.=44.525146, lon.=34.006668, Alt.=532.898926m. Speed=3.924000m/h.</desc>
<speed>1.090000</speed>
</trkpt>
<trkpt lat="44.525154" lon="34.006676">
<ele>532.523926</ele>
<time>2011-10-11T11:46:23Z</time>
<desc>lat.=44.525154, lon.=34.006676, Alt.=532.523926m. Speed=0.180000m/h.</desc>
<speed>0.050000</speed>
</trkpt>
<trkpt lat="44.525162" lon="34.006695">
<ele>532.742676</ele>
<time>2011-10-11T11:46:28Z</time>
<desc>lat.=44.525162, lon.=34.006695, Alt.=532.742676m. Speed=4.392000m/h.</desc>
<speed>1.220000</speed>
</trkpt>
<trkpt lat="44.525177" lon="34.006752">
<ele>532.977051</ele>
<time>2011-10-11T11:46:33Z</time>
<desc>lat.=44.525177, lon.=34.006752, Alt.=532.977051m. Speed=1.980000m/h.</desc>
<speed>0.550000</speed>
</trkpt>
<trkpt lat="44.525154" lon="34.006813">
<ele>533.602051</ele>
<time>2011-10-11T11:46:38Z</time>
<desc>lat.=44.525154, lon.=34.006813, Alt.=533.602051m. Speed=5.184000m/h.</desc>
<speed>1.440000</speed>
</trkpt>
<trkpt lat="44.525196" lon="34.006863">
<ele>534.617676</ele>
<time>2011-10-11T11:46:43Z</time>
<desc>lat.=44.525196, lon.=34.006863, Alt.=534.617676m. Speed=6.084000m/h.</desc>
<speed>1.690000</speed>
</trkpt>
<trkpt lat="44.525234" lon="34.006886">
<ele>537.273926</ele>
<time>2011-10-11T11:46:48Z</time>
<desc>lat.=44.525234, lon.=34.006886, Alt.=537.273926m. Speed=3.600000m/h.</desc>
<speed>1.000000</speed>
</trkpt>
<trkpt lat="44.525311" lon="34.006931">
<ele>537.695801</ele>
<time>2011-10-11T11:46:53Z</time>
<desc>lat.=44.525311, lon.=34.006931, Alt.=537.695801m. Speed=5.328000m/h.</desc>
<speed>1.480000</speed>
</trkpt>
<trkpt lat="44.525341" lon="34.006981">
<ele>537.961426</ele>
<time>2011-10-11T11:46:58Z</time>
<desc>lat.=44.525341, lon.=34.006981, Alt.=537.961426m. Speed=3.780000m/h.</desc>
<speed>1.050000</speed>
</trkpt>
<trkpt lat="44.525326" lon="34.007072">
<ele>536.227051</ele>
<time>2011-10-11T11:47:03Z</time>
<desc>lat.=44.525326, lon.=34.007072, Alt.=536.227051m. Speed=6.300000m/h.</desc>
<speed>1.750000</speed>
</trkpt>
<trkpt lat="44.525364" lon="34.007122">
<ele>535.820801</ele>
<time>2011-10-11T11:47:08Z</time>
<desc>lat.=44.525364, lon.=34.007122, Alt.=535.820801m. Speed=3.420000m/h.</desc>
<speed>0.950000</speed>
</trkpt>
<trkpt lat="44.525402" lon="34.007172">
<ele>537.164551</ele>
<time>2011-10-11T11:47:13Z</time>
<desc>lat.=44.525402, lon.=34.007172, Alt.=537.164551m. Speed=3.564000m/h.</desc>
<speed>0.990000</speed>
</trkpt>
<trkpt lat="44.525417" lon="34.007179">
<ele>537.695801</ele>
<time>2011-10-11T11:47:18Z</time>
<desc>lat.=44.525417, lon.=34.007179, Alt.=537.695801m. Speed=0.072000m/h.</desc>
<speed>0.020000</speed>
</trkpt>
<trkpt lat="44.525421" lon="34.007183">
<ele>538.180176</ele>
<time>2011-10-11T11:47:23Z</time>
<desc>lat.=44.525421, lon.=34.007183, Alt.=538.180176m. Speed=0.144000m/h.</desc>
<speed>0.040000</speed>
</trkpt>
<trkpt lat="44.525417" lon="34.007187">
<ele>537.992676</ele>
<time>2011-10-11T11:47:28Z</time>
<desc>lat.=44.525417, lon.=34.007187, Alt.=537.992676m. Speed=1.764000m/h.</desc>
<speed>0.490000</speed>
</trkpt>
<trkpt lat="44.525417" lon="34.007187">
<ele>537.320801</ele>
<time>2011-10-11T11:47:33Z</time>
<desc>lat.=44.525417, lon.=34.007187, Alt.=537.320801m. Speed=3.456000m/h.</desc>
<speed>0.960000</speed>
</trkpt>
<trkpt lat="44.525467" lon="34.007210">
<ele>538.211426</ele>
<time>2011-10-11T11:47:38Z</time>
<desc>lat.=44.525467, lon.=34.007210, Alt.=538.211426m. Speed=5.436000m/h.</desc>
<speed>1.510000</speed>
</trkpt>
<trkpt lat="44.525494" lon="34.007225">
<ele>538.758301</ele>
<time>2011-10-11T11:47:43Z</time>
<desc>lat.=44.525494, lon.=34.007225, Alt.=538.758301m. Speed=2.916000m/h.</desc>
<speed>0.810000</speed>
</trkpt>
<trkpt lat="44.525509" lon="34.007252">
<ele>537.898926</ele>
<time>2011-10-11T11:47:48Z</time>
<desc>lat.=44.525509, lon.=34.007252, Alt.=537.898926m. Speed=1.908000m/h.</desc>
<speed>0.530000</speed>
</trkpt>
<trkpt lat="44.525528" lon="34.007282">
<ele>537.523926</ele>
<time>2011-10-11T11:47:53Z</time>
<desc>lat.=44.525528, lon.=34.007282, Alt.=537.523926m. Speed=3.564000m/h.</desc>
<speed>0.990000</speed>
</trkpt>
<trkpt lat="44.525528" lon="34.007332">
<ele>537.664551</ele>
<time>2011-10-11T11:47:58Z</time>
<desc>lat.=44.525528, lon.=34.007332, Alt.=537.664551m. Speed=2.628000m/h.</desc>
<speed>0.730000</speed>
</trkpt>
<trkpt lat="44.525558" lon="34.007343">
<ele>539.789551</ele>
<time>2011-10-11T11:48:03Z</time>
<desc>lat.=44.525558, lon.=34.007343, Alt.=539.789551m. Speed=0.972000m/h.</desc>
<speed>0.270000</speed>
</trkpt>
<trkpt lat="44.525558" lon="34.007351">
<ele>540.398926</ele>
<time>2011-10-11T11:48:08Z</time>
<desc>lat.=44.525558, lon.=34.007351, Alt.=540.398926m. Speed=1.836000m/h.</desc>
<speed>0.510000</speed>
</trkpt>
<trkpt lat="44.525570" lon="34.007408">
<ele>542.758301</ele>
<time>2011-10-11T11:48:13Z</time>
<desc>lat.=44.525570, lon.=34.007408, Alt.=542.758301m. Speed=4.356000m/h.</desc>
<speed>1.210000</speed>
</trkpt>
<trkpt lat="44.525608" lon="34.007458">
<ele>545.258301</ele>
<time>2011-10-11T11:48:18Z</time>
<desc>lat.=44.525608, lon.=34.007458, Alt.=545.258301m. Speed=3.060000m/h.</desc>
<speed>0.850000</speed>
</trkpt>
<trkpt lat="44.525639" lon="34.007504">
<ele>547.805176</ele>
<time>2011-10-11T11:48:23Z</time>
<desc>lat.=44.525639, lon.=34.007504, Alt.=547.805176m. Speed=1.116000m/h.</desc>
<speed>0.310000</speed>
</trkpt>
<trkpt lat="44.525658" lon="34.007553">
<ele>550.867676</ele>
<time>2011-10-11T11:48:28Z</time>
<desc>lat.=44.525658, lon.=34.007553, Alt.=550.867676m. Speed=4.032000m/h.</desc>
<speed>1.120000</speed>
</trkpt>
<trkpt lat="44.525681" lon="34.007610">
<ele>553.445801</ele>
<time>2011-10-11T11:48:33Z</time>
<desc>lat.=44.525681, lon.=34.007610, Alt.=553.445801m. Speed=3.600000m/h.</desc>
<speed>1.000000</speed>
</trkpt>
<trkpt lat="44.525723" lon="34.007664">
<ele>554.398926</ele>
<time>2011-10-11T11:48:38Z</time>
<desc>lat.=44.525723, lon.=34.007664, Alt.=554.398926m. Speed=3.852000m/h.</desc>
<speed>1.070000</speed>
</trkpt>
<trkpt lat="44.525761" lon="34.007721">
<ele>551.711426</ele>
<time>2011-10-11T11:48:43Z</time>
<desc>lat.=44.525761, lon.=34.007721, Alt.=551.711426m. Speed=3.276000m/h.</desc>
<speed>0.910000</speed>
</trkpt>
<trkpt lat="44.525776" lon="34.007774">
<ele>550.539551</ele>
<time>2011-10-11T11:48:48Z</time>
<desc>lat.=44.525776, lon.=34.007774, Alt.=550.539551m. Speed=3.672000m/h.</desc>
<speed>1.020000</speed>
</trkpt>
<trkpt lat="44.525818" lon="34.007816">
<ele>548.773926</ele>
<time>2011-10-11T11:48:53Z</time>
<desc>lat.=44.525818, lon.=34.007816, Alt.=548.773926m. Speed=4.284000m/h.</desc>
<speed>1.190000</speed>
</trkpt>
<trkpt lat="44.525852" lon="34.007862">
<ele>545.383301</ele>
<time>2011-10-11T11:48:58Z</time>
<desc>lat.=44.525852, lon.=34.007862, Alt.=545.383301m. Speed=4.932000m/h.</desc>
<speed>1.370000</speed>
</trkpt>
<trkpt lat="44.525852" lon="34.007938">
<ele>542.648926</ele>
<time>2011-10-11T11:49:03Z</time>
<desc>lat.=44.525852, lon.=34.007938, Alt.=542.648926m. Speed=4.140000m/h.</desc>
<speed>1.150000</speed>
</trkpt>
<trkpt lat="44.525864" lon="34.007965">
<ele>542.898926</ele>
<time>2011-10-11T11:49:08Z</time>
<desc>lat.=44.525864, lon.=34.007965, Alt.=542.898926m. Speed=0.396000m/h.</desc>
<speed>0.110000</speed>
</trkpt>
<trkpt lat="44.525864" lon="34.007977">
<ele>543.352051</ele>
<time>2011-10-11T11:49:13Z</time>
<desc>lat.=44.525864, lon.=34.007977, Alt.=543.352051m. Speed=0.180000m/h.</desc>
<speed>0.050000</speed>
</trkpt>
<trkpt lat="44.525864" lon="34.007973">
<ele>543.055176</ele>
<time>2011-10-11T11:49:18Z</time>
<desc>lat.=44.525864, lon.=34.007973, Alt.=543.055176m. Speed=0.288000m/h.</desc>
<speed>0.080000</speed>
</trkpt>
<trkpt lat="44.525860" lon="34.007977">
<ele>542.680176</ele>
<time>2011-10-11T11:49:23Z</time>
<desc>lat.=44.525860, lon.=34.007977, Alt.=542.680176m. Speed=0.360000m/h.</desc>
<speed>0.100000</speed>
</trkpt>
<trkpt lat="44.525856" lon="34.007977">
<ele>542.758301</ele>
<time>2011-10-11T11:49:28Z</time>
<desc>lat.=44.525856, lon.=34.007977, Alt.=542.758301m. Speed=0.072000m/h.</desc>
<speed>0.020000</speed>
</trkpt>
<trkpt lat="44.525875" lon="34.007988">
<ele>542.492676</ele>
<time>2011-10-11T11:49:33Z</time>
<desc>lat.=44.525875, lon.=34.007988, Alt.=542.492676m. Speed=0.468000m/h.</desc>
<speed>0.130000</speed>
</trkpt>
<trkpt lat="44.525879" lon="34.007980">
<ele>542.492676</ele>
<time>2011-10-11T11:49:38Z</time>
<desc>lat.=44.525879, lon.=34.007980, Alt.=542.492676m. Speed=0.216000m/h.</desc>
<speed>0.060000</speed>
</trkpt>
<trkpt lat="44.525875" lon="34.007980">
<ele>542.352051</ele>
<time>2011-10-11T11:49:43Z</time>
<desc>lat.=44.525875, lon.=34.007980, Alt.=542.352051m. Speed=1.476000m/h.</desc>
<speed>0.410000</speed>
</trkpt>
<trkpt lat="44.525856" lon="34.007961">
<ele>541.164551</ele>
<time>2011-10-11T11:49:48Z</time>
<desc>lat.=44.525856, lon.=34.007961, Alt.=541.164551m. Speed=0.072000m/h.</desc>
<speed>0.020000</speed>
</trkpt>
<trkpt lat="44.525852" lon="34.007961">
<ele>540.727051</ele>
<time>2011-10-11T11:49:53Z</time>
<desc>lat.=44.525852, lon.=34.007961, Alt.=540.727051m. Speed=0.216000m/h.</desc>
<speed>0.060000</speed>
</trkpt>
<trkpt lat="44.525852" lon="34.007965">
<ele>540.523926</ele>
<time>2011-10-11T11:49:58Z</time>
<desc>lat.=44.525852, lon.=34.007965, Alt.=540.523926m. Speed=0.288000m/h.</desc>
<speed>0.080000</speed>
</trkpt>
<trkpt lat="44.525852" lon="34.007969">
<ele>540.320801</ele>
<time>2011-10-11T11:50:03Z</time>
<desc>lat.=44.525852, lon.=34.007969, Alt.=540.320801m. Speed=1.368000m/h.</desc>
<speed>0.380000</speed>
</trkpt>
<trkpt lat="44.525852" lon="34.007961">
<ele>540.711426</ele>
<time>2011-10-11T11:50:08Z</time>
<desc>lat.=44.525852, lon.=34.007961, Alt.=540.711426m. Speed=0.324000m/h.</desc>
<speed>0.090000</speed>
</trkpt>
<trkpt lat="44.525856" lon="34.007961">
<ele>540.711426</ele>
<time>2011-10-11T11:50:13Z</time>
<desc>lat.=44.525856, lon.=34.007961, Alt.=540.711426m. Speed=0.072000m/h.</desc>
<speed>0.020000</speed>
</trkpt>
<trkpt lat="44.525856" lon="34.007961">
<ele>540.695801</ele>
<time>2011-10-11T11:50:18Z</time>
<desc>lat.=44.525856, lon.=34.007961, Alt.=540.695801m. Speed=0.180000m/h.</desc>
<speed>0.050000</speed>
</trkpt>
<trkpt lat="44.525856" lon="34.007965">
<ele>540.664551</ele>
<time>2011-10-11T11:50:23Z</time>
<desc>lat.=44.525856, lon.=34.007965, Alt.=540.664551m. Speed=0.756000m/h.</desc>
<speed>0.210000</speed>
</trkpt>
<trkpt lat="44.525837" lon="34.007969">
<ele>540.445801</ele>
<time>2011-10-11T11:50:28Z</time>
<desc>lat.=44.525837, lon.=34.007969, Alt.=540.445801m. Speed=1.260000m/h.</desc>
<speed>0.350000</speed>
</trkpt>
<trkpt lat="44.525837" lon="34.007965">
<ele>540.008301</ele>
<time>2011-10-11T11:50:33Z</time>
<desc>lat.=44.525837, lon.=34.007965, Alt.=540.008301m. Speed=1.080000m/h.</desc>
<speed>0.300000</speed>
</trkpt>
<trkpt lat="44.525841" lon="34.007980">
<ele>539.758301</ele>
<time>2011-10-11T11:50:38Z</time>
<desc>lat.=44.525841, lon.=34.007980, Alt.=539.758301m. Speed=1.404000m/h.</desc>
<speed>0.390000</speed>
</trkpt>
<trkpt lat="44.525848" lon="34.007988">
<ele>539.008301</ele>
<time>2011-10-11T11:50:43Z</time>
<desc>lat.=44.525848, lon.=34.007988, Alt.=539.008301m. Speed=0.036000m/h.</desc>
<speed>0.010000</speed>
</trkpt>
<trkpt lat="44.525848" lon="34.007988">
<ele>538.164551</ele>
<time>2011-10-11T11:50:48Z</time>
<desc>lat.=44.525848, lon.=34.007988, Alt.=538.164551m. Speed=0.144000m/h.</desc>
<speed>0.040000</speed>
</trkpt>
<trkpt lat="44.525867" lon="34.007988">
<ele>537.539551</ele>
<time>2011-10-11T11:50:53Z</time>
<desc>lat.=44.525867, lon.=34.007988, Alt.=537.539551m. Speed=1.584000m/h.</desc>
<speed>0.440000</speed>
</trkpt>
<trkpt lat="44.525852" lon="34.007961">
<ele>536.695801</ele>
<time>2011-10-11T11:50:58Z</time>
<desc>lat.=44.525852, lon.=34.007961, Alt.=536.695801m. Speed=0.216000m/h.</desc>
<speed>0.060000</speed>
</trkpt>
<trkpt lat="44.525852" lon="34.007965">
<ele>536.695801</ele>
<time>2011-10-11T11:51:03Z</time>
<desc>lat.=44.525852, lon.=34.007965, Alt.=536.695801m. Speed=0.360000m/h.</desc>
<speed>0.100000</speed>
</trkpt>
<trkpt lat="44.525852" lon="34.007965">
<ele>536.695801</ele>
<time>2011-10-11T11:51:08Z</time>
<desc>lat.=44.525852, lon.=34.007965, Alt.=536.695801m. Speed=0.000000m/h.</desc>
<speed>0.000000</speed>
</trkpt>
<trkpt lat="44.525852" lon="34.007965">
<ele>536.648926</ele>
<time>2011-10-11T11:51:13Z</time>
<desc>lat.=44.525852, lon.=34.007965, Alt.=536.648926m. Speed=0.000000m/h.</desc>
<speed>0.000000</speed>
</trkpt>
<trkpt lat="44.525848" lon="34.007969">
<ele>536.555176</ele>
<time>2011-10-11T11:51:18Z</time>
<desc>lat.=44.525848, lon.=34.007969, Alt.=536.555176m. Speed=0.072000m/h.</desc>
<speed>0.020000</speed>
</trkpt>
<trkpt lat="44.525848" lon="34.007969">
<ele>536.398926</ele>
<time>2011-10-11T11:51:23Z</time>
<desc>lat.=44.525848, lon.=34.007969, Alt.=536.398926m. Speed=0.000000m/h.</desc>
<speed>0.000000</speed>
</trkpt>
<trkpt lat="44.525848" lon="34.007969">
<ele>536.289551</ele>
<time>2011-10-11T11:51:28Z</time>
<desc>lat.=44.525848, lon.=34.007969, Alt.=536.289551m. Speed=0.108000m/h.</desc>
<speed>0.030000</speed>
</trkpt>
<trkpt lat="44.525848" lon="34.007969">
<ele>536.148926</ele>
<time>2011-10-11T11:51:33Z</time>
<desc>lat.=44.525848, lon.=34.007969, Alt.=536.148926m. Speed=0.108000m/h.</desc>
<speed>0.030000</speed>
</trkpt>
<trkpt lat="44.525848" lon="34.007973">
<ele>536.008301</ele>
<time>2011-10-11T11:51:38Z</time>
<desc>lat.=44.525848, lon.=34.007973, Alt.=536.008301m. Speed=0.000000m/h.</desc>
<speed>0.000000</speed>
</trkpt>
<trkpt lat="44.525848" lon="34.007973">
<ele>535.852051</ele>
<time>2011-10-11T11:51:43Z</time>
<desc>lat.=44.525848, lon.=34.007973, Alt.=535.852051m. Speed=0.000000m/h.</desc>
<speed>0.000000</speed>
</trkpt>
<trkpt lat="44.525848" lon="34.007973">
<ele>535.695801</ele>
<time>2011-10-11T11:51:48Z</time>
<desc>lat.=44.525848, lon.=34.007973, Alt.=535.695801m. Speed=0.072000m/h.</desc>
<speed>0.020000</speed>
</trkpt>
<trkpt lat="44.525845" lon="34.007973">
<ele>535.539551</ele>
<time>2011-10-11T11:51:53Z</time>
<desc>lat.=44.525845, lon.=34.007973, Alt.=535.539551m. Speed=0.072000m/h.</desc>
<speed>0.020000</speed>
</trkpt>
<trkpt lat="44.525845" lon="34.007973">
<ele>535.383301</ele>
<time>2011-10-11T11:51:58Z</time>
<desc>lat.=44.525845, lon.=34.007973, Alt.=535.383301m. Speed=0.036000m/h.</desc>
<speed>0.010000</speed>
</trkpt>
<trkpt lat="44.525845" lon="34.007977">
<ele>535.273926</ele>
<time>2011-10-11T11:52:03Z</time>
<desc>lat.=44.525845, lon.=34.007977, Alt.=535.273926m. Speed=0.000000m/h.</desc>
<speed>0.000000</speed>
</trkpt>
<trkpt lat="44.525845" lon="34.007977">
<ele>535.180176</ele>
<time>2011-10-11T11:52:08Z</time>
<desc>lat.=44.525845, lon.=34.007977, Alt.=535.180176m. Speed=0.000000m/h.</desc>
<speed>0.000000</speed>
</trkpt>
<trkpt lat="44.525845" lon="34.007977">
<ele>535.086426</ele>
<time>2011-10-11T11:52:13Z</time>
<desc>lat.=44.525845, lon.=34.007977, Alt.=535.086426m. Speed=0.072000m/h.</desc>
<speed>0.020000</speed>
</trkpt>
<trkpt lat="44.525845" lon="34.007977">
<ele>535.008301</ele>
<time>2011-10-11T11:52:18Z</time>
<desc>lat.=44.525845, lon.=34.007977, Alt.=535.008301m. Speed=0.072000m/h.</desc>
<speed>0.020000</speed>
</trkpt>
<trkpt lat="44.525841" lon="34.007977">
<ele>534.930176</ele>
<time>2011-10-11T11:52:23Z</time>
<desc>lat.=44.525841, lon.=34.007977, Alt.=534.930176m. Speed=0.036000m/h.</desc>
<speed>0.010000</speed>
</trkpt>
<trkpt lat="44.525841" lon="34.007980">
<ele>534.930176</ele>
<time>2011-10-11T11:52:28Z</time>
<desc>lat.=44.525841, lon.=34.007980, Alt.=534.930176m. Speed=0.000000m/h.</desc>
<speed>0.000000</speed>
</trkpt>
<trkpt lat="44.525841" lon="34.007980">
<ele>534.867676</ele>
<time>2011-10-11T11:52:33Z</time>
<desc>lat.=44.525841, lon.=34.007980, Alt.=534.867676m. Speed=0.072000m/h.</desc>
<speed>0.020000</speed>
</trkpt>
<trkpt lat="44.525841" lon="34.007980">
<ele>534.789551</ele>
<time>2011-10-11T11:52:38Z</time>
<desc>lat.=44.525841, lon.=34.007980, Alt.=534.789551m. Speed=0.036000m/h.</desc>
<speed>0.010000</speed>
</trkpt>
<trkpt lat="44.525841" lon="34.007984">
<ele>534.664551</ele>
<time>2011-10-11T11:52:43Z</time>
<desc>lat.=44.525841, lon.=34.007984, Alt.=534.664551m. Speed=0.144000m/h.</desc>
<speed>0.040000</speed>
</trkpt>
<trkpt lat="44.525841" lon="34.007984">
<ele>534.508301</ele>
<time>2011-10-11T11:52:48Z</time>
<desc>lat.=44.525841, lon.=34.007984, Alt.=534.508301m. Speed=0.108000m/h.</desc>
<speed>0.030000</speed>
</trkpt>
<trkpt lat="44.525837" lon="34.007984">
<ele>534.383301</ele>
<time>2011-10-11T11:52:53Z</time>
<desc>lat.=44.525837, lon.=34.007984, Alt.=534.383301m. Speed=0.000000m/h.</desc>
<speed>0.000000</speed>
</trkpt>
<trkpt lat="44.525837" lon="34.007984">
<ele>534.258301</ele>
<time>2011-10-11T11:52:58Z</time>
<desc>lat.=44.525837, lon.=34.007984, Alt.=534.258301m. Speed=0.180000m/h.</desc>
<speed>0.050000</speed>
</trkpt>
<trkpt lat="44.525837" lon="34.007988">
<ele>534.102051</ele>
<time>2011-10-11T11:53:03Z</time>
<desc>lat.=44.525837, lon.=34.007988, Alt.=534.102051m. Speed=0.072000m/h.</desc>
<speed>0.020000</speed>
</trkpt>
<trkpt lat="44.525837" lon="34.007988">
<ele>533.961426</ele>
<time>2011-10-11T11:53:08Z</time>
<desc>lat.=44.525837, lon.=34.007988, Alt.=533.961426m. Speed=0.072000m/h.</desc>
<speed>0.020000</speed>
</trkpt>
<trkpt lat="44.525837" lon="34.007988">
<ele>533.820801</ele>
<time>2011-10-11T11:53:13Z</time>
<desc>lat.=44.525837, lon.=34.007988, Alt.=533.820801m. Speed=0.000000m/h.</desc>
<speed>0.000000</speed>
</trkpt>
<trkpt lat="44.525837" lon="34.007988">
<ele>533.727051</ele>
<time>2011-10-11T11:53:18Z</time>
<desc>lat.=44.525837, lon.=34.007988, Alt.=533.727051m. Speed=0.036000m/h.</desc>
<speed>0.010000</speed>
</trkpt>
<trkpt lat="44.525837" lon="34.007988">
<ele>533.648926</ele>
<time>2011-10-11T11:53:23Z</time>
<desc>lat.=44.525837, lon.=34.007988, Alt.=533.648926m. Speed=0.000000m/h.</desc>
<speed>0.000000</speed>
</trkpt>
<trkpt lat="44.525833" lon="34.007992">
<ele>533.586426</ele>
<time>2011-10-11T11:53:28Z</time>
<desc>lat.=44.525833, lon.=34.007992, Alt.=533.586426m. Speed=0.000000m/h.</desc>
<speed>0.000000</speed>
</trkpt>
<trkpt lat="44.525837" lon="34.007992">
<ele>533.523926</ele>
<time>2011-10-11T11:53:33Z</time>
<desc>lat.=44.525837, lon.=34.007992, Alt.=533.523926m. Speed=0.108000m/h.</desc>
<speed>0.030000</speed>
</trkpt>
<trkpt lat="44.525833" lon="34.007988">
<ele>533.492676</ele>
<time>2011-10-11T11:53:38Z</time>
<desc>lat.=44.525833, lon.=34.007988, Alt.=533.492676m. Speed=0.180000m/h.</desc>
<speed>0.050000</speed>
</trkpt>
<trkpt lat="44.525833" lon="34.007984">
<ele>533.461426</ele>
<time>2011-10-11T11:53:43Z</time>
<desc>lat.=44.525833, lon.=34.007984, Alt.=533.461426m. Speed=0.108000m/h.</desc>
<speed>0.030000</speed>
</trkpt>
<trkpt lat="44.525833" lon="34.007984">
<ele>533.430176</ele>
<time>2011-10-11T11:53:48Z</time>
<desc>lat.=44.525833, lon.=34.007984, Alt.=533.430176m. Speed=0.000000m/h.</desc>
<speed>0.000000</speed>
</trkpt>
<trkpt lat="44.525837" lon="34.007980">
<ele>533.523926</ele>
<time>2011-10-11T11:53:53Z</time>
<desc>lat.=44.525837, lon.=34.007980, Alt.=533.523926m. Speed=2.124000m/h.</desc>
<speed>0.590000</speed>
</trkpt>
<trkpt lat="44.525829" lon="34.007942">
<ele>533.883301</ele>
<time>2011-10-11T11:53:58Z</time>
<desc>lat.=44.525829, lon.=34.007942, Alt.=533.883301m. Speed=1.116000m/h.</desc>
<speed>0.310000</speed>
</trkpt>
<trkpt lat="44.525818" lon="34.007950">
<ele>532.367676</ele>
<time>2011-10-11T11:54:03Z</time>
<desc>lat.=44.525818, lon.=34.007950, Alt.=532.367676m. Speed=0.504000m/h.</desc>
<speed>0.140000</speed>
</trkpt>
<trkpt lat="44.525818" lon="34.007954">
<ele>532.273926</ele>
<time>2011-10-11T11:54:08Z</time>
<desc>lat.=44.525818, lon.=34.007954, Alt.=532.273926m. Speed=0.720000m/h.</desc>
<speed>0.200000</speed>
</trkpt>
<trkpt lat="44.525818" lon="34.007973">
<ele>530.070801</ele>
<time>2011-10-11T11:54:13Z</time>
<desc>lat.=44.525818, lon.=34.007973, Alt.=530.070801m. Speed=0.216000m/h.</desc>
<speed>0.060000</speed>
</trkpt>
<trkpt lat="44.525818" lon="34.007973">
<ele>530.117676</ele>
<time>2011-10-11T11:54:18Z</time>
<desc>lat.=44.525818, lon.=34.007973, Alt.=530.117676m. Speed=0.144000m/h.</desc>
<speed>0.040000</speed>
</trkpt>
<trkpt lat="44.525814" lon="34.007977">
<ele>530.195801</ele>
<time>2011-10-11T11:54:23Z</time>
<desc>lat.=44.525814, lon.=34.007977, Alt.=530.195801m. Speed=0.036000m/h.</desc>
<speed>0.010000</speed>
</trkpt>
<trkpt lat="44.525814" lon="34.007977">
<ele>530.289551</ele>
<time>2011-10-11T11:54:28Z</time>
<desc>lat.=44.525814, lon.=34.007977, Alt.=530.289551m. Speed=0.036000m/h.</desc>
<speed>0.010000</speed>
</trkpt>
<trkpt lat="44.525822" lon="34.007980">
<ele>530.164551</ele>
<time>2011-10-11T11:54:33Z</time>
<desc>lat.=44.525822, lon.=34.007980, Alt.=530.164551m. Speed=0.468000m/h.</desc>
<speed>0.130000</speed>
</trkpt>
<trkpt lat="44.525829" lon="34.007980">
<ele>530.117676</ele>
<time>2011-10-11T11:54:38Z</time>
<desc>lat.=44.525829, lon.=34.007980, Alt.=530.117676m. Speed=0.360000m/h.</desc>
<speed>0.100000</speed>
</trkpt>
<trkpt lat="44.525829" lon="34.007980">
<ele>530.086426</ele>
<time>2011-10-11T11:54:43Z</time>
<desc>lat.=44.525829, lon.=34.007980, Alt.=530.086426m. Speed=0.360000m/h.</desc>
<speed>0.100000</speed>
</trkpt>
<trkpt lat="44.525826" lon="34.007984">
<ele>530.023926</ele>
<time>2011-10-11T11:54:48Z</time>
<desc>lat.=44.525826, lon.=34.007984, Alt.=530.023926m. Speed=0.504000m/h.</desc>
<speed>0.140000</speed>
</trkpt>
<trkpt lat="44.525829" lon="34.007980">
<ele>530.039551</ele>
<time>2011-10-11T11:54:53Z</time>
<desc>lat.=44.525829, lon.=34.007980, Alt.=530.039551m. Speed=0.324000m/h.</desc>
<speed>0.090000</speed>
</trkpt>
<trkpt lat="44.525837" lon="34.007980">
<ele>529.852051</ele>
<time>2011-10-11T11:54:58Z</time>
<desc>lat.=44.525837, lon.=34.007980, Alt.=529.852051m. Speed=0.864000m/h.</desc>
<speed>0.240000</speed>
</trkpt>
<trkpt lat="44.525856" lon="34.007984">
<ele>529.242676</ele>
<time>2011-10-11T11:55:03Z</time>
<desc>lat.=44.525856, lon.=34.007984, Alt.=529.242676m. Speed=3.852000m/h.</desc>
<speed>1.070000</speed>
</trkpt>
<trkpt lat="44.525890" lon="34.007977">
<ele>529.195801</ele>
<time>2011-10-11T11:55:08Z</time>
<desc>lat.=44.525890, lon.=34.007977, Alt.=529.195801m. Speed=3.276000m/h.</desc>
<speed>0.910000</speed>
</trkpt>
<trkpt lat="44.525898" lon="34.008007">
<ele>529.164551</ele>
<time>2011-10-11T11:55:13Z</time>
<desc>lat.=44.525898, lon.=34.008007, Alt.=529.164551m. Speed=0.288000m/h.</desc>
<speed>0.080000</speed>
</trkpt>
<trkpt lat="44.525898" lon="34.008018">
<ele>529.305176</ele>
<time>2011-10-11T11:55:18Z</time>
<desc>lat.=44.525898, lon.=34.008018, Alt.=529.305176m. Speed=2.196000m/h.</desc>
<speed>0.610000</speed>
</trkpt>
<trkpt lat="44.525898" lon="34.008068">
<ele>530.523926</ele>
<time>2011-10-11T11:55:23Z</time>
<desc>lat.=44.525898, lon.=34.008068, Alt.=530.523926m. Speed=2.268000m/h.</desc>
<speed>0.630000</speed>
</trkpt>
<trkpt lat="44.525902" lon="34.008099">
<ele>530.336426</ele>
<time>2011-10-11T11:55:28Z</time>
<desc>lat.=44.525902, lon.=34.008099, Alt.=530.336426m. Speed=2.232000m/h.</desc>
<speed>0.620000</speed>
</trkpt>
<trkpt lat="44.525921" lon="34.008125">
<ele>530.867676</ele>
<time>2011-10-11T11:55:33Z</time>
<desc>lat.=44.525921, lon.=34.008125, Alt.=530.867676m. Speed=1.836000m/h.</desc>
<speed>0.510000</speed>
</trkpt>
<trkpt lat="44.525928" lon="34.008137">
<ele>531.273926</ele>
<time>2011-10-11T11:55:38Z</time>
<desc>lat.=44.525928, lon.=34.008137, Alt.=531.273926m. Speed=2.160000m/h.</desc>
<speed>0.600000</speed>
</trkpt>
<trkpt lat="44.525932" lon="34.008137">
<ele>530.586426</ele>
<time>2011-10-11T11:55:43Z</time>
<desc>lat.=44.525932, lon.=34.008137, Alt.=530.586426m. Speed=1.080000m/h.</desc>
<speed>0.300000</speed>
</trkpt>
<trkpt lat="44.525917" lon="34.008160">
<ele>532.414551</ele>
<time>2011-10-11T11:55:48Z</time>
<desc>lat.=44.525917, lon.=34.008160, Alt.=532.414551m. Speed=1.692000m/h.</desc>
<speed>0.470000</speed>
</trkpt>
<trkpt lat="44.525925" lon="34.008194">
<ele>533.320801</ele>
<time>2011-10-11T11:55:53Z</time>
<desc>lat.=44.525925, lon.=34.008194, Alt.=533.320801m. Speed=1.656000m/h.</desc>
<speed>0.460000</speed>
</trkpt>
<trkpt lat="44.525913" lon="34.008209">
<ele>533.148926</ele>
<time>2011-10-11T11:55:58Z</time>
<desc>lat.=44.525913, lon.=34.008209, Alt.=533.148926m. Speed=1.080000m/h.</desc>
<speed>0.300000</speed>
</trkpt>
<trkpt lat="44.525913" lon="34.008209">
<ele>532.852051</ele>
<time>2011-10-11T11:56:03Z</time>
<desc>lat.=44.525913, lon.=34.008209, Alt.=532.852051m. Speed=0.540000m/h.</desc>
<speed>0.150000</speed>
</trkpt>
<trkpt lat="44.525902" lon="34.008221">
<ele>533.773926</ele>
<time>2011-10-11T11:56:08Z</time>
<desc>lat.=44.525902, lon.=34.008221, Alt.=533.773926m. Speed=0.468000m/h.</desc>
<speed>0.130000</speed>
</trkpt>
<trkpt lat="44.525909" lon="34.008240">
<ele>532.523926</ele>
<time>2011-10-11T11:56:13Z</time>
<desc>lat.=44.525909, lon.=34.008240, Alt.=532.523926m. Speed=1.476000m/h.</desc>
<speed>0.410000</speed>
</trkpt>
<trkpt lat="44.525913" lon="34.008259">
<ele>531.711426</ele>
<time>2011-10-11T11:56:18Z</time>
<desc>lat.=44.525913, lon.=34.008259, Alt.=531.711426m. Speed=0.792000m/h.</desc>
<speed>0.220000</speed>
</trkpt>
<trkpt lat="44.525909" lon="34.008266">
<ele>532.523926</ele>
<time>2011-10-11T11:56:23Z</time>
<desc>lat.=44.525909, lon.=34.008266, Alt.=532.523926m. Speed=0.972000m/h.</desc>
<speed>0.270000</speed>
</trkpt>
<trkpt lat="44.525913" lon="34.008282">
<ele>531.773926</ele>
<time>2011-10-11T11:56:28Z</time>
<desc>lat.=44.525913, lon.=34.008282, Alt.=531.773926m. Speed=0.216000m/h.</desc>
<speed>0.060000</speed>
</trkpt>
<trkpt lat="44.525928" lon="34.008282">
<ele>531.039551</ele>
<time>2011-10-11T11:56:33Z</time>
<desc>lat.=44.525928, lon.=34.008282, Alt.=531.039551m. Speed=0.432000m/h.</desc>
<speed>0.120000</speed>
</trkpt>
<trkpt lat="44.525940" lon="34.008278">
<ele>531.383301</ele>
<time>2011-10-11T11:56:38Z</time>
<desc>lat.=44.525940, lon.=34.008278, Alt.=531.383301m. Speed=0.036000m/h.</desc>
<speed>0.010000</speed>
</trkpt>
<trkpt lat="44.525951" lon="34.008266">
<ele>531.336426</ele>
<time>2011-10-11T11:56:43Z</time>
<desc>lat.=44.525951, lon.=34.008266, Alt.=531.336426m. Speed=0.288000m/h.</desc>
<speed>0.080000</speed>
</trkpt>
<trkpt lat="44.525955" lon="34.008270">
<ele>530.680176</ele>
<time>2011-10-11T11:56:48Z</time>
<desc>lat.=44.525955, lon.=34.008270, Alt.=530.680176m. Speed=0.144000m/h.</desc>
<speed>0.040000</speed>
</trkpt>
<trkpt lat="44.525967" lon="34.008274">
<ele>530.367676</ele>
<time>2011-10-11T11:56:53Z</time>
<desc>lat.=44.525967, lon.=34.008274, Alt.=530.367676m. Speed=1.656000m/h.</desc>
<speed>0.460000</speed>
</trkpt>
<trkpt lat="44.525974" lon="34.008278">
<ele>530.930176</ele>
<time>2011-10-11T11:56:58Z</time>
<desc>lat.=44.525974, lon.=34.008278, Alt.=530.930176m. Speed=0.504000m/h.</desc>
<speed>0.140000</speed>
</trkpt>
<trkpt lat="44.525970" lon="34.008289">
<ele>531.023926</ele>
<time>2011-10-11T11:57:03Z</time>
<desc>lat.=44.525970, lon.=34.008289, Alt.=531.023926m. Speed=0.720000m/h.</desc>
<speed>0.200000</speed>
</trkpt>
<trkpt lat="44.525982" lon="34.008301">
<ele>530.977051</ele>
<time>2011-10-11T11:57:08Z</time>
<desc>lat.=44.525982, lon.=34.008301, Alt.=530.977051m. Speed=0.900000m/h.</desc>
<speed>0.250000</speed>
</trkpt>
<trkpt lat="44.525990" lon="34.008301">
<ele>530.930176</ele>
<time>2011-10-11T11:57:13Z</time>
<desc>lat.=44.525990, lon.=34.008301, Alt.=530.930176m. Speed=0.828000m/h.</desc>
<speed>0.230000</speed>
</trkpt>
<trkpt lat="44.525997" lon="34.008305">
<ele>531.102051</ele>
<time>2011-10-11T11:57:18Z</time>
<desc>lat.=44.525997, lon.=34.008305, Alt.=531.102051m. Speed=0.504000m/h.</desc>
<speed>0.140000</speed>
</trkpt>
<trkpt lat="44.525982" lon="34.008327">
<ele>530.883301</ele>
<time>2011-10-11T11:57:23Z</time>
<desc>lat.=44.525982, lon.=34.008327, Alt.=530.883301m. Speed=2.088000m/h.</desc>
<speed>0.580000</speed>
</trkpt>
<trkpt lat="44.525982" lon="34.008373">
<ele>531.555176</ele>
<time>2011-10-11T11:57:28Z</time>
<desc>lat.=44.525982, lon.=34.008373, Alt.=531.555176m. Speed=3.456000m/h.</desc>
<speed>0.960000</speed>
</trkpt>
<trkpt lat="44.525940" lon="34.008377">
<ele>532.539551</ele>
<time>2011-10-11T11:57:33Z</time>
<desc>lat.=44.525940, lon.=34.008377, Alt.=532.539551m. Speed=2.592000m/h.</desc>
<speed>0.720000</speed>
</trkpt>
<trkpt lat="44.525936" lon="34.008389">
<ele>532.945801</ele>
<time>2011-10-11T11:57:38Z</time>
<desc>lat.=44.525936, lon.=34.008389, Alt.=532.945801m. Speed=0.360000m/h.</desc>
<speed>0.100000</speed>
</trkpt>
<trkpt lat="44.525940" lon="34.008385">
<ele>532.805176</ele>
<time>2011-10-11T11:57:43Z</time>
<desc>lat.=44.525940, lon.=34.008385, Alt.=532.805176m. Speed=0.000000m/h.</desc>
<speed>0.000000</speed>
</trkpt>
<trkpt lat="44.525940" lon="34.008385">
<ele>532.680176</ele>
<time>2011-10-11T11:57:48Z</time>
<desc>lat.=44.525940, lon.=34.008385, Alt.=532.680176m. Speed=0.144000m/h.</desc>
<speed>0.040000</speed>
</trkpt>
<trkpt lat="44.525940" lon="34.008381">
<ele>532.586426</ele>
<time>2011-10-11T11:57:53Z</time>
<desc>lat.=44.525940, lon.=34.008381, Alt.=532.586426m. Speed=0.036000m/h.</desc>
<speed>0.010000</speed>
</trkpt>
<trkpt lat="44.525944" lon="34.008381">
<ele>532.492676</ele>
<time>2011-10-11T11:57:58Z</time>
<desc>lat.=44.525944, lon.=34.008381, Alt.=532.492676m. Speed=0.000000m/h.</desc>
<speed>0.000000</speed>
</trkpt>
<trkpt lat="44.525944" lon="34.008381">
<ele>532.430176</ele>
<time>2011-10-11T11:58:03Z</time>
<desc>lat.=44.525944, lon.=34.008381, Alt.=532.430176m. Speed=0.144000m/h.</desc>
<speed>0.040000</speed>
</trkpt>
<trkpt lat="44.525944" lon="34.008381">
<ele>532.336426</ele>
<time>2011-10-11T11:58:08Z</time>
<desc>lat.=44.525944, lon.=34.008381, Alt.=532.336426m. Speed=0.000000m/h.</desc>
<speed>0.000000</speed>
</trkpt>
<trkpt lat="44.525944" lon="34.008381">
<ele>532.258301</ele>
<time>2011-10-11T11:58:13Z</time>
<desc>lat.=44.525944, lon.=34.008381, Alt.=532.258301m. Speed=0.072000m/h.</desc>
<speed>0.020000</speed>
</trkpt>
<trkpt lat="44.525944" lon="34.008381">
<ele>532.164551</ele>
<time>2011-10-11T11:58:18Z</time>
<desc>lat.=44.525944, lon.=34.008381, Alt.=532.164551m. Speed=0.288000m/h.</desc>
<speed>0.080000</speed>
</trkpt>
<trkpt lat="44.525940" lon="34.008381">
<ele>532.195801</ele>
<time>2011-10-11T11:58:23Z</time>
<desc>lat.=44.525940, lon.=34.008381, Alt.=532.195801m. Speed=0.468000m/h.</desc>
<speed>0.130000</speed>
</trkpt>
<trkpt lat="44.525951" lon="34.008415">
<ele>531.461426</ele>
<time>2011-10-11T11:58:28Z</time>
<desc>lat.=44.525951, lon.=34.008415, Alt.=531.461426m. Speed=5.868000m/h.</desc>
<speed>1.630000</speed>
</trkpt>
<trkpt lat="44.525970" lon="34.008476">
<ele>530.727051</ele>
<time>2011-10-11T11:58:33Z</time>
<desc>lat.=44.525970, lon.=34.008476, Alt.=530.727051m. Speed=3.600000m/h.</desc>
<speed>1.000000</speed>
</trkpt>
<trkpt lat="44.526001" lon="34.008530">
<ele>531.398926</ele>
<time>2011-10-11T11:58:38Z</time>
<desc>lat.=44.526001, lon.=34.008530, Alt.=531.398926m. Speed=3.276000m/h.</desc>
<speed>0.910000</speed>
</trkpt>
<trkpt lat="44.525986" lon="34.008575">
<ele>531.617676</ele>
<time>2011-10-11T11:58:43Z</time>
<desc>lat.=44.525986, lon.=34.008575, Alt.=531.617676m. Speed=2.376000m/h.</desc>
<speed>0.660000</speed>
</trkpt>
<trkpt lat="44.526001" lon="34.008610">
<ele>530.820801</ele>
<time>2011-10-11T11:58:48Z</time>
<desc>lat.=44.526001, lon.=34.008610, Alt.=530.820801m. Speed=3.960000m/h.</desc>
<speed>1.100000</speed>
</trkpt>
<trkpt lat="44.526016" lon="34.008648">
<ele>530.945801</ele>
<time>2011-10-11T11:58:53Z</time>
<desc>lat.=44.526016, lon.=34.008648, Alt.=530.945801m. Speed=0.288000m/h.</desc>
<speed>0.080000</speed>
</trkpt>
<trkpt lat="44.526012" lon="34.008656">
<ele>530.570801</ele>
<time>2011-10-11T11:58:58Z</time>
<desc>lat.=44.526012, lon.=34.008656, Alt.=530.570801m. Speed=1.152000m/h.</desc>
<speed>0.320000</speed>
</trkpt>
<trkpt lat="44.526020" lon="34.008709">
<ele>530.461426</ele>
<time>2011-10-11T11:59:03Z</time>
<desc>lat.=44.526020, lon.=34.008709, Alt.=530.461426m. Speed=3.276000m/h.</desc>
<speed>0.910000</speed>
</trkpt>
<trkpt lat="44.526051" lon="34.008766">
<ele>530.117676</ele>
<time>2011-10-11T11:59:08Z</time>
<desc>lat.=44.526051, lon.=34.008766, Alt.=530.117676m. Speed=5.112000m/h.</desc>
<speed>1.420000</speed>
</trkpt>
<trkpt lat="44.526051" lon="34.008827">
<ele>530.758301</ele>
<time>2011-10-11T11:59:13Z</time>
<desc>lat.=44.526051, lon.=34.008827, Alt.=530.758301m. Speed=1.512000m/h.</desc>
<speed>0.420000</speed>
</trkpt>
<trkpt lat="44.526062" lon="34.008881">
<ele>530.539551</ele>
<time>2011-10-11T11:59:18Z</time>
<desc>lat.=44.526062, lon.=34.008881, Alt.=530.539551m. Speed=3.240000m/h.</desc>
<speed>0.900000</speed>
</trkpt>
<trkpt lat="44.526096" lon="34.008923">
<ele>530.164551</ele>
<time>2011-10-11T11:59:23Z</time>
<desc>lat.=44.526096, lon.=34.008923, Alt.=530.164551m. Speed=2.844000m/h.</desc>
<speed>0.790000</speed>
</trkpt>
<trkpt lat="44.526089" lon="34.008972">
<ele>530.633301</ele>
<time>2011-10-11T11:59:28Z</time>
<desc>lat.=44.526089, lon.=34.008972, Alt.=530.633301m. Speed=2.232000m/h.</desc>
<speed>0.620000</speed>
</trkpt>
<trkpt lat="44.526115" lon="34.009022">
<ele>530.008301</ele>
<time>2011-10-11T11:59:33Z</time>
<desc>lat.=44.526115, lon.=34.009022, Alt.=530.008301m. Speed=2.664000m/h.</desc>
<speed>0.740000</speed>
</trkpt>
<trkpt lat="44.526131" lon="34.009064">
<ele>531.258301</ele>
<time>2011-10-11T11:59:38Z</time>
<desc>lat.=44.526131, lon.=34.009064, Alt.=531.258301m. Speed=3.996000m/h.</desc>
<speed>1.110000</speed>
</trkpt>
<trkpt lat="44.526150" lon="34.009125">
<ele>532.523926</ele>
<time>2011-10-11T11:59:43Z</time>
<desc>lat.=44.526150, lon.=34.009125, Alt.=532.523926m. Speed=3.096000m/h.</desc>
<speed>0.860000</speed>
</trkpt>
<trkpt lat="44.526188" lon="34.009171">
<ele>532.227051</ele>
<time>2011-10-11T11:59:48Z</time>
<desc>lat.=44.526188, lon.=34.009171, Alt.=532.227051m. Speed=4.860000m/h.</desc>
<speed>1.350000</speed>
</trkpt>
<trkpt lat="44.526237" lon="34.009209">
<ele>531.930176</ele>
<time>2011-10-11T11:59:53Z</time>
<desc>lat.=44.526237, lon.=34.009209, Alt.=531.930176m. Speed=5.112000m/h.</desc>
<speed>1.420000</speed>
</trkpt>
<trkpt lat="44.526260" lon="34.009262">
<ele>531.961426</ele>
<time>2011-10-11T11:59:58Z</time>
<desc>lat.=44.526260, lon.=34.009262, Alt.=531.961426m. Speed=2.700000m/h.</desc>
<speed>0.750000</speed>
</trkpt>
<trkpt lat="44.526299" lon="34.009312">
<ele>531.211426</ele>
<time>2011-10-11T12:00:03Z</time>
<desc>lat.=44.526299, lon.=34.009312, Alt.=531.211426m. Speed=4.212000m/h.</desc>
<speed>1.170000</speed>
</trkpt>
<trkpt lat="44.526329" lon="34.009335">
<ele>531.211426</ele>
<time>2011-10-11T12:00:08Z</time>
<desc>lat.=44.526329, lon.=34.009335, Alt.=531.211426m. Speed=0.792000m/h.</desc>
<speed>0.220000</speed>
</trkpt>
<trkpt lat="44.526340" lon="34.009354">
<ele>531.023926</ele>
<time>2011-10-11T12:00:13Z</time>
<desc>lat.=44.526340, lon.=34.009354, Alt.=531.023926m. Speed=2.340000m/h.</desc>
<speed>0.650000</speed>
</trkpt>
<trkpt lat="44.526356" lon="34.009380">
<ele>530.492676</ele>
<time>2011-10-11T12:00:18Z</time>
<desc>lat.=44.526356, lon.=34.009380, Alt.=530.492676m. Speed=2.088000m/h.</desc>
<speed>0.580000</speed>
</trkpt>
<trkpt lat="44.526390" lon="34.009396">
<ele>530.398926</ele>
<time>2011-10-11T12:00:23Z</time>
<desc>lat.=44.526390, lon.=34.009396, Alt.=530.398926m. Speed=3.240000m/h.</desc>
<speed>0.900000</speed>
</trkpt>
<trkpt lat="44.526409" lon="34.009441">
<ele>530.180176</ele>
<time>2011-10-11T12:00:28Z</time>
<desc>lat.=44.526409, lon.=34.009441, Alt.=530.180176m. Speed=3.132000m/h.</desc>
<speed>0.870000</speed>
</trkpt>
<trkpt lat="44.526447" lon="34.009468">
<ele>529.523926</ele>
<time>2011-10-11T12:00:33Z</time>
<desc>lat.=44.526447, lon.=34.009468, Alt.=529.523926m. Speed=3.708000m/h.</desc>
<speed>1.030000</speed>
</trkpt>
<trkpt lat="44.526474" lon="34.009491">
<ele>529.633301</ele>
<time>2011-10-11T12:00:38Z</time>
<desc>lat.=44.526474, lon.=34.009491, Alt.=529.633301m. Speed=3.924000m/h.</desc>
<speed>1.090000</speed>
</trkpt>
<trkpt lat="44.526505" lon="34.009525">
<ele>529.992676</ele>
<time>2011-10-11T12:00:43Z</time>
<desc>lat.=44.526505, lon.=34.009525, Alt.=529.992676m. Speed=2.736000m/h.</desc>
<speed>0.760000</speed>
</trkpt>
<trkpt lat="44.526520" lon="34.009575">
<ele>529.852051</ele>
<time>2011-10-11T12:00:48Z</time>
<desc>lat.=44.526520, lon.=34.009575, Alt.=529.852051m. Speed=3.924000m/h.</desc>
<speed>1.090000</speed>
</trkpt>
<trkpt lat="44.526558" lon="34.009605">
<ele>529.867676</ele>
<time>2011-10-11T12:00:53Z</time>
<desc>lat.=44.526558, lon.=34.009605, Alt.=529.867676m. Speed=3.816000m/h.</desc>
<speed>1.060000</speed>
</trkpt>
<trkpt lat="44.526585" lon="34.009659">
<ele>530.617676</ele>
<time>2011-10-11T12:00:58Z</time>
<desc>lat.=44.526585, lon.=34.009659, Alt.=530.617676m. Speed=2.340000m/h.</desc>
<speed>0.650000</speed>
</trkpt>
<trkpt lat="44.526592" lon="34.009712">
<ele>531.383301</ele>
<time>2011-10-11T12:01:03Z</time>
<desc>lat.=44.526592, lon.=34.009712, Alt.=531.383301m. Speed=3.816000m/h.</desc>
<speed>1.060000</speed>
</trkpt>
<trkpt lat="44.526611" lon="34.009731">
<ele>532.586426</ele>
<time>2011-10-11T12:01:08Z</time>
<desc>lat.=44.526611, lon.=34.009731, Alt.=532.586426m. Speed=0.540000m/h.</desc>
<speed>0.150000</speed>
</trkpt>
<trkpt lat="44.526604" lon="34.009724">
<ele>532.320801</ele>
<time>2011-10-11T12:01:13Z</time>
<desc>lat.=44.526604, lon.=34.009724, Alt.=532.320801m. Speed=0.972000m/h.</desc>
<speed>0.270000</speed>
</trkpt>
<trkpt lat="44.526608" lon="34.009720">
<ele>532.367676</ele>
<time>2011-10-11T12:01:18Z</time>
<desc>lat.=44.526608, lon.=34.009720, Alt.=532.367676m. Speed=0.432000m/h.</desc>
<speed>0.120000</speed>
</trkpt>
<trkpt lat="44.526604" lon="34.009743">
<ele>532.383301</ele>
<time>2011-10-11T12:01:23Z</time>
<desc>lat.=44.526604, lon.=34.009743, Alt.=532.383301m. Speed=1.728000m/h.</desc>
<speed>0.480000</speed>
</trkpt>
<trkpt lat="44.526608" lon="34.009769">
<ele>532.117676</ele>
<time>2011-10-11T12:01:28Z</time>
<desc>lat.=44.526608, lon.=34.009769, Alt.=532.117676m. Speed=0.900000m/h.</desc>
<speed>0.250000</speed>
</trkpt>
<trkpt lat="44.526615" lon="34.009769">
<ele>532.242676</ele>
<time>2011-10-11T12:01:33Z</time>
<desc>lat.=44.526615, lon.=34.009769, Alt.=532.242676m. Speed=0.000000m/h.</desc>
<speed>0.000000</speed>
</trkpt>
<trkpt lat="44.526608" lon="34.009785">
<ele>532.477051</ele>
<time>2011-10-11T12:01:38Z</time>
<desc>lat.=44.526608, lon.=34.009785, Alt.=532.477051m. Speed=3.024000m/h.</desc>
<speed>0.840000</speed>
</trkpt>
<trkpt lat="44.526611" lon="34.009838">
<ele>532.758301</ele>
<time>2011-10-11T12:01:43Z</time>
<desc>lat.=44.526611, lon.=34.009838, Alt.=532.758301m. Speed=3.960000m/h.</desc>
<speed>1.100000</speed>
</trkpt>
<trkpt lat="44.526634" lon="34.009903">
<ele>532.648926</ele>
<time>2011-10-11T12:01:48Z</time>
<desc>lat.=44.526634, lon.=34.009903, Alt.=532.648926m. Speed=3.672000m/h.</desc>
<speed>1.020000</speed>
</trkpt>
<trkpt lat="44.526661" lon="34.009964">
<ele>532.148926</ele>
<time>2011-10-11T12:01:53Z</time>
<desc>lat.=44.526661, lon.=34.009964, Alt.=532.148926m. Speed=3.384000m/h.</desc>
<speed>0.940000</speed>
</trkpt>
<trkpt lat="44.526661" lon="34.009968">
<ele>532.086426</ele>
<time>2011-10-11T12:01:58Z</time>
<desc>lat.=44.526661, lon.=34.009968, Alt.=532.086426m. Speed=1.224000m/h.</desc>
<speed>0.340000</speed>
</trkpt>
<trkpt lat="44.526638" lon="34.009983">
<ele>532.227051</ele>
<time>2011-10-11T12:02:03Z</time>
<desc>lat.=44.526638, lon.=34.009983, Alt.=532.227051m. Speed=2.664000m/h.</desc>
<speed>0.740000</speed>
</trkpt>
<trkpt lat="44.526623" lon="34.010017">
<ele>532.164551</ele>
<time>2011-10-11T12:02:08Z</time>
<desc>lat.=44.526623, lon.=34.010017, Alt.=532.164551m. Speed=1.548000m/h.</desc>
<speed>0.430000</speed>
</trkpt>
<trkpt lat="44.526623" lon="34.010063">
<ele>532.602051</ele>
<time>2011-10-11T12:02:13Z</time>
<desc>lat.=44.526623, lon.=34.010063, Alt.=532.602051m. Speed=5.076000m/h.</desc>
<speed>1.410000</speed>
</trkpt>
<trkpt lat="44.526630" lon="34.010113">
<ele>531.945801</ele>
<time>2011-10-11T12:02:18Z</time>
<desc>lat.=44.526630, lon.=34.010113, Alt.=531.945801m. Speed=3.420000m/h.</desc>
<speed>0.950000</speed>
</trkpt>
<trkpt lat="44.526634" lon="34.010155">
<ele>532.758301</ele>
<time>2011-10-11T12:02:23Z</time>
<desc>lat.=44.526634, lon.=34.010155, Alt.=532.758301m. Speed=2.268000m/h.</desc>
<speed>0.630000</speed>
</trkpt>
<trkpt lat="44.526649" lon="34.010197">
<ele>533.414551</ele>
<time>2011-10-11T12:02:28Z</time>
<desc>lat.=44.526649, lon.=34.010197, Alt.=533.414551m. Speed=1.260000m/h.</desc>
<speed>0.350000</speed>
</trkpt>
<trkpt lat="44.526665" lon="34.010216">
<ele>534.477051</ele>
<time>2011-10-11T12:02:33Z</time>
<desc>lat.=44.526665, lon.=34.010216, Alt.=534.477051m. Speed=1.908000m/h.</desc>
<speed>0.530000</speed>
</trkpt>
<trkpt lat="44.526699" lon="34.010239">
<ele>535.055176</ele>
<time>2011-10-11T12:02:38Z</time>
<desc>lat.=44.526699, lon.=34.010239, Alt.=535.055176m. Speed=1.908000m/h.</desc>
<speed>0.530000</speed>
</trkpt>
<trkpt lat="44.526726" lon="34.010246">
<ele>536.039551</ele>
<time>2011-10-11T12:02:43Z</time>
<desc>lat.=44.526726, lon.=34.010246, Alt.=536.039551m. Speed=2.124000m/h.</desc>
<speed>0.590000</speed>
</trkpt>
<trkpt lat="44.526718" lon="34.010323">
<ele>536.836426</ele>
<time>2011-10-11T12:02:48Z</time>
<desc>lat.=44.526718, lon.=34.010323, Alt.=536.836426m. Speed=2.484000m/h.</desc>
<speed>0.690000</speed>
</trkpt>
<trkpt lat="44.526718" lon="34.010349">
<ele>537.898926</ele>
<time>2011-10-11T12:02:53Z</time>
<desc>lat.=44.526718, lon.=34.010349, Alt.=537.898926m. Speed=3.384000m/h.</desc>
<speed>0.940000</speed>
</trkpt>
<trkpt lat="44.526711" lon="34.010380">
<ele>539.070801</ele>
<time>2011-10-11T12:02:58Z</time>
<desc>lat.=44.526711, lon.=34.010380, Alt.=539.070801m. Speed=1.332000m/h.</desc>
<speed>0.370000</speed>
</trkpt>
<trkpt lat="44.526695" lon="34.010372">
<ele>540.008301</ele>
<time>2011-10-11T12:03:03Z</time>
<desc>lat.=44.526695, lon.=34.010372, Alt.=540.008301m. Speed=0.756000m/h.</desc>
<speed>0.210000</speed>
</trkpt>
<trkpt lat="44.526695" lon="34.010376">
<ele>540.695801</ele>
<time>2011-10-11T12:03:08Z</time>
<desc>lat.=44.526695, lon.=34.010376, Alt.=540.695801m. Speed=3.384000m/h.</desc>
<speed>0.940000</speed>
</trkpt>
<trkpt lat="44.526676" lon="34.010441">
<ele>541.273926</ele>
<time>2011-10-11T12:03:13Z</time>
<desc>lat.=44.526676, lon.=34.010441, Alt.=541.273926m. Speed=3.636000m/h.</desc>
<speed>1.010000</speed>
</trkpt>
<trkpt lat="44.526649" lon="34.010464">
<ele>541.836426</ele>
<time>2011-10-11T12:03:18Z</time>
<desc>lat.=44.526649, lon.=34.010464, Alt.=541.836426m. Speed=3.564000m/h.</desc>
<speed>0.990000</speed>
</trkpt>
<trkpt lat="44.526646" lon="34.010529">
<ele>541.742676</ele>
<time>2011-10-11T12:03:23Z</time>
<desc>lat.=44.526646, lon.=34.010529, Alt.=541.742676m. Speed=3.528000m/h.</desc>
<speed>0.980000</speed>
</trkpt>
<trkpt lat="44.526661" lon="34.010574">
<ele>541.695801</ele>
<time>2011-10-11T12:03:28Z</time>
<desc>lat.=44.526661, lon.=34.010574, Alt.=541.695801m. Speed=0.540000m/h.</desc>
<speed>0.150000</speed>
</trkpt>
<trkpt lat="44.526653" lon="34.010574">
<ele>541.398926</ele>
<time>2011-10-11T12:03:33Z</time>
<desc>lat.=44.526653, lon.=34.010574, Alt.=541.398926m. Speed=0.396000m/h.</desc>
<speed>0.110000</speed>
</trkpt>
<trkpt lat="44.526661" lon="34.010582">
<ele>541.508301</ele>
<time>2011-10-11T12:03:38Z</time>
<desc>lat.=44.526661, lon.=34.010582, Alt.=541.508301m. Speed=2.772000m/h.</desc>
<speed>0.770000</speed>
</trkpt>
<trkpt lat="44.526661" lon="34.010616">
<ele>541.477051</ele>
<time>2011-10-11T12:03:43Z</time>
<desc>lat.=44.526661, lon.=34.010616, Alt.=541.477051m. Speed=2.808000m/h.</desc>
<speed>0.780000</speed>
</trkpt>
<trkpt lat="44.526646" lon="34.010651">
<ele>541.836426</ele>
<time>2011-10-11T12:03:48Z</time>
<desc>lat.=44.526646, lon.=34.010651, Alt.=541.836426m. Speed=2.952000m/h.</desc>
<speed>0.820000</speed>
</trkpt>
<trkpt lat="44.526630" lon="34.010666">
<ele>542.508301</ele>
<time>2011-10-11T12:03:53Z</time>
<desc>lat.=44.526630, lon.=34.010666, Alt.=542.508301m. Speed=2.124000m/h.</desc>
<speed>0.590000</speed>
</trkpt>
<trkpt lat="44.526611" lon="34.010700">
<ele>543.195801</ele>
<time>2011-10-11T12:03:58Z</time>
<desc>lat.=44.526611, lon.=34.010700, Alt.=543.195801m. Speed=3.024000m/h.</desc>
<speed>0.840000</speed>
</trkpt>
<trkpt lat="44.526608" lon="34.010735">
<ele>543.883301</ele>
<time>2011-10-11T12:04:03Z</time>
<desc>lat.=44.526608, lon.=34.010735, Alt.=543.883301m. Speed=0.576000m/h.</desc>
<speed>0.160000</speed>
</trkpt>
<trkpt lat="44.526608" lon="34.010750">
<ele>544.367676</ele>
<time>2011-10-11T12:04:08Z</time>
<desc>lat.=44.526608, lon.=34.010750, Alt.=544.367676m. Speed=1.080000m/h.</desc>
<speed>0.300000</speed>
</trkpt>
<trkpt lat="44.526604" lon="34.010750">
<ele>545.133301</ele>
<time>2011-10-11T12:04:13Z</time>
<desc>lat.=44.526604, lon.=34.010750, Alt.=545.133301m. Speed=2.916000m/h.</desc>
<speed>0.810000</speed>
</trkpt>
<trkpt lat="44.526588" lon="34.010750">
<ele>545.039551</ele>
<time>2011-10-11T12:04:18Z</time>
<desc>lat.=44.526588, lon.=34.010750, Alt.=545.039551m. Speed=1.692000m/h.</desc>
<speed>0.470000</speed>
</trkpt>
<trkpt lat="44.526585" lon="34.010757">
<ele>545.195801</ele>
<time>2011-10-11T12:04:23Z</time>
<desc>lat.=44.526585, lon.=34.010757, Alt.=545.195801m. Speed=0.144000m/h.</desc>
<speed>0.040000</speed>
</trkpt>
<trkpt lat="44.526585" lon="34.010754">
<ele>545.211426</ele>
<time>2011-10-11T12:04:28Z</time>
<desc>lat.=44.526585, lon.=34.010754, Alt.=545.211426m. Speed=0.000000m/h.</desc>
<speed>0.000000</speed>
</trkpt>
<trkpt lat="44.526585" lon="34.010754">
<ele>545.227051</ele>
<time>2011-10-11T12:04:33Z</time>
<desc>lat.=44.526585, lon.=34.010754, Alt.=545.227051m. Speed=0.108000m/h.</desc>
<speed>0.030000</speed>
</trkpt>
<trkpt lat="44.526585" lon="34.010754">
<ele>545.242676</ele>
<time>2011-10-11T12:04:38Z</time>
<desc>lat.=44.526585, lon.=34.010754, Alt.=545.242676m. Speed=0.360000m/h.</desc>
<speed>0.100000</speed>
</trkpt>
<trkpt lat="44.526585" lon="34.010754">
<ele>545.258301</ele>
<time>2011-10-11T12:04:43Z</time>
<desc>lat.=44.526585, lon.=34.010754, Alt.=545.258301m. Speed=0.288000m/h.</desc>
<speed>0.080000</speed>
</trkpt>
<trkpt lat="44.526585" lon="34.010757">
<ele>545.273926</ele>
<time>2011-10-11T12:04:48Z</time>
<desc>lat.=44.526585, lon.=34.010757, Alt.=545.273926m. Speed=0.180000m/h.</desc>
<speed>0.050000</speed>
</trkpt>
<trkpt lat="44.526569" lon="34.010807">
<ele>545.820801</ele>
<time>2011-10-11T12:04:53Z</time>
<desc>lat.=44.526569, lon.=34.010807, Alt.=545.820801m. Speed=2.340000m/h.</desc>
<speed>0.650000</speed>
</trkpt>
<trkpt lat="44.526573" lon="34.010830">
<ele>546.430176</ele>
<time>2011-10-11T12:04:58Z</time>
<desc>lat.=44.526573, lon.=34.010830, Alt.=546.430176m. Speed=0.108000m/h.</desc>
<speed>0.030000</speed>
</trkpt>
<trkpt lat="44.526573" lon="34.010826">
<ele>546.617676</ele>
<time>2011-10-11T12:05:03Z</time>
<desc>lat.=44.526573, lon.=34.010826, Alt.=546.617676m. Speed=0.036000m/h.</desc>
<speed>0.010000</speed>
</trkpt>
<trkpt lat="44.526573" lon="34.010826">
<ele>546.680176</ele>
<time>2011-10-11T12:05:08Z</time>
<desc>lat.=44.526573, lon.=34.010826, Alt.=546.680176m. Speed=0.108000m/h.</desc>
<speed>0.030000</speed>
</trkpt>
<trkpt lat="44.526573" lon="34.010826">
<ele>546.711426</ele>
<time>2011-10-11T12:05:13Z</time>
<desc>lat.=44.526573, lon.=34.010826, Alt.=546.711426m. Speed=0.036000m/h.</desc>
<speed>0.010000</speed>
</trkpt>
<trkpt lat="44.526573" lon="34.010830">
<ele>546.773926</ele>
<time>2011-10-11T12:05:18Z</time>
<desc>lat.=44.526573, lon.=34.010830, Alt.=546.773926m. Speed=1.080000m/h.</desc>
<speed>0.300000</speed>
</trkpt>
<trkpt lat="44.526573" lon="34.010830">
<ele>547.273926</ele>
<time>2011-10-11T12:05:23Z</time>
<desc>lat.=44.526573, lon.=34.010830, Alt.=547.273926m. Speed=0.036000m/h.</desc>
<speed>0.010000</speed>
</trkpt>
<trkpt lat="44.526573" lon="34.010830">
<ele>547.711426</ele>
<time>2011-10-11T12:05:28Z</time>
<desc>lat.=44.526573, lon.=34.010830, Alt.=547.711426m. Speed=1.764000m/h.</desc>
<speed>0.490000</speed>
</trkpt>
<trkpt lat="44.526562" lon="34.010895">
<ele>548.648926</ele>
<time>2011-10-11T12:05:33Z</time>
<desc>lat.=44.526562, lon.=34.010895, Alt.=548.648926m. Speed=1.908000m/h.</desc>
<speed>0.530000</speed>
</trkpt>
<trkpt lat="44.526546" lon="34.010906">
<ele>548.977051</ele>
<time>2011-10-11T12:05:38Z</time>
<desc>lat.=44.526546, lon.=34.010906, Alt.=548.977051m. Speed=2.484000m/h.</desc>
<speed>0.690000</speed>
</trkpt>
<trkpt lat="44.526539" lon="34.010914">
<ele>550.102051</ele>
<time>2011-10-11T12:05:43Z</time>
<desc>lat.=44.526539, lon.=34.010914, Alt.=550.102051m. Speed=0.288000m/h.</desc>
<speed>0.080000</speed>
</trkpt>
<trkpt lat="44.526531" lon="34.010929">
<ele>550.680176</ele>
<time>2011-10-11T12:05:48Z</time>
<desc>lat.=44.526531, lon.=34.010929, Alt.=550.680176m. Speed=0.828000m/h.</desc>
<speed>0.230000</speed>
</trkpt>
<trkpt lat="44.526527" lon="34.010937">
<ele>550.867676</ele>
<time>2011-10-11T12:05:53Z</time>
<desc>lat.=44.526527, lon.=34.010937, Alt.=550.867676m. Speed=0.468000m/h.</desc>
<speed>0.130000</speed>
</trkpt>
<trkpt lat="44.526508" lon="34.010937">
<ele>551.242676</ele>
<time>2011-10-11T12:05:58Z</time>
<desc>lat.=44.526508, lon.=34.010937, Alt.=551.242676m. Speed=2.016000m/h.</desc>
<speed>0.560000</speed>
</trkpt>
<trkpt lat="44.526485" lon="34.010967">
<ele>551.648926</ele>
<time>2011-10-11T12:06:03Z</time>
<desc>lat.=44.526485, lon.=34.010967, Alt.=551.648926m. Speed=2.376000m/h.</desc>
<speed>0.660000</speed>
</trkpt>
<trkpt lat="44.526485" lon="34.011017">
<ele>551.914551</ele>
<time>2011-10-11T12:06:08Z</time>
<desc>lat.=44.526485, lon.=34.011017, Alt.=551.914551m. Speed=1.908000m/h.</desc>
<speed>0.530000</speed>
</trkpt>
<trkpt lat="44.526493" lon="34.011021">
<ele>552.242676</ele>
<time>2011-10-11T12:06:13Z</time>
<desc>lat.=44.526493, lon.=34.011021, Alt.=552.242676m. Speed=2.484000m/h.</desc>
<speed>0.690000</speed>
</trkpt>
<trkpt lat="44.526524" lon="34.011044">
<ele>552.227051</ele>
<time>2011-10-11T12:06:18Z</time>
<desc>lat.=44.526524, lon.=34.011044, Alt.=552.227051m. Speed=2.124000m/h.</desc>
<speed>0.590000</speed>
</trkpt>
<trkpt lat="44.526546" lon="34.011120">
<ele>552.164551</ele>
<time>2011-10-11T12:06:23Z</time>
<desc>lat.=44.526546, lon.=34.011120, Alt.=552.164551m. Speed=5.220000m/h.</desc>
<speed>1.450000</speed>
</trkpt>
<trkpt lat="44.526566" lon="34.011196">
<ele>552.148926</ele>
<time>2011-10-11T12:06:28Z</time>
<desc>lat.=44.526566, lon.=34.011196, Alt.=552.148926m. Speed=3.888000m/h.</desc>
<speed>1.080000</speed>
</trkpt>
<trkpt lat="44.526573" lon="34.011253">
<ele>552.023926</ele>
<time>2011-10-11T12:06:33Z</time>
<desc>lat.=44.526573, lon.=34.011253, Alt.=552.023926m. Speed=2.376000m/h.</desc>
<speed>0.660000</speed>
</trkpt>
<trkpt lat="44.526569" lon="34.011303">
<ele>551.492676</ele>
<time>2011-10-11T12:06:38Z</time>
<desc>lat.=44.526569, lon.=34.011303, Alt.=551.492676m. Speed=3.708000m/h.</desc>
<speed>1.030000</speed>
</trkpt>
<trkpt lat="44.526577" lon="34.011349">
<ele>551.383301</ele>
<time>2011-10-11T12:06:43Z</time>
<desc>lat.=44.526577, lon.=34.011349, Alt.=551.383301m. Speed=1.008000m/h.</desc>
<speed>0.280000</speed>
</trkpt>
<trkpt lat="44.526627" lon="34.011368">
<ele>551.789551</ele>
<time>2011-10-11T12:06:48Z</time>
<desc>lat.=44.526627, lon.=34.011368, Alt.=551.789551m. Speed=0.864000m/h.</desc>
<speed>0.240000</speed>
</trkpt>
<trkpt lat="44.526661" lon="34.011345">
<ele>552.086426</ele>
<time>2011-10-11T12:06:53Z</time>
<desc>lat.=44.526661, lon.=34.011345, Alt.=552.086426m. Speed=1.548000m/h.</desc>
<speed>0.430000</speed>
</trkpt>
<trkpt lat="44.526535" lon="34.011379">
<ele>552.914551</ele>
<time>2011-10-11T12:06:58Z</time>
<desc>lat.=44.526535, lon.=34.011379, Alt.=552.914551m. Speed=0.540000m/h.</desc>
<speed>0.150000</speed>
</trkpt>
<trkpt lat="44.526546" lon="34.011391">
<ele>553.289551</ele>
<time>2011-10-11T12:07:03Z</time>
<desc>lat.=44.526546, lon.=34.011391, Alt.=553.289551m. Speed=2.988000m/h.</desc>
<speed>0.830000</speed>
</trkpt>
<trkpt lat="44.526585" lon="34.011372">
<ele>553.664551</ele>
<time>2011-10-11T12:07:08Z</time>
<desc>lat.=44.526585, lon.=34.011372, Alt.=553.664551m. Speed=1.872000m/h.</desc>
<speed>0.520000</speed>
</trkpt>
<trkpt lat="44.526615" lon="34.011341">
<ele>554.258301</ele>
<time>2011-10-11T12:07:13Z</time>
<desc>lat.=44.526615, lon.=34.011341, Alt.=554.258301m. Speed=2.196000m/h.</desc>
<speed>0.610000</speed>
</trkpt>
<trkpt lat="44.526642" lon="34.011269">
<ele>554.820801</ele>
<time>2011-10-11T12:07:18Z</time>
<desc>lat.=44.526642, lon.=34.011269, Alt.=554.820801m. Speed=2.016000m/h.</desc>
<speed>0.560000</speed>
</trkpt>
<trkpt lat="44.526672" lon="34.011215">
<ele>555.258301</ele>
<time>2011-10-11T12:07:23Z</time>
<desc>lat.=44.526672, lon.=34.011215, Alt.=555.258301m. Speed=3.420000m/h.</desc>
<speed>0.950000</speed>
</trkpt>
<trkpt lat="44.526676" lon="34.011196">
<ele>555.383301</ele>
<time>2011-10-11T12:07:28Z</time>
<desc>lat.=44.526676, lon.=34.011196, Alt.=555.383301m. Speed=3.096000m/h.</desc>
<speed>0.860000</speed>
</trkpt>
<trkpt lat="44.526676" lon="34.011173">
<ele>555.711426</ele>
<time>2011-10-11T12:07:33Z</time>
<desc>lat.=44.526676, lon.=34.011173, Alt.=555.711426m. Speed=3.528000m/h.</desc>
<speed>0.980000</speed>
</trkpt>
<trkpt lat="44.526695" lon="34.011154">
<ele>555.945801</ele>
<time>2011-10-11T12:07:38Z</time>
<desc>lat.=44.526695, lon.=34.011154, Alt.=555.945801m. Speed=0.396000m/h.</desc>
<speed>0.110000</speed>
</trkpt>
<trkpt lat="44.526703" lon="34.011154">
<ele>556.148926</ele>
<time>2011-10-11T12:07:43Z</time>
<desc>lat.=44.526703, lon.=34.011154, Alt.=556.148926m. Speed=1.476000m/h.</desc>
<speed>0.410000</speed>
</trkpt>
<trkpt lat="44.526741" lon="34.011127">
<ele>556.414551</ele>
<time>2011-10-11T12:07:48Z</time>
<desc>lat.=44.526741, lon.=34.011127, Alt.=556.414551m. Speed=2.412000m/h.</desc>
<speed>0.670000</speed>
</trkpt>
<trkpt lat="44.526768" lon="34.011192">
<ele>556.289551</ele>
<time>2011-10-11T12:07:53Z</time>
<desc>lat.=44.526768, lon.=34.011192, Alt.=556.289551m. Speed=0.684000m/h.</desc>
<speed>0.190000</speed>
</trkpt>
<trkpt lat="44.526802" lon="34.011257">
<ele>556.586426</ele>
<time>2011-10-11T12:07:58Z</time>
<desc>lat.=44.526802, lon.=34.011257, Alt.=556.586426m. Speed=2.124000m/h.</desc>
<speed>0.590000</speed>
</trkpt>
<trkpt lat="44.526848" lon="34.011372">
<ele>556.461426</ele>
<time>2011-10-11T12:08:03Z</time>
<desc>lat.=44.526848, lon.=34.011372, Alt.=556.461426m. Speed=1.692000m/h.</desc>
<speed>0.470000</speed>
</trkpt>
<trkpt lat="44.526848" lon="34.011436">
<ele>556.523926</ele>
<time>2011-10-11T12:08:08Z</time>
<desc>lat.=44.526848, lon.=34.011436, Alt.=556.523926m. Speed=0.756000m/h.</desc>
<speed>0.210000</speed>
</trkpt>
<trkpt lat="44.526844" lon="34.011440">
<ele>556.617676</ele>
<time>2011-10-11T12:08:13Z</time>
<desc>lat.=44.526844, lon.=34.011440, Alt.=556.617676m. Speed=2.592000m/h.</desc>
<speed>0.720000</speed>
</trkpt>
<trkpt lat="44.526852" lon="34.011536">
<ele>556.820801</ele>
<time>2011-10-11T12:08:18Z</time>
<desc>lat.=44.526852, lon.=34.011536, Alt.=556.820801m. Speed=3.708000m/h.</desc>
<speed>1.030000</speed>
</trkpt>
<trkpt lat="44.526840" lon="34.011539">
<ele>557.102051</ele>
<time>2011-10-11T12:08:23Z</time>
<desc>lat.=44.526840, lon.=34.011539, Alt.=557.102051m. Speed=0.180000m/h.</desc>
<speed>0.050000</speed>
</trkpt>
<trkpt lat="44.526855" lon="34.011623">
<ele>558.852051</ele>
<time>2011-10-11T12:08:28Z</time>
<desc>lat.=44.526855, lon.=34.011623, Alt.=558.852051m. Speed=2.952000m/h.</desc>
<speed>0.820000</speed>
</trkpt>
<trkpt lat="44.526882" lon="34.011703">
<ele>561.273926</ele>
<time>2011-10-11T12:08:33Z</time>
<desc>lat.=44.526882, lon.=34.011703, Alt.=561.273926m. Speed=2.808000m/h.</desc>
<speed>0.780000</speed>
</trkpt>
<trkpt lat="44.526920" lon="34.011742">
<ele>561.211426</ele>
<time>2011-10-11T12:08:38Z</time>
<desc>lat.=44.526920, lon.=34.011742, Alt.=561.211426m. Speed=1.836000m/h.</desc>
<speed>0.510000</speed>
</trkpt>
<trkpt lat="44.526932" lon="34.011787">
<ele>562.586426</ele>
<time>2011-10-11T12:08:43Z</time>
<desc>lat.=44.526932, lon.=34.011787, Alt.=562.586426m. Speed=0.720000m/h.</desc>
<speed>0.200000</speed>
</trkpt>
<trkpt lat="44.526928" lon="34.011806">
<ele>563.805176</ele>
<time>2011-10-11T12:08:48Z</time>
<desc>lat.=44.526928, lon.=34.011806, Alt.=563.805176m. Speed=0.576000m/h.</desc>
<speed>0.160000</speed>
</trkpt>
<trkpt lat="44.526928" lon="34.011818">
<ele>564.039551</ele>
<time>2011-10-11T12:08:53Z</time>
<desc>lat.=44.526928, lon.=34.011818, Alt.=564.039551m. Speed=0.612000m/h.</desc>
<speed>0.170000</speed>
</trkpt>
<trkpt lat="44.526936" lon="34.011841">
<ele>564.586426</ele>
<time>2011-10-11T12:08:58Z</time>
<desc>lat.=44.526936, lon.=34.011841, Alt.=564.586426m. Speed=1.404000m/h.</desc>
<speed>0.390000</speed>
</trkpt>
<trkpt lat="44.526962" lon="34.011982">
<ele>564.930176</ele>
<time>2011-10-11T12:09:03Z</time>
<desc>lat.=44.526962, lon.=34.011982, Alt.=564.930176m. Speed=4.248000m/h.</desc>
<speed>1.180000</speed>
</trkpt>
<trkpt lat="44.526985" lon="34.012054">
<ele>566.336426</ele>
<time>2011-10-11T12:09:08Z</time>
<desc>lat.=44.526985, lon.=34.012054, Alt.=566.336426m. Speed=3.348000m/h.</desc>
<speed>0.930000</speed>
</trkpt>
<trkpt lat="44.527012" lon="34.012104">
<ele>567.023926</ele>
<time>2011-10-11T12:09:13Z</time>
<desc>lat.=44.527012, lon.=34.012104, Alt.=567.023926m. Speed=0.864000m/h.</desc>
<speed>0.240000</speed>
</trkpt>
<trkpt lat="44.527004" lon="34.012108">
<ele>568.242676</ele>
<time>2011-10-11T12:09:18Z</time>
<desc>lat.=44.527004, lon.=34.012108, Alt.=568.242676m. Speed=1.620000m/h.</desc>
<speed>0.450000</speed>
</trkpt>
<trkpt lat="44.527000" lon="34.012169">
<ele>569.008301</ele>
<time>2011-10-11T12:09:23Z</time>
<desc>lat.=44.527000, lon.=34.012169, Alt.=569.008301m. Speed=3.096000m/h.</desc>
<speed>0.860000</speed>
</trkpt>
<trkpt lat="44.527016" lon="34.012222">
<ele>569.336426</ele>
<time>2011-10-11T12:09:28Z</time>
<desc>lat.=44.527016, lon.=34.012222, Alt.=569.336426m. Speed=2.412000m/h.</desc>
<speed>0.670000</speed>
</trkpt>
<trkpt lat="44.527031" lon="34.012253">
<ele>569.711426</ele>
<time>2011-10-11T12:09:33Z</time>
<desc>lat.=44.527031, lon.=34.012253, Alt.=569.711426m. Speed=1.368000m/h.</desc>
<speed>0.380000</speed>
</trkpt>
<trkpt lat="44.527046" lon="34.012264">
<ele>569.727051</ele>
<time>2011-10-11T12:09:38Z</time>
<desc>lat.=44.527046, lon.=34.012264, Alt.=569.727051m. Speed=3.348000m/h.</desc>
<speed>0.930000</speed>
</trkpt>
<trkpt lat="44.527081" lon="34.012283">
<ele>569.836426</ele>
<time>2011-10-11T12:09:43Z</time>
<desc>lat.=44.527081, lon.=34.012283, Alt.=569.836426m. Speed=3.276000m/h.</desc>
<speed>0.910000</speed>
</trkpt>
<trkpt lat="44.527100" lon="34.012287">
<ele>569.711426</ele>
<time>2011-10-11T12:09:48Z</time>
<desc>lat.=44.527100, lon.=34.012287, Alt.=569.711426m. Speed=1.584000m/h.</desc>
<speed>0.440000</speed>
</trkpt>
<trkpt lat="44.527103" lon="34.012276">
<ele>569.508301</ele>
<time>2011-10-11T12:09:53Z</time>
<desc>lat.=44.527103, lon.=34.012276, Alt.=569.508301m. Speed=0.288000m/h.</desc>
<speed>0.080000</speed>
</trkpt>
<trkpt lat="44.527122" lon="34.012295">
<ele>569.133301</ele>
<time>2011-10-11T12:09:58Z</time>
<desc>lat.=44.527122, lon.=34.012295, Alt.=569.133301m. Speed=2.196000m/h.</desc>
<speed>0.610000</speed>
</trkpt>
<trkpt lat="44.527157" lon="34.012318">
<ele>569.258301</ele>
<time>2011-10-11T12:10:03Z</time>
<desc>lat.=44.527157, lon.=34.012318, Alt.=569.258301m. Speed=3.096000m/h.</desc>
<speed>0.860000</speed>
</trkpt>
<trkpt lat="44.527172" lon="34.012333">
<ele>570.367676</ele>
<time>2011-10-11T12:10:08Z</time>
<desc>lat.=44.527172, lon.=34.012333, Alt.=570.367676m. Speed=0.792000m/h.</desc>
<speed>0.220000</speed>
</trkpt>
<trkpt lat="44.527203" lon="34.012360">
<ele>570.742676</ele>
<time>2011-10-11T12:10:13Z</time>
<desc>lat.=44.527203, lon.=34.012360, Alt.=570.742676m. Speed=1.188000m/h.</desc>
<speed>0.330000</speed>
</trkpt>
<trkpt lat="44.527214" lon="34.012402">
<ele>570.867676</ele>
<time>2011-10-11T12:10:18Z</time>
<desc>lat.=44.527214, lon.=34.012402, Alt.=570.867676m. Speed=2.088000m/h.</desc>
<speed>0.580000</speed>
</trkpt>
<trkpt lat="44.527248" lon="34.012379">
<ele>571.008301</ele>
<time>2011-10-11T12:10:23Z</time>
<desc>lat.=44.527248, lon.=34.012379, Alt.=571.008301m. Speed=3.240000m/h.</desc>
<speed>0.900000</speed>
</trkpt>
<trkpt lat="44.527279" lon="34.012379">
<ele>571.367676</ele>
<time>2011-10-11T12:10:28Z</time>
<desc>lat.=44.527279, lon.=34.012379, Alt.=571.367676m. Speed=0.612000m/h.</desc>
<speed>0.170000</speed>
</trkpt>
<trkpt lat="44.527283" lon="34.012375">
<ele>571.711426</ele>
<time>2011-10-11T12:10:33Z</time>
<desc>lat.=44.527283, lon.=34.012375, Alt.=571.711426m. Speed=0.288000m/h.</desc>
<speed>0.080000</speed>
</trkpt>
<trkpt lat="44.527287" lon="34.012379">
<ele>571.852051</ele>
<time>2011-10-11T12:10:38Z</time>
<desc>lat.=44.527287, lon.=34.012379, Alt.=571.852051m. Speed=2.124000m/h.</desc>
<speed>0.590000</speed>
</trkpt>
<trkpt lat="44.527287" lon="34.012402">
<ele>572.773926</ele>
<time>2011-10-11T12:10:43Z</time>
<desc>lat.=44.527287, lon.=34.012402, Alt.=572.773926m. Speed=0.180000m/h.</desc>
<speed>0.050000</speed>
</trkpt>
<trkpt lat="44.527298" lon="34.012402">
<ele>573.477051</ele>
<time>2011-10-11T12:10:48Z</time>
<desc>lat.=44.527298, lon.=34.012402, Alt.=573.477051m. Speed=2.412000m/h.</desc>
<speed>0.670000</speed>
</trkpt>
<trkpt lat="44.527317" lon="34.012428">
<ele>574.289551</ele>
<time>2011-10-11T12:10:53Z</time>
<desc>lat.=44.527317, lon.=34.012428, Alt.=574.289551m. Speed=3.924000m/h.</desc>
<speed>1.090000</speed>
</trkpt>
<trkpt lat="44.527321" lon="34.012482">
<ele>574.930176</ele>
<time>2011-10-11T12:10:58Z</time>
<desc>lat.=44.527321, lon.=34.012482, Alt.=574.930176m. Speed=2.520000m/h.</desc>
<speed>0.700000</speed>
</trkpt>
<trkpt lat="44.527344" lon="34.012512">
<ele>575.320801</ele>
<time>2011-10-11T12:11:03Z</time>
<desc>lat.=44.527344, lon.=34.012512, Alt.=575.320801m. Speed=2.448000m/h.</desc>
<speed>0.680000</speed>
</trkpt>
<trkpt lat="44.527344" lon="34.012585">
<ele>575.117676</ele>
<time>2011-10-11T12:11:08Z</time>
<desc>lat.=44.527344, lon.=34.012585, Alt.=575.117676m. Speed=4.068000m/h.</desc>
<speed>1.130000</speed>
</trkpt>
<trkpt lat="44.527359" lon="34.012650">
<ele>574.633301</ele>
<time>2011-10-11T12:11:13Z</time>
<desc>lat.=44.527359, lon.=34.012650, Alt.=574.633301m. Speed=2.952000m/h.</desc>
<speed>0.820000</speed>
</trkpt>
<trkpt lat="44.527351" lon="34.012688">
<ele>574.133301</ele>
<time>2011-10-11T12:11:18Z</time>
<desc>lat.=44.527351, lon.=34.012688, Alt.=574.133301m. Speed=3.852000m/h.</desc>
<speed>1.070000</speed>
</trkpt>
<trkpt lat="44.527363" lon="34.012737">
<ele>574.008301</ele>
<time>2011-10-11T12:11:23Z</time>
<desc>lat.=44.527363, lon.=34.012737, Alt.=574.008301m. Speed=1.224000m/h.</desc>
<speed>0.340000</speed>
</trkpt>
<trkpt lat="44.527412" lon="34.012772">
<ele>573.477051</ele>
<time>2011-10-11T12:11:28Z</time>
<desc>lat.=44.527412, lon.=34.012772, Alt.=573.477051m. Speed=3.816000m/h.</desc>
<speed>1.060000</speed>
</trkpt>
<trkpt lat="44.527439" lon="34.012814">
<ele>573.336426</ele>
<time>2011-10-11T12:11:33Z</time>
<desc>lat.=44.527439, lon.=34.012814, Alt.=573.336426m. Speed=2.304000m/h.</desc>
<speed>0.640000</speed>
</trkpt>
<trkpt lat="44.527458" lon="34.012852">
<ele>572.648926</ele>
<time>2011-10-11T12:11:38Z</time>
<desc>lat.=44.527458, lon.=34.012852, Alt.=572.648926m. Speed=3.168000m/h.</desc>
<speed>0.880000</speed>
</trkpt>
<trkpt lat="44.527466" lon="34.012882">
<ele>572.430176</ele>
<time>2011-10-11T12:11:43Z</time>
<desc>lat.=44.527466, lon.=34.012882, Alt.=572.430176m. Speed=1.404000m/h.</desc>
<speed>0.390000</speed>
</trkpt>
<trkpt lat="44.527458" lon="34.012905">
<ele>571.961426</ele>
<time>2011-10-11T12:11:48Z</time>
<desc>lat.=44.527458, lon.=34.012905, Alt.=571.961426m. Speed=2.196000m/h.</desc>
<speed>0.610000</speed>
</trkpt>
<trkpt lat="44.527462" lon="34.012932">
<ele>571.305176</ele>
<time>2011-10-11T12:11:53Z</time>
<desc>lat.=44.527462, lon.=34.012932, Alt.=571.305176m. Speed=2.664000m/h.</desc>
<speed>0.740000</speed>
</trkpt>
<trkpt lat="44.527515" lon="34.012962">
<ele>570.227051</ele>
<time>2011-10-11T12:11:58Z</time>
<desc>lat.=44.527515, lon.=34.012962, Alt.=570.227051m. Speed=0.972000m/h.</desc>
<speed>0.270000</speed>
</trkpt>
<trkpt lat="44.527485" lon="34.012985">
<ele>569.773926</ele>
<time>2011-10-11T12:12:03Z</time>
<desc>lat.=44.527485, lon.=34.012985, Alt.=569.773926m. Speed=3.492000m/h.</desc>
<speed>0.970000</speed>
</trkpt>
<trkpt lat="44.527477" lon="34.013027">
<ele>568.648926</ele>
<time>2011-10-11T12:12:08Z</time>
<desc>lat.=44.527477, lon.=34.013027, Alt.=568.648926m. Speed=2.448000m/h.</desc>
<speed>0.680000</speed>
</trkpt>
<trkpt lat="44.527508" lon="34.013065">
<ele>567.727051</ele>
<time>2011-10-11T12:12:13Z</time>
<desc>lat.=44.527508, lon.=34.013065, Alt.=567.727051m. Speed=2.232000m/h.</desc>
<speed>0.620000</speed>
</trkpt>
<trkpt lat="44.527576" lon="34.013031">
<ele>567.039551</ele>
<time>2011-10-11T12:12:18Z</time>
<desc>lat.=44.527576, lon.=34.013031, Alt.=567.039551m. Speed=3.240000m/h.</desc>
<speed>0.900000</speed>
</trkpt>
<trkpt lat="44.527634" lon="34.013020">
<ele>566.117676</ele>
<time>2011-10-11T12:12:23Z</time>
<desc>lat.=44.527634, lon.=34.013020, Alt.=566.117676m. Speed=1.224000m/h.</desc>
<speed>0.340000</speed>
</trkpt>
<trkpt lat="44.527794" lon="34.012978">
<ele>564.461426</ele>
<time>2011-10-11T12:12:28Z</time>
<desc>lat.=44.527794, lon.=34.012978, Alt.=564.461426m. Speed=1.512000m/h.</desc>
<speed>0.420000</speed>
</trkpt>
<trkpt lat="44.527805" lon="34.012993">
<ele>563.195801</ele>
<time>2011-10-11T12:12:33Z</time>
<desc>lat.=44.527805, lon.=34.012993, Alt.=563.195801m. Speed=1.260000m/h.</desc>
<speed>0.350000</speed>
</trkpt>
<trkpt lat="44.527798" lon="34.013016">
<ele>562.695801</ele>
<time>2011-10-11T12:12:38Z</time>
<desc>lat.=44.527798, lon.=34.013016, Alt.=562.695801m. Speed=0.720000m/h.</desc>
<speed>0.200000</speed>
</trkpt>
<trkpt lat="44.527798" lon="34.013031">
<ele>562.336426</ele>
<time>2011-10-11T12:12:43Z</time>
<desc>lat.=44.527798, lon.=34.013031, Alt.=562.336426m. Speed=2.808000m/h.</desc>
<speed>0.780000</speed>
</trkpt>
<trkpt lat="44.527908" lon="34.013039">
<ele>560.977051</ele>
<time>2011-10-11T12:12:48Z</time>
<desc>lat.=44.527908, lon.=34.013039, Alt.=560.977051m. Speed=1.512000m/h.</desc>
<speed>0.420000</speed>
</trkpt>
<trkpt lat="44.528023" lon="34.013035">
<ele>559.711426</ele>
<time>2011-10-11T12:12:53Z</time>
<desc>lat.=44.528023, lon.=34.013035, Alt.=559.711426m. Speed=1.512000m/h.</desc>
<speed>0.420000</speed>
</trkpt>
<trkpt lat="44.528137" lon="34.013016">
<ele>557.977051</ele>
<time>2011-10-11T12:12:58Z</time>
<desc>lat.=44.528137, lon.=34.013016, Alt.=557.977051m. Speed=0.756000m/h.</desc>
<speed>0.210000</speed>
</trkpt>
<trkpt lat="44.528179" lon="34.013008">
<ele>556.727051</ele>
<time>2011-10-11T12:13:03Z</time>
<desc>lat.=44.528179, lon.=34.013008, Alt.=556.727051m. Speed=0.684000m/h.</desc>
<speed>0.190000</speed>
</trkpt>
<trkpt lat="44.528332" lon="34.012920">
<ele>555.648926</ele>
<time>2011-10-11T12:13:08Z</time>
<desc>lat.=44.528332, lon.=34.012920, Alt.=555.648926m. Speed=5.616000m/h.</desc>
<speed>1.560000</speed>
</trkpt>
<trkpt lat="44.528393" lon="34.012917">
<ele>554.461426</ele>
<time>2011-10-11T12:13:13Z</time>
<desc>lat.=44.528393, lon.=34.012917, Alt.=554.461426m. Speed=1.116000m/h.</desc>
<speed>0.310000</speed>
</trkpt>
<trkpt lat="44.528465" lon="34.012928">
<ele>553.289551</ele>
<time>2011-10-11T12:13:18Z</time>
<desc>lat.=44.528465, lon.=34.012928, Alt.=553.289551m. Speed=1.440000m/h.</desc>
<speed>0.400000</speed>
</trkpt>
<trkpt lat="44.528488" lon="34.012966">
<ele>552.727051</ele>
<time>2011-10-11T12:13:23Z</time>
<desc>lat.=44.528488, lon.=34.012966, Alt.=552.727051m. Speed=1.260000m/h.</desc>
<speed>0.350000</speed>
</trkpt>
<trkpt lat="44.528446" lon="34.012993">
<ele>552.883301</ele>
<time>2011-10-11T12:13:28Z</time>
<desc>lat.=44.528446, lon.=34.012993, Alt.=552.883301m. Speed=1.332000m/h.</desc>
<speed>0.370000</speed>
</trkpt>
<trkpt lat="44.528473" lon="34.013020">
<ele>553.039551</ele>
<time>2011-10-11T12:13:33Z</time>
<desc>lat.=44.528473, lon.=34.013020, Alt.=553.039551m. Speed=2.160000m/h.</desc>
<speed>0.600000</speed>
</trkpt>
<trkpt lat="44.528465" lon="34.013027">
<ele>552.383301</ele>
<time>2011-10-11T12:13:38Z</time>
<desc>lat.=44.528465, lon.=34.013027, Alt.=552.383301m. Speed=0.972000m/h.</desc>
<speed>0.270000</speed>
</trkpt>
<trkpt lat="44.528477" lon="34.013039">
<ele>552.523926</ele>
<time>2011-10-11T12:13:43Z</time>
<desc>lat.=44.528477, lon.=34.013039, Alt.=552.523926m. Speed=0.396000m/h.</desc>
<speed>0.110000</speed>
</trkpt>
<trkpt lat="44.528515" lon="34.013016">
<ele>552.398926</ele>
<time>2011-10-11T12:13:48Z</time>
<desc>lat.=44.528515, lon.=34.013016, Alt.=552.398926m. Speed=4.932000m/h.</desc>
<speed>1.370000</speed>
</trkpt>
<trkpt lat="44.528530" lon="34.013016">
<ele>552.836426</ele>
<time>2011-10-11T12:13:53Z</time>
<desc>lat.=44.528530, lon.=34.013016, Alt.=552.836426m. Speed=0.432000m/h.</desc>
<speed>0.120000</speed>
</trkpt>
<trkpt lat="44.528545" lon="34.013000">
<ele>553.586426</ele>
<time>2011-10-11T12:13:58Z</time>
<desc>lat.=44.528545, lon.=34.013000, Alt.=553.586426m. Speed=1.188000m/h.</desc>
<speed>0.330000</speed>
</trkpt>
<trkpt lat="44.528519" lon="34.013027">
<ele>553.836426</ele>
<time>2011-10-11T12:14:03Z</time>
<desc>lat.=44.528519, lon.=34.013027, Alt.=553.836426m. Speed=4.536000m/h.</desc>
<speed>1.260000</speed>
</trkpt>
<trkpt lat="44.528473" lon="34.013088">
<ele>554.086426</ele>
<time>2011-10-11T12:14:08Z</time>
<desc>lat.=44.528473, lon.=34.013088, Alt.=554.086426m. Speed=0.648000m/h.</desc>
<speed>0.180000</speed>
</trkpt>
<trkpt lat="44.528458" lon="34.013149">
<ele>553.055176</ele>
<time>2011-10-11T12:14:13Z</time>
<desc>lat.=44.528458, lon.=34.013149, Alt.=553.055176m. Speed=2.628000m/h.</desc>
<speed>0.730000</speed>
</trkpt>
<trkpt lat="44.528511" lon="34.013214">
<ele>552.727051</ele>
<time>2011-10-11T12:14:18Z</time>
<desc>lat.=44.528511, lon.=34.013214, Alt.=552.727051m. Speed=5.184000m/h.</desc>
<speed>1.440000</speed>
</trkpt>
<trkpt lat="44.528542" lon="34.013271">
<ele>551.977051</ele>
<time>2011-10-11T12:14:23Z</time>
<desc>lat.=44.528542, lon.=34.013271, Alt.=551.977051m. Speed=4.176000m/h.</desc>
<speed>1.160000</speed>
</trkpt>
<trkpt lat="44.528549" lon="34.013332">
<ele>550.539551</ele>
<time>2011-10-11T12:14:28Z</time>
<desc>lat.=44.528549, lon.=34.013332, Alt.=550.539551m. Speed=4.896000m/h.</desc>
<speed>1.360000</speed>
</trkpt>
<trkpt lat="44.528591" lon="34.013382">
<ele>549.477051</ele>
<time>2011-10-11T12:14:33Z</time>
<desc>lat.=44.528591, lon.=34.013382, Alt.=549.477051m. Speed=3.996000m/h.</desc>
<speed>1.110000</speed>
</trkpt>
<trkpt lat="44.528622" lon="34.013409">
<ele>549.102051</ele>
<time>2011-10-11T12:14:38Z</time>
<desc>lat.=44.528622, lon.=34.013409, Alt.=549.102051m. Speed=0.864000m/h.</desc>
<speed>0.240000</speed>
</trkpt>
<trkpt lat="44.528591" lon="34.013416">
<ele>548.977051</ele>
<time>2011-10-11T12:14:43Z</time>
<desc>lat.=44.528591, lon.=34.013416, Alt.=548.977051m. Speed=1.836000m/h.</desc>
<speed>0.510000</speed>
</trkpt>
<trkpt lat="44.528568" lon="34.013462">
<ele>547.977051</ele>
<time>2011-10-11T12:14:48Z</time>
<desc>lat.=44.528568, lon.=34.013462, Alt.=547.977051m. Speed=3.600000m/h.</desc>
<speed>1.000000</speed>
</trkpt>
<trkpt lat="44.528526" lon="34.013538">
<ele>548.008301</ele>
<time>2011-10-11T12:14:53Z</time>
<desc>lat.=44.528526, lon.=34.013538, Alt.=548.008301m. Speed=3.924000m/h.</desc>
<speed>1.090000</speed>
</trkpt>
<trkpt lat="44.528515" lon="34.013584">
<ele>548.023926</ele>
<time>2011-10-11T12:14:58Z</time>
<desc>lat.=44.528515, lon.=34.013584, Alt.=548.023926m. Speed=2.304000m/h.</desc>
<speed>0.640000</speed>
</trkpt>
<trkpt lat="44.528568" lon="34.013630">
<ele>547.805176</ele>
<time>2011-10-11T12:15:03Z</time>
<desc>lat.=44.528568, lon.=34.013630, Alt.=547.805176m. Speed=6.084000m/h.</desc>
<speed>1.690000</speed>
</trkpt>
<trkpt lat="44.528606" lon="34.013638">
<ele>547.711426</ele>
<time>2011-10-11T12:15:08Z</time>
<desc>lat.=44.528606, lon.=34.013638, Alt.=547.711426m. Speed=0.324000m/h.</desc>
<speed>0.090000</speed>
</trkpt>
<trkpt lat="44.528652" lon="34.013645">
<ele>548.430176</ele>
<time>2011-10-11T12:15:13Z</time>
<desc>lat.=44.528652, lon.=34.013645, Alt.=548.430176m. Speed=2.844000m/h.</desc>
<speed>0.790000</speed>
</trkpt>
<trkpt lat="44.528679" lon="34.013641">
<ele>549.273926</ele>
<time>2011-10-11T12:15:18Z</time>
<desc>lat.=44.528679, lon.=34.013641, Alt.=549.273926m. Speed=0.828000m/h.</desc>
<speed>0.230000</speed>
</trkpt>
<trkpt lat="44.528709" lon="34.013653">
<ele>550.664551</ele>
<time>2011-10-11T12:15:23Z</time>
<desc>lat.=44.528709, lon.=34.013653, Alt.=550.664551m. Speed=1.944000m/h.</desc>
<speed>0.540000</speed>
</trkpt>
<trkpt lat="44.528687" lon="34.013664">
<ele>551.461426</ele>
<time>2011-10-11T12:15:28Z</time>
<desc>lat.=44.528687, lon.=34.013664, Alt.=551.461426m. Speed=1.836000m/h.</desc>
<speed>0.510000</speed>
</trkpt>
<trkpt lat="44.528732" lon="34.013664">
<ele>551.117676</ele>
<time>2011-10-11T12:15:33Z</time>
<desc>lat.=44.528732, lon.=34.013664, Alt.=551.117676m. Speed=0.288000m/h.</desc>
<speed>0.080000</speed>
</trkpt>
<trkpt lat="44.528736" lon="34.013664">
<ele>551.398926</ele>
<time>2011-10-11T12:15:38Z</time>
<desc>lat.=44.528736, lon.=34.013664, Alt.=551.398926m. Speed=0.648000m/h.</desc>
<speed>0.180000</speed>
</trkpt>
<trkpt lat="44.528759" lon="34.013683">
<ele>551.727051</ele>
<time>2011-10-11T12:15:43Z</time>
<desc>lat.=44.528759, lon.=34.013683, Alt.=551.727051m. Speed=1.872000m/h.</desc>
<speed>0.520000</speed>
</trkpt>
<trkpt lat="44.528835" lon="34.013672">
<ele>551.477051</ele>
<time>2011-10-11T12:15:48Z</time>
<desc>lat.=44.528835, lon.=34.013672, Alt.=551.477051m. Speed=1.188000m/h.</desc>
<speed>0.330000</speed>
</trkpt>
<trkpt lat="44.528881" lon="34.013657">
<ele>551.383301</ele>
<time>2011-10-11T12:15:53Z</time>
<desc>lat.=44.528881, lon.=34.013657, Alt.=551.383301m. Speed=3.240000m/h.</desc>
<speed>0.900000</speed>
</trkpt>
<trkpt lat="44.528961" lon="34.013672">
<ele>551.086426</ele>
<time>2011-10-11T12:15:58Z</time>
<desc>lat.=44.528961, lon.=34.013672, Alt.=551.086426m. Speed=4.968000m/h.</desc>
<speed>1.380000</speed>
</trkpt>
<trkpt lat="44.528984" lon="34.013714">
<ele>551.242676</ele>
<time>2011-10-11T12:16:03Z</time>
<desc>lat.=44.528984, lon.=34.013714, Alt.=551.242676m. Speed=1.764000m/h.</desc>
<speed>0.490000</speed>
</trkpt>
<trkpt lat="44.529015" lon="34.013741">
<ele>551.102051</ele>
<time>2011-10-11T12:16:08Z</time>
<desc>lat.=44.529015, lon.=34.013741, Alt.=551.102051m. Speed=2.952000m/h.</desc>
<speed>0.820000</speed>
</trkpt>
<trkpt lat="44.529026" lon="34.013737">
<ele>551.211426</ele>
<time>2011-10-11T12:16:13Z</time>
<desc>lat.=44.529026, lon.=34.013737, Alt.=551.211426m. Speed=1.224000m/h.</desc>
<speed>0.340000</speed>
</trkpt>
<trkpt lat="44.528961" lon="34.013737">
<ele>551.539551</ele>
<time>2011-10-11T12:16:18Z</time>
<desc>lat.=44.528961, lon.=34.013737, Alt.=551.539551m. Speed=1.332000m/h.</desc>
<speed>0.370000</speed>
</trkpt>
<trkpt lat="44.528893" lon="34.013786">
<ele>552.539551</ele>
<time>2011-10-11T12:16:23Z</time>
<desc>lat.=44.528893, lon.=34.013786, Alt.=552.539551m. Speed=0.864000m/h.</desc>
<speed>0.240000</speed>
</trkpt>
<trkpt lat="44.528931" lon="34.013798">
<ele>552.836426</ele>
<time>2011-10-11T12:16:28Z</time>
<desc>lat.=44.528931, lon.=34.013798, Alt.=552.836426m. Speed=0.900000m/h.</desc>
<speed>0.250000</speed>
</trkpt>
<trkpt lat="44.529034" lon="34.013821">
<ele>554.070801</ele>
<time>2011-10-11T12:16:33Z</time>
<desc>lat.=44.529034, lon.=34.013821, Alt.=554.070801m. Speed=2.736000m/h.</desc>
<speed>0.760000</speed>
</trkpt>
<trkpt lat="44.529087" lon="34.013802">
<ele>555.539551</ele>
<time>2011-10-11T12:16:38Z</time>
<desc>lat.=44.529087, lon.=34.013802, Alt.=555.539551m. Speed=1.512000m/h.</desc>
<speed>0.420000</speed>
</trkpt>
<trkpt lat="44.529129" lon="34.013802">
<ele>556.914551</ele>
<time>2011-10-11T12:16:43Z</time>
<desc>lat.=44.529129, lon.=34.013802, Alt.=556.914551m. Speed=1.116000m/h.</desc>
<speed>0.310000</speed>
</trkpt>
<trkpt lat="44.529114" lon="34.013802">
<ele>557.508301</ele>
<time>2011-10-11T12:16:48Z</time>
<desc>lat.=44.529114, lon.=34.013802, Alt.=557.508301m. Speed=0.576000m/h.</desc>
<speed>0.160000</speed>
</trkpt>
<trkpt lat="44.529144" lon="34.013817">
<ele>557.727051</ele>
<time>2011-10-11T12:16:53Z</time>
<desc>lat.=44.529144, lon.=34.013817, Alt.=557.727051m. Speed=2.196000m/h.</desc>
<speed>0.610000</speed>
</trkpt>
<trkpt lat="44.529140" lon="34.013836">
<ele>557.883301</ele>
<time>2011-10-11T12:16:58Z</time>
<desc>lat.=44.529140, lon.=34.013836, Alt.=557.883301m. Speed=1.656000m/h.</desc>
<speed>0.460000</speed>
</trkpt>
<trkpt lat="44.529129" lon="34.013874">
<ele>557.555176</ele>
<time>2011-10-11T12:17:03Z</time>
<desc>lat.=44.529129, lon.=34.013874, Alt.=557.555176m. Speed=1.260000m/h.</desc>
<speed>0.350000</speed>
</trkpt>
<trkpt lat="44.529099" lon="34.013897">
<ele>556.180176</ele>
<time>2011-10-11T12:17:08Z</time>
<desc>lat.=44.529099, lon.=34.013897, Alt.=556.180176m. Speed=1.584000m/h.</desc>
<speed>0.440000</speed>
</trkpt>
<trkpt lat="44.529110" lon="34.013943">
<ele>555.148926</ele>
<time>2011-10-11T12:17:13Z</time>
<desc>lat.=44.529110, lon.=34.013943, Alt.=555.148926m. Speed=5.436000m/h.</desc>
<speed>1.510000</speed>
</trkpt>
<trkpt lat="44.529140" lon="34.013962">
<ele>554.555176</ele>
<time>2011-10-11T12:17:18Z</time>
<desc>lat.=44.529140, lon.=34.013962, Alt.=554.555176m. Speed=1.980000m/h.</desc>
<speed>0.550000</speed>
</trkpt>
<trkpt lat="44.529148" lon="34.013985">
<ele>554.430176</ele>
<time>2011-10-11T12:17:23Z</time>
<desc>lat.=44.529148, lon.=34.013985, Alt.=554.430176m. Speed=3.492000m/h.</desc>
<speed>0.970000</speed>
</trkpt>
<trkpt lat="44.529175" lon="34.013988">
<ele>554.742676</ele>
<time>2011-10-11T12:17:28Z</time>
<desc>lat.=44.529175, lon.=34.013988, Alt.=554.742676m. Speed=3.492000m/h.</desc>
<speed>0.970000</speed>
</trkpt>
<trkpt lat="44.529167" lon="34.013958">
<ele>555.055176</ele>
<time>2011-10-11T12:17:33Z</time>
<desc>lat.=44.529167, lon.=34.013958, Alt.=555.055176m. Speed=1.044000m/h.</desc>
<speed>0.290000</speed>
</trkpt>
<trkpt lat="44.529171" lon="34.013935">
<ele>555.492676</ele>
<time>2011-10-11T12:17:38Z</time>
<desc>lat.=44.529171, lon.=34.013935, Alt.=555.492676m. Speed=3.600000m/h.</desc>
<speed>1.000000</speed>
</trkpt>
<trkpt lat="44.529202" lon="34.013931">
<ele>556.148926</ele>
<time>2011-10-11T12:17:43Z</time>
<desc>lat.=44.529202, lon.=34.013931, Alt.=556.148926m. Speed=0.684000m/h.</desc>
<speed>0.190000</speed>
</trkpt>
<trkpt lat="44.529190" lon="34.013939">
<ele>556.336426</ele>
<time>2011-10-11T12:17:48Z</time>
<desc>lat.=44.529190, lon.=34.013939, Alt.=556.336426m. Speed=0.864000m/h.</desc>
<speed>0.240000</speed>
</trkpt>
<trkpt lat="44.529175" lon="34.013988">
<ele>556.414551</ele>
<time>2011-10-11T12:17:53Z</time>
<desc>lat.=44.529175, lon.=34.013988, Alt.=556.414551m. Speed=1.692000m/h.</desc>
<speed>0.470000</speed>
</trkpt>
<trkpt lat="44.529140" lon="34.014019">
<ele>557.008301</ele>
<time>2011-10-11T12:17:58Z</time>
<desc>lat.=44.529140, lon.=34.014019, Alt.=557.008301m. Speed=1.152000m/h.</desc>
<speed>0.320000</speed>
</trkpt>
<trkpt lat="44.529083" lon="34.014103">
<ele>557.508301</ele>
<time>2011-10-11T12:18:03Z</time>
<desc>lat.=44.529083, lon.=34.014103, Alt.=557.508301m. Speed=3.348000m/h.</desc>
<speed>0.930000</speed>
</trkpt>
<trkpt lat="44.528980" lon="34.014233">
<ele>558.086426</ele>
<time>2011-10-11T12:18:08Z</time>
<desc>lat.=44.528980, lon.=34.014233, Alt.=558.086426m. Speed=2.232000m/h.</desc>
<speed>0.620000</speed>
</trkpt>
<trkpt lat="44.528755" lon="34.014324">
<ele>559.523926</ele>
<time>2011-10-11T12:18:13Z</time>
<desc>lat.=44.528755, lon.=34.014324, Alt.=559.523926m. Speed=5.724000m/h.</desc>
<speed>1.590000</speed>
</trkpt>
<trkpt lat="44.528591" lon="34.014355">
<ele>561.117676</ele>
<time>2011-10-11T12:18:18Z</time>
<desc>lat.=44.528591, lon.=34.014355, Alt.=561.117676m. Speed=0.468000m/h.</desc>
<speed>0.130000</speed>
</trkpt>
<trkpt lat="44.528458" lon="34.014393">
<ele>562.055176</ele>
<time>2011-10-11T12:18:23Z</time>
<desc>lat.=44.528458, lon.=34.014393, Alt.=562.055176m. Speed=1.548000m/h.</desc>
<speed>0.430000</speed>
</trkpt>
<trkpt lat="44.528400" lon="34.014408">
<ele>562.711426</ele>
<time>2011-10-11T12:18:28Z</time>
<desc>lat.=44.528400, lon.=34.014408, Alt.=562.711426m. Speed=0.576000m/h.</desc>
<speed>0.160000</speed>
</trkpt>
<trkpt lat="44.528294" lon="34.014412">
<ele>562.742676</ele>
<time>2011-10-11T12:18:33Z</time>
<desc>lat.=44.528294, lon.=34.014412, Alt.=562.742676m. Speed=3.276000m/h.</desc>
<speed>0.910000</speed>
</trkpt>
<trkpt lat="44.528141" lon="34.014439">
<ele>563.211426</ele>
<time>2011-10-11T12:18:38Z</time>
<desc>lat.=44.528141, lon.=34.014439, Alt.=563.211426m. Speed=3.600000m/h.</desc>
<speed>1.000000</speed>
</trkpt>
<trkpt lat="44.527950" lon="34.014450">
<ele>563.492676</ele>
<time>2011-10-11T12:18:43Z</time>
<desc>lat.=44.527950, lon.=34.014450, Alt.=563.492676m. Speed=1.224000m/h.</desc>
<speed>0.340000</speed>
</trkpt>
<trkpt lat="44.527988" lon="34.014473">
<ele>564.195801</ele>
<time>2011-10-11T12:18:48Z</time>
<desc>lat.=44.527988, lon.=34.014473, Alt.=564.195801m. Speed=2.700000m/h.</desc>
<speed>0.750000</speed>
</trkpt>
<trkpt lat="44.528057" lon="34.014740">
<ele>564.898926</ele>
<time>2011-10-11T12:18:53Z</time>
<desc>lat.=44.528057, lon.=34.014740, Alt.=564.898926m. Speed=4.140000m/h.</desc>
<speed>1.150000</speed>
</trkpt>
<trkpt lat="44.528065" lon="34.014870">
<ele>565.680176</ele>
<time>2011-10-11T12:18:58Z</time>
<desc>lat.=44.528065, lon.=34.014870, Alt.=565.680176m. Speed=4.176000m/h.</desc>
<speed>1.160000</speed>
</trkpt>
<trkpt lat="44.528080" lon="34.014973">
<ele>566.523926</ele>
<time>2011-10-11T12:19:03Z</time>
<desc>lat.=44.528080, lon.=34.014973, Alt.=566.523926m. Speed=3.960000m/h.</desc>
<speed>1.100000</speed>
</trkpt>
<trkpt lat="44.528111" lon="34.015152">
<ele>567.352051</ele>
<time>2011-10-11T12:19:08Z</time>
<desc>lat.=44.528111, lon.=34.015152, Alt.=567.352051m. Speed=7.236000m/h.</desc>
<speed>2.010000</speed>
</trkpt>
<trkpt lat="44.528156" lon="34.015251">
<ele>568.352051</ele>
<time>2011-10-11T12:19:13Z</time>
<desc>lat.=44.528156, lon.=34.015251, Alt.=568.352051m. Speed=5.616000m/h.</desc>
<speed>1.560000</speed>
</trkpt>
<trkpt lat="44.528206" lon="34.015308">
<ele>569.148926</ele>
<time>2011-10-11T12:19:18Z</time>
<desc>lat.=44.528206, lon.=34.015308, Alt.=569.148926m. Speed=2.772000m/h.</desc>
<speed>0.770000</speed>
</trkpt>
<trkpt lat="44.528294" lon="34.015331">
<ele>569.711426</ele>
<time>2011-10-11T12:19:23Z</time>
<desc>lat.=44.528294, lon.=34.015331, Alt.=569.711426m. Speed=3.960000m/h.</desc>
<speed>1.100000</speed>
</trkpt>
<trkpt lat="44.528328" lon="34.015392">
<ele>570.023926</ele>
<time>2011-10-11T12:19:28Z</time>
<desc>lat.=44.528328, lon.=34.015392, Alt.=570.023926m. Speed=2.952000m/h.</desc>
<speed>0.820000</speed>
</trkpt>
<trkpt lat="44.528378" lon="34.015400">
<ele>569.664551</ele>
<time>2011-10-11T12:19:33Z</time>
<desc>lat.=44.528378, lon.=34.015400, Alt.=569.664551m. Speed=1.656000m/h.</desc>
<speed>0.460000</speed>
</trkpt>
<trkpt lat="44.528416" lon="34.015453">
<ele>569.180176</ele>
<time>2011-10-11T12:19:38Z</time>
<desc>lat.=44.528416, lon.=34.015453, Alt.=569.180176m. Speed=4.896000m/h.</desc>
<speed>1.360000</speed>
</trkpt>
<trkpt lat="44.528484" lon="34.015518">
<ele>569.070801</ele>
<time>2011-10-11T12:19:43Z</time>
<desc>lat.=44.528484, lon.=34.015518, Alt.=569.070801m. Speed=5.004000m/h.</desc>
<speed>1.390000</speed>
</trkpt>
<trkpt lat="44.528606" lon="34.015575">
<ele>568.820801</ele>
<time>2011-10-11T12:19:48Z</time>
<desc>lat.=44.528606, lon.=34.015575, Alt.=568.820801m. Speed=5.256000m/h.</desc>
<speed>1.460000</speed>
</trkpt>
<trkpt lat="44.528637" lon="34.015614">
<ele>568.742676</ele>
<time>2011-10-11T12:19:53Z</time>
<desc>lat.=44.528637, lon.=34.015614, Alt.=568.742676m. Speed=1.944000m/h.</desc>
<speed>0.540000</speed>
</trkpt>
<trkpt lat="44.528687" lon="34.015617">
<ele>568.430176</ele>
<time>2011-10-11T12:19:58Z</time>
<desc>lat.=44.528687, lon.=34.015617, Alt.=568.430176m. Speed=0.900000m/h.</desc>
<speed>0.250000</speed>
</trkpt>
<trkpt lat="44.528721" lon="34.015675">
<ele>568.320801</ele>
<time>2011-10-11T12:20:03Z</time>
<desc>lat.=44.528721, lon.=34.015675, Alt.=568.320801m. Speed=1.296000m/h.</desc>
<speed>0.360000</speed>
</trkpt>
<trkpt lat="44.528755" lon="34.015690">
<ele>568.258301</ele>
<time>2011-10-11T12:20:08Z</time>
<desc>lat.=44.528755, lon.=34.015690, Alt.=568.258301m. Speed=2.376000m/h.</desc>
<speed>0.660000</speed>
</trkpt>
<trkpt lat="44.528763" lon="34.015678">
<ele>568.070801</ele>
<time>2011-10-11T12:20:13Z</time>
<desc>lat.=44.528763, lon.=34.015678, Alt.=568.070801m. Speed=0.396000m/h.</desc>
<speed>0.110000</speed>
</trkpt>
<trkpt lat="44.528774" lon="34.015705">
<ele>567.992676</ele>
<time>2011-10-11T12:20:18Z</time>
<desc>lat.=44.528774, lon.=34.015705, Alt.=567.992676m. Speed=1.800000m/h.</desc>
<speed>0.500000</speed>
</trkpt>
<trkpt lat="44.528820" lon="34.015713">
<ele>567.570801</ele>
<time>2011-10-11T12:20:23Z</time>
<desc>lat.=44.528820, lon.=34.015713, Alt.=567.570801m. Speed=3.024000m/h.</desc>
<speed>0.840000</speed>
</trkpt>
<trkpt lat="44.528851" lon="34.015739">
<ele>567.570801</ele>
<time>2011-10-11T12:20:28Z</time>
<desc>lat.=44.528851, lon.=34.015739, Alt.=567.570801m. Speed=0.684000m/h.</desc>
<speed>0.190000</speed>
</trkpt>
<trkpt lat="44.528908" lon="34.015728">
<ele>567.742676</ele>
<time>2011-10-11T12:20:33Z</time>
<desc>lat.=44.528908, lon.=34.015728, Alt.=567.742676m. Speed=3.276000m/h.</desc>
<speed>0.910000</speed>
</trkpt>
<trkpt lat="44.529015" lon="34.015785">
<ele>567.461426</ele>
<time>2011-10-11T12:20:38Z</time>
<desc>lat.=44.529015, lon.=34.015785, Alt.=567.461426m. Speed=4.536000m/h.</desc>
<speed>1.260000</speed>
</trkpt>
<trkpt lat="44.529060" lon="34.015862">
<ele>567.227051</ele>
<time>2011-10-11T12:20:43Z</time>
<desc>lat.=44.529060, lon.=34.015862, Alt.=567.227051m. Speed=2.736000m/h.</desc>
<speed>0.760000</speed>
</trkpt>
<trkpt lat="44.529129" lon="34.015896">
<ele>566.742676</ele>
<time>2011-10-11T12:20:53Z</time>
<desc>lat.=44.529129, lon.=34.015896, Alt.=566.742676m. Speed=6.912000m/h.</desc>
<speed>1.920000</speed>
</trkpt>
<trkpt lat="44.529263" lon="34.015911">
<ele>566.992676</ele>
<time>2011-10-11T12:20:58Z</time>
<desc>lat.=44.529263, lon.=34.015911, Alt.=566.992676m. Speed=5.292000m/h.</desc>
<speed>1.470000</speed>
</trkpt>
<trkpt lat="44.529240" lon="34.015926">
<ele>566.211426</ele>
<time>2011-10-11T12:21:03Z</time>
<desc>lat.=44.529240, lon.=34.015926, Alt.=566.211426m. Speed=4.860000m/h.</desc>
<speed>1.350000</speed>
</trkpt>
<trkpt lat="44.529247" lon="34.015968">
<ele>565.164551</ele>
<time>2011-10-11T12:21:08Z</time>
<desc>lat.=44.529247, lon.=34.015968, Alt.=565.164551m. Speed=2.520000m/h.</desc>
<speed>0.700000</speed>
</trkpt>
<trkpt lat="44.529289" lon="34.016006">
<ele>564.289551</ele>
<time>2011-10-11T12:21:13Z</time>
<desc>lat.=44.529289, lon.=34.016006, Alt.=564.289551m. Speed=5.112000m/h.</desc>
<speed>1.420000</speed>
</trkpt>
<trkpt lat="44.529388" lon="34.016075">
<ele>563.852051</ele>
<time>2011-10-11T12:21:18Z</time>
<desc>lat.=44.529388, lon.=34.016075, Alt.=563.852051m. Speed=5.076000m/h.</desc>
<speed>1.410000</speed>
</trkpt>
<trkpt lat="44.529488" lon="34.016140">
<ele>563.961426</ele>
<time>2011-10-11T12:21:24Z</time>
<desc>lat.=44.529488, lon.=34.016140, Alt.=563.961426m. Speed=7.488000m/h.</desc>
<speed>2.080000</speed>
</trkpt>
<trkpt lat="44.529606" lon="34.016193">
<ele>563.914551</ele>
<time>2011-10-11T12:21:29Z</time>
<desc>lat.=44.529606, lon.=34.016193, Alt.=563.914551m. Speed=6.588000m/h.</desc>
<speed>1.830000</speed>
</trkpt>
<trkpt lat="44.529572" lon="34.016205">
<ele>564.086426</ele>
<time>2011-10-11T12:21:34Z</time>
<desc>lat.=44.529572, lon.=34.016205, Alt.=564.086426m. Speed=0.900000m/h.</desc>
<speed>0.250000</speed>
</trkpt>
<trkpt lat="44.529602" lon="34.016205">
<ele>564.289551</ele>
<time>2011-10-11T12:21:39Z</time>
<desc>lat.=44.529602, lon.=34.016205, Alt.=564.289551m. Speed=3.492000m/h.</desc>
<speed>0.970000</speed>
</trkpt>
<trkpt lat="44.529808" lon="34.016247">
<ele>563.664551</ele>
<time>2011-10-11T12:21:59Z</time>
<desc>lat.=44.529808, lon.=34.016247, Alt.=563.664551m. Speed=1.404000m/h.</desc>
<speed>0.390000</speed>
</trkpt>
<trkpt lat="44.529762" lon="34.016266">
<ele>563.867676</ele>
<time>2011-10-11T12:22:04Z</time>
<desc>lat.=44.529762, lon.=34.016266, Alt.=563.867676m. Speed=2.376000m/h.</desc>
<speed>0.660000</speed>
</trkpt>
<trkpt lat="44.529858" lon="34.016296">
<ele>563.898926</ele>
<time>2011-10-11T12:22:13Z</time>
<desc>lat.=44.529858, lon.=34.016296, Alt.=563.898926m. Speed=5.580000m/h.</desc>
<speed>1.550000</speed>
</trkpt>
<trkpt lat="44.529800" lon="34.016315">
<ele>563.914551</ele>
<time>2011-10-11T12:22:18Z</time>
<desc>lat.=44.529800, lon.=34.016315, Alt.=563.914551m. Speed=2.340000m/h.</desc>
<speed>0.650000</speed>
</trkpt>
<trkpt lat="44.529728" lon="34.016354">
<ele>563.945801</ele>
<time>2011-10-11T12:22:23Z</time>
<desc>lat.=44.529728, lon.=34.016354, Alt.=563.945801m. Speed=4.572000m/h.</desc>
<speed>1.270000</speed>
</trkpt>
<trkpt lat="44.529690" lon="34.016418">
<ele>564.133301</ele>
<time>2011-10-11T12:22:28Z</time>
<desc>lat.=44.529690, lon.=34.016418, Alt.=564.133301m. Speed=4.032000m/h.</desc>
<speed>1.120000</speed>
</trkpt>
<trkpt lat="44.529758" lon="34.016441">
<ele>564.164551</ele>
<time>2011-10-11T12:22:33Z</time>
<desc>lat.=44.529758, lon.=34.016441, Alt.=564.164551m. Speed=4.644000m/h.</desc>
<speed>1.290000</speed>
</trkpt>
<trkpt lat="44.529758" lon="34.016560">
<ele>564.180176</ele>
<time>2011-10-11T12:22:38Z</time>
<desc>lat.=44.529758, lon.=34.016560, Alt.=564.180176m. Speed=2.880000m/h.</desc>
<speed>0.800000</speed>
</trkpt>
<trkpt lat="44.529797" lon="34.016560">
<ele>564.258301</ele>
<time>2011-10-11T12:22:43Z</time>
<desc>lat.=44.529797, lon.=34.016560, Alt.=564.258301m. Speed=2.736000m/h.</desc>
<speed>0.760000</speed>
</trkpt>
<trkpt lat="44.529854" lon="34.016537">
<ele>564.320801</ele>
<time>2011-10-11T12:22:48Z</time>
<desc>lat.=44.529854, lon.=34.016537, Alt.=564.320801m. Speed=2.700000m/h.</desc>
<speed>0.750000</speed>
</trkpt>
<trkpt lat="44.529819" lon="34.016399">
<ele>563.414551</ele>
<time>2011-10-11T12:22:53Z</time>
<desc>lat.=44.529819, lon.=34.016399, Alt.=563.414551m. Speed=1.800000m/h.</desc>
<speed>0.500000</speed>
</trkpt>
<trkpt lat="44.529816" lon="34.016373">
<ele>563.289551</ele>
<time>2011-10-11T12:22:58Z</time>
<desc>lat.=44.529816, lon.=34.016373, Alt.=563.289551m. Speed=1.908000m/h.</desc>
<speed>0.530000</speed>
</trkpt>
<trkpt lat="44.529758" lon="34.016434">
<ele>563.367676</ele>
<time>2011-10-11T12:23:03Z</time>
<desc>lat.=44.529758, lon.=34.016434, Alt.=563.367676m. Speed=1.692000m/h.</desc>
<speed>0.470000</speed>
</trkpt>
<trkpt lat="44.529697" lon="34.016449">
<ele>563.523926</ele>
<time>2011-10-11T12:23:08Z</time>
<desc>lat.=44.529697, lon.=34.016449, Alt.=563.523926m. Speed=3.384000m/h.</desc>
<speed>0.940000</speed>
</trkpt>
<trkpt lat="44.529686" lon="34.016430">
<ele>563.695801</ele>
<time>2011-10-11T12:23:13Z</time>
<desc>lat.=44.529686, lon.=34.016430, Alt.=563.695801m. Speed=0.972000m/h.</desc>
<speed>0.270000</speed>
</trkpt>
<trkpt lat="44.529724" lon="34.016399">
<ele>563.633301</ele>
<time>2011-10-11T12:23:18Z</time>
<desc>lat.=44.529724, lon.=34.016399, Alt.=563.633301m. Speed=4.212000m/h.</desc>
<speed>1.170000</speed>
</trkpt>
<trkpt lat="44.529915" lon="34.016415">
<ele>563.883301</ele>
<time>2011-10-11T12:23:23Z</time>
<desc>lat.=44.529915, lon.=34.016415, Alt.=563.883301m. Speed=10.656000m/h.</desc>
<speed>2.960000</speed>
</trkpt>
<trkpt lat="44.529930" lon="34.016457">
<ele>563.977051</ele>
<time>2011-10-11T12:23:28Z</time>
<desc>lat.=44.529930, lon.=34.016457, Alt.=563.977051m. Speed=2.340000m/h.</desc>
<speed>0.650000</speed>
</trkpt>
<trkpt lat="44.529926" lon="34.016445">
<ele>564.008301</ele>
<time>2011-10-11T12:23:33Z</time>
<desc>lat.=44.529926, lon.=34.016445, Alt.=564.008301m. Speed=1.908000m/h.</desc>
<speed>0.530000</speed>
</trkpt>
<trkpt lat="44.529972" lon="34.016445">
<ele>563.695801</ele>
<time>2011-10-11T12:23:38Z</time>
<desc>lat.=44.529972, lon.=34.016445, Alt.=563.695801m. Speed=5.832000m/h.</desc>
<speed>1.620000</speed>
</trkpt>
<trkpt lat="44.530151" lon="34.016430">
<ele>563.727051</ele>
<time>2011-10-11T12:23:43Z</time>
<desc>lat.=44.530151, lon.=34.016430, Alt.=563.727051m. Speed=11.952000m/h.</desc>
<speed>3.320000</speed>
</trkpt>
<trkpt lat="44.530266" lon="34.016346">
<ele>563.883301</ele>
<time>2011-10-11T12:23:48Z</time>
<desc>lat.=44.530266, lon.=34.016346, Alt.=563.883301m. Speed=9.144000m/h.</desc>
<speed>2.540000</speed>
</trkpt>
<trkpt lat="44.530125" lon="34.016373">
<ele>563.570801</ele>
<time>2011-10-11T12:23:53Z</time>
<desc>lat.=44.530125, lon.=34.016373, Alt.=563.570801m. Speed=2.664000m/h.</desc>
<speed>0.740000</speed>
</trkpt>
<trkpt lat="44.526264" lon="34.019756">
<ele>1291.485352</ele>
<time>2011-10-11T12:31:55Z</time>
<desc>lat.=44.526264, lon.=34.019756, Alt.=1291.485352m. Speed=1.440000m/h.</desc>
<speed>0.400000</speed>
</trkpt>
<trkpt lat="44.526192" lon="34.019836">
<ele>1316.297852</ele>
<time>2011-10-11T12:32:00Z</time>
<desc>lat.=44.526192, lon.=34.019836, Alt.=1316.297852m. Speed=2.376000m/h.</desc>
<speed>0.660000</speed>
</trkpt>
<trkpt lat="44.526054" lon="34.019955">
<ele>1337.204102</ele>
<time>2011-10-11T12:32:05Z</time>
<desc>lat.=44.526054, lon.=34.019955, Alt.=1337.204102m. Speed=0.540000m/h.</desc>
<speed>0.150000</speed>
</trkpt>
<trkpt lat="44.525932" lon="34.019939">
<ele>1348.141602</ele>
<time>2011-10-11T12:32:10Z</time>
<desc>lat.=44.525932, lon.=34.019939, Alt.=1348.141602m. Speed=3.240000m/h.</desc>
<speed>0.900000</speed>
</trkpt>
<trkpt lat="44.525951" lon="34.019825">
<ele>1352.172852</ele>
<time>2011-10-11T12:32:15Z</time>
<desc>lat.=44.525951, lon.=34.019825, Alt.=1352.172852m. Speed=0.828000m/h.</desc>
<speed>0.230000</speed>
</trkpt>
<trkpt lat="44.525986" lon="34.019802">
<ele>1352.422852</ele>
<time>2011-10-11T12:32:20Z</time>
<desc>lat.=44.525986, lon.=34.019802, Alt.=1352.422852m. Speed=6.120000m/h.</desc>
<speed>1.700000</speed>
</trkpt>
<trkpt lat="44.525982" lon="34.019814">
<ele>1352.485352</ele>
<time>2011-10-11T12:32:25Z</time>
<desc>lat.=44.525982, lon.=34.019814, Alt.=1352.485352m. Speed=1.872000m/h.</desc>
<speed>0.520000</speed>
</trkpt>
<trkpt lat="44.526005" lon="34.019821">
<ele>1353.547852</ele>
<time>2011-10-11T12:32:30Z</time>
<desc>lat.=44.526005, lon.=34.019821, Alt.=1353.547852m. Speed=2.916000m/h.</desc>
<speed>0.810000</speed>
</trkpt>
<trkpt lat="44.525993" lon="34.019844">
<ele>1353.829102</ele>
<time>2011-10-11T12:32:35Z</time>
<desc>lat.=44.525993, lon.=34.019844, Alt.=1353.829102m. Speed=1.692000m/h.</desc>
<speed>0.470000</speed>
</trkpt>
<trkpt lat="44.526047" lon="34.019825">
<ele>1354.704102</ele>
<time>2011-10-11T12:32:40Z</time>
<desc>lat.=44.526047, lon.=34.019825, Alt.=1354.704102m. Speed=0.648000m/h.</desc>
<speed>0.180000</speed>
</trkpt>
<trkpt lat="44.526047" lon="34.019875">
<ele>1354.797852</ele>
<time>2011-10-11T12:32:45Z</time>
<desc>lat.=44.526047, lon.=34.019875, Alt.=1354.797852m. Speed=2.988000m/h.</desc>
<speed>0.830000</speed>
</trkpt>
<trkpt lat="44.526016" lon="34.019924">
<ele>1355.047852</ele>
<time>2011-10-11T12:32:50Z</time>
<desc>lat.=44.526016, lon.=34.019924, Alt.=1355.047852m. Speed=2.088000m/h.</desc>
<speed>0.580000</speed>
</trkpt>
<trkpt lat="44.526001" lon="34.019936">
<ele>1355.391602</ele>
<time>2011-10-11T12:32:55Z</time>
<desc>lat.=44.526001, lon.=34.019936, Alt.=1355.391602m. Speed=2.376000m/h.</desc>
<speed>0.660000</speed>
</trkpt>
<trkpt lat="44.526070" lon="34.019985">
<ele>1355.454102</ele>
<time>2011-10-11T12:33:00Z</time>
<desc>lat.=44.526070, lon.=34.019985, Alt.=1355.454102m. Speed=5.976000m/h.</desc>
<speed>1.660000</speed>
</trkpt>
<trkpt lat="44.526104" lon="34.020123">
<ele>1355.516602</ele>
<time>2011-10-11T12:33:05Z</time>
<desc>lat.=44.526104, lon.=34.020123, Alt.=1355.516602m. Speed=5.184000m/h.</desc>
<speed>1.440000</speed>
</trkpt>
<trkpt lat="44.526207" lon="34.020119">
<ele>1356.141602</ele>
<time>2011-10-11T12:33:10Z</time>
<desc>lat.=44.526207, lon.=34.020119, Alt.=1356.141602m. Speed=3.096000m/h.</desc>
<speed>0.860000</speed>
</trkpt>
<trkpt lat="44.526211" lon="34.020134">
<ele>1356.422852</ele>
<time>2011-10-11T12:33:15Z</time>
<desc>lat.=44.526211, lon.=34.020134, Alt.=1356.422852m. Speed=1.656000m/h.</desc>
<speed>0.460000</speed>
</trkpt>
<trkpt lat="44.526188" lon="34.020069">
<ele>1356.422852</ele>
<time>2011-10-11T12:33:20Z</time>
<desc>lat.=44.526188, lon.=34.020069, Alt.=1356.422852m. Speed=0.792000m/h.</desc>
<speed>0.220000</speed>
</trkpt>
<trkpt lat="44.526215" lon="34.020035">
<ele>1356.922852</ele>
<time>2011-10-11T12:33:25Z</time>
<desc>lat.=44.526215, lon.=34.020035, Alt.=1356.922852m. Speed=0.720000m/h.</desc>
<speed>0.200000</speed>
</trkpt>
<trkpt lat="44.526203" lon="34.019989">
<ele>1356.891602</ele>
<time>2011-10-11T12:33:30Z</time>
<desc>lat.=44.526203, lon.=34.019989, Alt.=1356.891602m. Speed=0.576000m/h.</desc>
<speed>0.160000</speed>
</trkpt>
<trkpt lat="44.526184" lon="34.019974">
<ele>1356.516602</ele>
<time>2011-10-11T12:33:35Z</time>
<desc>lat.=44.526184, lon.=34.019974, Alt.=1356.516602m. Speed=1.656000m/h.</desc>
<speed>0.460000</speed>
</trkpt>
<trkpt lat="44.526211" lon="34.019993">
<ele>1356.360352</ele>
<time>2011-10-11T12:33:40Z</time>
<desc>lat.=44.526211, lon.=34.019993, Alt.=1356.360352m. Speed=0.684000m/h.</desc>
<speed>0.190000</speed>
</trkpt>
<trkpt lat="44.526237" lon="34.020020">
<ele>1356.485352</ele>
<time>2011-10-11T12:33:45Z</time>
<desc>lat.=44.526237, lon.=34.020020, Alt.=1356.485352m. Speed=3.960000m/h.</desc>
<speed>1.100000</speed>
</trkpt>
<trkpt lat="44.526276" lon="34.020081">
<ele>1356.422852</ele>
<time>2011-10-11T12:33:50Z</time>
<desc>lat.=44.526276, lon.=34.020081, Alt.=1356.422852m. Speed=2.304000m/h.</desc>
<speed>0.640000</speed>
</trkpt>
<trkpt lat="44.526348" lon="34.020123">
<ele>1356.110352</ele>
<time>2011-10-11T12:33:55Z</time>
<desc>lat.=44.526348, lon.=34.020123, Alt.=1356.110352m. Speed=0.432000m/h.</desc>
<speed>0.120000</speed>
</trkpt>
<trkpt lat="44.526379" lon="34.020119">
<ele>1356.172852</ele>
<time>2011-10-11T12:34:00Z</time>
<desc>lat.=44.526379, lon.=34.020119, Alt.=1356.172852m. Speed=1.692000m/h.</desc>
<speed>0.470000</speed>
</trkpt>
<trkpt lat="44.526375" lon="34.020092">
<ele>1356.766602</ele>
<time>2011-10-11T12:34:05Z</time>
<desc>lat.=44.526375, lon.=34.020092, Alt.=1356.766602m. Speed=1.188000m/h.</desc>
<speed>0.330000</speed>
</trkpt>
<trkpt lat="44.526413" lon="34.020081">
<ele>1357.016602</ele>
<time>2011-10-11T12:34:10Z</time>
<desc>lat.=44.526413, lon.=34.020081, Alt.=1357.016602m. Speed=3.744000m/h.</desc>
<speed>1.040000</speed>
</trkpt>
<trkpt lat="44.526516" lon="34.020123">
<ele>1355.641602</ele>
<time>2011-10-11T12:34:15Z</time>
<desc>lat.=44.526516, lon.=34.020123, Alt.=1355.641602m. Speed=5.796000m/h.</desc>
<speed>1.610000</speed>
</trkpt>
<trkpt lat="44.526562" lon="34.020145">
<ele>1354.829102</ele>
<time>2011-10-11T12:34:20Z</time>
<desc>lat.=44.526562, lon.=34.020145, Alt.=1354.829102m. Speed=1.944000m/h.</desc>
<speed>0.540000</speed>
</trkpt>
<trkpt lat="44.526508" lon="34.020107">
<ele>1354.204102</ele>
<time>2011-10-11T12:34:25Z</time>
<desc>lat.=44.526508, lon.=34.020107, Alt.=1354.204102m. Speed=2.628000m/h.</desc>
<speed>0.730000</speed>
</trkpt>
<trkpt lat="44.526459" lon="34.020035">
<ele>1352.422852</ele>
<time>2011-10-11T12:34:30Z</time>
<desc>lat.=44.526459, lon.=34.020035, Alt.=1352.422852m. Speed=1.368000m/h.</desc>
<speed>0.380000</speed>
</trkpt>
<trkpt lat="44.526379" lon="34.019978">
<ele>1351.922852</ele>
<time>2011-10-11T12:34:35Z</time>
<desc>lat.=44.526379, lon.=34.019978, Alt.=1351.922852m. Speed=0.720000m/h.</desc>
<speed>0.200000</speed>
</trkpt>
<trkpt lat="44.526337" lon="34.019932">
<ele>1351.829102</ele>
<time>2011-10-11T12:34:40Z</time>
<desc>lat.=44.526337, lon.=34.019932, Alt.=1351.829102m. Speed=2.340000m/h.</desc>
<speed>0.650000</speed>
</trkpt>
<trkpt lat="44.526302" lon="34.019867">
<ele>1351.579102</ele>
<time>2011-10-11T12:34:45Z</time>
<desc>lat.=44.526302, lon.=34.019867, Alt.=1351.579102m. Speed=6.624000m/h.</desc>
<speed>1.840000</speed>
</trkpt>
<trkpt lat="44.526268" lon="34.019855">
<ele>1351.547852</ele>
<time>2011-10-11T12:34:50Z</time>
<desc>lat.=44.526268, lon.=34.019855, Alt.=1351.547852m. Speed=1.188000m/h.</desc>
<speed>0.330000</speed>
</trkpt>
<trkpt lat="44.526260" lon="34.020065">
<ele>1351.485352</ele>
<time>2011-10-11T12:34:55Z</time>
<desc>lat.=44.526260, lon.=34.020065, Alt.=1351.485352m. Speed=1.908000m/h.</desc>
<speed>0.530000</speed>
</trkpt>
<trkpt lat="44.526264" lon="34.020149">
<ele>1351.547852</ele>
<time>2011-10-11T12:35:00Z</time>
<desc>lat.=44.526264, lon.=34.020149, Alt.=1351.547852m. Speed=1.656000m/h.</desc>
<speed>0.460000</speed>
</trkpt>
<trkpt lat="44.526295" lon="34.020267">
<ele>1350.547852</ele>
<time>2011-10-11T12:35:05Z</time>
<desc>lat.=44.526295, lon.=34.020267, Alt.=1350.547852m. Speed=0.612000m/h.</desc>
<speed>0.170000</speed>
</trkpt>
<trkpt lat="44.526299" lon="34.020336">
<ele>1349.547852</ele>
<time>2011-10-11T12:35:10Z</time>
<desc>lat.=44.526299, lon.=34.020336, Alt.=1349.547852m. Speed=1.584000m/h.</desc>
<speed>0.440000</speed>
</trkpt>
<trkpt lat="44.526295" lon="34.020340">
<ele>1348.891602</ele>
<time>2011-10-11T12:35:15Z</time>
<desc>lat.=44.526295, lon.=34.020340, Alt.=1348.891602m. Speed=1.332000m/h.</desc>
<speed>0.370000</speed>
</trkpt>
<trkpt lat="44.526226" lon="34.020325">
<ele>1348.141602</ele>
<time>2011-10-11T12:35:20Z</time>
<desc>lat.=44.526226, lon.=34.020325, Alt.=1348.141602m. Speed=3.456000m/h.</desc>
<speed>0.960000</speed>
</trkpt>
<trkpt lat="44.526230" lon="34.020218">
<ele>1347.766602</ele>
<time>2011-10-11T12:35:25Z</time>
<desc>lat.=44.526230, lon.=34.020218, Alt.=1347.766602m. Speed=3.024000m/h.</desc>
<speed>0.840000</speed>
</trkpt>
<trkpt lat="44.526279" lon="34.020134">
<ele>1347.735352</ele>
<time>2011-10-11T12:35:30Z</time>
<desc>lat.=44.526279, lon.=34.020134, Alt.=1347.735352m. Speed=4.896000m/h.</desc>
<speed>1.360000</speed>
</trkpt>
<trkpt lat="44.526310" lon="34.020111">
<ele>1347.672852</ele>
<time>2011-10-11T12:35:35Z</time>
<desc>lat.=44.526310, lon.=34.020111, Alt.=1347.672852m. Speed=4.104000m/h.</desc>
<speed>1.140000</speed>
</trkpt>
<trkpt lat="44.526230" lon="34.020103">
<ele>1342.297852</ele>
<time>2011-10-11T12:35:40Z</time>
<desc>lat.=44.526230, lon.=34.020103, Alt.=1342.297852m. Speed=3.060000m/h.</desc>
<speed>0.850000</speed>
</trkpt>
<trkpt lat="44.526154" lon="34.020111">
<ele>1339.641602</ele>
<time>2011-10-11T12:35:45Z</time>
<desc>lat.=44.526154, lon.=34.020111, Alt.=1339.641602m. Speed=1.116000m/h.</desc>
<speed>0.310000</speed>
</trkpt>
<trkpt lat="44.526150" lon="34.020096">
<ele>1339.797852</ele>
<time>2011-10-11T12:35:50Z</time>
<desc>lat.=44.526150, lon.=34.020096, Alt.=1339.797852m. Speed=2.700000m/h.</desc>
<speed>0.750000</speed>
</trkpt>
<trkpt lat="44.526173" lon="34.020126">
<ele>1339.547852</ele>
<time>2011-10-11T12:35:55Z</time>
<desc>lat.=44.526173, lon.=34.020126, Alt.=1339.547852m. Speed=4.464000m/h.</desc>
<speed>1.240000</speed>
</trkpt>
<trkpt lat="44.526215" lon="34.020157">
<ele>1339.922852</ele>
<time>2011-10-11T12:36:00Z</time>
<desc>lat.=44.526215, lon.=34.020157, Alt.=1339.922852m. Speed=3.420000m/h.</desc>
<speed>0.950000</speed>
</trkpt>
<trkpt lat="44.526211" lon="34.020298">
<ele>1338.547852</ele>
<time>2011-10-11T12:36:05Z</time>
<desc>lat.=44.526211, lon.=34.020298, Alt.=1338.547852m. Speed=1.944000m/h.</desc>
<speed>0.540000</speed>
</trkpt>
<trkpt lat="44.526253" lon="34.020264">
<ele>1339.204102</ele>
<time>2011-10-11T12:36:10Z</time>
<desc>lat.=44.526253, lon.=34.020264, Alt.=1339.204102m. Speed=2.304000m/h.</desc>
<speed>0.640000</speed>
</trkpt>
<trkpt lat="44.526196" lon="34.020252">
<ele>1339.204102</ele>
<time>2011-10-11T12:36:15Z</time>
<desc>lat.=44.526196, lon.=34.020252, Alt.=1339.204102m. Speed=1.080000m/h.</desc>
<speed>0.300000</speed>
</trkpt>
<trkpt lat="44.526146" lon="34.020267">
<ele>1338.829102</ele>
<time>2011-10-11T12:36:20Z</time>
<desc>lat.=44.526146, lon.=34.020267, Alt.=1338.829102m. Speed=1.656000m/h.</desc>
<speed>0.460000</speed>
</trkpt>
<trkpt lat="44.526127" lon="34.020271">
<ele>1338.735352</ele>
<time>2011-10-11T12:36:25Z</time>
<desc>lat.=44.526127, lon.=34.020271, Alt.=1338.735352m. Speed=2.484000m/h.</desc>
<speed>0.690000</speed>
</trkpt>
<trkpt lat="44.526146" lon="34.020363">
<ele>1338.829102</ele>
<time>2011-10-11T12:36:30Z</time>
<desc>lat.=44.526146, lon.=34.020363, Alt.=1338.829102m. Speed=2.052000m/h.</desc>
<speed>0.570000</speed>
</trkpt>
<trkpt lat="44.526180" lon="34.020527">
<ele>1338.922852</ele>
<time>2011-10-11T12:36:35Z</time>
<desc>lat.=44.526180, lon.=34.020527, Alt.=1338.922852m. Speed=4.356000m/h.</desc>
<speed>1.210000</speed>
</trkpt>
<trkpt lat="44.526211" lon="34.020592">
<ele>1338.454102</ele>
<time>2011-10-11T12:36:40Z</time>
<desc>lat.=44.526211, lon.=34.020592, Alt.=1338.454102m. Speed=2.664000m/h.</desc>
<speed>0.740000</speed>
</trkpt>
<trkpt lat="44.526344" lon="34.020580">
<ele>1338.204102</ele>
<time>2011-10-11T12:36:45Z</time>
<desc>lat.=44.526344, lon.=34.020580, Alt.=1338.204102m. Speed=6.336000m/h.</desc>
<speed>1.760000</speed>
</trkpt>
<trkpt lat="44.526375" lon="34.020496">
<ele>1338.641602</ele>
<time>2011-10-11T12:37:01Z</time>
<desc>lat.=44.526375, lon.=34.020496, Alt.=1338.641602m. Speed=4.680000m/h.</desc>
<speed>1.300000</speed>
</trkpt>
<trkpt lat="44.526485" lon="34.020451">
<ele>1338.266602</ele>
<time>2011-10-11T12:37:06Z</time>
<desc>lat.=44.526485, lon.=34.020451, Alt.=1338.266602m. Speed=4.860000m/h.</desc>
<speed>1.350000</speed>
</trkpt>
<trkpt lat="44.526466" lon="34.020508">
<ele>1337.891602</ele>
<time>2011-10-11T12:37:11Z</time>
<desc>lat.=44.526466, lon.=34.020508, Alt.=1337.891602m. Speed=0.504000m/h.</desc>
<speed>0.140000</speed>
</trkpt>
<trkpt lat="44.526428" lon="34.020432">
<ele>1337.454102</ele>
<time>2011-10-11T12:37:16Z</time>
<desc>lat.=44.526428, lon.=34.020432, Alt.=1337.454102m. Speed=3.348000m/h.</desc>
<speed>0.930000</speed>
</trkpt>
<trkpt lat="44.526379" lon="34.020325">
<ele>1337.110352</ele>
<time>2011-10-11T12:37:21Z</time>
<desc>lat.=44.526379, lon.=34.020325, Alt.=1337.110352m. Speed=0.612000m/h.</desc>
<speed>0.170000</speed>
</trkpt>
<trkpt lat="44.526268" lon="34.020317">
<ele>1336.985352</ele>
<time>2011-10-11T12:37:26Z</time>
<desc>lat.=44.526268, lon.=34.020317, Alt.=1336.985352m. Speed=2.772000m/h.</desc>
<speed>0.770000</speed>
</trkpt>
<trkpt lat="44.526138" lon="34.020447">
<ele>1336.391602</ele>
<time>2011-10-11T12:37:31Z</time>
<desc>lat.=44.526138, lon.=34.020447, Alt.=1336.391602m. Speed=0.756000m/h.</desc>
<speed>0.210000</speed>
</trkpt>
<trkpt lat="44.526138" lon="34.020439">
<ele>1336.704102</ele>
<time>2011-10-11T12:37:36Z</time>
<desc>lat.=44.526138, lon.=34.020439, Alt.=1336.704102m. Speed=0.648000m/h.</desc>
<speed>0.180000</speed>
</trkpt>
<trkpt lat="44.526218" lon="34.020458">
<ele>1336.672852</ele>
<time>2011-10-11T12:37:41Z</time>
<desc>lat.=44.526218, lon.=34.020458, Alt.=1336.672852m. Speed=4.752000m/h.</desc>
<speed>1.320000</speed>
</trkpt>
<trkpt lat="44.526257" lon="34.020527">
<ele>1336.610352</ele>
<time>2011-10-11T12:37:46Z</time>
<desc>lat.=44.526257, lon.=34.020527, Alt.=1336.610352m. Speed=2.736000m/h.</desc>
<speed>0.760000</speed>
</trkpt>
<trkpt lat="44.526241" lon="34.020512">
<ele>1336.079102</ele>
<time>2011-10-11T12:37:51Z</time>
<desc>lat.=44.526241, lon.=34.020512, Alt.=1336.079102m. Speed=1.656000m/h.</desc>
<speed>0.460000</speed>
</trkpt>
<trkpt lat="44.526192" lon="34.020508">
<ele>1335.391602</ele>
<time>2011-10-11T12:37:56Z</time>
<desc>lat.=44.526192, lon.=34.020508, Alt.=1335.391602m. Speed=1.836000m/h.</desc>
<speed>0.510000</speed>
</trkpt>
<trkpt lat="44.526146" lon="34.020359">
<ele>1334.829102</ele>
<time>2011-10-11T12:38:01Z</time>
<desc>lat.=44.526146, lon.=34.020359, Alt.=1334.829102m. Speed=1.224000m/h.</desc>
<speed>0.340000</speed>
</trkpt>
<trkpt lat="44.526104" lon="34.020397">
<ele>1334.797852</ele>
<time>2011-10-11T12:38:06Z</time>
<desc>lat.=44.526104, lon.=34.020397, Alt.=1334.797852m. Speed=0.432000m/h.</desc>
<speed>0.120000</speed>
</trkpt>
<trkpt lat="44.526085" lon="34.020439">
<ele>1334.641602</ele>
<time>2011-10-11T12:38:11Z</time>
<desc>lat.=44.526085, lon.=34.020439, Alt.=1334.641602m. Speed=1.368000m/h.</desc>
<speed>0.380000</speed>
</trkpt>
<trkpt lat="44.526054" lon="34.020428">
<ele>1334.579102</ele>
<time>2011-10-11T12:38:16Z</time>
<desc>lat.=44.526054, lon.=34.020428, Alt.=1334.579102m. Speed=0.864000m/h.</desc>
<speed>0.240000</speed>
</trkpt>
<trkpt lat="44.526150" lon="34.020432">
<ele>1334.516602</ele>
<time>2011-10-11T12:38:21Z</time>
<desc>lat.=44.526150, lon.=34.020432, Alt.=1334.516602m. Speed=8.316000m/h.</desc>
<speed>2.310000</speed>
</trkpt>
<trkpt lat="44.526340" lon="34.020489">
<ele>1334.204102</ele>
<time>2011-10-11T12:38:26Z</time>
<desc>lat.=44.526340, lon.=34.020489, Alt.=1334.204102m. Speed=13.428000m/h.</desc>
<speed>3.730000</speed>
</trkpt>
<trkpt lat="44.538033" lon="34.021427">
<ele>559.633301</ele>
<time>2011-10-11T12:38:49Z</time>
<desc>lat.=44.538033, lon.=34.021427, Alt.=559.633301m. Speed=3.852000m/h.</desc>
<speed>1.070000</speed>
</trkpt>
<trkpt lat="44.537849" lon="34.021481">
<ele>562.570801</ele>
<time>2011-10-11T12:38:54Z</time>
<desc>lat.=44.537849, lon.=34.021481, Alt.=562.570801m. Speed=1.764000m/h.</desc>
<speed>0.490000</speed>
</trkpt>
<trkpt lat="44.530266" lon="34.018909">
<ele>561.164551</ele>
<time>2011-10-11T12:41:00Z</time>
<desc>lat.=44.530266, lon.=34.018909, Alt.=561.164551m. Speed=2.664000m/h.</desc>
<speed>0.740000</speed>
</trkpt>
<trkpt lat="44.529877" lon="34.018921">
<ele>560.836426</ele>
<time>2011-10-11T12:41:05Z</time>
<desc>lat.=44.529877, lon.=34.018921, Alt.=560.836426m. Speed=2.376000m/h.</desc>
<speed>0.660000</speed>
</trkpt>
<trkpt lat="44.529839" lon="34.019001">
<ele>561.289551</ele>
<time>2011-10-11T12:41:10Z</time>
<desc>lat.=44.529839, lon.=34.019001, Alt.=561.289551m. Speed=5.328000m/h.</desc>
<speed>1.480000</speed>
</trkpt>
<trkpt lat="44.529938" lon="34.019188">
<ele>561.742676</ele>
<time>2011-10-11T12:41:15Z</time>
<desc>lat.=44.529938, lon.=34.019188, Alt.=561.742676m. Speed=6.192000m/h.</desc>
<speed>1.720000</speed>
</trkpt>
<trkpt lat="44.529945" lon="34.019234">
<ele>562.180176</ele>
<time>2011-10-11T12:41:20Z</time>
<desc>lat.=44.529945, lon.=34.019234, Alt.=562.180176m. Speed=2.016000m/h.</desc>
<speed>0.560000</speed>
</trkpt>
<trkpt lat="44.529949" lon="34.019302">
<ele>561.086426</ele>
<time>2011-10-11T12:41:25Z</time>
<desc>lat.=44.529949, lon.=34.019302, Alt.=561.086426m. Speed=2.700000m/h.</desc>
<speed>0.750000</speed>
</trkpt>
<trkpt lat="44.529976" lon="34.019249">
<ele>563.695801</ele>
<time>2011-10-11T12:41:30Z</time>
<desc>lat.=44.529976, lon.=34.019249, Alt.=563.695801m. Speed=1.728000m/h.</desc>
<speed>0.480000</speed>
</trkpt>
<trkpt lat="44.529953" lon="34.019249">
<ele>564.102051</ele>
<time>2011-10-11T12:41:35Z</time>
<desc>lat.=44.529953, lon.=34.019249, Alt.=564.102051m. Speed=2.736000m/h.</desc>
<speed>0.760000</speed>
</trkpt>
<trkpt lat="44.529972" lon="34.019337">
<ele>564.055176</ele>
<time>2011-10-11T12:41:40Z</time>
<desc>lat.=44.529972, lon.=34.019337, Alt.=564.055176m. Speed=1.332000m/h.</desc>
<speed>0.370000</speed>
</trkpt>
<trkpt lat="44.529999" lon="34.019302">
<ele>564.180176</ele>
<time>2011-10-11T12:41:45Z</time>
<desc>lat.=44.529999, lon.=34.019302, Alt.=564.180176m. Speed=2.160000m/h.</desc>
<speed>0.600000</speed>
</trkpt>
<trkpt lat="44.530006" lon="34.019310">
<ele>564.273926</ele>
<time>2011-10-11T12:41:50Z</time>
<desc>lat.=44.530006, lon.=34.019310, Alt.=564.273926m. Speed=2.232000m/h.</desc>
<speed>0.620000</speed>
</trkpt>
<trkpt lat="44.530029" lon="34.019241">
<ele>564.383301</ele>
<time>2011-10-11T12:41:55Z</time>
<desc>lat.=44.530029, lon.=34.019241, Alt.=564.383301m. Speed=2.592000m/h.</desc>
<speed>0.720000</speed>
</trkpt>
<trkpt lat="44.530022" lon="34.019333">
<ele>564.117676</ele>
<time>2011-10-11T12:42:00Z</time>
<desc>lat.=44.530022, lon.=34.019333, Alt.=564.117676m. Speed=4.284000m/h.</desc>
<speed>1.190000</speed>
</trkpt>
<trkpt lat="44.529976" lon="34.019493">
<ele>563.695801</ele>
<time>2011-10-11T12:42:05Z</time>
<desc>lat.=44.529976, lon.=34.019493, Alt.=563.695801m. Speed=0.792000m/h.</desc>
<speed>0.220000</speed>
</trkpt>
<trkpt lat="44.529972" lon="34.019463">
<ele>563.680176</ele>
<time>2011-10-11T12:42:10Z</time>
<desc>lat.=44.529972, lon.=34.019463, Alt.=563.680176m. Speed=1.260000m/h.</desc>
<speed>0.350000</speed>
</trkpt>
<trkpt lat="44.529903" lon="34.019444">
<ele>563.789551</ele>
<time>2011-10-11T12:42:15Z</time>
<desc>lat.=44.529903, lon.=34.019444, Alt.=563.789551m. Speed=5.508000m/h.</desc>
<speed>1.530000</speed>
</trkpt>
<trkpt lat="44.529865" lon="34.019451">
<ele>563.789551</ele>
<time>2011-10-11T12:42:20Z</time>
<desc>lat.=44.529865, lon.=34.019451, Alt.=563.789551m. Speed=1.368000m/h.</desc>
<speed>0.380000</speed>
</trkpt>
<trkpt lat="44.529823" lon="34.019539">
<ele>563.836426</ele>
<time>2011-10-11T12:42:25Z</time>
<desc>lat.=44.529823, lon.=34.019539, Alt.=563.836426m. Speed=1.980000m/h.</desc>
<speed>0.550000</speed>
</trkpt>
<trkpt lat="44.529881" lon="34.019436">
<ele>564.070801</ele>
<time>2011-10-11T12:42:30Z</time>
<desc>lat.=44.529881, lon.=34.019436, Alt.=564.070801m. Speed=1.152000m/h.</desc>
<speed>0.320000</speed>
</trkpt>
<trkpt lat="44.529884" lon="34.019505">
<ele>564.023926</ele>
<time>2011-10-11T12:42:35Z</time>
<desc>lat.=44.529884, lon.=34.019505, Alt.=564.023926m. Speed=1.152000m/h.</desc>
<speed>0.320000</speed>
</trkpt>
<trkpt lat="44.529911" lon="34.019566">
<ele>563.992676</ele>
<time>2011-10-11T12:42:40Z</time>
<desc>lat.=44.529911, lon.=34.019566, Alt.=563.992676m. Speed=4.392000m/h.</desc>
<speed>1.220000</speed>
</trkpt>
<trkpt lat="44.529987" lon="34.019627">
<ele>564.117676</ele>
<time>2011-10-11T12:42:45Z</time>
<desc>lat.=44.529987, lon.=34.019627, Alt.=564.117676m. Speed=3.528000m/h.</desc>
<speed>0.980000</speed>
</trkpt>
<trkpt lat="44.529961" lon="34.019653">
<ele>564.148926</ele>
<time>2011-10-11T12:42:50Z</time>
<desc>lat.=44.529961, lon.=34.019653, Alt.=564.148926m. Speed=3.060000m/h.</desc>
<speed>0.850000</speed>
</trkpt>
<trkpt lat="44.529953" lon="34.019722">
<ele>563.883301</ele>
<time>2011-10-11T12:42:55Z</time>
<desc>lat.=44.529953, lon.=34.019722, Alt.=563.883301m. Speed=4.032000m/h.</desc>
<speed>1.120000</speed>
</trkpt>
<trkpt lat="44.529961" lon="34.019791">
<ele>563.930176</ele>
<time>2011-10-11T12:43:00Z</time>
<desc>lat.=44.529961, lon.=34.019791, Alt.=563.930176m. Speed=1.764000m/h.</desc>
<speed>0.490000</speed>
</trkpt>
<trkpt lat="44.529995" lon="34.019871">
<ele>563.977051</ele>
<time>2011-10-11T12:43:05Z</time>
<desc>lat.=44.529995, lon.=34.019871, Alt.=563.977051m. Speed=3.780000m/h.</desc>
<speed>1.050000</speed>
</trkpt>
<trkpt lat="44.530056" lon="34.019966">
<ele>564.008301</ele>
<time>2011-10-11T12:43:10Z</time>
<desc>lat.=44.530056, lon.=34.019966, Alt.=564.008301m. Speed=8.208000m/h.</desc>
<speed>2.280000</speed>
</trkpt>
<trkpt lat="44.530041" lon="34.019993">
<ele>563.883301</ele>
<time>2011-10-11T12:43:15Z</time>
<desc>lat.=44.530041, lon.=34.019993, Alt.=563.883301m. Speed=0.972000m/h.</desc>
<speed>0.270000</speed>
</trkpt>
<trkpt lat="44.530075" lon="34.020000">
<ele>563.977051</ele>
<time>2011-10-11T12:43:20Z</time>
<desc>lat.=44.530075, lon.=34.020000, Alt.=563.977051m. Speed=2.772000m/h.</desc>
<speed>0.770000</speed>
</trkpt>
<trkpt lat="44.530125" lon="34.020050">
<ele>564.023926</ele>
<time>2011-10-11T12:43:25Z</time>
<desc>lat.=44.530125, lon.=34.020050, Alt.=564.023926m. Speed=3.420000m/h.</desc>
<speed>0.950000</speed>
</trkpt>
<trkpt lat="44.530098" lon="34.020126">
<ele>564.008301</ele>
<time>2011-10-11T12:43:30Z</time>
<desc>lat.=44.530098, lon.=34.020126, Alt.=564.008301m. Speed=3.240000m/h.</desc>
<speed>0.900000</speed>
</trkpt>
<trkpt lat="44.530098" lon="34.020218">
<ele>563.977051</ele>
<time>2011-10-11T12:43:35Z</time>
<desc>lat.=44.530098, lon.=34.020218, Alt.=563.977051m. Speed=4.284000m/h.</desc>
<speed>1.190000</speed>
</trkpt>
<trkpt lat="44.530087" lon="34.020245">
<ele>563.805176</ele>
<time>2011-10-11T12:43:40Z</time>
<desc>lat.=44.530087, lon.=34.020245, Alt.=563.805176m. Speed=3.816000m/h.</desc>
<speed>1.060000</speed>
</trkpt>
<trkpt lat="44.530071" lon="34.020248">
<ele>563.570801</ele>
<time>2011-10-11T12:43:45Z</time>
<desc>lat.=44.530071, lon.=34.020248, Alt.=563.570801m. Speed=1.188000m/h.</desc>
<speed>0.330000</speed>
</trkpt>
<trkpt lat="44.530029" lon="34.020252">
<ele>563.367676</ele>
<time>2011-10-11T12:43:50Z</time>
<desc>lat.=44.530029, lon.=34.020252, Alt.=563.367676m. Speed=1.152000m/h.</desc>
<speed>0.320000</speed>
</trkpt>
<trkpt lat="44.530075" lon="34.020271">
<ele>563.273926</ele>
<time>2011-10-11T12:43:55Z</time>
<desc>lat.=44.530075, lon.=34.020271, Alt.=563.273926m. Speed=7.020000m/h.</desc>
<speed>1.950000</speed>
</trkpt>
<trkpt lat="44.530113" lon="34.020329">
<ele>563.195801</ele>
<time>2011-10-11T12:44:00Z</time>
<desc>lat.=44.530113, lon.=34.020329, Alt.=563.195801m. Speed=2.484000m/h.</desc>
<speed>0.690000</speed>
</trkpt>
<trkpt lat="44.530048" lon="34.020348">
<ele>563.023926</ele>
<time>2011-10-11T12:44:05Z</time>
<desc>lat.=44.530048, lon.=34.020348, Alt.=563.023926m. Speed=3.816000m/h.</desc>
<speed>1.060000</speed>
</trkpt>
<trkpt lat="44.530033" lon="34.020332">
<ele>562.930176</ele>
<time>2011-10-11T12:44:10Z</time>
<desc>lat.=44.530033, lon.=34.020332, Alt.=562.930176m. Speed=1.116000m/h.</desc>
<speed>0.310000</speed>
</trkpt>
<trkpt lat="44.530079" lon="34.020439">
<ele>562.977051</ele>
<time>2011-10-11T12:44:15Z</time>
<desc>lat.=44.530079, lon.=34.020439, Alt.=562.977051m. Speed=3.852000m/h.</desc>
<speed>1.070000</speed>
</trkpt>
<trkpt lat="44.530113" lon="34.020531">
<ele>562.930176</ele>
<time>2011-10-11T12:44:20Z</time>
<desc>lat.=44.530113, lon.=34.020531, Alt.=562.930176m. Speed=4.212000m/h.</desc>
<speed>1.170000</speed>
</trkpt>
<trkpt lat="44.530151" lon="34.020584">
<ele>562.852051</ele>
<time>2011-10-11T12:44:25Z</time>
<desc>lat.=44.530151, lon.=34.020584, Alt.=562.852051m. Speed=4.500000m/h.</desc>
<speed>1.250000</speed>
</trkpt>
<trkpt lat="44.529949" lon="34.027695">
<ele>801.492676</ele>
<time>2011-10-11T13:25:32Z</time>
<desc>lat.=44.529949, lon.=34.027695, Alt.=801.492676m. Speed=1.800000m/h.</desc>
<speed>0.500000</speed>
</trkpt>
<trkpt lat="44.529900" lon="34.027977">
<ele>732.508301</ele>
<time>2011-10-11T13:25:37Z</time>
<desc>lat.=44.529900, lon.=34.027977, Alt.=732.508301m. Speed=2.124000m/h.</desc>
<speed>0.590000</speed>
</trkpt>
<trkpt lat="44.529900" lon="34.028038">
<ele>732.289551</ele>
<time>2011-10-11T13:25:42Z</time>
<desc>lat.=44.529900, lon.=34.028038, Alt.=732.289551m. Speed=1.476000m/h.</desc>
<speed>0.410000</speed>
</trkpt>
<trkpt lat="44.529884" lon="34.028069">
<ele>731.727051</ele>
<time>2011-10-11T13:25:47Z</time>
<desc>lat.=44.529884, lon.=34.028069, Alt.=731.727051m. Speed=2.160000m/h.</desc>
<speed>0.600000</speed>
</trkpt>
<trkpt lat="44.529903" lon="34.028107">
<ele>726.789551</ele>
<time>2011-10-11T13:25:52Z</time>
<desc>lat.=44.529903, lon.=34.028107, Alt.=726.789551m. Speed=0.684000m/h.</desc>
<speed>0.190000</speed>
</trkpt>
<trkpt lat="44.529839" lon="34.028156">
<ele>724.867676</ele>
<time>2011-10-11T13:25:57Z</time>
<desc>lat.=44.529839, lon.=34.028156, Alt.=724.867676m. Speed=3.276000m/h.</desc>
<speed>0.910000</speed>
</trkpt>
<trkpt lat="44.529846" lon="34.028225">
<ele>725.664551</ele>
<time>2011-10-11T13:26:02Z</time>
<desc>lat.=44.529846, lon.=34.028225, Alt.=725.664551m. Speed=3.276000m/h.</desc>
<speed>0.910000</speed>
</trkpt>
<trkpt lat="44.529877" lon="34.028248">
<ele>725.102051</ele>
<time>2011-10-11T13:26:07Z</time>
<desc>lat.=44.529877, lon.=34.028248, Alt.=725.102051m. Speed=1.044000m/h.</desc>
<speed>0.290000</speed>
</trkpt>
<trkpt lat="44.529884" lon="34.028275">
<ele>724.945801</ele>
<time>2011-10-11T13:26:12Z</time>
<desc>lat.=44.529884, lon.=34.028275, Alt.=724.945801m. Speed=1.692000m/h.</desc>
<speed>0.470000</speed>
</trkpt>
<trkpt lat="44.529915" lon="34.028324">
<ele>726.023926</ele>
<time>2011-10-11T13:26:17Z</time>
<desc>lat.=44.529915, lon.=34.028324, Alt.=726.023926m. Speed=1.800000m/h.</desc>
<speed>0.500000</speed>
</trkpt>
<trkpt lat="44.529922" lon="34.028351">
<ele>726.852051</ele>
<time>2011-10-11T13:26:22Z</time>
<desc>lat.=44.529922, lon.=34.028351, Alt.=726.852051m. Speed=3.096000m/h.</desc>
<speed>0.860000</speed>
</trkpt>
<trkpt lat="44.529922" lon="34.028378">
<ele>726.945801</ele>
<time>2011-10-11T13:26:27Z</time>
<desc>lat.=44.529922, lon.=34.028378, Alt.=726.945801m. Speed=0.252000m/h.</desc>
<speed>0.070000</speed>
</trkpt>
<trkpt lat="44.529922" lon="34.028419">
<ele>726.211426</ele>
<time>2011-10-11T13:26:32Z</time>
<desc>lat.=44.529922, lon.=34.028419, Alt.=726.211426m. Speed=2.052000m/h.</desc>
<speed>0.570000</speed>
</trkpt>
<trkpt lat="44.529930" lon="34.028442">
<ele>725.648926</ele>
<time>2011-10-11T13:26:37Z</time>
<desc>lat.=44.529930, lon.=34.028442, Alt.=725.648926m. Speed=0.936000m/h.</desc>
<speed>0.260000</speed>
</trkpt>
<trkpt lat="44.529934" lon="34.028507">
<ele>724.539551</ele>
<time>2011-10-11T13:26:42Z</time>
<desc>lat.=44.529934, lon.=34.028507, Alt.=724.539551m. Speed=1.368000m/h.</desc>
<speed>0.380000</speed>
</trkpt>
<trkpt lat="44.529938" lon="34.028580">
<ele>724.789551</ele>
<time>2011-10-11T13:26:47Z</time>
<desc>lat.=44.529938, lon.=34.028580, Alt.=724.789551m. Speed=2.124000m/h.</desc>
<speed>0.590000</speed>
</trkpt>
<trkpt lat="44.529915" lon="34.028641">
<ele>726.023926</ele>
<time>2011-10-11T13:26:52Z</time>
<desc>lat.=44.529915, lon.=34.028641, Alt.=726.023926m. Speed=2.124000m/h.</desc>
<speed>0.590000</speed>
</trkpt>
<trkpt lat="44.529942" lon="34.028736">
<ele>726.852051</ele>
<time>2011-10-11T13:26:57Z</time>
<desc>lat.=44.529942, lon.=34.028736, Alt.=726.852051m. Speed=2.340000m/h.</desc>
<speed>0.650000</speed>
</trkpt>
<trkpt lat="44.529926" lon="34.028774">
<ele>726.930176</ele>
<time>2011-10-11T13:27:02Z</time>
<desc>lat.=44.529926, lon.=34.028774, Alt.=726.930176m. Speed=1.116000m/h.</desc>
<speed>0.310000</speed>
</trkpt>
<trkpt lat="44.529919" lon="34.028809">
<ele>726.930176</ele>
<time>2011-10-11T13:27:07Z</time>
<desc>lat.=44.529919, lon.=34.028809, Alt.=726.930176m. Speed=1.296000m/h.</desc>
<speed>0.360000</speed>
</trkpt>
<trkpt lat="44.529865" lon="34.028782">
<ele>727.805176</ele>
<time>2011-10-11T13:27:12Z</time>
<desc>lat.=44.529865, lon.=34.028782, Alt.=727.805176m. Speed=0.720000m/h.</desc>
<speed>0.200000</speed>
</trkpt>
<trkpt lat="44.529869" lon="34.028797">
<ele>727.961426</ele>
<time>2011-10-11T13:27:17Z</time>
<desc>lat.=44.529869, lon.=34.028797, Alt.=727.961426m. Speed=1.188000m/h.</desc>
<speed>0.330000</speed>
</trkpt>
<trkpt lat="44.529865" lon="34.028851">
<ele>728.602051</ele>
<time>2011-10-11T13:27:22Z</time>
<desc>lat.=44.529865, lon.=34.028851, Alt.=728.602051m. Speed=1.728000m/h.</desc>
<speed>0.480000</speed>
</trkpt>
<trkpt lat="44.529930" lon="34.028976">
<ele>728.961426</ele>
<time>2011-10-11T13:27:27Z</time>
<desc>lat.=44.529930, lon.=34.028976, Alt.=728.961426m. Speed=3.708000m/h.</desc>
<speed>1.030000</speed>
</trkpt>
<trkpt lat="44.529957" lon="34.029068">
<ele>729.070801</ele>
<time>2011-10-11T13:27:32Z</time>
<desc>lat.=44.529957, lon.=34.029068, Alt.=729.070801m. Speed=4.104000m/h.</desc>
<speed>1.140000</speed>
</trkpt>
<trkpt lat="44.529957" lon="34.029152">
<ele>729.180176</ele>
<time>2011-10-11T13:27:37Z</time>
<desc>lat.=44.529957, lon.=34.029152, Alt.=729.180176m. Speed=3.420000m/h.</desc>
<speed>0.950000</speed>
</trkpt>
<trkpt lat="44.529957" lon="34.029236">
<ele>728.883301</ele>
<time>2011-10-11T13:27:42Z</time>
<desc>lat.=44.529957, lon.=34.029236, Alt.=728.883301m. Speed=2.268000m/h.</desc>
<speed>0.630000</speed>
</trkpt>
<trkpt lat="44.529964" lon="34.029320">
<ele>726.914551</ele>
<time>2011-10-11T13:27:47Z</time>
<desc>lat.=44.529964, lon.=34.029320, Alt.=726.914551m. Speed=2.232000m/h.</desc>
<speed>0.620000</speed>
</trkpt>
<trkpt lat="44.529972" lon="34.029408">
<ele>725.227051</ele>
<time>2011-10-11T13:27:52Z</time>
<desc>lat.=44.529972, lon.=34.029408, Alt.=725.227051m. Speed=2.988000m/h.</desc>
<speed>0.830000</speed>
</trkpt>
<trkpt lat="44.529991" lon="34.029488">
<ele>723.086426</ele>
<time>2011-10-11T13:27:57Z</time>
<desc>lat.=44.529991, lon.=34.029488, Alt.=723.086426m. Speed=2.844000m/h.</desc>
<speed>0.790000</speed>
</trkpt>
<trkpt lat="44.529938" lon="34.029522">
<ele>722.883301</ele>
<time>2011-10-11T13:28:02Z</time>
<desc>lat.=44.529938, lon.=34.029522, Alt.=722.883301m. Speed=1.404000m/h.</desc>
<speed>0.390000</speed>
</trkpt>
<trkpt lat="44.529869" lon="34.029545">
<ele>721.805176</ele>
<time>2011-10-11T13:28:07Z</time>
<desc>lat.=44.529869, lon.=34.029545, Alt.=721.805176m. Speed=3.024000m/h.</desc>
<speed>0.840000</speed>
</trkpt>
<trkpt lat="44.529888" lon="34.029594">
<ele>721.586426</ele>
<time>2011-10-11T13:28:12Z</time>
<desc>lat.=44.529888, lon.=34.029594, Alt.=721.586426m. Speed=4.356000m/h.</desc>
<speed>1.210000</speed>
</trkpt>
<trkpt lat="44.529900" lon="34.029671">
<ele>721.320801</ele>
<time>2011-10-11T13:28:17Z</time>
<desc>lat.=44.529900, lon.=34.029671, Alt.=721.320801m. Speed=2.772000m/h.</desc>
<speed>0.770000</speed>
</trkpt>
<trkpt lat="44.529861" lon="34.029713">
<ele>721.680176</ele>
<time>2011-10-11T13:28:22Z</time>
<desc>lat.=44.529861, lon.=34.029713, Alt.=721.680176m. Speed=0.936000m/h.</desc>
<speed>0.260000</speed>
</trkpt>
<trkpt lat="44.529835" lon="34.029785">
<ele>721.227051</ele>
<time>2011-10-11T13:28:27Z</time>
<desc>lat.=44.529835, lon.=34.029785, Alt.=721.227051m. Speed=4.680000m/h.</desc>
<speed>1.300000</speed>
</trkpt>
<trkpt lat="44.529888" lon="34.029896">
<ele>718.445801</ele>
<time>2011-10-11T13:28:32Z</time>
<desc>lat.=44.529888, lon.=34.029896, Alt.=718.445801m. Speed=2.016000m/h.</desc>
<speed>0.560000</speed>
</trkpt>
<trkpt lat="44.529900" lon="34.030041">
<ele>713.695801</ele>
<time>2011-10-11T13:28:37Z</time>
<desc>lat.=44.529900, lon.=34.030041, Alt.=713.695801m. Speed=3.492000m/h.</desc>
<speed>0.970000</speed>
</trkpt>
<trkpt lat="44.529846" lon="34.030067">
<ele>708.898926</ele>
<time>2011-10-11T13:28:42Z</time>
<desc>lat.=44.529846, lon.=34.030067, Alt.=708.898926m. Speed=5.004000m/h.</desc>
<speed>1.390000</speed>
</trkpt>
<trkpt lat="44.529812" lon="34.030102">
<ele>705.227051</ele>
<time>2011-10-11T13:28:47Z</time>
<desc>lat.=44.529812, lon.=34.030102, Alt.=705.227051m. Speed=2.844000m/h.</desc>
<speed>0.790000</speed>
</trkpt>
<trkpt lat="44.529747" lon="34.030102">
<ele>704.648926</ele>
<time>2011-10-11T13:28:52Z</time>
<desc>lat.=44.529747, lon.=34.030102, Alt.=704.648926m. Speed=6.732000m/h.</desc>
<speed>1.870000</speed>
</trkpt>
<trkpt lat="44.529736" lon="34.030159">
<ele>704.930176</ele>
<time>2011-10-11T13:28:57Z</time>
<desc>lat.=44.529736, lon.=34.030159, Alt.=704.930176m. Speed=3.960000m/h.</desc>
<speed>1.100000</speed>
</trkpt>
<trkpt lat="44.529686" lon="34.030155">
<ele>704.352051</ele>
<time>2011-10-11T13:29:02Z</time>
<desc>lat.=44.529686, lon.=34.030155, Alt.=704.352051m. Speed=2.700000m/h.</desc>
<speed>0.750000</speed>
</trkpt>
<trkpt lat="44.529636" lon="34.030159">
<ele>704.477051</ele>
<time>2011-10-11T13:29:07Z</time>
<desc>lat.=44.529636, lon.=34.030159, Alt.=704.477051m. Speed=2.952000m/h.</desc>
<speed>0.820000</speed>
</trkpt>
<trkpt lat="44.529606" lon="34.030201">
<ele>704.711426</ele>
<time>2011-10-11T13:29:12Z</time>
<desc>lat.=44.529606, lon.=34.030201, Alt.=704.711426m. Speed=3.780000m/h.</desc>
<speed>1.050000</speed>
</trkpt>
<trkpt lat="44.529598" lon="34.030247">
<ele>704.570801</ele>
<time>2011-10-11T13:29:17Z</time>
<desc>lat.=44.529598, lon.=34.030247, Alt.=704.570801m. Speed=2.160000m/h.</desc>
<speed>0.600000</speed>
</trkpt>
<trkpt lat="44.529591" lon="34.030281">
<ele>704.664551</ele>
<time>2011-10-11T13:29:22Z</time>
<desc>lat.=44.529591, lon.=34.030281, Alt.=704.664551m. Speed=1.692000m/h.</desc>
<speed>0.470000</speed>
</trkpt>
<trkpt lat="44.529579" lon="34.030334">
<ele>704.727051</ele>
<time>2011-10-11T13:29:27Z</time>
<desc>lat.=44.529579, lon.=34.030334, Alt.=704.727051m. Speed=1.764000m/h.</desc>
<speed>0.490000</speed>
</trkpt>
<trkpt lat="44.529549" lon="34.030354">
<ele>704.992676</ele>
<time>2011-10-11T13:29:32Z</time>
<desc>lat.=44.529549, lon.=34.030354, Alt.=704.992676m. Speed=1.764000m/h.</desc>
<speed>0.490000</speed>
</trkpt>
<trkpt lat="44.529514" lon="34.030376">
<ele>705.023926</ele>
<time>2011-10-11T13:29:37Z</time>
<desc>lat.=44.529514, lon.=34.030376, Alt.=705.023926m. Speed=2.124000m/h.</desc>
<speed>0.590000</speed>
</trkpt>
<trkpt lat="44.529545" lon="34.030464">
<ele>705.055176</ele>
<time>2011-10-11T13:29:42Z</time>
<desc>lat.=44.529545, lon.=34.030464, Alt.=705.055176m. Speed=1.440000m/h.</desc>
<speed>0.400000</speed>
</trkpt>
<trkpt lat="44.529545" lon="34.030499">
<ele>703.945801</ele>
<time>2011-10-11T13:29:47Z</time>
<desc>lat.=44.529545, lon.=34.030499, Alt.=703.945801m. Speed=1.404000m/h.</desc>
<speed>0.390000</speed>
</trkpt>
<trkpt lat="44.529530" lon="34.030571">
<ele>703.508301</ele>
<time>2011-10-11T13:29:52Z</time>
<desc>lat.=44.529530, lon.=34.030571, Alt.=703.508301m. Speed=3.168000m/h.</desc>
<speed>0.880000</speed>
</trkpt>
<trkpt lat="44.529488" lon="34.030613">
<ele>702.539551</ele>
<time>2011-10-11T13:29:57Z</time>
<desc>lat.=44.529488, lon.=34.030613, Alt.=702.539551m. Speed=2.988000m/h.</desc>
<speed>0.830000</speed>
</trkpt>
<trkpt lat="44.529430" lon="34.030621">
<ele>701.742676</ele>
<time>2011-10-11T13:30:02Z</time>
<desc>lat.=44.529430, lon.=34.030621, Alt.=701.742676m. Speed=2.340000m/h.</desc>
<speed>0.650000</speed>
</trkpt>
<trkpt lat="44.529362" lon="34.030655">
<ele>698.727051</ele>
<time>2011-10-11T13:30:07Z</time>
<desc>lat.=44.529362, lon.=34.030655, Alt.=698.727051m. Speed=2.268000m/h.</desc>
<speed>0.630000</speed>
</trkpt>
<trkpt lat="44.529354" lon="34.030701">
<ele>697.289551</ele>
<time>2011-10-11T13:30:12Z</time>
<desc>lat.=44.529354, lon.=34.030701, Alt.=697.289551m. Speed=1.512000m/h.</desc>
<speed>0.420000</speed>
</trkpt>
<trkpt lat="44.529308" lon="34.030704">
<ele>697.602051</ele>
<time>2011-10-11T13:30:17Z</time>
<desc>lat.=44.529308, lon.=34.030704, Alt.=697.602051m. Speed=2.232000m/h.</desc>
<speed>0.620000</speed>
</trkpt>
<trkpt lat="44.529289" lon="34.030735">
<ele>697.242676</ele>
<time>2011-10-11T13:30:22Z</time>
<desc>lat.=44.529289, lon.=34.030735, Alt.=697.242676m. Speed=1.800000m/h.</desc>
<speed>0.500000</speed>
</trkpt>
<trkpt lat="44.529251" lon="34.030746">
<ele>697.258301</ele>
<time>2011-10-11T13:30:27Z</time>
<desc>lat.=44.529251, lon.=34.030746, Alt.=697.258301m. Speed=2.088000m/h.</desc>
<speed>0.580000</speed>
</trkpt>
<trkpt lat="44.529221" lon="34.030815">
<ele>698.023926</ele>
<time>2011-10-11T13:30:32Z</time>
<desc>lat.=44.529221, lon.=34.030815, Alt.=698.023926m. Speed=2.880000m/h.</desc>
<speed>0.800000</speed>
</trkpt>
<trkpt lat="44.529144" lon="34.030823">
<ele>698.023926</ele>
<time>2011-10-11T13:30:37Z</time>
<desc>lat.=44.529144, lon.=34.030823, Alt.=698.023926m. Speed=3.060000m/h.</desc>
<speed>0.850000</speed>
</trkpt>
<trkpt lat="44.529144" lon="34.030899">
<ele>698.883301</ele>
<time>2011-10-11T13:30:42Z</time>
<desc>lat.=44.529144, lon.=34.030899, Alt.=698.883301m. Speed=1.836000m/h.</desc>
<speed>0.510000</speed>
</trkpt>
<trkpt lat="44.529125" lon="34.030933">
<ele>699.664551</ele>
<time>2011-10-11T13:30:47Z</time>
<desc>lat.=44.529125, lon.=34.030933, Alt.=699.664551m. Speed=1.836000m/h.</desc>
<speed>0.510000</speed>
</trkpt>
<trkpt lat="44.529099" lon="34.030960">
<ele>698.789551</ele>
<time>2011-10-11T13:30:52Z</time>
<desc>lat.=44.529099, lon.=34.030960, Alt.=698.789551m. Speed=1.188000m/h.</desc>
<speed>0.330000</speed>
</trkpt>
<trkpt lat="44.529083" lon="34.030983">
<ele>699.133301</ele>
<time>2011-10-11T13:30:57Z</time>
<desc>lat.=44.529083, lon.=34.030983, Alt.=699.133301m. Speed=1.080000m/h.</desc>
<speed>0.300000</speed>
</trkpt>
<trkpt lat="44.529106" lon="34.031002">
<ele>699.727051</ele>
<time>2011-10-11T13:31:02Z</time>
<desc>lat.=44.529106, lon.=34.031002, Alt.=699.727051m. Speed=0.432000m/h.</desc>
<speed>0.120000</speed>
</trkpt>
<trkpt lat="44.529110" lon="34.031006">
<ele>700.320801</ele>
<time>2011-10-11T13:31:07Z</time>
<desc>lat.=44.529110, lon.=34.031006, Alt.=700.320801m. Speed=0.396000m/h.</desc>
<speed>0.110000</speed>
</trkpt>
<trkpt lat="44.529114" lon="34.031006">
<ele>700.914551</ele>
<time>2011-10-11T13:31:12Z</time>
<desc>lat.=44.529114, lon.=34.031006, Alt.=700.914551m. Speed=0.180000m/h.</desc>
<speed>0.050000</speed>
</trkpt>
<trkpt lat="44.529118" lon="34.031010">
<ele>701.492676</ele>
<time>2011-10-11T13:31:17Z</time>
<desc>lat.=44.529118, lon.=34.031010, Alt.=701.492676m. Speed=0.648000m/h.</desc>
<speed>0.180000</speed>
</trkpt>
<trkpt lat="44.529121" lon="34.031021">
<ele>702.086426</ele>
<time>2011-10-11T13:31:22Z</time>
<desc>lat.=44.529121, lon.=34.031021, Alt.=702.086426m. Speed=0.828000m/h.</desc>
<speed>0.230000</speed>
</trkpt>
<trkpt lat="44.529072" lon="34.031013">
<ele>702.320801</ele>
<time>2011-10-11T13:31:27Z</time>
<desc>lat.=44.529072, lon.=34.031013, Alt.=702.320801m. Speed=1.836000m/h.</desc>
<speed>0.510000</speed>
</trkpt>
<trkpt lat="44.529034" lon="34.031025">
<ele>702.742676</ele>
<time>2011-10-11T13:31:32Z</time>
<desc>lat.=44.529034, lon.=34.031025, Alt.=702.742676m. Speed=2.880000m/h.</desc>
<speed>0.800000</speed>
</trkpt>
<trkpt lat="44.529003" lon="34.031075">
<ele>703.289551</ele>
<time>2011-10-11T13:31:37Z</time>
<desc>lat.=44.529003, lon.=34.031075, Alt.=703.289551m. Speed=3.312000m/h.</desc>
<speed>0.920000</speed>
</trkpt>
<trkpt lat="44.529007" lon="34.031139">
<ele>703.898926</ele>
<time>2011-10-11T13:31:42Z</time>
<desc>lat.=44.529007, lon.=34.031139, Alt.=703.898926m. Speed=2.556000m/h.</desc>
<speed>0.710000</speed>
</trkpt>
<trkpt lat="44.528984" lon="34.031197">
<ele>704.258301</ele>
<time>2011-10-11T13:31:47Z</time>
<desc>lat.=44.528984, lon.=34.031197, Alt.=704.258301m. Speed=2.844000m/h.</desc>
<speed>0.790000</speed>
</trkpt>
<trkpt lat="44.528950" lon="34.031246">
<ele>704.805176</ele>
<time>2011-10-11T13:31:52Z</time>
<desc>lat.=44.528950, lon.=34.031246, Alt.=704.805176m. Speed=2.412000m/h.</desc>
<speed>0.670000</speed>
</trkpt>
<trkpt lat="44.528881" lon="34.031269">
<ele>705.242676</ele>
<time>2011-10-11T13:31:57Z</time>
<desc>lat.=44.528881, lon.=34.031269, Alt.=705.242676m. Speed=3.348000m/h.</desc>
<speed>0.930000</speed>
</trkpt>
<trkpt lat="44.528862" lon="34.031300">
<ele>705.961426</ele>
<time>2011-10-11T13:32:02Z</time>
<desc>lat.=44.528862, lon.=34.031300, Alt.=705.961426m. Speed=2.304000m/h.</desc>
<speed>0.640000</speed>
</trkpt>
<trkpt lat="44.528805" lon="34.031326">
<ele>706.789551</ele>
<time>2011-10-11T13:32:07Z</time>
<desc>lat.=44.528805, lon.=34.031326, Alt.=706.789551m. Speed=2.880000m/h.</desc>
<speed>0.800000</speed>
</trkpt>
<trkpt lat="44.528809" lon="34.031387">
<ele>707.539551</ele>
<time>2011-10-11T13:32:12Z</time>
<desc>lat.=44.528809, lon.=34.031387, Alt.=707.539551m. Speed=2.376000m/h.</desc>
<speed>0.660000</speed>
</trkpt>
<trkpt lat="44.528797" lon="34.031433">
<ele>708.039551</ele>
<time>2011-10-11T13:32:17Z</time>
<desc>lat.=44.528797, lon.=34.031433, Alt.=708.039551m. Speed=1.368000m/h.</desc>
<speed>0.380000</speed>
</trkpt>
<trkpt lat="44.528828" lon="34.031509">
<ele>708.836426</ele>
<time>2011-10-11T13:32:22Z</time>
<desc>lat.=44.528828, lon.=34.031509, Alt.=708.836426m. Speed=1.512000m/h.</desc>
<speed>0.420000</speed>
</trkpt>
<trkpt lat="44.528824" lon="34.031551">
<ele>709.086426</ele>
<time>2011-10-11T13:32:27Z</time>
<desc>lat.=44.528824, lon.=34.031551, Alt.=709.086426m. Speed=1.512000m/h.</desc>
<speed>0.420000</speed>
</trkpt>
<trkpt lat="44.528851" lon="34.031635">
<ele>709.414551</ele>
<time>2011-10-11T13:32:32Z</time>
<desc>lat.=44.528851, lon.=34.031635, Alt.=709.414551m. Speed=2.232000m/h.</desc>
<speed>0.620000</speed>
</trkpt>
<trkpt lat="44.528866" lon="34.031689">
<ele>709.930176</ele>
<time>2011-10-11T13:32:37Z</time>
<desc>lat.=44.528866, lon.=34.031689, Alt.=709.930176m. Speed=1.692000m/h.</desc>
<speed>0.470000</speed>
</trkpt>
<trkpt lat="44.528889" lon="34.031715">
<ele>710.523926</ele>
<time>2011-10-11T13:32:42Z</time>
<desc>lat.=44.528889, lon.=34.031715, Alt.=710.523926m. Speed=1.440000m/h.</desc>
<speed>0.400000</speed>
</trkpt>
<trkpt lat="44.528942" lon="34.031818">
<ele>711.133301</ele>
<time>2011-10-11T13:32:47Z</time>
<desc>lat.=44.528942, lon.=34.031818, Alt.=711.133301m. Speed=2.196000m/h.</desc>
<speed>0.610000</speed>
</trkpt>
<trkpt lat="44.528881" lon="34.031845">
<ele>711.398926</ele>
<time>2011-10-11T13:32:52Z</time>
<desc>lat.=44.528881, lon.=34.031845, Alt.=711.398926m. Speed=1.872000m/h.</desc>
<speed>0.520000</speed>
</trkpt>
<trkpt lat="44.528881" lon="34.031902">
<ele>711.477051</ele>
<time>2011-10-11T13:32:57Z</time>
<desc>lat.=44.528881, lon.=34.031902, Alt.=711.477051m. Speed=2.016000m/h.</desc>
<speed>0.560000</speed>
</trkpt>
<trkpt lat="44.528843" lon="34.031933">
<ele>711.820801</ele>
<time>2011-10-11T13:33:02Z</time>
<desc>lat.=44.528843, lon.=34.031933, Alt.=711.820801m. Speed=2.592000m/h.</desc>
<speed>0.720000</speed>
</trkpt>
<trkpt lat="44.528812" lon="34.031933">
<ele>712.070801</ele>
<time>2011-10-11T13:33:07Z</time>
<desc>lat.=44.528812, lon.=34.031933, Alt.=712.070801m. Speed=2.016000m/h.</desc>
<speed>0.560000</speed>
</trkpt>
<trkpt lat="44.528790" lon="34.031952">
<ele>712.555176</ele>
<time>2011-10-11T13:33:12Z</time>
<desc>lat.=44.528790, lon.=34.031952, Alt.=712.555176m. Speed=2.052000m/h.</desc>
<speed>0.570000</speed>
</trkpt>
<trkpt lat="44.528728" lon="34.031952">
<ele>712.961426</ele>
<time>2011-10-11T13:33:17Z</time>
<desc>lat.=44.528728, lon.=34.031952, Alt.=712.961426m. Speed=3.204000m/h.</desc>
<speed>0.890000</speed>
</trkpt>
<trkpt lat="44.528641" lon="34.031952">
<ele>713.039551</ele>
<time>2011-10-11T13:33:22Z</time>
<desc>lat.=44.528641, lon.=34.031952, Alt.=713.039551m. Speed=4.464000m/h.</desc>
<speed>1.240000</speed>
</trkpt>
<trkpt lat="44.528511" lon="34.031910">
<ele>713.305176</ele>
<time>2011-10-11T13:33:27Z</time>
<desc>lat.=44.528511, lon.=34.031910, Alt.=713.305176m. Speed=5.112000m/h.</desc>
<speed>1.420000</speed>
</trkpt>
<trkpt lat="44.528439" lon="34.031933">
<ele>713.336426</ele>
<time>2011-10-11T13:33:32Z</time>
<desc>lat.=44.528439, lon.=34.031933, Alt.=713.336426m. Speed=2.844000m/h.</desc>
<speed>0.790000</speed>
</trkpt>
<trkpt lat="44.528439" lon="34.031975">
<ele>713.695801</ele>
<time>2011-10-11T13:33:37Z</time>
<desc>lat.=44.528439, lon.=34.031975, Alt.=713.695801m. Speed=1.692000m/h.</desc>
<speed>0.470000</speed>
</trkpt>
<trkpt lat="44.528446" lon="34.032032">
<ele>714.258301</ele>
<time>2011-10-11T13:33:42Z</time>
<desc>lat.=44.528446, lon.=34.032032, Alt.=714.258301m. Speed=2.088000m/h.</desc>
<speed>0.580000</speed>
</trkpt>
<trkpt lat="44.528423" lon="34.032009">
<ele>714.586426</ele>
<time>2011-10-11T13:33:47Z</time>
<desc>lat.=44.528423, lon.=34.032009, Alt.=714.586426m. Speed=1.404000m/h.</desc>
<speed>0.390000</speed>
</trkpt>
<trkpt lat="44.528427" lon="34.032024">
<ele>714.695801</ele>
<time>2011-10-11T13:33:52Z</time>
<desc>lat.=44.528427, lon.=34.032024, Alt.=714.695801m. Speed=1.188000m/h.</desc>
<speed>0.330000</speed>
</trkpt>
<trkpt lat="44.528397" lon="34.032032">
<ele>714.695801</ele>
<time>2011-10-11T13:33:57Z</time>
<desc>lat.=44.528397, lon.=34.032032, Alt.=714.695801m. Speed=0.972000m/h.</desc>
<speed>0.270000</speed>
</trkpt>
<trkpt lat="44.528400" lon="34.032097">
<ele>715.211426</ele>
<time>2011-10-11T13:34:02Z</time>
<desc>lat.=44.528400, lon.=34.032097, Alt.=715.211426m. Speed=0.756000m/h.</desc>
<speed>0.210000</speed>
</trkpt>
<trkpt lat="44.528416" lon="34.032139">
<ele>714.383301</ele>
<time>2011-10-11T13:34:07Z</time>
<desc>lat.=44.528416, lon.=34.032139, Alt.=714.383301m. Speed=1.584000m/h.</desc>
<speed>0.440000</speed>
</trkpt>
<trkpt lat="44.528397" lon="34.032162">
<ele>713.133301</ele>
<time>2011-10-11T13:34:12Z</time>
<desc>lat.=44.528397, lon.=34.032162, Alt.=713.133301m. Speed=4.572000m/h.</desc>
<speed>1.270000</speed>
</trkpt>
<trkpt lat="44.528412" lon="34.032227">
<ele>712.711426</ele>
<time>2011-10-11T13:34:17Z</time>
<desc>lat.=44.528412, lon.=34.032227, Alt.=712.711426m. Speed=1.764000m/h.</desc>
<speed>0.490000</speed>
</trkpt>
<trkpt lat="44.528419" lon="34.032219">
<ele>712.242676</ele>
<time>2011-10-11T13:34:22Z</time>
<desc>lat.=44.528419, lon.=34.032219, Alt.=712.242676m. Speed=0.108000m/h.</desc>
<speed>0.030000</speed>
</trkpt>
<trkpt lat="44.528416" lon="34.032215">
<ele>712.164551</ele>
<time>2011-10-11T13:34:27Z</time>
<desc>lat.=44.528416, lon.=34.032215, Alt.=712.164551m. Speed=0.504000m/h.</desc>
<speed>0.140000</speed>
</trkpt>
<trkpt lat="44.528412" lon="34.032211">
<ele>712.164551</ele>
<time>2011-10-11T13:34:32Z</time>
<desc>lat.=44.528412, lon.=34.032211, Alt.=712.164551m. Speed=0.288000m/h.</desc>
<speed>0.080000</speed>
</trkpt>
<trkpt lat="44.528408" lon="34.032215">
<ele>712.164551</ele>
<time>2011-10-11T13:34:37Z</time>
<desc>lat.=44.528408, lon.=34.032215, Alt.=712.164551m. Speed=0.324000m/h.</desc>
<speed>0.090000</speed>
</trkpt>
<trkpt lat="44.528404" lon="34.032211">
<ele>712.164551</ele>
<time>2011-10-11T13:34:42Z</time>
<desc>lat.=44.528404, lon.=34.032211, Alt.=712.164551m. Speed=0.576000m/h.</desc>
<speed>0.160000</speed>
</trkpt>
<trkpt lat="44.528400" lon="34.032211">
<ele>712.148926</ele>
<time>2011-10-11T13:34:47Z</time>
<desc>lat.=44.528400, lon.=34.032211, Alt.=712.148926m. Speed=0.540000m/h.</desc>
<speed>0.150000</speed>
</trkpt>
<trkpt lat="44.528400" lon="34.032219">
<ele>712.117676</ele>
<time>2011-10-11T13:34:52Z</time>
<desc>lat.=44.528400, lon.=34.032219, Alt.=712.117676m. Speed=0.756000m/h.</desc>
<speed>0.210000</speed>
</trkpt>
<trkpt lat="44.528408" lon="34.032223">
<ele>712.086426</ele>
<time>2011-10-11T13:34:57Z</time>
<desc>lat.=44.528408, lon.=34.032223, Alt.=712.086426m. Speed=0.468000m/h.</desc>
<speed>0.130000</speed>
</trkpt>
<trkpt lat="44.528408" lon="34.032230">
<ele>712.023926</ele>
<time>2011-10-11T13:35:02Z</time>
<desc>lat.=44.528408, lon.=34.032230, Alt.=712.023926m. Speed=0.180000m/h.</desc>
<speed>0.050000</speed>
</trkpt>
<trkpt lat="44.528412" lon="34.032238">
<ele>711.930176</ele>
<time>2011-10-11T13:35:07Z</time>
<desc>lat.=44.528412, lon.=34.032238, Alt.=711.930176m. Speed=0.756000m/h.</desc>
<speed>0.210000</speed>
</trkpt>
<trkpt lat="44.528416" lon="34.032246">
<ele>711.758301</ele>
<time>2011-10-11T13:35:12Z</time>
<desc>lat.=44.528416, lon.=34.032246, Alt.=711.758301m. Speed=0.180000m/h.</desc>
<speed>0.050000</speed>
</trkpt>
<trkpt lat="44.528412" lon="34.032246">
<ele>711.727051</ele>
<time>2011-10-11T13:35:17Z</time>
<desc>lat.=44.528412, lon.=34.032246, Alt.=711.727051m. Speed=0.180000m/h.</desc>
<speed>0.050000</speed>
</trkpt>
<trkpt lat="44.528404" lon="34.032238">
<ele>711.695801</ele>
<time>2011-10-11T13:35:22Z</time>
<desc>lat.=44.528404, lon.=34.032238, Alt.=711.695801m. Speed=1.008000m/h.</desc>
<speed>0.280000</speed>
</trkpt>
<trkpt lat="44.528404" lon="34.032238">
<ele>711.648926</ele>
<time>2011-10-11T13:35:27Z</time>
<desc>lat.=44.528404, lon.=34.032238, Alt.=711.648926m. Speed=0.972000m/h.</desc>
<speed>0.270000</speed>
</trkpt>
<trkpt lat="44.528419" lon="34.032261">
<ele>710.914551</ele>
<time>2011-10-11T13:35:32Z</time>
<desc>lat.=44.528419, lon.=34.032261, Alt.=710.914551m. Speed=1.296000m/h.</desc>
<speed>0.360000</speed>
</trkpt>
<trkpt lat="44.528423" lon="34.032242">
<ele>709.117676</ele>
<time>2011-10-11T13:35:37Z</time>
<desc>lat.=44.528423, lon.=34.032242, Alt.=709.117676m. Speed=0.684000m/h.</desc>
<speed>0.190000</speed>
</trkpt>
<trkpt lat="44.528439" lon="34.032257">
<ele>708.727051</ele>
<time>2011-10-11T13:35:42Z</time>
<desc>lat.=44.528439, lon.=34.032257, Alt.=708.727051m. Speed=1.476000m/h.</desc>
<speed>0.410000</speed>
</trkpt>
<trkpt lat="44.528442" lon="34.032261">
<ele>707.867676</ele>
<time>2011-10-11T13:35:47Z</time>
<desc>lat.=44.528442, lon.=34.032261, Alt.=707.867676m. Speed=1.116000m/h.</desc>
<speed>0.310000</speed>
</trkpt>
<trkpt lat="44.528442" lon="34.032272">
<ele>707.695801</ele>
<time>2011-10-11T13:35:52Z</time>
<desc>lat.=44.528442, lon.=34.032272, Alt.=707.695801m. Speed=0.936000m/h.</desc>
<speed>0.260000</speed>
</trkpt>
<trkpt lat="44.528435" lon="34.032299">
<ele>707.289551</ele>
<time>2011-10-11T13:35:57Z</time>
<desc>lat.=44.528435, lon.=34.032299, Alt.=707.289551m. Speed=0.972000m/h.</desc>
<speed>0.270000</speed>
</trkpt>
<trkpt lat="44.528381" lon="34.032303">
<ele>707.227051</ele>
<time>2011-10-11T13:36:02Z</time>
<desc>lat.=44.528381, lon.=34.032303, Alt.=707.227051m. Speed=0.936000m/h.</desc>
<speed>0.260000</speed>
</trkpt>
<trkpt lat="44.528358" lon="34.032314">
<ele>707.586426</ele>
<time>2011-10-11T13:36:07Z</time>
<desc>lat.=44.528358, lon.=34.032314, Alt.=707.586426m. Speed=0.540000m/h.</desc>
<speed>0.150000</speed>
</trkpt>
<trkpt lat="44.528358" lon="34.032326">
<ele>707.523926</ele>
<time>2011-10-11T13:36:12Z</time>
<desc>lat.=44.528358, lon.=34.032326, Alt.=707.523926m. Speed=0.828000m/h.</desc>
<speed>0.230000</speed>
</trkpt>
<trkpt lat="44.528362" lon="34.032341">
<ele>707.461426</ele>
<time>2011-10-11T13:36:17Z</time>
<desc>lat.=44.528362, lon.=34.032341, Alt.=707.461426m. Speed=0.756000m/h.</desc>
<speed>0.210000</speed>
</trkpt>
<trkpt lat="44.528362" lon="34.032352">
<ele>707.398926</ele>
<time>2011-10-11T13:36:22Z</time>
<desc>lat.=44.528362, lon.=34.032352, Alt.=707.398926m. Speed=0.828000m/h.</desc>
<speed>0.230000</speed>
</trkpt>
<trkpt lat="44.528366" lon="34.032368">
<ele>707.352051</ele>
<time>2011-10-11T13:36:27Z</time>
<desc>lat.=44.528366, lon.=34.032368, Alt.=707.352051m. Speed=0.720000m/h.</desc>
<speed>0.200000</speed>
</trkpt>
<trkpt lat="44.528366" lon="34.032375">
<ele>707.289551</ele>
<time>2011-10-11T13:36:32Z</time>
<desc>lat.=44.528366, lon.=34.032375, Alt.=707.289551m. Speed=0.720000m/h.</desc>
<speed>0.200000</speed>
</trkpt>
<trkpt lat="44.528358" lon="34.032406">
<ele>707.273926</ele>
<time>2011-10-11T13:36:37Z</time>
<desc>lat.=44.528358, lon.=34.032406, Alt.=707.273926m. Speed=1.260000m/h.</desc>
<speed>0.350000</speed>
</trkpt>
<trkpt lat="44.528313" lon="34.032455">
<ele>707.242676</ele>
<time>2011-10-11T13:36:42Z</time>
<desc>lat.=44.528313, lon.=34.032455, Alt.=707.242676m. Speed=1.944000m/h.</desc>
<speed>0.540000</speed>
</trkpt>
<trkpt lat="44.528355" lon="34.032509">
<ele>707.273926</ele>
<time>2011-10-11T13:36:47Z</time>
<desc>lat.=44.528355, lon.=34.032509, Alt.=707.273926m. Speed=1.692000m/h.</desc>
<speed>0.470000</speed>
</trkpt>
<trkpt lat="44.528347" lon="34.032528">
<ele>707.242676</ele>
<time>2011-10-11T13:36:52Z</time>
<desc>lat.=44.528347, lon.=34.032528, Alt.=707.242676m. Speed=1.620000m/h.</desc>
<speed>0.450000</speed>
</trkpt>
<trkpt lat="44.528332" lon="34.032566">
<ele>707.195801</ele>
<time>2011-10-11T13:36:57Z</time>
<desc>lat.=44.528332, lon.=34.032566, Alt.=707.195801m. Speed=1.728000m/h.</desc>
<speed>0.480000</speed>
</trkpt>
<trkpt lat="44.528324" lon="34.032627">
<ele>706.836426</ele>
<time>2011-10-11T13:37:02Z</time>
<desc>lat.=44.528324, lon.=34.032627, Alt.=706.836426m. Speed=4.140000m/h.</desc>
<speed>1.150000</speed>
</trkpt>
<trkpt lat="44.528275" lon="34.032654">
<ele>706.836426</ele>
<time>2011-10-11T13:37:07Z</time>
<desc>lat.=44.528275, lon.=34.032654, Alt.=706.836426m. Speed=4.212000m/h.</desc>
<speed>1.170000</speed>
</trkpt>
<trkpt lat="44.528210" lon="34.032639">
<ele>706.727051</ele>
<time>2011-10-11T13:37:12Z</time>
<desc>lat.=44.528210, lon.=34.032639, Alt.=706.727051m. Speed=3.492000m/h.</desc>
<speed>0.970000</speed>
</trkpt>
<trkpt lat="44.528130" lon="34.032616">
<ele>706.617676</ele>
<time>2011-10-11T13:37:17Z</time>
<desc>lat.=44.528130, lon.=34.032616, Alt.=706.617676m. Speed=2.772000m/h.</desc>
<speed>0.770000</speed>
</trkpt>
<trkpt lat="44.528122" lon="34.032623">
<ele>706.555176</ele>
<time>2011-10-11T13:37:22Z</time>
<desc>lat.=44.528122, lon.=34.032623, Alt.=706.555176m. Speed=1.548000m/h.</desc>
<speed>0.430000</speed>
</trkpt>
<trkpt lat="44.528069" lon="34.032623">
<ele>705.648926</ele>
<time>2011-10-11T13:37:27Z</time>
<desc>lat.=44.528069, lon.=34.032623, Alt.=705.648926m. Speed=2.916000m/h.</desc>
<speed>0.810000</speed>
</trkpt>
<trkpt lat="44.528042" lon="34.032631">
<ele>705.648926</ele>
<time>2011-10-11T13:37:32Z</time>
<desc>lat.=44.528042, lon.=34.032631, Alt.=705.648926m. Speed=2.268000m/h.</desc>
<speed>0.630000</speed>
</trkpt>
<trkpt lat="44.528019" lon="34.032661">
<ele>705.477051</ele>
<time>2011-10-11T13:37:37Z</time>
<desc>lat.=44.528019, lon.=34.032661, Alt.=705.477051m. Speed=2.124000m/h.</desc>
<speed>0.590000</speed>
</trkpt>
<trkpt lat="44.528004" lon="34.032688">
<ele>705.430176</ele>
<time>2011-10-11T13:37:42Z</time>
<desc>lat.=44.528004, lon.=34.032688, Alt.=705.430176m. Speed=2.016000m/h.</desc>
<speed>0.560000</speed>
</trkpt>
<trkpt lat="44.527988" lon="34.032734">
<ele>705.445801</ele>
<time>2011-10-11T13:37:47Z</time>
<desc>lat.=44.527988, lon.=34.032734, Alt.=705.445801m. Speed=2.556000m/h.</desc>
<speed>0.710000</speed>
</trkpt>
<trkpt lat="44.527988" lon="34.032799">
<ele>705.555176</ele>
<time>2011-10-11T13:37:52Z</time>
<desc>lat.=44.527988, lon.=34.032799, Alt.=705.555176m. Speed=3.276000m/h.</desc>
<speed>0.910000</speed>
</trkpt>
<trkpt lat="44.528015" lon="34.032871">
<ele>705.742676</ele>
<time>2011-10-11T13:37:57Z</time>
<desc>lat.=44.528015, lon.=34.032871, Alt.=705.742676m. Speed=3.816000m/h.</desc>
<speed>1.060000</speed>
</trkpt>
<trkpt lat="44.527988" lon="34.032928">
<ele>705.680176</ele>
<time>2011-10-11T13:38:02Z</time>
<desc>lat.=44.527988, lon.=34.032928, Alt.=705.680176m. Speed=2.700000m/h.</desc>
<speed>0.750000</speed>
</trkpt>
<trkpt lat="44.527977" lon="34.032959">
<ele>705.320801</ele>
<time>2011-10-11T13:38:07Z</time>
<desc>lat.=44.527977, lon.=34.032959, Alt.=705.320801m. Speed=1.908000m/h.</desc>
<speed>0.530000</speed>
</trkpt>
<trkpt lat="44.527969" lon="34.033039">
<ele>705.383301</ele>
<time>2011-10-11T13:38:12Z</time>
<desc>lat.=44.527969, lon.=34.033039, Alt.=705.383301m. Speed=2.736000m/h.</desc>
<speed>0.760000</speed>
</trkpt>
<trkpt lat="44.527969" lon="34.033073">
<ele>705.492676</ele>
<time>2011-10-11T13:38:17Z</time>
<desc>lat.=44.527969, lon.=34.033073, Alt.=705.492676m. Speed=1.908000m/h.</desc>
<speed>0.530000</speed>
</trkpt>
<trkpt lat="44.527973" lon="34.033104">
<ele>705.430176</ele>
<time>2011-10-11T13:38:22Z</time>
<desc>lat.=44.527973, lon.=34.033104, Alt.=705.430176m. Speed=1.476000m/h.</desc>
<speed>0.410000</speed>
</trkpt>
<trkpt lat="44.527946" lon="34.033157">
<ele>705.305176</ele>
<time>2011-10-11T13:38:27Z</time>
<desc>lat.=44.527946, lon.=34.033157, Alt.=705.305176m. Speed=1.980000m/h.</desc>
<speed>0.550000</speed>
</trkpt>
<trkpt lat="44.527946" lon="34.033234">
<ele>705.039551</ele>
<time>2011-10-11T13:38:32Z</time>
<desc>lat.=44.527946, lon.=34.033234, Alt.=705.039551m. Speed=2.592000m/h.</desc>
<speed>0.720000</speed>
</trkpt>
<trkpt lat="44.527992" lon="34.033306">
<ele>704.445801</ele>
<time>2011-10-11T13:38:37Z</time>
<desc>lat.=44.527992, lon.=34.033306, Alt.=704.445801m. Speed=2.808000m/h.</desc>
<speed>0.780000</speed>
</trkpt>
<trkpt lat="44.527996" lon="34.033356">
<ele>704.570801</ele>
<time>2011-10-11T13:38:42Z</time>
<desc>lat.=44.527996, lon.=34.033356, Alt.=704.570801m. Speed=1.548000m/h.</desc>
<speed>0.430000</speed>
</trkpt>
<trkpt lat="44.528000" lon="34.033375">
<ele>704.695801</ele>
<time>2011-10-11T13:38:47Z</time>
<desc>lat.=44.528000, lon.=34.033375, Alt.=704.695801m. Speed=1.224000m/h.</desc>
<speed>0.340000</speed>
</trkpt>
<trkpt lat="44.528015" lon="34.033417">
<ele>704.977051</ele>
<time>2011-10-11T13:38:52Z</time>
<desc>lat.=44.528015, lon.=34.033417, Alt.=704.977051m. Speed=1.584000m/h.</desc>
<speed>0.440000</speed>
</trkpt>
<trkpt lat="44.528076" lon="34.033497">
<ele>705.258301</ele>
<time>2011-10-11T13:38:57Z</time>
<desc>lat.=44.528076, lon.=34.033497, Alt.=705.258301m. Speed=3.600000m/h.</desc>
<speed>1.000000</speed>
</trkpt>
<trkpt lat="44.528049" lon="34.033527">
<ele>705.414551</ele>
<time>2011-10-11T13:39:02Z</time>
<desc>lat.=44.528049, lon.=34.033527, Alt.=705.414551m. Speed=2.412000m/h.</desc>
<speed>0.670000</speed>
</trkpt>
<trkpt lat="44.528061" lon="34.033592">
<ele>705.430176</ele>
<time>2011-10-11T13:39:07Z</time>
<desc>lat.=44.528061, lon.=34.033592, Alt.=705.430176m. Speed=2.340000m/h.</desc>
<speed>0.650000</speed>
</trkpt>
<trkpt lat="44.528084" lon="34.033646">
<ele>705.273926</ele>
<time>2011-10-11T13:39:12Z</time>
<desc>lat.=44.528084, lon.=34.033646, Alt.=705.273926m. Speed=1.908000m/h.</desc>
<speed>0.530000</speed>
</trkpt>
<trkpt lat="44.528103" lon="34.033722">
<ele>705.164551</ele>
<time>2011-10-11T13:39:17Z</time>
<desc>lat.=44.528103, lon.=34.033722, Alt.=705.164551m. Speed=2.340000m/h.</desc>
<speed>0.650000</speed>
</trkpt>
<trkpt lat="44.528072" lon="34.033768">
<ele>704.961426</ele>
<time>2011-10-11T13:39:22Z</time>
<desc>lat.=44.528072, lon.=34.033768, Alt.=704.961426m. Speed=1.872000m/h.</desc>
<speed>0.520000</speed>
</trkpt>
<trkpt lat="44.528065" lon="34.033806">
<ele>704.961426</ele>
<time>2011-10-11T13:39:27Z</time>
<desc>lat.=44.528065, lon.=34.033806, Alt.=704.961426m. Speed=1.404000m/h.</desc>
<speed>0.390000</speed>
</trkpt>
<trkpt lat="44.528061" lon="34.033833">
<ele>704.867676</ele>
<time>2011-10-11T13:39:32Z</time>
<desc>lat.=44.528061, lon.=34.033833, Alt.=704.867676m. Speed=1.620000m/h.</desc>
<speed>0.450000</speed>
</trkpt>
<trkpt lat="44.528103" lon="34.033875">
<ele>704.664551</ele>
<time>2011-10-11T13:39:37Z</time>
<desc>lat.=44.528103, lon.=34.033875, Alt.=704.664551m. Speed=1.656000m/h.</desc>
<speed>0.460000</speed>
</trkpt>
<trkpt lat="44.528107" lon="34.033901">
<ele>704.477051</ele>
<time>2011-10-11T13:39:42Z</time>
<desc>lat.=44.528107, lon.=34.033901, Alt.=704.477051m. Speed=1.728000m/h.</desc>
<speed>0.480000</speed>
</trkpt>
<trkpt lat="44.528107" lon="34.033928">
<ele>704.664551</ele>
<time>2011-10-11T13:39:47Z</time>
<desc>lat.=44.528107, lon.=34.033928, Alt.=704.664551m. Speed=1.512000m/h.</desc>
<speed>0.420000</speed>
</trkpt>
<trkpt lat="44.528095" lon="34.033993">
<ele>704.883301</ele>
<time>2011-10-11T13:39:52Z</time>
<desc>lat.=44.528095, lon.=34.033993, Alt.=704.883301m. Speed=2.124000m/h.</desc>
<speed>0.590000</speed>
</trkpt>
<trkpt lat="44.528091" lon="34.034035">
<ele>705.367676</ele>
<time>2011-10-11T13:39:57Z</time>
<desc>lat.=44.528091, lon.=34.034035, Alt.=705.367676m. Speed=1.980000m/h.</desc>
<speed>0.550000</speed>
</trkpt>
<trkpt lat="44.528091" lon="34.034088">
<ele>705.617676</ele>
<time>2011-10-11T13:40:02Z</time>
<desc>lat.=44.528091, lon.=34.034088, Alt.=705.617676m. Speed=1.728000m/h.</desc>
<speed>0.480000</speed>
</trkpt>
<trkpt lat="44.528091" lon="34.034153">
<ele>706.102051</ele>
<time>2011-10-11T13:40:07Z</time>
<desc>lat.=44.528091, lon.=34.034153, Alt.=706.102051m. Speed=2.304000m/h.</desc>
<speed>0.640000</speed>
</trkpt>
<trkpt lat="44.528114" lon="34.034203">
<ele>706.414551</ele>
<time>2011-10-11T13:40:12Z</time>
<desc>lat.=44.528114, lon.=34.034203, Alt.=706.414551m. Speed=2.376000m/h.</desc>
<speed>0.660000</speed>
</trkpt>
<trkpt lat="44.528103" lon="34.034248">
<ele>706.695801</ele>
<time>2011-10-11T13:40:17Z</time>
<desc>lat.=44.528103, lon.=34.034248, Alt.=706.695801m. Speed=1.944000m/h.</desc>
<speed>0.540000</speed>
</trkpt>
<trkpt lat="44.528156" lon="34.034286">
<ele>706.523926</ele>
<time>2011-10-11T13:40:22Z</time>
<desc>lat.=44.528156, lon.=34.034286, Alt.=706.523926m. Speed=2.592000m/h.</desc>
<speed>0.720000</speed>
</trkpt>
<trkpt lat="44.528168" lon="34.034336">
<ele>707.070801</ele>
<time>2011-10-11T13:40:27Z</time>
<desc>lat.=44.528168, lon.=34.034336, Alt.=707.070801m. Speed=1.908000m/h.</desc>
<speed>0.530000</speed>
</trkpt>
<trkpt lat="44.528175" lon="34.034412">
<ele>707.086426</ele>
<time>2011-10-11T13:40:32Z</time>
<desc>lat.=44.528175, lon.=34.034412, Alt.=707.086426m. Speed=2.664000m/h.</desc>
<speed>0.740000</speed>
</trkpt>
<trkpt lat="44.528183" lon="34.034473">
<ele>707.008301</ele>
<time>2011-10-11T13:40:37Z</time>
<desc>lat.=44.528183, lon.=34.034473, Alt.=707.008301m. Speed=3.132000m/h.</desc>
<speed>0.870000</speed>
</trkpt>
<trkpt lat="44.528194" lon="34.034573">
<ele>707.352051</ele>
<time>2011-10-11T13:40:42Z</time>
<desc>lat.=44.528194, lon.=34.034573, Alt.=707.352051m. Speed=4.716000m/h.</desc>
<speed>1.310000</speed>
</trkpt>
<trkpt lat="44.528198" lon="34.034645">
<ele>707.164551</ele>
<time>2011-10-11T13:40:47Z</time>
<desc>lat.=44.528198, lon.=34.034645, Alt.=707.164551m. Speed=3.924000m/h.</desc>
<speed>1.090000</speed>
</trkpt>
<trkpt lat="44.528214" lon="34.034718">
<ele>707.445801</ele>
<time>2011-10-11T13:40:52Z</time>
<desc>lat.=44.528214, lon.=34.034718, Alt.=707.445801m. Speed=3.024000m/h.</desc>
<speed>0.840000</speed>
</trkpt>
<trkpt lat="44.528198" lon="34.034786">
<ele>707.305176</ele>
<time>2011-10-11T13:40:57Z</time>
<desc>lat.=44.528198, lon.=34.034786, Alt.=707.305176m. Speed=3.348000m/h.</desc>
<speed>0.930000</speed>
</trkpt>
<trkpt lat="44.528149" lon="34.034836">
<ele>707.633301</ele>
<time>2011-10-11T13:41:02Z</time>
<desc>lat.=44.528149, lon.=34.034836, Alt.=707.633301m. Speed=3.096000m/h.</desc>
<speed>0.860000</speed>
</trkpt>
<trkpt lat="44.528137" lon="34.034889">
<ele>707.398926</ele>
<time>2011-10-11T13:41:07Z</time>
<desc>lat.=44.528137, lon.=34.034889, Alt.=707.398926m. Speed=2.700000m/h.</desc>
<speed>0.750000</speed>
</trkpt>
<trkpt lat="44.528122" lon="34.034943">
<ele>706.930176</ele>
<time>2011-10-11T13:41:12Z</time>
<desc>lat.=44.528122, lon.=34.034943, Alt.=706.930176m. Speed=2.268000m/h.</desc>
<speed>0.630000</speed>
</trkpt>
<trkpt lat="44.528118" lon="34.034973">
<ele>706.773926</ele>
<time>2011-10-11T13:41:17Z</time>
<desc>lat.=44.528118, lon.=34.034973, Alt.=706.773926m. Speed=1.476000m/h.</desc>
<speed>0.410000</speed>
</trkpt>
<trkpt lat="44.528114" lon="34.035030">
<ele>705.961426</ele>
<time>2011-10-11T13:41:22Z</time>
<desc>lat.=44.528114, lon.=34.035030, Alt.=705.961426m. Speed=2.376000m/h.</desc>
<speed>0.660000</speed>
</trkpt>
<trkpt lat="44.528088" lon="34.035065">
<ele>705.773926</ele>
<time>2011-10-11T13:41:27Z</time>
<desc>lat.=44.528088, lon.=34.035065, Alt.=705.773926m. Speed=2.124000m/h.</desc>
<speed>0.590000</speed>
</trkpt>
<trkpt lat="44.528057" lon="34.035114">
<ele>704.680176</ele>
<time>2011-10-11T13:41:32Z</time>
<desc>lat.=44.528057, lon.=34.035114, Alt.=704.680176m. Speed=2.520000m/h.</desc>
<speed>0.700000</speed>
</trkpt>
<trkpt lat="44.528057" lon="34.035172">
<ele>703.352051</ele>
<time>2011-10-11T13:41:37Z</time>
<desc>lat.=44.528057, lon.=34.035172, Alt.=703.352051m. Speed=2.088000m/h.</desc>
<speed>0.580000</speed>
</trkpt>
<trkpt lat="44.528008" lon="34.035194">
<ele>702.867676</ele>
<time>2011-10-11T13:41:42Z</time>
<desc>lat.=44.528008, lon.=34.035194, Alt.=702.867676m. Speed=3.024000m/h.</desc>
<speed>0.840000</speed>
</trkpt>
<trkpt lat="44.527988" lon="34.035221">
<ele>702.695801</ele>
<time>2011-10-11T13:41:47Z</time>
<desc>lat.=44.527988, lon.=34.035221, Alt.=702.695801m. Speed=1.620000m/h.</desc>
<speed>0.450000</speed>
</trkpt>
<trkpt lat="44.527977" lon="34.035271">
<ele>702.867676</ele>
<time>2011-10-11T13:41:52Z</time>
<desc>lat.=44.527977, lon.=34.035271, Alt.=702.867676m. Speed=2.556000m/h.</desc>
<speed>0.710000</speed>
</trkpt>
<trkpt lat="44.527958" lon="34.035305">
<ele>702.570801</ele>
<time>2011-10-11T13:41:57Z</time>
<desc>lat.=44.527958, lon.=34.035305, Alt.=702.570801m. Speed=2.448000m/h.</desc>
<speed>0.680000</speed>
</trkpt>
<trkpt lat="44.527924" lon="34.035378">
<ele>700.586426</ele>
<time>2011-10-11T13:42:02Z</time>
<desc>lat.=44.527924, lon.=34.035378, Alt.=700.586426m. Speed=3.348000m/h.</desc>
<speed>0.930000</speed>
</trkpt>
<trkpt lat="44.527874" lon="34.035461">
<ele>699.492676</ele>
<time>2011-10-11T13:42:07Z</time>
<desc>lat.=44.527874, lon.=34.035461, Alt.=699.492676m. Speed=3.168000m/h.</desc>
<speed>0.880000</speed>
</trkpt>
<trkpt lat="44.527882" lon="34.035561">
<ele>698.273926</ele>
<time>2011-10-11T13:42:12Z</time>
<desc>lat.=44.527882, lon.=34.035561, Alt.=698.273926m. Speed=2.880000m/h.</desc>
<speed>0.800000</speed>
</trkpt>
<trkpt lat="44.527878" lon="34.035625">
<ele>697.773926</ele>
<time>2011-10-11T13:42:17Z</time>
<desc>lat.=44.527878, lon.=34.035625, Alt.=697.773926m. Speed=2.808000m/h.</desc>
<speed>0.780000</speed>
</trkpt>
<trkpt lat="44.527855" lon="34.035667">
<ele>697.586426</ele>
<time>2011-10-11T13:42:22Z</time>
<desc>lat.=44.527855, lon.=34.035667, Alt.=697.586426m. Speed=3.204000m/h.</desc>
<speed>0.890000</speed>
</trkpt>
<trkpt lat="44.527843" lon="34.035713">
<ele>696.914551</ele>
<time>2011-10-11T13:42:27Z</time>
<desc>lat.=44.527843, lon.=34.035713, Alt.=696.914551m. Speed=2.844000m/h.</desc>
<speed>0.790000</speed>
</trkpt>
<trkpt lat="44.527843" lon="34.035786">
<ele>696.477051</ele>
<time>2011-10-11T13:42:32Z</time>
<desc>lat.=44.527843, lon.=34.035786, Alt.=696.477051m. Speed=3.348000m/h.</desc>
<speed>0.930000</speed>
</trkpt>
<trkpt lat="44.527798" lon="34.035824">
<ele>696.180176</ele>
<time>2011-10-11T13:42:37Z</time>
<desc>lat.=44.527798, lon.=34.035824, Alt.=696.180176m. Speed=4.824000m/h.</desc>
<speed>1.340000</speed>
</trkpt>
<trkpt lat="44.527756" lon="34.035862">
<ele>696.148926</ele>
<time>2011-10-11T13:42:42Z</time>
<desc>lat.=44.527756, lon.=34.035862, Alt.=696.148926m. Speed=3.564000m/h.</desc>
<speed>0.990000</speed>
</trkpt>
<trkpt lat="44.527775" lon="34.035942">
<ele>696.539551</ele>
<time>2011-10-11T13:42:47Z</time>
<desc>lat.=44.527775, lon.=34.035942, Alt.=696.539551m. Speed=2.340000m/h.</desc>
<speed>0.650000</speed>
</trkpt>
<trkpt lat="44.527744" lon="34.035961">
<ele>696.602051</ele>
<time>2011-10-11T13:42:52Z</time>
<desc>lat.=44.527744, lon.=34.035961, Alt.=696.602051m. Speed=2.016000m/h.</desc>
<speed>0.560000</speed>
</trkpt>
<trkpt lat="44.527714" lon="34.035992">
<ele>696.664551</ele>
<time>2011-10-11T13:42:57Z</time>
<desc>lat.=44.527714, lon.=34.035992, Alt.=696.664551m. Speed=2.124000m/h.</desc>
<speed>0.590000</speed>
</trkpt>
<trkpt lat="44.527691" lon="34.036022">
<ele>697.180176</ele>
<time>2011-10-11T13:43:02Z</time>
<desc>lat.=44.527691, lon.=34.036022, Alt.=697.180176m. Speed=1.944000m/h.</desc>
<speed>0.540000</speed>
</trkpt>
<trkpt lat="44.527691" lon="34.036087">
<ele>697.414551</ele>
<time>2011-10-11T13:43:07Z</time>
<desc>lat.=44.527691, lon.=34.036087, Alt.=697.414551m. Speed=3.348000m/h.</desc>
<speed>0.930000</speed>
</trkpt>
<trkpt lat="44.527660" lon="34.036148">
<ele>697.570801</ele>
<time>2011-10-11T13:43:12Z</time>
<desc>lat.=44.527660, lon.=34.036148, Alt.=697.570801m. Speed=4.068000m/h.</desc>
<speed>1.130000</speed>
</trkpt>
<trkpt lat="44.527637" lon="34.036198">
<ele>698.086426</ele>
<time>2011-10-11T13:43:17Z</time>
<desc>lat.=44.527637, lon.=34.036198, Alt.=698.086426m. Speed=3.672000m/h.</desc>
<speed>1.020000</speed>
</trkpt>
<trkpt lat="44.527615" lon="34.036263">
<ele>698.617676</ele>
<time>2011-10-11T13:43:22Z</time>
<desc>lat.=44.527615, lon.=34.036263, Alt.=698.617676m. Speed=3.384000m/h.</desc>
<speed>0.940000</speed>
</trkpt>
<trkpt lat="44.527622" lon="34.036335">
<ele>698.930176</ele>
<time>2011-10-11T13:43:27Z</time>
<desc>lat.=44.527622, lon.=34.036335, Alt.=698.930176m. Speed=1.188000m/h.</desc>
<speed>0.330000</speed>
</trkpt>
<trkpt lat="44.527607" lon="34.036358">
<ele>699.539551</ele>
<time>2011-10-11T13:43:32Z</time>
<desc>lat.=44.527607, lon.=34.036358, Alt.=699.539551m. Speed=1.692000m/h.</desc>
<speed>0.470000</speed>
</trkpt>
<trkpt lat="44.527576" lon="34.036362">
<ele>700.258301</ele>
<time>2011-10-11T13:43:37Z</time>
<desc>lat.=44.527576, lon.=34.036362, Alt.=700.258301m. Speed=2.124000m/h.</desc>
<speed>0.590000</speed>
</trkpt>
<trkpt lat="44.527546" lon="34.036335">
<ele>701.164551</ele>
<time>2011-10-11T13:43:42Z</time>
<desc>lat.=44.527546, lon.=34.036335, Alt.=701.164551m. Speed=2.052000m/h.</desc>
<speed>0.570000</speed>
</trkpt>
<trkpt lat="44.527496" lon="34.036320">
<ele>701.867676</ele>
<time>2011-10-11T13:43:47Z</time>
<desc>lat.=44.527496, lon.=34.036320, Alt.=701.867676m. Speed=2.232000m/h.</desc>
<speed>0.620000</speed>
</trkpt>
<trkpt lat="44.527477" lon="34.036339">
<ele>702.617676</ele>
<time>2011-10-11T13:43:52Z</time>
<desc>lat.=44.527477, lon.=34.036339, Alt.=702.617676m. Speed=1.872000m/h.</desc>
<speed>0.520000</speed>
</trkpt>
<trkpt lat="44.527454" lon="34.036388">
<ele>703.320801</ele>
<time>2011-10-11T13:43:57Z</time>
<desc>lat.=44.527454, lon.=34.036388, Alt.=703.320801m. Speed=2.196000m/h.</desc>
<speed>0.610000</speed>
</trkpt>
<trkpt lat="44.527382" lon="34.036388">
<ele>703.680176</ele>
<time>2011-10-11T13:44:02Z</time>
<desc>lat.=44.527382, lon.=34.036388, Alt.=703.680176m. Speed=3.420000m/h.</desc>
<speed>0.950000</speed>
</trkpt>
<trkpt lat="44.527355" lon="34.036369">
<ele>704.148926</ele>
<time>2011-10-11T13:44:07Z</time>
<desc>lat.=44.527355, lon.=34.036369, Alt.=704.148926m. Speed=1.800000m/h.</desc>
<speed>0.500000</speed>
</trkpt>
<trkpt lat="44.527332" lon="34.036423">
<ele>704.320801</ele>
<time>2011-10-11T13:44:12Z</time>
<desc>lat.=44.527332, lon.=34.036423, Alt.=704.320801m. Speed=1.404000m/h.</desc>
<speed>0.390000</speed>
</trkpt>
<trkpt lat="44.527328" lon="34.036461">
<ele>704.086426</ele>
<time>2011-10-11T13:44:17Z</time>
<desc>lat.=44.527328, lon.=34.036461, Alt.=704.086426m. Speed=0.792000m/h.</desc>
<speed>0.220000</speed>
</trkpt>
<trkpt lat="44.527325" lon="34.036472">
<ele>704.430176</ele>
<time>2011-10-11T13:44:22Z</time>
<desc>lat.=44.527325, lon.=34.036472, Alt.=704.430176m. Speed=0.792000m/h.</desc>
<speed>0.220000</speed>
</trkpt>
<trkpt lat="44.527317" lon="34.036484">
<ele>704.773926</ele>
<time>2011-10-11T13:44:27Z</time>
<desc>lat.=44.527317, lon.=34.036484, Alt.=704.773926m. Speed=0.864000m/h.</desc>
<speed>0.240000</speed>
</trkpt>
<trkpt lat="44.527313" lon="34.036499">
<ele>705.102051</ele>
<time>2011-10-11T13:44:32Z</time>
<desc>lat.=44.527313, lon.=34.036499, Alt.=705.102051m. Speed=0.756000m/h.</desc>
<speed>0.210000</speed>
</trkpt>
<trkpt lat="44.527313" lon="34.036514">
<ele>705.430176</ele>
<time>2011-10-11T13:44:37Z</time>
<desc>lat.=44.527313, lon.=34.036514, Alt.=705.430176m. Speed=0.468000m/h.</desc>
<speed>0.130000</speed>
</trkpt>
<trkpt lat="44.527309" lon="34.036522">
<ele>705.742676</ele>
<time>2011-10-11T13:44:42Z</time>
<desc>lat.=44.527309, lon.=34.036522, Alt.=705.742676m. Speed=0.720000m/h.</desc>
<speed>0.200000</speed>
</trkpt>
<trkpt lat="44.527302" lon="34.036530">
<ele>706.070801</ele>
<time>2011-10-11T13:44:47Z</time>
<desc>lat.=44.527302, lon.=34.036530, Alt.=706.070801m. Speed=0.828000m/h.</desc>
<speed>0.230000</speed>
</trkpt>
<trkpt lat="44.527298" lon="34.036533">
<ele>706.383301</ele>
<time>2011-10-11T13:44:52Z</time>
<desc>lat.=44.527298, lon.=34.036533, Alt.=706.383301m. Speed=0.144000m/h.</desc>
<speed>0.040000</speed>
</trkpt>
<trkpt lat="44.527298" lon="34.036533">
<ele>706.680176</ele>
<time>2011-10-11T13:44:57Z</time>
<desc>lat.=44.527298, lon.=34.036533, Alt.=706.680176m. Speed=0.144000m/h.</desc>
<speed>0.040000</speed>
</trkpt>
<trkpt lat="44.527298" lon="34.036526">
<ele>706.977051</ele>
<time>2011-10-11T13:45:02Z</time>
<desc>lat.=44.527298, lon.=34.036526, Alt.=706.977051m. Speed=0.468000m/h.</desc>
<speed>0.130000</speed>
</trkpt>
<trkpt lat="44.527294" lon="34.036522">
<ele>707.258301</ele>
<time>2011-10-11T13:45:07Z</time>
<desc>lat.=44.527294, lon.=34.036522, Alt.=707.258301m. Speed=0.504000m/h.</desc>
<speed>0.140000</speed>
</trkpt>
<trkpt lat="44.527283" lon="34.036522">
<ele>707.539551</ele>
<time>2011-10-11T13:45:12Z</time>
<desc>lat.=44.527283, lon.=34.036522, Alt.=707.539551m. Speed=0.828000m/h.</desc>
<speed>0.230000</speed>
</trkpt>
<trkpt lat="44.527275" lon="34.036522">
<ele>707.820801</ele>
<time>2011-10-11T13:45:17Z</time>
<desc>lat.=44.527275, lon.=34.036522, Alt.=707.820801m. Speed=0.504000m/h.</desc>
<speed>0.140000</speed>
</trkpt>
<trkpt lat="44.527287" lon="34.036491">
<ele>707.227051</ele>
<time>2011-10-11T13:45:22Z</time>
<desc>lat.=44.527287, lon.=34.036491, Alt.=707.227051m. Speed=0.864000m/h.</desc>
<speed>0.240000</speed>
</trkpt>
<trkpt lat="44.527294" lon="34.036461">
<ele>707.867676</ele>
<time>2011-10-11T13:45:27Z</time>
<desc>lat.=44.527294, lon.=34.036461, Alt.=707.867676m. Speed=0.720000m/h.</desc>
<speed>0.200000</speed>
</trkpt>
<trkpt lat="44.527294" lon="34.036453">
<ele>708.070801</ele>
<time>2011-10-11T13:45:32Z</time>
<desc>lat.=44.527294, lon.=34.036453, Alt.=708.070801m. Speed=0.216000m/h.</desc>
<speed>0.060000</speed>
</trkpt>
<trkpt lat="44.527298" lon="34.036453">
<ele>708.258301</ele>
<time>2011-10-11T13:45:37Z</time>
<desc>lat.=44.527298, lon.=34.036453, Alt.=708.258301m. Speed=0.000000m/h.</desc>
<speed>0.000000</speed>
</trkpt>
<trkpt lat="44.527302" lon="34.036453">
<ele>708.383301</ele>
<time>2011-10-11T13:45:42Z</time>
<desc>lat.=44.527302, lon.=34.036453, Alt.=708.383301m. Speed=0.612000m/h.</desc>
<speed>0.170000</speed>
</trkpt>
<trkpt lat="44.527306" lon="34.036465">
<ele>708.508301</ele>
<time>2011-10-11T13:45:47Z</time>
<desc>lat.=44.527306, lon.=34.036465, Alt.=708.508301m. Speed=0.936000m/h.</desc>
<speed>0.260000</speed>
</trkpt>
<trkpt lat="44.527294" lon="34.036495">
<ele>708.445801</ele>
<time>2011-10-11T13:45:52Z</time>
<desc>lat.=44.527294, lon.=34.036495, Alt.=708.445801m. Speed=1.296000m/h.</desc>
<speed>0.360000</speed>
</trkpt>
<trkpt lat="44.527283" lon="34.036507">
<ele>708.555176</ele>
<time>2011-10-11T13:45:57Z</time>
<desc>lat.=44.527283, lon.=34.036507, Alt.=708.555176m. Speed=1.080000m/h.</desc>
<speed>0.300000</speed>
</trkpt>
<trkpt lat="44.527275" lon="34.036514">
<ele>708.477051</ele>
<time>2011-10-11T13:46:02Z</time>
<desc>lat.=44.527275, lon.=34.036514, Alt.=708.477051m. Speed=0.828000m/h.</desc>
<speed>0.230000</speed>
</trkpt>
<trkpt lat="44.527271" lon="34.036526">
<ele>708.586426</ele>
<time>2011-10-11T13:46:07Z</time>
<desc>lat.=44.527271, lon.=34.036526, Alt.=708.586426m. Speed=0.612000m/h.</desc>
<speed>0.170000</speed>
</trkpt>
<trkpt lat="44.527267" lon="34.036537">
<ele>708.711426</ele>
<time>2011-10-11T13:46:12Z</time>
<desc>lat.=44.527267, lon.=34.036537, Alt.=708.711426m. Speed=0.576000m/h.</desc>
<speed>0.160000</speed>
</trkpt>
<trkpt lat="44.527271" lon="34.036549">
<ele>708.820801</ele>
<time>2011-10-11T13:46:17Z</time>
<desc>lat.=44.527271, lon.=34.036549, Alt.=708.820801m. Speed=0.972000m/h.</desc>
<speed>0.270000</speed>
</trkpt>
<trkpt lat="44.527290" lon="34.036594">
<ele>708.727051</ele>
<time>2011-10-11T13:46:22Z</time>
<desc>lat.=44.527290, lon.=34.036594, Alt.=708.727051m. Speed=1.332000m/h.</desc>
<speed>0.370000</speed>
</trkpt>
<trkpt lat="44.527332" lon="34.036640">
<ele>708.852051</ele>
<time>2011-10-11T13:46:27Z</time>
<desc>lat.=44.527332, lon.=34.036640, Alt.=708.852051m. Speed=1.764000m/h.</desc>
<speed>0.490000</speed>
</trkpt>
<trkpt lat="44.527355" lon="34.036640">
<ele>708.883301</ele>
<time>2011-10-11T13:46:32Z</time>
<desc>lat.=44.527355, lon.=34.036640, Alt.=708.883301m. Speed=1.584000m/h.</desc>
<speed>0.440000</speed>
</trkpt>
<trkpt lat="44.527363" lon="34.036633">
<ele>708.633301</ele>
<time>2011-10-11T13:46:37Z</time>
<desc>lat.=44.527363, lon.=34.036633, Alt.=708.633301m. Speed=1.296000m/h.</desc>
<speed>0.360000</speed>
</trkpt>
<trkpt lat="44.527336" lon="34.036621">
<ele>709.070801</ele>
<time>2011-10-11T13:46:42Z</time>
<desc>lat.=44.527336, lon.=34.036621, Alt.=709.070801m. Speed=0.468000m/h.</desc>
<speed>0.130000</speed>
</trkpt>
<trkpt lat="44.527340" lon="34.036617">
<ele>709.227051</ele>
<time>2011-10-11T13:46:47Z</time>
<desc>lat.=44.527340, lon.=34.036617, Alt.=709.227051m. Speed=1.548000m/h.</desc>
<speed>0.430000</speed>
</trkpt>
<trkpt lat="44.527428" lon="34.036591">
<ele>708.852051</ele>
<time>2011-10-11T13:46:52Z</time>
<desc>lat.=44.527428, lon.=34.036591, Alt.=708.852051m. Speed=4.428000m/h.</desc>
<speed>1.230000</speed>
</trkpt>
<trkpt lat="44.527512" lon="34.036610">
<ele>708.914551</ele>
<time>2011-10-11T13:46:57Z</time>
<desc>lat.=44.527512, lon.=34.036610, Alt.=708.914551m. Speed=5.220000m/h.</desc>
<speed>1.450000</speed>
</trkpt>
<trkpt lat="44.527580" lon="34.036610">
<ele>708.820801</ele>
<time>2011-10-11T13:47:02Z</time>
<desc>lat.=44.527580, lon.=34.036610, Alt.=708.820801m. Speed=5.148000m/h.</desc>
<speed>1.430000</speed>
</trkpt>
<trkpt lat="44.527599" lon="34.036556">
<ele>709.289551</ele>
<time>2011-10-11T13:47:07Z</time>
<desc>lat.=44.527599, lon.=34.036556, Alt.=709.289551m. Speed=2.196000m/h.</desc>
<speed>0.610000</speed>
</trkpt>
<trkpt lat="44.527637" lon="34.036556">
<ele>709.617676</ele>
<time>2011-10-11T13:47:12Z</time>
<desc>lat.=44.527637, lon.=34.036556, Alt.=709.617676m. Speed=2.340000m/h.</desc>
<speed>0.650000</speed>
</trkpt>
<trkpt lat="44.527687" lon="34.036526">
<ele>709.992676</ele>
<time>2011-10-11T13:47:17Z</time>
<desc>lat.=44.527687, lon.=34.036526, Alt.=709.992676m. Speed=2.952000m/h.</desc>
<speed>0.820000</speed>
</trkpt>
<trkpt lat="44.527744" lon="34.036564">
<ele>710.492676</ele>
<time>2011-10-11T13:47:22Z</time>
<desc>lat.=44.527744, lon.=34.036564, Alt.=710.492676m. Speed=2.880000m/h.</desc>
<speed>0.800000</speed>
</trkpt>
<trkpt lat="44.527763" lon="34.036575">
<ele>710.664551</ele>
<time>2011-10-11T13:47:27Z</time>
<desc>lat.=44.527763, lon.=34.036575, Alt.=710.664551m. Speed=1.584000m/h.</desc>
<speed>0.440000</speed>
</trkpt>
<trkpt lat="44.527786" lon="34.036526">
<ele>710.961426</ele>
<time>2011-10-11T13:47:32Z</time>
<desc>lat.=44.527786, lon.=34.036526, Alt.=710.961426m. Speed=2.412000m/h.</desc>
<speed>0.670000</speed>
</trkpt>
<trkpt lat="44.527889" lon="34.036427">
<ele>710.570801</ele>
<time>2011-10-11T13:47:37Z</time>
<desc>lat.=44.527889, lon.=34.036427, Alt.=710.570801m. Speed=4.428000m/h.</desc>
<speed>1.230000</speed>
</trkpt>
<trkpt lat="44.527927" lon="34.036400">
<ele>710.695801</ele>
<time>2011-10-11T13:47:42Z</time>
<desc>lat.=44.527927, lon.=34.036400, Alt.=710.695801m. Speed=2.520000m/h.</desc>
<speed>0.700000</speed>
</trkpt>
<trkpt lat="44.527920" lon="34.036350">
<ele>711.273926</ele>
<time>2011-10-11T13:47:47Z</time>
<desc>lat.=44.527920, lon.=34.036350, Alt.=711.273926m. Speed=2.484000m/h.</desc>
<speed>0.690000</speed>
</trkpt>
<trkpt lat="44.527935" lon="34.036293">
<ele>711.711426</ele>
<time>2011-10-11T13:47:52Z</time>
<desc>lat.=44.527935, lon.=34.036293, Alt.=711.711426m. Speed=2.952000m/h.</desc>
<speed>0.820000</speed>
</trkpt>
<trkpt lat="44.527943" lon="34.036228">
<ele>711.992676</ele>
<time>2011-10-11T13:47:57Z</time>
<desc>lat.=44.527943, lon.=34.036228, Alt.=711.992676m. Speed=3.924000m/h.</desc>
<speed>1.090000</speed>
</trkpt>
<trkpt lat="44.527950" lon="34.036190">
<ele>712.180176</ele>
<time>2011-10-11T13:48:02Z</time>
<desc>lat.=44.527950, lon.=34.036190, Alt.=712.180176m. Speed=3.060000m/h.</desc>
<speed>0.850000</speed>
</trkpt>
<trkpt lat="44.527958" lon="34.036133">
<ele>712.055176</ele>
<time>2011-10-11T13:48:07Z</time>
<desc>lat.=44.527958, lon.=34.036133, Alt.=712.055176m. Speed=2.844000m/h.</desc>
<speed>0.790000</speed>
</trkpt>
<trkpt lat="44.527966" lon="34.036087">
<ele>712.992676</ele>
<time>2011-10-11T13:48:12Z</time>
<desc>lat.=44.527966, lon.=34.036087, Alt.=712.992676m. Speed=1.872000m/h.</desc>
<speed>0.520000</speed>
</trkpt>
<trkpt lat="44.527988" lon="34.036049">
<ele>713.227051</ele>
<time>2011-10-11T13:48:17Z</time>
<desc>lat.=44.527988, lon.=34.036049, Alt.=713.227051m. Speed=2.520000m/h.</desc>
<speed>0.700000</speed>
</trkpt>
<trkpt lat="44.528019" lon="34.035976">
<ele>713.023926</ele>
<time>2011-10-11T13:48:22Z</time>
<desc>lat.=44.528019, lon.=34.035976, Alt.=713.023926m. Speed=3.492000m/h.</desc>
<speed>0.970000</speed>
</trkpt>
<trkpt lat="44.528057" lon="34.035881">
<ele>712.398926</ele>
<time>2011-10-11T13:48:27Z</time>
<desc>lat.=44.528057, lon.=34.035881, Alt.=712.398926m. Speed=4.608000m/h.</desc>
<speed>1.280000</speed>
</trkpt>
<trkpt lat="44.528095" lon="34.035828">
<ele>712.492676</ele>
<time>2011-10-11T13:48:32Z</time>
<desc>lat.=44.528095, lon.=34.035828, Alt.=712.492676m. Speed=4.284000m/h.</desc>
<speed>1.190000</speed>
</trkpt>
<trkpt lat="44.528156" lon="34.035786">
<ele>712.789551</ele>
<time>2011-10-11T13:48:37Z</time>
<desc>lat.=44.528156, lon.=34.035786, Alt.=712.789551m. Speed=5.040000m/h.</desc>
<speed>1.400000</speed>
</trkpt>
<trkpt lat="44.528217" lon="34.035721">
<ele>714.461426</ele>
<time>2011-10-11T13:48:42Z</time>
<desc>lat.=44.528217, lon.=34.035721, Alt.=714.461426m. Speed=4.752000m/h.</desc>
<speed>1.320000</speed>
</trkpt>
<trkpt lat="44.528259" lon="34.035645">
<ele>716.508301</ele>
<time>2011-10-11T13:48:47Z</time>
<desc>lat.=44.528259, lon.=34.035645, Alt.=716.508301m. Speed=4.140000m/h.</desc>
<speed>1.150000</speed>
</trkpt>
<trkpt lat="44.528278" lon="34.035599">
<ele>718.883301</ele>
<time>2011-10-11T13:48:52Z</time>
<desc>lat.=44.528278, lon.=34.035599, Alt.=718.883301m. Speed=4.716000m/h.</desc>
<speed>1.310000</speed>
</trkpt>
<trkpt lat="44.528328" lon="34.035545">
<ele>720.867676</ele>
<time>2011-10-11T13:48:57Z</time>
<desc>lat.=44.528328, lon.=34.035545, Alt.=720.867676m. Speed=0.360000m/h.</desc>
<speed>0.100000</speed>
</trkpt>
<trkpt lat="44.528351" lon="34.035469">
<ele>722.289551</ele>
<time>2011-10-11T13:49:02Z</time>
<desc>lat.=44.528351, lon.=34.035469, Alt.=722.289551m. Speed=3.096000m/h.</desc>
<speed>0.860000</speed>
</trkpt>
<trkpt lat="44.528408" lon="34.035339">
<ele>721.898926</ele>
<time>2011-10-11T13:49:07Z</time>
<desc>lat.=44.528408, lon.=34.035339, Alt.=721.898926m. Speed=4.176000m/h.</desc>
<speed>1.160000</speed>
</trkpt>
<trkpt lat="44.528419" lon="34.035263">
<ele>721.664551</ele>
<time>2011-10-11T13:49:12Z</time>
<desc>lat.=44.528419, lon.=34.035263, Alt.=721.664551m. Speed=2.340000m/h.</desc>
<speed>0.650000</speed>
</trkpt>
<trkpt lat="44.528427" lon="34.035133">
<ele>721.555176</ele>
<time>2011-10-11T13:49:17Z</time>
<desc>lat.=44.528427, lon.=34.035133, Alt.=721.555176m. Speed=4.140000m/h.</desc>
<speed>1.150000</speed>
</trkpt>
<trkpt lat="44.528465" lon="34.035088">
<ele>719.727051</ele>
<time>2011-10-11T13:49:22Z</time>
<desc>lat.=44.528465, lon.=34.035088, Alt.=719.727051m. Speed=3.312000m/h.</desc>
<speed>0.920000</speed>
</trkpt>
<trkpt lat="44.528484" lon="34.034996">
<ele>720.352051</ele>
<time>2011-10-11T13:49:27Z</time>
<desc>lat.=44.528484, lon.=34.034996, Alt.=720.352051m. Speed=4.392000m/h.</desc>
<speed>1.220000</speed>
</trkpt>
<trkpt lat="44.528515" lon="34.034924">
<ele>720.836426</ele>
<time>2011-10-11T13:49:32Z</time>
<desc>lat.=44.528515, lon.=34.034924, Alt.=720.836426m. Speed=3.852000m/h.</desc>
<speed>1.070000</speed>
</trkpt>
<trkpt lat="44.528549" lon="34.034840">
<ele>721.117676</ele>
<time>2011-10-11T13:49:37Z</time>
<desc>lat.=44.528549, lon.=34.034840, Alt.=721.117676m. Speed=3.960000m/h.</desc>
<speed>1.100000</speed>
</trkpt>
<trkpt lat="44.528606" lon="34.034779">
<ele>720.227051</ele>
<time>2011-10-11T13:49:42Z</time>
<desc>lat.=44.528606, lon.=34.034779, Alt.=720.227051m. Speed=3.240000m/h.</desc>
<speed>0.900000</speed>
</trkpt>
<trkpt lat="44.528652" lon="34.034710">
<ele>719.539551</ele>
<time>2011-10-11T13:49:47Z</time>
<desc>lat.=44.528652, lon.=34.034710, Alt.=719.539551m. Speed=3.852000m/h.</desc>
<speed>1.070000</speed>
</trkpt>
<trkpt lat="44.528690" lon="34.034634">
<ele>720.008301</ele>
<time>2011-10-11T13:49:52Z</time>
<desc>lat.=44.528690, lon.=34.034634, Alt.=720.008301m. Speed=3.240000m/h.</desc>
<speed>0.900000</speed>
</trkpt>
<trkpt lat="44.528687" lon="34.034607">
<ele>720.617676</ele>
<time>2011-10-11T13:49:57Z</time>
<desc>lat.=44.528687, lon.=34.034607, Alt.=720.617676m. Speed=1.836000m/h.</desc>
<speed>0.510000</speed>
</trkpt>
<trkpt lat="44.528732" lon="34.034515">
<ele>721.289551</ele>
<time>2011-10-11T13:50:02Z</time>
<desc>lat.=44.528732, lon.=34.034515, Alt.=721.289551m. Speed=4.536000m/h.</desc>
<speed>1.260000</speed>
</trkpt>
<trkpt lat="44.528725" lon="34.034412">
<ele>722.336426</ele>
<time>2011-10-11T13:50:07Z</time>
<desc>lat.=44.528725, lon.=34.034412, Alt.=722.336426m. Speed=3.816000m/h.</desc>
<speed>1.060000</speed>
</trkpt>
<trkpt lat="44.528702" lon="34.034359">
<ele>723.227051</ele>
<time>2011-10-11T13:50:12Z</time>
<desc>lat.=44.528702, lon.=34.034359, Alt.=723.227051m. Speed=2.952000m/h.</desc>
<speed>0.820000</speed>
</trkpt>
<trkpt lat="44.528709" lon="34.034298">
<ele>723.805176</ele>
<time>2011-10-11T13:50:17Z</time>
<desc>lat.=44.528709, lon.=34.034298, Alt.=723.805176m. Speed=2.124000m/h.</desc>
<speed>0.590000</speed>
</trkpt>
<trkpt lat="44.528748" lon="34.034210">
<ele>724.289551</ele>
<time>2011-10-11T13:50:22Z</time>
<desc>lat.=44.528748, lon.=34.034210, Alt.=724.289551m. Speed=3.924000m/h.</desc>
<speed>1.090000</speed>
</trkpt>
<trkpt lat="44.528793" lon="34.034138">
<ele>724.211426</ele>
<time>2011-10-11T13:50:27Z</time>
<desc>lat.=44.528793, lon.=34.034138, Alt.=724.211426m. Speed=3.600000m/h.</desc>
<speed>1.000000</speed>
</trkpt>
<trkpt lat="44.528839" lon="34.034073">
<ele>724.445801</ele>
<time>2011-10-11T13:50:32Z</time>
<desc>lat.=44.528839, lon.=34.034073, Alt.=724.445801m. Speed=2.484000m/h.</desc>
<speed>0.690000</speed>
</trkpt>
<trkpt lat="44.528877" lon="34.034065">
<ele>724.852051</ele>
<time>2011-10-11T13:50:37Z</time>
<desc>lat.=44.528877, lon.=34.034065, Alt.=724.852051m. Speed=2.484000m/h.</desc>
<speed>0.690000</speed>
</trkpt>
<trkpt lat="44.528919" lon="34.034031">
<ele>725.070801</ele>
<time>2011-10-11T13:50:42Z</time>
<desc>lat.=44.528919, lon.=34.034031, Alt.=725.070801m. Speed=3.456000m/h.</desc>
<speed>0.960000</speed>
</trkpt>
<trkpt lat="44.528980" lon="34.034016">
<ele>725.133301</ele>
<time>2011-10-11T13:50:47Z</time>
<desc>lat.=44.528980, lon.=34.034016, Alt.=725.133301m. Speed=3.204000m/h.</desc>
<speed>0.890000</speed>
</trkpt>
<trkpt lat="44.529007" lon="34.033985">
<ele>725.195801</ele>
<time>2011-10-11T13:50:52Z</time>
<desc>lat.=44.529007, lon.=34.033985, Alt.=725.195801m. Speed=3.024000m/h.</desc>
<speed>0.840000</speed>
</trkpt>
<trkpt lat="44.529049" lon="34.033951">
<ele>725.227051</ele>
<time>2011-10-11T13:50:57Z</time>
<desc>lat.=44.529049, lon.=34.033951, Alt.=725.227051m. Speed=2.448000m/h.</desc>
<speed>0.680000</speed>
</trkpt>
<trkpt lat="44.529079" lon="34.033936">
<ele>725.336426</ele>
<time>2011-10-11T13:51:02Z</time>
<desc>lat.=44.529079, lon.=34.033936, Alt.=725.336426m. Speed=2.376000m/h.</desc>
<speed>0.660000</speed>
</trkpt>
<trkpt lat="44.529102" lon="34.033920">
<ele>725.805176</ele>
<time>2011-10-11T13:51:07Z</time>
<desc>lat.=44.529102, lon.=34.033920, Alt.=725.805176m. Speed=1.548000m/h.</desc>
<speed>0.430000</speed>
</trkpt>
<trkpt lat="44.529140" lon="34.033901">
<ele>725.898926</ele>
<time>2011-10-11T13:51:12Z</time>
<desc>lat.=44.529140, lon.=34.033901, Alt.=725.898926m. Speed=1.800000m/h.</desc>
<speed>0.500000</speed>
</trkpt>
<trkpt lat="44.529182" lon="34.033901">
<ele>726.336426</ele>
<time>2011-10-11T13:51:17Z</time>
<desc>lat.=44.529182, lon.=34.033901, Alt.=726.336426m. Speed=3.024000m/h.</desc>
<speed>0.840000</speed>
</trkpt>
<trkpt lat="44.529263" lon="34.033901">
<ele>726.664551</ele>
<time>2011-10-11T13:51:22Z</time>
<desc>lat.=44.529263, lon.=34.033901, Alt.=726.664551m. Speed=4.140000m/h.</desc>
<speed>1.150000</speed>
</trkpt>
<trkpt lat="44.529308" lon="34.033878">
<ele>727.086426</ele>
<time>2011-10-11T13:51:27Z</time>
<desc>lat.=44.529308, lon.=34.033878, Alt.=727.086426m. Speed=3.168000m/h.</desc>
<speed>0.880000</speed>
</trkpt>
<trkpt lat="44.529346" lon="34.033886">
<ele>727.570801</ele>
<time>2011-10-11T13:51:32Z</time>
<desc>lat.=44.529346, lon.=34.033886, Alt.=727.570801m. Speed=2.664000m/h.</desc>
<speed>0.740000</speed>
</trkpt>
<trkpt lat="44.529408" lon="34.033901">
<ele>728.398926</ele>
<time>2011-10-11T13:51:37Z</time>
<desc>lat.=44.529408, lon.=34.033901, Alt.=728.398926m. Speed=3.960000m/h.</desc>
<speed>1.100000</speed>
</trkpt>
<trkpt lat="44.529461" lon="34.033894">
<ele>728.867676</ele>
<time>2011-10-11T13:51:42Z</time>
<desc>lat.=44.529461, lon.=34.033894, Alt.=728.867676m. Speed=3.852000m/h.</desc>
<speed>1.070000</speed>
</trkpt>
<trkpt lat="44.529503" lon="34.033878">
<ele>730.086426</ele>
<time>2011-10-11T13:51:47Z</time>
<desc>lat.=44.529503, lon.=34.033878, Alt.=730.086426m. Speed=2.808000m/h.</desc>
<speed>0.780000</speed>
</trkpt>
<trkpt lat="44.529541" lon="34.033882">
<ele>730.633301</ele>
<time>2011-10-11T13:51:52Z</time>
<desc>lat.=44.529541, lon.=34.033882, Alt.=730.633301m. Speed=2.016000m/h.</desc>
<speed>0.560000</speed>
</trkpt>
<trkpt lat="44.529587" lon="34.033863">
<ele>732.273926</ele>
<time>2011-10-11T13:51:57Z</time>
<desc>lat.=44.529587, lon.=34.033863, Alt.=732.273926m. Speed=1.980000m/h.</desc>
<speed>0.550000</speed>
</trkpt>
<trkpt lat="44.529606" lon="34.033840">
<ele>732.367676</ele>
<time>2011-10-11T13:52:02Z</time>
<desc>lat.=44.529606, lon.=34.033840, Alt.=732.367676m. Speed=0.576000m/h.</desc>
<speed>0.160000</speed>
</trkpt>
<trkpt lat="44.529621" lon="34.033806">
<ele>733.602051</ele>
<time>2011-10-11T13:52:07Z</time>
<desc>lat.=44.529621, lon.=34.033806, Alt.=733.602051m. Speed=1.080000m/h.</desc>
<speed>0.300000</speed>
</trkpt>
<trkpt lat="44.529655" lon="34.033772">
<ele>734.023926</ele>
<time>2011-10-11T13:52:12Z</time>
<desc>lat.=44.529655, lon.=34.033772, Alt.=734.023926m. Speed=2.448000m/h.</desc>
<speed>0.680000</speed>
</trkpt>
<trkpt lat="44.529686" lon="34.033714">
<ele>735.305176</ele>
<time>2011-10-11T13:52:17Z</time>
<desc>lat.=44.529686, lon.=34.033714, Alt.=735.305176m. Speed=4.356000m/h.</desc>
<speed>1.210000</speed>
</trkpt>
<trkpt lat="44.529751" lon="34.033718">
<ele>735.914551</ele>
<time>2011-10-11T13:52:22Z</time>
<desc>lat.=44.529751, lon.=34.033718, Alt.=735.914551m. Speed=3.024000m/h.</desc>
<speed>0.840000</speed>
</trkpt>
<trkpt lat="44.529823" lon="34.033695">
<ele>736.148926</ele>
<time>2011-10-11T13:52:27Z</time>
<desc>lat.=44.529823, lon.=34.033695, Alt.=736.148926m. Speed=4.032000m/h.</desc>
<speed>1.120000</speed>
</trkpt>
<trkpt lat="44.529873" lon="34.033623">
<ele>737.430176</ele>
<time>2011-10-11T13:52:32Z</time>
<desc>lat.=44.529873, lon.=34.033623, Alt.=737.430176m. Speed=3.312000m/h.</desc>
<speed>0.920000</speed>
</trkpt>
<trkpt lat="44.529903" lon="34.033611">
<ele>737.695801</ele>
<time>2011-10-11T13:52:37Z</time>
<desc>lat.=44.529903, lon.=34.033611, Alt.=737.695801m. Speed=2.844000m/h.</desc>
<speed>0.790000</speed>
</trkpt>
<trkpt lat="44.529938" lon="34.033619">
<ele>738.664551</ele>
<time>2011-10-11T13:52:42Z</time>
<desc>lat.=44.529938, lon.=34.033619, Alt.=738.664551m. Speed=2.916000m/h.</desc>
<speed>0.810000</speed>
</trkpt>
<trkpt lat="44.529995" lon="34.033588">
<ele>739.805176</ele>
<time>2011-10-11T13:52:47Z</time>
<desc>lat.=44.529995, lon.=34.033588, Alt.=739.805176m. Speed=4.356000m/h.</desc>
<speed>1.210000</speed>
</trkpt>
<trkpt lat="44.530064" lon="34.033577">
<ele>740.617676</ele>
<time>2011-10-11T13:52:52Z</time>
<desc>lat.=44.530064, lon.=34.033577, Alt.=740.617676m. Speed=4.176000m/h.</desc>
<speed>1.160000</speed>
</trkpt>
<trkpt lat="44.530148" lon="34.033569">
<ele>741.117676</ele>
<time>2011-10-11T13:52:57Z</time>
<desc>lat.=44.530148, lon.=34.033569, Alt.=741.117676m. Speed=3.636000m/h.</desc>
<speed>1.010000</speed>
</trkpt>
<trkpt lat="44.530220" lon="34.033600">
<ele>741.930176</ele>
<time>2011-10-11T13:53:02Z</time>
<desc>lat.=44.530220, lon.=34.033600, Alt.=741.930176m. Speed=2.484000m/h.</desc>
<speed>0.690000</speed>
</trkpt>
<trkpt lat="44.530235" lon="34.033585">
<ele>744.180176</ele>
<time>2011-10-11T13:53:07Z</time>
<desc>lat.=44.530235, lon.=34.033585, Alt.=744.180176m. Speed=0.972000m/h.</desc>
<speed>0.270000</speed>
</trkpt>
<trkpt lat="44.530220" lon="34.033543">
<ele>743.930176</ele>
<time>2011-10-11T13:53:12Z</time>
<desc>lat.=44.530220, lon.=34.033543, Alt.=743.930176m. Speed=0.828000m/h.</desc>
<speed>0.230000</speed>
</trkpt>
<trkpt lat="44.530251" lon="34.033512">
<ele>743.836426</ele>
<time>2011-10-11T13:53:17Z</time>
<desc>lat.=44.530251, lon.=34.033512, Alt.=743.836426m. Speed=0.900000m/h.</desc>
<speed>0.250000</speed>
</trkpt>
<trkpt lat="44.530258" lon="34.033455">
<ele>745.102051</ele>
<time>2011-10-11T13:53:22Z</time>
<desc>lat.=44.530258, lon.=34.033455, Alt.=745.102051m. Speed=0.972000m/h.</desc>
<speed>0.270000</speed>
</trkpt>
<trkpt lat="44.530235" lon="34.033405">
<ele>745.633301</ele>
<time>2011-10-11T13:53:27Z</time>
<desc>lat.=44.530235, lon.=34.033405, Alt.=745.633301m. Speed=1.728000m/h.</desc>
<speed>0.480000</speed>
</trkpt>
<trkpt lat="44.530247" lon="34.033379">
<ele>746.336426</ele>
<time>2011-10-11T13:53:32Z</time>
<desc>lat.=44.530247, lon.=34.033379, Alt.=746.336426m. Speed=0.720000m/h.</desc>
<speed>0.200000</speed>
</trkpt>
<trkpt lat="44.530258" lon="34.033340">
<ele>746.602051</ele>
<time>2011-10-11T13:53:37Z</time>
<desc>lat.=44.530258, lon.=34.033340, Alt.=746.602051m. Speed=1.692000m/h.</desc>
<speed>0.470000</speed>
</trkpt>
<trkpt lat="44.530258" lon="34.033318">
<ele>746.164551</ele>
<time>2011-10-11T13:53:42Z</time>
<desc>lat.=44.530258, lon.=34.033318, Alt.=746.164551m. Speed=1.224000m/h.</desc>
<speed>0.340000</speed>
</trkpt>
<trkpt lat="44.530243" lon="34.033291">
<ele>745.914551</ele>
<time>2011-10-11T13:53:47Z</time>
<desc>lat.=44.530243, lon.=34.033291, Alt.=745.914551m. Speed=2.988000m/h.</desc>
<speed>0.830000</speed>
</trkpt>
<trkpt lat="44.530193" lon="34.033237">
<ele>746.461426</ele>
<time>2011-10-11T13:53:52Z</time>
<desc>lat.=44.530193, lon.=34.033237, Alt.=746.461426m. Speed=3.276000m/h.</desc>
<speed>0.910000</speed>
</trkpt>
<trkpt lat="44.530190" lon="34.033165">
<ele>746.727051</ele>
<time>2011-10-11T13:53:57Z</time>
<desc>lat.=44.530190, lon.=34.033165, Alt.=746.727051m. Speed=2.448000m/h.</desc>
<speed>0.680000</speed>
</trkpt>
<trkpt lat="44.530167" lon="34.033127">
<ele>747.211426</ele>
<time>2011-10-11T13:54:02Z</time>
<desc>lat.=44.530167, lon.=34.033127, Alt.=747.211426m. Speed=2.736000m/h.</desc>
<speed>0.760000</speed>
</trkpt>
<trkpt lat="44.530155" lon="34.033089">
<ele>747.461426</ele>
<time>2011-10-11T13:54:07Z</time>
<desc>lat.=44.530155, lon.=34.033089, Alt.=747.461426m. Speed=1.872000m/h.</desc>
<speed>0.520000</speed>
</trkpt>
<trkpt lat="44.530132" lon="34.033051">
<ele>747.680176</ele>
<time>2011-10-11T13:54:12Z</time>
<desc>lat.=44.530132, lon.=34.033051, Alt.=747.680176m. Speed=2.772000m/h.</desc>
<speed>0.770000</speed>
</trkpt>
<trkpt lat="44.530128" lon="34.033012">
<ele>747.914551</ele>
<time>2011-10-11T13:54:17Z</time>
<desc>lat.=44.530128, lon.=34.033012, Alt.=747.914551m. Speed=1.764000m/h.</desc>
<speed>0.490000</speed>
</trkpt>
<trkpt lat="44.530128" lon="34.032955">
<ele>748.070801</ele>
<time>2011-10-11T13:54:22Z</time>
<desc>lat.=44.530128, lon.=34.032955, Alt.=748.070801m. Speed=1.944000m/h.</desc>
<speed>0.540000</speed>
</trkpt>
<trkpt lat="44.530148" lon="34.032906">
<ele>747.852051</ele>
<time>2011-10-11T13:54:27Z</time>
<desc>lat.=44.530148, lon.=34.032906, Alt.=747.852051m. Speed=2.304000m/h.</desc>
<speed>0.640000</speed>
</trkpt>
<trkpt lat="44.530201" lon="34.032845">
<ele>747.805176</ele>
<time>2011-10-11T13:54:32Z</time>
<desc>lat.=44.530201, lon.=34.032845, Alt.=747.805176m. Speed=2.592000m/h.</desc>
<speed>0.720000</speed>
</trkpt>
<trkpt lat="44.530201" lon="34.032780">
<ele>747.930176</ele>
<time>2011-10-11T13:54:37Z</time>
<desc>lat.=44.530201, lon.=34.032780, Alt.=747.930176m. Speed=2.196000m/h.</desc>
<speed>0.610000</speed>
</trkpt>
<trkpt lat="44.530243" lon="34.032742">
<ele>747.711426</ele>
<time>2011-10-11T13:54:42Z</time>
<desc>lat.=44.530243, lon.=34.032742, Alt.=747.711426m. Speed=3.276000m/h.</desc>
<speed>0.910000</speed>
</trkpt>
<trkpt lat="44.530262" lon="34.032715">
<ele>747.602051</ele>
<time>2011-10-11T13:54:47Z</time>
<desc>lat.=44.530262, lon.=34.032715, Alt.=747.602051m. Speed=1.404000m/h.</desc>
<speed>0.390000</speed>
</trkpt>
<trkpt lat="44.530285" lon="34.032696">
<ele>747.539551</ele>
<time>2011-10-11T13:54:52Z</time>
<desc>lat.=44.530285, lon.=34.032696, Alt.=747.539551m. Speed=1.800000m/h.</desc>
<speed>0.500000</speed>
</trkpt>
<trkpt lat="44.530323" lon="34.032681">
<ele>747.523926</ele>
<time>2011-10-11T13:54:57Z</time>
<desc>lat.=44.530323, lon.=34.032681, Alt.=747.523926m. Speed=1.368000m/h.</desc>
<speed>0.380000</speed>
</trkpt>
<trkpt lat="44.530319" lon="34.032673">
<ele>747.711426</ele>
<time>2011-10-11T13:55:02Z</time>
<desc>lat.=44.530319, lon.=34.032673, Alt.=747.711426m. Speed=0.972000m/h.</desc>
<speed>0.270000</speed>
</trkpt>
<trkpt lat="44.530327" lon="34.032669">
<ele>747.773926</ele>
<time>2011-10-11T13:55:07Z</time>
<desc>lat.=44.530327, lon.=34.032669, Alt.=747.773926m. Speed=1.368000m/h.</desc>
<speed>0.380000</speed>
</trkpt>
<trkpt lat="44.530350" lon="34.032631">
<ele>748.602051</ele>
<time>2011-10-11T13:55:12Z</time>
<desc>lat.=44.530350, lon.=34.032631, Alt.=748.602051m. Speed=1.080000m/h.</desc>
<speed>0.300000</speed>
</trkpt>
<trkpt lat="44.530380" lon="34.032642">
<ele>748.945801</ele>
<time>2011-10-11T13:55:17Z</time>
<desc>lat.=44.530380, lon.=34.032642, Alt.=748.945801m. Speed=1.692000m/h.</desc>
<speed>0.470000</speed>
</trkpt>
<trkpt lat="44.530411" lon="34.032646">
<ele>749.648926</ele>
<time>2011-10-11T13:55:22Z</time>
<desc>lat.=44.530411, lon.=34.032646, Alt.=749.648926m. Speed=1.512000m/h.</desc>
<speed>0.420000</speed>
</trkpt>
<trkpt lat="44.530453" lon="34.032650">
<ele>749.742676</ele>
<time>2011-10-11T13:55:27Z</time>
<desc>lat.=44.530453, lon.=34.032650, Alt.=749.742676m. Speed=1.440000m/h.</desc>
<speed>0.400000</speed>
</trkpt>
<trkpt lat="44.530495" lon="34.032623">
<ele>750.023926</ele>
<time>2011-10-11T13:55:32Z</time>
<desc>lat.=44.530495, lon.=34.032623, Alt.=750.023926m. Speed=2.808000m/h.</desc>
<speed>0.780000</speed>
</trkpt>
<trkpt lat="44.530502" lon="34.032570">
<ele>750.383301</ele>
<time>2011-10-11T13:55:37Z</time>
<desc>lat.=44.530502, lon.=34.032570, Alt.=750.383301m. Speed=1.152000m/h.</desc>
<speed>0.320000</speed>
</trkpt>
<trkpt lat="44.530533" lon="34.032589">
<ele>750.930176</ele>
<time>2011-10-11T13:55:42Z</time>
<desc>lat.=44.530533, lon.=34.032589, Alt.=750.930176m. Speed=1.728000m/h.</desc>
<speed>0.480000</speed>
</trkpt>
<trkpt lat="44.530540" lon="34.032619">
<ele>751.383301</ele>
<time>2011-10-11T13:55:47Z</time>
<desc>lat.=44.530540, lon.=34.032619, Alt.=751.383301m. Speed=2.304000m/h.</desc>
<speed>0.640000</speed>
</trkpt>
<trkpt lat="44.530571" lon="34.032669">
<ele>752.305176</ele>
<time>2011-10-11T13:55:52Z</time>
<desc>lat.=44.530571, lon.=34.032669, Alt.=752.305176m. Speed=2.628000m/h.</desc>
<speed>0.730000</speed>
</trkpt>
<trkpt lat="44.530605" lon="34.032696">
<ele>753.586426</ele>
<time>2011-10-11T13:55:57Z</time>
<desc>lat.=44.530605, lon.=34.032696, Alt.=753.586426m. Speed=2.484000m/h.</desc>
<speed>0.690000</speed>
</trkpt>
<trkpt lat="44.530632" lon="34.032684">
<ele>755.242676</ele>
<time>2011-10-11T13:56:02Z</time>
<desc>lat.=44.530632, lon.=34.032684, Alt.=755.242676m. Speed=2.664000m/h.</desc>
<speed>0.740000</speed>
</trkpt>
<trkpt lat="44.530666" lon="34.032688">
<ele>757.102051</ele>
<time>2011-10-11T13:56:07Z</time>
<desc>lat.=44.530666, lon.=34.032688, Alt.=757.102051m. Speed=2.016000m/h.</desc>
<speed>0.560000</speed>
</trkpt>
<trkpt lat="44.530674" lon="34.032681">
<ele>759.023926</ele>
<time>2011-10-11T13:56:12Z</time>
<desc>lat.=44.530674, lon.=34.032681, Alt.=759.023926m. Speed=1.404000m/h.</desc>
<speed>0.390000</speed>
</trkpt>
<trkpt lat="44.530674" lon="34.032688">
<ele>760.055176</ele>
<time>2011-10-11T13:56:17Z</time>
<desc>lat.=44.530674, lon.=34.032688, Alt.=760.055176m. Speed=3.600000m/h.</desc>
<speed>1.000000</speed>
</trkpt>
<trkpt lat="44.530689" lon="34.032745">
<ele>762.117676</ele>
<time>2011-10-11T13:56:22Z</time>
<desc>lat.=44.530689, lon.=34.032745, Alt.=762.117676m. Speed=4.068000m/h.</desc>
<speed>1.130000</speed>
</trkpt>
<trkpt lat="44.530682" lon="34.032799">
<ele>763.461426</ele>
<time>2011-10-11T13:56:27Z</time>
<desc>lat.=44.530682, lon.=34.032799, Alt.=763.461426m. Speed=1.692000m/h.</desc>
<speed>0.470000</speed>
</trkpt>
<trkpt lat="44.530685" lon="34.032803">
<ele>763.602051</ele>
<time>2011-10-11T13:56:32Z</time>
<desc>lat.=44.530685, lon.=34.032803, Alt.=763.602051m. Speed=0.324000m/h.</desc>
<speed>0.090000</speed>
</trkpt>
<trkpt lat="44.530685" lon="34.032803">
<ele>763.898926</ele>
<time>2011-10-11T13:56:37Z</time>
<desc>lat.=44.530685, lon.=34.032803, Alt.=763.898926m. Speed=3.204000m/h.</desc>
<speed>0.890000</speed>
</trkpt>
<trkpt lat="44.530670" lon="34.032791">
<ele>764.883301</ele>
<time>2011-10-11T13:56:42Z</time>
<desc>lat.=44.530670, lon.=34.032791, Alt.=764.883301m. Speed=0.792000m/h.</desc>
<speed>0.220000</speed>
</trkpt>
<trkpt lat="44.530666" lon="34.032791">
<ele>764.914551</ele>
<time>2011-10-11T13:56:47Z</time>
<desc>lat.=44.530666, lon.=34.032791, Alt.=764.914551m. Speed=0.180000m/h.</desc>
<speed>0.050000</speed>
</trkpt>
<trkpt lat="44.530666" lon="34.032795">
<ele>764.961426</ele>
<time>2011-10-11T13:56:52Z</time>
<desc>lat.=44.530666, lon.=34.032795, Alt.=764.961426m. Speed=0.108000m/h.</desc>
<speed>0.030000</speed>
</trkpt>
<trkpt lat="44.530666" lon="34.032795">
<ele>765.023926</ele>
<time>2011-10-11T13:56:57Z</time>
<desc>lat.=44.530666, lon.=34.032795, Alt.=765.023926m. Speed=0.180000m/h.</desc>
<speed>0.050000</speed>
</trkpt>
<trkpt lat="44.530666" lon="34.032795">
<ele>765.055176</ele>
<time>2011-10-11T13:57:02Z</time>
<desc>lat.=44.530666, lon.=34.032795, Alt.=765.055176m. Speed=0.144000m/h.</desc>
<speed>0.040000</speed>
</trkpt>
<trkpt lat="44.530666" lon="34.032795">
<ele>765.039551</ele>
<time>2011-10-11T13:57:07Z</time>
<desc>lat.=44.530666, lon.=34.032795, Alt.=765.039551m. Speed=0.036000m/h.</desc>
<speed>0.010000</speed>
</trkpt>
<trkpt lat="44.530666" lon="34.032795">
<ele>765.039551</ele>
<time>2011-10-11T13:57:12Z</time>
<desc>lat.=44.530666, lon.=34.032795, Alt.=765.039551m. Speed=0.000000m/h.</desc>
<speed>0.000000</speed>
</trkpt>
<trkpt lat="44.530670" lon="34.032795">
<ele>765.008301</ele>
<time>2011-10-11T13:57:17Z</time>
<desc>lat.=44.530670, lon.=34.032795, Alt.=765.008301m. Speed=0.000000m/h.</desc>
<speed>0.000000</speed>
</trkpt>
<trkpt lat="44.530670" lon="34.032795">
<ele>764.977051</ele>
<time>2011-10-11T13:57:22Z</time>
<desc>lat.=44.530670, lon.=34.032795, Alt.=764.977051m. Speed=0.036000m/h.</desc>
<speed>0.010000</speed>
</trkpt>
<trkpt lat="44.530674" lon="34.032791">
<ele>764.648926</ele>
<time>2011-10-11T13:57:27Z</time>
<desc>lat.=44.530674, lon.=34.032791, Alt.=764.648926m. Speed=2.304000m/h.</desc>
<speed>0.640000</speed>
</trkpt>
<trkpt lat="44.530685" lon="34.032814">
<ele>764.930176</ele>
<time>2011-10-11T13:57:32Z</time>
<desc>lat.=44.530685, lon.=34.032814, Alt.=764.930176m. Speed=0.612000m/h.</desc>
<speed>0.170000</speed>
</trkpt>
<trkpt lat="44.530685" lon="34.032814">
<ele>764.602051</ele>
<time>2011-10-11T13:57:37Z</time>
<desc>lat.=44.530685, lon.=34.032814, Alt.=764.602051m. Speed=0.036000m/h.</desc>
<speed>0.010000</speed>
</trkpt>
<trkpt lat="44.530678" lon="34.032818">
<ele>764.305176</ele>
<time>2011-10-11T13:57:42Z</time>
<desc>lat.=44.530678, lon.=34.032818, Alt.=764.305176m. Speed=0.504000m/h.</desc>
<speed>0.140000</speed>
</trkpt>
<trkpt lat="44.530678" lon="34.032818">
<ele>764.211426</ele>
<time>2011-10-11T13:57:47Z</time>
<desc>lat.=44.530678, lon.=34.032818, Alt.=764.211426m. Speed=0.108000m/h.</desc>
<speed>0.030000</speed>
</trkpt>
<trkpt lat="44.530674" lon="34.032818">
<ele>764.180176</ele>
<time>2011-10-11T13:57:52Z</time>
<desc>lat.=44.530674, lon.=34.032818, Alt.=764.180176m. Speed=0.288000m/h.</desc>
<speed>0.080000</speed>
</trkpt>
<trkpt lat="44.530674" lon="34.032822">
<ele>764.195801</ele>
<time>2011-10-11T13:57:57Z</time>
<desc>lat.=44.530674, lon.=34.032822, Alt.=764.195801m. Speed=0.000000m/h.</desc>
<speed>0.000000</speed>
</trkpt>
<trkpt lat="44.530670" lon="34.032818">
<ele>764.180176</ele>
<time>2011-10-11T13:58:02Z</time>
<desc>lat.=44.530670, lon.=34.032818, Alt.=764.180176m. Speed=0.396000m/h.</desc>
<speed>0.110000</speed>
</trkpt>
<trkpt lat="44.530670" lon="34.032810">
<ele>764.164551</ele>
<time>2011-10-11T13:58:07Z</time>
<desc>lat.=44.530670, lon.=34.032810, Alt.=764.164551m. Speed=0.288000m/h.</desc>
<speed>0.080000</speed>
</trkpt>
<trkpt lat="44.530666" lon="34.032818">
<ele>764.133301</ele>
<time>2011-10-11T13:58:12Z</time>
<desc>lat.=44.530666, lon.=34.032818, Alt.=764.133301m. Speed=0.612000m/h.</desc>
<speed>0.170000</speed>
</trkpt>
<trkpt lat="44.530663" lon="34.032818">
<ele>764.148926</ele>
<time>2011-10-11T13:58:17Z</time>
<desc>lat.=44.530663, lon.=34.032818, Alt.=764.148926m. Speed=0.216000m/h.</desc>
<speed>0.060000</speed>
</trkpt>
<trkpt lat="44.530674" lon="34.032822">
<ele>764.117676</ele>
<time>2011-10-11T13:58:22Z</time>
<desc>lat.=44.530674, lon.=34.032822, Alt.=764.117676m. Speed=0.288000m/h.</desc>
<speed>0.080000</speed>
</trkpt>
<trkpt lat="44.530670" lon="34.032825">
<ele>764.289551</ele>
<time>2011-10-11T13:58:27Z</time>
<desc>lat.=44.530670, lon.=34.032825, Alt.=764.289551m. Speed=0.072000m/h.</desc>
<speed>0.020000</speed>
</trkpt>
<trkpt lat="44.530674" lon="34.032825">
<ele>764.336426</ele>
<time>2011-10-11T13:58:32Z</time>
<desc>lat.=44.530674, lon.=34.032825, Alt.=764.336426m. Speed=0.720000m/h.</desc>
<speed>0.200000</speed>
</trkpt>
<trkpt lat="44.530685" lon="34.032814">
<ele>764.055176</ele>
<time>2011-10-11T13:58:37Z</time>
<desc>lat.=44.530685, lon.=34.032814, Alt.=764.055176m. Speed=0.684000m/h.</desc>
<speed>0.190000</speed>
</trkpt>
<trkpt lat="44.530689" lon="34.032810">
<ele>763.648926</ele>
<time>2011-10-11T13:58:42Z</time>
<desc>lat.=44.530689, lon.=34.032810, Alt.=763.648926m. Speed=0.180000m/h.</desc>
<speed>0.050000</speed>
</trkpt>
<trkpt lat="44.530685" lon="34.032810">
<ele>763.523926</ele>
<time>2011-10-11T13:58:47Z</time>
<desc>lat.=44.530685, lon.=34.032810, Alt.=763.523926m. Speed=0.072000m/h.</desc>
<speed>0.020000</speed>
</trkpt>
<trkpt lat="44.530685" lon="34.032810">
<ele>763.352051</ele>
<time>2011-10-11T13:58:52Z</time>
<desc>lat.=44.530685, lon.=34.032810, Alt.=763.352051m. Speed=0.108000m/h.</desc>
<speed>0.030000</speed>
</trkpt>
<trkpt lat="44.530685" lon="34.032810">
<ele>763.352051</ele>
<time>2011-10-11T13:58:57Z</time>
<desc>lat.=44.530685, lon.=34.032810, Alt.=763.352051m. Speed=0.036000m/h.</desc>
<speed>0.010000</speed>
</trkpt>
<trkpt lat="44.530685" lon="34.032810">
<ele>763.336426</ele>
<time>2011-10-11T13:59:02Z</time>
<desc>lat.=44.530685, lon.=34.032810, Alt.=763.336426m. Speed=0.072000m/h.</desc>
<speed>0.020000</speed>
</trkpt>
<trkpt lat="44.530685" lon="34.032810">
<ele>763.336426</ele>
<time>2011-10-11T13:59:07Z</time>
<desc>lat.=44.530685, lon.=34.032810, Alt.=763.336426m. Speed=0.036000m/h.</desc>
<speed>0.010000</speed>
</trkpt>
<trkpt lat="44.530685" lon="34.032810">
<ele>763.305176</ele>
<time>2011-10-11T13:59:12Z</time>
<desc>lat.=44.530685, lon.=34.032810, Alt.=763.305176m. Speed=0.828000m/h.</desc>
<speed>0.230000</speed>
</trkpt>
<trkpt lat="44.530689" lon="34.032806">
<ele>763.305176</ele>
<time>2011-10-11T13:59:17Z</time>
<desc>lat.=44.530689, lon.=34.032806, Alt.=763.305176m. Speed=0.072000m/h.</desc>
<speed>0.020000</speed>
</trkpt>
<trkpt lat="44.530685" lon="34.032806">
<ele>763.320801</ele>
<time>2011-10-11T13:59:22Z</time>
<desc>lat.=44.530685, lon.=34.032806, Alt.=763.320801m. Speed=0.432000m/h.</desc>
<speed>0.120000</speed>
</trkpt>
<trkpt lat="44.530685" lon="34.032806">
<ele>763.320801</ele>
<time>2011-10-11T13:59:27Z</time>
<desc>lat.=44.530685, lon.=34.032806, Alt.=763.320801m. Speed=0.036000m/h.</desc>
<speed>0.010000</speed>
</trkpt>
<trkpt lat="44.530685" lon="34.032810">
<ele>763.305176</ele>
<time>2011-10-11T13:59:32Z</time>
<desc>lat.=44.530685, lon.=34.032810, Alt.=763.305176m. Speed=0.288000m/h.</desc>
<speed>0.080000</speed>
</trkpt>
<trkpt lat="44.530685" lon="34.032810">
<ele>763.320801</ele>
<time>2011-10-11T13:59:37Z</time>
<desc>lat.=44.530685, lon.=34.032810, Alt.=763.320801m. Speed=0.072000m/h.</desc>
<speed>0.020000</speed>
</trkpt>
<trkpt lat="44.530685" lon="34.032810">
<ele>763.305176</ele>
<time>2011-10-11T13:59:42Z</time>
<desc>lat.=44.530685, lon.=34.032810, Alt.=763.305176m. Speed=0.000000m/h.</desc>
<speed>0.000000</speed>
</trkpt>
<trkpt lat="44.530685" lon="34.032810">
<ele>763.305176</ele>
<time>2011-10-11T13:59:47Z</time>
<desc>lat.=44.530685, lon.=34.032810, Alt.=763.305176m. Speed=0.108000m/h.</desc>
<speed>0.030000</speed>
</trkpt>
<trkpt lat="44.530685" lon="34.032810">
<ele>763.305176</ele>
<time>2011-10-11T13:59:52Z</time>
<desc>lat.=44.530685, lon.=34.032810, Alt.=763.305176m. Speed=0.000000m/h.</desc>
<speed>0.000000</speed>
</trkpt>
<trkpt lat="44.530685" lon="34.032810">
<ele>763.305176</ele>
<time>2011-10-11T13:59:57Z</time>
<desc>lat.=44.530685, lon.=34.032810, Alt.=763.305176m. Speed=0.000000m/h.</desc>
<speed>0.000000</speed>
</trkpt>
<trkpt lat="44.530685" lon="34.032806">
<ele>763.227051</ele>
<time>2011-10-11T14:00:02Z</time>
<desc>lat.=44.530685, lon.=34.032806, Alt.=763.227051m. Speed=0.396000m/h.</desc>
<speed>0.110000</speed>
</trkpt>
<trkpt lat="44.530689" lon="34.032803">
<ele>763.133301</ele>
<time>2011-10-11T14:00:07Z</time>
<desc>lat.=44.530689, lon.=34.032803, Alt.=763.133301m. Speed=3.060000m/h.</desc>
<speed>0.850000</speed>
</trkpt>
<trkpt lat="44.530682" lon="34.032806">
<ele>763.258301</ele>
<time>2011-10-11T14:00:12Z</time>
<desc>lat.=44.530682, lon.=34.032806, Alt.=763.258301m. Speed=0.180000m/h.</desc>
<speed>0.050000</speed>
</trkpt>
<trkpt lat="44.530685" lon="34.032810">
<ele>763.273926</ele>
<time>2011-10-11T14:00:17Z</time>
<desc>lat.=44.530685, lon.=34.032810, Alt.=763.273926m. Speed=0.000000m/h.</desc>
<speed>0.000000</speed>
</trkpt>
<trkpt lat="44.530685" lon="34.032810">
<ele>763.227051</ele>
<time>2011-10-11T14:00:22Z</time>
<desc>lat.=44.530685, lon.=34.032810, Alt.=763.227051m. Speed=0.000000m/h.</desc>
<speed>0.000000</speed>
</trkpt>
<trkpt lat="44.530693" lon="34.032795">
<ele>762.742676</ele>
<time>2011-10-11T14:00:27Z</time>
<desc>lat.=44.530693, lon.=34.032795, Alt.=762.742676m. Speed=4.428000m/h.</desc>
<speed>1.230000</speed>
</trkpt>
<trkpt lat="44.530746" lon="34.032730">
<ele>761.430176</ele>
<time>2011-10-11T14:00:32Z</time>
<desc>lat.=44.530746, lon.=34.032730, Alt.=761.430176m. Speed=5.256000m/h.</desc>
<speed>1.460000</speed>
</trkpt>
<trkpt lat="44.530785" lon="34.032700">
<ele>761.711426</ele>
<time>2011-10-11T14:00:37Z</time>
<desc>lat.=44.530785, lon.=34.032700, Alt.=761.711426m. Speed=3.420000m/h.</desc>
<speed>0.950000</speed>
</trkpt>
<trkpt lat="44.530827" lon="34.032681">
<ele>761.633301</ele>
<time>2011-10-11T14:00:42Z</time>
<desc>lat.=44.530827, lon.=34.032681, Alt.=761.633301m. Speed=2.556000m/h.</desc>
<speed>0.710000</speed>
</trkpt>
<trkpt lat="44.530834" lon="34.032684">
<ele>761.523926</ele>
<time>2011-10-11T14:00:47Z</time>
<desc>lat.=44.530834, lon.=34.032684, Alt.=761.523926m. Speed=1.080000m/h.</desc>
<speed>0.300000</speed>
</trkpt>
<trkpt lat="44.530865" lon="34.032692">
<ele>762.039551</ele>
<time>2011-10-11T14:00:52Z</time>
<desc>lat.=44.530865, lon.=34.032692, Alt.=762.039551m. Speed=2.124000m/h.</desc>
<speed>0.590000</speed>
</trkpt>
<trkpt lat="44.530899" lon="34.032688">
<ele>762.633301</ele>
<time>2011-10-11T14:00:57Z</time>
<desc>lat.=44.530899, lon.=34.032688, Alt.=762.633301m. Speed=2.268000m/h.</desc>
<speed>0.630000</speed>
</trkpt>
<trkpt lat="44.530952" lon="34.032650">
<ele>763.258301</ele>
<time>2011-10-11T14:01:02Z</time>
<desc>lat.=44.530952, lon.=34.032650, Alt.=763.258301m. Speed=2.736000m/h.</desc>
<speed>0.760000</speed>
</trkpt>
<trkpt lat="44.530987" lon="34.032623">
<ele>764.117676</ele>
<time>2011-10-11T14:01:07Z</time>
<desc>lat.=44.530987, lon.=34.032623, Alt.=764.117676m. Speed=1.944000m/h.</desc>
<speed>0.540000</speed>
</trkpt>
<trkpt lat="44.531029" lon="34.032585">
<ele>764.914551</ele>
<time>2011-10-11T14:01:12Z</time>
<desc>lat.=44.531029, lon.=34.032585, Alt.=764.914551m. Speed=4.068000m/h.</desc>
<speed>1.130000</speed>
</trkpt>
<trkpt lat="44.531086" lon="34.032539">
<ele>766.352051</ele>
<time>2011-10-11T14:01:17Z</time>
<desc>lat.=44.531086, lon.=34.032539, Alt.=766.352051m. Speed=3.996000m/h.</desc>
<speed>1.110000</speed>
</trkpt>
<trkpt lat="44.531109" lon="34.032539">
<ele>767.273926</ele>
<time>2011-10-11T14:01:22Z</time>
<desc>lat.=44.531109, lon.=34.032539, Alt.=767.273926m. Speed=1.044000m/h.</desc>
<speed>0.290000</speed>
</trkpt>
<trkpt lat="44.531139" lon="34.032520">
<ele>768.570801</ele>
<time>2011-10-11T14:01:27Z</time>
<desc>lat.=44.531139, lon.=34.032520, Alt.=768.570801m. Speed=2.232000m/h.</desc>
<speed>0.620000</speed>
</trkpt>
<trkpt lat="44.531151" lon="34.032516">
<ele>769.414551</ele>
<time>2011-10-11T14:01:32Z</time>
<desc>lat.=44.531151, lon.=34.032516, Alt.=769.414551m. Speed=0.972000m/h.</desc>
<speed>0.270000</speed>
</trkpt>
<trkpt lat="44.531174" lon="34.032471">
<ele>770.055176</ele>
<time>2011-10-11T14:01:37Z</time>
<desc>lat.=44.531174, lon.=34.032471, Alt.=770.055176m. Speed=1.800000m/h.</desc>
<speed>0.500000</speed>
</trkpt>
<trkpt lat="44.531197" lon="34.032436">
<ele>770.805176</ele>
<time>2011-10-11T14:01:42Z</time>
<desc>lat.=44.531197, lon.=34.032436, Alt.=770.805176m. Speed=2.016000m/h.</desc>
<speed>0.560000</speed>
</trkpt>
<trkpt lat="44.531242" lon="34.032360">
<ele>771.695801</ele>
<time>2011-10-11T14:01:47Z</time>
<desc>lat.=44.531242, lon.=34.032360, Alt.=771.695801m. Speed=3.024000m/h.</desc>
<speed>0.840000</speed>
</trkpt>
<trkpt lat="44.531261" lon="34.032314">
<ele>772.242676</ele>
<time>2011-10-11T14:01:52Z</time>
<desc>lat.=44.531261, lon.=34.032314, Alt.=772.242676m. Speed=2.556000m/h.</desc>
<speed>0.710000</speed>
</trkpt>
<trkpt lat="44.531303" lon="34.032249">
<ele>772.961426</ele>
<time>2011-10-11T14:01:57Z</time>
<desc>lat.=44.531303, lon.=34.032249, Alt.=772.961426m. Speed=3.240000m/h.</desc>
<speed>0.900000</speed>
</trkpt>
<trkpt lat="44.531338" lon="34.032185">
<ele>773.633301</ele>
<time>2011-10-11T14:02:02Z</time>
<desc>lat.=44.531338, lon.=34.032185, Alt.=773.633301m. Speed=2.484000m/h.</desc>
<speed>0.690000</speed>
</trkpt>
<trkpt lat="44.531372" lon="34.032146">
<ele>774.961426</ele>
<time>2011-10-11T14:02:07Z</time>
<desc>lat.=44.531372, lon.=34.032146, Alt.=774.961426m. Speed=2.628000m/h.</desc>
<speed>0.730000</speed>
</trkpt>
<trkpt lat="44.531391" lon="34.032120">
<ele>776.133301</ele>
<time>2011-10-11T14:02:12Z</time>
<desc>lat.=44.531391, lon.=34.032120, Alt.=776.133301m. Speed=2.088000m/h.</desc>
<speed>0.580000</speed>
</trkpt>
<trkpt lat="44.531399" lon="34.032078">
<ele>777.508301</ele>
<time>2011-10-11T14:02:17Z</time>
<desc>lat.=44.531399, lon.=34.032078, Alt.=777.508301m. Speed=1.692000m/h.</desc>
<speed>0.470000</speed>
</trkpt>
<trkpt lat="44.531437" lon="34.032074">
<ele>778.148926</ele>
<time>2011-10-11T14:02:22Z</time>
<desc>lat.=44.531437, lon.=34.032074, Alt.=778.148926m. Speed=2.700000m/h.</desc>
<speed>0.750000</speed>
</trkpt>
<trkpt lat="44.531467" lon="34.032070">
<ele>779.289551</ele>
<time>2011-10-11T14:02:27Z</time>
<desc>lat.=44.531467, lon.=34.032070, Alt.=779.289551m. Speed=1.908000m/h.</desc>
<speed>0.530000</speed>
</trkpt>
<trkpt lat="44.531490" lon="34.032066">
<ele>780.742676</ele>
<time>2011-10-11T14:02:32Z</time>
<desc>lat.=44.531490, lon.=34.032066, Alt.=780.742676m. Speed=2.052000m/h.</desc>
<speed>0.570000</speed>
</trkpt>
<trkpt lat="44.531487" lon="34.032066">
<ele>782.195801</ele>
<time>2011-10-11T14:02:37Z</time>
<desc>lat.=44.531487, lon.=34.032066, Alt.=782.195801m. Speed=1.908000m/h.</desc>
<speed>0.530000</speed>
</trkpt>
<trkpt lat="44.531502" lon="34.032085">
<ele>783.664551</ele>
<time>2011-10-11T14:02:42Z</time>
<desc>lat.=44.531502, lon.=34.032085, Alt.=783.664551m. Speed=2.340000m/h.</desc>
<speed>0.650000</speed>
</trkpt>
<trkpt lat="44.531521" lon="34.032120">
<ele>785.570801</ele>
<time>2011-10-11T14:02:47Z</time>
<desc>lat.=44.531521, lon.=34.032120, Alt.=785.570801m. Speed=1.476000m/h.</desc>
<speed>0.410000</speed>
</trkpt>
<trkpt lat="44.531555" lon="34.032108">
<ele>786.773926</ele>
<time>2011-10-11T14:02:52Z</time>
<desc>lat.=44.531555, lon.=34.032108, Alt.=786.773926m. Speed=2.088000m/h.</desc>
<speed>0.580000</speed>
</trkpt>
<trkpt lat="44.531555" lon="34.032078">
<ele>788.273926</ele>
<time>2011-10-11T14:02:57Z</time>
<desc>lat.=44.531555, lon.=34.032078, Alt.=788.273926m. Speed=1.512000m/h.</desc>
<speed>0.420000</speed>
</trkpt>
<trkpt lat="44.531532" lon="34.032005">
<ele>789.320801</ele>
<time>2011-10-11T14:03:02Z</time>
<desc>lat.=44.531532, lon.=34.032005, Alt.=789.320801m. Speed=3.024000m/h.</desc>
<speed>0.840000</speed>
</trkpt>
<trkpt lat="44.531540" lon="34.031952">
<ele>790.914551</ele>
<time>2011-10-11T14:03:07Z</time>
<desc>lat.=44.531540, lon.=34.031952, Alt.=790.914551m. Speed=3.600000m/h.</desc>
<speed>1.000000</speed>
</trkpt>
<trkpt lat="44.531563" lon="34.031929">
<ele>792.680176</ele>
<time>2011-10-11T14:03:12Z</time>
<desc>lat.=44.531563, lon.=34.031929, Alt.=792.680176m. Speed=2.700000m/h.</desc>
<speed>0.750000</speed>
</trkpt>
<trkpt lat="44.531597" lon="34.031895">
<ele>794.727051</ele>
<time>2011-10-11T14:03:17Z</time>
<desc>lat.=44.531597, lon.=34.031895, Alt.=794.727051m. Speed=2.052000m/h.</desc>
<speed>0.570000</speed>
</trkpt>
<trkpt lat="44.531605" lon="34.031857">
<ele>796.633301</ele>
<time>2011-10-11T14:03:22Z</time>
<desc>lat.=44.531605, lon.=34.031857, Alt.=796.633301m. Speed=2.484000m/h.</desc>
<speed>0.690000</speed>
</trkpt>
<trkpt lat="44.531620" lon="34.031792">
<ele>797.789551</ele>
<time>2011-10-11T14:03:27Z</time>
<desc>lat.=44.531620, lon.=34.031792, Alt.=797.789551m. Speed=2.484000m/h.</desc>
<speed>0.690000</speed>
</trkpt>
<trkpt lat="44.531666" lon="34.031754">
<ele>798.680176</ele>
<time>2011-10-11T14:03:32Z</time>
<desc>lat.=44.531666, lon.=34.031754, Alt.=798.680176m. Speed=2.628000m/h.</desc>
<speed>0.730000</speed>
</trkpt>
<trkpt lat="44.531693" lon="34.031708">
<ele>799.148926</ele>
<time>2011-10-11T14:03:37Z</time>
<desc>lat.=44.531693, lon.=34.031708, Alt.=799.148926m. Speed=2.556000m/h.</desc>
<speed>0.710000</speed>
</trkpt>
<trkpt lat="44.531727" lon="34.031670">
<ele>799.992676</ele>
<time>2011-10-11T14:03:42Z</time>
<desc>lat.=44.531727, lon.=34.031670, Alt.=799.992676m. Speed=2.736000m/h.</desc>
<speed>0.760000</speed>
</trkpt>
<trkpt lat="44.531773" lon="34.031593">
<ele>801.648926</ele>
<time>2011-10-11T14:03:47Z</time>
<desc>lat.=44.531773, lon.=34.031593, Alt.=801.648926m. Speed=3.492000m/h.</desc>
<speed>0.970000</speed>
</trkpt>
<trkpt lat="44.531818" lon="34.031582">
<ele>802.898926</ele>
<time>2011-10-11T14:03:52Z</time>
<desc>lat.=44.531818, lon.=34.031582, Alt.=802.898926m. Speed=3.204000m/h.</desc>
<speed>0.890000</speed>
</trkpt>
<trkpt lat="44.531860" lon="34.031536">
<ele>804.445801</ele>
<time>2011-10-11T14:03:57Z</time>
<desc>lat.=44.531860, lon.=34.031536, Alt.=804.445801m. Speed=2.160000m/h.</desc>
<speed>0.600000</speed>
</trkpt>
<trkpt lat="44.531921" lon="34.031521">
<ele>804.867676</ele>
<time>2011-10-11T14:04:02Z</time>
<desc>lat.=44.531921, lon.=34.031521, Alt.=804.867676m. Speed=1.728000m/h.</desc>
<speed>0.480000</speed>
</trkpt>
<trkpt lat="44.531956" lon="34.031563">
<ele>806.586426</ele>
<time>2011-10-11T14:04:07Z</time>
<desc>lat.=44.531956, lon.=34.031563, Alt.=806.586426m. Speed=2.268000m/h.</desc>
<speed>0.630000</speed>
</trkpt>
<trkpt lat="44.531994" lon="34.031536">
<ele>807.961426</ele>
<time>2011-10-11T14:04:12Z</time>
<desc>lat.=44.531994, lon.=34.031536, Alt.=807.961426m. Speed=2.016000m/h.</desc>
<speed>0.560000</speed>
</trkpt>
<trkpt lat="44.532013" lon="34.031502">
<ele>809.164551</ele>
<time>2011-10-11T14:04:17Z</time>
<desc>lat.=44.532013, lon.=34.031502, Alt.=809.164551m. Speed=1.512000m/h.</desc>
<speed>0.420000</speed>
</trkpt>
<trkpt lat="44.532028" lon="34.031498">
<ele>809.633301</ele>
<time>2011-10-11T14:04:22Z</time>
<desc>lat.=44.532028, lon.=34.031498, Alt.=809.633301m. Speed=1.584000m/h.</desc>
<speed>0.440000</speed>
</trkpt>
<trkpt lat="44.532104" lon="34.031513">
<ele>810.695801</ele>
<time>2011-10-11T14:04:27Z</time>
<desc>lat.=44.532104, lon.=34.031513, Alt.=810.695801m. Speed=3.492000m/h.</desc>
<speed>0.970000</speed>
</trkpt>
<trkpt lat="44.532139" lon="34.031506">
<ele>811.508301</ele>
<time>2011-10-11T14:04:32Z</time>
<desc>lat.=44.532139, lon.=34.031506, Alt.=811.508301m. Speed=1.800000m/h.</desc>
<speed>0.500000</speed>
</trkpt>
<trkpt lat="44.532158" lon="34.031483">
<ele>812.102051</ele>
<time>2011-10-11T14:04:37Z</time>
<desc>lat.=44.532158, lon.=34.031483, Alt.=812.102051m. Speed=1.152000m/h.</desc>
<speed>0.320000</speed>
</trkpt>
<trkpt lat="44.532181" lon="34.031479">
<ele>812.461426</ele>
<time>2011-10-11T14:04:42Z</time>
<desc>lat.=44.532181, lon.=34.031479, Alt.=812.461426m. Speed=1.260000m/h.</desc>
<speed>0.350000</speed>
</trkpt>
<trkpt lat="44.532207" lon="34.031433">
<ele>812.820801</ele>
<time>2011-10-11T14:04:47Z</time>
<desc>lat.=44.532207, lon.=34.031433, Alt.=812.820801m. Speed=1.476000m/h.</desc>
<speed>0.410000</speed>
</trkpt>
<trkpt lat="44.532265" lon="34.031384">
<ele>813.133301</ele>
<time>2011-10-11T14:04:52Z</time>
<desc>lat.=44.532265, lon.=34.031384, Alt.=813.133301m. Speed=3.096000m/h.</desc>
<speed>0.860000</speed>
</trkpt>
<trkpt lat="44.532318" lon="34.031338">
<ele>813.820801</ele>
<time>2011-10-11T14:04:57Z</time>
<desc>lat.=44.532318, lon.=34.031338, Alt.=813.820801m. Speed=2.844000m/h.</desc>
<speed>0.790000</speed>
</trkpt>
<trkpt lat="44.532356" lon="34.031254">
<ele>814.523926</ele>
<time>2011-10-11T14:05:02Z</time>
<desc>lat.=44.532356, lon.=34.031254, Alt.=814.523926m. Speed=3.420000m/h.</desc>
<speed>0.950000</speed>
</trkpt>
<trkpt lat="44.532406" lon="34.031200">
<ele>815.461426</ele>
<time>2011-10-11T14:05:07Z</time>
<desc>lat.=44.532406, lon.=34.031200, Alt.=815.461426m. Speed=2.484000m/h.</desc>
<speed>0.690000</speed>
</trkpt>
<trkpt lat="44.532448" lon="34.031170">
<ele>816.539551</ele>
<time>2011-10-11T14:05:12Z</time>
<desc>lat.=44.532448, lon.=34.031170, Alt.=816.539551m. Speed=2.628000m/h.</desc>
<speed>0.730000</speed>
</trkpt>
<trkpt lat="44.532482" lon="34.031151">
<ele>817.492676</ele>
<time>2011-10-11T14:05:17Z</time>
<desc>lat.=44.532482, lon.=34.031151, Alt.=817.492676m. Speed=1.728000m/h.</desc>
<speed>0.480000</speed>
</trkpt>
<trkpt lat="44.532497" lon="34.031105">
<ele>818.617676</ele>
<time>2011-10-11T14:05:22Z</time>
<desc>lat.=44.532497, lon.=34.031105, Alt.=818.617676m. Speed=2.448000m/h.</desc>
<speed>0.680000</speed>
</trkpt>
<trkpt lat="44.532547" lon="34.031055">
<ele>819.586426</ele>
<time>2011-10-11T14:05:27Z</time>
<desc>lat.=44.532547, lon.=34.031055, Alt.=819.586426m. Speed=2.844000m/h.</desc>
<speed>0.790000</speed>
</trkpt>
<trkpt lat="44.532600" lon="34.031013">
<ele>819.852051</ele>
<time>2011-10-11T14:05:32Z</time>
<desc>lat.=44.532600, lon.=34.031013, Alt.=819.852051m. Speed=2.916000m/h.</desc>
<speed>0.810000</speed>
</trkpt>
<trkpt lat="44.532623" lon="34.030949">
<ele>819.992676</ele>
<time>2011-10-11T14:05:37Z</time>
<desc>lat.=44.532623, lon.=34.030949, Alt.=819.992676m. Speed=2.844000m/h.</desc>
<speed>0.790000</speed>
</trkpt>
<trkpt lat="44.532665" lon="34.030949">
<ele>820.680176</ele>
<time>2011-10-11T14:05:42Z</time>
<desc>lat.=44.532665, lon.=34.030949, Alt.=820.680176m. Speed=2.736000m/h.</desc>
<speed>0.760000</speed>
</trkpt>
<trkpt lat="44.532715" lon="34.030899">
<ele>821.602051</ele>
<time>2011-10-11T14:05:47Z</time>
<desc>lat.=44.532715, lon.=34.030899, Alt.=821.602051m. Speed=2.268000m/h.</desc>
<speed>0.630000</speed>
</trkpt>
<trkpt lat="44.532745" lon="34.030910">
<ele>822.898926</ele>
<time>2011-10-11T14:05:52Z</time>
<desc>lat.=44.532745, lon.=34.030910, Alt.=822.898926m. Speed=2.304000m/h.</desc>
<speed>0.640000</speed>
</trkpt>
<trkpt lat="44.532787" lon="34.030930">
<ele>824.258301</ele>
<time>2011-10-11T14:05:57Z</time>
<desc>lat.=44.532787, lon.=34.030930, Alt.=824.258301m. Speed=2.628000m/h.</desc>
<speed>0.730000</speed>
</trkpt>
<trkpt lat="44.532837" lon="34.030937">
<ele>825.898926</ele>
<time>2011-10-11T14:06:02Z</time>
<desc>lat.=44.532837, lon.=34.030937, Alt.=825.898926m. Speed=2.484000m/h.</desc>
<speed>0.690000</speed>
</trkpt>
<trkpt lat="44.532867" lon="34.030972">
<ele>826.898926</ele>
<time>2011-10-11T14:06:07Z</time>
<desc>lat.=44.532867, lon.=34.030972, Alt.=826.898926m. Speed=3.168000m/h.</desc>
<speed>0.880000</speed>
</trkpt>
<trkpt lat="44.532940" lon="34.030983">
<ele>828.086426</ele>
<time>2011-10-11T14:06:12Z</time>
<desc>lat.=44.532940, lon.=34.030983, Alt.=828.086426m. Speed=3.528000m/h.</desc>
<speed>0.980000</speed>
</trkpt>
<trkpt lat="44.532990" lon="34.030968">
<ele>829.086426</ele>
<time>2011-10-11T14:06:17Z</time>
<desc>lat.=44.532990, lon.=34.030968, Alt.=829.086426m. Speed=2.844000m/h.</desc>
<speed>0.790000</speed>
</trkpt>
<trkpt lat="44.533039" lon="34.030956">
<ele>830.227051</ele>
<time>2011-10-11T14:06:22Z</time>
<desc>lat.=44.533039, lon.=34.030956, Alt.=830.227051m. Speed=2.268000m/h.</desc>
<speed>0.630000</speed>
</trkpt>
<trkpt lat="44.533070" lon="34.030968">
<ele>831.508301</ele>
<time>2011-10-11T14:06:27Z</time>
<desc>lat.=44.533070, lon.=34.030968, Alt.=831.508301m. Speed=3.132000m/h.</desc>
<speed>0.870000</speed>
</trkpt>
<trkpt lat="44.533104" lon="34.030987">
<ele>833.367676</ele>
<time>2011-10-11T14:06:32Z</time>
<desc>lat.=44.533104, lon.=34.030987, Alt.=833.367676m. Speed=2.520000m/h.</desc>
<speed>0.700000</speed>
</trkpt>
<trkpt lat="44.533134" lon="34.030994">
<ele>834.992676</ele>
<time>2011-10-11T14:06:37Z</time>
<desc>lat.=44.533134, lon.=34.030994, Alt.=834.992676m. Speed=2.088000m/h.</desc>
<speed>0.580000</speed>
</trkpt>
<trkpt lat="44.533134" lon="34.030975">
<ele>835.211426</ele>
<time>2011-10-11T14:06:42Z</time>
<desc>lat.=44.533134, lon.=34.030975, Alt.=835.211426m. Speed=1.008000m/h.</desc>
<speed>0.280000</speed>
</trkpt>
<trkpt lat="44.533131" lon="34.030937">
<ele>835.523926</ele>
<time>2011-10-11T14:06:47Z</time>
<desc>lat.=44.533131, lon.=34.030937, Alt.=835.523926m. Speed=0.612000m/h.</desc>
<speed>0.170000</speed>
</trkpt>
<trkpt lat="44.533161" lon="34.030945">
<ele>835.805176</ele>
<time>2011-10-11T14:06:52Z</time>
<desc>lat.=44.533161, lon.=34.030945, Alt.=835.805176m. Speed=2.340000m/h.</desc>
<speed>0.650000</speed>
</trkpt>
<trkpt lat="44.533222" lon="34.030895">
<ele>837.242676</ele>
<time>2011-10-11T14:06:57Z</time>
<desc>lat.=44.533222, lon.=34.030895, Alt.=837.242676m. Speed=3.348000m/h.</desc>
<speed>0.930000</speed>
</trkpt>
<trkpt lat="44.533272" lon="34.030899">
<ele>837.789551</ele>
<time>2011-10-11T14:07:02Z</time>
<desc>lat.=44.533272, lon.=34.030899, Alt.=837.789551m. Speed=3.204000m/h.</desc>
<speed>0.890000</speed>
</trkpt>
<trkpt lat="44.533291" lon="34.030876">
<ele>838.336426</ele>
<time>2011-10-11T14:07:07Z</time>
<desc>lat.=44.533291, lon.=34.030876, Alt.=838.336426m. Speed=1.728000m/h.</desc>
<speed>0.480000</speed>
</trkpt>
<trkpt lat="44.533283" lon="34.030830">
<ele>839.117676</ele>
<time>2011-10-11T14:07:12Z</time>
<desc>lat.=44.533283, lon.=34.030830, Alt.=839.117676m. Speed=2.196000m/h.</desc>
<speed>0.610000</speed>
</trkpt>
<trkpt lat="44.533283" lon="34.030823">
<ele>838.680176</ele>
<time>2011-10-11T14:07:17Z</time>
<desc>lat.=44.533283, lon.=34.030823, Alt.=838.680176m. Speed=1.440000m/h.</desc>
<speed>0.400000</speed>
</trkpt>
<trkpt lat="44.533310" lon="34.030788">
<ele>838.305176</ele>
<time>2011-10-11T14:07:22Z</time>
<desc>lat.=44.533310, lon.=34.030788, Alt.=838.305176m. Speed=1.764000m/h.</desc>
<speed>0.490000</speed>
</trkpt>
<trkpt lat="44.533371" lon="34.030796">
<ele>839.867676</ele>
<time>2011-10-11T14:07:27Z</time>
<desc>lat.=44.533371, lon.=34.030796, Alt.=839.867676m. Speed=2.592000m/h.</desc>
<speed>0.720000</speed>
</trkpt>
<trkpt lat="44.533421" lon="34.030788">
<ele>840.664551</ele>
<time>2011-10-11T14:07:32Z</time>
<desc>lat.=44.533421, lon.=34.030788, Alt.=840.664551m. Speed=2.844000m/h.</desc>
<speed>0.790000</speed>
</trkpt>
<trkpt lat="44.533463" lon="34.030766">
<ele>841.680176</ele>
<time>2011-10-11T14:07:37Z</time>
<desc>lat.=44.533463, lon.=34.030766, Alt.=841.680176m. Speed=3.132000m/h.</desc>
<speed>0.870000</speed>
</trkpt>
<trkpt lat="44.533478" lon="34.030766">
<ele>840.602051</ele>
<time>2011-10-11T14:07:42Z</time>
<desc>lat.=44.533478, lon.=34.030766, Alt.=840.602051m. Speed=1.584000m/h.</desc>
<speed>0.440000</speed>
</trkpt>
<trkpt lat="44.533512" lon="34.030735">
<ele>841.102051</ele>
<time>2011-10-11T14:07:47Z</time>
<desc>lat.=44.533512, lon.=34.030735, Alt.=841.102051m. Speed=5.148000m/h.</desc>
<speed>1.430000</speed>
</trkpt>
<trkpt lat="44.533566" lon="34.030682">
<ele>842.648926</ele>
<time>2011-10-11T14:07:52Z</time>
<desc>lat.=44.533566, lon.=34.030682, Alt.=842.648926m. Speed=3.852000m/h.</desc>
<speed>1.070000</speed>
</trkpt>
<trkpt lat="44.533615" lon="34.030663">
<ele>843.852051</ele>
<time>2011-10-11T14:07:57Z</time>
<desc>lat.=44.533615, lon.=34.030663, Alt.=843.852051m. Speed=2.556000m/h.</desc>
<speed>0.710000</speed>
</trkpt>
<trkpt lat="44.533649" lon="34.030647">
<ele>844.570801</ele>
<time>2011-10-11T14:08:02Z</time>
<desc>lat.=44.533649, lon.=34.030647, Alt.=844.570801m. Speed=2.556000m/h.</desc>
<speed>0.710000</speed>
</trkpt>
<trkpt lat="44.533691" lon="34.030609">
<ele>845.820801</ele>
<time>2011-10-11T14:08:07Z</time>
<desc>lat.=44.533691, lon.=34.030609, Alt.=845.820801m. Speed=2.664000m/h.</desc>
<speed>0.740000</speed>
</trkpt>
<trkpt lat="44.533703" lon="34.030571">
<ele>846.258301</ele>
<time>2011-10-11T14:08:12Z</time>
<desc>lat.=44.533703, lon.=34.030571, Alt.=846.258301m. Speed=1.980000m/h.</desc>
<speed>0.550000</speed>
</trkpt>
<trkpt lat="44.533726" lon="34.030537">
<ele>846.961426</ele>
<time>2011-10-11T14:08:17Z</time>
<desc>lat.=44.533726, lon.=34.030537, Alt.=846.961426m. Speed=1.512000m/h.</desc>
<speed>0.420000</speed>
</trkpt>
<trkpt lat="44.533775" lon="34.030506">
<ele>848.289551</ele>
<time>2011-10-11T14:08:22Z</time>
<desc>lat.=44.533775, lon.=34.030506, Alt.=848.289551m. Speed=2.988000m/h.</desc>
<speed>0.830000</speed>
</trkpt>
<trkpt lat="44.533840" lon="34.030479">
<ele>849.492676</ele>
<time>2011-10-11T14:08:27Z</time>
<desc>lat.=44.533840, lon.=34.030479, Alt.=849.492676m. Speed=3.168000m/h.</desc>
<speed>0.880000</speed>
</trkpt>
<trkpt lat="44.533886" lon="34.030476">
<ele>851.102051</ele>
<time>2011-10-11T14:08:32Z</time>
<desc>lat.=44.533886, lon.=34.030476, Alt.=851.102051m. Speed=2.988000m/h.</desc>
<speed>0.830000</speed>
</trkpt>
<trkpt lat="44.533924" lon="34.030468">
<ele>851.477051</ele>
<time>2011-10-11T14:08:37Z</time>
<desc>lat.=44.533924, lon.=34.030468, Alt.=851.477051m. Speed=2.484000m/h.</desc>
<speed>0.690000</speed>
</trkpt>
<trkpt lat="44.533939" lon="34.030510">
<ele>852.336426</ele>
<time>2011-10-11T14:08:42Z</time>
<desc>lat.=44.533939, lon.=34.030510, Alt.=852.336426m. Speed=3.312000m/h.</desc>
<speed>0.920000</speed>
</trkpt>
<trkpt lat="44.533955" lon="34.030567">
<ele>853.055176</ele>
<time>2011-10-11T14:08:47Z</time>
<desc>lat.=44.533955, lon.=34.030567, Alt.=853.055176m. Speed=2.448000m/h.</desc>
<speed>0.680000</speed>
</trkpt>
<trkpt lat="44.533981" lon="34.030624">
<ele>853.805176</ele>
<time>2011-10-11T14:08:52Z</time>
<desc>lat.=44.533981, lon.=34.030624, Alt.=853.805176m. Speed=2.988000m/h.</desc>
<speed>0.830000</speed>
</trkpt>
<trkpt lat="44.534012" lon="34.030674">
<ele>854.070801</ele>
<time>2011-10-11T14:08:57Z</time>
<desc>lat.=44.534012, lon.=34.030674, Alt.=854.070801m. Speed=2.484000m/h.</desc>
<speed>0.690000</speed>
</trkpt>
<trkpt lat="44.534016" lon="34.030724">
<ele>855.133301</ele>
<time>2011-10-11T14:09:02Z</time>
<desc>lat.=44.534016, lon.=34.030724, Alt.=855.133301m. Speed=2.376000m/h.</desc>
<speed>0.660000</speed>
</trkpt>
<trkpt lat="44.534054" lon="34.030746">
<ele>856.570801</ele>
<time>2011-10-11T14:09:07Z</time>
<desc>lat.=44.534054, lon.=34.030746, Alt.=856.570801m. Speed=1.980000m/h.</desc>
<speed>0.550000</speed>
</trkpt>
<trkpt lat="44.534088" lon="34.030785">
<ele>857.289551</ele>
<time>2011-10-11T14:09:12Z</time>
<desc>lat.=44.534088, lon.=34.030785, Alt.=857.289551m. Speed=3.132000m/h.</desc>
<speed>0.870000</speed>
</trkpt>
<trkpt lat="44.534138" lon="34.030823">
<ele>858.195801</ele>
<time>2011-10-11T14:09:17Z</time>
<desc>lat.=44.534138, lon.=34.030823, Alt.=858.195801m. Speed=3.816000m/h.</desc>
<speed>1.060000</speed>
</trkpt>
<trkpt lat="44.534191" lon="34.030853">
<ele>859.086426</ele>
<time>2011-10-11T14:09:22Z</time>
<desc>lat.=44.534191, lon.=34.030853, Alt.=859.086426m. Speed=3.780000m/h.</desc>
<speed>1.050000</speed>
</trkpt>
<trkpt lat="44.534206" lon="34.030910">
<ele>860.398926</ele>
<time>2011-10-11T14:09:27Z</time>
<desc>lat.=44.534206, lon.=34.030910, Alt.=860.398926m. Speed=1.944000m/h.</desc>
<speed>0.540000</speed>
</trkpt>
<trkpt lat="44.534245" lon="34.030972">
<ele>861.180176</ele>
<time>2011-10-11T14:09:32Z</time>
<desc>lat.=44.534245, lon.=34.030972, Alt.=861.180176m. Speed=2.556000m/h.</desc>
<speed>0.710000</speed>
</trkpt>
<trkpt lat="44.534286" lon="34.031036">
<ele>861.805176</ele>
<time>2011-10-11T14:09:37Z</time>
<desc>lat.=44.534286, lon.=34.031036, Alt.=861.805176m. Speed=2.556000m/h.</desc>
<speed>0.710000</speed>
</trkpt>
<trkpt lat="44.534340" lon="34.031105">
<ele>862.789551</ele>
<time>2011-10-11T14:09:42Z</time>
<desc>lat.=44.534340, lon.=34.031105, Alt.=862.789551m. Speed=2.808000m/h.</desc>
<speed>0.780000</speed>
</trkpt>
<trkpt lat="44.534389" lon="34.031155">
<ele>863.633301</ele>
<time>2011-10-11T14:09:47Z</time>
<desc>lat.=44.534389, lon.=34.031155, Alt.=863.633301m. Speed=2.088000m/h.</desc>
<speed>0.580000</speed>
</trkpt>
<trkpt lat="44.534439" lon="34.031216">
<ele>864.898926</ele>
<time>2011-10-11T14:09:52Z</time>
<desc>lat.=44.534439, lon.=34.031216, Alt.=864.898926m. Speed=2.340000m/h.</desc>
<speed>0.650000</speed>
</trkpt>
<trkpt lat="44.534473" lon="34.031261">
<ele>866.227051</ele>
<time>2011-10-11T14:09:57Z</time>
<desc>lat.=44.534473, lon.=34.031261, Alt.=866.227051m. Speed=1.836000m/h.</desc>
<speed>0.510000</speed>
</trkpt>
<trkpt lat="44.534504" lon="34.031322">
<ele>868.023926</ele>
<time>2011-10-11T14:10:02Z</time>
<desc>lat.=44.534504, lon.=34.031322, Alt.=868.023926m. Speed=2.304000m/h.</desc>
<speed>0.640000</speed>
</trkpt>
<trkpt lat="44.534550" lon="34.031406">
<ele>869.805176</ele>
<time>2011-10-11T14:10:07Z</time>
<desc>lat.=44.534550, lon.=34.031406, Alt.=869.805176m. Speed=2.808000m/h.</desc>
<speed>0.780000</speed>
</trkpt>
<trkpt lat="44.534580" lon="34.031479">
<ele>871.289551</ele>
<time>2011-10-11T14:10:12Z</time>
<desc>lat.=44.534580, lon.=34.031479, Alt.=871.289551m. Speed=2.196000m/h.</desc>
<speed>0.610000</speed>
</trkpt>
<trkpt lat="44.534645" lon="34.031551">
<ele>873.320801</ele>
<time>2011-10-11T14:10:17Z</time>
<desc>lat.=44.534645, lon.=34.031551, Alt.=873.320801m. Speed=3.852000m/h.</desc>
<speed>1.070000</speed>
</trkpt>
<trkpt lat="44.534714" lon="34.031620">
<ele>874.898926</ele>
<time>2011-10-11T14:10:22Z</time>
<desc>lat.=44.534714, lon.=34.031620, Alt.=874.898926m. Speed=4.392000m/h.</desc>
<speed>1.220000</speed>
</trkpt>
<trkpt lat="44.534782" lon="34.031673">
<ele>875.836426</ele>
<time>2011-10-11T14:10:27Z</time>
<desc>lat.=44.534782, lon.=34.031673, Alt.=875.836426m. Speed=3.636000m/h.</desc>
<speed>1.010000</speed>
</trkpt>
<trkpt lat="44.534840" lon="34.031696">
<ele>876.852051</ele>
<time>2011-10-11T14:10:32Z</time>
<desc>lat.=44.534840, lon.=34.031696, Alt.=876.852051m. Speed=3.600000m/h.</desc>
<speed>1.000000</speed>
</trkpt>
<trkpt lat="44.534912" lon="34.031738">
<ele>877.695801</ele>
<time>2011-10-11T14:10:37Z</time>
<desc>lat.=44.534912, lon.=34.031738, Alt.=877.695801m. Speed=4.356000m/h.</desc>
<speed>1.210000</speed>
</trkpt>
<trkpt lat="44.534946" lon="34.031761">
<ele>878.570801</ele>
<time>2011-10-11T14:10:42Z</time>
<desc>lat.=44.534946, lon.=34.031761, Alt.=878.570801m. Speed=2.520000m/h.</desc>
<speed>0.700000</speed>
</trkpt>
<trkpt lat="44.534988" lon="34.031788">
<ele>879.180176</ele>
<time>2011-10-11T14:10:47Z</time>
<desc>lat.=44.534988, lon.=34.031788, Alt.=879.180176m. Speed=2.340000m/h.</desc>
<speed>0.650000</speed>
</trkpt>
<trkpt lat="44.535061" lon="34.031830">
<ele>879.414551</ele>
<time>2011-10-11T14:10:52Z</time>
<desc>lat.=44.535061, lon.=34.031830, Alt.=879.414551m. Speed=3.276000m/h.</desc>
<speed>0.910000</speed>
</trkpt>
<trkpt lat="44.535107" lon="34.031887">
<ele>880.883301</ele>
<time>2011-10-11T14:10:57Z</time>
<desc>lat.=44.535107, lon.=34.031887, Alt.=880.883301m. Speed=1.692000m/h.</desc>
<speed>0.470000</speed>
</trkpt>
<trkpt lat="44.535141" lon="34.031933">
<ele>879.492676</ele>
<time>2011-10-11T14:11:02Z</time>
<desc>lat.=44.535141, lon.=34.031933, Alt.=879.492676m. Speed=1.908000m/h.</desc>
<speed>0.530000</speed>
</trkpt>
<trkpt lat="44.535172" lon="34.031918">
<ele>878.023926</ele>
<time>2011-10-11T14:11:07Z</time>
<desc>lat.=44.535172, lon.=34.031918, Alt.=878.023926m. Speed=2.268000m/h.</desc>
<speed>0.630000</speed>
</trkpt>
<trkpt lat="44.535213" lon="34.031918">
<ele>877.070801</ele>
<time>2011-10-11T14:11:12Z</time>
<desc>lat.=44.535213, lon.=34.031918, Alt.=877.070801m. Speed=2.412000m/h.</desc>
<speed>0.670000</speed>
</trkpt>
<trkpt lat="44.535259" lon="34.031918">
<ele>875.867676</ele>
<time>2011-10-11T14:11:17Z</time>
<desc>lat.=44.535259, lon.=34.031918, Alt.=875.867676m. Speed=2.268000m/h.</desc>
<speed>0.630000</speed>
</trkpt>
<trkpt lat="44.535324" lon="34.031921">
<ele>875.789551</ele>
<time>2011-10-11T14:11:22Z</time>
<desc>lat.=44.535324, lon.=34.031921, Alt.=875.789551m. Speed=2.124000m/h.</desc>
<speed>0.590000</speed>
</trkpt>
<trkpt lat="44.535374" lon="34.031933">
<ele>875.867676</ele>
<time>2011-10-11T14:11:27Z</time>
<desc>lat.=44.535374, lon.=34.031933, Alt.=875.867676m. Speed=2.844000m/h.</desc>
<speed>0.790000</speed>
</trkpt>
<trkpt lat="44.535431" lon="34.031906">
<ele>875.070801</ele>
<time>2011-10-11T14:11:32Z</time>
<desc>lat.=44.535431, lon.=34.031906, Alt.=875.070801m. Speed=4.788000m/h.</desc>
<speed>1.330000</speed>
</trkpt>
<trkpt lat="44.535484" lon="34.031918">
<ele>873.070801</ele>
<time>2011-10-11T14:11:37Z</time>
<desc>lat.=44.535484, lon.=34.031918, Alt.=873.070801m. Speed=2.376000m/h.</desc>
<speed>0.660000</speed>
</trkpt>
<trkpt lat="44.535534" lon="34.031925">
<ele>870.852051</ele>
<time>2011-10-11T14:11:42Z</time>
<desc>lat.=44.535534, lon.=34.031925, Alt.=870.852051m. Speed=2.484000m/h.</desc>
<speed>0.690000</speed>
</trkpt>
<trkpt lat="44.535557" lon="34.031918">
<ele>869.211426</ele>
<time>2011-10-11T14:11:47Z</time>
<desc>lat.=44.535557, lon.=34.031918, Alt.=869.211426m. Speed=1.512000m/h.</desc>
<speed>0.420000</speed>
</trkpt>
<trkpt lat="44.535576" lon="34.031898">
<ele>868.727051</ele>
<time>2011-10-11T14:11:52Z</time>
<desc>lat.=44.535576, lon.=34.031898, Alt.=868.727051m. Speed=2.520000m/h.</desc>
<speed>0.700000</speed>
</trkpt>
<trkpt lat="44.535622" lon="34.031860">
<ele>868.961426</ele>
<time>2011-10-11T14:11:57Z</time>
<desc>lat.=44.535622, lon.=34.031860, Alt.=868.961426m. Speed=2.700000m/h.</desc>
<speed>0.750000</speed>
</trkpt>
<trkpt lat="44.535641" lon="34.031837">
<ele>867.117676</ele>
<time>2011-10-11T14:12:02Z</time>
<desc>lat.=44.535641, lon.=34.031837, Alt.=867.117676m. Speed=2.160000m/h.</desc>
<speed>0.600000</speed>
</trkpt>
<trkpt lat="44.535664" lon="34.031803">
<ele>865.195801</ele>
<time>2011-10-11T14:12:07Z</time>
<desc>lat.=44.535664, lon.=34.031803, Alt.=865.195801m. Speed=1.836000m/h.</desc>
<speed>0.510000</speed>
</trkpt>
<trkpt lat="44.535698" lon="34.031731">
<ele>863.586426</ele>
<time>2011-10-11T14:12:12Z</time>
<desc>lat.=44.535698, lon.=34.031731, Alt.=863.586426m. Speed=2.844000m/h.</desc>
<speed>0.790000</speed>
</trkpt>
<trkpt lat="44.535736" lon="34.031677">
<ele>862.648926</ele>
<time>2011-10-11T14:12:17Z</time>
<desc>lat.=44.535736, lon.=34.031677, Alt.=862.648926m. Speed=2.340000m/h.</desc>
<speed>0.650000</speed>
</trkpt>
<trkpt lat="44.535767" lon="34.031647">
<ele>862.648926</ele>
<time>2011-10-11T14:12:22Z</time>
<desc>lat.=44.535767, lon.=34.031647, Alt.=862.648926m. Speed=2.520000m/h.</desc>
<speed>0.700000</speed>
</trkpt>
<trkpt lat="44.535820" lon="34.031601">
<ele>861.070801</ele>
<time>2011-10-11T14:12:27Z</time>
<desc>lat.=44.535820, lon.=34.031601, Alt.=861.070801m. Speed=2.484000m/h.</desc>
<speed>0.690000</speed>
</trkpt>
<trkpt lat="44.535877" lon="34.031540">
<ele>859.602051</ele>
<time>2011-10-11T14:12:32Z</time>
<desc>lat.=44.535877, lon.=34.031540, Alt.=859.602051m. Speed=2.160000m/h.</desc>
<speed>0.600000</speed>
</trkpt>
<trkpt lat="44.535908" lon="34.031521">
<ele>858.039551</ele>
<time>2011-10-11T14:12:37Z</time>
<desc>lat.=44.535908, lon.=34.031521, Alt.=858.039551m. Speed=1.620000m/h.</desc>
<speed>0.450000</speed>
</trkpt>
<trkpt lat="44.535912" lon="34.031483">
<ele>857.430176</ele>
<time>2011-10-11T14:12:42Z</time>
<desc>lat.=44.535912, lon.=34.031483, Alt.=857.430176m. Speed=2.160000m/h.</desc>
<speed>0.600000</speed>
</trkpt>
<trkpt lat="44.535919" lon="34.031460">
<ele>856.914551</ele>
<time>2011-10-11T14:12:47Z</time>
<desc>lat.=44.535919, lon.=34.031460, Alt.=856.914551m. Speed=1.476000m/h.</desc>
<speed>0.410000</speed>
</trkpt>
<trkpt lat="44.535915" lon="34.031391">
<ele>855.852051</ele>
<time>2011-10-11T14:12:52Z</time>
<desc>lat.=44.535915, lon.=34.031391, Alt.=855.852051m. Speed=2.304000m/h.</desc>
<speed>0.640000</speed>
</trkpt>
<trkpt lat="44.535915" lon="34.031361">
<ele>853.070801</ele>
<time>2011-10-11T14:12:57Z</time>
<desc>lat.=44.535915, lon.=34.031361, Alt.=853.070801m. Speed=1.548000m/h.</desc>
<speed>0.430000</speed>
</trkpt>
<trkpt lat="44.535927" lon="34.031303">
<ele>851.039551</ele>
<time>2011-10-11T14:13:02Z</time>
<desc>lat.=44.535927, lon.=34.031303, Alt.=851.039551m. Speed=2.196000m/h.</desc>
<speed>0.610000</speed>
</trkpt>
<trkpt lat="44.535931" lon="34.031254">
<ele>850.164551</ele>
<time>2011-10-11T14:13:07Z</time>
<desc>lat.=44.535931, lon.=34.031254, Alt.=850.164551m. Speed=2.376000m/h.</desc>
<speed>0.660000</speed>
</trkpt>
<trkpt lat="44.535934" lon="34.031204">
<ele>849.133301</ele>
<time>2011-10-11T14:13:12Z</time>
<desc>lat.=44.535934, lon.=34.031204, Alt.=849.133301m. Speed=1.800000m/h.</desc>
<speed>0.500000</speed>
</trkpt>
<trkpt lat="44.535961" lon="34.031151">
<ele>847.789551</ele>
<time>2011-10-11T14:13:17Z</time>
<desc>lat.=44.535961, lon.=34.031151, Alt.=847.789551m. Speed=1.080000m/h.</desc>
<speed>0.300000</speed>
</trkpt>
<trkpt lat="44.535957" lon="34.031105">
<ele>846.758301</ele>
<time>2011-10-11T14:13:22Z</time>
<desc>lat.=44.535957, lon.=34.031105, Alt.=846.758301m. Speed=2.232000m/h.</desc>
<speed>0.620000</speed>
</trkpt>
<trkpt lat="44.535954" lon="34.031044">
<ele>844.805176</ele>
<time>2011-10-11T14:13:27Z</time>
<desc>lat.=44.535954, lon.=34.031044, Alt.=844.805176m. Speed=1.620000m/h.</desc>
<speed>0.450000</speed>
</trkpt>
<trkpt lat="44.535969" lon="34.031036">
<ele>843.602051</ele>
<time>2011-10-11T14:13:32Z</time>
<desc>lat.=44.535969, lon.=34.031036, Alt.=843.602051m. Speed=2.124000m/h.</desc>
<speed>0.590000</speed>
</trkpt>
<trkpt lat="44.535965" lon="34.030972">
<ele>841.773926</ele>
<time>2011-10-11T14:13:37Z</time>
<desc>lat.=44.535965, lon.=34.030972, Alt.=841.773926m. Speed=1.512000m/h.</desc>
<speed>0.420000</speed>
</trkpt>
<trkpt lat="44.535954" lon="34.031006">
<ele>840.508301</ele>
<time>2011-10-11T14:13:42Z</time>
<desc>lat.=44.535954, lon.=34.031006, Alt.=840.508301m. Speed=0.612000m/h.</desc>
<speed>0.170000</speed>
</trkpt>
<trkpt lat="44.535969" lon="34.030979">
<ele>839.727051</ele>
<time>2011-10-11T14:13:47Z</time>
<desc>lat.=44.535969, lon.=34.030979, Alt.=839.727051m. Speed=2.268000m/h.</desc>
<speed>0.630000</speed>
</trkpt>
<trkpt lat="44.535976" lon="34.030941">
<ele>838.164551</ele>
<time>2011-10-11T14:13:52Z</time>
<desc>lat.=44.535976, lon.=34.030941, Alt.=838.164551m. Speed=1.440000m/h.</desc>
<speed>0.400000</speed>
</trkpt>
<trkpt lat="44.535973" lon="34.030952">
<ele>836.664551</ele>
<time>2011-10-11T14:13:57Z</time>
<desc>lat.=44.535973, lon.=34.030952, Alt.=836.664551m. Speed=0.432000m/h.</desc>
<speed>0.120000</speed>
</trkpt>
<trkpt lat="44.535973" lon="34.030922">
<ele>836.242676</ele>
<time>2011-10-11T14:14:02Z</time>
<desc>lat.=44.535973, lon.=34.030922, Alt.=836.242676m. Speed=1.332000m/h.</desc>
<speed>0.370000</speed>
</trkpt>
<trkpt lat="44.536007" lon="34.030910">
<ele>835.992676</ele>
<time>2011-10-11T14:14:07Z</time>
<desc>lat.=44.536007, lon.=34.030910, Alt.=835.992676m. Speed=1.008000m/h.</desc>
<speed>0.280000</speed>
</trkpt>
<trkpt lat="44.536011" lon="34.030907">
<ele>835.945801</ele>
<time>2011-10-11T14:14:12Z</time>
<desc>lat.=44.536011, lon.=34.030907, Alt.=835.945801m. Speed=0.792000m/h.</desc>
<speed>0.220000</speed>
</trkpt>
<trkpt lat="44.536037" lon="34.030930">
<ele>834.867676</ele>
<time>2011-10-11T14:14:17Z</time>
<desc>lat.=44.536037, lon.=34.030930, Alt.=834.867676m. Speed=1.908000m/h.</desc>
<speed>0.530000</speed>
</trkpt>
<trkpt lat="44.536053" lon="34.030941">
<ele>833.336426</ele>
<time>2011-10-11T14:14:22Z</time>
<desc>lat.=44.536053, lon.=34.030941, Alt.=833.336426m. Speed=1.476000m/h.</desc>
<speed>0.410000</speed>
</trkpt>
<trkpt lat="44.536083" lon="34.030910">
<ele>831.445801</ele>
<time>2011-10-11T14:14:27Z</time>
<desc>lat.=44.536083, lon.=34.030910, Alt.=831.445801m. Speed=1.008000m/h.</desc>
<speed>0.280000</speed>
</trkpt>
<trkpt lat="44.536102" lon="34.030895">
<ele>831.320801</ele>
<time>2011-10-11T14:14:32Z</time>
<desc>lat.=44.536102, lon.=34.030895, Alt.=831.320801m. Speed=1.188000m/h.</desc>
<speed>0.330000</speed>
</trkpt>
<trkpt lat="44.536102" lon="34.030869">
<ele>830.211426</ele>
<time>2011-10-11T14:14:37Z</time>
<desc>lat.=44.536102, lon.=34.030869, Alt.=830.211426m. Speed=1.008000m/h.</desc>
<speed>0.280000</speed>
</trkpt>
<trkpt lat="44.536106" lon="34.030857">
<ele>830.055176</ele>
<time>2011-10-11T14:14:42Z</time>
<desc>lat.=44.536106, lon.=34.030857, Alt.=830.055176m. Speed=0.576000m/h.</desc>
<speed>0.160000</speed>
</trkpt>
<trkpt lat="44.536118" lon="34.030807">
<ele>829.523926</ele>
<time>2011-10-11T14:14:47Z</time>
<desc>lat.=44.536118, lon.=34.030807, Alt.=829.523926m. Speed=3.852000m/h.</desc>
<speed>1.070000</speed>
</trkpt>
<trkpt lat="44.536140" lon="34.030762">
<ele>829.117676</ele>
<time>2011-10-11T14:14:52Z</time>
<desc>lat.=44.536140, lon.=34.030762, Alt.=829.117676m. Speed=2.232000m/h.</desc>
<speed>0.620000</speed>
</trkpt>
<trkpt lat="44.536125" lon="34.030724">
<ele>828.961426</ele>
<time>2011-10-11T14:14:57Z</time>
<desc>lat.=44.536125, lon.=34.030724, Alt.=828.961426m. Speed=1.980000m/h.</desc>
<speed>0.550000</speed>
</trkpt>
<trkpt lat="44.536110" lon="34.030689">
<ele>828.492676</ele>
<time>2011-10-11T14:15:02Z</time>
<desc>lat.=44.536110, lon.=34.030689, Alt.=828.492676m. Speed=1.620000m/h.</desc>
<speed>0.450000</speed>
</trkpt>
<trkpt lat="44.536125" lon="34.030666">
<ele>828.086426</ele>
<time>2011-10-11T14:15:07Z</time>
<desc>lat.=44.536125, lon.=34.030666, Alt.=828.086426m. Speed=1.980000m/h.</desc>
<speed>0.550000</speed>
</trkpt>
<trkpt lat="44.536179" lon="34.030617">
<ele>827.617676</ele>
<time>2011-10-11T14:15:12Z</time>
<desc>lat.=44.536179, lon.=34.030617, Alt.=827.617676m. Speed=3.420000m/h.</desc>
<speed>0.950000</speed>
</trkpt>
<trkpt lat="44.536217" lon="34.030575">
<ele>827.211426</ele>
<time>2011-10-11T14:15:17Z</time>
<desc>lat.=44.536217, lon.=34.030575, Alt.=827.211426m. Speed=3.456000m/h.</desc>
<speed>0.960000</speed>
</trkpt>
<trkpt lat="44.536240" lon="34.030552">
<ele>826.586426</ele>
<time>2011-10-11T14:15:22Z</time>
<desc>lat.=44.536240, lon.=34.030552, Alt.=826.586426m. Speed=1.800000m/h.</desc>
<speed>0.500000</speed>
</trkpt>
<trkpt lat="44.536274" lon="34.030537">
<ele>825.586426</ele>
<time>2011-10-11T14:15:27Z</time>
<desc>lat.=44.536274, lon.=34.030537, Alt.=825.586426m. Speed=2.016000m/h.</desc>
<speed>0.560000</speed>
</trkpt>
<trkpt lat="44.536346" lon="34.030476">
<ele>824.695801</ele>
<time>2011-10-11T14:15:32Z</time>
<desc>lat.=44.536346, lon.=34.030476, Alt.=824.695801m. Speed=3.240000m/h.</desc>
<speed>0.900000</speed>
</trkpt>
<trkpt lat="44.536400" lon="34.030476">
<ele>824.258301</ele>
<time>2011-10-11T14:15:37Z</time>
<desc>lat.=44.536400, lon.=34.030476, Alt.=824.258301m. Speed=2.916000m/h.</desc>
<speed>0.810000</speed>
</trkpt>
<trkpt lat="44.536427" lon="34.030476">
<ele>823.930176</ele>
<time>2011-10-11T14:15:42Z</time>
<desc>lat.=44.536427, lon.=34.030476, Alt.=823.930176m. Speed=1.908000m/h.</desc>
<speed>0.530000</speed>
</trkpt>
<trkpt lat="44.536446" lon="34.030460">
<ele>823.445801</ele>
<time>2011-10-11T14:15:47Z</time>
<desc>lat.=44.536446, lon.=34.030460, Alt.=823.445801m. Speed=2.376000m/h.</desc>
<speed>0.660000</speed>
</trkpt>
<trkpt lat="44.536480" lon="34.030434">
<ele>823.445801</ele>
<time>2011-10-11T14:15:52Z</time>
<desc>lat.=44.536480, lon.=34.030434, Alt.=823.445801m. Speed=2.520000m/h.</desc>
<speed>0.700000</speed>
</trkpt>
<trkpt lat="44.536499" lon="34.030403">
<ele>823.273926</ele>
<time>2011-10-11T14:15:57Z</time>
<desc>lat.=44.536499, lon.=34.030403, Alt.=823.273926m. Speed=1.620000m/h.</desc>
<speed>0.450000</speed>
</trkpt>
<trkpt lat="44.536526" lon="34.030396">
<ele>822.586426</ele>
<time>2011-10-11T14:16:02Z</time>
<desc>lat.=44.536526, lon.=34.030396, Alt.=822.586426m. Speed=2.088000m/h.</desc>
<speed>0.580000</speed>
</trkpt>
<trkpt lat="44.536564" lon="34.030369">
<ele>821.883301</ele>
<time>2011-10-11T14:16:07Z</time>
<desc>lat.=44.536564, lon.=34.030369, Alt.=821.883301m. Speed=1.908000m/h.</desc>
<speed>0.530000</speed>
</trkpt>
<trkpt lat="44.536621" lon="34.030327">
<ele>820.898926</ele>
<time>2011-10-11T14:16:12Z</time>
<desc>lat.=44.536621, lon.=34.030327, Alt.=820.898926m. Speed=3.060000m/h.</desc>
<speed>0.850000</speed>
</trkpt>
<trkpt lat="44.536686" lon="34.030308">
<ele>819.242676</ele>
<time>2011-10-11T14:16:17Z</time>
<desc>lat.=44.536686, lon.=34.030308, Alt.=819.242676m. Speed=3.492000m/h.</desc>
<speed>0.970000</speed>
</trkpt>
<trkpt lat="44.536732" lon="34.030231">
<ele>818.039551</ele>
<time>2011-10-11T14:16:22Z</time>
<desc>lat.=44.536732, lon.=34.030231, Alt.=818.039551m. Speed=3.132000m/h.</desc>
<speed>0.870000</speed>
</trkpt>
<trkpt lat="44.536777" lon="34.030182">
<ele>817.695801</ele>
<time>2011-10-11T14:16:27Z</time>
<desc>lat.=44.536777, lon.=34.030182, Alt.=817.695801m. Speed=3.708000m/h.</desc>
<speed>1.030000</speed>
</trkpt>
<trkpt lat="44.536819" lon="34.030148">
<ele>817.445801</ele>
<time>2011-10-11T14:16:32Z</time>
<desc>lat.=44.536819, lon.=34.030148, Alt.=817.445801m. Speed=3.276000m/h.</desc>
<speed>0.910000</speed>
</trkpt>
<trkpt lat="44.536858" lon="34.030136">
<ele>817.008301</ele>
<time>2011-10-11T14:16:37Z</time>
<desc>lat.=44.536858, lon.=34.030136, Alt.=817.008301m. Speed=2.520000m/h.</desc>
<speed>0.700000</speed>
</trkpt>
<trkpt lat="44.536945" lon="34.030087">
<ele>816.320801</ele>
<time>2011-10-11T14:16:42Z</time>
<desc>lat.=44.536945, lon.=34.030087, Alt.=816.320801m. Speed=3.852000m/h.</desc>
<speed>1.070000</speed>
</trkpt>
<trkpt lat="44.537006" lon="34.030079">
<ele>815.695801</ele>
<time>2011-10-11T14:16:47Z</time>
<desc>lat.=44.537006, lon.=34.030079, Alt.=815.695801m. Speed=4.608000m/h.</desc>
<speed>1.280000</speed>
</trkpt>
<trkpt lat="44.537060" lon="34.030071">
<ele>815.289551</ele>
<time>2011-10-11T14:16:52Z</time>
<desc>lat.=44.537060, lon.=34.030071, Alt.=815.289551m. Speed=3.204000m/h.</desc>
<speed>0.890000</speed>
</trkpt>
<trkpt lat="44.537106" lon="34.030079">
<ele>814.602051</ele>
<time>2011-10-11T14:16:57Z</time>
<desc>lat.=44.537106, lon.=34.030079, Alt.=814.602051m. Speed=2.664000m/h.</desc>
<speed>0.740000</speed>
</trkpt>
<trkpt lat="44.537151" lon="34.030071">
<ele>813.555176</ele>
<time>2011-10-11T14:17:02Z</time>
<desc>lat.=44.537151, lon.=34.030071, Alt.=813.555176m. Speed=2.484000m/h.</desc>
<speed>0.690000</speed>
</trkpt>
<trkpt lat="44.537197" lon="34.030041">
<ele>812.164551</ele>
<time>2011-10-11T14:17:07Z</time>
<desc>lat.=44.537197, lon.=34.030041, Alt.=812.164551m. Speed=2.808000m/h.</desc>
<speed>0.780000</speed>
</trkpt>
<trkpt lat="44.537235" lon="34.030048">
<ele>810.102051</ele>
<time>2011-10-11T14:17:12Z</time>
<desc>lat.=44.537235, lon.=34.030048, Alt.=810.102051m. Speed=1.836000m/h.</desc>
<speed>0.510000</speed>
</trkpt>
<trkpt lat="44.537258" lon="34.030022">
<ele>808.055176</ele>
<time>2011-10-11T14:17:17Z</time>
<desc>lat.=44.537258, lon.=34.030022, Alt.=808.055176m. Speed=2.340000m/h.</desc>
<speed>0.650000</speed>
</trkpt>
<trkpt lat="44.537323" lon="34.029934">
<ele>805.383301</ele>
<time>2011-10-11T14:17:22Z</time>
<desc>lat.=44.537323, lon.=34.029934, Alt.=805.383301m. Speed=3.708000m/h.</desc>
<speed>1.030000</speed>
</trkpt>
<trkpt lat="44.537357" lon="34.029915">
<ele>803.945801</ele>
<time>2011-10-11T14:17:27Z</time>
<desc>lat.=44.537357, lon.=34.029915, Alt.=803.945801m. Speed=2.412000m/h.</desc>
<speed>0.670000</speed>
</trkpt>
<trkpt lat="44.537365" lon="34.029877">
<ele>803.164551</ele>
<time>2011-10-11T14:17:32Z</time>
<desc>lat.=44.537365, lon.=34.029877, Alt.=803.164551m. Speed=1.944000m/h.</desc>
<speed>0.540000</speed>
</trkpt>
<trkpt lat="44.537407" lon="34.029865">
<ele>802.305176</ele>
<time>2011-10-11T14:17:37Z</time>
<desc>lat.=44.537407, lon.=34.029865, Alt.=802.305176m. Speed=3.348000m/h.</desc>
<speed>0.930000</speed>
</trkpt>
<trkpt lat="44.537449" lon="34.029804">
<ele>800.977051</ele>
<time>2011-10-11T14:17:42Z</time>
<desc>lat.=44.537449, lon.=34.029804, Alt.=800.977051m. Speed=2.916000m/h.</desc>
<speed>0.810000</speed>
</trkpt>
<trkpt lat="44.537502" lon="34.029797">
<ele>799.773926</ele>
<time>2011-10-11T14:17:47Z</time>
<desc>lat.=44.537502, lon.=34.029797, Alt.=799.773926m. Speed=3.240000m/h.</desc>
<speed>0.900000</speed>
</trkpt>
<trkpt lat="44.537544" lon="34.029854">
<ele>798.289551</ele>
<time>2011-10-11T14:17:52Z</time>
<desc>lat.=44.537544, lon.=34.029854, Alt.=798.289551m. Speed=2.124000m/h.</desc>
<speed>0.590000</speed>
</trkpt>
<trkpt lat="44.537617" lon="34.029896">
<ele>795.258301</ele>
<time>2011-10-11T14:17:57Z</time>
<desc>lat.=44.537617, lon.=34.029896, Alt.=795.258301m. Speed=2.520000m/h.</desc>
<speed>0.700000</speed>
</trkpt>
<trkpt lat="44.537685" lon="34.029835">
<ele>793.477051</ele>
<time>2011-10-11T14:18:02Z</time>
<desc>lat.=44.537685, lon.=34.029835, Alt.=793.477051m. Speed=3.744000m/h.</desc>
<speed>1.040000</speed>
</trkpt>
<trkpt lat="44.537685" lon="34.029751">
<ele>790.805176</ele>
<time>2011-10-11T14:18:07Z</time>
<desc>lat.=44.537685, lon.=34.029751, Alt.=790.805176m. Speed=3.816000m/h.</desc>
<speed>1.060000</speed>
</trkpt>
<trkpt lat="44.537693" lon="34.029675">
<ele>787.805176</ele>
<time>2011-10-11T14:18:12Z</time>
<desc>lat.=44.537693, lon.=34.029675, Alt.=787.805176m. Speed=3.348000m/h.</desc>
<speed>0.930000</speed>
</trkpt>
<trkpt lat="44.537689" lon="34.029579">
<ele>785.195801</ele>
<time>2011-10-11T14:18:17Z</time>
<desc>lat.=44.537689, lon.=34.029579, Alt.=785.195801m. Speed=5.940000m/h.</desc>
<speed>1.650000</speed>
</trkpt>
<trkpt lat="44.537682" lon="34.029457">
<ele>784.680176</ele>
<time>2011-10-11T14:18:22Z</time>
<desc>lat.=44.537682, lon.=34.029457, Alt.=784.680176m. Speed=6.444000m/h.</desc>
<speed>1.790000</speed>
</trkpt>
<trkpt lat="44.537685" lon="34.029392">
<ele>780.398926</ele>
<time>2011-10-11T14:18:27Z</time>
<desc>lat.=44.537685, lon.=34.029392, Alt.=780.398926m. Speed=2.988000m/h.</desc>
<speed>0.830000</speed>
</trkpt>
<trkpt lat="44.537727" lon="34.029358">
<ele>775.211426</ele>
<time>2011-10-11T14:18:32Z</time>
<desc>lat.=44.537727, lon.=34.029358, Alt.=775.211426m. Speed=3.132000m/h.</desc>
<speed>0.870000</speed>
</trkpt>
<trkpt lat="44.537727" lon="34.029316">
<ele>773.289551</ele>
<time>2011-10-11T14:18:37Z</time>
<desc>lat.=44.537727, lon.=34.029316, Alt.=773.289551m. Speed=0.864000m/h.</desc>
<speed>0.240000</speed>
</trkpt>
<trkpt lat="44.537724" lon="34.029316">
<ele>772.992676</ele>
<time>2011-10-11T14:18:42Z</time>
<desc>lat.=44.537724, lon.=34.029316, Alt.=772.992676m. Speed=0.756000m/h.</desc>
<speed>0.210000</speed>
</trkpt>
<trkpt lat="44.537716" lon="34.029289">
<ele>772.914551</ele>
<time>2011-10-11T14:18:47Z</time>
<desc>lat.=44.537716, lon.=34.029289, Alt.=772.914551m. Speed=1.440000m/h.</desc>
<speed>0.400000</speed>
</trkpt>
<trkpt lat="44.537708" lon="34.029251">
<ele>771.898926</ele>
<time>2011-10-11T14:18:52Z</time>
<desc>lat.=44.537708, lon.=34.029251, Alt.=771.898926m. Speed=2.268000m/h.</desc>
<speed>0.630000</speed>
</trkpt>
<trkpt lat="44.537731" lon="34.029224">
<ele>771.695801</ele>
<time>2011-10-11T14:18:57Z</time>
<desc>lat.=44.537731, lon.=34.029224, Alt.=771.695801m. Speed=3.024000m/h.</desc>
<speed>0.840000</speed>
</trkpt>
<trkpt lat="44.537701" lon="34.029064">
<ele>770.430176</ele>
<time>2011-10-11T14:19:02Z</time>
<desc>lat.=44.537701, lon.=34.029064, Alt.=770.430176m. Speed=6.444000m/h.</desc>
<speed>1.790000</speed>
</trkpt>
<trkpt lat="44.537727" lon="34.028915">
<ele>768.570801</ele>
<time>2011-10-11T14:19:07Z</time>
<desc>lat.=44.537727, lon.=34.028915, Alt.=768.570801m. Speed=7.776000m/h.</desc>
<speed>2.160000</speed>
</trkpt>
<trkpt lat="44.537746" lon="34.028824">
<ele>766.992676</ele>
<time>2011-10-11T14:19:12Z</time>
<desc>lat.=44.537746, lon.=34.028824, Alt.=766.992676m. Speed=3.024000m/h.</desc>
<speed>0.840000</speed>
</trkpt>
<trkpt lat="44.537758" lon="34.028740">
<ele>764.648926</ele>
<time>2011-10-11T14:19:17Z</time>
<desc>lat.=44.537758, lon.=34.028740, Alt.=764.648926m. Speed=5.328000m/h.</desc>
<speed>1.480000</speed>
</trkpt>
<trkpt lat="44.537754" lon="34.028648">
<ele>760.508301</ele>
<time>2011-10-11T14:19:22Z</time>
<desc>lat.=44.537754, lon.=34.028648, Alt.=760.508301m. Speed=5.652000m/h.</desc>
<speed>1.570000</speed>
</trkpt>
<trkpt lat="44.537739" lon="34.028572">
<ele>758.398926</ele>
<time>2011-10-11T14:19:27Z</time>
<desc>lat.=44.537739, lon.=34.028572, Alt.=758.398926m. Speed=6.012000m/h.</desc>
<speed>1.670000</speed>
</trkpt>
<trkpt lat="44.537689" lon="34.028519">
<ele>756.805176</ele>
<time>2011-10-11T14:19:32Z</time>
<desc>lat.=44.537689, lon.=34.028519, Alt.=756.805176m. Speed=2.412000m/h.</desc>
<speed>0.670000</speed>
</trkpt>
<trkpt lat="44.537701" lon="34.028477">
<ele>755.273926</ele>
<time>2011-10-11T14:19:37Z</time>
<desc>lat.=44.537701, lon.=34.028477, Alt.=755.273926m. Speed=1.476000m/h.</desc>
<speed>0.410000</speed>
</trkpt>
<trkpt lat="44.537716" lon="34.028431">
<ele>755.523926</ele>
<time>2011-10-11T14:19:42Z</time>
<desc>lat.=44.537716, lon.=34.028431, Alt.=755.523926m. Speed=0.252000m/h.</desc>
<speed>0.070000</speed>
</trkpt>
<trkpt lat="44.537712" lon="34.028435">
<ele>755.430176</ele>
<time>2011-10-11T14:19:47Z</time>
<desc>lat.=44.537712, lon.=34.028435, Alt.=755.430176m. Speed=0.684000m/h.</desc>
<speed>0.190000</speed>
</trkpt>
<trkpt lat="44.537704" lon="34.028435">
<ele>755.430176</ele>
<time>2011-10-11T14:19:52Z</time>
<desc>lat.=44.537704, lon.=34.028435, Alt.=755.430176m. Speed=0.648000m/h.</desc>
<speed>0.180000</speed>
</trkpt>
<trkpt lat="44.537697" lon="34.028435">
<ele>755.414551</ele>
<time>2011-10-11T14:19:57Z</time>
<desc>lat.=44.537697, lon.=34.028435, Alt.=755.414551m. Speed=0.576000m/h.</desc>
<speed>0.160000</speed>
</trkpt>
<trkpt lat="44.537689" lon="34.028435">
<ele>755.367676</ele>
<time>2011-10-11T14:20:02Z</time>
<desc>lat.=44.537689, lon.=34.028435, Alt.=755.367676m. Speed=0.324000m/h.</desc>
<speed>0.090000</speed>
</trkpt>
<trkpt lat="44.537685" lon="34.028435">
<ele>755.383301</ele>
<time>2011-10-11T14:20:07Z</time>
<desc>lat.=44.537685, lon.=34.028435, Alt.=755.383301m. Speed=0.216000m/h.</desc>
<speed>0.060000</speed>
</trkpt>
<trkpt lat="44.537685" lon="34.028431">
<ele>755.414551</ele>
<time>2011-10-11T14:20:12Z</time>
<desc>lat.=44.537685, lon.=34.028431, Alt.=755.414551m. Speed=0.648000m/h.</desc>
<speed>0.180000</speed>
</trkpt>
<trkpt lat="44.537693" lon="34.028431">
<ele>755.383301</ele>
<time>2011-10-11T14:20:17Z</time>
<desc>lat.=44.537693, lon.=34.028431, Alt.=755.383301m. Speed=0.360000m/h.</desc>
<speed>0.100000</speed>
</trkpt>
<trkpt lat="44.537693" lon="34.028427">
<ele>755.352051</ele>
<time>2011-10-11T14:20:22Z</time>
<desc>lat.=44.537693, lon.=34.028427, Alt.=755.352051m. Speed=0.612000m/h.</desc>
<speed>0.170000</speed>
</trkpt>
<trkpt lat="44.537697" lon="34.028423">
<ele>755.336426</ele>
<time>2011-10-11T14:20:27Z</time>
<desc>lat.=44.537697, lon.=34.028423, Alt.=755.336426m. Speed=0.180000m/h.</desc>
<speed>0.050000</speed>
</trkpt>
<trkpt lat="44.537693" lon="34.028419">
<ele>755.336426</ele>
<time>2011-10-11T14:20:32Z</time>
<desc>lat.=44.537693, lon.=34.028419, Alt.=755.336426m. Speed=0.504000m/h.</desc>
<speed>0.140000</speed>
</trkpt>
<trkpt lat="44.537689" lon="34.028412">
<ele>755.352051</ele>
<time>2011-10-11T14:20:37Z</time>
<desc>lat.=44.537689, lon.=34.028412, Alt.=755.352051m. Speed=0.432000m/h.</desc>
<speed>0.120000</speed>
</trkpt>
<trkpt lat="44.537689" lon="34.028408">
<ele>755.320801</ele>
<time>2011-10-11T14:20:42Z</time>
<desc>lat.=44.537689, lon.=34.028408, Alt.=755.320801m. Speed=0.468000m/h.</desc>
<speed>0.130000</speed>
</trkpt>
<trkpt lat="44.537685" lon="34.028412">
<ele>755.570801</ele>
<time>2011-10-11T14:20:47Z</time>
<desc>lat.=44.537685, lon.=34.028412, Alt.=755.570801m. Speed=0.396000m/h.</desc>
<speed>0.110000</speed>
</trkpt>
<trkpt lat="44.537697" lon="34.028423">
<ele>755.227051</ele>
<time>2011-10-11T14:20:52Z</time>
<desc>lat.=44.537697, lon.=34.028423, Alt.=755.227051m. Speed=0.108000m/h.</desc>
<speed>0.030000</speed>
</trkpt>
<trkpt lat="44.537697" lon="34.028423">
<ele>755.273926</ele>
<time>2011-10-11T14:20:57Z</time>
<desc>lat.=44.537697, lon.=34.028423, Alt.=755.273926m. Speed=0.540000m/h.</desc>
<speed>0.150000</speed>
</trkpt>
<trkpt lat="44.537693" lon="34.028423">
<ele>755.289551</ele>
<time>2011-10-11T14:21:02Z</time>
<desc>lat.=44.537693, lon.=34.028423, Alt.=755.289551m. Speed=0.036000m/h.</desc>
<speed>0.010000</speed>
</trkpt>
<trkpt lat="44.537693" lon="34.028423">
<ele>755.273926</ele>
<time>2011-10-11T14:21:07Z</time>
<desc>lat.=44.537693, lon.=34.028423, Alt.=755.273926m. Speed=0.144000m/h.</desc>
<speed>0.040000</speed>
</trkpt>
<trkpt lat="44.537693" lon="34.028423">
<ele>755.273926</ele>
<time>2011-10-11T14:21:12Z</time>
<desc>lat.=44.537693, lon.=34.028423, Alt.=755.273926m. Speed=0.324000m/h.</desc>
<speed>0.090000</speed>
</trkpt>
<trkpt lat="44.537689" lon="34.028416">
<ele>755.258301</ele>
<time>2011-10-11T14:21:17Z</time>
<desc>lat.=44.537689, lon.=34.028416, Alt.=755.258301m. Speed=2.376000m/h.</desc>
<speed>0.660000</speed>
</trkpt>
<trkpt lat="44.537708" lon="34.028366">
<ele>755.961426</ele>
<time>2011-10-11T14:21:22Z</time>
<desc>lat.=44.537708, lon.=34.028366, Alt.=755.961426m. Speed=2.700000m/h.</desc>
<speed>0.750000</speed>
</trkpt>
<trkpt lat="44.537689" lon="34.028278">
<ele>755.914551</ele>
<time>2011-10-11T14:21:27Z</time>
<desc>lat.=44.537689, lon.=34.028278, Alt.=755.914551m. Speed=4.428000m/h.</desc>
<speed>1.230000</speed>
</trkpt>
<trkpt lat="44.537632" lon="34.028198">
<ele>756.320801</ele>
<time>2011-10-11T14:21:32Z</time>
<desc>lat.=44.537632, lon.=34.028198, Alt.=756.320801m. Speed=4.788000m/h.</desc>
<speed>1.330000</speed>
</trkpt>
<trkpt lat="44.537571" lon="34.028152">
<ele>756.352051</ele>
<time>2011-10-11T14:21:37Z</time>
<desc>lat.=44.537571, lon.=34.028152, Alt.=756.352051m. Speed=4.608000m/h.</desc>
<speed>1.280000</speed>
</trkpt>
<trkpt lat="44.537518" lon="34.028080">
<ele>756.742676</ele>
<time>2011-10-11T14:21:42Z</time>
<desc>lat.=44.537518, lon.=34.028080, Alt.=756.742676m. Speed=4.032000m/h.</desc>
<speed>1.120000</speed>
</trkpt>
<trkpt lat="44.537514" lon="34.028027">
<ele>757.133301</ele>
<time>2011-10-11T14:21:47Z</time>
<desc>lat.=44.537514, lon.=34.028027, Alt.=757.133301m. Speed=1.044000m/h.</desc>
<speed>0.290000</speed>
</trkpt>
<trkpt lat="44.537476" lon="34.027969">
<ele>758.258301</ele>
<time>2011-10-11T14:21:52Z</time>
<desc>lat.=44.537476, lon.=34.027969, Alt.=758.258301m. Speed=3.780000m/h.</desc>
<speed>1.050000</speed>
</trkpt>
<trkpt lat="44.537552" lon="34.027840">
<ele>759.555176</ele>
<time>2011-10-11T14:21:57Z</time>
<desc>lat.=44.537552, lon.=34.027840, Alt.=759.555176m. Speed=3.852000m/h.</desc>
<speed>1.070000</speed>
</trkpt>
<trkpt lat="44.537487" lon="34.027802">
<ele>760.602051</ele>
<time>2011-10-11T14:22:02Z</time>
<desc>lat.=44.537487, lon.=34.027802, Alt.=760.602051m. Speed=2.520000m/h.</desc>
<speed>0.700000</speed>
</trkpt>
<trkpt lat="44.537479" lon="34.027737">
<ele>761.398926</ele>
<time>2011-10-11T14:22:07Z</time>
<desc>lat.=44.537479, lon.=34.027737, Alt.=761.398926m. Speed=2.844000m/h.</desc>
<speed>0.790000</speed>
</trkpt>
<trkpt lat="44.537430" lon="34.027699">
<ele>761.727051</ele>
<time>2011-10-11T14:22:12Z</time>
<desc>lat.=44.537430, lon.=34.027699, Alt.=761.727051m. Speed=3.996000m/h.</desc>
<speed>1.110000</speed>
</trkpt>
<trkpt lat="44.537411" lon="34.027630">
<ele>761.945801</ele>
<time>2011-10-11T14:22:17Z</time>
<desc>lat.=44.537411, lon.=34.027630, Alt.=761.945801m. Speed=4.284000m/h.</desc>
<speed>1.190000</speed>
</trkpt>
<trkpt lat="44.537407" lon="34.027554">
<ele>762.211426</ele>
<time>2011-10-11T14:22:22Z</time>
<desc>lat.=44.537407, lon.=34.027554, Alt.=762.211426m. Speed=2.592000m/h.</desc>
<speed>0.720000</speed>
</trkpt>
<trkpt lat="44.537334" lon="34.027462">
<ele>764.430176</ele>
<time>2011-10-11T14:22:27Z</time>
<desc>lat.=44.537334, lon.=34.027462, Alt.=764.430176m. Speed=3.888000m/h.</desc>
<speed>1.080000</speed>
</trkpt>
<trkpt lat="44.537266" lon="34.027405">
<ele>765.305176</ele>
<time>2011-10-11T14:22:32Z</time>
<desc>lat.=44.537266, lon.=34.027405, Alt.=765.305176m. Speed=1.152000m/h.</desc>
<speed>0.320000</speed>
</trkpt>
<trkpt lat="44.537235" lon="34.027355">
<ele>765.883301</ele>
<time>2011-10-11T14:22:37Z</time>
<desc>lat.=44.537235, lon.=34.027355, Alt.=765.883301m. Speed=2.304000m/h.</desc>
<speed>0.640000</speed>
</trkpt>
<trkpt lat="44.537228" lon="34.027287">
<ele>766.930176</ele>
<time>2011-10-11T14:22:42Z</time>
<desc>lat.=44.537228, lon.=34.027287, Alt.=766.930176m. Speed=1.800000m/h.</desc>
<speed>0.500000</speed>
</trkpt>
<trkpt lat="44.537167" lon="34.027225">
<ele>767.695801</ele>
<time>2011-10-11T14:22:47Z</time>
<desc>lat.=44.537167, lon.=34.027225, Alt.=767.695801m. Speed=2.124000m/h.</desc>
<speed>0.590000</speed>
</trkpt>
<trkpt lat="44.537189" lon="34.027149">
<ele>769.602051</ele>
<time>2011-10-11T14:22:52Z</time>
<desc>lat.=44.537189, lon.=34.027149, Alt.=769.602051m. Speed=3.096000m/h.</desc>
<speed>0.860000</speed>
</trkpt>
<trkpt lat="44.537193" lon="34.027061">
<ele>770.430176</ele>
<time>2011-10-11T14:22:57Z</time>
<desc>lat.=44.537193, lon.=34.027061, Alt.=770.430176m. Speed=2.556000m/h.</desc>
<speed>0.710000</speed>
</trkpt>
<trkpt lat="44.537186" lon="34.026981">
<ele>771.023926</ele>
<time>2011-10-11T14:23:02Z</time>
<desc>lat.=44.537186, lon.=34.026981, Alt.=771.023926m. Speed=1.656000m/h.</desc>
<speed>0.460000</speed>
</trkpt>
<trkpt lat="44.537193" lon="34.026897">
<ele>773.148926</ele>
<time>2011-10-11T14:23:07Z</time>
<desc>lat.=44.537193, lon.=34.026897, Alt.=773.148926m. Speed=2.304000m/h.</desc>
<speed>0.640000</speed>
</trkpt>
<trkpt lat="44.537167" lon="34.026817">
<ele>773.758301</ele>
<time>2011-10-11T14:23:12Z</time>
<desc>lat.=44.537167, lon.=34.026817, Alt.=773.758301m. Speed=3.924000m/h.</desc>
<speed>1.090000</speed>
</trkpt>
<trkpt lat="44.537193" lon="34.026726">
<ele>774.711426</ele>
<time>2011-10-11T14:23:17Z</time>
<desc>lat.=44.537193, lon.=34.026726, Alt.=774.711426m. Speed=0.288000m/h.</desc>
<speed>0.080000</speed>
</trkpt>
<trkpt lat="44.537128" lon="34.026691">
<ele>774.961426</ele>
<time>2011-10-11T14:23:22Z</time>
<desc>lat.=44.537128, lon.=34.026691, Alt.=774.961426m. Speed=2.376000m/h.</desc>
<speed>0.660000</speed>
</trkpt>
<trkpt lat="44.537067" lon="34.026653">
<ele>775.727051</ele>
<time>2011-10-11T14:23:27Z</time>
<desc>lat.=44.537067, lon.=34.026653, Alt.=775.727051m. Speed=2.844000m/h.</desc>
<speed>0.790000</speed>
</trkpt>
<trkpt lat="44.537029" lon="34.026531">
<ele>776.789551</ele>
<time>2011-10-11T14:23:32Z</time>
<desc>lat.=44.537029, lon.=34.026531, Alt.=776.789551m. Speed=3.888000m/h.</desc>
<speed>1.080000</speed>
</trkpt>
<trkpt lat="44.536991" lon="34.026432">
<ele>777.211426</ele>
<time>2011-10-11T14:23:37Z</time>
<desc>lat.=44.536991, lon.=34.026432, Alt.=777.211426m. Speed=3.960000m/h.</desc>
<speed>1.100000</speed>
</trkpt>
<trkpt lat="44.536938" lon="34.026344">
<ele>777.977051</ele>
<time>2011-10-11T14:23:42Z</time>
<desc>lat.=44.536938, lon.=34.026344, Alt.=777.977051m. Speed=5.220000m/h.</desc>
<speed>1.450000</speed>
</trkpt>
<trkpt lat="44.536922" lon="34.026218">
<ele>778.305176</ele>
<time>2011-10-11T14:23:47Z</time>
<desc>lat.=44.536922, lon.=34.026218, Alt.=778.305176m. Speed=5.688000m/h.</desc>
<speed>1.580000</speed>
</trkpt>
<trkpt lat="44.536873" lon="34.026108">
<ele>777.805176</ele>
<time>2011-10-11T14:23:52Z</time>
<desc>lat.=44.536873, lon.=34.026108, Alt.=777.805176m. Speed=5.472000m/h.</desc>
<speed>1.520000</speed>
</trkpt>
<trkpt lat="44.536839" lon="34.025993">
<ele>775.336426</ele>
<time>2011-10-11T14:23:57Z</time>
<desc>lat.=44.536839, lon.=34.025993, Alt.=775.336426m. Speed=3.384000m/h.</desc>
<speed>0.940000</speed>
</trkpt>
<trkpt lat="44.536774" lon="34.025902">
<ele>774.914551</ele>
<time>2011-10-11T14:24:02Z</time>
<desc>lat.=44.536774, lon.=34.025902, Alt.=774.914551m. Speed=3.816000m/h.</desc>
<speed>1.060000</speed>
</trkpt>
<trkpt lat="44.536785" lon="34.025799">
<ele>775.555176</ele>
<time>2011-10-11T14:24:07Z</time>
<desc>lat.=44.536785, lon.=34.025799, Alt.=775.555176m. Speed=5.616000m/h.</desc>
<speed>1.560000</speed>
</trkpt>
<trkpt lat="44.536739" lon="34.025715">
<ele>774.805176</ele>
<time>2011-10-11T14:24:12Z</time>
<desc>lat.=44.536739, lon.=34.025715, Alt.=774.805176m. Speed=3.672000m/h.</desc>
<speed>1.020000</speed>
</trkpt>
<trkpt lat="44.536709" lon="34.025654">
<ele>774.836426</ele>
<time>2011-10-11T14:24:17Z</time>
<desc>lat.=44.536709, lon.=34.025654, Alt.=774.836426m. Speed=5.256000m/h.</desc>
<speed>1.460000</speed>
</trkpt>
<trkpt lat="44.536682" lon="34.025574">
<ele>774.258301</ele>
<time>2011-10-11T14:24:22Z</time>
<desc>lat.=44.536682, lon.=34.025574, Alt.=774.258301m. Speed=4.176000m/h.</desc>
<speed>1.160000</speed>
</trkpt>
<trkpt lat="44.536663" lon="34.025543">
<ele>773.898926</ele>
<time>2011-10-11T14:24:27Z</time>
<desc>lat.=44.536663, lon.=34.025543, Alt.=773.898926m. Speed=3.780000m/h.</desc>
<speed>1.050000</speed>
</trkpt>
<trkpt lat="44.536629" lon="34.025501">
<ele>772.445801</ele>
<time>2011-10-11T14:24:32Z</time>
<desc>lat.=44.536629, lon.=34.025501, Alt.=772.445801m. Speed=2.988000m/h.</desc>
<speed>0.830000</speed>
</trkpt>
<trkpt lat="44.536610" lon="34.025436">
<ele>772.070801</ele>
<time>2011-10-11T14:24:37Z</time>
<desc>lat.=44.536610, lon.=34.025436, Alt.=772.070801m. Speed=6.012000m/h.</desc>
<speed>1.670000</speed>
</trkpt>
<trkpt lat="44.536613" lon="34.025341">
<ele>769.883301</ele>
<time>2011-10-11T14:24:42Z</time>
<desc>lat.=44.536613, lon.=34.025341, Alt.=769.883301m. Speed=5.220000m/h.</desc>
<speed>1.450000</speed>
</trkpt>
<trkpt lat="44.536575" lon="34.025280">
<ele>771.164551</ele>
<time>2011-10-11T14:24:47Z</time>
<desc>lat.=44.536575, lon.=34.025280, Alt.=771.164551m. Speed=4.284000m/h.</desc>
<speed>1.190000</speed>
</trkpt>
<trkpt lat="44.536530" lon="34.025200">
<ele>770.664551</ele>
<time>2011-10-11T14:24:52Z</time>
<desc>lat.=44.536530, lon.=34.025200, Alt.=770.664551m. Speed=5.436000m/h.</desc>
<speed>1.510000</speed>
</trkpt>
<trkpt lat="44.536449" lon="34.025177">
<ele>771.508301</ele>
<time>2011-10-11T14:24:57Z</time>
<desc>lat.=44.536449, lon.=34.025177, Alt.=771.508301m. Speed=2.988000m/h.</desc>
<speed>0.830000</speed>
</trkpt>
<trkpt lat="44.536419" lon="34.025131">
<ele>773.742676</ele>
<time>2011-10-11T14:25:02Z</time>
<desc>lat.=44.536419, lon.=34.025131, Alt.=773.742676m. Speed=1.620000m/h.</desc>
<speed>0.450000</speed>
</trkpt>
<trkpt lat="44.536419" lon="34.025108">
<ele>772.352051</ele>
<time>2011-10-11T14:25:07Z</time>
<desc>lat.=44.536419, lon.=34.025108, Alt.=772.352051m. Speed=0.540000m/h.</desc>
<speed>0.150000</speed>
</trkpt>
<trkpt lat="44.536423" lon="34.025105">
<ele>772.742676</ele>
<time>2011-10-11T14:25:12Z</time>
<desc>lat.=44.536423, lon.=34.025105, Alt.=772.742676m. Speed=0.252000m/h.</desc>
<speed>0.070000</speed>
</trkpt>
<trkpt lat="44.536423" lon="34.025105">
<ele>773.148926</ele>
<time>2011-10-11T14:25:17Z</time>
<desc>lat.=44.536423, lon.=34.025105, Alt.=773.148926m. Speed=3.456000m/h.</desc>
<speed>0.960000</speed>
</trkpt>
<trkpt lat="44.536381" lon="34.025066">
<ele>773.758301</ele>
<time>2011-10-11T14:25:22Z</time>
<desc>lat.=44.536381, lon.=34.025066, Alt.=773.758301m. Speed=3.744000m/h.</desc>
<speed>1.040000</speed>
</trkpt>
<trkpt lat="44.536312" lon="34.025036">
<ele>775.211426</ele>
<time>2011-10-11T14:25:27Z</time>
<desc>lat.=44.536312, lon.=34.025036, Alt.=775.211426m. Speed=5.976000m/h.</desc>
<speed>1.660000</speed>
</trkpt>
<trkpt lat="44.536282" lon="34.024929">
<ele>775.570801</ele>
<time>2011-10-11T14:25:32Z</time>
<desc>lat.=44.536282, lon.=34.024929, Alt.=775.570801m. Speed=6.084000m/h.</desc>
<speed>1.690000</speed>
</trkpt>
<trkpt lat="44.536251" lon="34.024830">
<ele>775.898926</ele>
<time>2011-10-11T14:25:37Z</time>
<desc>lat.=44.536251, lon.=34.024830, Alt.=775.898926m. Speed=5.652000m/h.</desc>
<speed>1.570000</speed>
</trkpt>
<trkpt lat="44.536221" lon="34.024734">
<ele>775.602051</ele>
<time>2011-10-11T14:25:42Z</time>
<desc>lat.=44.536221, lon.=34.024734, Alt.=775.602051m. Speed=5.472000m/h.</desc>
<speed>1.520000</speed>
</trkpt>
<trkpt lat="44.536232" lon="34.024632">
<ele>775.195801</ele>
<time>2011-10-11T14:25:47Z</time>
<desc>lat.=44.536232, lon.=34.024632, Alt.=775.195801m. Speed=4.644000m/h.</desc>
<speed>1.290000</speed>
</trkpt>
<trkpt lat="44.536201" lon="34.024536">
<ele>774.180176</ele>
<time>2011-10-11T14:25:52Z</time>
<desc>lat.=44.536201, lon.=34.024536, Alt.=774.180176m. Speed=4.824000m/h.</desc>
<speed>1.340000</speed>
</trkpt>
<trkpt lat="44.536060" lon="34.024471">
<ele>773.961426</ele>
<time>2011-10-11T14:25:57Z</time>
<desc>lat.=44.536060, lon.=34.024471, Alt.=773.961426m. Speed=4.752000m/h.</desc>
<speed>1.320000</speed>
</trkpt>
<trkpt lat="44.535965" lon="34.024441">
<ele>774.227051</ele>
<time>2011-10-11T14:26:02Z</time>
<desc>lat.=44.535965, lon.=34.024441, Alt.=774.227051m. Speed=3.096000m/h.</desc>
<speed>0.860000</speed>
</trkpt>
<trkpt lat="44.535938" lon="34.024422">
<ele>776.023926</ele>
<time>2011-10-11T14:26:07Z</time>
<desc>lat.=44.535938, lon.=34.024422, Alt.=776.023926m. Speed=1.260000m/h.</desc>
<speed>0.350000</speed>
</trkpt>
<trkpt lat="44.535892" lon="34.024414">
<ele>775.102051</ele>
<time>2011-10-11T14:26:12Z</time>
<desc>lat.=44.535892, lon.=34.024414, Alt.=775.102051m. Speed=1.224000m/h.</desc>
<speed>0.340000</speed>
</trkpt>
<trkpt lat="44.535904" lon="34.024452">
<ele>775.492676</ele>
<time>2011-10-11T14:26:17Z</time>
<desc>lat.=44.535904, lon.=34.024452, Alt.=775.492676m. Speed=1.548000m/h.</desc>
<speed>0.430000</speed>
</trkpt>
<trkpt lat="44.535904" lon="34.024418">
<ele>776.117676</ele>
<time>2011-10-11T14:26:22Z</time>
<desc>lat.=44.535904, lon.=34.024418, Alt.=776.117676m. Speed=2.340000m/h.</desc>
<speed>0.650000</speed>
</trkpt>
<trkpt lat="44.535931" lon="34.024399">
<ele>776.445801</ele>
<time>2011-10-11T14:26:27Z</time>
<desc>lat.=44.535931, lon.=34.024399, Alt.=776.445801m. Speed=1.980000m/h.</desc>
<speed>0.550000</speed>
</trkpt>
<trkpt lat="44.535942" lon="34.024342">
<ele>777.086426</ele>
<time>2011-10-11T14:26:32Z</time>
<desc>lat.=44.535942, lon.=34.024342, Alt.=777.086426m. Speed=3.636000m/h.</desc>
<speed>1.010000</speed>
</trkpt>
<trkpt lat="44.535954" lon="34.024288">
<ele>777.820801</ele>
<time>2011-10-11T14:26:37Z</time>
<desc>lat.=44.535954, lon.=34.024288, Alt.=777.820801m. Speed=2.592000m/h.</desc>
<speed>0.720000</speed>
</trkpt>
<trkpt lat="44.535957" lon="34.024189">
<ele>777.648926</ele>
<time>2011-10-11T14:26:42Z</time>
<desc>lat.=44.535957, lon.=34.024189, Alt.=777.648926m. Speed=4.032000m/h.</desc>
<speed>1.120000</speed>
</trkpt>
<trkpt lat="44.535919" lon="34.024136">
<ele>778.336426</ele>
<time>2011-10-11T14:26:47Z</time>
<desc>lat.=44.535919, lon.=34.024136, Alt.=778.336426m. Speed=3.348000m/h.</desc>
<speed>0.930000</speed>
</trkpt>
<trkpt lat="44.535889" lon="34.024067">
<ele>779.867676</ele>
<time>2011-10-11T14:26:52Z</time>
<desc>lat.=44.535889, lon.=34.024067, Alt.=779.867676m. Speed=3.888000m/h.</desc>
<speed>1.080000</speed>
</trkpt>
<trkpt lat="44.535862" lon="34.024002">
<ele>780.508301</ele>
<time>2011-10-11T14:26:57Z</time>
<desc>lat.=44.535862, lon.=34.024002, Alt.=780.508301m. Speed=4.464000m/h.</desc>
<speed>1.240000</speed>
</trkpt>
<trkpt lat="44.535820" lon="34.023930">
<ele>782.227051</ele>
<time>2011-10-11T14:27:02Z</time>
<desc>lat.=44.535820, lon.=34.023930, Alt.=782.227051m. Speed=3.888000m/h.</desc>
<speed>1.080000</speed>
</trkpt>
<trkpt lat="44.535812" lon="34.023865">
<ele>782.180176</ele>
<time>2011-10-11T14:27:07Z</time>
<desc>lat.=44.535812, lon.=34.023865, Alt.=782.180176m. Speed=3.240000m/h.</desc>
<speed>0.900000</speed>
</trkpt>
<trkpt lat="44.535805" lon="34.023773">
<ele>783.023926</ele>
<time>2011-10-11T14:27:12Z</time>
<desc>lat.=44.535805, lon.=34.023773, Alt.=783.023926m. Speed=4.104000m/h.</desc>
<speed>1.140000</speed>
</trkpt>
<trkpt lat="44.535816" lon="34.023716">
<ele>783.258301</ele>
<time>2011-10-11T14:27:17Z</time>
<desc>lat.=44.535816, lon.=34.023716, Alt.=783.258301m. Speed=3.132000m/h.</desc>
<speed>0.870000</speed>
</trkpt>
<trkpt lat="44.535801" lon="34.023655">
<ele>783.742676</ele>
<time>2011-10-11T14:27:22Z</time>
<desc>lat.=44.535801, lon.=34.023655, Alt.=783.742676m. Speed=3.420000m/h.</desc>
<speed>0.950000</speed>
</trkpt>
<trkpt lat="44.535782" lon="34.023609">
<ele>784.492676</ele>
<time>2011-10-11T14:27:27Z</time>
<desc>lat.=44.535782, lon.=34.023609, Alt.=784.492676m. Speed=2.664000m/h.</desc>
<speed>0.740000</speed>
</trkpt>
<trkpt lat="44.535744" lon="34.023483">
<ele>784.602051</ele>
<time>2011-10-11T14:27:32Z</time>
<desc>lat.=44.535744, lon.=34.023483, Alt.=784.602051m. Speed=3.708000m/h.</desc>
<speed>1.030000</speed>
</trkpt>
<trkpt lat="44.535702" lon="34.023376">
<ele>784.336426</ele>
<time>2011-10-11T14:27:37Z</time>
<desc>lat.=44.535702, lon.=34.023376, Alt.=784.336426m. Speed=5.904000m/h.</desc>
<speed>1.640000</speed>
</trkpt>
<trkpt lat="44.535706" lon="34.023247">
<ele>784.273926</ele>
<time>2011-10-11T14:27:42Z</time>
<desc>lat.=44.535706, lon.=34.023247, Alt.=784.273926m. Speed=4.644000m/h.</desc>
<speed>1.290000</speed>
</trkpt>
<trkpt lat="44.535725" lon="34.023159">
<ele>784.742676</ele>
<time>2011-10-11T14:27:47Z</time>
<desc>lat.=44.535725, lon.=34.023159, Alt.=784.742676m. Speed=3.600000m/h.</desc>
<speed>1.000000</speed>
</trkpt>
<trkpt lat="44.535694" lon="34.023109">
<ele>785.383301</ele>
<time>2011-10-11T14:27:52Z</time>
<desc>lat.=44.535694, lon.=34.023109, Alt.=785.383301m. Speed=3.276000m/h.</desc>
<speed>0.910000</speed>
</trkpt>
<trkpt lat="44.535641" lon="34.023033">
<ele>785.773926</ele>
<time>2011-10-11T14:27:57Z</time>
<desc>lat.=44.535641, lon.=34.023033, Alt.=785.773926m. Speed=3.204000m/h.</desc>
<speed>0.890000</speed>
</trkpt>
<trkpt lat="44.535660" lon="34.022934">
<ele>787.789551</ele>
<time>2011-10-11T14:28:02Z</time>
<desc>lat.=44.535660, lon.=34.022934, Alt.=787.789551m. Speed=2.556000m/h.</desc>
<speed>0.710000</speed>
</trkpt>
<trkpt lat="44.535686" lon="34.022842">
<ele>788.383301</ele>
<time>2011-10-11T14:28:07Z</time>
<desc>lat.=44.535686, lon.=34.022842, Alt.=788.383301m. Speed=1.908000m/h.</desc>
<speed>0.530000</speed>
</trkpt>
<trkpt lat="44.535656" lon="34.022808">
<ele>789.320801</ele>
<time>2011-10-11T14:28:12Z</time>
<desc>lat.=44.535656, lon.=34.022808, Alt.=789.320801m. Speed=0.504000m/h.</desc>
<speed>0.140000</speed>
</trkpt>
<trkpt lat="44.535629" lon="34.022781">
<ele>789.805176</ele>
<time>2011-10-11T14:28:17Z</time>
<desc>lat.=44.535629, lon.=34.022781, Alt.=789.805176m. Speed=0.972000m/h.</desc>
<speed>0.270000</speed>
</trkpt>
<trkpt lat="44.535603" lon="34.022766">
<ele>789.680176</ele>
<time>2011-10-11T14:28:22Z</time>
<desc>lat.=44.535603, lon.=34.022766, Alt.=789.680176m. Speed=2.556000m/h.</desc>
<speed>0.710000</speed>
</trkpt>
<trkpt lat="44.535515" lon="34.022747">
<ele>790.305176</ele>
<time>2011-10-11T14:28:27Z</time>
<desc>lat.=44.535515, lon.=34.022747, Alt.=790.305176m. Speed=1.440000m/h.</desc>
<speed>0.400000</speed>
</trkpt>
<trkpt lat="44.535442" lon="34.022762">
<ele>790.977051</ele>
<time>2011-10-11T14:28:32Z</time>
<desc>lat.=44.535442, lon.=34.022762, Alt.=790.977051m. Speed=1.404000m/h.</desc>
<speed>0.390000</speed>
</trkpt>
<trkpt lat="44.535385" lon="34.022804">
<ele>790.836426</ele>
<time>2011-10-11T14:28:37Z</time>
<desc>lat.=44.535385, lon.=34.022804, Alt.=790.836426m. Speed=3.816000m/h.</desc>
<speed>1.060000</speed>
</trkpt>
<trkpt lat="44.535339" lon="34.022842">
<ele>790.805176</ele>
<time>2011-10-11T14:28:42Z</time>
<desc>lat.=44.535339, lon.=34.022842, Alt.=790.805176m. Speed=1.332000m/h.</desc>
<speed>0.370000</speed>
</trkpt>
<trkpt lat="44.535301" lon="34.022793">
<ele>785.445801</ele>
<time>2011-10-11T14:28:47Z</time>
<desc>lat.=44.535301, lon.=34.022793, Alt.=785.445801m. Speed=3.744000m/h.</desc>
<speed>1.040000</speed>
</trkpt>
<trkpt lat="44.535236" lon="34.022755">
<ele>782.836426</ele>
<time>2011-10-11T14:28:52Z</time>
<desc>lat.=44.535236, lon.=34.022755, Alt.=782.836426m. Speed=1.836000m/h.</desc>
<speed>0.510000</speed>
</trkpt>
<trkpt lat="44.535145" lon="34.022739">
<ele>781.164551</ele>
<time>2011-10-11T14:28:57Z</time>
<desc>lat.=44.535145, lon.=34.022739, Alt.=781.164551m. Speed=2.772000m/h.</desc>
<speed>0.770000</speed>
</trkpt>
<trkpt lat="44.535049" lon="34.022736">
<ele>780.523926</ele>
<time>2011-10-11T14:29:02Z</time>
<desc>lat.=44.535049, lon.=34.022736, Alt.=780.523926m. Speed=6.156000m/h.</desc>
<speed>1.710000</speed>
</trkpt>
<trkpt lat="44.534969" lon="34.022736">
<ele>778.570801</ele>
<time>2011-10-11T14:29:07Z</time>
<desc>lat.=44.534969, lon.=34.022736, Alt.=778.570801m. Speed=2.952000m/h.</desc>
<speed>0.820000</speed>
</trkpt>
<trkpt lat="44.534920" lon="34.022705">
<ele>776.383301</ele>
<time>2011-10-11T14:29:12Z</time>
<desc>lat.=44.534920, lon.=34.022705, Alt.=776.383301m. Speed=4.896000m/h.</desc>
<speed>1.360000</speed>
</trkpt>
<trkpt lat="44.534878" lon="34.022713">
<ele>775.070801</ele>
<time>2011-10-11T14:29:17Z</time>
<desc>lat.=44.534878, lon.=34.022713, Alt.=775.070801m. Speed=5.004000m/h.</desc>
<speed>1.390000</speed>
</trkpt>
<trkpt lat="44.534798" lon="34.022743">
<ele>774.852051</ele>
<time>2011-10-11T14:29:22Z</time>
<desc>lat.=44.534798, lon.=34.022743, Alt.=774.852051m. Speed=6.012000m/h.</desc>
<speed>1.670000</speed>
</trkpt>
<trkpt lat="44.534748" lon="34.022778">
<ele>775.039551</ele>
<time>2011-10-11T14:29:27Z</time>
<desc>lat.=44.534748, lon.=34.022778, Alt.=775.039551m. Speed=5.040000m/h.</desc>
<speed>1.400000</speed>
</trkpt>
<trkpt lat="44.534714" lon="34.022785">
<ele>775.039551</ele>
<time>2011-10-11T14:29:32Z</time>
<desc>lat.=44.534714, lon.=34.022785, Alt.=775.039551m. Speed=1.584000m/h.</desc>
<speed>0.440000</speed>
</trkpt>
<trkpt lat="44.534698" lon="34.022755">
<ele>774.539551</ele>
<time>2011-10-11T14:29:37Z</time>
<desc>lat.=44.534698, lon.=34.022755, Alt.=774.539551m. Speed=4.284000m/h.</desc>
<speed>1.190000</speed>
</trkpt>
<trkpt lat="44.534649" lon="34.022728">
<ele>774.414551</ele>
<time>2011-10-11T14:29:42Z</time>
<desc>lat.=44.534649, lon.=34.022728, Alt.=774.414551m. Speed=3.384000m/h.</desc>
<speed>0.940000</speed>
</trkpt>
<trkpt lat="44.534584" lon="34.022694">
<ele>774.383301</ele>
<time>2011-10-11T14:29:47Z</time>
<desc>lat.=44.534584, lon.=34.022694, Alt.=774.383301m. Speed=2.916000m/h.</desc>
<speed>0.810000</speed>
</trkpt>
<trkpt lat="44.534546" lon="34.022652">
<ele>773.727051</ele>
<time>2011-10-11T14:29:52Z</time>
<desc>lat.=44.534546, lon.=34.022652, Alt.=773.727051m. Speed=6.768000m/h.</desc>
<speed>1.880000</speed>
</trkpt>
<trkpt lat="44.534515" lon="34.022602">
<ele>773.898926</ele>
<time>2011-10-11T14:29:57Z</time>
<desc>lat.=44.534515, lon.=34.022602, Alt.=773.898926m. Speed=1.260000m/h.</desc>
<speed>0.350000</speed>
</trkpt>
<trkpt lat="44.534492" lon="34.022583">
<ele>774.602051</ele>
<time>2011-10-11T14:30:02Z</time>
<desc>lat.=44.534492, lon.=34.022583, Alt.=774.602051m. Speed=3.132000m/h.</desc>
<speed>0.870000</speed>
</trkpt>
<trkpt lat="44.534458" lon="34.022594">
<ele>776.633301</ele>
<time>2011-10-11T14:30:07Z</time>
<desc>lat.=44.534458, lon.=34.022594, Alt.=776.633301m. Speed=1.080000m/h.</desc>
<speed>0.300000</speed>
</trkpt>
<trkpt lat="44.534424" lon="34.022572">
<ele>777.539551</ele>
<time>2011-10-11T14:30:12Z</time>
<desc>lat.=44.534424, lon.=34.022572, Alt.=777.539551m. Speed=1.908000m/h.</desc>
<speed>0.530000</speed>
</trkpt>
<trkpt lat="44.534386" lon="34.022549">
<ele>778.773926</ele>
<time>2011-10-11T14:30:17Z</time>
<desc>lat.=44.534386, lon.=34.022549, Alt.=778.773926m. Speed=1.908000m/h.</desc>
<speed>0.530000</speed>
</trkpt>
<trkpt lat="44.534340" lon="34.022511">
<ele>779.961426</ele>
<time>2011-10-11T14:30:22Z</time>
<desc>lat.=44.534340, lon.=34.022511, Alt.=779.961426m. Speed=1.944000m/h.</desc>
<speed>0.540000</speed>
</trkpt>
<trkpt lat="44.534302" lon="34.022469">
<ele>781.211426</ele>
<time>2011-10-11T14:30:27Z</time>
<desc>lat.=44.534302, lon.=34.022469, Alt.=781.211426m. Speed=2.988000m/h.</desc>
<speed>0.830000</speed>
</trkpt>
<trkpt lat="44.534290" lon="34.022427">
<ele>782.852051</ele>
<time>2011-10-11T14:30:32Z</time>
<desc>lat.=44.534290, lon.=34.022427, Alt.=782.852051m. Speed=1.908000m/h.</desc>
<speed>0.530000</speed>
</trkpt>
<trkpt lat="44.534260" lon="34.022411">
<ele>782.773926</ele>
<time>2011-10-11T14:30:37Z</time>
<desc>lat.=44.534260, lon.=34.022411, Alt.=782.773926m. Speed=1.692000m/h.</desc>
<speed>0.470000</speed>
</trkpt>
<trkpt lat="44.534222" lon="34.022404">
<ele>783.883301</ele>
<time>2011-10-11T14:30:42Z</time>
<desc>lat.=44.534222, lon.=34.022404, Alt.=783.883301m. Speed=2.340000m/h.</desc>
<speed>0.650000</speed>
</trkpt>
<trkpt lat="44.534184" lon="34.022381">
<ele>784.664551</ele>
<time>2011-10-11T14:30:47Z</time>
<desc>lat.=44.534184, lon.=34.022381, Alt.=784.664551m. Speed=2.448000m/h.</desc>
<speed>0.680000</speed>
</trkpt>
<trkpt lat="44.534172" lon="34.022343">
<ele>784.648926</ele>
<time>2011-10-11T14:30:52Z</time>
<desc>lat.=44.534172, lon.=34.022343, Alt.=784.648926m. Speed=1.836000m/h.</desc>
<speed>0.510000</speed>
</trkpt>
<trkpt lat="44.534122" lon="34.022293">
<ele>785.273926</ele>
<time>2011-10-11T14:30:57Z</time>
<desc>lat.=44.534122, lon.=34.022293, Alt.=785.273926m. Speed=2.340000m/h.</desc>
<speed>0.650000</speed>
</trkpt>
<trkpt lat="44.534115" lon="34.022247">
<ele>786.133301</ele>
<time>2011-10-11T14:31:02Z</time>
<desc>lat.=44.534115, lon.=34.022247, Alt.=786.133301m. Speed=2.376000m/h.</desc>
<speed>0.660000</speed>
</trkpt>
<trkpt lat="44.534073" lon="34.022205">
<ele>787.180176</ele>
<time>2011-10-11T14:31:07Z</time>
<desc>lat.=44.534073, lon.=34.022205, Alt.=787.180176m. Speed=2.196000m/h.</desc>
<speed>0.610000</speed>
</trkpt>
<trkpt lat="44.534000" lon="34.022182">
<ele>786.617676</ele>
<time>2011-10-11T14:31:12Z</time>
<desc>lat.=44.534000, lon.=34.022182, Alt.=786.617676m. Speed=2.556000m/h.</desc>
<speed>0.710000</speed>
</trkpt>
<trkpt lat="44.533943" lon="34.022175">
<ele>787.602051</ele>
<time>2011-10-11T14:31:17Z</time>
<desc>lat.=44.533943, lon.=34.022175, Alt.=787.602051m. Speed=2.952000m/h.</desc>
<speed>0.820000</speed>
</trkpt>
<trkpt lat="44.533920" lon="34.022160">
<ele>788.352051</ele>
<time>2011-10-11T14:31:22Z</time>
<desc>lat.=44.533920, lon.=34.022160, Alt.=788.352051m. Speed=2.016000m/h.</desc>
<speed>0.560000</speed>
</trkpt>
<trkpt lat="44.533878" lon="34.022163">
<ele>788.617676</ele>
<time>2011-10-11T14:31:27Z</time>
<desc>lat.=44.533878, lon.=34.022163, Alt.=788.617676m. Speed=2.376000m/h.</desc>
<speed>0.660000</speed>
</trkpt>
<trkpt lat="44.533829" lon="34.022182">
<ele>789.398926</ele>
<time>2011-10-11T14:31:32Z</time>
<desc>lat.=44.533829, lon.=34.022182, Alt.=789.398926m. Speed=2.160000m/h.</desc>
<speed>0.600000</speed>
</trkpt>
<trkpt lat="44.533775" lon="34.022163">
<ele>790.508301</ele>
<time>2011-10-11T14:31:37Z</time>
<desc>lat.=44.533775, lon.=34.022163, Alt.=790.508301m. Speed=2.448000m/h.</desc>
<speed>0.680000</speed>
</trkpt>
<trkpt lat="44.533749" lon="34.022118">
<ele>791.133301</ele>
<time>2011-10-11T14:31:42Z</time>
<desc>lat.=44.533749, lon.=34.022118, Alt.=791.133301m. Speed=3.312000m/h.</desc>
<speed>0.920000</speed>
</trkpt>
<trkpt lat="44.533741" lon="34.022064">
<ele>792.055176</ele>
<time>2011-10-11T14:31:47Z</time>
<desc>lat.=44.533741, lon.=34.022064, Alt.=792.055176m. Speed=2.268000m/h.</desc>
<speed>0.630000</speed>
</trkpt>
<trkpt lat="44.533730" lon="34.022026">
<ele>793.086426</ele>
<time>2011-10-11T14:31:52Z</time>
<desc>lat.=44.533730, lon.=34.022026, Alt.=793.086426m. Speed=2.016000m/h.</desc>
<speed>0.560000</speed>
</trkpt>
<trkpt lat="44.533726" lon="34.021999">
<ele>793.883301</ele>
<time>2011-10-11T14:31:57Z</time>
<desc>lat.=44.533726, lon.=34.021999, Alt.=793.883301m. Speed=2.160000m/h.</desc>
<speed>0.600000</speed>
</trkpt>
<trkpt lat="44.533714" lon="34.021969">
<ele>794.711426</ele>
<time>2011-10-11T14:32:02Z</time>
<desc>lat.=44.533714, lon.=34.021969, Alt.=794.711426m. Speed=1.656000m/h.</desc>
<speed>0.460000</speed>
</trkpt>
<trkpt lat="44.533680" lon="34.021923">
<ele>796.086426</ele>
<time>2011-10-11T14:32:07Z</time>
<desc>lat.=44.533680, lon.=34.021923, Alt.=796.086426m. Speed=1.728000m/h.</desc>
<speed>0.480000</speed>
</trkpt>
<trkpt lat="44.533627" lon="34.021893">
<ele>797.555176</ele>
<time>2011-10-11T14:32:12Z</time>
<desc>lat.=44.533627, lon.=34.021893, Alt.=797.555176m. Speed=1.080000m/h.</desc>
<speed>0.300000</speed>
</trkpt>
<trkpt lat="44.533607" lon="34.021862">
<ele>798.945801</ele>
<time>2011-10-11T14:32:17Z</time>
<desc>lat.=44.533607, lon.=34.021862, Alt.=798.945801m. Speed=1.728000m/h.</desc>
<speed>0.480000</speed>
</trkpt>
<trkpt lat="44.533543" lon="34.021828">
<ele>800.289551</ele>
<time>2011-10-11T14:32:22Z</time>
<desc>lat.=44.533543, lon.=34.021828, Alt.=800.289551m. Speed=2.232000m/h.</desc>
<speed>0.620000</speed>
</trkpt>
<trkpt lat="44.533512" lon="34.021790">
<ele>801.289551</ele>
<time>2011-10-11T14:32:27Z</time>
<desc>lat.=44.533512, lon.=34.021790, Alt.=801.289551m. Speed=2.448000m/h.</desc>
<speed>0.680000</speed>
</trkpt>
<trkpt lat="44.533489" lon="34.021759">
<ele>801.961426</ele>
<time>2011-10-11T14:32:32Z</time>
<desc>lat.=44.533489, lon.=34.021759, Alt.=801.961426m. Speed=2.268000m/h.</desc>
<speed>0.630000</speed>
</trkpt>
<trkpt lat="44.533405" lon="34.021736">
<ele>802.430176</ele>
<time>2011-10-11T14:32:37Z</time>
<desc>lat.=44.533405, lon.=34.021736, Alt.=802.430176m. Speed=3.204000m/h.</desc>
<speed>0.890000</speed>
</trkpt>
<trkpt lat="44.533318" lon="34.021713">
<ele>803.008301</ele>
<time>2011-10-11T14:32:42Z</time>
<desc>lat.=44.533318, lon.=34.021713, Alt.=803.008301m. Speed=3.456000m/h.</desc>
<speed>0.960000</speed>
</trkpt>
<trkpt lat="44.533268" lon="34.021694">
<ele>803.523926</ele>
<time>2011-10-11T14:32:47Z</time>
<desc>lat.=44.533268, lon.=34.021694, Alt.=803.523926m. Speed=2.664000m/h.</desc>
<speed>0.740000</speed>
</trkpt>
<trkpt lat="44.533226" lon="34.021683">
<ele>803.570801</ele>
<time>2011-10-11T14:32:52Z</time>
<desc>lat.=44.533226, lon.=34.021683, Alt.=803.570801m. Speed=0.756000m/h.</desc>
<speed>0.210000</speed>
</trkpt>
<trkpt lat="44.533211" lon="34.021664">
<ele>803.430176</ele>
<time>2011-10-11T14:32:57Z</time>
<desc>lat.=44.533211, lon.=34.021664, Alt.=803.430176m. Speed=1.224000m/h.</desc>
<speed>0.340000</speed>
</trkpt>
<trkpt lat="44.533165" lon="34.021618">
<ele>803.383301</ele>
<time>2011-10-11T14:33:02Z</time>
<desc>lat.=44.533165, lon.=34.021618, Alt.=803.383301m. Speed=2.160000m/h.</desc>
<speed>0.600000</speed>
</trkpt>
<trkpt lat="44.533100" lon="34.021587">
<ele>803.242676</ele>
<time>2011-10-11T14:33:07Z</time>
<desc>lat.=44.533100, lon.=34.021587, Alt.=803.242676m. Speed=2.772000m/h.</desc>
<speed>0.770000</speed>
</trkpt>
<trkpt lat="44.533020" lon="34.021576">
<ele>803.539551</ele>
<time>2011-10-11T14:33:12Z</time>
<desc>lat.=44.533020, lon.=34.021576, Alt.=803.539551m. Speed=4.608000m/h.</desc>
<speed>1.280000</speed>
</trkpt>
<trkpt lat="44.532970" lon="34.021572">
<ele>804.711426</ele>
<time>2011-10-11T14:33:17Z</time>
<desc>lat.=44.532970, lon.=34.021572, Alt.=804.711426m. Speed=4.320000m/h.</desc>
<speed>1.200000</speed>
</trkpt>
<trkpt lat="44.532925" lon="34.021564">
<ele>805.492676</ele>
<time>2011-10-11T14:33:22Z</time>
<desc>lat.=44.532925, lon.=34.021564, Alt.=805.492676m. Speed=3.708000m/h.</desc>
<speed>1.030000</speed>
</trkpt>
<trkpt lat="44.532890" lon="34.021534">
<ele>806.023926</ele>
<time>2011-10-11T14:33:27Z</time>
<desc>lat.=44.532890, lon.=34.021534, Alt.=806.023926m. Speed=2.592000m/h.</desc>
<speed>0.720000</speed>
</trkpt>
<trkpt lat="44.532875" lon="34.021488">
<ele>807.961426</ele>
<time>2011-10-11T14:33:32Z</time>
<desc>lat.=44.532875, lon.=34.021488, Alt.=807.961426m. Speed=2.232000m/h.</desc>
<speed>0.620000</speed>
</trkpt>
<trkpt lat="44.532845" lon="34.021442">
<ele>808.961426</ele>
<time>2011-10-11T14:33:37Z</time>
<desc>lat.=44.532845, lon.=34.021442, Alt.=808.961426m. Speed=2.736000m/h.</desc>
<speed>0.760000</speed>
</trkpt>
<trkpt lat="44.532814" lon="34.021385">
<ele>810.320801</ele>
<time>2011-10-11T14:33:42Z</time>
<desc>lat.=44.532814, lon.=34.021385, Alt.=810.320801m. Speed=3.312000m/h.</desc>
<speed>0.920000</speed>
</trkpt>
<trkpt lat="44.532784" lon="34.021332">
<ele>810.867676</ele>
<time>2011-10-11T14:33:47Z</time>
<desc>lat.=44.532784, lon.=34.021332, Alt.=810.867676m. Speed=3.960000m/h.</desc>
<speed>1.100000</speed>
</trkpt>
<trkpt lat="44.532784" lon="34.021252">
<ele>811.320801</ele>
<time>2011-10-11T14:33:52Z</time>
<desc>lat.=44.532784, lon.=34.021252, Alt.=811.320801m. Speed=3.528000m/h.</desc>
<speed>0.980000</speed>
</trkpt>
<trkpt lat="44.532742" lon="34.021206">
<ele>811.586426</ele>
<time>2011-10-11T14:33:57Z</time>
<desc>lat.=44.532742, lon.=34.021206, Alt.=811.586426m. Speed=5.004000m/h.</desc>
<speed>1.390000</speed>
</trkpt>
<trkpt lat="44.532726" lon="34.021130">
<ele>811.211426</ele>
<time>2011-10-11T14:34:02Z</time>
<desc>lat.=44.532726, lon.=34.021130, Alt.=811.211426m. Speed=2.808000m/h.</desc>
<speed>0.780000</speed>
</trkpt>
<trkpt lat="44.532738" lon="34.021034">
<ele>812.055176</ele>
<time>2011-10-11T14:34:07Z</time>
<desc>lat.=44.532738, lon.=34.021034, Alt.=812.055176m. Speed=4.608000m/h.</desc>
<speed>1.280000</speed>
</trkpt>
<trkpt lat="44.532696" lon="34.020969">
<ele>812.711426</ele>
<time>2011-10-11T14:34:12Z</time>
<desc>lat.=44.532696, lon.=34.020969, Alt.=812.711426m. Speed=4.932000m/h.</desc>
<speed>1.370000</speed>
</trkpt>
<trkpt lat="44.532665" lon="34.020912">
<ele>813.133301</ele>
<time>2011-10-11T14:34:17Z</time>
<desc>lat.=44.532665, lon.=34.020912, Alt.=813.133301m. Speed=4.176000m/h.</desc>
<speed>1.160000</speed>
</trkpt>
<trkpt lat="44.532600" lon="34.020855">
<ele>813.930176</ele>
<time>2011-10-11T14:34:22Z</time>
<desc>lat.=44.532600, lon.=34.020855, Alt.=813.930176m. Speed=5.508000m/h.</desc>
<speed>1.530000</speed>
</trkpt>
<trkpt lat="44.532524" lon="34.020805">
<ele>814.945801</ele>
<time>2011-10-11T14:34:27Z</time>
<desc>lat.=44.532524, lon.=34.020805, Alt.=814.945801m. Speed=6.192000m/h.</desc>
<speed>1.720000</speed>
</trkpt>
<trkpt lat="44.532448" lon="34.020767">
<ele>815.008301</ele>
<time>2011-10-11T14:34:32Z</time>
<desc>lat.=44.532448, lon.=34.020767, Alt.=815.008301m. Speed=5.364000m/h.</desc>
<speed>1.490000</speed>
</trkpt>
<trkpt lat="44.532410" lon="34.020733">
<ele>814.945801</ele>
<time>2011-10-11T14:34:37Z</time>
<desc>lat.=44.532410, lon.=34.020733, Alt.=814.945801m. Speed=3.204000m/h.</desc>
<speed>0.890000</speed>
</trkpt>
<trkpt lat="44.532387" lon="34.020687">
<ele>813.820801</ele>
<time>2011-10-11T14:34:42Z</time>
<desc>lat.=44.532387, lon.=34.020687, Alt.=813.820801m. Speed=2.232000m/h.</desc>
<speed>0.620000</speed>
</trkpt>
<trkpt lat="44.532360" lon="34.020660">
<ele>813.930176</ele>
<time>2011-10-11T14:34:47Z</time>
<desc>lat.=44.532360, lon.=34.020660, Alt.=813.930176m. Speed=4.572000m/h.</desc>
<speed>1.270000</speed>
</trkpt>
<trkpt lat="44.532314" lon="34.020599">
<ele>814.258301</ele>
<time>2011-10-11T14:34:52Z</time>
<desc>lat.=44.532314, lon.=34.020599, Alt.=814.258301m. Speed=4.536000m/h.</desc>
<speed>1.260000</speed>
</trkpt>
<trkpt lat="44.532284" lon="34.020527">
<ele>814.133301</ele>
<time>2011-10-11T14:34:57Z</time>
<desc>lat.=44.532284, lon.=34.020527, Alt.=814.133301m. Speed=6.264000m/h.</desc>
<speed>1.740000</speed>
</trkpt>
<trkpt lat="44.532265" lon="34.020435">
<ele>814.273926</ele>
<time>2011-10-11T14:35:02Z</time>
<desc>lat.=44.532265, lon.=34.020435, Alt.=814.273926m. Speed=6.516000m/h.</desc>
<speed>1.810000</speed>
</trkpt>
<trkpt lat="44.532253" lon="34.020348">
<ele>814.773926</ele>
<time>2011-10-11T14:35:07Z</time>
<desc>lat.=44.532253, lon.=34.020348, Alt.=814.773926m. Speed=5.400000m/h.</desc>
<speed>1.500000</speed>
</trkpt>
<trkpt lat="44.532242" lon="34.020256">
<ele>815.258301</ele>
<time>2011-10-11T14:35:12Z</time>
<desc>lat.=44.532242, lon.=34.020256, Alt.=815.258301m. Speed=4.248000m/h.</desc>
<speed>1.180000</speed>
</trkpt>
<trkpt lat="44.532223" lon="34.020180">
<ele>814.820801</ele>
<time>2011-10-11T14:35:17Z</time>
<desc>lat.=44.532223, lon.=34.020180, Alt.=814.820801m. Speed=4.824000m/h.</desc>
<speed>1.340000</speed>
</trkpt>
<trkpt lat="44.532196" lon="34.020100">
<ele>813.945801</ele>
<time>2011-10-11T14:35:22Z</time>
<desc>lat.=44.532196, lon.=34.020100, Alt.=813.945801m. Speed=7.236000m/h.</desc>
<speed>2.010000</speed>
</trkpt>
<trkpt lat="44.532166" lon="34.020016">
<ele>814.242676</ele>
<time>2011-10-11T14:35:27Z</time>
<desc>lat.=44.532166, lon.=34.020016, Alt.=814.242676m. Speed=3.492000m/h.</desc>
<speed>0.970000</speed>
</trkpt>
<trkpt lat="44.532150" lon="34.019951">
<ele>814.086426</ele>
<time>2011-10-11T14:35:32Z</time>
<desc>lat.=44.532150, lon.=34.019951, Alt.=814.086426m. Speed=4.032000m/h.</desc>
<speed>1.120000</speed>
</trkpt>
<trkpt lat="44.532146" lon="34.019897">
<ele>813.789551</ele>
<time>2011-10-11T14:35:37Z</time>
<desc>lat.=44.532146, lon.=34.019897, Alt.=813.789551m. Speed=4.536000m/h.</desc>
<speed>1.260000</speed>
</trkpt>
<trkpt lat="44.532078" lon="34.019844">
<ele>814.820801</ele>
<time>2011-10-11T14:35:42Z</time>
<desc>lat.=44.532078, lon.=34.019844, Alt.=814.820801m. Speed=2.880000m/h.</desc>
<speed>0.800000</speed>
</trkpt>
<trkpt lat="44.532066" lon="34.019798">
<ele>815.352051</ele>
<time>2011-10-11T14:35:47Z</time>
<desc>lat.=44.532066, lon.=34.019798, Alt.=815.352051m. Speed=2.880000m/h.</desc>
<speed>0.800000</speed>
</trkpt>
<trkpt lat="44.532032" lon="34.019756">
<ele>816.164551</ele>
<time>2011-10-11T14:35:52Z</time>
<desc>lat.=44.532032, lon.=34.019756, Alt.=816.164551m. Speed=3.636000m/h.</desc>
<speed>1.010000</speed>
</trkpt>
<trkpt lat="44.531998" lon="34.019714">
<ele>817.211426</ele>
<time>2011-10-11T14:35:57Z</time>
<desc>lat.=44.531998, lon.=34.019714, Alt.=817.211426m. Speed=2.772000m/h.</desc>
<speed>0.770000</speed>
</trkpt>
<trkpt lat="44.531960" lon="34.019653">
<ele>818.258301</ele>
<time>2011-10-11T14:36:02Z</time>
<desc>lat.=44.531960, lon.=34.019653, Alt.=818.258301m. Speed=4.392000m/h.</desc>
<speed>1.220000</speed>
</trkpt>
<trkpt lat="44.531914" lon="34.019608">
<ele>819.352051</ele>
<time>2011-10-11T14:36:07Z</time>
<desc>lat.=44.531914, lon.=34.019608, Alt.=819.352051m. Speed=3.312000m/h.</desc>
<speed>0.920000</speed>
</trkpt>
<trkpt lat="44.531895" lon="34.019550">
<ele>820.211426</ele>
<time>2011-10-11T14:36:12Z</time>
<desc>lat.=44.531895, lon.=34.019550, Alt.=820.211426m. Speed=2.736000m/h.</desc>
<speed>0.760000</speed>
</trkpt>
<trkpt lat="44.531845" lon="34.019505">
<ele>820.852051</ele>
<time>2011-10-11T14:36:17Z</time>
<desc>lat.=44.531845, lon.=34.019505, Alt.=820.852051m. Speed=3.132000m/h.</desc>
<speed>0.870000</speed>
</trkpt>
<trkpt lat="44.531796" lon="34.019485">
<ele>821.664551</ele>
<time>2011-10-11T14:36:22Z</time>
<desc>lat.=44.531796, lon.=34.019485, Alt.=821.664551m. Speed=2.628000m/h.</desc>
<speed>0.730000</speed>
</trkpt>
<trkpt lat="44.531761" lon="34.019451">
<ele>821.961426</ele>
<time>2011-10-11T14:36:27Z</time>
<desc>lat.=44.531761, lon.=34.019451, Alt.=821.961426m. Speed=1.692000m/h.</desc>
<speed>0.470000</speed>
</trkpt>
<trkpt lat="44.531662" lon="34.019379">
<ele>822.227051</ele>
<time>2011-10-11T14:36:32Z</time>
<desc>lat.=44.531662, lon.=34.019379, Alt.=822.227051m. Speed=3.816000m/h.</desc>
<speed>1.060000</speed>
</trkpt>
<trkpt lat="44.531590" lon="34.019356">
<ele>822.492676</ele>
<time>2011-10-11T14:36:37Z</time>
<desc>lat.=44.531590, lon.=34.019356, Alt.=822.492676m. Speed=3.168000m/h.</desc>
<speed>0.880000</speed>
</trkpt>
<trkpt lat="44.531490" lon="34.019344">
<ele>822.430176</ele>
<time>2011-10-11T14:36:42Z</time>
<desc>lat.=44.531490, lon.=34.019344, Alt.=822.430176m. Speed=3.708000m/h.</desc>
<speed>1.030000</speed>
</trkpt>
<trkpt lat="44.531395" lon="34.019302">
<ele>820.883301</ele>
<time>2011-10-11T14:36:47Z</time>
<desc>lat.=44.531395, lon.=34.019302, Alt.=820.883301m. Speed=2.556000m/h.</desc>
<speed>0.710000</speed>
</trkpt>
<trkpt lat="44.531322" lon="34.019337">
<ele>820.367676</ele>
<time>2011-10-11T14:36:52Z</time>
<desc>lat.=44.531322, lon.=34.019337, Alt.=820.367676m. Speed=4.212000m/h.</desc>
<speed>1.170000</speed>
</trkpt>
<trkpt lat="44.531242" lon="34.019390">
<ele>819.680176</ele>
<time>2011-10-11T14:36:57Z</time>
<desc>lat.=44.531242, lon.=34.019390, Alt.=819.680176m. Speed=5.796000m/h.</desc>
<speed>1.610000</speed>
</trkpt>
<trkpt lat="44.531185" lon="34.019394">
<ele>819.039551</ele>
<time>2011-10-11T14:37:02Z</time>
<desc>lat.=44.531185, lon.=34.019394, Alt.=819.039551m. Speed=5.256000m/h.</desc>
<speed>1.460000</speed>
</trkpt>
<trkpt lat="44.531120" lon="34.019398">
<ele>816.883301</ele>
<time>2011-10-11T14:37:07Z</time>
<desc>lat.=44.531120, lon.=34.019398, Alt.=816.883301m. Speed=5.760000m/h.</desc>
<speed>1.600000</speed>
</trkpt>
<trkpt lat="44.531052" lon="34.019405">
<ele>814.930176</ele>
<time>2011-10-11T14:37:12Z</time>
<desc>lat.=44.531052, lon.=34.019405, Alt.=814.930176m. Speed=6.732000m/h.</desc>
<speed>1.870000</speed>
</trkpt>
<trkpt lat="44.530987" lon="34.019455">
<ele>811.023926</ele>
<time>2011-10-11T14:37:17Z</time>
<desc>lat.=44.530987, lon.=34.019455, Alt.=811.023926m. Speed=5.688000m/h.</desc>
<speed>1.580000</speed>
</trkpt>
<trkpt lat="44.530926" lon="34.019459">
<ele>809.164551</ele>
<time>2011-10-11T14:37:22Z</time>
<desc>lat.=44.530926, lon.=34.019459, Alt.=809.164551m. Speed=5.148000m/h.</desc>
<speed>1.430000</speed>
</trkpt>
<trkpt lat="44.530891" lon="34.019424">
<ele>808.398926</ele>
<time>2011-10-11T14:37:27Z</time>
<desc>lat.=44.530891, lon.=34.019424, Alt.=808.398926m. Speed=1.800000m/h.</desc>
<speed>0.500000</speed>
</trkpt>
<trkpt lat="44.530872" lon="34.019424">
<ele>807.977051</ele>
<time>2011-10-11T14:37:32Z</time>
<desc>lat.=44.530872, lon.=34.019424, Alt.=807.977051m. Speed=3.420000m/h.</desc>
<speed>0.950000</speed>
</trkpt>
<trkpt lat="44.530842" lon="34.019379">
<ele>808.258301</ele>
<time>2011-10-11T14:37:37Z</time>
<desc>lat.=44.530842, lon.=34.019379, Alt.=808.258301m. Speed=2.412000m/h.</desc>
<speed>0.670000</speed>
</trkpt>
<trkpt lat="44.530811" lon="34.019329">
<ele>807.367676</ele>
<time>2011-10-11T14:37:42Z</time>
<desc>lat.=44.530811, lon.=34.019329, Alt.=807.367676m. Speed=5.040000m/h.</desc>
<speed>1.400000</speed>
</trkpt>
<trkpt lat="44.530781" lon="34.019310">
<ele>805.820801</ele>
<time>2011-10-11T14:37:47Z</time>
<desc>lat.=44.530781, lon.=34.019310, Alt.=805.820801m. Speed=3.996000m/h.</desc>
<speed>1.110000</speed>
</trkpt>
<trkpt lat="44.530739" lon="34.019279">
<ele>804.914551</ele>
<time>2011-10-11T14:37:52Z</time>
<desc>lat.=44.530739, lon.=34.019279, Alt.=804.914551m. Speed=2.988000m/h.</desc>
<speed>0.830000</speed>
</trkpt>
<trkpt lat="44.530731" lon="34.019249">
<ele>803.555176</ele>
<time>2011-10-11T14:37:57Z</time>
<desc>lat.=44.530731, lon.=34.019249, Alt.=803.555176m. Speed=1.692000m/h.</desc>
<speed>0.470000</speed>
</trkpt>
<trkpt lat="44.530708" lon="34.019238">
<ele>803.070801</ele>
<time>2011-10-11T14:38:02Z</time>
<desc>lat.=44.530708, lon.=34.019238, Alt.=803.070801m. Speed=1.764000m/h.</desc>
<speed>0.490000</speed>
</trkpt>
<trkpt lat="44.530708" lon="34.019260">
<ele>802.742676</ele>
<time>2011-10-11T14:38:07Z</time>
<desc>lat.=44.530708, lon.=34.019260, Alt.=802.742676m. Speed=0.504000m/h.</desc>
<speed>0.140000</speed>
</trkpt>
<trkpt lat="44.530727" lon="34.019264">
<ele>803.102051</ele>
<time>2011-10-11T14:38:12Z</time>
<desc>lat.=44.530727, lon.=34.019264, Alt.=803.102051m. Speed=0.504000m/h.</desc>
<speed>0.140000</speed>
</trkpt>
<trkpt lat="44.530727" lon="34.019264">
<ele>803.102051</ele>
<time>2011-10-11T14:38:17Z</time>
<desc>lat.=44.530727, lon.=34.019264, Alt.=803.102051m. Speed=1.368000m/h.</desc>
<speed>0.380000</speed>
</trkpt>
<trkpt lat="44.530762" lon="34.019218">
<ele>803.617676</ele>
<time>2011-10-11T14:38:22Z</time>
<desc>lat.=44.530762, lon.=34.019218, Alt.=803.617676m. Speed=4.572000m/h.</desc>
<speed>1.270000</speed>
</trkpt>
<trkpt lat="44.530796" lon="34.019157">
<ele>805.383301</ele>
<time>2011-10-11T14:38:27Z</time>
<desc>lat.=44.530796, lon.=34.019157, Alt.=805.383301m. Speed=4.248000m/h.</desc>
<speed>1.180000</speed>
</trkpt>
<trkpt lat="44.530830" lon="34.019119">
<ele>807.070801</ele>
<time>2011-10-11T14:38:32Z</time>
<desc>lat.=44.530830, lon.=34.019119, Alt.=807.070801m. Speed=2.880000m/h.</desc>
<speed>0.800000</speed>
</trkpt>
<trkpt lat="44.530842" lon="34.019054">
<ele>807.617676</ele>
<time>2011-10-11T14:38:37Z</time>
<desc>lat.=44.530842, lon.=34.019054, Alt.=807.617676m. Speed=4.608000m/h.</desc>
<speed>1.280000</speed>
</trkpt>
<trkpt lat="44.530842" lon="34.018982">
<ele>807.883301</ele>
<time>2011-10-11T14:38:42Z</time>
<desc>lat.=44.530842, lon.=34.018982, Alt.=807.883301m. Speed=3.348000m/h.</desc>
<speed>0.930000</speed>
</trkpt>
<trkpt lat="44.530849" lon="34.018932">
<ele>808.133301</ele>
<time>2011-10-11T14:38:47Z</time>
<desc>lat.=44.530849, lon.=34.018932, Alt.=808.133301m. Speed=3.204000m/h.</desc>
<speed>0.890000</speed>
</trkpt>
<trkpt lat="44.530869" lon="34.018867">
<ele>808.727051</ele>
<time>2011-10-11T14:38:52Z</time>
<desc>lat.=44.530869, lon.=34.018867, Alt.=808.727051m. Speed=4.464000m/h.</desc>
<speed>1.240000</speed>
</trkpt>
<trkpt lat="44.530853" lon="34.018818">
<ele>809.758301</ele>
<time>2011-10-11T14:38:57Z</time>
<desc>lat.=44.530853, lon.=34.018818, Alt.=809.758301m. Speed=2.124000m/h.</desc>
<speed>0.590000</speed>
</trkpt>
<trkpt lat="44.530872" lon="34.018761">
<ele>808.508301</ele>
<time>2011-10-11T14:39:02Z</time>
<desc>lat.=44.530872, lon.=34.018761, Alt.=808.508301m. Speed=5.544000m/h.</desc>
<speed>1.540000</speed>
</trkpt>
<trkpt lat="44.530872" lon="34.018703">
<ele>809.023926</ele>
<time>2011-10-11T14:39:07Z</time>
<desc>lat.=44.530872, lon.=34.018703, Alt.=809.023926m. Speed=2.412000m/h.</desc>
<speed>0.670000</speed>
</trkpt>
<trkpt lat="44.530869" lon="34.018677">
<ele>809.492676</ele>
<time>2011-10-11T14:39:12Z</time>
<desc>lat.=44.530869, lon.=34.018677, Alt.=809.492676m. Speed=0.900000m/h.</desc>
<speed>0.250000</speed>
</trkpt>
<trkpt lat="44.530853" lon="34.018669">
<ele>810.023926</ele>
<time>2011-10-11T14:39:17Z</time>
<desc>lat.=44.530853, lon.=34.018669, Alt.=810.023926m. Speed=1.044000m/h.</desc>
<speed>0.290000</speed>
</trkpt>
<trkpt lat="44.530865" lon="34.018581">
<ele>810.258301</ele>
<time>2011-10-11T14:39:22Z</time>
<desc>lat.=44.530865, lon.=34.018581, Alt.=810.258301m. Speed=3.420000m/h.</desc>
<speed>0.950000</speed>
</trkpt>
<trkpt lat="44.530869" lon="34.018536">
<ele>810.820801</ele>
<time>2011-10-11T14:39:27Z</time>
<desc>lat.=44.530869, lon.=34.018536, Alt.=810.820801m. Speed=2.088000m/h.</desc>
<speed>0.580000</speed>
</trkpt>
<trkpt lat="44.530872" lon="34.018494">
<ele>811.383301</ele>
<time>2011-10-11T14:39:32Z</time>
<desc>lat.=44.530872, lon.=34.018494, Alt.=811.383301m. Speed=2.268000m/h.</desc>
<speed>0.630000</speed>
</trkpt>
<trkpt lat="44.530869" lon="34.018436">
<ele>811.852051</ele>
<time>2011-10-11T14:39:37Z</time>
<desc>lat.=44.530869, lon.=34.018436, Alt.=811.852051m. Speed=3.528000m/h.</desc>
<speed>0.980000</speed>
</trkpt>
<trkpt lat="44.530857" lon="34.018383">
<ele>812.242676</ele>
<time>2011-10-11T14:39:42Z</time>
<desc>lat.=44.530857, lon.=34.018383, Alt.=812.242676m. Speed=3.240000m/h.</desc>
<speed>0.900000</speed>
</trkpt>
<trkpt lat="44.530876" lon="34.018318">
<ele>812.477051</ele>
<time>2011-10-11T14:39:47Z</time>
<desc>lat.=44.530876, lon.=34.018318, Alt.=812.477051m. Speed=1.908000m/h.</desc>
<speed>0.530000</speed>
</trkpt>
<trkpt lat="44.530888" lon="34.018288">
<ele>812.930176</ele>
<time>2011-10-11T14:39:52Z</time>
<desc>lat.=44.530888, lon.=34.018288, Alt.=812.930176m. Speed=1.656000m/h.</desc>
<speed>0.460000</speed>
</trkpt>
<trkpt lat="44.530949" lon="34.018246">
<ele>813.961426</ele>
<time>2011-10-11T14:39:57Z</time>
<desc>lat.=44.530949, lon.=34.018246, Alt.=813.961426m. Speed=1.944000m/h.</desc>
<speed>0.540000</speed>
</trkpt>
<trkpt lat="44.530960" lon="34.018188">
<ele>814.977051</ele>
<time>2011-10-11T14:40:02Z</time>
<desc>lat.=44.530960, lon.=34.018188, Alt.=814.977051m. Speed=3.564000m/h.</desc>
<speed>0.990000</speed>
</trkpt>
<trkpt lat="44.530972" lon="34.018112">
<ele>815.414551</ele>
<time>2011-10-11T14:40:07Z</time>
<desc>lat.=44.530972, lon.=34.018112, Alt.=815.414551m. Speed=3.564000m/h.</desc>
<speed>0.990000</speed>
</trkpt>
<trkpt lat="44.530956" lon="34.018017">
<ele>815.758301</ele>
<time>2011-10-11T14:40:12Z</time>
<desc>lat.=44.530956, lon.=34.018017, Alt.=815.758301m. Speed=5.328000m/h.</desc>
<speed>1.480000</speed>
</trkpt>
<trkpt lat="44.530952" lon="34.017948">
<ele>816.227051</ele>
<time>2011-10-11T14:40:17Z</time>
<desc>lat.=44.530952, lon.=34.017948, Alt.=816.227051m. Speed=3.672000m/h.</desc>
<speed>1.020000</speed>
</trkpt>
<trkpt lat="44.530964" lon="34.017895">
<ele>816.742676</ele>
<time>2011-10-11T14:40:22Z</time>
<desc>lat.=44.530964, lon.=34.017895, Alt.=816.742676m. Speed=3.744000m/h.</desc>
<speed>1.040000</speed>
</trkpt>
<trkpt lat="44.530972" lon="34.017799">
<ele>816.867676</ele>
<time>2011-10-11T14:40:27Z</time>
<desc>lat.=44.530972, lon.=34.017799, Alt.=816.867676m. Speed=3.456000m/h.</desc>
<speed>0.960000</speed>
</trkpt>
<trkpt lat="44.530987" lon="34.017754">
<ele>817.289551</ele>
<time>2011-10-11T14:40:32Z</time>
<desc>lat.=44.530987, lon.=34.017754, Alt.=817.289551m. Speed=2.700000m/h.</desc>
<speed>0.750000</speed>
</trkpt>
<trkpt lat="44.530991" lon="34.017719">
<ele>817.617676</ele>
<time>2011-10-11T14:40:37Z</time>
<desc>lat.=44.530991, lon.=34.017719, Alt.=817.617676m. Speed=2.124000m/h.</desc>
<speed>0.590000</speed>
</trkpt>
<trkpt lat="44.530994" lon="34.017685">
<ele>817.852051</ele>
<time>2011-10-11T14:40:42Z</time>
<desc>lat.=44.530994, lon.=34.017685, Alt.=817.852051m. Speed=2.016000m/h.</desc>
<speed>0.560000</speed>
</trkpt>
<trkpt lat="44.531002" lon="34.017601">
<ele>818.383301</ele>
<time>2011-10-11T14:40:47Z</time>
<desc>lat.=44.531002, lon.=34.017601, Alt.=818.383301m. Speed=3.456000m/h.</desc>
<speed>0.960000</speed>
</trkpt>
<trkpt lat="44.531002" lon="34.017578">
<ele>819.180176</ele>
<time>2011-10-11T14:40:52Z</time>
<desc>lat.=44.531002, lon.=34.017578, Alt.=819.180176m. Speed=1.512000m/h.</desc>
<speed>0.420000</speed>
</trkpt>
<trkpt lat="44.531017" lon="34.017529">
<ele>819.773926</ele>
<time>2011-10-11T14:40:57Z</time>
<desc>lat.=44.531017, lon.=34.017529, Alt.=819.773926m. Speed=0.828000m/h.</desc>
<speed>0.230000</speed>
</trkpt>
<trkpt lat="44.531013" lon="34.017471">
<ele>820.242676</ele>
<time>2011-10-11T14:41:02Z</time>
<desc>lat.=44.531013, lon.=34.017471, Alt.=820.242676m. Speed=1.116000m/h.</desc>
<speed>0.310000</speed>
</trkpt>
<trkpt lat="44.531025" lon="34.017437">
<ele>820.773926</ele>
<time>2011-10-11T14:41:07Z</time>
<desc>lat.=44.531025, lon.=34.017437, Alt.=820.773926m. Speed=0.504000m/h.</desc>
<speed>0.140000</speed>
</trkpt>
<trkpt lat="44.531013" lon="34.017441">
<ele>820.820801</ele>
<time>2011-10-11T14:41:12Z</time>
<desc>lat.=44.531013, lon.=34.017441, Alt.=820.820801m. Speed=1.260000m/h.</desc>
<speed>0.350000</speed>
</trkpt>
<trkpt lat="44.530983" lon="34.017429">
<ele>820.742676</ele>
<time>2011-10-11T14:41:17Z</time>
<desc>lat.=44.530983, lon.=34.017429, Alt.=820.742676m. Speed=1.548000m/h.</desc>
<speed>0.430000</speed>
</trkpt>
<trkpt lat="44.530994" lon="34.017433">
<ele>820.492676</ele>
<time>2011-10-11T14:41:22Z</time>
<desc>lat.=44.530994, lon.=34.017433, Alt.=820.492676m. Speed=0.072000m/h.</desc>
<speed>0.020000</speed>
</trkpt>
<trkpt lat="44.530991" lon="34.017433">
<ele>820.445801</ele>
<time>2011-10-11T14:41:27Z</time>
<desc>lat.=44.530991, lon.=34.017433, Alt.=820.445801m. Speed=0.612000m/h.</desc>
<speed>0.170000</speed>
</trkpt>
<trkpt lat="44.530987" lon="34.017433">
<ele>820.445801</ele>
<time>2011-10-11T14:41:32Z</time>
<desc>lat.=44.530987, lon.=34.017433, Alt.=820.445801m. Speed=0.612000m/h.</desc>
<speed>0.170000</speed>
</trkpt>
<trkpt lat="44.530975" lon="34.017418">
<ele>820.430176</ele>
<time>2011-10-11T14:41:37Z</time>
<desc>lat.=44.530975, lon.=34.017418, Alt.=820.430176m. Speed=1.584000m/h.</desc>
<speed>0.440000</speed>
</trkpt>
<trkpt lat="44.530975" lon="34.017365">
<ele>820.508301</ele>
<time>2011-10-11T14:41:42Z</time>
<desc>lat.=44.530975, lon.=34.017365, Alt.=820.508301m. Speed=2.880000m/h.</desc>
<speed>0.800000</speed>
</trkpt>
<trkpt lat="44.530975" lon="34.017277">
<ele>820.977051</ele>
<time>2011-10-11T14:41:47Z</time>
<desc>lat.=44.530975, lon.=34.017277, Alt.=820.977051m. Speed=2.340000m/h.</desc>
<speed>0.650000</speed>
</trkpt>
<trkpt lat="44.530964" lon="34.017200">
<ele>821.305176</ele>
<time>2011-10-11T14:41:52Z</time>
<desc>lat.=44.530964, lon.=34.017200, Alt.=821.305176m. Speed=2.592000m/h.</desc>
<speed>0.720000</speed>
</trkpt>
<trkpt lat="44.530918" lon="34.017155">
<ele>821.398926</ele>
<time>2011-10-11T14:41:57Z</time>
<desc>lat.=44.530918, lon.=34.017155, Alt.=821.398926m. Speed=3.564000m/h.</desc>
<speed>0.990000</speed>
</trkpt>
<trkpt lat="44.530872" lon="34.017109">
<ele>821.445801</ele>
<time>2011-10-11T14:42:02Z</time>
<desc>lat.=44.530872, lon.=34.017109, Alt.=821.445801m. Speed=3.276000m/h.</desc>
<speed>0.910000</speed>
</trkpt>
<trkpt lat="44.530807" lon="34.017059">
<ele>821.055176</ele>
<time>2011-10-11T14:42:07Z</time>
<desc>lat.=44.530807, lon.=34.017059, Alt.=821.055176m. Speed=2.376000m/h.</desc>
<speed>0.660000</speed>
</trkpt>
<trkpt lat="44.530800" lon="34.017025">
<ele>821.148926</ele>
<time>2011-10-11T14:42:12Z</time>
<desc>lat.=44.530800, lon.=34.017025, Alt.=821.148926m. Speed=1.476000m/h.</desc>
<speed>0.410000</speed>
</trkpt>
<trkpt lat="44.530758" lon="34.016960">
<ele>820.820801</ele>
<time>2011-10-11T14:42:17Z</time>
<desc>lat.=44.530758, lon.=34.016960, Alt.=820.820801m. Speed=2.772000m/h.</desc>
<speed>0.770000</speed>
</trkpt>
<trkpt lat="44.530735" lon="34.016899">
<ele>821.477051</ele>
<time>2011-10-11T14:42:22Z</time>
<desc>lat.=44.530735, lon.=34.016899, Alt.=821.477051m. Speed=3.384000m/h.</desc>
<speed>0.940000</speed>
</trkpt>
<trkpt lat="44.530697" lon="34.016827">
<ele>822.133301</ele>
<time>2011-10-11T14:42:27Z</time>
<desc>lat.=44.530697, lon.=34.016827, Alt.=822.133301m. Speed=3.528000m/h.</desc>
<speed>0.980000</speed>
</trkpt>
<trkpt lat="44.530689" lon="34.016747">
<ele>822.398926</ele>
<time>2011-10-11T14:42:32Z</time>
<desc>lat.=44.530689, lon.=34.016747, Alt.=822.398926m. Speed=3.348000m/h.</desc>
<speed>0.930000</speed>
</trkpt>
<trkpt lat="44.530651" lon="34.016663">
<ele>823.055176</ele>
<time>2011-10-11T14:42:37Z</time>
<desc>lat.=44.530651, lon.=34.016663, Alt.=823.055176m. Speed=3.420000m/h.</desc>
<speed>0.950000</speed>
</trkpt>
<trkpt lat="44.530579" lon="34.016663">
<ele>822.086426</ele>
<time>2011-10-11T14:42:42Z</time>
<desc>lat.=44.530579, lon.=34.016663, Alt.=822.086426m. Speed=3.780000m/h.</desc>
<speed>1.050000</speed>
</trkpt>
<trkpt lat="44.530510" lon="34.016644">
<ele>820.992676</ele>
<time>2011-10-11T14:42:47Z</time>
<desc>lat.=44.530510, lon.=34.016644, Alt.=820.992676m. Speed=3.780000m/h.</desc>
<speed>1.050000</speed>
</trkpt>
<trkpt lat="44.530468" lon="34.016617">
<ele>820.461426</ele>
<time>2011-10-11T14:42:52Z</time>
<desc>lat.=44.530468, lon.=34.016617, Alt.=820.461426m. Speed=2.916000m/h.</desc>
<speed>0.810000</speed>
</trkpt>
<trkpt lat="44.530449" lon="34.016590">
<ele>819.820801</ele>
<time>2011-10-11T14:42:57Z</time>
<desc>lat.=44.530449, lon.=34.016590, Alt.=819.820801m. Speed=2.412000m/h.</desc>
<speed>0.670000</speed>
</trkpt>
<trkpt lat="44.530426" lon="34.016560">
<ele>820.086426</ele>
<time>2011-10-11T14:43:02Z</time>
<desc>lat.=44.530426, lon.=34.016560, Alt.=820.086426m. Speed=2.808000m/h.</desc>
<speed>0.780000</speed>
</trkpt>
<trkpt lat="44.530369" lon="34.016541">
<ele>820.617676</ele>
<time>2011-10-11T14:43:07Z</time>
<desc>lat.=44.530369, lon.=34.016541, Alt.=820.617676m. Speed=3.132000m/h.</desc>
<speed>0.870000</speed>
</trkpt>
<trkpt lat="44.530334" lon="34.016518">
<ele>820.727051</ele>
<time>2011-10-11T14:43:12Z</time>
<desc>lat.=44.530334, lon.=34.016518, Alt.=820.727051m. Speed=3.348000m/h.</desc>
<speed>0.930000</speed>
</trkpt>
<trkpt lat="44.530308" lon="34.016499">
<ele>820.695801</ele>
<time>2011-10-11T14:43:17Z</time>
<desc>lat.=44.530308, lon.=34.016499, Alt.=820.695801m. Speed=1.872000m/h.</desc>
<speed>0.520000</speed>
</trkpt>
<trkpt lat="44.530289" lon="34.016514">
<ele>820.945801</ele>
<time>2011-10-11T14:43:22Z</time>
<desc>lat.=44.530289, lon.=34.016514, Alt.=820.945801m. Speed=1.944000m/h.</desc>
<speed>0.540000</speed>
</trkpt>
<trkpt lat="44.530277" lon="34.016510">
<ele>820.664551</ele>
<time>2011-10-11T14:43:27Z</time>
<desc>lat.=44.530277, lon.=34.016510, Alt.=820.664551m. Speed=0.108000m/h.</desc>
<speed>0.030000</speed>
</trkpt>
<trkpt lat="44.530277" lon="34.016510">
<ele>820.586426</ele>
<time>2011-10-11T14:43:32Z</time>
<desc>lat.=44.530277, lon.=34.016510, Alt.=820.586426m. Speed=0.432000m/h.</desc>
<speed>0.120000</speed>
</trkpt>
<trkpt lat="44.530281" lon="34.016464">
<ele>821.195801</ele>
<time>2011-10-11T14:43:37Z</time>
<desc>lat.=44.530281, lon.=34.016464, Alt.=821.195801m. Speed=4.824000m/h.</desc>
<speed>1.340000</speed>
</trkpt>
<trkpt lat="44.530289" lon="34.016403">
<ele>821.727051</ele>
<time>2011-10-11T14:43:42Z</time>
<desc>lat.=44.530289, lon.=34.016403, Alt.=821.727051m. Speed=3.456000m/h.</desc>
<speed>0.960000</speed>
</trkpt>
<trkpt lat="44.530319" lon="34.016338">
<ele>822.523926</ele>
<time>2011-10-11T14:43:47Z</time>
<desc>lat.=44.530319, lon.=34.016338, Alt.=822.523926m. Speed=5.616000m/h.</desc>
<speed>1.560000</speed>
</trkpt>
<trkpt lat="44.530357" lon="34.016296">
<ele>821.914551</ele>
<time>2011-10-11T14:43:52Z</time>
<desc>lat.=44.530357, lon.=34.016296, Alt.=821.914551m. Speed=4.284000m/h.</desc>
<speed>1.190000</speed>
</trkpt>
<trkpt lat="44.530388" lon="34.016281">
<ele>821.867676</ele>
<time>2011-10-11T14:43:57Z</time>
<desc>lat.=44.530388, lon.=34.016281, Alt.=821.867676m. Speed=2.664000m/h.</desc>
<speed>0.740000</speed>
</trkpt>
<trkpt lat="44.530399" lon="34.016232">
<ele>821.414551</ele>
<time>2011-10-11T14:44:02Z</time>
<desc>lat.=44.530399, lon.=34.016232, Alt.=821.414551m. Speed=3.744000m/h.</desc>
<speed>1.040000</speed>
</trkpt>
<trkpt lat="44.530407" lon="34.016167">
<ele>821.195801</ele>
<time>2011-10-11T14:44:07Z</time>
<desc>lat.=44.530407, lon.=34.016167, Alt.=821.195801m. Speed=3.852000m/h.</desc>
<speed>1.070000</speed>
</trkpt>
<trkpt lat="44.530415" lon="34.016109">
<ele>820.555176</ele>
<time>2011-10-11T14:44:12Z</time>
<desc>lat.=44.530415, lon.=34.016109, Alt.=820.555176m. Speed=4.140000m/h.</desc>
<speed>1.150000</speed>
</trkpt>
<trkpt lat="44.530430" lon="34.016048">
<ele>819.336426</ele>
<time>2011-10-11T14:44:17Z</time>
<desc>lat.=44.530430, lon.=34.016048, Alt.=819.336426m. Speed=4.968000m/h.</desc>
<speed>1.380000</speed>
</trkpt>
<trkpt lat="44.530449" lon="34.016010">
<ele>819.023926</ele>
<time>2011-10-11T14:44:22Z</time>
<desc>lat.=44.530449, lon.=34.016010, Alt.=819.023926m. Speed=1.728000m/h.</desc>
<speed>0.480000</speed>
</trkpt>
<trkpt lat="44.530430" lon="34.015965">
<ele>819.086426</ele>
<time>2011-10-11T14:44:27Z</time>
<desc>lat.=44.530430, lon.=34.015965, Alt.=819.086426m. Speed=2.592000m/h.</desc>
<speed>0.720000</speed>
</trkpt>
<trkpt lat="44.530426" lon="34.015930">
<ele>819.195801</ele>
<time>2011-10-11T14:44:32Z</time>
<desc>lat.=44.530426, lon.=34.015930, Alt.=819.195801m. Speed=1.404000m/h.</desc>
<speed>0.390000</speed>
</trkpt>
<trkpt lat="44.530434" lon="34.015911">
<ele>819.117676</ele>
<time>2011-10-11T14:44:37Z</time>
<desc>lat.=44.530434, lon.=34.015911, Alt.=819.117676m. Speed=1.224000m/h.</desc>
<speed>0.340000</speed>
</trkpt>
<trkpt lat="44.530445" lon="34.015873">
<ele>818.961426</ele>
<time>2011-10-11T14:44:42Z</time>
<desc>lat.=44.530445, lon.=34.015873, Alt.=818.961426m. Speed=1.512000m/h.</desc>
<speed>0.420000</speed>
</trkpt>
<trkpt lat="44.530441" lon="34.015831">
<ele>818.883301</ele>
<time>2011-10-11T14:44:47Z</time>
<desc>lat.=44.530441, lon.=34.015831, Alt.=818.883301m. Speed=1.908000m/h.</desc>
<speed>0.530000</speed>
</trkpt>
<trkpt lat="44.530449" lon="34.015785">
<ele>818.945801</ele>
<time>2011-10-11T14:44:52Z</time>
<desc>lat.=44.530449, lon.=34.015785, Alt.=818.945801m. Speed=2.052000m/h.</desc>
<speed>0.570000</speed>
</trkpt>
<trkpt lat="44.530449" lon="34.015717">
<ele>818.867676</ele>
<time>2011-10-11T14:44:57Z</time>
<desc>lat.=44.530449, lon.=34.015717, Alt.=818.867676m. Speed=2.592000m/h.</desc>
<speed>0.720000</speed>
</trkpt>
<trkpt lat="44.530491" lon="34.015629">
<ele>818.789551</ele>
<time>2011-10-11T14:45:02Z</time>
<desc>lat.=44.530491, lon.=34.015629, Alt.=818.789551m. Speed=2.520000m/h.</desc>
<speed>0.700000</speed>
</trkpt>
<trkpt lat="44.530502" lon="34.015602">
<ele>818.742676</ele>
<time>2011-10-11T14:45:07Z</time>
<desc>lat.=44.530502, lon.=34.015602, Alt.=818.742676m. Speed=1.224000m/h.</desc>
<speed>0.340000</speed>
</trkpt>
<trkpt lat="44.530491" lon="34.015560">
<ele>818.398926</ele>
<time>2011-10-11T14:45:12Z</time>
<desc>lat.=44.530491, lon.=34.015560, Alt.=818.398926m. Speed=1.440000m/h.</desc>
<speed>0.400000</speed>
</trkpt>
<trkpt lat="44.530479" lon="34.015484">
<ele>818.383301</ele>
<time>2011-10-11T14:45:17Z</time>
<desc>lat.=44.530479, lon.=34.015484, Alt.=818.383301m. Speed=3.492000m/h.</desc>
<speed>0.970000</speed>
</trkpt>
<trkpt lat="44.530514" lon="34.015400">
<ele>818.383301</ele>
<time>2011-10-11T14:45:22Z</time>
<desc>lat.=44.530514, lon.=34.015400, Alt.=818.383301m. Speed=2.988000m/h.</desc>
<speed>0.830000</speed>
</trkpt>
<trkpt lat="44.530514" lon="34.015335">
<ele>817.992676</ele>
<time>2011-10-11T14:45:27Z</time>
<desc>lat.=44.530514, lon.=34.015335, Alt.=817.992676m. Speed=3.060000m/h.</desc>
<speed>0.850000</speed>
</trkpt>
<trkpt lat="44.530499" lon="34.015289">
<ele>817.945801</ele>
<time>2011-10-11T14:45:32Z</time>
<desc>lat.=44.530499, lon.=34.015289, Alt.=817.945801m. Speed=2.340000m/h.</desc>
<speed>0.650000</speed>
</trkpt>
<trkpt lat="44.530483" lon="34.015224">
<ele>818.055176</ele>
<time>2011-10-11T14:45:37Z</time>
<desc>lat.=44.530483, lon.=34.015224, Alt.=818.055176m. Speed=1.908000m/h.</desc>
<speed>0.530000</speed>
</trkpt>
<trkpt lat="44.530491" lon="34.015171">
<ele>818.320801</ele>
<time>2011-10-11T14:45:42Z</time>
<desc>lat.=44.530491, lon.=34.015171, Alt.=818.320801m. Speed=2.592000m/h.</desc>
<speed>0.720000</speed>
</trkpt>
<trkpt lat="44.530453" lon="34.015091">
<ele>818.320801</ele>
<time>2011-10-11T14:45:47Z</time>
<desc>lat.=44.530453, lon.=34.015091, Alt.=818.320801m. Speed=3.996000m/h.</desc>
<speed>1.110000</speed>
</trkpt>
<trkpt lat="44.530396" lon="34.014988">
<ele>818.148926</ele>
<time>2011-10-11T14:45:52Z</time>
<desc>lat.=44.530396, lon.=34.014988, Alt.=818.148926m. Speed=4.212000m/h.</desc>
<speed>1.170000</speed>
</trkpt>
<trkpt lat="44.530354" lon="34.014950">
<ele>818.180176</ele>
<time>2011-10-11T14:45:57Z</time>
<desc>lat.=44.530354, lon.=34.014950, Alt.=818.180176m. Speed=2.700000m/h.</desc>
<speed>0.750000</speed>
</trkpt>
<trkpt lat="44.530293" lon="34.014847">
<ele>817.711426</ele>
<time>2011-10-11T14:46:02Z</time>
<desc>lat.=44.530293, lon.=34.014847, Alt.=817.711426m. Speed=2.700000m/h.</desc>
<speed>0.750000</speed>
</trkpt>
<trkpt lat="44.530254" lon="34.014782">
<ele>817.477051</ele>
<time>2011-10-11T14:46:07Z</time>
<desc>lat.=44.530254, lon.=34.014782, Alt.=817.477051m. Speed=2.772000m/h.</desc>
<speed>0.770000</speed>
</trkpt>
<trkpt lat="44.530235" lon="34.014721">
<ele>817.148926</ele>
<time>2011-10-11T14:46:12Z</time>
<desc>lat.=44.530235, lon.=34.014721, Alt.=817.148926m. Speed=3.312000m/h.</desc>
<speed>0.920000</speed>
</trkpt>
<trkpt lat="44.530231" lon="34.014679">
<ele>817.289551</ele>
<time>2011-10-11T14:46:17Z</time>
<desc>lat.=44.530231, lon.=34.014679, Alt.=817.289551m. Speed=2.016000m/h.</desc>
<speed>0.560000</speed>
</trkpt>
<trkpt lat="44.530247" lon="34.014595">
<ele>817.430176</ele>
<time>2011-10-11T14:46:22Z</time>
<desc>lat.=44.530247, lon.=34.014595, Alt.=817.430176m. Speed=4.572000m/h.</desc>
<speed>1.270000</speed>
</trkpt>
<trkpt lat="44.530239" lon="34.014530">
<ele>817.461426</ele>
<time>2011-10-11T14:46:27Z</time>
<desc>lat.=44.530239, lon.=34.014530, Alt.=817.461426m. Speed=3.996000m/h.</desc>
<speed>1.110000</speed>
</trkpt>
<trkpt lat="44.530193" lon="34.014454">
<ele>817.133301</ele>
<time>2011-10-11T14:46:32Z</time>
<desc>lat.=44.530193, lon.=34.014454, Alt.=817.133301m. Speed=3.420000m/h.</desc>
<speed>0.950000</speed>
</trkpt>
<trkpt lat="44.530190" lon="34.014393">
<ele>817.133301</ele>
<time>2011-10-11T14:46:37Z</time>
<desc>lat.=44.530190, lon.=34.014393, Alt.=817.133301m. Speed=3.168000m/h.</desc>
<speed>0.880000</speed>
</trkpt>
<trkpt lat="44.530186" lon="34.014328">
<ele>817.414551</ele>
<time>2011-10-11T14:46:42Z</time>
<desc>lat.=44.530186, lon.=34.014328, Alt.=817.414551m. Speed=2.880000m/h.</desc>
<speed>0.800000</speed>
</trkpt>
<trkpt lat="44.530178" lon="34.014263">
<ele>817.602051</ele>
<time>2011-10-11T14:46:47Z</time>
<desc>lat.=44.530178, lon.=34.014263, Alt.=817.602051m. Speed=3.744000m/h.</desc>
<speed>1.040000</speed>
</trkpt>
<trkpt lat="44.530117" lon="34.014206">
<ele>817.398926</ele>
<time>2011-10-11T14:46:52Z</time>
<desc>lat.=44.530117, lon.=34.014206, Alt.=817.398926m. Speed=2.844000m/h.</desc>
<speed>0.790000</speed>
</trkpt>
<trkpt lat="44.530033" lon="34.014111">
<ele>816.352051</ele>
<time>2011-10-11T14:46:57Z</time>
<desc>lat.=44.530033, lon.=34.014111, Alt.=816.352051m. Speed=1.440000m/h.</desc>
<speed>0.400000</speed>
</trkpt>
<trkpt lat="44.530022" lon="34.014072">
<ele>816.211426</ele>
<time>2011-10-11T14:47:02Z</time>
<desc>lat.=44.530022, lon.=34.014072, Alt.=816.211426m. Speed=2.124000m/h.</desc>
<speed>0.590000</speed>
</trkpt>
<trkpt lat="44.530006" lon="34.014030">
<ele>815.898926</ele>
<time>2011-10-11T14:47:07Z</time>
<desc>lat.=44.530006, lon.=34.014030, Alt.=815.898926m. Speed=2.664000m/h.</desc>
<speed>0.740000</speed>
</trkpt>
<trkpt lat="44.529961" lon="34.013943">
<ele>815.102051</ele>
<time>2011-10-11T14:47:12Z</time>
<desc>lat.=44.529961, lon.=34.013943, Alt.=815.102051m. Speed=1.872000m/h.</desc>
<speed>0.520000</speed>
</trkpt>
<trkpt lat="44.529930" lon="34.013905">
<ele>814.695801</ele>
<time>2011-10-11T14:47:17Z</time>
<desc>lat.=44.529930, lon.=34.013905, Alt.=814.695801m. Speed=3.204000m/h.</desc>
<speed>0.890000</speed>
</trkpt>
<trkpt lat="44.529922" lon="34.013863">
<ele>814.086426</ele>
<time>2011-10-11T14:47:22Z</time>
<desc>lat.=44.529922, lon.=34.013863, Alt.=814.086426m. Speed=2.880000m/h.</desc>
<speed>0.800000</speed>
</trkpt>
<trkpt lat="44.529896" lon="34.013802">
<ele>813.445801</ele>
<time>2011-10-11T14:47:27Z</time>
<desc>lat.=44.529896, lon.=34.013802, Alt.=813.445801m. Speed=4.068000m/h.</desc>
<speed>1.130000</speed>
</trkpt>
<trkpt lat="44.529877" lon="34.013718">
<ele>812.383301</ele>
<time>2011-10-11T14:47:32Z</time>
<desc>lat.=44.529877, lon.=34.013718, Alt.=812.383301m. Speed=3.024000m/h.</desc>
<speed>0.840000</speed>
</trkpt>
<trkpt lat="44.529861" lon="34.013649">
<ele>811.742676</ele>
<time>2011-10-11T14:47:37Z</time>
<desc>lat.=44.529861, lon.=34.013649, Alt.=811.742676m. Speed=1.656000m/h.</desc>
<speed>0.460000</speed>
</trkpt>
<trkpt lat="44.529812" lon="34.013634">
<ele>811.445801</ele>
<time>2011-10-11T14:47:42Z</time>
<desc>lat.=44.529812, lon.=34.013634, Alt.=811.445801m. Speed=2.340000m/h.</desc>
<speed>0.650000</speed>
</trkpt>
<trkpt lat="44.529789" lon="34.013561">
<ele>811.383301</ele>
<time>2011-10-11T14:47:47Z</time>
<desc>lat.=44.529789, lon.=34.013561, Alt.=811.383301m. Speed=2.160000m/h.</desc>
<speed>0.600000</speed>
</trkpt>
<trkpt lat="44.529774" lon="34.013485">
<ele>810.523926</ele>
<time>2011-10-11T14:47:52Z</time>
<desc>lat.=44.529774, lon.=34.013485, Alt.=810.523926m. Speed=2.736000m/h.</desc>
<speed>0.760000</speed>
</trkpt>
<trkpt lat="44.529705" lon="34.013397">
<ele>808.945801</ele>
<time>2011-10-11T14:47:57Z</time>
<desc>lat.=44.529705, lon.=34.013397, Alt.=808.945801m. Speed=3.816000m/h.</desc>
<speed>1.060000</speed>
</trkpt>
<trkpt lat="44.529659" lon="34.013325">
<ele>807.289551</ele>
<time>2011-10-11T14:48:02Z</time>
<desc>lat.=44.529659, lon.=34.013325, Alt.=807.289551m. Speed=4.392000m/h.</desc>
<speed>1.220000</speed>
</trkpt>
<trkpt lat="44.529633" lon="34.013268">
<ele>806.039551</ele>
<time>2011-10-11T14:48:07Z</time>
<desc>lat.=44.529633, lon.=34.013268, Alt.=806.039551m. Speed=3.312000m/h.</desc>
<speed>0.920000</speed>
</trkpt>
<trkpt lat="44.529583" lon="34.013203">
<ele>804.898926</ele>
<time>2011-10-11T14:48:12Z</time>
<desc>lat.=44.529583, lon.=34.013203, Alt.=804.898926m. Speed=1.548000m/h.</desc>
<speed>0.430000</speed>
</trkpt>
<trkpt lat="44.529545" lon="34.013172">
<ele>804.336426</ele>
<time>2011-10-11T14:48:17Z</time>
<desc>lat.=44.529545, lon.=34.013172, Alt.=804.336426m. Speed=2.340000m/h.</desc>
<speed>0.650000</speed>
</trkpt>
<trkpt lat="44.529522" lon="34.013145">
<ele>803.742676</ele>
<time>2011-10-11T14:48:22Z</time>
<desc>lat.=44.529522, lon.=34.013145, Alt.=803.742676m. Speed=1.944000m/h.</desc>
<speed>0.540000</speed>
</trkpt>
<trkpt lat="44.529476" lon="34.013111">
<ele>803.336426</ele>
<time>2011-10-11T14:48:27Z</time>
<desc>lat.=44.529476, lon.=34.013111, Alt.=803.336426m. Speed=4.572000m/h.</desc>
<speed>1.270000</speed>
</trkpt>
<trkpt lat="44.529442" lon="34.013016">
<ele>802.305176</ele>
<time>2011-10-11T14:48:32Z</time>
<desc>lat.=44.529442, lon.=34.013016, Alt.=802.305176m. Speed=3.924000m/h.</desc>
<speed>1.090000</speed>
</trkpt>
<trkpt lat="44.529438" lon="34.012939">
<ele>801.195801</ele>
<time>2011-10-11T14:48:37Z</time>
<desc>lat.=44.529438, lon.=34.012939, Alt.=801.195801m. Speed=3.708000m/h.</desc>
<speed>1.030000</speed>
</trkpt>
<trkpt lat="44.529377" lon="34.012863">
<ele>800.195801</ele>
<time>2011-10-11T14:48:42Z</time>
<desc>lat.=44.529377, lon.=34.012863, Alt.=800.195801m. Speed=4.392000m/h.</desc>
<speed>1.220000</speed>
</trkpt>
<trkpt lat="44.529385" lon="34.012768">
<ele>799.461426</ele>
<time>2011-10-11T14:48:47Z</time>
<desc>lat.=44.529385, lon.=34.012768, Alt.=799.461426m. Speed=4.212000m/h.</desc>
<speed>1.170000</speed>
</trkpt>
<trkpt lat="44.529408" lon="34.012703">
<ele>799.117676</ele>
<time>2011-10-11T14:48:52Z</time>
<desc>lat.=44.529408, lon.=34.012703, Alt.=799.117676m. Speed=3.888000m/h.</desc>
<speed>1.080000</speed>
</trkpt>
<trkpt lat="44.529392" lon="34.012642">
<ele>798.289551</ele>
<time>2011-10-11T14:48:57Z</time>
<desc>lat.=44.529392, lon.=34.012642, Alt.=798.289551m. Speed=4.500000m/h.</desc>
<speed>1.250000</speed>
</trkpt>
<trkpt lat="44.529358" lon="34.012516">
<ele>796.930176</ele>
<time>2011-10-11T14:49:02Z</time>
<desc>lat.=44.529358, lon.=34.012516, Alt.=796.930176m. Speed=3.816000m/h.</desc>
<speed>1.060000</speed>
</trkpt>
<trkpt lat="44.529354" lon="34.012440">
<ele>795.633301</ele>
<time>2011-10-11T14:49:07Z</time>
<desc>lat.=44.529354, lon.=34.012440, Alt.=795.633301m. Speed=5.292000m/h.</desc>
<speed>1.470000</speed>
</trkpt>
<trkpt lat="44.529354" lon="34.012375">
<ele>794.695801</ele>
<time>2011-10-11T14:49:12Z</time>
<desc>lat.=44.529354, lon.=34.012375, Alt.=794.695801m. Speed=2.808000m/h.</desc>
<speed>0.780000</speed>
</trkpt>
<trkpt lat="44.529366" lon="34.012299">
<ele>793.477051</ele>
<time>2011-10-11T14:49:17Z</time>
<desc>lat.=44.529366, lon.=34.012299, Alt.=793.477051m. Speed=3.348000m/h.</desc>
<speed>0.930000</speed>
</trkpt>
<trkpt lat="44.529369" lon="34.012241">
<ele>792.195801</ele>
<time>2011-10-11T14:49:22Z</time>
<desc>lat.=44.529369, lon.=34.012241, Alt.=792.195801m. Speed=4.104000m/h.</desc>
<speed>1.140000</speed>
</trkpt>
<trkpt lat="44.529408" lon="34.012146">
<ele>790.023926</ele>
<time>2011-10-11T14:49:27Z</time>
<desc>lat.=44.529408, lon.=34.012146, Alt.=790.023926m. Speed=3.384000m/h.</desc>
<speed>0.940000</speed>
</trkpt>
<trkpt lat="44.529396" lon="34.012081">
<ele>787.930176</ele>
<time>2011-10-11T14:49:32Z</time>
<desc>lat.=44.529396, lon.=34.012081, Alt.=787.930176m. Speed=2.628000m/h.</desc>
<speed>0.730000</speed>
</trkpt>
<trkpt lat="44.529396" lon="34.012016">
<ele>785.883301</ele>
<time>2011-10-11T14:49:37Z</time>
<desc>lat.=44.529396, lon.=34.012016, Alt.=785.883301m. Speed=2.196000m/h.</desc>
<speed>0.610000</speed>
</trkpt>
<trkpt lat="44.529392" lon="34.011951">
<ele>783.836426</ele>
<time>2011-10-11T14:49:42Z</time>
<desc>lat.=44.529392, lon.=34.011951, Alt.=783.836426m. Speed=3.096000m/h.</desc>
<speed>0.860000</speed>
</trkpt>
<trkpt lat="44.529400" lon="34.011875">
<ele>782.508301</ele>
<time>2011-10-11T14:49:47Z</time>
<desc>lat.=44.529400, lon.=34.011875, Alt.=782.508301m. Speed=3.240000m/h.</desc>
<speed>0.900000</speed>
</trkpt>
<trkpt lat="44.529408" lon="34.011829">
<ele>781.055176</ele>
<time>2011-10-11T14:49:52Z</time>
<desc>lat.=44.529408, lon.=34.011829, Alt.=781.055176m. Speed=1.656000m/h.</desc>
<speed>0.460000</speed>
</trkpt>
<trkpt lat="44.529415" lon="34.011757">
<ele>779.070801</ele>
<time>2011-10-11T14:49:57Z</time>
<desc>lat.=44.529415, lon.=34.011757, Alt.=779.070801m. Speed=3.636000m/h.</desc>
<speed>1.010000</speed>
</trkpt>
<trkpt lat="44.529392" lon="34.011677">
<ele>777.117676</ele>
<time>2011-10-11T14:50:02Z</time>
<desc>lat.=44.529392, lon.=34.011677, Alt.=777.117676m. Speed=3.924000m/h.</desc>
<speed>1.090000</speed>
</trkpt>
<trkpt lat="44.529423" lon="34.011581">
<ele>775.789551</ele>
<time>2011-10-11T14:50:07Z</time>
<desc>lat.=44.529423, lon.=34.011581, Alt.=775.789551m. Speed=2.808000m/h.</desc>
<speed>0.780000</speed>
</trkpt>
<trkpt lat="44.529427" lon="34.011528">
<ele>775.523926</ele>
<time>2011-10-11T14:50:12Z</time>
<desc>lat.=44.529427, lon.=34.011528, Alt.=775.523926m. Speed=2.160000m/h.</desc>
<speed>0.600000</speed>
</trkpt>
<trkpt lat="44.529415" lon="34.011482">
<ele>775.086426</ele>
<time>2011-10-11T14:50:17Z</time>
<desc>lat.=44.529415, lon.=34.011482, Alt.=775.086426m. Speed=1.908000m/h.</desc>
<speed>0.530000</speed>
</trkpt>
<trkpt lat="44.529411" lon="34.011375">
<ele>774.117676</ele>
<time>2011-10-11T14:50:22Z</time>
<desc>lat.=44.529411, lon.=34.011375, Alt.=774.117676m. Speed=3.600000m/h.</desc>
<speed>1.000000</speed>
</trkpt>
<trkpt lat="44.529411" lon="34.011288">
<ele>773.523926</ele>
<time>2011-10-11T14:50:27Z</time>
<desc>lat.=44.529411, lon.=34.011288, Alt.=773.523926m. Speed=3.168000m/h.</desc>
<speed>0.880000</speed>
</trkpt>
<trkpt lat="44.529396" lon="34.011234">
<ele>772.758301</ele>
<time>2011-10-11T14:50:32Z</time>
<desc>lat.=44.529396, lon.=34.011234, Alt.=772.758301m. Speed=2.736000m/h.</desc>
<speed>0.760000</speed>
</trkpt>
<trkpt lat="44.529392" lon="34.011185">
<ele>772.008301</ele>
<time>2011-10-11T14:50:37Z</time>
<desc>lat.=44.529392, lon.=34.011185, Alt.=772.008301m. Speed=2.952000m/h.</desc>
<speed>0.820000</speed>
</trkpt>
<trkpt lat="44.529381" lon="34.011070">
<ele>771.102051</ele>
<time>2011-10-11T14:50:42Z</time>
<desc>lat.=44.529381, lon.=34.011070, Alt.=771.102051m. Speed=3.672000m/h.</desc>
<speed>1.020000</speed>
</trkpt>
<trkpt lat="44.529362" lon="34.011017">
<ele>770.445801</ele>
<time>2011-10-11T14:50:47Z</time>
<desc>lat.=44.529362, lon.=34.011017, Alt.=770.445801m. Speed=2.700000m/h.</desc>
<speed>0.750000</speed>
</trkpt>
<trkpt lat="44.529369" lon="34.010941">
<ele>769.273926</ele>
<time>2011-10-11T14:50:52Z</time>
<desc>lat.=44.529369, lon.=34.010941, Alt.=769.273926m. Speed=2.700000m/h.</desc>
<speed>0.750000</speed>
</trkpt>
<trkpt lat="44.529381" lon="34.010891">
<ele>768.711426</ele>
<time>2011-10-11T14:50:57Z</time>
<desc>lat.=44.529381, lon.=34.010891, Alt.=768.711426m. Speed=2.736000m/h.</desc>
<speed>0.760000</speed>
</trkpt>
<trkpt lat="44.529369" lon="34.010822">
<ele>767.930176</ele>
<time>2011-10-11T14:51:02Z</time>
<desc>lat.=44.529369, lon.=34.010822, Alt.=767.930176m. Speed=3.420000m/h.</desc>
<speed>0.950000</speed>
</trkpt>
<trkpt lat="44.529358" lon="34.010746">
<ele>767.320801</ele>
<time>2011-10-11T14:51:07Z</time>
<desc>lat.=44.529358, lon.=34.010746, Alt.=767.320801m. Speed=3.852000m/h.</desc>
<speed>1.070000</speed>
</trkpt>
<trkpt lat="44.529350" lon="34.010700">
<ele>766.758301</ele>
<time>2011-10-11T14:51:12Z</time>
<desc>lat.=44.529350, lon.=34.010700, Alt.=766.758301m. Speed=2.556000m/h.</desc>
<speed>0.710000</speed>
</trkpt>
<trkpt lat="44.529320" lon="34.010635">
<ele>766.477051</ele>
<time>2011-10-11T14:51:17Z</time>
<desc>lat.=44.529320, lon.=34.010635, Alt.=766.477051m. Speed=2.844000m/h.</desc>
<speed>0.790000</speed>
</trkpt>
<trkpt lat="44.529278" lon="34.010567">
<ele>767.242676</ele>
<time>2011-10-11T14:51:22Z</time>
<desc>lat.=44.529278, lon.=34.010567, Alt.=767.242676m. Speed=2.844000m/h.</desc>
<speed>0.790000</speed>
</trkpt>
<trkpt lat="44.529224" lon="34.010517">
<ele>766.883301</ele>
<time>2011-10-11T14:51:27Z</time>
<desc>lat.=44.529224, lon.=34.010517, Alt.=766.883301m. Speed=4.464000m/h.</desc>
<speed>1.240000</speed>
</trkpt>
<trkpt lat="44.529202" lon="34.010452">
<ele>766.523926</ele>
<time>2011-10-11T14:51:32Z</time>
<desc>lat.=44.529202, lon.=34.010452, Alt.=766.523926m. Speed=3.636000m/h.</desc>
<speed>1.010000</speed>
</trkpt>
<trkpt lat="44.529171" lon="34.010414">
<ele>765.867676</ele>
<time>2011-10-11T14:51:37Z</time>
<desc>lat.=44.529171, lon.=34.010414, Alt.=765.867676m. Speed=2.412000m/h.</desc>
<speed>0.670000</speed>
</trkpt>
<trkpt lat="44.529137" lon="34.010330">
<ele>765.492676</ele>
<time>2011-10-11T14:51:42Z</time>
<desc>lat.=44.529137, lon.=34.010330, Alt.=765.492676m. Speed=3.456000m/h.</desc>
<speed>0.960000</speed>
</trkpt>
<trkpt lat="44.529083" lon="34.010223">
<ele>765.492676</ele>
<time>2011-10-11T14:51:47Z</time>
<desc>lat.=44.529083, lon.=34.010223, Alt.=765.492676m. Speed=3.852000m/h.</desc>
<speed>1.070000</speed>
</trkpt>
<trkpt lat="44.529041" lon="34.010181">
<ele>766.805176</ele>
<time>2011-10-11T14:51:52Z</time>
<desc>lat.=44.529041, lon.=34.010181, Alt.=766.805176m. Speed=1.368000m/h.</desc>
<speed>0.380000</speed>
</trkpt>
<trkpt lat="44.529003" lon="34.010178">
<ele>767.523926</ele>
<time>2011-10-11T14:51:57Z</time>
<desc>lat.=44.529003, lon.=34.010178, Alt.=767.523926m. Speed=2.952000m/h.</desc>
<speed>0.820000</speed>
</trkpt>
<trkpt lat="44.528976" lon="34.010113">
<ele>767.383301</ele>
<time>2011-10-11T14:52:02Z</time>
<desc>lat.=44.528976, lon.=34.010113, Alt.=767.383301m. Speed=3.744000m/h.</desc>
<speed>1.040000</speed>
</trkpt>
<trkpt lat="44.528923" lon="34.010078">
<ele>766.508301</ele>
<time>2011-10-11T14:52:07Z</time>
<desc>lat.=44.528923, lon.=34.010078, Alt.=766.508301m. Speed=3.996000m/h.</desc>
<speed>1.110000</speed>
</trkpt>
<trkpt lat="44.528896" lon="34.010017">
<ele>766.602051</ele>
<time>2011-10-11T14:52:12Z</time>
<desc>lat.=44.528896, lon.=34.010017, Alt.=766.602051m. Speed=3.636000m/h.</desc>
<speed>1.010000</speed>
</trkpt>
<trkpt lat="44.528881" lon="34.009914">
<ele>767.039551</ele>
<time>2011-10-11T14:52:17Z</time>
<desc>lat.=44.528881, lon.=34.009914, Alt.=767.039551m. Speed=1.692000m/h.</desc>
<speed>0.470000</speed>
</trkpt>
<trkpt lat="44.528843" lon="34.009850">
<ele>766.945801</ele>
<time>2011-10-11T14:52:22Z</time>
<desc>lat.=44.528843, lon.=34.009850, Alt.=766.945801m. Speed=4.824000m/h.</desc>
<speed>1.340000</speed>
</trkpt>
<trkpt lat="44.528835" lon="34.009777">
<ele>766.664551</ele>
<time>2011-10-11T14:52:27Z</time>
<desc>lat.=44.528835, lon.=34.009777, Alt.=766.664551m. Speed=2.736000m/h.</desc>
<speed>0.760000</speed>
</trkpt>
<trkpt lat="44.528805" lon="34.009689">
<ele>765.117676</ele>
<time>2011-10-11T14:52:32Z</time>
<desc>lat.=44.528805, lon.=34.009689, Alt.=765.117676m. Speed=2.484000m/h.</desc>
<speed>0.690000</speed>
</trkpt>
<trkpt lat="44.528812" lon="34.009636">
<ele>765.336426</ele>
<time>2011-10-11T14:52:37Z</time>
<desc>lat.=44.528812, lon.=34.009636, Alt.=765.336426m. Speed=3.060000m/h.</desc>
<speed>0.850000</speed>
</trkpt>
<trkpt lat="44.528816" lon="34.009556">
<ele>765.148926</ele>
<time>2011-10-11T14:52:42Z</time>
<desc>lat.=44.528816, lon.=34.009556, Alt.=765.148926m. Speed=4.104000m/h.</desc>
<speed>1.140000</speed>
</trkpt>
<trkpt lat="44.528782" lon="34.009483">
<ele>765.305176</ele>
<time>2011-10-11T14:52:47Z</time>
<desc>lat.=44.528782, lon.=34.009483, Alt.=765.305176m. Speed=3.888000m/h.</desc>
<speed>1.080000</speed>
</trkpt>
<trkpt lat="44.528778" lon="34.009399">
<ele>765.477051</ele>
<time>2011-10-11T14:52:52Z</time>
<desc>lat.=44.528778, lon.=34.009399, Alt.=765.477051m. Speed=3.672000m/h.</desc>
<speed>1.020000</speed>
</trkpt>
<trkpt lat="44.528793" lon="34.009315">
<ele>765.383301</ele>
<time>2011-10-11T14:52:57Z</time>
<desc>lat.=44.528793, lon.=34.009315, Alt.=765.383301m. Speed=3.348000m/h.</desc>
<speed>0.930000</speed>
</trkpt>
<trkpt lat="44.528801" lon="34.009209">
<ele>765.102051</ele>
<time>2011-10-11T14:53:02Z</time>
<desc>lat.=44.528801, lon.=34.009209, Alt.=765.102051m. Speed=3.996000m/h.</desc>
<speed>1.110000</speed>
</trkpt>
<trkpt lat="44.528736" lon="34.009148">
<ele>764.352051</ele>
<time>2011-10-11T14:53:07Z</time>
<desc>lat.=44.528736, lon.=34.009148, Alt.=764.352051m. Speed=3.780000m/h.</desc>
<speed>1.050000</speed>
</trkpt>
<trkpt lat="44.528679" lon="34.009083">
<ele>763.711426</ele>
<time>2011-10-11T14:53:12Z</time>
<desc>lat.=44.528679, lon.=34.009083, Alt.=763.711426m. Speed=3.636000m/h.</desc>
<speed>1.010000</speed>
</trkpt>
<trkpt lat="44.528606" lon="34.008999">
<ele>763.555176</ele>
<time>2011-10-11T14:53:17Z</time>
<desc>lat.=44.528606, lon.=34.008999, Alt.=763.555176m. Speed=4.428000m/h.</desc>
<speed>1.230000</speed>
</trkpt>
<trkpt lat="44.528584" lon="34.008919">
<ele>763.164551</ele>
<time>2011-10-11T14:53:22Z</time>
<desc>lat.=44.528584, lon.=34.008919, Alt.=763.164551m. Speed=2.556000m/h.</desc>
<speed>0.710000</speed>
</trkpt>
<trkpt lat="44.528576" lon="34.008839">
<ele>762.227051</ele>
<time>2011-10-11T14:53:27Z</time>
<desc>lat.=44.528576, lon.=34.008839, Alt.=762.227051m. Speed=3.024000m/h.</desc>
<speed>0.840000</speed>
</trkpt>
<trkpt lat="44.528557" lon="34.008770">
<ele>761.539551</ele>
<time>2011-10-11T14:53:32Z</time>
<desc>lat.=44.528557, lon.=34.008770, Alt.=761.539551m. Speed=3.060000m/h.</desc>
<speed>0.850000</speed>
</trkpt>
<trkpt lat="44.528576" lon="34.008667">
<ele>761.430176</ele>
<time>2011-10-11T14:53:37Z</time>
<desc>lat.=44.528576, lon.=34.008667, Alt.=761.430176m. Speed=3.060000m/h.</desc>
<speed>0.850000</speed>
</trkpt>
<trkpt lat="44.528538" lon="34.008610">
<ele>761.617676</ele>
<time>2011-10-11T14:53:42Z</time>
<desc>lat.=44.528538, lon.=34.008610, Alt.=761.617676m. Speed=3.420000m/h.</desc>
<speed>0.950000</speed>
</trkpt>
<trkpt lat="44.528461" lon="34.008553">
<ele>761.805176</ele>
<time>2011-10-11T14:53:47Z</time>
<desc>lat.=44.528461, lon.=34.008553, Alt.=761.805176m. Speed=2.628000m/h.</desc>
<speed>0.730000</speed>
</trkpt>
<trkpt lat="44.528439" lon="34.008472">
<ele>761.383301</ele>
<time>2011-10-11T14:53:52Z</time>
<desc>lat.=44.528439, lon.=34.008472, Alt.=761.383301m. Speed=4.140000m/h.</desc>
<speed>1.150000</speed>
</trkpt>
<trkpt lat="44.528393" lon="34.008400">
<ele>760.961426</ele>
<time>2011-10-11T14:53:57Z</time>
<desc>lat.=44.528393, lon.=34.008400, Alt.=760.961426m. Speed=4.032000m/h.</desc>
<speed>1.120000</speed>
</trkpt>
<trkpt lat="44.528355" lon="34.008320">
<ele>760.508301</ele>
<time>2011-10-11T14:54:02Z</time>
<desc>lat.=44.528355, lon.=34.008320, Alt.=760.508301m. Speed=3.780000m/h.</desc>
<speed>1.050000</speed>
</trkpt>
<trkpt lat="44.528343" lon="34.008240">
<ele>761.164551</ele>
<time>2011-10-11T14:54:07Z</time>
<desc>lat.=44.528343, lon.=34.008240, Alt.=761.164551m. Speed=4.104000m/h.</desc>
<speed>1.140000</speed>
</trkpt>
<trkpt lat="44.528305" lon="34.008183">
<ele>760.695801</ele>
<time>2011-10-11T14:54:12Z</time>
<desc>lat.=44.528305, lon.=34.008183, Alt.=760.695801m. Speed=2.556000m/h.</desc>
<speed>0.710000</speed>
</trkpt>
<trkpt lat="44.528259" lon="34.008137">
<ele>760.320801</ele>
<time>2011-10-11T14:54:17Z</time>
<desc>lat.=44.528259, lon.=34.008137, Alt.=760.320801m. Speed=2.808000m/h.</desc>
<speed>0.780000</speed>
</trkpt>
<trkpt lat="44.528202" lon="34.008095">
<ele>759.977051</ele>
<time>2011-10-11T14:54:22Z</time>
<desc>lat.=44.528202, lon.=34.008095, Alt.=759.977051m. Speed=3.888000m/h.</desc>
<speed>1.080000</speed>
</trkpt>
<trkpt lat="44.528133" lon="34.008011">
<ele>759.633301</ele>
<time>2011-10-11T14:54:27Z</time>
<desc>lat.=44.528133, lon.=34.008011, Alt.=759.633301m. Speed=4.212000m/h.</desc>
<speed>1.170000</speed>
</trkpt>
<trkpt lat="44.528091" lon="34.007923">
<ele>759.320801</ele>
<time>2011-10-11T14:54:32Z</time>
<desc>lat.=44.528091, lon.=34.007923, Alt.=759.320801m. Speed=3.888000m/h.</desc>
<speed>1.080000</speed>
</trkpt>
<trkpt lat="44.528057" lon="34.007835">
<ele>758.836426</ele>
<time>2011-10-11T14:54:37Z</time>
<desc>lat.=44.528057, lon.=34.007835, Alt.=758.836426m. Speed=3.744000m/h.</desc>
<speed>1.040000</speed>
</trkpt>
<trkpt lat="44.528019" lon="34.007755">
<ele>758.914551</ele>
<time>2011-10-11T14:54:42Z</time>
<desc>lat.=44.528019, lon.=34.007755, Alt.=758.914551m. Speed=3.960000m/h.</desc>
<speed>1.100000</speed>
</trkpt>
<trkpt lat="44.527946" lon="34.007679">
<ele>759.055176</ele>
<time>2011-10-11T14:54:47Z</time>
<desc>lat.=44.527946, lon.=34.007679, Alt.=759.055176m. Speed=4.320000m/h.</desc>
<speed>1.200000</speed>
</trkpt>
<trkpt lat="44.527851" lon="34.007607">
<ele>758.289551</ele>
<time>2011-10-11T14:54:52Z</time>
<desc>lat.=44.527851, lon.=34.007607, Alt.=758.289551m. Speed=3.960000m/h.</desc>
<speed>1.100000</speed>
</trkpt>
<trkpt lat="44.527802" lon="34.007538">
<ele>758.180176</ele>
<time>2011-10-11T14:54:57Z</time>
<desc>lat.=44.527802, lon.=34.007538, Alt.=758.180176m. Speed=5.040000m/h.</desc>
<speed>1.400000</speed>
</trkpt>
<trkpt lat="44.527786" lon="34.007469">
<ele>757.742676</ele>
<time>2011-10-11T14:55:02Z</time>
<desc>lat.=44.527786, lon.=34.007469, Alt.=757.742676m. Speed=3.744000m/h.</desc>
<speed>1.040000</speed>
</trkpt>
<trkpt lat="44.527775" lon="34.007408">
<ele>757.180176</ele>
<time>2011-10-11T14:55:07Z</time>
<desc>lat.=44.527775, lon.=34.007408, Alt.=757.180176m. Speed=3.348000m/h.</desc>
<speed>0.930000</speed>
</trkpt>
<trkpt lat="44.527756" lon="34.007336">
<ele>756.398926</ele>
<time>2011-10-11T14:55:12Z</time>
<desc>lat.=44.527756, lon.=34.007336, Alt.=756.398926m. Speed=3.564000m/h.</desc>
<speed>0.990000</speed>
</trkpt>
<trkpt lat="44.527702" lon="34.007233">
<ele>756.367676</ele>
<time>2011-10-11T14:55:17Z</time>
<desc>lat.=44.527702, lon.=34.007233, Alt.=756.367676m. Speed=5.040000m/h.</desc>
<speed>1.400000</speed>
</trkpt>
<trkpt lat="44.527668" lon="34.007153">
<ele>755.633301</ele>
<time>2011-10-11T14:55:22Z</time>
<desc>lat.=44.527668, lon.=34.007153, Alt.=755.633301m. Speed=5.220000m/h.</desc>
<speed>1.450000</speed>
</trkpt>
<trkpt lat="44.527634" lon="34.007088">
<ele>754.555176</ele>
<time>2011-10-11T14:55:27Z</time>
<desc>lat.=44.527634, lon.=34.007088, Alt.=754.555176m. Speed=2.808000m/h.</desc>
<speed>0.780000</speed>
</trkpt>
<trkpt lat="44.527565" lon="34.007000">
<ele>753.117676</ele>
<time>2011-10-11T14:55:32Z</time>
<desc>lat.=44.527565, lon.=34.007000, Alt.=753.117676m. Speed=3.240000m/h.</desc>
<speed>0.900000</speed>
</trkpt>
<trkpt lat="44.527523" lon="34.006901">
<ele>752.258301</ele>
<time>2011-10-11T14:55:37Z</time>
<desc>lat.=44.527523, lon.=34.006901, Alt.=752.258301m. Speed=4.464000m/h.</desc>
<speed>1.240000</speed>
</trkpt>
<trkpt lat="44.527473" lon="34.006802">
<ele>750.758301</ele>
<time>2011-10-11T14:55:42Z</time>
<desc>lat.=44.527473, lon.=34.006802, Alt.=750.758301m. Speed=2.844000m/h.</desc>
<speed>0.790000</speed>
</trkpt>
<trkpt lat="44.527443" lon="34.006783">
<ele>751.930176</ele>
<time>2011-10-11T14:55:47Z</time>
<desc>lat.=44.527443, lon.=34.006783, Alt.=751.930176m. Speed=1.332000m/h.</desc>
<speed>0.370000</speed>
</trkpt>
<trkpt lat="44.527397" lon="34.006760">
<ele>751.867676</ele>
<time>2011-10-11T14:55:52Z</time>
<desc>lat.=44.527397, lon.=34.006760, Alt.=751.867676m. Speed=1.152000m/h.</desc>
<speed>0.320000</speed>
</trkpt>
<trkpt lat="44.527370" lon="34.006752">
<ele>750.852051</ele>
<time>2011-10-11T14:55:57Z</time>
<desc>lat.=44.527370, lon.=34.006752, Alt.=750.852051m. Speed=0.360000m/h.</desc>
<speed>0.100000</speed>
</trkpt>
<trkpt lat="44.527367" lon="34.006748">
<ele>750.867676</ele>
<time>2011-10-11T14:56:02Z</time>
<desc>lat.=44.527367, lon.=34.006748, Alt.=750.867676m. Speed=0.972000m/h.</desc>
<speed>0.270000</speed>
</trkpt>
<trkpt lat="44.527363" lon="34.006744">
<ele>750.930176</ele>
<time>2011-10-11T14:56:07Z</time>
<desc>lat.=44.527363, lon.=34.006744, Alt.=750.930176m. Speed=0.936000m/h.</desc>
<speed>0.260000</speed>
</trkpt>
<trkpt lat="44.527355" lon="34.006741">
<ele>751.320801</ele>
<time>2011-10-11T14:56:12Z</time>
<desc>lat.=44.527355, lon.=34.006741, Alt.=751.320801m. Speed=0.252000m/h.</desc>
<speed>0.070000</speed>
</trkpt>
<trkpt lat="44.527348" lon="34.006741">
<ele>751.352051</ele>
<time>2011-10-11T14:56:17Z</time>
<desc>lat.=44.527348, lon.=34.006741, Alt.=751.352051m. Speed=0.180000m/h.</desc>
<speed>0.050000</speed>
</trkpt>
<trkpt lat="44.527348" lon="34.006741">
<ele>751.258301</ele>
<time>2011-10-11T14:56:22Z</time>
<desc>lat.=44.527348, lon.=34.006741, Alt.=751.258301m. Speed=0.108000m/h.</desc>
<speed>0.030000</speed>
</trkpt>
<trkpt lat="44.527348" lon="34.006741">
<ele>751.227051</ele>
<time>2011-10-11T14:56:27Z</time>
<desc>lat.=44.527348, lon.=34.006741, Alt.=751.227051m. Speed=0.180000m/h.</desc>
<speed>0.050000</speed>
</trkpt>
<trkpt lat="44.527344" lon="34.006752">
<ele>751.305176</ele>
<time>2011-10-11T14:56:32Z</time>
<desc>lat.=44.527344, lon.=34.006752, Alt.=751.305176m. Speed=5.508000m/h.</desc>
<speed>1.530000</speed>
</trkpt>
<trkpt lat="44.527328" lon="34.006756">
<ele>751.398926</ele>
<time>2011-10-11T14:56:37Z</time>
<desc>lat.=44.527328, lon.=34.006756, Alt.=751.398926m. Speed=1.116000m/h.</desc>
<speed>0.310000</speed>
</trkpt>
<trkpt lat="44.527321" lon="34.006752">
<ele>751.352051</ele>
<time>2011-10-11T14:56:42Z</time>
<desc>lat.=44.527321, lon.=34.006752, Alt.=751.352051m. Speed=0.180000m/h.</desc>
<speed>0.050000</speed>
</trkpt>
<trkpt lat="44.527321" lon="34.006748">
<ele>751.430176</ele>
<time>2011-10-11T14:56:47Z</time>
<desc>lat.=44.527321, lon.=34.006748, Alt.=751.430176m. Speed=0.504000m/h.</desc>
<speed>0.140000</speed>
</trkpt>
<trkpt lat="44.527317" lon="34.006744">
<ele>751.523926</ele>
<time>2011-10-11T14:56:52Z</time>
<desc>lat.=44.527317, lon.=34.006744, Alt.=751.523926m. Speed=0.900000m/h.</desc>
<speed>0.250000</speed>
</trkpt>
<trkpt lat="44.527309" lon="34.006729">
<ele>751.492676</ele>
<time>2011-10-11T14:56:57Z</time>
<desc>lat.=44.527309, lon.=34.006729, Alt.=751.492676m. Speed=1.044000m/h.</desc>
<speed>0.290000</speed>
</trkpt>
<trkpt lat="44.527309" lon="34.006702">
<ele>751.539551</ele>
<time>2011-10-11T14:57:02Z</time>
<desc>lat.=44.527309, lon.=34.006702, Alt.=751.539551m. Speed=1.692000m/h.</desc>
<speed>0.470000</speed>
</trkpt>
<trkpt lat="44.527302" lon="34.006691">
<ele>751.648926</ele>
<time>2011-10-11T14:57:07Z</time>
<desc>lat.=44.527302, lon.=34.006691, Alt.=751.648926m. Speed=1.548000m/h.</desc>
<speed>0.430000</speed>
</trkpt>
<trkpt lat="44.527294" lon="34.006664">
<ele>751.773926</ele>
<time>2011-10-11T14:57:12Z</time>
<desc>lat.=44.527294, lon.=34.006664, Alt.=751.773926m. Speed=1.656000m/h.</desc>
<speed>0.460000</speed>
</trkpt>
<trkpt lat="44.527275" lon="34.006630">
<ele>751.852051</ele>
<time>2011-10-11T14:57:17Z</time>
<desc>lat.=44.527275, lon.=34.006630, Alt.=751.852051m. Speed=2.052000m/h.</desc>
<speed>0.570000</speed>
</trkpt>
<trkpt lat="44.527256" lon="34.006599">
<ele>751.914551</ele>
<time>2011-10-11T14:57:22Z</time>
<desc>lat.=44.527256, lon.=34.006599, Alt.=751.914551m. Speed=2.592000m/h.</desc>
<speed>0.720000</speed>
</trkpt>
<trkpt lat="44.527237" lon="34.006546">
<ele>752.117676</ele>
<time>2011-10-11T14:57:27Z</time>
<desc>lat.=44.527237, lon.=34.006546, Alt.=752.117676m. Speed=2.484000m/h.</desc>
<speed>0.690000</speed>
</trkpt>
<trkpt lat="44.527206" lon="34.006500">
<ele>752.398926</ele>
<time>2011-10-11T14:57:32Z</time>
<desc>lat.=44.527206, lon.=34.006500, Alt.=752.398926m. Speed=2.772000m/h.</desc>
<speed>0.770000</speed>
</trkpt>
<trkpt lat="44.527164" lon="34.006443">
<ele>752.727051</ele>
<time>2011-10-11T14:57:37Z</time>
<desc>lat.=44.527164, lon.=34.006443, Alt.=752.727051m. Speed=2.916000m/h.</desc>
<speed>0.810000</speed>
</trkpt>
<trkpt lat="44.527142" lon="34.006378">
<ele>753.180176</ele>
<time>2011-10-11T14:57:42Z</time>
<desc>lat.=44.527142, lon.=34.006378, Alt.=753.180176m. Speed=2.376000m/h.</desc>
<speed>0.660000</speed>
</trkpt>
<trkpt lat="44.527103" lon="34.006283">
<ele>753.430176</ele>
<time>2011-10-11T14:57:47Z</time>
<desc>lat.=44.527103, lon.=34.006283, Alt.=753.430176m. Speed=3.744000m/h.</desc>
<speed>1.040000</speed>
</trkpt>
<trkpt lat="44.527084" lon="34.006187">
<ele>753.539551</ele>
<time>2011-10-11T14:57:52Z</time>
<desc>lat.=44.527084, lon.=34.006187, Alt.=753.539551m. Speed=3.600000m/h.</desc>
<speed>1.000000</speed>
</trkpt>
<trkpt lat="44.527069" lon="34.006077">
<ele>753.648926</ele>
<time>2011-10-11T14:57:57Z</time>
<desc>lat.=44.527069, lon.=34.006077, Alt.=753.648926m. Speed=4.068000m/h.</desc>
<speed>1.130000</speed>
</trkpt>
<trkpt lat="44.527031" lon="34.005985">
<ele>753.742676</ele>
<time>2011-10-11T14:58:02Z</time>
<desc>lat.=44.527031, lon.=34.005985, Alt.=753.742676m. Speed=3.888000m/h.</desc>
<speed>1.080000</speed>
</trkpt>
<trkpt lat="44.527008" lon="34.005909">
<ele>753.961426</ele>
<time>2011-10-11T14:58:07Z</time>
<desc>lat.=44.527008, lon.=34.005909, Alt.=753.961426m. Speed=3.456000m/h.</desc>
<speed>0.960000</speed>
</trkpt>
<trkpt lat="44.526981" lon="34.005833">
<ele>754.180176</ele>
<time>2011-10-11T14:58:12Z</time>
<desc>lat.=44.526981, lon.=34.005833, Alt.=754.180176m. Speed=3.276000m/h.</desc>
<speed>0.910000</speed>
</trkpt>
<trkpt lat="44.526951" lon="34.005753">
<ele>754.289551</ele>
<time>2011-10-11T14:58:17Z</time>
<desc>lat.=44.526951, lon.=34.005753, Alt.=754.289551m. Speed=3.600000m/h.</desc>
<speed>1.000000</speed>
</trkpt>
<trkpt lat="44.526939" lon="34.005688">
<ele>754.414551</ele>
<time>2011-10-11T14:58:22Z</time>
<desc>lat.=44.526939, lon.=34.005688, Alt.=754.414551m. Speed=2.628000m/h.</desc>
<speed>0.730000</speed>
</trkpt>
<trkpt lat="44.526932" lon="34.005573">
<ele>754.414551</ele>
<time>2011-10-11T14:58:27Z</time>
<desc>lat.=44.526932, lon.=34.005573, Alt.=754.414551m. Speed=3.348000m/h.</desc>
<speed>0.930000</speed>
</trkpt>
<trkpt lat="44.526882" lon="34.005489">
<ele>754.102051</ele>
<time>2011-10-11T14:58:32Z</time>
<desc>lat.=44.526882, lon.=34.005489, Alt.=754.102051m. Speed=3.420000m/h.</desc>
<speed>0.950000</speed>
</trkpt>
<trkpt lat="44.526859" lon="34.005421">
<ele>753.883301</ele>
<time>2011-10-11T14:58:37Z</time>
<desc>lat.=44.526859, lon.=34.005421, Alt.=753.883301m. Speed=2.736000m/h.</desc>
<speed>0.760000</speed>
</trkpt>
<trkpt lat="44.526852" lon="34.005333">
<ele>753.914551</ele>
<time>2011-10-11T14:58:42Z</time>
<desc>lat.=44.526852, lon.=34.005333, Alt.=753.914551m. Speed=3.024000m/h.</desc>
<speed>0.840000</speed>
</trkpt>
<trkpt lat="44.526825" lon="34.005272">
<ele>753.852051</ele>
<time>2011-10-11T14:58:47Z</time>
<desc>lat.=44.526825, lon.=34.005272, Alt.=753.852051m. Speed=2.340000m/h.</desc>
<speed>0.650000</speed>
</trkpt>
<trkpt lat="44.526798" lon="34.005222">
<ele>753.680176</ele>
<time>2011-10-11T14:58:52Z</time>
<desc>lat.=44.526798, lon.=34.005222, Alt.=753.680176m. Speed=2.088000m/h.</desc>
<speed>0.580000</speed>
</trkpt>
<trkpt lat="44.526741" lon="34.005150">
<ele>752.945801</ele>
<time>2011-10-11T14:58:57Z</time>
<desc>lat.=44.526741, lon.=34.005150, Alt.=752.945801m. Speed=2.484000m/h.</desc>
<speed>0.690000</speed>
</trkpt>
<trkpt lat="44.526680" lon="34.005070">
<ele>752.461426</ele>
<time>2011-10-11T14:59:02Z</time>
<desc>lat.=44.526680, lon.=34.005070, Alt.=752.461426m. Speed=2.592000m/h.</desc>
<speed>0.720000</speed>
</trkpt>
<trkpt lat="44.526627" lon="34.004990">
<ele>752.195801</ele>
<time>2011-10-11T14:59:07Z</time>
<desc>lat.=44.526627, lon.=34.004990, Alt.=752.195801m. Speed=2.520000m/h.</desc>
<speed>0.700000</speed>
</trkpt>
<trkpt lat="44.526638" lon="34.004951">
<ele>752.273926</ele>
<time>2011-10-11T14:59:12Z</time>
<desc>lat.=44.526638, lon.=34.004951, Alt.=752.273926m. Speed=1.548000m/h.</desc>
<speed>0.430000</speed>
</trkpt>
<trkpt lat="44.526642" lon="34.004932">
<ele>752.180176</ele>
<time>2011-10-11T14:59:17Z</time>
<desc>lat.=44.526642, lon.=34.004932, Alt.=752.180176m. Speed=1.332000m/h.</desc>
<speed>0.370000</speed>
</trkpt>
<trkpt lat="44.526638" lon="34.004906">
<ele>752.023926</ele>
<time>2011-10-11T14:59:22Z</time>
<desc>lat.=44.526638, lon.=34.004906, Alt.=752.023926m. Speed=1.332000m/h.</desc>
<speed>0.370000</speed>
</trkpt>
<trkpt lat="44.526657" lon="34.004818">
<ele>751.711426</ele>
<time>2011-10-11T14:59:27Z</time>
<desc>lat.=44.526657, lon.=34.004818, Alt.=751.711426m. Speed=2.340000m/h.</desc>
<speed>0.650000</speed>
</trkpt>
<trkpt lat="44.526661" lon="34.004719">
<ele>751.289551</ele>
<time>2011-10-11T14:59:32Z</time>
<desc>lat.=44.526661, lon.=34.004719, Alt.=751.289551m. Speed=2.988000m/h.</desc>
<speed>0.830000</speed>
</trkpt>
<trkpt lat="44.526646" lon="34.004639">
<ele>750.945801</ele>
<time>2011-10-11T14:59:37Z</time>
<desc>lat.=44.526646, lon.=34.004639, Alt.=750.945801m. Speed=2.844000m/h.</desc>
<speed>0.790000</speed>
</trkpt>
<trkpt lat="44.526646" lon="34.004566">
<ele>750.602051</ele>
<time>2011-10-11T14:59:42Z</time>
<desc>lat.=44.526646, lon.=34.004566, Alt.=750.602051m. Speed=2.808000m/h.</desc>
<speed>0.780000</speed>
</trkpt>
<trkpt lat="44.526691" lon="34.004444">
<ele>750.211426</ele>
<time>2011-10-11T14:59:47Z</time>
<desc>lat.=44.526691, lon.=34.004444, Alt.=750.211426m. Speed=3.312000m/h.</desc>
<speed>0.920000</speed>
</trkpt>
<trkpt lat="44.526676" lon="34.004398">
<ele>749.961426</ele>
<time>2011-10-11T14:59:52Z</time>
<desc>lat.=44.526676, lon.=34.004398, Alt.=749.961426m. Speed=2.664000m/h.</desc>
<speed>0.740000</speed>
</trkpt>
<trkpt lat="44.526684" lon="34.004353">
<ele>749.711426</ele>
<time>2011-10-11T14:59:57Z</time>
<desc>lat.=44.526684, lon.=34.004353, Alt.=749.711426m. Speed=2.052000m/h.</desc>
<speed>0.570000</speed>
</trkpt>
<trkpt lat="44.526669" lon="34.004272">
<ele>749.273926</ele>
<time>2011-10-11T15:00:02Z</time>
<desc>lat.=44.526669, lon.=34.004272, Alt.=749.273926m. Speed=2.052000m/h.</desc>
<speed>0.570000</speed>
</trkpt>
<trkpt lat="44.526688" lon="34.004150">
<ele>748.445801</ele>
<time>2011-10-11T15:00:07Z</time>
<desc>lat.=44.526688, lon.=34.004150, Alt.=748.445801m. Speed=3.096000m/h.</desc>
<speed>0.860000</speed>
</trkpt>
<trkpt lat="44.526646" lon="34.004059">
<ele>747.070801</ele>
<time>2011-10-11T15:00:12Z</time>
<desc>lat.=44.526646, lon.=34.004059, Alt.=747.070801m. Speed=2.160000m/h.</desc>
<speed>0.600000</speed>
</trkpt>
<trkpt lat="44.526627" lon="34.003994">
<ele>746.383301</ele>
<time>2011-10-11T15:00:17Z</time>
<desc>lat.=44.526627, lon.=34.003994, Alt.=746.383301m. Speed=2.880000m/h.</desc>
<speed>0.800000</speed>
</trkpt>
<trkpt lat="44.526615" lon="34.003906">
<ele>745.461426</ele>
<time>2011-10-11T15:00:22Z</time>
<desc>lat.=44.526615, lon.=34.003906, Alt.=745.461426m. Speed=3.600000m/h.</desc>
<speed>1.000000</speed>
</trkpt>
<trkpt lat="44.526649" lon="34.003799">
<ele>743.961426</ele>
<time>2011-10-11T15:00:27Z</time>
<desc>lat.=44.526649, lon.=34.003799, Alt.=743.961426m. Speed=2.484000m/h.</desc>
<speed>0.690000</speed>
</trkpt>
<trkpt lat="44.526672" lon="34.003735">
<ele>743.555176</ele>
<time>2011-10-11T15:00:32Z</time>
<desc>lat.=44.526672, lon.=34.003735, Alt.=743.555176m. Speed=2.808000m/h.</desc>
<speed>0.780000</speed>
</trkpt>
<trkpt lat="44.526695" lon="34.003635">
<ele>742.586426</ele>
<time>2011-10-11T15:00:37Z</time>
<desc>lat.=44.526695, lon.=34.003635, Alt.=742.586426m. Speed=3.312000m/h.</desc>
<speed>0.920000</speed>
</trkpt>
<trkpt lat="44.526661" lon="34.003571">
<ele>741.805176</ele>
<time>2011-10-11T15:00:42Z</time>
<desc>lat.=44.526661, lon.=34.003571, Alt.=741.805176m. Speed=3.276000m/h.</desc>
<speed>0.910000</speed>
</trkpt>
<trkpt lat="44.526661" lon="34.003487">
<ele>740.852051</ele>
<time>2011-10-11T15:00:47Z</time>
<desc>lat.=44.526661, lon.=34.003487, Alt.=740.852051m. Speed=2.700000m/h.</desc>
<speed>0.750000</speed>
</trkpt>
<trkpt lat="44.526653" lon="34.003365">
<ele>738.930176</ele>
<time>2011-10-11T15:00:52Z</time>
<desc>lat.=44.526653, lon.=34.003365, Alt.=738.930176m. Speed=3.420000m/h.</desc>
<speed>0.950000</speed>
</trkpt>
<trkpt lat="44.526611" lon="34.003262">
<ele>737.305176</ele>
<time>2011-10-11T15:00:57Z</time>
<desc>lat.=44.526611, lon.=34.003262, Alt.=737.305176m. Speed=3.204000m/h.</desc>
<speed>0.890000</speed>
</trkpt>
<trkpt lat="44.526619" lon="34.003185">
<ele>735.133301</ele>
<time>2011-10-11T15:01:02Z</time>
<desc>lat.=44.526619, lon.=34.003185, Alt.=735.133301m. Speed=3.816000m/h.</desc>
<speed>1.060000</speed>
</trkpt>
<trkpt lat="44.526688" lon="34.003113">
<ele>732.648926</ele>
<time>2011-10-11T15:01:07Z</time>
<desc>lat.=44.526688, lon.=34.003113, Alt.=732.648926m. Speed=2.052000m/h.</desc>
<speed>0.570000</speed>
</trkpt>
<trkpt lat="44.526726" lon="34.003048">
<ele>730.836426</ele>
<time>2011-10-11T15:01:12Z</time>
<desc>lat.=44.526726, lon.=34.003048, Alt.=730.836426m. Speed=1.908000m/h.</desc>
<speed>0.530000</speed>
</trkpt>
<trkpt lat="44.526691" lon="34.003017">
<ele>728.648926</ele>
<time>2011-10-11T15:01:17Z</time>
<desc>lat.=44.526691, lon.=34.003017, Alt.=728.648926m. Speed=1.980000m/h.</desc>
<speed>0.550000</speed>
</trkpt>
<trkpt lat="44.526669" lon="34.002937">
<ele>727.023926</ele>
<time>2011-10-11T15:01:22Z</time>
<desc>lat.=44.526669, lon.=34.002937, Alt.=727.023926m. Speed=3.060000m/h.</desc>
<speed>0.850000</speed>
</trkpt>
<trkpt lat="44.526661" lon="34.002861">
<ele>724.539551</ele>
<time>2011-10-11T15:01:27Z</time>
<desc>lat.=44.526661, lon.=34.002861, Alt.=724.539551m. Speed=1.836000m/h.</desc>
<speed>0.510000</speed>
</trkpt>
<trkpt lat="44.526661" lon="34.002789">
<ele>723.211426</ele>
<time>2011-10-11T15:01:32Z</time>
<desc>lat.=44.526661, lon.=34.002789, Alt.=723.211426m. Speed=2.160000m/h.</desc>
<speed>0.600000</speed>
</trkpt>
<trkpt lat="44.526695" lon="34.002701">
<ele>721.477051</ele>
<time>2011-10-11T15:01:37Z</time>
<desc>lat.=44.526695, lon.=34.002701, Alt.=721.477051m. Speed=2.124000m/h.</desc>
<speed>0.590000</speed>
</trkpt>
<trkpt lat="44.526714" lon="34.002647">
<ele>719.023926</ele>
<time>2011-10-11T15:01:42Z</time>
<desc>lat.=44.526714, lon.=34.002647, Alt.=719.023926m. Speed=1.512000m/h.</desc>
<speed>0.420000</speed>
</trkpt>
<trkpt lat="44.526737" lon="34.002602">
<ele>717.992676</ele>
<time>2011-10-11T15:01:47Z</time>
<desc>lat.=44.526737, lon.=34.002602, Alt.=717.992676m. Speed=0.792000m/h.</desc>
<speed>0.220000</speed>
</trkpt>
<trkpt lat="44.526745" lon="34.002583">
<ele>717.461426</ele>
<time>2011-10-11T15:01:52Z</time>
<desc>lat.=44.526745, lon.=34.002583, Alt.=717.461426m. Speed=0.432000m/h.</desc>
<speed>0.120000</speed>
</trkpt>
<trkpt lat="44.526768" lon="34.002563">
<ele>716.492676</ele>
<time>2011-10-11T15:01:57Z</time>
<desc>lat.=44.526768, lon.=34.002563, Alt.=716.492676m. Speed=1.440000m/h.</desc>
<speed>0.400000</speed>
</trkpt>
<trkpt lat="44.526844" lon="34.002510">
<ele>712.914551</ele>
<time>2011-10-11T15:02:02Z</time>
<desc>lat.=44.526844, lon.=34.002510, Alt.=712.914551m. Speed=1.980000m/h.</desc>
<speed>0.550000</speed>
</trkpt>
<trkpt lat="44.526836" lon="34.002430">
<ele>709.055176</ele>
<time>2011-10-11T15:02:07Z</time>
<desc>lat.=44.526836, lon.=34.002430, Alt.=709.055176m. Speed=1.836000m/h.</desc>
<speed>0.510000</speed>
</trkpt>
<trkpt lat="44.526859" lon="34.002346">
<ele>705.117676</ele>
<time>2011-10-11T15:02:12Z</time>
<desc>lat.=44.526859, lon.=34.002346, Alt.=705.117676m. Speed=2.088000m/h.</desc>
<speed>0.580000</speed>
</trkpt>
<trkpt lat="44.526840" lon="34.002327">
<ele>702.898926</ele>
<time>2011-10-11T15:02:17Z</time>
<desc>lat.=44.526840, lon.=34.002327, Alt.=702.898926m. Speed=1.368000m/h.</desc>
<speed>0.380000</speed>
</trkpt>
<trkpt lat="44.526791" lon="34.002304">
<ele>700.852051</ele>
<time>2011-10-11T15:02:22Z</time>
<desc>lat.=44.526791, lon.=34.002304, Alt.=700.852051m. Speed=2.916000m/h.</desc>
<speed>0.810000</speed>
</trkpt>
<trkpt lat="44.526783" lon="34.002213">
<ele>697.898926</ele>
<time>2011-10-11T15:02:27Z</time>
<desc>lat.=44.526783, lon.=34.002213, Alt.=697.898926m. Speed=1.908000m/h.</desc>
<speed>0.530000</speed>
</trkpt>
<trkpt lat="44.526752" lon="34.002171">
<ele>695.945801</ele>
<time>2011-10-11T15:02:32Z</time>
<desc>lat.=44.526752, lon.=34.002171, Alt.=695.945801m. Speed=1.980000m/h.</desc>
<speed>0.550000</speed>
</trkpt>
<trkpt lat="44.526718" lon="34.002144">
<ele>693.898926</ele>
<time>2011-10-11T15:02:37Z</time>
<desc>lat.=44.526718, lon.=34.002144, Alt.=693.898926m. Speed=1.044000m/h.</desc>
<speed>0.290000</speed>
</trkpt>
<trkpt lat="44.526699" lon="34.002125">
<ele>693.258301</ele>
<time>2011-10-11T15:02:42Z</time>
<desc>lat.=44.526699, lon.=34.002125, Alt.=693.258301m. Speed=0.432000m/h.</desc>
<speed>0.120000</speed>
</trkpt>
<trkpt lat="44.526672" lon="34.002094">
<ele>692.227051</ele>
<time>2011-10-11T15:02:47Z</time>
<desc>lat.=44.526672, lon.=34.002094, Alt.=692.227051m. Speed=1.872000m/h.</desc>
<speed>0.520000</speed>
</trkpt>
<trkpt lat="44.526657" lon="34.002045">
<ele>690.961426</ele>
<time>2011-10-11T15:02:52Z</time>
<desc>lat.=44.526657, lon.=34.002045, Alt.=690.961426m. Speed=2.196000m/h.</desc>
<speed>0.610000</speed>
</trkpt>
<trkpt lat="44.526627" lon="34.002014">
<ele>689.445801</ele>
<time>2011-10-11T15:02:57Z</time>
<desc>lat.=44.526627, lon.=34.002014, Alt.=689.445801m. Speed=0.828000m/h.</desc>
<speed>0.230000</speed>
</trkpt>
<trkpt lat="44.526611" lon="34.002003">
<ele>688.664551</ele>
<time>2011-10-11T15:03:02Z</time>
<desc>lat.=44.526611, lon.=34.002003, Alt.=688.664551m. Speed=0.864000m/h.</desc>
<speed>0.240000</speed>
</trkpt>
<trkpt lat="44.526615" lon="34.001972">
<ele>688.086426</ele>
<time>2011-10-11T15:03:07Z</time>
<desc>lat.=44.526615, lon.=34.001972, Alt.=688.086426m. Speed=0.396000m/h.</desc>
<speed>0.110000</speed>
</trkpt>
<trkpt lat="44.526577" lon="34.001926">
<ele>686.477051</ele>
<time>2011-10-11T15:03:12Z</time>
<desc>lat.=44.526577, lon.=34.001926, Alt.=686.477051m. Speed=2.124000m/h.</desc>
<speed>0.590000</speed>
</trkpt>
<trkpt lat="44.526543" lon="34.001869">
<ele>685.602051</ele>
<time>2011-10-11T15:03:17Z</time>
<desc>lat.=44.526543, lon.=34.001869, Alt.=685.602051m. Speed=3.528000m/h.</desc>
<speed>0.980000</speed>
</trkpt>
<trkpt lat="44.526516" lon="34.001846">
<ele>684.836426</ele>
<time>2011-10-11T15:03:22Z</time>
<desc>lat.=44.526516, lon.=34.001846, Alt.=684.836426m. Speed=2.376000m/h.</desc>
<speed>0.660000</speed>
</trkpt>
<trkpt lat="44.526466" lon="34.001842">
<ele>682.742676</ele>
<time>2011-10-11T15:03:27Z</time>
<desc>lat.=44.526466, lon.=34.001842, Alt.=682.742676m. Speed=1.548000m/h.</desc>
<speed>0.430000</speed>
</trkpt>
<trkpt lat="44.526447" lon="34.001801">
<ele>680.727051</ele>
<time>2011-10-11T15:03:32Z</time>
<desc>lat.=44.526447, lon.=34.001801, Alt.=680.727051m. Speed=1.080000m/h.</desc>
<speed>0.300000</speed>
</trkpt>
<trkpt lat="44.526428" lon="34.001759">
<ele>679.695801</ele>
<time>2011-10-11T15:03:37Z</time>
<desc>lat.=44.526428, lon.=34.001759, Alt.=679.695801m. Speed=2.376000m/h.</desc>
<speed>0.660000</speed>
</trkpt>
<trkpt lat="44.526421" lon="34.001717">
<ele>678.539551</ele>
<time>2011-10-11T15:03:42Z</time>
<desc>lat.=44.526421, lon.=34.001717, Alt.=678.539551m. Speed=2.412000m/h.</desc>
<speed>0.670000</speed>
</trkpt>
<trkpt lat="44.526386" lon="34.001648">
<ele>676.727051</ele>
<time>2011-10-11T15:03:47Z</time>
<desc>lat.=44.526386, lon.=34.001648, Alt.=676.727051m. Speed=3.060000m/h.</desc>
<speed>0.850000</speed>
</trkpt>
<trkpt lat="44.526321" lon="34.001606">
<ele>674.086426</ele>
<time>2011-10-11T15:03:52Z</time>
<desc>lat.=44.526321, lon.=34.001606, Alt.=674.086426m. Speed=2.484000m/h.</desc>
<speed>0.690000</speed>
</trkpt>
<trkpt lat="44.526295" lon="34.001526">
<ele>670.508301</ele>
<time>2011-10-11T15:03:57Z</time>
<desc>lat.=44.526295, lon.=34.001526, Alt.=670.508301m. Speed=2.664000m/h.</desc>
<speed>0.740000</speed>
</trkpt>
<trkpt lat="44.526299" lon="34.001530">
<ele>668.242676</ele>
<time>2011-10-11T15:04:02Z</time>
<desc>lat.=44.526299, lon.=34.001530, Alt.=668.242676m. Speed=0.684000m/h.</desc>
<speed>0.190000</speed>
</trkpt>
<trkpt lat="44.526306" lon="34.001530">
<ele>666.148926</ele>
<time>2011-10-11T15:04:07Z</time>
<desc>lat.=44.526306, lon.=34.001530, Alt.=666.148926m. Speed=1.440000m/h.</desc>
<speed>0.400000</speed>
</trkpt>
<trkpt lat="44.526276" lon="34.001503">
<ele>664.289551</ele>
<time>2011-10-11T15:04:12Z</time>
<desc>lat.=44.526276, lon.=34.001503, Alt.=664.289551m. Speed=1.368000m/h.</desc>
<speed>0.380000</speed>
</trkpt>
<trkpt lat="44.526295" lon="34.001488">
<ele>663.773926</ele>
<time>2011-10-11T15:04:17Z</time>
<desc>lat.=44.526295, lon.=34.001488, Alt.=663.773926m. Speed=0.900000m/h.</desc>
<speed>0.250000</speed>
</trkpt>
<trkpt lat="44.526302" lon="34.001465">
<ele>662.992676</ele>
<time>2011-10-11T15:04:22Z</time>
<desc>lat.=44.526302, lon.=34.001465, Alt.=662.992676m. Speed=1.800000m/h.</desc>
<speed>0.500000</speed>
</trkpt>
<trkpt lat="44.526299" lon="34.001427">
<ele>661.961426</ele>
<time>2011-10-11T15:04:27Z</time>
<desc>lat.=44.526299, lon.=34.001427, Alt.=661.961426m. Speed=1.548000m/h.</desc>
<speed>0.430000</speed>
</trkpt>
<trkpt lat="44.526260" lon="34.001392">
<ele>661.039551</ele>
<time>2011-10-11T15:04:32Z</time>
<desc>lat.=44.526260, lon.=34.001392, Alt.=661.039551m. Speed=1.044000m/h.</desc>
<speed>0.290000</speed>
</trkpt>
<trkpt lat="44.526230" lon="34.001354">
<ele>659.258301</ele>
<time>2011-10-11T15:04:37Z</time>
<desc>lat.=44.526230, lon.=34.001354, Alt.=659.258301m. Speed=1.764000m/h.</desc>
<speed>0.490000</speed>
</trkpt>
<trkpt lat="44.526211" lon="34.001339">
<ele>658.383301</ele>
<time>2011-10-11T15:04:42Z</time>
<desc>lat.=44.526211, lon.=34.001339, Alt.=658.383301m. Speed=2.232000m/h.</desc>
<speed>0.620000</speed>
</trkpt>
<trkpt lat="44.526218" lon="34.001301">
<ele>656.273926</ele>
<time>2011-10-11T15:04:47Z</time>
<desc>lat.=44.526218, lon.=34.001301, Alt.=656.273926m. Speed=1.404000m/h.</desc>
<speed>0.390000</speed>
</trkpt>
<trkpt lat="44.526207" lon="34.001266">
<ele>655.164551</ele>
<time>2011-10-11T15:04:52Z</time>
<desc>lat.=44.526207, lon.=34.001266, Alt.=655.164551m. Speed=3.024000m/h.</desc>
<speed>0.840000</speed>
</trkpt>
<trkpt lat="44.526192" lon="34.001251">
<ele>653.992676</ele>
<time>2011-10-11T15:04:57Z</time>
<desc>lat.=44.526192, lon.=34.001251, Alt.=653.992676m. Speed=1.080000m/h.</desc>
<speed>0.300000</speed>
</trkpt>
<trkpt lat="44.526184" lon="34.001232">
<ele>652.805176</ele>
<time>2011-10-11T15:05:02Z</time>
<desc>lat.=44.526184, lon.=34.001232, Alt.=652.805176m. Speed=1.332000m/h.</desc>
<speed>0.370000</speed>
</trkpt>
<trkpt lat="44.526157" lon="34.001217">
<ele>651.492676</ele>
<time>2011-10-11T15:05:07Z</time>
<desc>lat.=44.526157, lon.=34.001217, Alt.=651.492676m. Speed=1.836000m/h.</desc>
<speed>0.510000</speed>
</trkpt>
<trkpt lat="44.526134" lon="34.001217">
<ele>649.820801</ele>
<time>2011-10-11T15:05:12Z</time>
<desc>lat.=44.526134, lon.=34.001217, Alt.=649.820801m. Speed=1.224000m/h.</desc>
<speed>0.340000</speed>
</trkpt>
<trkpt lat="44.526104" lon="34.001209">
<ele>648.398926</ele>
<time>2011-10-11T15:05:17Z</time>
<desc>lat.=44.526104, lon.=34.001209, Alt.=648.398926m. Speed=1.656000m/h.</desc>
<speed>0.460000</speed>
</trkpt>
<trkpt lat="44.526093" lon="34.001186">
<ele>647.211426</ele>
<time>2011-10-11T15:05:22Z</time>
<desc>lat.=44.526093, lon.=34.001186, Alt.=647.211426m. Speed=1.188000m/h.</desc>
<speed>0.330000</speed>
</trkpt>
<trkpt lat="44.526039" lon="34.001186">
<ele>646.477051</ele>
<time>2011-10-11T15:05:27Z</time>
<desc>lat.=44.526039, lon.=34.001186, Alt.=646.477051m. Speed=2.448000m/h.</desc>
<speed>0.680000</speed>
</trkpt>
<trkpt lat="44.526009" lon="34.001129">
<ele>645.023926</ele>
<time>2011-10-11T15:05:32Z</time>
<desc>lat.=44.526009, lon.=34.001129, Alt.=645.023926m. Speed=3.312000m/h.</desc>
<speed>0.920000</speed>
</trkpt>
<trkpt lat="44.525959" lon="34.001076">
<ele>642.586426</ele>
<time>2011-10-11T15:05:37Z</time>
<desc>lat.=44.525959, lon.=34.001076, Alt.=642.586426m. Speed=1.800000m/h.</desc>
<speed>0.500000</speed>
</trkpt>
<trkpt lat="44.525951" lon="34.001015">
<ele>641.117676</ele>
<time>2011-10-11T15:05:42Z</time>
<desc>lat.=44.525951, lon.=34.001015, Alt.=641.117676m. Speed=1.908000m/h.</desc>
<speed>0.530000</speed>
</trkpt>
<trkpt lat="44.525948" lon="34.000942">
<ele>640.070801</ele>
<time>2011-10-11T15:05:47Z</time>
<desc>lat.=44.525948, lon.=34.000942, Alt.=640.070801m. Speed=3.492000m/h.</desc>
<speed>0.970000</speed>
</trkpt>
<trkpt lat="44.525955" lon="34.000866">
<ele>639.008301</ele>
<time>2011-10-11T15:05:52Z</time>
<desc>lat.=44.525955, lon.=34.000866, Alt.=639.008301m. Speed=2.808000m/h.</desc>
<speed>0.780000</speed>
</trkpt>
<trkpt lat="44.525970" lon="34.000797">
<ele>638.070801</ele>
<time>2011-10-11T15:05:57Z</time>
<desc>lat.=44.525970, lon.=34.000797, Alt.=638.070801m. Speed=3.528000m/h.</desc>
<speed>0.980000</speed>
</trkpt>
<trkpt lat="44.526009" lon="34.000744">
<ele>636.727051</ele>
<time>2011-10-11T15:06:02Z</time>
<desc>lat.=44.526009, lon.=34.000744, Alt.=636.727051m. Speed=2.196000m/h.</desc>
<speed>0.610000</speed>
</trkpt>
<trkpt lat="44.526005" lon="34.000660">
<ele>636.648926</ele>
<time>2011-10-11T15:06:07Z</time>
<desc>lat.=44.526005, lon.=34.000660, Alt.=636.648926m. Speed=2.160000m/h.</desc>
<speed>0.600000</speed>
</trkpt>
<trkpt lat="44.526001" lon="34.000610">
<ele>636.008301</ele>
<time>2011-10-11T15:06:12Z</time>
<desc>lat.=44.526001, lon.=34.000610, Alt.=636.008301m. Speed=1.440000m/h.</desc>
<speed>0.400000</speed>
</trkpt>
<trkpt lat="44.526024" lon="34.000568">
<ele>635.039551</ele>
<time>2011-10-11T15:06:17Z</time>
<desc>lat.=44.526024, lon.=34.000568, Alt.=635.039551m. Speed=3.456000m/h.</desc>
<speed>0.960000</speed>
</trkpt>
<trkpt lat="44.526066" lon="34.000526">
<ele>634.602051</ele>
<time>2011-10-11T15:06:22Z</time>
<desc>lat.=44.526066, lon.=34.000526, Alt.=634.602051m. Speed=1.332000m/h.</desc>
<speed>0.370000</speed>
</trkpt>
<trkpt lat="44.526085" lon="34.000500">
<ele>634.273926</ele>
<time>2011-10-11T15:06:27Z</time>
<desc>lat.=44.526085, lon.=34.000500, Alt.=634.273926m. Speed=1.692000m/h.</desc>
<speed>0.470000</speed>
</trkpt>
<trkpt lat="44.526096" lon="34.000454">
<ele>634.211426</ele>
<time>2011-10-11T15:06:32Z</time>
<desc>lat.=44.526096, lon.=34.000454, Alt.=634.211426m. Speed=2.340000m/h.</desc>
<speed>0.650000</speed>
</trkpt>
<trkpt lat="44.526070" lon="34.000431">
<ele>634.742676</ele>
<time>2011-10-11T15:06:37Z</time>
<desc>lat.=44.526070, lon.=34.000431, Alt.=634.742676m. Speed=2.700000m/h.</desc>
<speed>0.750000</speed>
</trkpt>
<trkpt lat="44.526024" lon="34.000408">
<ele>634.852051</ele>
<time>2011-10-11T15:06:42Z</time>
<desc>lat.=44.526024, lon.=34.000408, Alt.=634.852051m. Speed=4.176000m/h.</desc>
<speed>1.160000</speed>
</trkpt>
<trkpt lat="44.525978" lon="34.000381">
<ele>634.883301</ele>
<time>2011-10-11T15:06:47Z</time>
<desc>lat.=44.525978, lon.=34.000381, Alt.=634.883301m. Speed=3.564000m/h.</desc>
<speed>0.990000</speed>
</trkpt>
<trkpt lat="44.525932" lon="34.000336">
<ele>635.445801</ele>
<time>2011-10-11T15:06:52Z</time>
<desc>lat.=44.525932, lon.=34.000336, Alt.=635.445801m. Speed=4.284000m/h.</desc>
<speed>1.190000</speed>
</trkpt>
<trkpt lat="44.525829" lon="34.000324">
<ele>635.477051</ele>
<time>2011-10-11T15:06:57Z</time>
<desc>lat.=44.525829, lon.=34.000324, Alt.=635.477051m. Speed=3.852000m/h.</desc>
<speed>1.070000</speed>
</trkpt>
<trkpt lat="44.525787" lon="34.000263">
<ele>635.711426</ele>
<time>2011-10-11T15:07:02Z</time>
<desc>lat.=44.525787, lon.=34.000263, Alt.=635.711426m. Speed=4.248000m/h.</desc>
<speed>1.180000</speed>
</trkpt>
<trkpt lat="44.525730" lon="34.000214">
<ele>636.789551</ele>
<time>2011-10-11T15:07:07Z</time>
<desc>lat.=44.525730, lon.=34.000214, Alt.=636.789551m. Speed=2.232000m/h.</desc>
<speed>0.620000</speed>
</trkpt>
<trkpt lat="44.525677" lon="34.000187">
<ele>637.805176</ele>
<time>2011-10-11T15:07:12Z</time>
<desc>lat.=44.525677, lon.=34.000187, Alt.=637.805176m. Speed=3.816000m/h.</desc>
<speed>1.060000</speed>
</trkpt>
<trkpt lat="44.525658" lon="34.000153">
<ele>638.961426</ele>
<time>2011-10-11T15:07:17Z</time>
<desc>lat.=44.525658, lon.=34.000153, Alt.=638.961426m. Speed=2.628000m/h.</desc>
<speed>0.730000</speed>
</trkpt>
<trkpt lat="44.525612" lon="34.000126">
<ele>639.898926</ele>
<time>2011-10-11T15:07:22Z</time>
<desc>lat.=44.525612, lon.=34.000126, Alt.=639.898926m. Speed=3.528000m/h.</desc>
<speed>0.980000</speed>
</trkpt>
<trkpt lat="44.525562" lon="34.000118">
<ele>640.805176</ele>
<time>2011-10-11T15:07:27Z</time>
<desc>lat.=44.525562, lon.=34.000118, Alt.=640.805176m. Speed=2.556000m/h.</desc>
<speed>0.710000</speed>
</trkpt>
<trkpt lat="44.525520" lon="34.000103">
<ele>642.102051</ele>
<time>2011-10-11T15:07:32Z</time>
<desc>lat.=44.525520, lon.=34.000103, Alt.=642.102051m. Speed=4.068000m/h.</desc>
<speed>1.130000</speed>
</trkpt>
<trkpt lat="44.525433" lon="34.000114">
<ele>643.227051</ele>
<time>2011-10-11T15:07:37Z</time>
<desc>lat.=44.525433, lon.=34.000114, Alt.=643.227051m. Speed=4.788000m/h.</desc>
<speed>1.330000</speed>
</trkpt>
<trkpt lat="44.525379" lon="34.000076">
<ele>644.680176</ele>
<time>2011-10-11T15:07:42Z</time>
<desc>lat.=44.525379, lon.=34.000076, Alt.=644.680176m. Speed=4.464000m/h.</desc>
<speed>1.240000</speed>
</trkpt>
<trkpt lat="44.525333" lon="34.000080">
<ele>645.305176</ele>
<time>2011-10-11T15:07:47Z</time>
<desc>lat.=44.525333, lon.=34.000080, Alt.=645.305176m. Speed=3.132000m/h.</desc>
<speed>0.870000</speed>
</trkpt>
<trkpt lat="44.525272" lon="34.000061">
<ele>645.727051</ele>
<time>2011-10-11T15:07:52Z</time>
<desc>lat.=44.525272, lon.=34.000061, Alt.=645.727051m. Speed=3.312000m/h.</desc>
<speed>0.920000</speed>
</trkpt>
<trkpt lat="44.525211" lon="34.000027">
<ele>644.742676</ele>
<time>2011-10-11T15:07:57Z</time>
<desc>lat.=44.525211, lon.=34.000027, Alt.=644.742676m. Speed=4.068000m/h.</desc>
<speed>1.130000</speed>
</trkpt>
<trkpt lat="44.525169" lon="34.000004">
<ele>645.539551</ele>
<time>2011-10-11T15:08:02Z</time>
<desc>lat.=44.525169, lon.=34.000004, Alt.=645.539551m. Speed=2.592000m/h.</desc>
<speed>0.720000</speed>
</trkpt>
<trkpt lat="44.525166" lon="33.999920">
<ele>645.727051</ele>
<time>2011-10-11T15:08:07Z</time>
<desc>lat.=44.525166, lon.=33.999920, Alt.=645.727051m. Speed=2.160000m/h.</desc>
<speed>0.600000</speed>
</trkpt>
<trkpt lat="44.525124" lon="33.999905">
<ele>645.555176</ele>
<time>2011-10-11T15:08:12Z</time>
<desc>lat.=44.525124, lon.=33.999905, Alt.=645.555176m. Speed=2.340000m/h.</desc>
<speed>0.650000</speed>
</trkpt>
<trkpt lat="44.525070" lon="33.999870">
<ele>646.492676</ele>
<time>2011-10-11T15:08:17Z</time>
<desc>lat.=44.525070, lon.=33.999870, Alt.=646.492676m. Speed=3.636000m/h.</desc>
<speed>1.010000</speed>
</trkpt>
<trkpt lat="44.525017" lon="33.999863">
<ele>647.070801</ele>
<time>2011-10-11T15:08:22Z</time>
<desc>lat.=44.525017, lon.=33.999863, Alt.=647.070801m. Speed=2.016000m/h.</desc>
<speed>0.560000</speed>
</trkpt>
<trkpt lat="44.524960" lon="33.999825">
<ele>647.852051</ele>
<time>2011-10-11T15:08:27Z</time>
<desc>lat.=44.524960, lon.=33.999825, Alt.=647.852051m. Speed=3.996000m/h.</desc>
<speed>1.110000</speed>
</trkpt>
<trkpt lat="44.524921" lon="33.999733">
<ele>648.195801</ele>
<time>2011-10-11T15:08:32Z</time>
<desc>lat.=44.524921, lon.=33.999733, Alt.=648.195801m. Speed=2.772000m/h.</desc>
<speed>0.770000</speed>
</trkpt>
<trkpt lat="44.524872" lon="33.999710">
<ele>648.367676</ele>
<time>2011-10-11T15:08:37Z</time>
<desc>lat.=44.524872, lon.=33.999710, Alt.=648.367676m. Speed=4.788000m/h.</desc>
<speed>1.330000</speed>
</trkpt>
<trkpt lat="44.524830" lon="33.999676">
<ele>648.898926</ele>
<time>2011-10-11T15:08:42Z</time>
<desc>lat.=44.524830, lon.=33.999676, Alt.=648.898926m. Speed=2.412000m/h.</desc>
<speed>0.670000</speed>
</trkpt>
<trkpt lat="44.524807" lon="33.999638">
<ele>649.602051</ele>
<time>2011-10-11T15:08:47Z</time>
<desc>lat.=44.524807, lon.=33.999638, Alt.=649.602051m. Speed=2.520000m/h.</desc>
<speed>0.700000</speed>
</trkpt>
<trkpt lat="44.524792" lon="33.999626">
<ele>650.148926</ele>
<time>2011-10-11T15:08:52Z</time>
<desc>lat.=44.524792, lon.=33.999626, Alt.=650.148926m. Speed=1.440000m/h.</desc>
<speed>0.400000</speed>
</trkpt>
<trkpt lat="44.524738" lon="33.999615">
<ele>650.898926</ele>
<time>2011-10-11T15:08:57Z</time>
<desc>lat.=44.524738, lon.=33.999615, Alt.=650.898926m. Speed=2.448000m/h.</desc>
<speed>0.680000</speed>
</trkpt>
<trkpt lat="44.524662" lon="33.999607">
<ele>651.539551</ele>
<time>2011-10-11T15:09:02Z</time>
<desc>lat.=44.524662, lon.=33.999607, Alt.=651.539551m. Speed=3.888000m/h.</desc>
<speed>1.080000</speed>
</trkpt>
<trkpt lat="44.524582" lon="33.999584">
<ele>652.148926</ele>
<time>2011-10-11T15:09:07Z</time>
<desc>lat.=44.524582, lon.=33.999584, Alt.=652.148926m. Speed=4.428000m/h.</desc>
<speed>1.230000</speed>
</trkpt>
<trkpt lat="44.524513" lon="33.999577">
<ele>652.273926</ele>
<time>2011-10-11T15:09:12Z</time>
<desc>lat.=44.524513, lon.=33.999577, Alt.=652.273926m. Speed=3.816000m/h.</desc>
<speed>1.060000</speed>
</trkpt>
<trkpt lat="44.524441" lon="33.999554">
<ele>652.711426</ele>
<time>2011-10-11T15:09:17Z</time>
<desc>lat.=44.524441, lon.=33.999554, Alt.=652.711426m. Speed=3.456000m/h.</desc>
<speed>0.960000</speed>
</trkpt>
<trkpt lat="44.524403" lon="33.999481">
<ele>653.055176</ele>
<time>2011-10-11T15:09:22Z</time>
<desc>lat.=44.524403, lon.=33.999481, Alt.=653.055176m. Speed=3.348000m/h.</desc>
<speed>0.930000</speed>
</trkpt>
<trkpt lat="44.524345" lon="33.999477">
<ele>653.039551</ele>
<time>2011-10-11T15:09:27Z</time>
<desc>lat.=44.524345, lon.=33.999477, Alt.=653.039551m. Speed=2.556000m/h.</desc>
<speed>0.710000</speed>
</trkpt>
<trkpt lat="44.524223" lon="33.999493">
<ele>653.539551</ele>
<time>2011-10-11T15:09:32Z</time>
<desc>lat.=44.524223, lon.=33.999493, Alt.=653.539551m. Speed=4.680000m/h.</desc>
<speed>1.300000</speed>
</trkpt>
<trkpt lat="44.524155" lon="33.999474">
<ele>653.539551</ele>
<time>2011-10-11T15:09:37Z</time>
<desc>lat.=44.524155, lon.=33.999474, Alt.=653.539551m. Speed=4.644000m/h.</desc>
<speed>1.290000</speed>
</trkpt>
<trkpt lat="44.524097" lon="33.999451">
<ele>652.133301</ele>
<time>2011-10-11T15:09:42Z</time>
<desc>lat.=44.524097, lon.=33.999451, Alt.=652.133301m. Speed=5.436000m/h.</desc>
<speed>1.510000</speed>
</trkpt>
<trkpt lat="44.524059" lon="33.999390">
<ele>652.914551</ele>
<time>2011-10-11T15:09:47Z</time>
<desc>lat.=44.524059, lon.=33.999390, Alt.=652.914551m. Speed=5.292000m/h.</desc>
<speed>1.470000</speed>
</trkpt>
<trkpt lat="44.524021" lon="33.999344">
<ele>653.602051</ele>
<time>2011-10-11T15:09:52Z</time>
<desc>lat.=44.524021, lon.=33.999344, Alt.=653.602051m. Speed=3.276000m/h.</desc>
<speed>0.910000</speed>
</trkpt>
<trkpt lat="44.523983" lon="33.999302">
<ele>654.133301</ele>
<time>2011-10-11T15:09:57Z</time>
<desc>lat.=44.523983, lon.=33.999302, Alt.=654.133301m. Speed=4.536000m/h.</desc>
<speed>1.260000</speed>
</trkpt>
<trkpt lat="44.523922" lon="33.999256">
<ele>654.164551</ele>
<time>2011-10-11T15:10:02Z</time>
<desc>lat.=44.523922, lon.=33.999256, Alt.=654.164551m. Speed=4.320000m/h.</desc>
<speed>1.200000</speed>
</trkpt>
<trkpt lat="44.523872" lon="33.999214">
<ele>652.992676</ele>
<time>2011-10-11T15:10:07Z</time>
<desc>lat.=44.523872, lon.=33.999214, Alt.=652.992676m. Speed=3.852000m/h.</desc>
<speed>1.070000</speed>
</trkpt>
<trkpt lat="44.523815" lon="33.999161">
<ele>651.883301</ele>
<time>2011-10-11T15:10:12Z</time>
<desc>lat.=44.523815, lon.=33.999161, Alt.=651.883301m. Speed=3.348000m/h.</desc>
<speed>0.930000</speed>
</trkpt>
<trkpt lat="44.523773" lon="33.999100">
<ele>650.664551</ele>
<time>2011-10-11T15:10:17Z</time>
<desc>lat.=44.523773, lon.=33.999100, Alt.=650.664551m. Speed=3.816000m/h.</desc>
<speed>1.060000</speed>
</trkpt>
<trkpt lat="44.523724" lon="33.999020">
<ele>649.242676</ele>
<time>2011-10-11T15:10:22Z</time>
<desc>lat.=44.523724, lon.=33.999020, Alt.=649.242676m. Speed=2.268000m/h.</desc>
<speed>0.630000</speed>
</trkpt>
<trkpt lat="44.523682" lon="33.998997">
<ele>648.445801</ele>
<time>2011-10-11T15:10:27Z</time>
<desc>lat.=44.523682, lon.=33.998997, Alt.=648.445801m. Speed=3.132000m/h.</desc>
<speed>0.870000</speed>
</trkpt>
<trkpt lat="44.523640" lon="33.998966">
<ele>647.414551</ele>
<time>2011-10-11T15:10:32Z</time>
<desc>lat.=44.523640, lon.=33.998966, Alt.=647.414551m. Speed=2.880000m/h.</desc>
<speed>0.800000</speed>
</trkpt>
<trkpt lat="44.523594" lon="33.998936">
<ele>646.164551</ele>
<time>2011-10-11T15:10:37Z</time>
<desc>lat.=44.523594, lon.=33.998936, Alt.=646.164551m. Speed=2.664000m/h.</desc>
<speed>0.740000</speed>
</trkpt>
<trkpt lat="44.523510" lon="33.998878">
<ele>644.508301</ele>
<time>2011-10-11T15:10:42Z</time>
<desc>lat.=44.523510, lon.=33.998878, Alt.=644.508301m. Speed=3.024000m/h.</desc>
<speed>0.840000</speed>
</trkpt>
<trkpt lat="44.523438" lon="33.998821">
<ele>643.367676</ele>
<time>2011-10-11T15:10:47Z</time>
<desc>lat.=44.523438, lon.=33.998821, Alt.=643.367676m. Speed=4.068000m/h.</desc>
<speed>1.130000</speed>
</trkpt>
<trkpt lat="44.523396" lon="33.998764">
<ele>642.039551</ele>
<time>2011-10-11T15:10:52Z</time>
<desc>lat.=44.523396, lon.=33.998764, Alt.=642.039551m. Speed=2.844000m/h.</desc>
<speed>0.790000</speed>
</trkpt>
<trkpt lat="44.523315" lon="33.998730">
<ele>640.570801</ele>
<time>2011-10-11T15:10:57Z</time>
<desc>lat.=44.523315, lon.=33.998730, Alt.=640.570801m. Speed=3.744000m/h.</desc>
<speed>1.040000</speed>
</trkpt>
<trkpt lat="44.523262" lon="33.998680">
<ele>639.195801</ele>
<time>2011-10-11T15:11:02Z</time>
<desc>lat.=44.523262, lon.=33.998680, Alt.=639.195801m. Speed=4.428000m/h.</desc>
<speed>1.230000</speed>
</trkpt>
<trkpt lat="44.523205" lon="33.998631">
<ele>637.961426</ele>
<time>2011-10-11T15:11:07Z</time>
<desc>lat.=44.523205, lon.=33.998631, Alt.=637.961426m. Speed=3.564000m/h.</desc>
<speed>0.990000</speed>
</trkpt>
<trkpt lat="44.523163" lon="33.998592">
<ele>636.836426</ele>
<time>2011-10-11T15:11:12Z</time>
<desc>lat.=44.523163, lon.=33.998592, Alt.=636.836426m. Speed=4.644000m/h.</desc>
<speed>1.290000</speed>
</trkpt>
<trkpt lat="44.523106" lon="33.998550">
<ele>635.930176</ele>
<time>2011-10-11T15:11:17Z</time>
<desc>lat.=44.523106, lon.=33.998550, Alt.=635.930176m. Speed=4.752000m/h.</desc>
<speed>1.320000</speed>
</trkpt>
<trkpt lat="44.523056" lon="33.998505">
<ele>635.023926</ele>
<time>2011-10-11T15:11:22Z</time>
<desc>lat.=44.523056, lon.=33.998505, Alt.=635.023926m. Speed=2.736000m/h.</desc>
<speed>0.760000</speed>
</trkpt>
<trkpt lat="44.523006" lon="33.998459">
<ele>633.664551</ele>
<time>2011-10-11T15:11:27Z</time>
<desc>lat.=44.523006, lon.=33.998459, Alt.=633.664551m. Speed=4.248000m/h.</desc>
<speed>1.180000</speed>
</trkpt>
<trkpt lat="44.522934" lon="33.998432">
<ele>631.930176</ele>
<time>2011-10-11T15:11:32Z</time>
<desc>lat.=44.522934, lon.=33.998432, Alt.=631.930176m. Speed=4.464000m/h.</desc>
<speed>1.240000</speed>
</trkpt>
<trkpt lat="44.522900" lon="33.998386">
<ele>630.617676</ele>
<time>2011-10-11T15:11:37Z</time>
<desc>lat.=44.522900, lon.=33.998386, Alt.=630.617676m. Speed=2.808000m/h.</desc>
<speed>0.780000</speed>
</trkpt>
<trkpt lat="44.522858" lon="33.998310">
<ele>629.195801</ele>
<time>2011-10-11T15:11:42Z</time>
<desc>lat.=44.522858, lon.=33.998310, Alt.=629.195801m. Speed=3.744000m/h.</desc>
<speed>1.040000</speed>
</trkpt>
<trkpt lat="44.522850" lon="33.998260">
<ele>628.117676</ele>
<time>2011-10-11T15:11:47Z</time>
<desc>lat.=44.522850, lon.=33.998260, Alt.=628.117676m. Speed=1.404000m/h.</desc>
<speed>0.390000</speed>
</trkpt>
<trkpt lat="44.522850" lon="33.998238">
<ele>627.445801</ele>
<time>2011-10-11T15:11:52Z</time>
<desc>lat.=44.522850, lon.=33.998238, Alt.=627.445801m. Speed=0.180000m/h.</desc>
<speed>0.050000</speed>
</trkpt>
<trkpt lat="44.522846" lon="33.998207">
<ele>626.867676</ele>
<time>2011-10-11T15:11:57Z</time>
<desc>lat.=44.522846, lon.=33.998207, Alt.=626.867676m. Speed=3.312000m/h.</desc>
<speed>0.920000</speed>
</trkpt>
<trkpt lat="44.522831" lon="33.998158">
<ele>625.914551</ele>
<time>2011-10-11T15:12:02Z</time>
<desc>lat.=44.522831, lon.=33.998158, Alt.=625.914551m. Speed=1.764000m/h.</desc>
<speed>0.490000</speed>
</trkpt>
<trkpt lat="44.522831" lon="33.998100">
<ele>625.320801</ele>
<time>2011-10-11T15:12:07Z</time>
<desc>lat.=44.522831, lon.=33.998100, Alt.=625.320801m. Speed=2.376000m/h.</desc>
<speed>0.660000</speed>
</trkpt>
<trkpt lat="44.522816" lon="33.998051">
<ele>624.508301</ele>
<time>2011-10-11T15:12:12Z</time>
<desc>lat.=44.522816, lon.=33.998051, Alt.=624.508301m. Speed=2.052000m/h.</desc>
<speed>0.570000</speed>
</trkpt>
<trkpt lat="44.522766" lon="33.998016">
<ele>623.008301</ele>
<time>2011-10-11T15:12:17Z</time>
<desc>lat.=44.522766, lon.=33.998016, Alt.=623.008301m. Speed=2.268000m/h.</desc>
<speed>0.630000</speed>
</trkpt>
<trkpt lat="44.522724" lon="33.997982">
<ele>621.773926</ele>
<time>2011-10-11T15:12:22Z</time>
<desc>lat.=44.522724, lon.=33.997982, Alt.=621.773926m. Speed=2.160000m/h.</desc>
<speed>0.600000</speed>
</trkpt>
<trkpt lat="44.522717" lon="33.997936">
<ele>620.586426</ele>
<time>2011-10-11T15:12:27Z</time>
<desc>lat.=44.522717, lon.=33.997936, Alt.=620.586426m. Speed=0.612000m/h.</desc>
<speed>0.170000</speed>
</trkpt>
<trkpt lat="44.522709" lon="33.997932">
<ele>620.398926</ele>
<time>2011-10-11T15:12:32Z</time>
<desc>lat.=44.522709, lon.=33.997932, Alt.=620.398926m. Speed=1.476000m/h.</desc>
<speed>0.410000</speed>
</trkpt>
<trkpt lat="44.522682" lon="33.997864">
<ele>619.414551</ele>
<time>2011-10-11T15:12:37Z</time>
<desc>lat.=44.522682, lon.=33.997864, Alt.=619.414551m. Speed=3.672000m/h.</desc>
<speed>1.020000</speed>
</trkpt>
<trkpt lat="44.522644" lon="33.997822">
<ele>618.195801</ele>
<time>2011-10-11T15:12:42Z</time>
<desc>lat.=44.522644, lon.=33.997822, Alt.=618.195801m. Speed=2.520000m/h.</desc>
<speed>0.700000</speed>
</trkpt>
<trkpt lat="44.522621" lon="33.997757">
<ele>617.195801</ele>
<time>2011-10-11T15:12:47Z</time>
<desc>lat.=44.522621, lon.=33.997757, Alt.=617.195801m. Speed=2.988000m/h.</desc>
<speed>0.830000</speed>
</trkpt>
<trkpt lat="44.522587" lon="33.997723">
<ele>616.008301</ele>
<time>2011-10-11T15:12:52Z</time>
<desc>lat.=44.522587, lon.=33.997723, Alt.=616.008301m. Speed=2.520000m/h.</desc>
<speed>0.700000</speed>
</trkpt>
<trkpt lat="44.522549" lon="33.997662">
<ele>615.211426</ele>
<time>2011-10-11T15:12:57Z</time>
<desc>lat.=44.522549, lon.=33.997662, Alt.=615.211426m. Speed=3.960000m/h.</desc>
<speed>1.100000</speed>
</trkpt>
<trkpt lat="44.522499" lon="33.997601">
<ele>614.258301</ele>
<time>2011-10-11T15:13:02Z</time>
<desc>lat.=44.522499, lon.=33.997601, Alt.=614.258301m. Speed=2.844000m/h.</desc>
<speed>0.790000</speed>
</trkpt>
<trkpt lat="44.522434" lon="33.997578">
<ele>613.336426</ele>
<time>2011-10-11T15:13:07Z</time>
<desc>lat.=44.522434, lon.=33.997578, Alt.=613.336426m. Speed=2.592000m/h.</desc>
<speed>0.720000</speed>
</trkpt>
<trkpt lat="44.522442" lon="33.997509">
<ele>612.180176</ele>
<time>2011-10-11T15:13:12Z</time>
<desc>lat.=44.522442, lon.=33.997509, Alt.=612.180176m. Speed=1.224000m/h.</desc>
<speed>0.340000</speed>
</trkpt>
<trkpt lat="44.522419" lon="33.997490">
<ele>610.945801</ele>
<time>2011-10-11T15:13:17Z</time>
<desc>lat.=44.522419, lon.=33.997490, Alt.=610.945801m. Speed=1.836000m/h.</desc>
<speed>0.510000</speed>
</trkpt>
<trkpt lat="44.522408" lon="33.997440">
<ele>609.461426</ele>
<time>2011-10-11T15:13:22Z</time>
<desc>lat.=44.522408, lon.=33.997440, Alt.=609.461426m. Speed=1.908000m/h.</desc>
<speed>0.530000</speed>
</trkpt>
<trkpt lat="44.522388" lon="33.997395">
<ele>608.414551</ele>
<time>2011-10-11T15:13:27Z</time>
<desc>lat.=44.522388, lon.=33.997395, Alt.=608.414551m. Speed=2.412000m/h.</desc>
<speed>0.670000</speed>
</trkpt>
<trkpt lat="44.522320" lon="33.997330">
<ele>607.023926</ele>
<time>2011-10-11T15:13:32Z</time>
<desc>lat.=44.522320, lon.=33.997330, Alt.=607.023926m. Speed=3.672000m/h.</desc>
<speed>1.020000</speed>
</trkpt>
<trkpt lat="44.522270" lon="33.997292">
<ele>605.773926</ele>
<time>2011-10-11T15:13:37Z</time>
<desc>lat.=44.522270, lon.=33.997292, Alt.=605.773926m. Speed=3.852000m/h.</desc>
<speed>1.070000</speed>
</trkpt>
<trkpt lat="44.522221" lon="33.997257">
<ele>604.273926</ele>
<time>2011-10-11T15:13:42Z</time>
<desc>lat.=44.522221, lon.=33.997257, Alt.=604.273926m. Speed=3.852000m/h.</desc>
<speed>1.070000</speed>
</trkpt>
<trkpt lat="44.522194" lon="33.997223">
<ele>603.445801</ele>
<time>2011-10-11T15:13:47Z</time>
<desc>lat.=44.522194, lon.=33.997223, Alt.=603.445801m. Speed=2.052000m/h.</desc>
<speed>0.570000</speed>
</trkpt>
<trkpt lat="44.522179" lon="33.997215">
<ele>602.711426</ele>
<time>2011-10-11T15:13:52Z</time>
<desc>lat.=44.522179, lon.=33.997215, Alt.=602.711426m. Speed=1.512000m/h.</desc>
<speed>0.420000</speed>
</trkpt>
<trkpt lat="44.522160" lon="33.997204">
<ele>601.133301</ele>
<time>2011-10-11T15:13:57Z</time>
<desc>lat.=44.522160, lon.=33.997204, Alt.=601.133301m. Speed=1.260000m/h.</desc>
<speed>0.350000</speed>
</trkpt>
<trkpt lat="44.522148" lon="33.997173">
<ele>599.492676</ele>
<time>2011-10-11T15:14:02Z</time>
<desc>lat.=44.522148, lon.=33.997173, Alt.=599.492676m. Speed=0.684000m/h.</desc>
<speed>0.190000</speed>
</trkpt>
<trkpt lat="44.522125" lon="33.997185">
<ele>598.445801</ele>
<time>2011-10-11T15:14:07Z</time>
<desc>lat.=44.522125, lon.=33.997185, Alt.=598.445801m. Speed=1.080000m/h.</desc>
<speed>0.300000</speed>
</trkpt>
<trkpt lat="44.522083" lon="33.997192">
<ele>597.836426</ele>
<time>2011-10-11T15:14:12Z</time>
<desc>lat.=44.522083, lon.=33.997192, Alt.=597.836426m. Speed=1.440000m/h.</desc>
<speed>0.400000</speed>
</trkpt>
<trkpt lat="44.522076" lon="33.997135">
<ele>597.133301</ele>
<time>2011-10-11T15:14:17Z</time>
<desc>lat.=44.522076, lon.=33.997135, Alt.=597.133301m. Speed=1.908000m/h.</desc>
<speed>0.530000</speed>
</trkpt>
<trkpt lat="44.522011" lon="33.997139">
<ele>595.820801</ele>
<time>2011-10-11T15:14:22Z</time>
<desc>lat.=44.522011, lon.=33.997139, Alt.=595.820801m. Speed=1.224000m/h.</desc>
<speed>0.340000</speed>
</trkpt>
<trkpt lat="44.522030" lon="33.997124">
<ele>595.164551</ele>
<time>2011-10-11T15:14:27Z</time>
<desc>lat.=44.522030, lon.=33.997124, Alt.=595.164551m. Speed=0.144000m/h.</desc>
<speed>0.040000</speed>
</trkpt>
<trkpt lat="44.522026" lon="33.997124">
<ele>595.086426</ele>
<time>2011-10-11T15:14:32Z</time>
<desc>lat.=44.522026, lon.=33.997124, Alt.=595.086426m. Speed=0.180000m/h.</desc>
<speed>0.050000</speed>
</trkpt>
<trkpt lat="44.522022" lon="33.997128">
<ele>595.008301</ele>
<time>2011-10-11T15:14:37Z</time>
<desc>lat.=44.522022, lon.=33.997128, Alt.=595.008301m. Speed=1.188000m/h.</desc>
<speed>0.330000</speed>
</trkpt>
<trkpt lat="44.522011" lon="33.997139">
<ele>594.414551</ele>
<time>2011-10-11T15:14:42Z</time>
<desc>lat.=44.522011, lon.=33.997139, Alt.=594.414551m. Speed=0.648000m/h.</desc>
<speed>0.180000</speed>
</trkpt>
<trkpt lat="44.522015" lon="33.997139">
<ele>594.242676</ele>
<time>2011-10-11T15:14:47Z</time>
<desc>lat.=44.522015, lon.=33.997139, Alt.=594.242676m. Speed=0.504000m/h.</desc>
<speed>0.140000</speed>
</trkpt>
<trkpt lat="44.522011" lon="33.997143">
<ele>594.227051</ele>
<time>2011-10-11T15:14:52Z</time>
<desc>lat.=44.522011, lon.=33.997143, Alt.=594.227051m. Speed=0.936000m/h.</desc>
<speed>0.260000</speed>
</trkpt>
<trkpt lat="44.522015" lon="33.997147">
<ele>594.023926</ele>
<time>2011-10-11T15:14:57Z</time>
<desc>lat.=44.522015, lon.=33.997147, Alt.=594.023926m. Speed=1.188000m/h.</desc>
<speed>0.330000</speed>
</trkpt>
<trkpt lat="44.521996" lon="33.997242">
<ele>592.586426</ele>
<time>2011-10-11T15:15:02Z</time>
<desc>lat.=44.521996, lon.=33.997242, Alt.=592.586426m. Speed=1.764000m/h.</desc>
<speed>0.490000</speed>
</trkpt>
<trkpt lat="44.521923" lon="33.997288">
<ele>591.258301</ele>
<time>2011-10-11T15:15:07Z</time>
<desc>lat.=44.521923, lon.=33.997288, Alt.=591.258301m. Speed=2.304000m/h.</desc>
<speed>0.640000</speed>
</trkpt>
<trkpt lat="44.521835" lon="33.997311">
<ele>590.148926</ele>
<time>2011-10-11T15:15:12Z</time>
<desc>lat.=44.521835, lon.=33.997311, Alt.=590.148926m. Speed=2.124000m/h.</desc>
<speed>0.590000</speed>
</trkpt>
<trkpt lat="44.521782" lon="33.997345">
<ele>588.930176</ele>
<time>2011-10-11T15:15:17Z</time>
<desc>lat.=44.521782, lon.=33.997345, Alt.=588.930176m. Speed=2.232000m/h.</desc>
<speed>0.620000</speed>
</trkpt>
<trkpt lat="44.521702" lon="33.997383">
<ele>587.805176</ele>
<time>2011-10-11T15:15:22Z</time>
<desc>lat.=44.521702, lon.=33.997383, Alt.=587.805176m. Speed=2.412000m/h.</desc>
<speed>0.670000</speed>
</trkpt>
<trkpt lat="44.521706" lon="33.997406">
<ele>586.336426</ele>
<time>2011-10-11T15:15:27Z</time>
<desc>lat.=44.521706, lon.=33.997406, Alt.=586.336426m. Speed=1.512000m/h.</desc>
<speed>0.420000</speed>
</trkpt>
<trkpt lat="44.521790" lon="33.997345">
<ele>583.867676</ele>
<time>2011-10-11T15:15:32Z</time>
<desc>lat.=44.521790, lon.=33.997345, Alt.=583.867676m. Speed=1.764000m/h.</desc>
<speed>0.490000</speed>
</trkpt>
<trkpt lat="44.521774" lon="33.997383">
<ele>582.477051</ele>
<time>2011-10-11T15:15:37Z</time>
<desc>lat.=44.521774, lon.=33.997383, Alt.=582.477051m. Speed=2.772000m/h.</desc>
<speed>0.770000</speed>
</trkpt>
<trkpt lat="44.521729" lon="33.997387">
<ele>580.914551</ele>
<time>2011-10-11T15:15:42Z</time>
<desc>lat.=44.521729, lon.=33.997387, Alt.=580.914551m. Speed=2.952000m/h.</desc>
<speed>0.820000</speed>
</trkpt>
<trkpt lat="44.521732" lon="33.997391">
<ele>577.461426</ele>
<time>2011-10-11T15:15:47Z</time>
<desc>lat.=44.521732, lon.=33.997391, Alt.=577.461426m. Speed=1.944000m/h.</desc>
<speed>0.540000</speed>
</trkpt>
<trkpt lat="44.521736" lon="33.997444">
<ele>576.008301</ele>
<time>2011-10-11T15:15:52Z</time>
<desc>lat.=44.521736, lon.=33.997444, Alt.=576.008301m. Speed=1.692000m/h.</desc>
<speed>0.470000</speed>
</trkpt>
<trkpt lat="44.521767" lon="33.997467">
<ele>574.977051</ele>
<time>2011-10-11T15:15:57Z</time>
<desc>lat.=44.521767, lon.=33.997467, Alt.=574.977051m. Speed=2.736000m/h.</desc>
<speed>0.760000</speed>
</trkpt>
<trkpt lat="44.521786" lon="33.997478">
<ele>574.430176</ele>
<time>2011-10-11T15:16:02Z</time>
<desc>lat.=44.521786, lon.=33.997478, Alt.=574.430176m. Speed=0.756000m/h.</desc>
<speed>0.210000</speed>
</trkpt>
<trkpt lat="44.521782" lon="33.997486">
<ele>574.414551</ele>
<time>2011-10-11T15:16:07Z</time>
<desc>lat.=44.521782, lon.=33.997486, Alt.=574.414551m. Speed=0.720000m/h.</desc>
<speed>0.200000</speed>
</trkpt>
<trkpt lat="44.521786" lon="33.997490">
<ele>574.305176</ele>
<time>2011-10-11T15:16:12Z</time>
<desc>lat.=44.521786, lon.=33.997490, Alt.=574.305176m. Speed=0.144000m/h.</desc>
<speed>0.040000</speed>
</trkpt>
<trkpt lat="44.521786" lon="33.997494">
<ele>574.227051</ele>
<time>2011-10-11T15:16:17Z</time>
<desc>lat.=44.521786, lon.=33.997494, Alt.=574.227051m. Speed=0.216000m/h.</desc>
<speed>0.060000</speed>
</trkpt>
<trkpt lat="44.521755" lon="33.997482">
<ele>573.086426</ele>
<time>2011-10-11T15:16:22Z</time>
<desc>lat.=44.521755, lon.=33.997482, Alt.=573.086426m. Speed=3.276000m/h.</desc>
<speed>0.910000</speed>
</trkpt>
<trkpt lat="44.521751" lon="33.997524">
<ele>571.961426</ele>
<time>2011-10-11T15:16:27Z</time>
<desc>lat.=44.521751, lon.=33.997524, Alt.=571.961426m. Speed=0.900000m/h.</desc>
<speed>0.250000</speed>
</trkpt>
<trkpt lat="44.521717" lon="33.997543">
<ele>570.305176</ele>
<time>2011-10-11T15:16:32Z</time>
<desc>lat.=44.521717, lon.=33.997543, Alt.=570.305176m. Speed=1.008000m/h.</desc>
<speed>0.280000</speed>
</trkpt>
<trkpt lat="44.521725" lon="33.997604">
<ele>569.242676</ele>
<time>2011-10-11T15:16:37Z</time>
<desc>lat.=44.521725, lon.=33.997604, Alt.=569.242676m. Speed=0.936000m/h.</desc>
<speed>0.260000</speed>
</trkpt>
<trkpt lat="44.521706" lon="33.997612">
<ele>568.570801</ele>
<time>2011-10-11T15:16:42Z</time>
<desc>lat.=44.521706, lon.=33.997612, Alt.=568.570801m. Speed=0.900000m/h.</desc>
<speed>0.250000</speed>
</trkpt>
<trkpt lat="44.521687" lon="33.997616">
<ele>567.711426</ele>
<time>2011-10-11T15:16:47Z</time>
<desc>lat.=44.521687, lon.=33.997616, Alt.=567.711426m. Speed=1.224000m/h.</desc>
<speed>0.340000</speed>
</trkpt>
<trkpt lat="44.521683" lon="33.997658">
<ele>567.242676</ele>
<time>2011-10-11T15:16:52Z</time>
<desc>lat.=44.521683, lon.=33.997658, Alt.=567.242676m. Speed=1.296000m/h.</desc>
<speed>0.360000</speed>
</trkpt>
<trkpt lat="44.521690" lon="33.997704">
<ele>566.398926</ele>
<time>2011-10-11T15:16:57Z</time>
<desc>lat.=44.521690, lon.=33.997704, Alt.=566.398926m. Speed=1.260000m/h.</desc>
<speed>0.350000</speed>
</trkpt>
<trkpt lat="44.521690" lon="33.997738">
<ele>565.789551</ele>
<time>2011-10-11T15:17:02Z</time>
<desc>lat.=44.521690, lon.=33.997738, Alt.=565.789551m. Speed=0.972000m/h.</desc>
<speed>0.270000</speed>
</trkpt>
<trkpt lat="44.521717" lon="33.997787">
<ele>564.945801</ele>
<time>2011-10-11T15:17:07Z</time>
<desc>lat.=44.521717, lon.=33.997787, Alt.=564.945801m. Speed=1.584000m/h.</desc>
<speed>0.440000</speed>
</trkpt>
<trkpt lat="44.521721" lon="33.997833">
<ele>563.430176</ele>
<time>2011-10-11T15:17:12Z</time>
<desc>lat.=44.521721, lon.=33.997833, Alt.=563.430176m. Speed=1.512000m/h.</desc>
<speed>0.420000</speed>
</trkpt>
<trkpt lat="44.521709" lon="33.997845">
<ele>562.352051</ele>
<time>2011-10-11T15:17:17Z</time>
<desc>lat.=44.521709, lon.=33.997845, Alt.=562.352051m. Speed=0.828000m/h.</desc>
<speed>0.230000</speed>
</trkpt>
<trkpt lat="44.521713" lon="33.997841">
<ele>560.930176</ele>
<time>2011-10-11T15:17:22Z</time>
<desc>lat.=44.521713, lon.=33.997841, Alt.=560.930176m. Speed=1.692000m/h.</desc>
<speed>0.470000</speed>
</trkpt>
<trkpt lat="44.521713" lon="33.997868">
<ele>559.711426</ele>
<time>2011-10-11T15:17:27Z</time>
<desc>lat.=44.521713, lon.=33.997868, Alt.=559.711426m. Speed=0.216000m/h.</desc>
<speed>0.060000</speed>
</trkpt>
<trkpt lat="44.521709" lon="33.997898">
<ele>559.164551</ele>
<time>2011-10-11T15:17:32Z</time>
<desc>lat.=44.521709, lon.=33.997898, Alt.=559.164551m. Speed=2.196000m/h.</desc>
<speed>0.610000</speed>
</trkpt>
<trkpt lat="44.521725" lon="33.997936">
<ele>558.492676</ele>
<time>2011-10-11T15:17:37Z</time>
<desc>lat.=44.521725, lon.=33.997936, Alt.=558.492676m. Speed=1.188000m/h.</desc>
<speed>0.330000</speed>
</trkpt>
<trkpt lat="44.521706" lon="33.997990">
<ele>557.414551</ele>
<time>2011-10-11T15:17:42Z</time>
<desc>lat.=44.521706, lon.=33.997990, Alt.=557.414551m. Speed=1.584000m/h.</desc>
<speed>0.440000</speed>
</trkpt>
<trkpt lat="44.521675" lon="33.998016">
<ele>556.008301</ele>
<time>2011-10-11T15:17:47Z</time>
<desc>lat.=44.521675, lon.=33.998016, Alt.=556.008301m. Speed=1.188000m/h.</desc>
<speed>0.330000</speed>
</trkpt>
<trkpt lat="44.521645" lon="33.998016">
<ele>555.258301</ele>
<time>2011-10-11T15:17:52Z</time>
<desc>lat.=44.521645, lon.=33.998016, Alt.=555.258301m. Speed=1.296000m/h.</desc>
<speed>0.360000</speed>
</trkpt>
<trkpt lat="44.521599" lon="33.998055">
<ele>554.180176</ele>
<time>2011-10-11T15:17:57Z</time>
<desc>lat.=44.521599, lon.=33.998055, Alt.=554.180176m. Speed=1.692000m/h.</desc>
<speed>0.470000</speed>
</trkpt>
<trkpt lat="44.521564" lon="33.998077">
<ele>552.930176</ele>
<time>2011-10-11T15:18:02Z</time>
<desc>lat.=44.521564, lon.=33.998077, Alt.=552.930176m. Speed=1.512000m/h.</desc>
<speed>0.420000</speed>
</trkpt>
<trkpt lat="44.521503" lon="33.998047">
<ele>551.133301</ele>
<time>2011-10-11T15:18:07Z</time>
<desc>lat.=44.521503, lon.=33.998047, Alt.=551.133301m. Speed=1.656000m/h.</desc>
<speed>0.460000</speed>
</trkpt>
<trkpt lat="44.521503" lon="33.998039">
<ele>550.711426</ele>
<time>2011-10-11T15:18:12Z</time>
<desc>lat.=44.521503, lon.=33.998039, Alt.=550.711426m. Speed=0.504000m/h.</desc>
<speed>0.140000</speed>
</trkpt>
<trkpt lat="44.521461" lon="33.998085">
<ele>549.852051</ele>
<time>2011-10-11T15:18:17Z</time>
<desc>lat.=44.521461, lon.=33.998085, Alt.=549.852051m. Speed=2.556000m/h.</desc>
<speed>0.710000</speed>
</trkpt>
<trkpt lat="44.521370" lon="33.998081">
<ele>547.805176</ele>
<time>2011-10-11T15:18:22Z</time>
<desc>lat.=44.521370, lon.=33.998081, Alt.=547.805176m. Speed=1.656000m/h.</desc>
<speed>0.460000</speed>
</trkpt>
<trkpt lat="44.521358" lon="33.998100">
<ele>546.789551</ele>
<time>2011-10-11T15:18:27Z</time>
<desc>lat.=44.521358, lon.=33.998100, Alt.=546.789551m. Speed=0.468000m/h.</desc>
<speed>0.130000</speed>
</trkpt>
<trkpt lat="44.521374" lon="33.998108">
<ele>546.227051</ele>
<time>2011-10-11T15:18:32Z</time>
<desc>lat.=44.521374, lon.=33.998108, Alt.=546.227051m. Speed=1.224000m/h.</desc>
<speed>0.340000</speed>
</trkpt>
<trkpt lat="44.521351" lon="33.998108">
<ele>544.758301</ele>
<time>2011-10-11T15:18:37Z</time>
<desc>lat.=44.521351, lon.=33.998108, Alt.=544.758301m. Speed=1.224000m/h.</desc>
<speed>0.340000</speed>
</trkpt>
<trkpt lat="44.521324" lon="33.998104">
<ele>542.945801</ele>
<time>2011-10-11T15:18:42Z</time>
<desc>lat.=44.521324, lon.=33.998104, Alt.=542.945801m. Speed=1.512000m/h.</desc>
<speed>0.420000</speed>
</trkpt>
<trkpt lat="44.521343" lon="33.998119">
<ele>541.742676</ele>
<time>2011-10-11T15:18:47Z</time>
<desc>lat.=44.521343, lon.=33.998119, Alt.=541.742676m. Speed=0.648000m/h.</desc>
<speed>0.180000</speed>
</trkpt>
<trkpt lat="44.521305" lon="33.998203">
<ele>540.320801</ele>
<time>2011-10-11T15:18:52Z</time>
<desc>lat.=44.521305, lon.=33.998203, Alt.=540.320801m. Speed=1.296000m/h.</desc>
<speed>0.360000</speed>
</trkpt>
<trkpt lat="44.521275" lon="33.998215">
<ele>539.102051</ele>
<time>2011-10-11T15:18:57Z</time>
<desc>lat.=44.521275, lon.=33.998215, Alt.=539.102051m. Speed=1.620000m/h.</desc>
<speed>0.450000</speed>
</trkpt>
<trkpt lat="44.521240" lon="33.998211">
<ele>537.805176</ele>
<time>2011-10-11T15:19:02Z</time>
<desc>lat.=44.521240, lon.=33.998211, Alt.=537.805176m. Speed=2.016000m/h.</desc>
<speed>0.560000</speed>
</trkpt>
<trkpt lat="44.521271" lon="33.998135">
<ele>535.570801</ele>
<time>2011-10-11T15:19:07Z</time>
<desc>lat.=44.521271, lon.=33.998135, Alt.=535.570801m. Speed=1.188000m/h.</desc>
<speed>0.330000</speed>
</trkpt>
<trkpt lat="44.521263" lon="33.998177">
<ele>534.273926</ele>
<time>2011-10-11T15:19:12Z</time>
<desc>lat.=44.521263, lon.=33.998177, Alt.=534.273926m. Speed=1.260000m/h.</desc>
<speed>0.350000</speed>
</trkpt>
<trkpt lat="44.521217" lon="33.998192">
<ele>532.508301</ele>
<time>2011-10-11T15:19:17Z</time>
<desc>lat.=44.521217, lon.=33.998192, Alt.=532.508301m. Speed=1.620000m/h.</desc>
<speed>0.450000</speed>
</trkpt>
<trkpt lat="44.521168" lon="33.998226">
<ele>531.102051</ele>
<time>2011-10-11T15:19:22Z</time>
<desc>lat.=44.521168, lon.=33.998226, Alt.=531.102051m. Speed=1.692000m/h.</desc>
<speed>0.470000</speed>
</trkpt>
<trkpt lat="44.521122" lon="33.998199">
<ele>529.305176</ele>
<time>2011-10-11T15:19:27Z</time>
<desc>lat.=44.521122, lon.=33.998199, Alt.=529.305176m. Speed=0.972000m/h.</desc>
<speed>0.270000</speed>
</trkpt>
<trkpt lat="44.521107" lon="33.998184">
<ele>528.336426</ele>
<time>2011-10-11T15:19:32Z</time>
<desc>lat.=44.521107, lon.=33.998184, Alt.=528.336426m. Speed=2.664000m/h.</desc>
<speed>0.740000</speed>
</trkpt>
<trkpt lat="44.521057" lon="33.998169">
<ele>527.305176</ele>
<time>2011-10-11T15:19:37Z</time>
<desc>lat.=44.521057, lon.=33.998169, Alt.=527.305176m. Speed=3.240000m/h.</desc>
<speed>0.900000</speed>
</trkpt>
<trkpt lat="44.520981" lon="33.998177">
<ele>526.164551</ele>
<time>2011-10-11T15:19:42Z</time>
<desc>lat.=44.520981, lon.=33.998177, Alt.=526.164551m. Speed=2.448000m/h.</desc>
<speed>0.680000</speed>
</trkpt>
<trkpt lat="44.520943" lon="33.998119">
<ele>525.258301</ele>
<time>2011-10-11T15:19:47Z</time>
<desc>lat.=44.520943, lon.=33.998119, Alt.=525.258301m. Speed=2.772000m/h.</desc>
<speed>0.770000</speed>
</trkpt>
<trkpt lat="44.520924" lon="33.998028">
<ele>524.633301</ele>
<time>2011-10-11T15:19:52Z</time>
<desc>lat.=44.520924, lon.=33.998028, Alt.=524.633301m. Speed=3.780000m/h.</desc>
<speed>1.050000</speed>
</trkpt>
<trkpt lat="44.520897" lon="33.997974">
<ele>523.664551</ele>
<time>2011-10-11T15:19:57Z</time>
<desc>lat.=44.520897, lon.=33.997974, Alt.=523.664551m. Speed=3.708000m/h.</desc>
<speed>1.030000</speed>
</trkpt>
<trkpt lat="44.520863" lon="33.997887">
<ele>522.211426</ele>
<time>2011-10-11T15:20:02Z</time>
<desc>lat.=44.520863, lon.=33.997887, Alt.=522.211426m. Speed=2.196000m/h.</desc>
<speed>0.610000</speed>
</trkpt>
<trkpt lat="44.520866" lon="33.997837">
<ele>520.273926</ele>
<time>2011-10-11T15:20:07Z</time>
<desc>lat.=44.520866, lon.=33.997837, Alt.=520.273926m. Speed=0.216000m/h.</desc>
<speed>0.060000</speed>
</trkpt>
<trkpt lat="44.520863" lon="33.997841">
<ele>520.039551</ele>
<time>2011-10-11T15:20:12Z</time>
<desc>lat.=44.520863, lon.=33.997841, Alt.=520.039551m. Speed=0.468000m/h.</desc>
<speed>0.130000</speed>
</trkpt>
<trkpt lat="44.520866" lon="33.997837">
<ele>519.992676</ele>
<time>2011-10-11T15:20:17Z</time>
<desc>lat.=44.520866, lon.=33.997837, Alt.=519.992676m. Speed=0.288000m/h.</desc>
<speed>0.080000</speed>
</trkpt>
<trkpt lat="44.520866" lon="33.997845">
<ele>519.836426</ele>
<time>2011-10-11T15:20:22Z</time>
<desc>lat.=44.520866, lon.=33.997845, Alt.=519.836426m. Speed=0.936000m/h.</desc>
<speed>0.260000</speed>
</trkpt>
<trkpt lat="44.520863" lon="33.997829">
<ele>517.602051</ele>
<time>2011-10-11T15:20:27Z</time>
<desc>lat.=44.520863, lon.=33.997829, Alt.=517.602051m. Speed=1.548000m/h.</desc>
<speed>0.430000</speed>
</trkpt>
<trkpt lat="44.520889" lon="33.997791">
<ele>514.430176</ele>
<time>2011-10-11T15:20:32Z</time>
<desc>lat.=44.520889, lon.=33.997791, Alt.=514.430176m. Speed=2.412000m/h.</desc>
<speed>0.670000</speed>
</trkpt>
<trkpt lat="44.520893" lon="33.997860">
<ele>512.305176</ele>
<time>2011-10-11T15:20:37Z</time>
<desc>lat.=44.520893, lon.=33.997860, Alt.=512.305176m. Speed=1.224000m/h.</desc>
<speed>0.340000</speed>
</trkpt>
<trkpt lat="44.520847" lon="33.997871">
<ele>510.965088</ele>
<time>2011-10-11T15:20:42Z</time>
<desc>lat.=44.520847, lon.=33.997871, Alt.=510.965088m. Speed=1.440000m/h.</desc>
<speed>0.400000</speed>
</trkpt>
<trkpt lat="44.520832" lon="33.997845">
<ele>510.293213</ele>
<time>2011-10-11T15:20:47Z</time>
<desc>lat.=44.520832, lon.=33.997845, Alt.=510.293213m. Speed=2.556000m/h.</desc>
<speed>0.710000</speed>
</trkpt>
<trkpt lat="44.520802" lon="33.997791">
<ele>509.761963</ele>
<time>2011-10-11T15:20:52Z</time>
<desc>lat.=44.520802, lon.=33.997791, Alt.=509.761963m. Speed=2.952000m/h.</desc>
<speed>0.820000</speed>
</trkpt>
<trkpt lat="44.520813" lon="33.997707">
<ele>510.051025</ele>
<time>2011-10-11T15:20:57Z</time>
<desc>lat.=44.520813, lon.=33.997707, Alt.=510.051025m. Speed=3.564000m/h.</desc>
<speed>0.990000</speed>
</trkpt>
<trkpt lat="44.520840" lon="33.997631">
<ele>510.582275</ele>
<time>2011-10-11T15:21:02Z</time>
<desc>lat.=44.520840, lon.=33.997631, Alt.=510.582275m. Speed=2.772000m/h.</desc>
<speed>0.770000</speed>
</trkpt>
<trkpt lat="44.520821" lon="33.997585">
<ele>511.426025</ele>
<time>2011-10-11T15:21:07Z</time>
<desc>lat.=44.520821, lon.=33.997585, Alt.=511.426025m. Speed=2.124000m/h.</desc>
<speed>0.590000</speed>
</trkpt>
<trkpt lat="44.520794" lon="33.997509">
<ele>512.930176</ele>
<time>2011-10-11T15:21:12Z</time>
<desc>lat.=44.520794, lon.=33.997509, Alt.=512.930176m. Speed=3.348000m/h.</desc>
<speed>0.930000</speed>
</trkpt>
<trkpt lat="44.520744" lon="33.997433">
<ele>513.742676</ele>
<time>2011-10-11T15:21:17Z</time>
<desc>lat.=44.520744, lon.=33.997433, Alt.=513.742676m. Speed=4.608000m/h.</desc>
<speed>1.280000</speed>
</trkpt>
<trkpt lat="44.520721" lon="33.997341">
<ele>514.320801</ele>
<time>2011-10-11T15:21:22Z</time>
<desc>lat.=44.520721, lon.=33.997341, Alt.=514.320801m. Speed=3.996000m/h.</desc>
<speed>1.110000</speed>
</trkpt>
<trkpt lat="44.520683" lon="33.997288">
<ele>514.992676</ele>
<time>2011-10-11T15:21:27Z</time>
<desc>lat.=44.520683, lon.=33.997288, Alt.=514.992676m. Speed=5.652000m/h.</desc>
<speed>1.570000</speed>
</trkpt>
<trkpt lat="44.520622" lon="33.997238">
<ele>515.789551</ele>
<time>2011-10-11T15:21:32Z</time>
<desc>lat.=44.520622, lon.=33.997238, Alt.=515.789551m. Speed=4.284000m/h.</desc>
<speed>1.190000</speed>
</trkpt>
<trkpt lat="44.520561" lon="33.997200">
<ele>516.180176</ele>
<time>2011-10-11T15:21:37Z</time>
<desc>lat.=44.520561, lon.=33.997200, Alt.=516.180176m. Speed=4.320000m/h.</desc>
<speed>1.200000</speed>
</trkpt>
<trkpt lat="44.520519" lon="33.997147">
<ele>516.977051</ele>
<time>2011-10-11T15:21:42Z</time>
<desc>lat.=44.520519, lon.=33.997147, Alt.=516.977051m. Speed=2.880000m/h.</desc>
<speed>0.800000</speed>
</trkpt>
<trkpt lat="44.520466" lon="33.997124">
<ele>517.727051</ele>
<time>2011-10-11T15:21:47Z</time>
<desc>lat.=44.520466, lon.=33.997124, Alt.=517.727051m. Speed=3.240000m/h.</desc>
<speed>0.900000</speed>
</trkpt>
<trkpt lat="44.520405" lon="33.997089">
<ele>518.555176</ele>
<time>2011-10-11T15:21:52Z</time>
<desc>lat.=44.520405, lon.=33.997089, Alt.=518.555176m. Speed=3.636000m/h.</desc>
<speed>1.010000</speed>
</trkpt>
<trkpt lat="44.520340" lon="33.997059">
<ele>519.383301</ele>
<time>2011-10-11T15:21:57Z</time>
<desc>lat.=44.520340, lon.=33.997059, Alt.=519.383301m. Speed=3.780000m/h.</desc>
<speed>1.050000</speed>
</trkpt>
<trkpt lat="44.520325" lon="33.997005">
<ele>520.227051</ele>
<time>2011-10-11T15:22:02Z</time>
<desc>lat.=44.520325, lon.=33.997005, Alt.=520.227051m. Speed=3.312000m/h.</desc>
<speed>0.920000</speed>
</trkpt>
<trkpt lat="44.520290" lon="33.996975">
<ele>520.336426</ele>
<time>2011-10-11T15:22:07Z</time>
<desc>lat.=44.520290, lon.=33.996975, Alt.=520.336426m. Speed=2.412000m/h.</desc>
<speed>0.670000</speed>
</trkpt>
<trkpt lat="44.520252" lon="33.996906">
<ele>520.273926</ele>
<time>2011-10-11T15:22:12Z</time>
<desc>lat.=44.520252, lon.=33.996906, Alt.=520.273926m. Speed=3.420000m/h.</desc>
<speed>0.950000</speed>
</trkpt>
<trkpt lat="44.520187" lon="33.996880">
<ele>520.742676</ele>
<time>2011-10-11T15:22:17Z</time>
<desc>lat.=44.520187, lon.=33.996880, Alt.=520.742676m. Speed=3.780000m/h.</desc>
<speed>1.050000</speed>
</trkpt>
<trkpt lat="44.520126" lon="33.996838">
<ele>521.102051</ele>
<time>2011-10-11T15:22:22Z</time>
<desc>lat.=44.520126, lon.=33.996838, Alt.=521.102051m. Speed=3.096000m/h.</desc>
<speed>0.860000</speed>
</trkpt>
<trkpt lat="44.520100" lon="33.996807">
<ele>521.430176</ele>
<time>2011-10-11T15:22:27Z</time>
<desc>lat.=44.520100, lon.=33.996807, Alt.=521.430176m. Speed=3.132000m/h.</desc>
<speed>0.870000</speed>
</trkpt>
<trkpt lat="44.520042" lon="33.996777">
<ele>521.883301</ele>
<time>2011-10-11T15:22:32Z</time>
<desc>lat.=44.520042, lon.=33.996777, Alt.=521.883301m. Speed=3.816000m/h.</desc>
<speed>1.060000</speed>
</trkpt>
<trkpt lat="44.519978" lon="33.996738">
<ele>522.961426</ele>
<time>2011-10-11T15:22:37Z</time>
<desc>lat.=44.519978, lon.=33.996738, Alt.=522.961426m. Speed=4.788000m/h.</desc>
<speed>1.330000</speed>
</trkpt>
<trkpt lat="44.519939" lon="33.996655">
<ele>523.164551</ele>
<time>2011-10-11T15:22:42Z</time>
<desc>lat.=44.519939, lon.=33.996655, Alt.=523.164551m. Speed=5.292000m/h.</desc>
<speed>1.470000</speed>
</trkpt>
<trkpt lat="44.519928" lon="33.996571">
<ele>524.305176</ele>
<time>2011-10-11T15:22:47Z</time>
<desc>lat.=44.519928, lon.=33.996571, Alt.=524.305176m. Speed=5.544000m/h.</desc>
<speed>1.540000</speed>
</trkpt>
<trkpt lat="44.519917" lon="33.996487">
<ele>525.977051</ele>
<time>2011-10-11T15:22:52Z</time>
<desc>lat.=44.519917, lon.=33.996487, Alt.=525.977051m. Speed=5.400000m/h.</desc>
<speed>1.500000</speed>
</trkpt>
<trkpt lat="44.519882" lon="33.996407">
<ele>526.664551</ele>
<time>2011-10-11T15:22:57Z</time>
<desc>lat.=44.519882, lon.=33.996407, Alt.=526.664551m. Speed=6.048000m/h.</desc>
<speed>1.680000</speed>
</trkpt>
<trkpt lat="44.519844" lon="33.996277">
<ele>524.211426</ele>
<time>2011-10-11T15:23:02Z</time>
<desc>lat.=44.519844, lon.=33.996277, Alt.=524.211426m. Speed=5.796000m/h.</desc>
<speed>1.610000</speed>
</trkpt>
<trkpt lat="44.519871" lon="33.996166">
<ele>523.742676</ele>
<time>2011-10-11T15:23:07Z</time>
<desc>lat.=44.519871, lon.=33.996166, Alt.=523.742676m. Speed=7.884000m/h.</desc>
<speed>2.190000</speed>
</trkpt>
<trkpt lat="44.519859" lon="33.996090">
<ele>522.742676</ele>
<time>2011-10-11T15:23:12Z</time>
<desc>lat.=44.519859, lon.=33.996090, Alt.=522.742676m. Speed=3.672000m/h.</desc>
<speed>1.020000</speed>
</trkpt>
<trkpt lat="44.519840" lon="33.996029">
<ele>520.914551</ele>
<time>2011-10-11T15:23:17Z</time>
<desc>lat.=44.519840, lon.=33.996029, Alt.=520.914551m. Speed=3.384000m/h.</desc>
<speed>0.940000</speed>
</trkpt>
<trkpt lat="44.519810" lon="33.995979">
<ele>519.102051</ele>
<time>2011-10-11T15:23:22Z</time>
<desc>lat.=44.519810, lon.=33.995979, Alt.=519.102051m. Speed=2.628000m/h.</desc>
<speed>0.730000</speed>
</trkpt>
<trkpt lat="44.519794" lon="33.995949">
<ele>517.742676</ele>
<time>2011-10-11T15:23:27Z</time>
<desc>lat.=44.519794, lon.=33.995949, Alt.=517.742676m. Speed=2.484000m/h.</desc>
<speed>0.690000</speed>
</trkpt>
<trkpt lat="44.519791" lon="33.995846">
<ele>516.055176</ele>
<time>2011-10-11T15:23:32Z</time>
<desc>lat.=44.519791, lon.=33.995846, Alt.=516.055176m. Speed=4.680000m/h.</desc>
<speed>1.300000</speed>
</trkpt>
<trkpt lat="44.519772" lon="33.995773">
<ele>514.273926</ele>
<time>2011-10-11T15:23:37Z</time>
<desc>lat.=44.519772, lon.=33.995773, Alt.=514.273926m. Speed=2.916000m/h.</desc>
<speed>0.810000</speed>
</trkpt>
<trkpt lat="44.519794" lon="33.995716">
<ele>513.055176</ele>
<time>2011-10-11T15:23:42Z</time>
<desc>lat.=44.519794, lon.=33.995716, Alt.=513.055176m. Speed=3.384000m/h.</desc>
<speed>0.940000</speed>
</trkpt>
<trkpt lat="44.519833" lon="33.995598">
<ele>512.211426</ele>
<time>2011-10-11T15:23:47Z</time>
<desc>lat.=44.519833, lon.=33.995598, Alt.=512.211426m. Speed=4.680000m/h.</desc>
<speed>1.300000</speed>
</trkpt>
<trkpt lat="44.519844" lon="33.995457">
<ele>511.097900</ele>
<time>2011-10-11T15:23:52Z</time>
<desc>lat.=44.519844, lon.=33.995457, Alt.=511.097900m. Speed=6.120000m/h.</desc>
<speed>1.700000</speed>
</trkpt>
<trkpt lat="44.519852" lon="33.995373">
<ele>510.105713</ele>
<time>2011-10-11T15:23:57Z</time>
<desc>lat.=44.519852, lon.=33.995373, Alt.=510.105713m. Speed=4.716000m/h.</desc>
<speed>1.310000</speed>
</trkpt>
<trkpt lat="44.519859" lon="33.995281">
<ele>509.168213</ele>
<time>2011-10-11T15:24:02Z</time>
<desc>lat.=44.519859, lon.=33.995281, Alt.=509.168213m. Speed=4.176000m/h.</desc>
<speed>1.160000</speed>
</trkpt>
<trkpt lat="44.519901" lon="33.995232">
<ele>507.722900</ele>
<time>2011-10-11T15:24:07Z</time>
<desc>lat.=44.519901, lon.=33.995232, Alt.=507.722900m. Speed=0.972000m/h.</desc>
<speed>0.270000</speed>
</trkpt>
<trkpt lat="44.519901" lon="33.995171">
<ele>507.886963</ele>
<time>2011-10-11T15:24:12Z</time>
<desc>lat.=44.519901, lon.=33.995171, Alt.=507.886963m. Speed=2.124000m/h.</desc>
<speed>0.590000</speed>
</trkpt>
<trkpt lat="44.519905" lon="33.995117">
<ele>507.558838</ele>
<time>2011-10-11T15:24:17Z</time>
<desc>lat.=44.519905, lon.=33.995117, Alt.=507.558838m. Speed=2.844000m/h.</desc>
<speed>0.790000</speed>
</trkpt>
<trkpt lat="44.519917" lon="33.995064">
<ele>507.519775</ele>
<time>2011-10-11T15:24:22Z</time>
<desc>lat.=44.519917, lon.=33.995064, Alt.=507.519775m. Speed=2.196000m/h.</desc>
<speed>0.610000</speed>
</trkpt>
<trkpt lat="44.519943" lon="33.994953">
<ele>507.972900</ele>
<time>2011-10-11T15:24:27Z</time>
<desc>lat.=44.519943, lon.=33.994953, Alt.=507.972900m. Speed=3.528000m/h.</desc>
<speed>0.980000</speed>
</trkpt>
<trkpt lat="44.519928" lon="33.994843">
<ele>508.183838</ele>
<time>2011-10-11T15:24:32Z</time>
<desc>lat.=44.519928, lon.=33.994843, Alt.=508.183838m. Speed=2.268000m/h.</desc>
<speed>0.630000</speed>
</trkpt>
<trkpt lat="44.519913" lon="33.994740">
<ele>508.621338</ele>
<time>2011-10-11T15:24:37Z</time>
<desc>lat.=44.519913, lon.=33.994740, Alt.=508.621338m. Speed=2.340000m/h.</desc>
<speed>0.650000</speed>
</trkpt>
<trkpt lat="44.519943" lon="33.994667">
<ele>509.629150</ele>
<time>2011-10-11T15:24:42Z</time>
<desc>lat.=44.519943, lon.=33.994667, Alt.=509.629150m. Speed=4.428000m/h.</desc>
<speed>1.230000</speed>
</trkpt>
<trkpt lat="44.520008" lon="33.994583">
<ele>510.027588</ele>
<time>2011-10-11T15:24:47Z</time>
<desc>lat.=44.520008, lon.=33.994583, Alt.=510.027588m. Speed=4.644000m/h.</desc>
<speed>1.290000</speed>
</trkpt>
<trkpt lat="44.520031" lon="33.994499">
<ele>509.660400</ele>
<time>2011-10-11T15:24:52Z</time>
<desc>lat.=44.520031, lon.=33.994499, Alt.=509.660400m. Speed=4.392000m/h.</desc>
<speed>1.220000</speed>
</trkpt>
<trkpt lat="44.520050" lon="33.994450">
<ele>509.199463</ele>
<time>2011-10-11T15:24:57Z</time>
<desc>lat.=44.520050, lon.=33.994450, Alt.=509.199463m. Speed=2.808000m/h.</desc>
<speed>0.780000</speed>
</trkpt>
<trkpt lat="44.520061" lon="33.994385">
<ele>509.043213</ele>
<time>2011-10-11T15:25:02Z</time>
<desc>lat.=44.520061, lon.=33.994385, Alt.=509.043213m. Speed=3.132000m/h.</desc>
<speed>0.870000</speed>
</trkpt>
<trkpt lat="44.520088" lon="33.994305">
<ele>508.832275</ele>
<time>2011-10-11T15:25:07Z</time>
<desc>lat.=44.520088, lon.=33.994305, Alt.=508.832275m. Speed=2.808000m/h.</desc>
<speed>0.780000</speed>
</trkpt>
<trkpt lat="44.520134" lon="33.994183">
<ele>509.433838</ele>
<time>2011-10-11T15:25:12Z</time>
<desc>lat.=44.520134, lon.=33.994183, Alt.=509.433838m. Speed=3.564000m/h.</desc>
<speed>0.990000</speed>
</trkpt>
<trkpt lat="44.520153" lon="33.994118">
<ele>509.488525</ele>
<time>2011-10-11T15:25:17Z</time>
<desc>lat.=44.520153, lon.=33.994118, Alt.=509.488525m. Speed=2.772000m/h.</desc>
<speed>0.770000</speed>
</trkpt>
<trkpt lat="44.520203" lon="33.993912">
<ele>511.160400</ele>
<time>2011-10-11T15:25:22Z</time>
<desc>lat.=44.520203, lon.=33.993912, Alt.=511.160400m. Speed=5.724000m/h.</desc>
<speed>1.590000</speed>
</trkpt>
<trkpt lat="44.520206" lon="33.993805">
<ele>511.816650</ele>
<time>2011-10-11T15:25:27Z</time>
<desc>lat.=44.520206, lon.=33.993805, Alt.=511.816650m. Speed=4.320000m/h.</desc>
<speed>1.200000</speed>
</trkpt>
<trkpt lat="44.520237" lon="33.993679">
<ele>512.617676</ele>
<time>2011-10-11T15:25:32Z</time>
<desc>lat.=44.520237, lon.=33.993679, Alt.=512.617676m. Speed=2.844000m/h.</desc>
<speed>0.790000</speed>
</trkpt>
<trkpt lat="44.520256" lon="33.993576">
<ele>514.133301</ele>
<time>2011-10-11T15:25:37Z</time>
<desc>lat.=44.520256, lon.=33.993576, Alt.=514.133301m. Speed=3.348000m/h.</desc>
<speed>0.930000</speed>
</trkpt>
<trkpt lat="44.520226" lon="33.993484">
<ele>516.086426</ele>
<time>2011-10-11T15:25:42Z</time>
<desc>lat.=44.520226, lon.=33.993484, Alt.=516.086426m. Speed=3.780000m/h.</desc>
<speed>1.050000</speed>
</trkpt>
<trkpt lat="44.520210" lon="33.993420">
<ele>517.867676</ele>
<time>2011-10-11T15:25:47Z</time>
<desc>lat.=44.520210, lon.=33.993420, Alt.=517.867676m. Speed=3.204000m/h.</desc>
<speed>0.890000</speed>
</trkpt>
<trkpt lat="44.520195" lon="33.993324">
<ele>519.570801</ele>
<time>2011-10-11T15:25:52Z</time>
<desc>lat.=44.520195, lon.=33.993324, Alt.=519.570801m. Speed=3.420000m/h.</desc>
<speed>0.950000</speed>
</trkpt>
<trkpt lat="44.520176" lon="33.993233">
<ele>521.477051</ele>
<time>2011-10-11T15:25:57Z</time>
<desc>lat.=44.520176, lon.=33.993233, Alt.=521.477051m. Speed=2.160000m/h.</desc>
<speed>0.600000</speed>
</trkpt>
<trkpt lat="44.520176" lon="33.993149">
<ele>523.852051</ele>
<time>2011-10-11T15:26:02Z</time>
<desc>lat.=44.520176, lon.=33.993149, Alt.=523.852051m. Speed=3.564000m/h.</desc>
<speed>0.990000</speed>
</trkpt>
<trkpt lat="44.520187" lon="33.993076">
<ele>524.773926</ele>
<time>2011-10-11T15:26:07Z</time>
<desc>lat.=44.520187, lon.=33.993076, Alt.=524.773926m. Speed=3.852000m/h.</desc>
<speed>1.070000</speed>
</trkpt>
<trkpt lat="44.520149" lon="33.993023">
<ele>526.930176</ele>
<time>2011-10-11T15:26:12Z</time>
<desc>lat.=44.520149, lon.=33.993023, Alt.=526.930176m. Speed=3.240000m/h.</desc>
<speed>0.900000</speed>
</trkpt>
<trkpt lat="44.520134" lon="33.992935">
<ele>526.164551</ele>
<time>2011-10-11T15:26:17Z</time>
<desc>lat.=44.520134, lon.=33.992935, Alt.=526.164551m. Speed=2.088000m/h.</desc>
<speed>0.580000</speed>
</trkpt>
<trkpt lat="44.520077" lon="33.992825">
<ele>524.102051</ele>
<time>2011-10-11T15:26:22Z</time>
<desc>lat.=44.520077, lon.=33.992825, Alt.=524.102051m. Speed=3.240000m/h.</desc>
<speed>0.900000</speed>
</trkpt>
<trkpt lat="44.520088" lon="33.992752">
<ele>523.586426</ele>
<time>2011-10-11T15:26:27Z</time>
<desc>lat.=44.520088, lon.=33.992752, Alt.=523.586426m. Speed=2.448000m/h.</desc>
<speed>0.680000</speed>
</trkpt>
<trkpt lat="44.520111" lon="33.992687">
<ele>523.789551</ele>
<time>2011-10-11T15:26:32Z</time>
<desc>lat.=44.520111, lon.=33.992687, Alt.=523.789551m. Speed=2.916000m/h.</desc>
<speed>0.810000</speed>
</trkpt>
<trkpt lat="44.520149" lon="33.992611">
<ele>523.883301</ele>
<time>2011-10-11T15:26:37Z</time>
<desc>lat.=44.520149, lon.=33.992611, Alt.=523.883301m. Speed=2.808000m/h.</desc>
<speed>0.780000</speed>
</trkpt>
<trkpt lat="44.520214" lon="33.992546">
<ele>523.773926</ele>
<time>2011-10-11T15:26:42Z</time>
<desc>lat.=44.520214, lon.=33.992546, Alt.=523.773926m. Speed=2.484000m/h.</desc>
<speed>0.690000</speed>
</trkpt>
<trkpt lat="44.520271" lon="33.992470">
<ele>523.742676</ele>
<time>2011-10-11T15:26:47Z</time>
<desc>lat.=44.520271, lon.=33.992470, Alt.=523.742676m. Speed=3.564000m/h.</desc>
<speed>0.990000</speed>
</trkpt>
<trkpt lat="44.520355" lon="33.992443">
<ele>524.336426</ele>
<time>2011-10-11T15:26:52Z</time>
<desc>lat.=44.520355, lon.=33.992443, Alt.=524.336426m. Speed=2.880000m/h.</desc>
<speed>0.800000</speed>
</trkpt>
<trkpt lat="44.520416" lon="33.992401">
<ele>524.305176</ele>
<time>2011-10-11T15:26:57Z</time>
<desc>lat.=44.520416, lon.=33.992401, Alt.=524.305176m. Speed=3.276000m/h.</desc>
<speed>0.910000</speed>
</trkpt>
<trkpt lat="44.520477" lon="33.992352">
<ele>524.008301</ele>
<time>2011-10-11T15:27:02Z</time>
<desc>lat.=44.520477, lon.=33.992352, Alt.=524.008301m. Speed=3.672000m/h.</desc>
<speed>1.020000</speed>
</trkpt>
<trkpt lat="44.520515" lon="33.992325">
<ele>524.211426</ele>
<time>2011-10-11T15:27:07Z</time>
<desc>lat.=44.520515, lon.=33.992325, Alt.=524.211426m. Speed=1.944000m/h.</desc>
<speed>0.540000</speed>
</trkpt>
<trkpt lat="44.520527" lon="33.992287">
<ele>524.055176</ele>
<time>2011-10-11T15:27:12Z</time>
<desc>lat.=44.520527, lon.=33.992287, Alt.=524.055176m. Speed=1.620000m/h.</desc>
<speed>0.450000</speed>
</trkpt>
<trkpt lat="44.520599" lon="33.992226">
<ele>523.602051</ele>
<time>2011-10-11T15:27:17Z</time>
<desc>lat.=44.520599, lon.=33.992226, Alt.=523.602051m. Speed=2.484000m/h.</desc>
<speed>0.690000</speed>
</trkpt>
<trkpt lat="44.520649" lon="33.992222">
<ele>523.430176</ele>
<time>2011-10-11T15:27:22Z</time>
<desc>lat.=44.520649, lon.=33.992222, Alt.=523.430176m. Speed=1.440000m/h.</desc>
<speed>0.400000</speed>
</trkpt>
<trkpt lat="44.520657" lon="33.992218">
<ele>523.633301</ele>
<time>2011-10-11T15:27:27Z</time>
<desc>lat.=44.520657, lon.=33.992218, Alt.=523.633301m. Speed=0.936000m/h.</desc>
<speed>0.260000</speed>
</trkpt>
<trkpt lat="44.520664" lon="33.992214">
<ele>523.195801</ele>
<time>2011-10-11T15:27:32Z</time>
<desc>lat.=44.520664, lon.=33.992214, Alt.=523.195801m. Speed=0.936000m/h.</desc>
<speed>0.260000</speed>
</trkpt>
<trkpt lat="44.520649" lon="33.992191">
<ele>523.023926</ele>
<time>2011-10-11T15:27:37Z</time>
<desc>lat.=44.520649, lon.=33.992191, Alt.=523.023926m. Speed=1.260000m/h.</desc>
<speed>0.350000</speed>
</trkpt>
<trkpt lat="44.520733" lon="33.992130">
<ele>522.367676</ele>
<time>2011-10-11T15:27:42Z</time>
<desc>lat.=44.520733, lon.=33.992130, Alt.=522.367676m. Speed=1.116000m/h.</desc>
<speed>0.310000</speed>
</trkpt>
<trkpt lat="44.520763" lon="33.992035">
<ele>521.711426</ele>
<time>2011-10-11T15:27:47Z</time>
<desc>lat.=44.520763, lon.=33.992035, Alt.=521.711426m. Speed=1.404000m/h.</desc>
<speed>0.390000</speed>
</trkpt>
<trkpt lat="44.520775" lon="33.992043">
<ele>521.023926</ele>
<time>2011-10-11T15:27:52Z</time>
<desc>lat.=44.520775, lon.=33.992043, Alt.=521.023926m. Speed=2.088000m/h.</desc>
<speed>0.580000</speed>
</trkpt>
<trkpt lat="44.520744" lon="33.992008">
<ele>520.211426</ele>
<time>2011-10-11T15:27:57Z</time>
<desc>lat.=44.520744, lon.=33.992008, Alt.=520.211426m. Speed=2.664000m/h.</desc>
<speed>0.740000</speed>
</trkpt>
<trkpt lat="44.520718" lon="33.991943">
<ele>519.820801</ele>
<time>2011-10-11T15:28:02Z</time>
<desc>lat.=44.520718, lon.=33.991943, Alt.=519.820801m. Speed=2.700000m/h.</desc>
<speed>0.750000</speed>
</trkpt>
<trkpt lat="44.520683" lon="33.991901">
<ele>518.742676</ele>
<time>2011-10-11T15:28:07Z</time>
<desc>lat.=44.520683, lon.=33.991901, Alt.=518.742676m. Speed=2.232000m/h.</desc>
<speed>0.620000</speed>
</trkpt>
<trkpt lat="44.520668" lon="33.991875">
<ele>517.602051</ele>
<time>2011-10-11T15:28:12Z</time>
<desc>lat.=44.520668, lon.=33.991875, Alt.=517.602051m. Speed=1.728000m/h.</desc>
<speed>0.480000</speed>
</trkpt>
<trkpt lat="44.520649" lon="33.991844">
<ele>517.023926</ele>
<time>2011-10-11T15:28:17Z</time>
<desc>lat.=44.520649, lon.=33.991844, Alt.=517.023926m. Speed=1.872000m/h.</desc>
<speed>0.520000</speed>
</trkpt>
<trkpt lat="44.520653" lon="33.991810">
<ele>516.586426</ele>
<time>2011-10-11T15:28:22Z</time>
<desc>lat.=44.520653, lon.=33.991810, Alt.=516.586426m. Speed=0.792000m/h.</desc>
<speed>0.220000</speed>
</trkpt>
<trkpt lat="44.520645" lon="33.991764">
<ele>515.977051</ele>
<time>2011-10-11T15:28:27Z</time>
<desc>lat.=44.520645, lon.=33.991764, Alt.=515.977051m. Speed=1.404000m/h.</desc>
<speed>0.390000</speed>
</trkpt>
<trkpt lat="44.520607" lon="33.991726">
<ele>514.367676</ele>
<time>2011-10-11T15:28:32Z</time>
<desc>lat.=44.520607, lon.=33.991726, Alt.=514.367676m. Speed=1.584000m/h.</desc>
<speed>0.440000</speed>
</trkpt>
<trkpt lat="44.520607" lon="33.991653">
<ele>512.539551</ele>
<time>2011-10-11T15:28:37Z</time>
<desc>lat.=44.520607, lon.=33.991653, Alt.=512.539551m. Speed=1.260000m/h.</desc>
<speed>0.350000</speed>
</trkpt>
<trkpt lat="44.520580" lon="33.991627">
<ele>511.027588</ele>
<time>2011-10-11T15:28:42Z</time>
<desc>lat.=44.520580, lon.=33.991627, Alt.=511.027588m. Speed=1.152000m/h.</desc>
<speed>0.320000</speed>
</trkpt>
<trkpt lat="44.520611" lon="33.991554">
<ele>510.722900</ele>
<time>2011-10-11T15:28:47Z</time>
<desc>lat.=44.520611, lon.=33.991554, Alt.=510.722900m. Speed=0.936000m/h.</desc>
<speed>0.260000</speed>
</trkpt>
<trkpt lat="44.520592" lon="33.991547">
<ele>510.683838</ele>
<time>2011-10-11T15:28:52Z</time>
<desc>lat.=44.520592, lon.=33.991547, Alt.=510.683838m. Speed=1.152000m/h.</desc>
<speed>0.320000</speed>
</trkpt>
<trkpt lat="44.520573" lon="33.991524">
<ele>509.527588</ele>
<time>2011-10-11T15:28:57Z</time>
<desc>lat.=44.520573, lon.=33.991524, Alt.=509.527588m. Speed=1.584000m/h.</desc>
<speed>0.440000</speed>
</trkpt>
<trkpt lat="44.520546" lon="33.991474">
<ele>508.457275</ele>
<time>2011-10-11T15:29:02Z</time>
<desc>lat.=44.520546, lon.=33.991474, Alt.=508.457275m. Speed=1.800000m/h.</desc>
<speed>0.500000</speed>
</trkpt>
<trkpt lat="44.520535" lon="33.991444">
<ele>507.941650</ele>
<time>2011-10-11T15:29:07Z</time>
<desc>lat.=44.520535, lon.=33.991444, Alt.=507.941650m. Speed=1.440000m/h.</desc>
<speed>0.400000</speed>
</trkpt>
<trkpt lat="44.520523" lon="33.991421">
<ele>507.676025</ele>
<time>2011-10-11T15:29:12Z</time>
<desc>lat.=44.520523, lon.=33.991421, Alt.=507.676025m. Speed=1.188000m/h.</desc>
<speed>0.330000</speed>
</trkpt>
<trkpt lat="44.520515" lon="33.991394">
<ele>507.472900</ele>
<time>2011-10-11T15:29:17Z</time>
<desc>lat.=44.520515, lon.=33.991394, Alt.=507.472900m. Speed=0.792000m/h.</desc>
<speed>0.220000</speed>
</trkpt>
<trkpt lat="44.520512" lon="33.991402">
<ele>505.722900</ele>
<time>2011-10-11T15:29:22Z</time>
<desc>lat.=44.520512, lon.=33.991402, Alt.=505.722900m. Speed=0.864000m/h.</desc>
<speed>0.240000</speed>
</trkpt>
<trkpt lat="44.520519" lon="33.991367">
<ele>504.660400</ele>
<time>2011-10-11T15:29:27Z</time>
<desc>lat.=44.520519, lon.=33.991367, Alt.=504.660400m. Speed=2.664000m/h.</desc>
<speed>0.740000</speed>
</trkpt>
<trkpt lat="44.520515" lon="33.991310">
<ele>502.730713</ele>
<time>2011-10-11T15:29:32Z</time>
<desc>lat.=44.520515, lon.=33.991310, Alt.=502.730713m. Speed=1.296000m/h.</desc>
<speed>0.360000</speed>
</trkpt>
<trkpt lat="44.520519" lon="33.991280">
<ele>501.933838</ele>
<time>2011-10-11T15:29:37Z</time>
<desc>lat.=44.520519, lon.=33.991280, Alt.=501.933838m. Speed=1.152000m/h.</desc>
<speed>0.320000</speed>
</trkpt>
<trkpt lat="44.520519" lon="33.991261">
<ele>501.332275</ele>
<time>2011-10-11T15:29:42Z</time>
<desc>lat.=44.520519, lon.=33.991261, Alt.=501.332275m. Speed=0.792000m/h.</desc>
<speed>0.220000</speed>
</trkpt>
<trkpt lat="44.520512" lon="33.991253">
<ele>501.199463</ele>
<time>2011-10-11T15:29:47Z</time>
<desc>lat.=44.520512, lon.=33.991253, Alt.=501.199463m. Speed=0.864000m/h.</desc>
<speed>0.240000</speed>
</trkpt>
<trkpt lat="44.520512" lon="33.991241">
<ele>501.066650</ele>
<time>2011-10-11T15:29:52Z</time>
<desc>lat.=44.520512, lon.=33.991241, Alt.=501.066650m. Speed=0.828000m/h.</desc>
<speed>0.230000</speed>
</trkpt>
<trkpt lat="44.520493" lon="33.991199">
<ele>500.410400</ele>
<time>2011-10-11T15:29:57Z</time>
<desc>lat.=44.520493, lon.=33.991199, Alt.=500.410400m. Speed=0.900000m/h.</desc>
<speed>0.250000</speed>
</trkpt>
<trkpt lat="44.520500" lon="33.991184">
<ele>500.347900</ele>
<time>2011-10-11T15:30:02Z</time>
<desc>lat.=44.520500, lon.=33.991184, Alt.=500.347900m. Speed=1.332000m/h.</desc>
<speed>0.370000</speed>
</trkpt>
<trkpt lat="44.520500" lon="33.991142">
<ele>500.308838</ele>
<time>2011-10-11T15:30:07Z</time>
<desc>lat.=44.520500, lon.=33.991142, Alt.=500.308838m. Speed=0.756000m/h.</desc>
<speed>0.210000</speed>
</trkpt>
<trkpt lat="44.520447" lon="33.991104">
<ele>499.027588</ele>
<time>2011-10-11T15:30:12Z</time>
<desc>lat.=44.520447, lon.=33.991104, Alt.=499.027588m. Speed=1.980000m/h.</desc>
<speed>0.550000</speed>
</trkpt>
<trkpt lat="44.520412" lon="33.991043">
<ele>498.238525</ele>
<time>2011-10-11T15:30:17Z</time>
<desc>lat.=44.520412, lon.=33.991043, Alt.=498.238525m. Speed=2.196000m/h.</desc>
<speed>0.610000</speed>
</trkpt>
<trkpt lat="44.520409" lon="33.990925">
<ele>496.246338</ele>
<time>2011-10-11T15:30:22Z</time>
<desc>lat.=44.520409, lon.=33.990925, Alt.=496.246338m. Speed=1.368000m/h.</desc>
<speed>0.380000</speed>
</trkpt>
<trkpt lat="44.520432" lon="33.990841">
<ele>494.926025</ele>
<time>2011-10-11T15:30:27Z</time>
<desc>lat.=44.520432, lon.=33.990841, Alt.=494.926025m. Speed=1.332000m/h.</desc>
<speed>0.370000</speed>
</trkpt>
<trkpt lat="44.520481" lon="33.990818">
<ele>494.847900</ele>
<time>2011-10-11T15:30:32Z</time>
<desc>lat.=44.520481, lon.=33.990818, Alt.=494.847900m. Speed=1.476000m/h.</desc>
<speed>0.410000</speed>
</trkpt>
<trkpt lat="44.520561" lon="33.990704">
<ele>492.285400</ele>
<time>2011-10-11T15:30:37Z</time>
<desc>lat.=44.520561, lon.=33.990704, Alt.=492.285400m. Speed=1.908000m/h.</desc>
<speed>0.530000</speed>
</trkpt>
<trkpt lat="44.520557" lon="33.990662">
<ele>490.894775</ele>
<time>2011-10-11T15:30:42Z</time>
<desc>lat.=44.520557, lon.=33.990662, Alt.=490.894775m. Speed=1.080000m/h.</desc>
<speed>0.300000</speed>
</trkpt>
<trkpt lat="44.520565" lon="33.990673">
<ele>490.074463</ele>
<time>2011-10-11T15:30:47Z</time>
<desc>lat.=44.520565, lon.=33.990673, Alt.=490.074463m. Speed=0.936000m/h.</desc>
<speed>0.260000</speed>
</trkpt>
<trkpt lat="44.520550" lon="33.990654">
<ele>489.761963</ele>
<time>2011-10-11T15:30:52Z</time>
<desc>lat.=44.520550, lon.=33.990654, Alt.=489.761963m. Speed=2.412000m/h.</desc>
<speed>0.670000</speed>
</trkpt>
<trkpt lat="44.520523" lon="33.990639">
<ele>488.527588</ele>
<time>2011-10-11T15:30:57Z</time>
<desc>lat.=44.520523, lon.=33.990639, Alt.=488.527588m. Speed=1.980000m/h.</desc>
<speed>0.550000</speed>
</trkpt>
<trkpt lat="44.520504" lon="33.990612">
<ele>487.855713</ele>
<time>2011-10-11T15:31:02Z</time>
<desc>lat.=44.520504, lon.=33.990612, Alt.=487.855713m. Speed=1.404000m/h.</desc>
<speed>0.390000</speed>
</trkpt>
<trkpt lat="44.520489" lon="33.990593">
<ele>487.363525</ele>
<time>2011-10-11T15:31:07Z</time>
<desc>lat.=44.520489, lon.=33.990593, Alt.=487.363525m. Speed=1.512000m/h.</desc>
<speed>0.420000</speed>
</trkpt>
<trkpt lat="44.520523" lon="33.990559">
<ele>487.777588</ele>
<time>2011-10-11T15:31:12Z</time>
<desc>lat.=44.520523, lon.=33.990559, Alt.=487.777588m. Speed=1.476000m/h.</desc>
<speed>0.410000</speed>
</trkpt>
<trkpt lat="44.520519" lon="33.990528">
<ele>487.871338</ele>
<time>2011-10-11T15:31:17Z</time>
<desc>lat.=44.520519, lon.=33.990528, Alt.=487.871338m. Speed=0.684000m/h.</desc>
<speed>0.190000</speed>
</trkpt>
<trkpt lat="44.520512" lon="33.990524">
<ele>487.855713</ele>
<time>2011-10-11T15:31:22Z</time>
<desc>lat.=44.520512, lon.=33.990524, Alt.=487.855713m. Speed=1.224000m/h.</desc>
<speed>0.340000</speed>
</trkpt>
<trkpt lat="44.520515" lon="33.990482">
<ele>487.855713</ele>
<time>2011-10-11T15:31:27Z</time>
<desc>lat.=44.520515, lon.=33.990482, Alt.=487.855713m. Speed=1.332000m/h.</desc>
<speed>0.370000</speed>
</trkpt>
<trkpt lat="44.520508" lon="33.990437">
<ele>487.785400</ele>
<time>2011-10-11T15:31:32Z</time>
<desc>lat.=44.520508, lon.=33.990437, Alt.=487.785400m. Speed=1.584000m/h.</desc>
<speed>0.440000</speed>
</trkpt>
<trkpt lat="44.520485" lon="33.990376">
<ele>487.371338</ele>
<time>2011-10-11T15:31:37Z</time>
<desc>lat.=44.520485, lon.=33.990376, Alt.=487.371338m. Speed=1.908000m/h.</desc>
<speed>0.530000</speed>
</trkpt>
<trkpt lat="44.520470" lon="33.990326">
<ele>486.988525</ele>
<time>2011-10-11T15:31:42Z</time>
<desc>lat.=44.520470, lon.=33.990326, Alt.=486.988525m. Speed=1.656000m/h.</desc>
<speed>0.460000</speed>
</trkpt>
<trkpt lat="44.520473" lon="33.990299">
<ele>486.543213</ele>
<time>2011-10-11T15:31:47Z</time>
<desc>lat.=44.520473, lon.=33.990299, Alt.=486.543213m. Speed=1.224000m/h.</desc>
<speed>0.340000</speed>
</trkpt>
<trkpt lat="44.520435" lon="33.990192">
<ele>485.793213</ele>
<time>2011-10-11T15:31:52Z</time>
<desc>lat.=44.520435, lon.=33.990192, Alt.=485.793213m. Speed=2.160000m/h.</desc>
<speed>0.600000</speed>
</trkpt>
<trkpt lat="44.520397" lon="33.990124">
<ele>484.722900</ele>
<time>2011-10-11T15:31:57Z</time>
<desc>lat.=44.520397, lon.=33.990124, Alt.=484.722900m. Speed=1.584000m/h.</desc>
<speed>0.440000</speed>
</trkpt>
<trkpt lat="44.520397" lon="33.990082">
<ele>484.129150</ele>
<time>2011-10-11T15:32:02Z</time>
<desc>lat.=44.520397, lon.=33.990082, Alt.=484.129150m. Speed=1.404000m/h.</desc>
<speed>0.390000</speed>
</trkpt>
<trkpt lat="44.520401" lon="33.990067">
<ele>483.668213</ele>
<time>2011-10-11T15:32:07Z</time>
<desc>lat.=44.520401, lon.=33.990067, Alt.=483.668213m. Speed=1.224000m/h.</desc>
<speed>0.340000</speed>
</trkpt>
<trkpt lat="44.520374" lon="33.990036">
<ele>483.176025</ele>
<time>2011-10-11T15:32:12Z</time>
<desc>lat.=44.520374, lon.=33.990036, Alt.=483.176025m. Speed=1.764000m/h.</desc>
<speed>0.490000</speed>
</trkpt>
<trkpt lat="44.520382" lon="33.989990">
<ele>482.488525</ele>
<time>2011-10-11T15:32:17Z</time>
<desc>lat.=44.520382, lon.=33.989990, Alt.=482.488525m. Speed=0.972000m/h.</desc>
<speed>0.270000</speed>
</trkpt>
<trkpt lat="44.520370" lon="33.989944">
<ele>482.043213</ele>
<time>2011-10-11T15:32:22Z</time>
<desc>lat.=44.520370, lon.=33.989944, Alt.=482.043213m. Speed=0.720000m/h.</desc>
<speed>0.200000</speed>
</trkpt>
<trkpt lat="44.520363" lon="33.989933">
<ele>481.918213</ele>
<time>2011-10-11T15:32:27Z</time>
<desc>lat.=44.520363, lon.=33.989933, Alt.=481.918213m. Speed=0.468000m/h.</desc>
<speed>0.130000</speed>
</trkpt>
<trkpt lat="44.520359" lon="33.989887">
<ele>481.699463</ele>
<time>2011-10-11T15:32:32Z</time>
<desc>lat.=44.520359, lon.=33.989887, Alt.=481.699463m. Speed=1.908000m/h.</desc>
<speed>0.530000</speed>
</trkpt>
<trkpt lat="44.520344" lon="33.989822">
<ele>481.129150</ele>
<time>2011-10-11T15:32:37Z</time>
<desc>lat.=44.520344, lon.=33.989822, Alt.=481.129150m. Speed=1.152000m/h.</desc>
<speed>0.320000</speed>
</trkpt>
<trkpt lat="44.520382" lon="33.989765">
<ele>480.613525</ele>
<time>2011-10-11T15:32:42Z</time>
<desc>lat.=44.520382, lon.=33.989765, Alt.=480.613525m. Speed=1.116000m/h.</desc>
<speed>0.310000</speed>
</trkpt>
<trkpt lat="44.520420" lon="33.989746">
<ele>479.918213</ele>
<time>2011-10-11T15:32:47Z</time>
<desc>lat.=44.520420, lon.=33.989746, Alt.=479.918213m. Speed=2.124000m/h.</desc>
<speed>0.590000</speed>
</trkpt>
<trkpt lat="44.520420" lon="33.989704">
<ele>479.707275</ele>
<time>2011-10-11T15:32:52Z</time>
<desc>lat.=44.520420, lon.=33.989704, Alt.=479.707275m. Speed=1.188000m/h.</desc>
<speed>0.330000</speed>
</trkpt>
<trkpt lat="44.520420" lon="33.989666">
<ele>479.863525</ele>
<time>2011-10-11T15:32:57Z</time>
<desc>lat.=44.520420, lon.=33.989666, Alt.=479.863525m. Speed=1.080000m/h.</desc>
<speed>0.300000</speed>
</trkpt>
<trkpt lat="44.520393" lon="33.989632">
<ele>479.793213</ele>
<time>2011-10-11T15:33:02Z</time>
<desc>lat.=44.520393, lon.=33.989632, Alt.=479.793213m. Speed=1.332000m/h.</desc>
<speed>0.370000</speed>
</trkpt>
<trkpt lat="44.520370" lon="33.989601">
<ele>479.144775</ele>
<time>2011-10-11T15:33:07Z</time>
<desc>lat.=44.520370, lon.=33.989601, Alt.=479.144775m. Speed=1.080000m/h.</desc>
<speed>0.300000</speed>
</trkpt>
<trkpt lat="44.520336" lon="33.989574">
<ele>478.558838</ele>
<time>2011-10-11T15:33:12Z</time>
<desc>lat.=44.520336, lon.=33.989574, Alt.=478.558838m. Speed=1.692000m/h.</desc>
<speed>0.470000</speed>
</trkpt>
<trkpt lat="44.520321" lon="33.989548">
<ele>478.340088</ele>
<time>2011-10-11T15:33:17Z</time>
<desc>lat.=44.520321, lon.=33.989548, Alt.=478.340088m. Speed=1.044000m/h.</desc>
<speed>0.290000</speed>
</trkpt>
<trkpt lat="44.520302" lon="33.989502">
<ele>477.551025</ele>
<time>2011-10-11T15:33:22Z</time>
<desc>lat.=44.520302, lon.=33.989502, Alt.=477.551025m. Speed=0.936000m/h.</desc>
<speed>0.260000</speed>
</trkpt>
<trkpt lat="44.520260" lon="33.989437">
<ele>476.988525</ele>
<time>2011-10-11T15:33:27Z</time>
<desc>lat.=44.520260, lon.=33.989437, Alt.=476.988525m. Speed=1.152000m/h.</desc>
<speed>0.320000</speed>
</trkpt>
<trkpt lat="44.520222" lon="33.989372">
<ele>476.176025</ele>
<time>2011-10-11T15:33:32Z</time>
<desc>lat.=44.520222, lon.=33.989372, Alt.=476.176025m. Speed=1.584000m/h.</desc>
<speed>0.440000</speed>
</trkpt>
<trkpt lat="44.520161" lon="33.989311">
<ele>474.988525</ele>
<time>2011-10-11T15:33:37Z</time>
<desc>lat.=44.520161, lon.=33.989311, Alt.=474.988525m. Speed=2.160000m/h.</desc>
<speed>0.600000</speed>
</trkpt>
<trkpt lat="44.520115" lon="33.989254">
<ele>473.574463</ele>
<time>2011-10-11T15:33:42Z</time>
<desc>lat.=44.520115, lon.=33.989254, Alt.=473.574463m. Speed=2.124000m/h.</desc>
<speed>0.590000</speed>
</trkpt>
<trkpt lat="44.520081" lon="33.989208">
<ele>473.027588</ele>
<time>2011-10-11T15:33:47Z</time>
<desc>lat.=44.520081, lon.=33.989208, Alt.=473.027588m. Speed=2.484000m/h.</desc>
<speed>0.690000</speed>
</trkpt>
<trkpt lat="44.520058" lon="33.989170">
<ele>472.441650</ele>
<time>2011-10-11T15:33:52Z</time>
<desc>lat.=44.520058, lon.=33.989170, Alt.=472.441650m. Speed=2.988000m/h.</desc>
<speed>0.830000</speed>
</trkpt>
<trkpt lat="44.520027" lon="33.989117">
<ele>471.863525</ele>
<time>2011-10-11T15:33:57Z</time>
<desc>lat.=44.520027, lon.=33.989117, Alt.=471.863525m. Speed=1.836000m/h.</desc>
<speed>0.510000</speed>
</trkpt>
<trkpt lat="44.519997" lon="33.989098">
<ele>471.269775</ele>
<time>2011-10-11T15:34:02Z</time>
<desc>lat.=44.519997, lon.=33.989098, Alt.=471.269775m. Speed=1.908000m/h.</desc>
<speed>0.530000</speed>
</trkpt>
<trkpt lat="44.519989" lon="33.989063">
<ele>470.480713</ele>
<time>2011-10-11T15:34:07Z</time>
<desc>lat.=44.519989, lon.=33.989063, Alt.=470.480713m. Speed=1.260000m/h.</desc>
<speed>0.350000</speed>
</trkpt>
<trkpt lat="44.519966" lon="33.989025">
<ele>470.543213</ele>
<time>2011-10-11T15:34:12Z</time>
<desc>lat.=44.519966, lon.=33.989025, Alt.=470.543213m. Speed=1.224000m/h.</desc>
<speed>0.340000</speed>
</trkpt>
<trkpt lat="44.519958" lon="33.989010">
<ele>469.941650</ele>
<time>2011-10-11T15:34:17Z</time>
<desc>lat.=44.519958, lon.=33.989010, Alt.=469.941650m. Speed=0.648000m/h.</desc>
<speed>0.180000</speed>
</trkpt>
<trkpt lat="44.519955" lon="33.988995">
<ele>469.855713</ele>
<time>2011-10-11T15:34:22Z</time>
<desc>lat.=44.519955, lon.=33.988995, Alt.=469.855713m. Speed=0.936000m/h.</desc>
<speed>0.260000</speed>
</trkpt>
<trkpt lat="44.519909" lon="33.988937">
<ele>469.152588</ele>
<time>2011-10-11T15:34:27Z</time>
<desc>lat.=44.519909, lon.=33.988937, Alt.=469.152588m. Speed=1.620000m/h.</desc>
<speed>0.450000</speed>
</trkpt>
<trkpt lat="44.519871" lon="33.988884">
<ele>467.996338</ele>
<time>2011-10-11T15:34:32Z</time>
<desc>lat.=44.519871, lon.=33.988884, Alt.=467.996338m. Speed=2.016000m/h.</desc>
<speed>0.560000</speed>
</trkpt>
<trkpt lat="44.519821" lon="33.988808">
<ele>466.230713</ele>
<time>2011-10-11T15:34:37Z</time>
<desc>lat.=44.519821, lon.=33.988808, Alt.=466.230713m. Speed=2.844000m/h.</desc>
<speed>0.790000</speed>
</trkpt>
<trkpt lat="44.519806" lon="33.988743">
<ele>464.832275</ele>
<time>2011-10-11T15:34:42Z</time>
<desc>lat.=44.519806, lon.=33.988743, Alt.=464.832275m. Speed=3.024000m/h.</desc>
<speed>0.840000</speed>
</trkpt>
<trkpt lat="44.519772" lon="33.988678">
<ele>463.590088</ele>
<time>2011-10-11T15:34:47Z</time>
<desc>lat.=44.519772, lon.=33.988678, Alt.=463.590088m. Speed=2.196000m/h.</desc>
<speed>0.610000</speed>
</trkpt>
<trkpt lat="44.519745" lon="33.988613">
<ele>462.566650</ele>
<time>2011-10-11T15:34:52Z</time>
<desc>lat.=44.519745, lon.=33.988613, Alt.=462.566650m. Speed=2.088000m/h.</desc>
<speed>0.580000</speed>
</trkpt>
<trkpt lat="44.519703" lon="33.988522">
<ele>461.340088</ele>
<time>2011-10-11T15:34:57Z</time>
<desc>lat.=44.519703, lon.=33.988522, Alt.=461.340088m. Speed=2.016000m/h.</desc>
<speed>0.560000</speed>
</trkpt>
<trkpt lat="44.519707" lon="33.988476">
<ele>460.715088</ele>
<time>2011-10-11T15:35:02Z</time>
<desc>lat.=44.519707, lon.=33.988476, Alt.=460.715088m. Speed=1.548000m/h.</desc>
<speed>0.430000</speed>
</trkpt>
<trkpt lat="44.519657" lon="33.988392">
<ele>459.855713</ele>
<time>2011-10-11T15:35:07Z</time>
<desc>lat.=44.519657, lon.=33.988392, Alt.=459.855713m. Speed=2.628000m/h.</desc>
<speed>0.730000</speed>
</trkpt>
<trkpt lat="44.519627" lon="33.988316">
<ele>458.496338</ele>
<time>2011-10-11T15:35:12Z</time>
<desc>lat.=44.519627, lon.=33.988316, Alt.=458.496338m. Speed=1.656000m/h.</desc>
<speed>0.460000</speed>
</trkpt>
<trkpt lat="44.519611" lon="33.988220">
<ele>456.715088</ele>
<time>2011-10-11T15:35:17Z</time>
<desc>lat.=44.519611, lon.=33.988220, Alt.=456.715088m. Speed=2.808000m/h.</desc>
<speed>0.780000</speed>
</trkpt>
<trkpt lat="44.519585" lon="33.988136">
<ele>455.277588</ele>
<time>2011-10-11T15:35:22Z</time>
<desc>lat.=44.519585, lon.=33.988136, Alt.=455.277588m. Speed=1.872000m/h.</desc>
<speed>0.520000</speed>
</trkpt>
<trkpt lat="44.519588" lon="33.988045">
<ele>454.207275</ele>
<time>2011-10-11T15:35:27Z</time>
<desc>lat.=44.519588, lon.=33.988045, Alt.=454.207275m. Speed=2.196000m/h.</desc>
<speed>0.610000</speed>
</trkpt>
<trkpt lat="44.519550" lon="33.987984">
<ele>453.480713</ele>
<time>2011-10-11T15:35:32Z</time>
<desc>lat.=44.519550, lon.=33.987984, Alt.=453.480713m. Speed=1.764000m/h.</desc>
<speed>0.490000</speed>
</trkpt>
<trkpt lat="44.519554" lon="33.987907">
<ele>453.402588</ele>
<time>2011-10-11T15:35:37Z</time>
<desc>lat.=44.519554, lon.=33.987907, Alt.=453.402588m. Speed=3.060000m/h.</desc>
<speed>0.850000</speed>
</trkpt>
<trkpt lat="44.519516" lon="33.987812">
<ele>452.871338</ele>
<time>2011-10-11T15:35:42Z</time>
<desc>lat.=44.519516, lon.=33.987812, Alt.=452.871338m. Speed=1.908000m/h.</desc>
<speed>0.530000</speed>
</trkpt>
<trkpt lat="44.519497" lon="33.987755">
<ele>451.676025</ele>
<time>2011-10-11T15:35:47Z</time>
<desc>lat.=44.519497, lon.=33.987755, Alt.=451.676025m. Speed=1.584000m/h.</desc>
<speed>0.440000</speed>
</trkpt>
<trkpt lat="44.519482" lon="33.987701">
<ele>450.215088</ele>
<time>2011-10-11T15:35:52Z</time>
<desc>lat.=44.519482, lon.=33.987701, Alt.=450.215088m. Speed=1.116000m/h.</desc>
<speed>0.310000</speed>
</trkpt>
<trkpt lat="44.519478" lon="33.987648">
<ele>449.871338</ele>
<time>2011-10-11T15:35:57Z</time>
<desc>lat.=44.519478, lon.=33.987648, Alt.=449.871338m. Speed=1.620000m/h.</desc>
<speed>0.450000</speed>
</trkpt>
<trkpt lat="44.519451" lon="33.987564">
<ele>449.301025</ele>
<time>2011-10-11T15:36:02Z</time>
<desc>lat.=44.519451, lon.=33.987564, Alt.=449.301025m. Speed=2.484000m/h.</desc>
<speed>0.690000</speed>
</trkpt>
<trkpt lat="44.519451" lon="33.987492">
<ele>448.160400</ele>
<time>2011-10-11T15:36:07Z</time>
<desc>lat.=44.519451, lon.=33.987492, Alt.=448.160400m. Speed=2.196000m/h.</desc>
<speed>0.610000</speed>
</trkpt>
<trkpt lat="44.519432" lon="33.987396">
<ele>447.426025</ele>
<time>2011-10-11T15:36:12Z</time>
<desc>lat.=44.519432, lon.=33.987396, Alt.=447.426025m. Speed=2.340000m/h.</desc>
<speed>0.650000</speed>
</trkpt>
<trkpt lat="44.519421" lon="33.987301">
<ele>447.160400</ele>
<time>2011-10-11T15:36:17Z</time>
<desc>lat.=44.519421, lon.=33.987301, Alt.=447.160400m. Speed=2.448000m/h.</desc>
<speed>0.680000</speed>
</trkpt>
<trkpt lat="44.519424" lon="33.987202">
<ele>446.683838</ele>
<time>2011-10-11T15:36:22Z</time>
<desc>lat.=44.519424, lon.=33.987202, Alt.=446.683838m. Speed=2.808000m/h.</desc>
<speed>0.780000</speed>
</trkpt>
<trkpt lat="44.519394" lon="33.987114">
<ele>445.832275</ele>
<time>2011-10-11T15:36:27Z</time>
<desc>lat.=44.519394, lon.=33.987114, Alt.=445.832275m. Speed=3.312000m/h.</desc>
<speed>0.920000</speed>
</trkpt>
<trkpt lat="44.519375" lon="33.987030">
<ele>445.519775</ele>
<time>2011-10-11T15:36:32Z</time>
<desc>lat.=44.519375, lon.=33.987030, Alt.=445.519775m. Speed=2.988000m/h.</desc>
<speed>0.830000</speed>
</trkpt>
<trkpt lat="44.519344" lon="33.986935">
<ele>444.590088</ele>
<time>2011-10-11T15:36:37Z</time>
<desc>lat.=44.519344, lon.=33.986935, Alt.=444.590088m. Speed=1.980000m/h.</desc>
<speed>0.550000</speed>
</trkpt>
<trkpt lat="44.519356" lon="33.986843">
<ele>444.699463</ele>
<time>2011-10-11T15:36:42Z</time>
<desc>lat.=44.519356, lon.=33.986843, Alt.=444.699463m. Speed=2.448000m/h.</desc>
<speed>0.680000</speed>
</trkpt>
<trkpt lat="44.519386" lon="33.986755">
<ele>444.715088</ele>
<time>2011-10-11T15:36:47Z</time>
<desc>lat.=44.519386, lon.=33.986755, Alt.=444.715088m. Speed=2.304000m/h.</desc>
<speed>0.640000</speed>
</trkpt>
<trkpt lat="44.519375" lon="33.986664">
<ele>444.121338</ele>
<time>2011-10-11T15:36:52Z</time>
<desc>lat.=44.519375, lon.=33.986664, Alt.=444.121338m. Speed=1.764000m/h.</desc>
<speed>0.490000</speed>
</trkpt>
<trkpt lat="44.519371" lon="33.986561">
<ele>443.590088</ele>
<time>2011-10-11T15:36:57Z</time>
<desc>lat.=44.519371, lon.=33.986561, Alt.=443.590088m. Speed=2.520000m/h.</desc>
<speed>0.700000</speed>
</trkpt>
<trkpt lat="44.519367" lon="33.986485">
<ele>443.285400</ele>
<time>2011-10-11T15:37:02Z</time>
<desc>lat.=44.519367, lon.=33.986485, Alt.=443.285400m. Speed=1.836000m/h.</desc>
<speed>0.510000</speed>
</trkpt>
<trkpt lat="44.519371" lon="33.986397">
<ele>442.332275</ele>
<time>2011-10-11T15:37:07Z</time>
<desc>lat.=44.519371, lon.=33.986397, Alt.=442.332275m. Speed=2.448000m/h.</desc>
<speed>0.680000</speed>
</trkpt>
<trkpt lat="44.519314" lon="33.986309">
<ele>442.691650</ele>
<time>2011-10-11T15:37:12Z</time>
<desc>lat.=44.519314, lon.=33.986309, Alt.=442.691650m. Speed=2.556000m/h.</desc>
<speed>0.710000</speed>
</trkpt>
<trkpt lat="44.519295" lon="33.986263">
<ele>442.402588</ele>
<time>2011-10-11T15:37:17Z</time>
<desc>lat.=44.519295, lon.=33.986263, Alt.=442.402588m. Speed=1.692000m/h.</desc>
<speed>0.470000</speed>
</trkpt>
<trkpt lat="44.519287" lon="33.986195">
<ele>442.902588</ele>
<time>2011-10-11T15:37:22Z</time>
<desc>lat.=44.519287, lon.=33.986195, Alt.=442.902588m. Speed=1.836000m/h.</desc>
<speed>0.510000</speed>
</trkpt>
<trkpt lat="44.519295" lon="33.986145">
<ele>442.761963</ele>
<time>2011-10-11T15:37:27Z</time>
<desc>lat.=44.519295, lon.=33.986145, Alt.=442.761963m. Speed=1.296000m/h.</desc>
<speed>0.360000</speed>
</trkpt>
<trkpt lat="44.519295" lon="33.986111">
<ele>442.715088</ele>
<time>2011-10-11T15:37:32Z</time>
<desc>lat.=44.519295, lon.=33.986111, Alt.=442.715088m. Speed=0.432000m/h.</desc>
<speed>0.120000</speed>
</trkpt>
<trkpt lat="44.519295" lon="33.986107">
<ele>442.840088</ele>
<time>2011-10-11T15:37:37Z</time>
<desc>lat.=44.519295, lon.=33.986107, Alt.=442.840088m. Speed=3.096000m/h.</desc>
<speed>0.860000</speed>
</trkpt>
<trkpt lat="44.519321" lon="33.986042">
<ele>442.097900</ele>
<time>2011-10-11T15:37:42Z</time>
<desc>lat.=44.519321, lon.=33.986042, Alt.=442.097900m. Speed=1.728000m/h.</desc>
<speed>0.480000</speed>
</trkpt>
<trkpt lat="44.519329" lon="33.986065">
<ele>442.097900</ele>
<time>2011-10-11T15:37:47Z</time>
<desc>lat.=44.519329, lon.=33.986065, Alt.=442.097900m. Speed=2.160000m/h.</desc>
<speed>0.600000</speed>
</trkpt>
<trkpt lat="44.519306" lon="33.986080">
<ele>441.801025</ele>
<time>2011-10-11T15:37:52Z</time>
<desc>lat.=44.519306, lon.=33.986080, Alt.=441.801025m. Speed=1.044000m/h.</desc>
<speed>0.290000</speed>
</trkpt>
<trkpt lat="44.519268" lon="33.986122">
<ele>441.379150</ele>
<time>2011-10-11T15:37:57Z</time>
<desc>lat.=44.519268, lon.=33.986122, Alt.=441.379150m. Speed=2.880000m/h.</desc>
<speed>0.800000</speed>
</trkpt>
<trkpt lat="44.519230" lon="33.986156">
<ele>440.449463</ele>
<time>2011-10-11T15:38:02Z</time>
<desc>lat.=44.519230, lon.=33.986156, Alt.=440.449463m. Speed=2.160000m/h.</desc>
<speed>0.600000</speed>
</trkpt>
<trkpt lat="44.519161" lon="33.986176">
<ele>438.582275</ele>
<time>2011-10-11T15:38:07Z</time>
<desc>lat.=44.519161, lon.=33.986176, Alt.=438.582275m. Speed=2.124000m/h.</desc>
<speed>0.590000</speed>
</trkpt>
<trkpt lat="44.519073" lon="33.986217">
<ele>436.543213</ele>
<time>2011-10-11T15:38:12Z</time>
<desc>lat.=44.519073, lon.=33.986217, Alt.=436.543213m. Speed=3.276000m/h.</desc>
<speed>0.910000</speed>
</trkpt>
<trkpt lat="44.519009" lon="33.986244">
<ele>434.465088</ele>
<time>2011-10-11T15:38:17Z</time>
<desc>lat.=44.519009, lon.=33.986244, Alt.=434.465088m. Speed=3.024000m/h.</desc>
<speed>0.840000</speed>
</trkpt>
<trkpt lat="44.519001" lon="33.986317">
<ele>432.043213</ele>
<time>2011-10-11T15:38:22Z</time>
<desc>lat.=44.519001, lon.=33.986317, Alt.=432.043213m. Speed=0.900000m/h.</desc>
<speed>0.250000</speed>
</trkpt>
<trkpt lat="44.518997" lon="33.986370">
<ele>430.886963</ele>
<time>2011-10-11T15:38:27Z</time>
<desc>lat.=44.518997, lon.=33.986370, Alt.=430.886963m. Speed=1.260000m/h.</desc>
<speed>0.350000</speed>
</trkpt>
<trkpt lat="44.518963" lon="33.986401">
<ele>428.277588</ele>
<time>2011-10-11T15:38:32Z</time>
<desc>lat.=44.518963, lon.=33.986401, Alt.=428.277588m. Speed=1.836000m/h.</desc>
<speed>0.510000</speed>
</trkpt>
<trkpt lat="44.518936" lon="33.986397">
<ele>426.863525</ele>
<time>2011-10-11T15:38:37Z</time>
<desc>lat.=44.518936, lon.=33.986397, Alt.=426.863525m. Speed=1.476000m/h.</desc>
<speed>0.410000</speed>
</trkpt>
<trkpt lat="44.518909" lon="33.986378">
<ele>425.949463</ele>
<time>2011-10-11T15:38:42Z</time>
<desc>lat.=44.518909, lon.=33.986378, Alt.=425.949463m. Speed=1.476000m/h.</desc>
<speed>0.410000</speed>
</trkpt>
<trkpt lat="44.518917" lon="33.986366">
<ele>424.972900</ele>
<time>2011-10-11T15:38:47Z</time>
<desc>lat.=44.518917, lon.=33.986366, Alt.=424.972900m. Speed=0.828000m/h.</desc>
<speed>0.230000</speed>
</trkpt>
<trkpt lat="44.518898" lon="33.986351">
<ele>425.308838</ele>
<time>2011-10-11T15:38:52Z</time>
<desc>lat.=44.518898, lon.=33.986351, Alt.=425.308838m. Speed=1.260000m/h.</desc>
<speed>0.350000</speed>
</trkpt>
<trkpt lat="44.518883" lon="33.986301">
<ele>425.535400</ele>
<time>2011-10-11T15:38:57Z</time>
<desc>lat.=44.518883, lon.=33.986301, Alt.=425.535400m. Speed=2.772000m/h.</desc>
<speed>0.770000</speed>
</trkpt>
<trkpt lat="44.518860" lon="33.986248">
<ele>425.644775</ele>
<time>2011-10-11T15:39:02Z</time>
<desc>lat.=44.518860, lon.=33.986248, Alt.=425.644775m. Speed=2.808000m/h.</desc>
<speed>0.780000</speed>
</trkpt>
<trkpt lat="44.518864" lon="33.986195">
<ele>425.551025</ele>
<time>2011-10-11T15:39:07Z</time>
<desc>lat.=44.518864, lon.=33.986195, Alt.=425.551025m. Speed=1.620000m/h.</desc>
<speed>0.450000</speed>
</trkpt>
<trkpt lat="44.518856" lon="33.986141">
<ele>426.230713</ele>
<time>2011-10-11T15:39:12Z</time>
<desc>lat.=44.518856, lon.=33.986141, Alt.=426.230713m. Speed=2.268000m/h.</desc>
<speed>0.630000</speed>
</trkpt>
<trkpt lat="44.518875" lon="33.986050">
<ele>427.410400</ele>
<time>2011-10-11T15:39:17Z</time>
<desc>lat.=44.518875, lon.=33.986050, Alt.=427.410400m. Speed=3.168000m/h.</desc>
<speed>0.880000</speed>
</trkpt>
<trkpt lat="44.518852" lon="33.985973">
<ele>428.410400</ele>
<time>2011-10-11T15:39:22Z</time>
<desc>lat.=44.518852, lon.=33.985973, Alt.=428.410400m. Speed=3.564000m/h.</desc>
<speed>0.990000</speed>
</trkpt>
<trkpt lat="44.518841" lon="33.985886">
<ele>428.394775</ele>
<time>2011-10-11T15:39:27Z</time>
<desc>lat.=44.518841, lon.=33.985886, Alt.=428.394775m. Speed=3.384000m/h.</desc>
<speed>0.940000</speed>
</trkpt>
<trkpt lat="44.518867" lon="33.985794">
<ele>428.738525</ele>
<time>2011-10-11T15:39:32Z</time>
<desc>lat.=44.518867, lon.=33.985794, Alt.=428.738525m. Speed=1.476000m/h.</desc>
<speed>0.410000</speed>
</trkpt>
<trkpt lat="44.518871" lon="33.985767">
<ele>428.254150</ele>
<time>2011-10-11T15:39:37Z</time>
<desc>lat.=44.518871, lon.=33.985767, Alt.=428.254150m. Speed=0.432000m/h.</desc>
<speed>0.120000</speed>
</trkpt>
<trkpt lat="44.518860" lon="33.985767">
<ele>428.261963</ele>
<time>2011-10-11T15:39:42Z</time>
<desc>lat.=44.518860, lon.=33.985767, Alt.=428.261963m. Speed=2.232000m/h.</desc>
<speed>0.620000</speed>
</trkpt>
<trkpt lat="44.518852" lon="33.985699">
<ele>427.590088</ele>
<time>2011-10-11T15:39:47Z</time>
<desc>lat.=44.518852, lon.=33.985699, Alt.=427.590088m. Speed=3.816000m/h.</desc>
<speed>1.060000</speed>
</trkpt>
<trkpt lat="44.518848" lon="33.985622">
<ele>427.426025</ele>
<time>2011-10-11T15:39:52Z</time>
<desc>lat.=44.518848, lon.=33.985622, Alt.=427.426025m. Speed=2.952000m/h.</desc>
<speed>0.820000</speed>
</trkpt>
<trkpt lat="44.518833" lon="33.985584">
<ele>427.199463</ele>
<time>2011-10-11T15:39:57Z</time>
<desc>lat.=44.518833, lon.=33.985584, Alt.=427.199463m. Speed=2.124000m/h.</desc>
<speed>0.590000</speed>
</trkpt>
<trkpt lat="44.518784" lon="33.985519">
<ele>427.183838</ele>
<time>2011-10-11T15:40:02Z</time>
<desc>lat.=44.518784, lon.=33.985519, Alt.=427.183838m. Speed=3.780000m/h.</desc>
<speed>1.050000</speed>
</trkpt>
<trkpt lat="44.518749" lon="33.985497">
<ele>427.832275</ele>
<time>2011-10-11T15:40:07Z</time>
<desc>lat.=44.518749, lon.=33.985497, Alt.=427.832275m. Speed=1.872000m/h.</desc>
<speed>0.520000</speed>
</trkpt>
<trkpt lat="44.518757" lon="33.985477">
<ele>427.738525</ele>
<time>2011-10-11T15:40:12Z</time>
<desc>lat.=44.518757, lon.=33.985477, Alt.=427.738525m. Speed=1.116000m/h.</desc>
<speed>0.310000</speed>
</trkpt>
<trkpt lat="44.518795" lon="33.985435">
<ele>426.371338</ele>
<time>2011-10-11T15:40:17Z</time>
<desc>lat.=44.518795, lon.=33.985435, Alt.=426.371338m. Speed=0.828000m/h.</desc>
<speed>0.230000</speed>
</trkpt>
<trkpt lat="44.518787" lon="33.985447">
<ele>426.191650</ele>
<time>2011-10-11T15:40:22Z</time>
<desc>lat.=44.518787, lon.=33.985447, Alt.=426.191650m. Speed=0.468000m/h.</desc>
<speed>0.130000</speed>
</trkpt>
<trkpt lat="44.518745" lon="33.985481">
<ele>425.793213</ele>
<time>2011-10-11T15:40:27Z</time>
<desc>lat.=44.518745, lon.=33.985481, Alt.=425.793213m. Speed=2.484000m/h.</desc>
<speed>0.690000</speed>
</trkpt>
<trkpt lat="44.518723" lon="33.985504">
<ele>425.316650</ele>
<time>2011-10-11T15:40:32Z</time>
<desc>lat.=44.518723, lon.=33.985504, Alt.=425.316650m. Speed=1.836000m/h.</desc>
<speed>0.510000</speed>
</trkpt>
<trkpt lat="44.518707" lon="33.985519">
<ele>424.886963</ele>
<time>2011-10-11T15:40:37Z</time>
<desc>lat.=44.518707, lon.=33.985519, Alt.=424.886963m. Speed=1.764000m/h.</desc>
<speed>0.490000</speed>
</trkpt>
<trkpt lat="44.518639" lon="33.985596">
<ele>423.777588</ele>
<time>2011-10-11T15:40:42Z</time>
<desc>lat.=44.518639, lon.=33.985596, Alt.=423.777588m. Speed=2.304000m/h.</desc>
<speed>0.640000</speed>
</trkpt>
<trkpt lat="44.518578" lon="33.985588">
<ele>423.051025</ele>
<time>2011-10-11T15:40:47Z</time>
<desc>lat.=44.518578, lon.=33.985588, Alt.=423.051025m. Speed=2.880000m/h.</desc>
<speed>0.800000</speed>
</trkpt>
<trkpt lat="44.518536" lon="33.985622">
<ele>422.480713</ele>
<time>2011-10-11T15:40:52Z</time>
<desc>lat.=44.518536, lon.=33.985622, Alt.=422.480713m. Speed=3.312000m/h.</desc>
<speed>0.920000</speed>
</trkpt>
<trkpt lat="44.518505" lon="33.985645">
<ele>422.308838</ele>
<time>2011-10-11T15:40:57Z</time>
<desc>lat.=44.518505, lon.=33.985645, Alt.=422.308838m. Speed=2.124000m/h.</desc>
<speed>0.590000</speed>
</trkpt>
<trkpt lat="44.518501" lon="33.985657">
<ele>422.402588</ele>
<time>2011-10-11T15:41:02Z</time>
<desc>lat.=44.518501, lon.=33.985657, Alt.=422.402588m. Speed=1.404000m/h.</desc>
<speed>0.390000</speed>
</trkpt>
<trkpt lat="44.518501" lon="33.985680">
<ele>422.347900</ele>
<time>2011-10-11T15:41:07Z</time>
<desc>lat.=44.518501, lon.=33.985680, Alt.=422.347900m. Speed=0.360000m/h.</desc>
<speed>0.100000</speed>
</trkpt>
<trkpt lat="44.518482" lon="33.985714">
<ele>422.691650</ele>
<time>2011-10-11T15:41:12Z</time>
<desc>lat.=44.518482, lon.=33.985714, Alt.=422.691650m. Speed=1.044000m/h.</desc>
<speed>0.290000</speed>
</trkpt>
<trkpt lat="44.518383" lon="33.985737">
<ele>422.301025</ele>
<time>2011-10-11T15:41:17Z</time>
<desc>lat.=44.518383, lon.=33.985737, Alt.=422.301025m. Speed=3.456000m/h.</desc>
<speed>0.960000</speed>
</trkpt>
<trkpt lat="44.518303" lon="33.985737">
<ele>422.433838</ele>
<time>2011-10-11T15:41:22Z</time>
<desc>lat.=44.518303, lon.=33.985737, Alt.=422.433838m. Speed=3.708000m/h.</desc>
<speed>1.030000</speed>
</trkpt>
<trkpt lat="44.518276" lon="33.985722">
<ele>422.691650</ele>
<time>2011-10-11T15:41:27Z</time>
<desc>lat.=44.518276, lon.=33.985722, Alt.=422.691650m. Speed=2.448000m/h.</desc>
<speed>0.680000</speed>
</trkpt>
<trkpt lat="44.518223" lon="33.985706">
<ele>422.683838</ele>
<time>2011-10-11T15:41:32Z</time>
<desc>lat.=44.518223, lon.=33.985706, Alt.=422.683838m. Speed=3.132000m/h.</desc>
<speed>0.870000</speed>
</trkpt>
<trkpt lat="44.518166" lon="33.985703">
<ele>422.269775</ele>
<time>2011-10-11T15:41:37Z</time>
<desc>lat.=44.518166, lon.=33.985703, Alt.=422.269775m. Speed=2.772000m/h.</desc>
<speed>0.770000</speed>
</trkpt>
<trkpt lat="44.518112" lon="33.985718">
<ele>422.191650</ele>
<time>2011-10-11T15:41:42Z</time>
<desc>lat.=44.518112, lon.=33.985718, Alt.=422.191650m. Speed=3.096000m/h.</desc>
<speed>0.860000</speed>
</trkpt>
<trkpt lat="44.518074" lon="33.985710">
<ele>422.176025</ele>
<time>2011-10-11T15:41:47Z</time>
<desc>lat.=44.518074, lon.=33.985710, Alt.=422.176025m. Speed=2.628000m/h.</desc>
<speed>0.730000</speed>
</trkpt>
<trkpt lat="44.518040" lon="33.985676">
<ele>422.035400</ele>
<time>2011-10-11T15:41:52Z</time>
<desc>lat.=44.518040, lon.=33.985676, Alt.=422.035400m. Speed=3.168000m/h.</desc>
<speed>0.880000</speed>
</trkpt>
<trkpt lat="44.518013" lon="33.985615">
<ele>422.582275</ele>
<time>2011-10-11T15:41:57Z</time>
<desc>lat.=44.518013, lon.=33.985615, Alt.=422.582275m. Speed=4.104000m/h.</desc>
<speed>1.140000</speed>
</trkpt>
<trkpt lat="44.517986" lon="33.985558">
<ele>423.168213</ele>
<time>2011-10-11T15:42:02Z</time>
<desc>lat.=44.517986, lon.=33.985558, Alt.=423.168213m. Speed=4.968000m/h.</desc>
<speed>1.380000</speed>
</trkpt>
<trkpt lat="44.517952" lon="33.985516">
<ele>423.644775</ele>
<time>2011-10-11T15:42:07Z</time>
<desc>lat.=44.517952, lon.=33.985516, Alt.=423.644775m. Speed=2.844000m/h.</desc>
<speed>0.790000</speed>
</trkpt>
<trkpt lat="44.517918" lon="33.985493">
<ele>424.176025</ele>
<time>2011-10-11T15:42:12Z</time>
<desc>lat.=44.517918, lon.=33.985493, Alt.=424.176025m. Speed=2.376000m/h.</desc>
<speed>0.660000</speed>
</trkpt>
<trkpt lat="44.517879" lon="33.985462">
<ele>424.363525</ele>
<time>2011-10-11T15:42:17Z</time>
<desc>lat.=44.517879, lon.=33.985462, Alt.=424.363525m. Speed=2.664000m/h.</desc>
<speed>0.740000</speed>
</trkpt>
<trkpt lat="44.517845" lon="33.985462">
<ele>424.707275</ele>
<time>2011-10-11T15:42:22Z</time>
<desc>lat.=44.517845, lon.=33.985462, Alt.=424.707275m. Speed=2.088000m/h.</desc>
<speed>0.580000</speed>
</trkpt>
<trkpt lat="44.517818" lon="33.985424">
<ele>425.238525</ele>
<time>2011-10-11T15:42:27Z</time>
<desc>lat.=44.517818, lon.=33.985424, Alt.=425.238525m. Speed=0.936000m/h.</desc>
<speed>0.260000</speed>
</trkpt>
<trkpt lat="44.517784" lon="33.985378">
<ele>425.816650</ele>
<time>2011-10-11T15:42:32Z</time>
<desc>lat.=44.517784, lon.=33.985378, Alt.=425.816650m. Speed=2.160000m/h.</desc>
<speed>0.600000</speed>
</trkpt>
<trkpt lat="44.517704" lon="33.985294">
<ele>426.488525</ele>
<time>2011-10-11T15:42:37Z</time>
<desc>lat.=44.517704, lon.=33.985294, Alt.=426.488525m. Speed=2.952000m/h.</desc>
<speed>0.820000</speed>
</trkpt>
<trkpt lat="44.517612" lon="33.985214">
<ele>427.355713</ele>
<time>2011-10-11T15:42:42Z</time>
<desc>lat.=44.517612, lon.=33.985214, Alt.=427.355713m. Speed=3.276000m/h.</desc>
<speed>0.910000</speed>
</trkpt>
<trkpt lat="44.517593" lon="33.985130">
<ele>428.316650</ele>
<time>2011-10-11T15:42:47Z</time>
<desc>lat.=44.517593, lon.=33.985130, Alt.=428.316650m. Speed=3.348000m/h.</desc>
<speed>0.930000</speed>
</trkpt>
<trkpt lat="44.517567" lon="33.985039">
<ele>428.613525</ele>
<time>2011-10-11T15:42:52Z</time>
<desc>lat.=44.517567, lon.=33.985039, Alt.=428.613525m. Speed=3.384000m/h.</desc>
<speed>0.940000</speed>
</trkpt>
<trkpt lat="44.517544" lon="33.984955">
<ele>429.238525</ele>
<time>2011-10-11T15:42:57Z</time>
<desc>lat.=44.517544, lon.=33.984955, Alt.=429.238525m. Speed=3.420000m/h.</desc>
<speed>0.950000</speed>
</trkpt>
<trkpt lat="44.517532" lon="33.984901">
<ele>430.105713</ele>
<time>2011-10-11T15:43:02Z</time>
<desc>lat.=44.517532, lon.=33.984901, Alt.=430.105713m. Speed=3.132000m/h.</desc>
<speed>0.870000</speed>
</trkpt>
<trkpt lat="44.517532" lon="33.984810">
<ele>431.511963</ele>
<time>2011-10-11T15:43:07Z</time>
<desc>lat.=44.517532, lon.=33.984810, Alt.=431.511963m. Speed=2.952000m/h.</desc>
<speed>0.820000</speed>
</trkpt>
<trkpt lat="44.517483" lon="33.984745">
<ele>432.418213</ele>
<time>2011-10-11T15:43:12Z</time>
<desc>lat.=44.517483, lon.=33.984745, Alt.=432.418213m. Speed=2.988000m/h.</desc>
<speed>0.830000</speed>
</trkpt>
<trkpt lat="44.517464" lon="33.984692">
<ele>433.090088</ele>
<time>2011-10-11T15:43:17Z</time>
<desc>lat.=44.517464, lon.=33.984692, Alt.=433.090088m. Speed=3.348000m/h.</desc>
<speed>0.930000</speed>
</trkpt>
<trkpt lat="44.517464" lon="33.984600">
<ele>433.894775</ele>
<time>2011-10-11T15:43:22Z</time>
<desc>lat.=44.517464, lon.=33.984600, Alt.=433.894775m. Speed=3.996000m/h.</desc>
<speed>1.110000</speed>
</trkpt>
<trkpt lat="44.517437" lon="33.984539">
<ele>435.121338</ele>
<time>2011-10-11T15:43:27Z</time>
<desc>lat.=44.517437, lon.=33.984539, Alt.=435.121338m. Speed=3.564000m/h.</desc>
<speed>0.990000</speed>
</trkpt>
<trkpt lat="44.517403" lon="33.984489">
<ele>436.144775</ele>
<time>2011-10-11T15:43:32Z</time>
<desc>lat.=44.517403, lon.=33.984489, Alt.=436.144775m. Speed=2.448000m/h.</desc>
<speed>0.680000</speed>
</trkpt>
<trkpt lat="44.517273" lon="33.984421">
<ele>437.613525</ele>
<time>2011-10-11T15:43:37Z</time>
<desc>lat.=44.517273, lon.=33.984421, Alt.=437.613525m. Speed=4.608000m/h.</desc>
<speed>1.280000</speed>
</trkpt>
<trkpt lat="44.517223" lon="33.984371">
<ele>438.988525</ele>
<time>2011-10-11T15:43:42Z</time>
<desc>lat.=44.517223, lon.=33.984371, Alt.=438.988525m. Speed=4.536000m/h.</desc>
<speed>1.260000</speed>
</trkpt>
<trkpt lat="44.517208" lon="33.984329">
<ele>440.113525</ele>
<time>2011-10-11T15:43:47Z</time>
<desc>lat.=44.517208, lon.=33.984329, Alt.=440.113525m. Speed=2.772000m/h.</desc>
<speed>0.770000</speed>
</trkpt>
<trkpt lat="44.517178" lon="33.984344">
<ele>440.644775</ele>
<time>2011-10-11T15:43:52Z</time>
<desc>lat.=44.517178, lon.=33.984344, Alt.=440.644775m. Speed=0.468000m/h.</desc>
<speed>0.130000</speed>
</trkpt>
<trkpt lat="44.517166" lon="33.984322">
<ele>441.144775</ele>
<time>2011-10-11T15:43:57Z</time>
<desc>lat.=44.517166, lon.=33.984322, Alt.=441.144775m. Speed=2.160000m/h.</desc>
<speed>0.600000</speed>
</trkpt>
<trkpt lat="44.517208" lon="33.984207">
<ele>440.629150</ele>
<time>2011-10-11T15:44:02Z</time>
<desc>lat.=44.517208, lon.=33.984207, Alt.=440.629150m. Speed=1.404000m/h.</desc>
<speed>0.390000</speed>
</trkpt>
<trkpt lat="44.517231" lon="33.984188">
<ele>440.668213</ele>
<time>2011-10-11T15:44:07Z</time>
<desc>lat.=44.517231, lon.=33.984188, Alt.=440.668213m. Speed=0.036000m/h.</desc>
<speed>0.010000</speed>
</trkpt>
<trkpt lat="44.517235" lon="33.984184">
<ele>440.793213</ele>
<time>2011-10-11T15:44:12Z</time>
<desc>lat.=44.517235, lon.=33.984184, Alt.=440.793213m. Speed=0.144000m/h.</desc>
<speed>0.040000</speed>
</trkpt>
<trkpt lat="44.517231" lon="33.984177">
<ele>440.832275</ele>
<time>2011-10-11T15:44:17Z</time>
<desc>lat.=44.517231, lon.=33.984177, Alt.=440.832275m. Speed=1.080000m/h.</desc>
<speed>0.300000</speed>
</trkpt>
<trkpt lat="44.517220" lon="33.984150">
<ele>440.715088</ele>
<time>2011-10-11T15:44:22Z</time>
<desc>lat.=44.517220, lon.=33.984150, Alt.=440.715088m. Speed=0.936000m/h.</desc>
<speed>0.260000</speed>
</trkpt>
<trkpt lat="44.517197" lon="33.984180">
<ele>440.816650</ele>
<time>2011-10-11T15:44:27Z</time>
<desc>lat.=44.517197, lon.=33.984180, Alt.=440.816650m. Speed=0.720000m/h.</desc>
<speed>0.200000</speed>
</trkpt>
<trkpt lat="44.517189" lon="33.984177">
<ele>440.816650</ele>
<time>2011-10-11T15:44:32Z</time>
<desc>lat.=44.517189, lon.=33.984177, Alt.=440.816650m. Speed=0.360000m/h.</desc>
<speed>0.100000</speed>
</trkpt>
<trkpt lat="44.517185" lon="33.984180">
<ele>440.738525</ele>
<time>2011-10-11T15:44:37Z</time>
<desc>lat.=44.517185, lon.=33.984180, Alt.=440.738525m. Speed=1.296000m/h.</desc>
<speed>0.360000</speed>
</trkpt>
<trkpt lat="44.517159" lon="33.984165">
<ele>441.449463</ele>
<time>2011-10-11T15:44:42Z</time>
<desc>lat.=44.517159, lon.=33.984165, Alt.=441.449463m. Speed=0.468000m/h.</desc>
<speed>0.130000</speed>
</trkpt>
<trkpt lat="44.517139" lon="33.984161">
<ele>441.488525</ele>
<time>2011-10-11T15:44:47Z</time>
<desc>lat.=44.517139, lon.=33.984161, Alt.=441.488525m. Speed=0.864000m/h.</desc>
<speed>0.240000</speed>
</trkpt>
<trkpt lat="44.517136" lon="33.984154">
<ele>441.652588</ele>
<time>2011-10-11T15:44:52Z</time>
<desc>lat.=44.517136, lon.=33.984154, Alt.=441.652588m. Speed=0.864000m/h.</desc>
<speed>0.240000</speed>
</trkpt>
<trkpt lat="44.517124" lon="33.984158">
<ele>441.504150</ele>
<time>2011-10-11T15:44:57Z</time>
<desc>lat.=44.517124, lon.=33.984158, Alt.=441.504150m. Speed=0.972000m/h.</desc>
<speed>0.270000</speed>
</trkpt>
<trkpt lat="44.517117" lon="33.984161">
<ele>441.441650</ele>
<time>2011-10-11T15:45:02Z</time>
<desc>lat.=44.517117, lon.=33.984161, Alt.=441.441650m. Speed=0.432000m/h.</desc>
<speed>0.120000</speed>
</trkpt>
<trkpt lat="44.517117" lon="33.984165">
<ele>441.394775</ele>
<time>2011-10-11T15:45:07Z</time>
<desc>lat.=44.517117, lon.=33.984165, Alt.=441.394775m. Speed=0.540000m/h.</desc>
<speed>0.150000</speed>
</trkpt>
<trkpt lat="44.517117" lon="33.984177">
<ele>441.363525</ele>
<time>2011-10-11T15:45:12Z</time>
<desc>lat.=44.517117, lon.=33.984177, Alt.=441.363525m. Speed=0.576000m/h.</desc>
<speed>0.160000</speed>
</trkpt>
<trkpt lat="44.517120" lon="33.984177">
<ele>441.363525</ele>
<time>2011-10-11T15:45:17Z</time>
<desc>lat.=44.517120, lon.=33.984177, Alt.=441.363525m. Speed=0.072000m/h.</desc>
<speed>0.020000</speed>
</trkpt>
<trkpt lat="44.517120" lon="33.984177">
<ele>441.355713</ele>
<time>2011-10-11T15:45:22Z</time>
<desc>lat.=44.517120, lon.=33.984177, Alt.=441.355713m. Speed=0.036000m/h.</desc>
<speed>0.010000</speed>
</trkpt>
<trkpt lat="44.517120" lon="33.984177">
<ele>441.324463</ele>
<time>2011-10-11T15:45:27Z</time>
<desc>lat.=44.517120, lon.=33.984177, Alt.=441.324463m. Speed=0.756000m/h.</desc>
<speed>0.210000</speed>
</trkpt>
<trkpt lat="44.517113" lon="33.984177">
<ele>441.254150</ele>
<time>2011-10-11T15:45:32Z</time>
<desc>lat.=44.517113, lon.=33.984177, Alt.=441.254150m. Speed=0.612000m/h.</desc>
<speed>0.170000</speed>
</trkpt>
<trkpt lat="44.517113" lon="33.984165">
<ele>441.191650</ele>
<time>2011-10-11T15:45:37Z</time>
<desc>lat.=44.517113, lon.=33.984165, Alt.=441.191650m. Speed=0.180000m/h.</desc>
<speed>0.050000</speed>
</trkpt>
<trkpt lat="44.517113" lon="33.984169">
<ele>441.230713</ele>
<time>2011-10-11T15:45:42Z</time>
<desc>lat.=44.517113, lon.=33.984169, Alt.=441.230713m. Speed=0.324000m/h.</desc>
<speed>0.090000</speed>
</trkpt>
<trkpt lat="44.517117" lon="33.984173">
<ele>440.660400</ele>
<time>2011-10-11T15:45:47Z</time>
<desc>lat.=44.517117, lon.=33.984173, Alt.=440.660400m. Speed=0.396000m/h.</desc>
<speed>0.110000</speed>
</trkpt>
<trkpt lat="44.517124" lon="33.984169">
<ele>440.191650</ele>
<time>2011-10-11T15:45:52Z</time>
<desc>lat.=44.517124, lon.=33.984169, Alt.=440.191650m. Speed=0.612000m/h.</desc>
<speed>0.170000</speed>
</trkpt>
<trkpt lat="44.517128" lon="33.984169">
<ele>440.129150</ele>
<time>2011-10-11T15:45:57Z</time>
<desc>lat.=44.517128, lon.=33.984169, Alt.=440.129150m. Speed=0.216000m/h.</desc>
<speed>0.060000</speed>
</trkpt>
<trkpt lat="44.517132" lon="33.984169">
<ele>439.996338</ele>
<time>2011-10-11T15:46:02Z</time>
<desc>lat.=44.517132, lon.=33.984169, Alt.=439.996338m. Speed=0.252000m/h.</desc>
<speed>0.070000</speed>
</trkpt>
<trkpt lat="44.517128" lon="33.984165">
<ele>439.886963</ele>
<time>2011-10-11T15:46:07Z</time>
<desc>lat.=44.517128, lon.=33.984165, Alt.=439.886963m. Speed=0.864000m/h.</desc>
<speed>0.240000</speed>
</trkpt>
<trkpt lat="44.517128" lon="33.984154">
<ele>439.746338</ele>
<time>2011-10-11T15:46:12Z</time>
<desc>lat.=44.517128, lon.=33.984154, Alt.=439.746338m. Speed=0.360000m/h.</desc>
<speed>0.100000</speed>
</trkpt>
<trkpt lat="44.517132" lon="33.984150">
<ele>439.707275</ele>
<time>2011-10-11T15:46:17Z</time>
<desc>lat.=44.517132, lon.=33.984150, Alt.=439.707275m. Speed=0.252000m/h.</desc>
<speed>0.070000</speed>
</trkpt>
<trkpt lat="44.517090" lon="33.984158">
<ele>439.605713</ele>
<time>2011-10-11T15:46:22Z</time>
<desc>lat.=44.517090, lon.=33.984158, Alt.=439.605713m. Speed=0.864000m/h.</desc>
<speed>0.240000</speed>
</trkpt>
<trkpt lat="44.517082" lon="33.984154">
<ele>439.535400</ele>
<time>2011-10-11T15:46:27Z</time>
<desc>lat.=44.517082, lon.=33.984154, Alt.=439.535400m. Speed=0.468000m/h.</desc>
<speed>0.130000</speed>
</trkpt>
<trkpt lat="44.517078" lon="33.984146">
<ele>439.511963</ele>
<time>2011-10-11T15:46:32Z</time>
<desc>lat.=44.517078, lon.=33.984146, Alt.=439.511963m. Speed=0.360000m/h.</desc>
<speed>0.100000</speed>
</trkpt>
<trkpt lat="44.517078" lon="33.984138">
<ele>439.504150</ele>
<time>2011-10-11T15:46:37Z</time>
<desc>lat.=44.517078, lon.=33.984138, Alt.=439.504150m. Speed=0.612000m/h.</desc>
<speed>0.170000</speed>
</trkpt>
<trkpt lat="44.517075" lon="33.984142">
<ele>439.496338</ele>
<time>2011-10-11T15:46:42Z</time>
<desc>lat.=44.517075, lon.=33.984142, Alt.=439.496338m. Speed=0.504000m/h.</desc>
<speed>0.140000</speed>
</trkpt>
<trkpt lat="44.517075" lon="33.984154">
<ele>439.488525</ele>
<time>2011-10-11T15:46:47Z</time>
<desc>lat.=44.517075, lon.=33.984154, Alt.=439.488525m. Speed=0.504000m/h.</desc>
<speed>0.140000</speed>
</trkpt>
<trkpt lat="44.517086" lon="33.984161">
<ele>439.519775</ele>
<time>2011-10-11T15:46:52Z</time>
<desc>lat.=44.517086, lon.=33.984161, Alt.=439.519775m. Speed=1.008000m/h.</desc>
<speed>0.280000</speed>
</trkpt>
<trkpt lat="44.517071" lon="33.984131">
<ele>438.933838</ele>
<time>2011-10-11T15:46:57Z</time>
<desc>lat.=44.517071, lon.=33.984131, Alt.=438.933838m. Speed=3.168000m/h.</desc>
<speed>0.880000</speed>
</trkpt>
<trkpt lat="44.517132" lon="33.984138">
<ele>439.011963</ele>
<time>2011-10-11T15:47:02Z</time>
<desc>lat.=44.517132, lon.=33.984138, Alt.=439.011963m. Speed=2.268000m/h.</desc>
<speed>0.630000</speed>
</trkpt>
<trkpt lat="44.517105" lon="33.984146">
<ele>438.816650</ele>
<time>2011-10-11T15:47:07Z</time>
<desc>lat.=44.517105, lon.=33.984146, Alt.=438.816650m. Speed=0.216000m/h.</desc>
<speed>0.060000</speed>
</trkpt>
<trkpt lat="44.517101" lon="33.984142">
<ele>438.777588</ele>
<time>2011-10-11T15:47:12Z</time>
<desc>lat.=44.517101, lon.=33.984142, Alt.=438.777588m. Speed=0.432000m/h.</desc>
<speed>0.120000</speed>
</trkpt>
<trkpt lat="44.517094" lon="33.984135">
<ele>438.777588</ele>
<time>2011-10-11T15:47:17Z</time>
<desc>lat.=44.517094, lon.=33.984135, Alt.=438.777588m. Speed=1.836000m/h.</desc>
<speed>0.510000</speed>
</trkpt>
<trkpt lat="44.517105" lon="33.984119">
<ele>438.504150</ele>
<time>2011-10-11T15:47:22Z</time>
<desc>lat.=44.517105, lon.=33.984119, Alt.=438.504150m. Speed=0.288000m/h.</desc>
<speed>0.080000</speed>
</trkpt>
<trkpt lat="44.517109" lon="33.984112">
<ele>438.488525</ele>
<time>2011-10-11T15:47:27Z</time>
<desc>lat.=44.517109, lon.=33.984112, Alt.=438.488525m. Speed=0.936000m/h.</desc>
<speed>0.260000</speed>
</trkpt>
<trkpt lat="44.517101" lon="33.984089">
<ele>438.355713</ele>
<time>2011-10-11T15:47:32Z</time>
<desc>lat.=44.517101, lon.=33.984089, Alt.=438.355713m. Speed=1.548000m/h.</desc>
<speed>0.430000</speed>
</trkpt>
<trkpt lat="44.517059" lon="33.984116">
<ele>438.027588</ele>
<time>2011-10-11T15:47:37Z</time>
<desc>lat.=44.517059, lon.=33.984116, Alt.=438.027588m. Speed=2.772000m/h.</desc>
<speed>0.770000</speed>
</trkpt>
<trkpt lat="44.517052" lon="33.984089">
<ele>437.918213</ele>
<time>2011-10-11T15:47:42Z</time>
<desc>lat.=44.517052, lon.=33.984089, Alt.=437.918213m. Speed=1.620000m/h.</desc>
<speed>0.450000</speed>
</trkpt>
<trkpt lat="44.517033" lon="33.984070">
<ele>437.949463</ele>
<time>2011-10-11T15:47:47Z</time>
<desc>lat.=44.517033, lon.=33.984070, Alt.=437.949463m. Speed=1.800000m/h.</desc>
<speed>0.500000</speed>
</trkpt>
<trkpt lat="44.517029" lon="33.984043">
<ele>438.043213</ele>
<time>2011-10-11T15:47:52Z</time>
<desc>lat.=44.517029, lon.=33.984043, Alt.=438.043213m. Speed=1.512000m/h.</desc>
<speed>0.420000</speed>
</trkpt>
<trkpt lat="44.517021" lon="33.984035">
<ele>438.066650</ele>
<time>2011-10-11T15:47:57Z</time>
<desc>lat.=44.517021, lon.=33.984035, Alt.=438.066650m. Speed=0.972000m/h.</desc>
<speed>0.270000</speed>
</trkpt>
<trkpt lat="44.517036" lon="33.984001">
<ele>438.066650</ele>
<time>2011-10-11T15:48:02Z</time>
<desc>lat.=44.517036, lon.=33.984001, Alt.=438.066650m. Speed=1.692000m/h.</desc>
<speed>0.470000</speed>
</trkpt>
<trkpt lat="44.517082" lon="33.983978">
<ele>438.011963</ele>
<time>2011-10-11T15:48:07Z</time>
<desc>lat.=44.517082, lon.=33.983978, Alt.=438.011963m. Speed=1.692000m/h.</desc>
<speed>0.470000</speed>
</trkpt>
<trkpt lat="44.517086" lon="33.983959">
<ele>437.965088</ele>
<time>2011-10-11T15:48:12Z</time>
<desc>lat.=44.517086, lon.=33.983959, Alt.=437.965088m. Speed=2.196000m/h.</desc>
<speed>0.610000</speed>
</trkpt>
<trkpt lat="44.517113" lon="33.984024">
<ele>437.918213</ele>
<time>2011-10-11T15:48:17Z</time>
<desc>lat.=44.517113, lon.=33.984024, Alt.=437.918213m. Speed=0.468000m/h.</desc>
<speed>0.130000</speed>
</trkpt>
<trkpt lat="44.517109" lon="33.984020">
<ele>437.980713</ele>
<time>2011-10-11T15:48:22Z</time>
<desc>lat.=44.517109, lon.=33.984020, Alt.=437.980713m. Speed=0.936000m/h.</desc>
<speed>0.260000</speed>
</trkpt>
<trkpt lat="44.517109" lon="33.984009">
<ele>438.019775</ele>
<time>2011-10-11T15:48:27Z</time>
<desc>lat.=44.517109, lon.=33.984009, Alt.=438.019775m. Speed=0.792000m/h.</desc>
<speed>0.220000</speed>
</trkpt>
<trkpt lat="44.517105" lon="33.983997">
<ele>438.043213</ele>
<time>2011-10-11T15:48:32Z</time>
<desc>lat.=44.517105, lon.=33.983997, Alt.=438.043213m. Speed=0.396000m/h.</desc>
<speed>0.110000</speed>
</trkpt>
<trkpt lat="44.517109" lon="33.983997">
<ele>438.082275</ele>
<time>2011-10-11T15:48:37Z</time>
<desc>lat.=44.517109, lon.=33.983997, Alt.=438.082275m. Speed=0.540000m/h.</desc>
<speed>0.150000</speed>
</trkpt>
<trkpt lat="44.517109" lon="33.983990">
<ele>438.090088</ele>
<time>2011-10-11T15:48:42Z</time>
<desc>lat.=44.517109, lon.=33.983990, Alt.=438.090088m. Speed=0.756000m/h.</desc>
<speed>0.210000</speed>
</trkpt>
<trkpt lat="44.517101" lon="33.983974">
<ele>438.105713</ele>
<time>2011-10-11T15:48:47Z</time>
<desc>lat.=44.517101, lon.=33.983974, Alt.=438.105713m. Speed=1.296000m/h.</desc>
<speed>0.360000</speed>
</trkpt>
<trkpt lat="44.517082" lon="33.983944">
<ele>438.347900</ele>
<time>2011-10-11T15:48:52Z</time>
<desc>lat.=44.517082, lon.=33.983944, Alt.=438.347900m. Speed=1.512000m/h.</desc>
<speed>0.420000</speed>
</trkpt>
<trkpt lat="44.517067" lon="33.983936">
<ele>438.730713</ele>
<time>2011-10-11T15:48:57Z</time>
<desc>lat.=44.517067, lon.=33.983936, Alt.=438.730713m. Speed=0.432000m/h.</desc>
<speed>0.120000</speed>
</trkpt>
<trkpt lat="44.517059" lon="33.983929">
<ele>438.754150</ele>
<time>2011-10-11T15:49:02Z</time>
<desc>lat.=44.517059, lon.=33.983929, Alt.=438.754150m. Speed=0.540000m/h.</desc>
<speed>0.150000</speed>
</trkpt>
<trkpt lat="44.517036" lon="33.983921">
<ele>438.965088</ele>
<time>2011-10-11T15:49:07Z</time>
<desc>lat.=44.517036, lon.=33.983921, Alt.=438.965088m. Speed=0.684000m/h.</desc>
<speed>0.190000</speed>
</trkpt>
<trkpt lat="44.517040" lon="33.983921">
<ele>439.027588</ele>
<time>2011-10-11T15:49:12Z</time>
<desc>lat.=44.517040, lon.=33.983921, Alt.=439.027588m. Speed=0.864000m/h.</desc>
<speed>0.240000</speed>
</trkpt>
<trkpt lat="44.517059" lon="33.983955">
<ele>439.168213</ele>
<time>2011-10-11T15:49:17Z</time>
<desc>lat.=44.517059, lon.=33.983955, Alt.=439.168213m. Speed=0.072000m/h.</desc>
<speed>0.020000</speed>
</trkpt>
<trkpt lat="44.517078" lon="33.983978">
<ele>439.293213</ele>
<time>2011-10-11T15:49:22Z</time>
<desc>lat.=44.517078, lon.=33.983978, Alt.=439.293213m. Speed=0.936000m/h.</desc>
<speed>0.260000</speed>
</trkpt>
<trkpt lat="44.517101" lon="33.984005">
<ele>439.480713</ele>
<time>2011-10-11T15:49:27Z</time>
<desc>lat.=44.517101, lon.=33.984005, Alt.=439.480713m. Speed=1.116000m/h.</desc>
<speed>0.310000</speed>
</trkpt>
<trkpt lat="44.517132" lon="33.984051">
<ele>439.652588</ele>
<time>2011-10-11T15:49:32Z</time>
<desc>lat.=44.517132, lon.=33.984051, Alt.=439.652588m. Speed=1.116000m/h.</desc>
<speed>0.310000</speed>
</trkpt>
<trkpt lat="44.517174" lon="33.984077">
<ele>439.472900</ele>
<time>2011-10-11T15:49:37Z</time>
<desc>lat.=44.517174, lon.=33.984077, Alt.=439.472900m. Speed=1.116000m/h.</desc>
<speed>0.310000</speed>
</trkpt>
<trkpt lat="44.517193" lon="33.984097">
<ele>439.465088</ele>
<time>2011-10-11T15:49:42Z</time>
<desc>lat.=44.517193, lon.=33.984097, Alt.=439.465088m. Speed=0.684000m/h.</desc>
<speed>0.190000</speed>
</trkpt>
<trkpt lat="44.517197" lon="33.984104">
<ele>439.449463</ele>
<time>2011-10-11T15:49:47Z</time>
<desc>lat.=44.517197, lon.=33.984104, Alt.=439.449463m. Speed=0.576000m/h.</desc>
<speed>0.160000</speed>
</trkpt>
<trkpt lat="44.517200" lon="33.984108">
<ele>439.441650</ele>
<time>2011-10-11T15:49:52Z</time>
<desc>lat.=44.517200, lon.=33.984108, Alt.=439.441650m. Speed=0.792000m/h.</desc>
<speed>0.220000</speed>
</trkpt>
<trkpt lat="44.517200" lon="33.984108">
<ele>439.543213</ele>
<time>2011-10-11T15:49:57Z</time>
<desc>lat.=44.517200, lon.=33.984108, Alt.=439.543213m. Speed=0.180000m/h.</desc>
<speed>0.050000</speed>
</trkpt>
<trkpt lat="44.517208" lon="33.984104">
<ele>439.582275</ele>
<time>2011-10-11T15:50:02Z</time>
<desc>lat.=44.517208, lon.=33.984104, Alt.=439.582275m. Speed=0.108000m/h.</desc>
<speed>0.030000</speed>
</trkpt>
<trkpt lat="44.517212" lon="33.984100">
<ele>439.590088</ele>
<time>2011-10-11T15:50:07Z</time>
<desc>lat.=44.517212, lon.=33.984100, Alt.=439.590088m. Speed=0.504000m/h.</desc>
<speed>0.140000</speed>
</trkpt>
<trkpt lat="44.517231" lon="33.984093">
<ele>439.761963</ele>
<time>2011-10-11T15:50:12Z</time>
<desc>lat.=44.517231, lon.=33.984093, Alt.=439.761963m. Speed=0.648000m/h.</desc>
<speed>0.180000</speed>
</trkpt>
<trkpt lat="44.517242" lon="33.984085">
<ele>439.785400</ele>
<time>2011-10-11T15:50:17Z</time>
<desc>lat.=44.517242, lon.=33.984085, Alt.=439.785400m. Speed=0.468000m/h.</desc>
<speed>0.130000</speed>
</trkpt>
<trkpt lat="44.517250" lon="33.984089">
<ele>439.793213</ele>
<time>2011-10-11T15:50:22Z</time>
<desc>lat.=44.517250, lon.=33.984089, Alt.=439.793213m. Speed=1.116000m/h.</desc>
<speed>0.310000</speed>
</trkpt>
<trkpt lat="44.517273" lon="33.984093">
<ele>440.121338</ele>
<time>2011-10-11T15:50:27Z</time>
<desc>lat.=44.517273, lon.=33.984093, Alt.=440.121338m. Speed=0.432000m/h.</desc>
<speed>0.120000</speed>
</trkpt>
<trkpt lat="44.517281" lon="33.984100">
<ele>440.254150</ele>
<time>2011-10-11T15:50:32Z</time>
<desc>lat.=44.517281, lon.=33.984100, Alt.=440.254150m. Speed=0.648000m/h.</desc>
<speed>0.180000</speed>
</trkpt>
<trkpt lat="44.517284" lon="33.984108">
<ele>440.293213</ele>
<time>2011-10-11T15:50:37Z</time>
<desc>lat.=44.517284, lon.=33.984108, Alt.=440.293213m. Speed=0.468000m/h.</desc>
<speed>0.130000</speed>
</trkpt>
<trkpt lat="44.517281" lon="33.984116">
<ele>440.308838</ele>
<time>2011-10-11T15:50:42Z</time>
<desc>lat.=44.517281, lon.=33.984116, Alt.=440.308838m. Speed=0.972000m/h.</desc>
<speed>0.270000</speed>
</trkpt>
<trkpt lat="44.517269" lon="33.984119">
<ele>440.308838</ele>
<time>2011-10-11T15:50:47Z</time>
<desc>lat.=44.517269, lon.=33.984119, Alt.=440.308838m. Speed=1.116000m/h.</desc>
<speed>0.310000</speed>
</trkpt>
<trkpt lat="44.517254" lon="33.984112">
<ele>440.668213</ele>
<time>2011-10-11T15:50:52Z</time>
<desc>lat.=44.517254, lon.=33.984112, Alt.=440.668213m. Speed=0.864000m/h.</desc>
<speed>0.240000</speed>
</trkpt>
<trkpt lat="44.517239" lon="33.984127">
<ele>440.840088</ele>
<time>2011-10-11T15:50:57Z</time>
<desc>lat.=44.517239, lon.=33.984127, Alt.=440.840088m. Speed=0.648000m/h.</desc>
<speed>0.180000</speed>
</trkpt>
<trkpt lat="44.517208" lon="33.984131">
<ele>441.207275</ele>
<time>2011-10-11T15:51:02Z</time>
<desc>lat.=44.517208, lon.=33.984131, Alt.=441.207275m. Speed=1.260000m/h.</desc>
<speed>0.350000</speed>
</trkpt>
<trkpt lat="44.517178" lon="33.984127">
<ele>441.636963</ele>
<time>2011-10-11T15:51:07Z</time>
<desc>lat.=44.517178, lon.=33.984127, Alt.=441.636963m. Speed=0.972000m/h.</desc>
<speed>0.270000</speed>
</trkpt>
<trkpt lat="44.517166" lon="33.984127">
<ele>441.668213</ele>
<time>2011-10-11T15:51:12Z</time>
<desc>lat.=44.517166, lon.=33.984127, Alt.=441.668213m. Speed=0.684000m/h.</desc>
<speed>0.190000</speed>
</trkpt>
<trkpt lat="44.517162" lon="33.984131">
<ele>441.652588</ele>
<time>2011-10-11T15:51:17Z</time>
<desc>lat.=44.517162, lon.=33.984131, Alt.=441.652588m. Speed=0.576000m/h.</desc>
<speed>0.160000</speed>
</trkpt>
<trkpt lat="44.517155" lon="33.984127">
<ele>441.636963</ele>
<time>2011-10-11T15:51:22Z</time>
<desc>lat.=44.517155, lon.=33.984127, Alt.=441.636963m. Speed=0.792000m/h.</desc>
<speed>0.220000</speed>
</trkpt>
<trkpt lat="44.517147" lon="33.984116">
<ele>441.629150</ele>
<time>2011-10-11T15:51:27Z</time>
<desc>lat.=44.517147, lon.=33.984116, Alt.=441.629150m. Speed=0.648000m/h.</desc>
<speed>0.180000</speed>
</trkpt>
<trkpt lat="44.517139" lon="33.984112">
<ele>441.629150</ele>
<time>2011-10-11T15:51:32Z</time>
<desc>lat.=44.517139, lon.=33.984112, Alt.=441.629150m. Speed=0.432000m/h.</desc>
<speed>0.120000</speed>
</trkpt>
<trkpt lat="44.517139" lon="33.984104">
<ele>441.652588</ele>
<time>2011-10-11T15:51:37Z</time>
<desc>lat.=44.517139, lon.=33.984104, Alt.=441.652588m. Speed=0.072000m/h.</desc>
<speed>0.020000</speed>
</trkpt>
<trkpt lat="44.517143" lon="33.984108">
<ele>441.660400</ele>
<time>2011-10-11T15:51:42Z</time>
<desc>lat.=44.517143, lon.=33.984108, Alt.=441.660400m. Speed=0.252000m/h.</desc>
<speed>0.070000</speed>
</trkpt>
<trkpt lat="44.517143" lon="33.984112">
<ele>441.652588</ele>
<time>2011-10-11T15:51:47Z</time>
<desc>lat.=44.517143, lon.=33.984112, Alt.=441.652588m. Speed=0.324000m/h.</desc>
<speed>0.090000</speed>
</trkpt>
<trkpt lat="44.517147" lon="33.984112">
<ele>441.636963</ele>
<time>2011-10-11T15:51:52Z</time>
<desc>lat.=44.517147, lon.=33.984112, Alt.=441.636963m. Speed=0.432000m/h.</desc>
<speed>0.120000</speed>
</trkpt>
<trkpt lat="44.517151" lon="33.984108">
<ele>441.636963</ele>
<time>2011-10-11T15:51:57Z</time>
<desc>lat.=44.517151, lon.=33.984108, Alt.=441.636963m. Speed=1.476000m/h.</desc>
<speed>0.410000</speed>
</trkpt>
<trkpt lat="44.517147" lon="33.984085">
<ele>442.027588</ele>
<time>2011-10-11T15:52:02Z</time>
<desc>lat.=44.517147, lon.=33.984085, Alt.=442.027588m. Speed=0.792000m/h.</desc>
<speed>0.220000</speed>
</trkpt>
<trkpt lat="44.517143" lon="33.984085">
<ele>442.160400</ele>
<time>2011-10-11T15:52:07Z</time>
<desc>lat.=44.517143, lon.=33.984085, Alt.=442.160400m. Speed=0.396000m/h.</desc>
<speed>0.110000</speed>
</trkpt>
<trkpt lat="44.517120" lon="33.984066">
<ele>442.246338</ele>
<time>2011-10-11T15:52:12Z</time>
<desc>lat.=44.517120, lon.=33.984066, Alt.=442.246338m. Speed=0.972000m/h.</desc>
<speed>0.270000</speed>
</trkpt>
<trkpt lat="44.517097" lon="33.984055">
<ele>442.293213</ele>
<time>2011-10-11T15:52:17Z</time>
<desc>lat.=44.517097, lon.=33.984055, Alt.=442.293213m. Speed=0.684000m/h.</desc>
<speed>0.190000</speed>
</trkpt>
<trkpt lat="44.517090" lon="33.984055">
<ele>442.301025</ele>
<time>2011-10-11T15:52:22Z</time>
<desc>lat.=44.517090, lon.=33.984055, Alt.=442.301025m. Speed=0.792000m/h.</desc>
<speed>0.220000</speed>
</trkpt>
<trkpt lat="44.517078" lon="33.984055">
<ele>442.301025</ele>
<time>2011-10-11T15:52:27Z</time>
<desc>lat.=44.517078, lon.=33.984055, Alt.=442.301025m. Speed=0.720000m/h.</desc>
<speed>0.200000</speed>
</trkpt>
<trkpt lat="44.517094" lon="33.984085">
<ele>442.254150</ele>
<time>2011-10-11T15:52:32Z</time>
<desc>lat.=44.517094, lon.=33.984085, Alt.=442.254150m. Speed=1.224000m/h.</desc>
<speed>0.340000</speed>
</trkpt>
<trkpt lat="44.517128" lon="33.984127">
<ele>442.074463</ele>
<time>2011-10-11T15:52:37Z</time>
<desc>lat.=44.517128, lon.=33.984127, Alt.=442.074463m. Speed=1.080000m/h.</desc>
<speed>0.300000</speed>
</trkpt>
<trkpt lat="44.517128" lon="33.984146">
<ele>441.824463</ele>
<time>2011-10-11T15:52:42Z</time>
<desc>lat.=44.517128, lon.=33.984146, Alt.=441.824463m. Speed=0.972000m/h.</desc>
<speed>0.270000</speed>
</trkpt>
<trkpt lat="44.517132" lon="33.984161">
<ele>441.660400</ele>
<time>2011-10-11T15:52:47Z</time>
<desc>lat.=44.517132, lon.=33.984161, Alt.=441.660400m. Speed=0.648000m/h.</desc>
<speed>0.180000</speed>
</trkpt>
<trkpt lat="44.517132" lon="33.984165">
<ele>441.629150</ele>
<time>2011-10-11T15:52:52Z</time>
<desc>lat.=44.517132, lon.=33.984165, Alt.=441.629150m. Speed=0.180000m/h.</desc>
<speed>0.050000</speed>
</trkpt>
<trkpt lat="44.517136" lon="33.984169">
<ele>441.605713</ele>
<time>2011-10-11T15:52:57Z</time>
<desc>lat.=44.517136, lon.=33.984169, Alt.=441.605713m. Speed=0.072000m/h.</desc>
<speed>0.020000</speed>
</trkpt>
<trkpt lat="44.517139" lon="33.984173">
<ele>441.582275</ele>
<time>2011-10-11T15:53:02Z</time>
<desc>lat.=44.517139, lon.=33.984173, Alt.=441.582275m. Speed=0.180000m/h.</desc>
<speed>0.050000</speed>
</trkpt>
<trkpt lat="44.517139" lon="33.984180">
<ele>441.574463</ele>
<time>2011-10-11T15:53:07Z</time>
<desc>lat.=44.517139, lon.=33.984180, Alt.=441.574463m. Speed=1.080000m/h.</desc>
<speed>0.300000</speed>
</trkpt>
<trkpt lat="44.517124" lon="33.984215">
<ele>441.191650</ele>
<time>2011-10-11T15:53:12Z</time>
<desc>lat.=44.517124, lon.=33.984215, Alt.=441.191650m. Speed=1.404000m/h.</desc>
<speed>0.390000</speed>
</trkpt>
<trkpt lat="44.517105" lon="33.984222">
<ele>441.097900</ele>
<time>2011-10-11T15:53:17Z</time>
<desc>lat.=44.517105, lon.=33.984222, Alt.=441.097900m. Speed=1.476000m/h.</desc>
<speed>0.410000</speed>
</trkpt>
<trkpt lat="44.517086" lon="33.984219">
<ele>441.027588</ele>
<time>2011-10-11T15:53:22Z</time>
<desc>lat.=44.517086, lon.=33.984219, Alt.=441.027588m. Speed=1.080000m/h.</desc>
<speed>0.300000</speed>
</trkpt>
<trkpt lat="44.517075" lon="33.984200">
<ele>440.988525</ele>
<time>2011-10-11T15:53:27Z</time>
<desc>lat.=44.517075, lon.=33.984200, Alt.=440.988525m. Speed=0.792000m/h.</desc>
<speed>0.220000</speed>
</trkpt>
</trkseg>
</trk>
</gpx>